<?xml version="1.0" encoding="UTF-8" standalone="no" ?>
<gpx xmlns="http://www.topografix.com/GPX/1/1" xmlns:xsi="http://www.w3.org/2001/XMLSchema-instance" xsi:schemaLocation="http://www.topografix.com/GPX/1/1 http://www.topografix.com/GPX/1/1/gpx.xsd" version="1.1" creator="VisuGPX - https://www.visugpx.com">
  <metadata>
    <name>Sport d'hiver</name>
    <desc><![CDATA[Grosse virée sur un tapis blanc, magnifique et physique]]></desc>
  </metadata>
  <trk>
    <name><![CDATA[18 Rue Antoine Coysevox]]></name>
    <desc><![CDATA[]]></desc>
    <trkseg>
      <trkpt lat="47.51802" lon="6.77512">
        <ele>438.6</ele>
        <time>2017-01-15T08:03:31.000Z</time>
      </trkpt>
      <trkpt lat="47.51816" lon="6.77471">
        <ele>441.3</ele>
        <time>2017-01-15T08:03:32.000Z</time>
      </trkpt>
      <trkpt lat="47.51816" lon="6.7747">
        <ele>444.9</ele>
        <time>2017-01-15T08:03:54.000Z</time>
      </trkpt>
      <trkpt lat="47.51809" lon="6.77478">
        <ele>445</ele>
        <time>2017-01-15T08:03:55.000Z</time>
      </trkpt>
      <trkpt lat="47.51809" lon="6.77471">
        <ele>439</ele>
        <time>2017-01-15T08:08:43.000Z</time>
      </trkpt>
      <trkpt lat="47.51809" lon="6.77471">
        <ele>438.9</ele>
        <time>2017-01-15T08:08:44.000Z</time>
      </trkpt>
      <trkpt lat="47.51804" lon="6.7747">
        <ele>434.5</ele>
        <time>2017-01-15T08:09:49.000Z</time>
      </trkpt>
      <trkpt lat="47.51804" lon="6.7747">
        <ele>434.4</ele>
        <time>2017-01-15T08:09:50.000Z</time>
      </trkpt>
      <trkpt lat="47.51804" lon="6.77476">
        <ele>435.2</ele>
        <time>2017-01-15T08:10:41.000Z</time>
      </trkpt>
      <trkpt lat="47.51805" lon="6.77476">
        <ele>435.1</ele>
        <time>2017-01-15T08:10:42.000Z</time>
      </trkpt>
      <trkpt lat="47.51809" lon="6.77479">
        <ele>432.3</ele>
        <time>2017-01-15T08:11:43.000Z</time>
      </trkpt>
      <trkpt lat="47.5181" lon="6.7748">
        <ele>432.3</ele>
        <time>2017-01-15T08:11:44.000Z</time>
      </trkpt>
      <trkpt lat="47.51812" lon="6.77484">
        <ele>432.4</ele>
        <time>2017-01-15T08:11:46.000Z</time>
      </trkpt>
      <trkpt lat="47.51812" lon="6.77487">
        <ele>432.3</ele>
        <time>2017-01-15T08:11:47.000Z</time>
      </trkpt>
      <trkpt lat="47.5181" lon="6.7749">
        <ele>432.3</ele>
        <time>2017-01-15T08:11:49.000Z</time>
      </trkpt>
      <trkpt lat="47.51808" lon="6.77491">
        <ele>432.3</ele>
        <time>2017-01-15T08:11:50.000Z</time>
      </trkpt>
      <trkpt lat="47.51806" lon="6.77493">
        <ele>432.4</ele>
        <time>2017-01-15T08:11:51.000Z</time>
      </trkpt>
      <trkpt lat="47.51803" lon="6.77493">
        <ele>432.4</ele>
        <time>2017-01-15T08:11:52.000Z</time>
      </trkpt>
      <trkpt lat="47.518" lon="6.77493">
        <ele>432.5</ele>
        <time>2017-01-15T08:11:53.000Z</time>
      </trkpt>
      <trkpt lat="47.51797" lon="6.77492">
        <ele>432.5</ele>
        <time>2017-01-15T08:11:54.000Z</time>
      </trkpt>
      <trkpt lat="47.51794" lon="6.77491">
        <ele>432.5</ele>
        <time>2017-01-15T08:11:55.000Z</time>
      </trkpt>
      <trkpt lat="47.51791" lon="6.7749">
        <ele>432.5</ele>
        <time>2017-01-15T08:11:56.000Z</time>
      </trkpt>
      <trkpt lat="47.51789" lon="6.77489">
        <ele>432.5</ele>
        <time>2017-01-15T08:11:57.000Z</time>
      </trkpt>
      <trkpt lat="47.51787" lon="6.77488">
        <ele>432.5</ele>
        <time>2017-01-15T08:11:58.000Z</time>
      </trkpt>
      <trkpt lat="47.51784" lon="6.77488">
        <ele>432.6</ele>
        <time>2017-01-15T08:11:59.000Z</time>
      </trkpt>
      <trkpt lat="47.51781" lon="6.77487">
        <ele>432.6</ele>
        <time>2017-01-15T08:12:00.000Z</time>
      </trkpt>
      <trkpt lat="47.51778" lon="6.77486">
        <ele>432.7</ele>
        <time>2017-01-15T08:12:01.000Z</time>
      </trkpt>
      <trkpt lat="47.51774" lon="6.77484">
        <ele>432.7</ele>
        <time>2017-01-15T08:12:02.000Z</time>
      </trkpt>
      <trkpt lat="47.51771" lon="6.77483">
        <ele>432.8</ele>
        <time>2017-01-15T08:12:03.000Z</time>
      </trkpt>
      <trkpt lat="47.51767" lon="6.77481">
        <ele>432.9</ele>
        <time>2017-01-15T08:12:04.000Z</time>
      </trkpt>
      <trkpt lat="47.51764" lon="6.77481">
        <ele>433</ele>
        <time>2017-01-15T08:12:05.000Z</time>
      </trkpt>
      <trkpt lat="47.5176" lon="6.7748">
        <ele>433.9</ele>
        <time>2017-01-15T08:12:06.000Z</time>
      </trkpt>
      <trkpt lat="47.51756" lon="6.77479">
        <ele>434.6</ele>
        <time>2017-01-15T08:12:07.000Z</time>
      </trkpt>
      <trkpt lat="47.51752" lon="6.77478">
        <ele>434.7</ele>
        <time>2017-01-15T08:12:08.000Z</time>
      </trkpt>
      <trkpt lat="47.51748" lon="6.77477">
        <ele>434.7</ele>
        <time>2017-01-15T08:12:09.000Z</time>
      </trkpt>
      <trkpt lat="47.51744" lon="6.77477">
        <ele>434.8</ele>
        <time>2017-01-15T08:12:10.000Z</time>
      </trkpt>
      <trkpt lat="47.5174" lon="6.77477">
        <ele>434.8</ele>
        <time>2017-01-15T08:12:11.000Z</time>
      </trkpt>
      <trkpt lat="47.51738" lon="6.77477">
        <ele>434.9</ele>
        <time>2017-01-15T08:12:12.000Z</time>
      </trkpt>
      <trkpt lat="47.51735" lon="6.77477">
        <ele>435</ele>
        <time>2017-01-15T08:12:13.000Z</time>
      </trkpt>
      <trkpt lat="47.51732" lon="6.77478">
        <ele>435</ele>
        <time>2017-01-15T08:12:14.000Z</time>
      </trkpt>
      <trkpt lat="47.5173" lon="6.77481">
        <ele>435</ele>
        <time>2017-01-15T08:12:15.000Z</time>
      </trkpt>
      <trkpt lat="47.51728" lon="6.77483">
        <ele>435.1</ele>
        <time>2017-01-15T08:12:16.000Z</time>
      </trkpt>
      <trkpt lat="47.51727" lon="6.77488">
        <ele>435.1</ele>
        <time>2017-01-15T08:12:17.000Z</time>
      </trkpt>
      <trkpt lat="47.51726" lon="6.77493">
        <ele>435.2</ele>
        <time>2017-01-15T08:12:18.000Z</time>
      </trkpt>
      <trkpt lat="47.51726" lon="6.77499">
        <ele>435.1</ele>
        <time>2017-01-15T08:12:19.000Z</time>
      </trkpt>
      <trkpt lat="47.51725" lon="6.77505">
        <ele>435.1</ele>
        <time>2017-01-15T08:12:20.000Z</time>
      </trkpt>
      <trkpt lat="47.51724" lon="6.77511">
        <ele>435.2</ele>
        <time>2017-01-15T08:12:21.000Z</time>
      </trkpt>
      <trkpt lat="47.51723" lon="6.77515">
        <ele>435.7</ele>
        <time>2017-01-15T08:12:22.000Z</time>
      </trkpt>
      <trkpt lat="47.51723" lon="6.7752">
        <ele>435.7</ele>
        <time>2017-01-15T08:12:23.000Z</time>
      </trkpt>
      <trkpt lat="47.51722" lon="6.77525">
        <ele>435.7</ele>
        <time>2017-01-15T08:12:24.000Z</time>
      </trkpt>
      <trkpt lat="47.51721" lon="6.77528">
        <ele>435.7</ele>
        <time>2017-01-15T08:12:25.000Z</time>
      </trkpt>
      <trkpt lat="47.5172" lon="6.77533">
        <ele>435.6</ele>
        <time>2017-01-15T08:12:26.000Z</time>
      </trkpt>
      <trkpt lat="47.51719" lon="6.77538">
        <ele>435.6</ele>
        <time>2017-01-15T08:12:27.000Z</time>
      </trkpt>
      <trkpt lat="47.51718" lon="6.77544">
        <ele>435.5</ele>
        <time>2017-01-15T08:12:28.000Z</time>
      </trkpt>
      <trkpt lat="47.51717" lon="6.77549">
        <ele>435.5</ele>
        <time>2017-01-15T08:12:29.000Z</time>
      </trkpt>
      <trkpt lat="47.51716" lon="6.77553">
        <ele>435.5</ele>
        <time>2017-01-15T08:12:30.000Z</time>
      </trkpt>
      <trkpt lat="47.51714" lon="6.77557">
        <ele>435.4</ele>
        <time>2017-01-15T08:12:31.000Z</time>
      </trkpt>
      <trkpt lat="47.51712" lon="6.77559">
        <ele>435.3</ele>
        <time>2017-01-15T08:12:32.000Z</time>
      </trkpt>
      <trkpt lat="47.51709" lon="6.77558">
        <ele>435.2</ele>
        <time>2017-01-15T08:12:33.000Z</time>
      </trkpt>
      <trkpt lat="47.51707" lon="6.77557">
        <ele>435.1</ele>
        <time>2017-01-15T08:12:34.000Z</time>
      </trkpt>
      <trkpt lat="47.51704" lon="6.77554">
        <ele>435</ele>
        <time>2017-01-15T08:12:35.000Z</time>
      </trkpt>
      <trkpt lat="47.51701" lon="6.7755">
        <ele>433.7</ele>
        <time>2017-01-15T08:12:36.000Z</time>
      </trkpt>
      <trkpt lat="47.51698" lon="6.77547">
        <ele>432.8</ele>
        <time>2017-01-15T08:12:37.000Z</time>
      </trkpt>
      <trkpt lat="47.51695" lon="6.77542">
        <ele>431.8</ele>
        <time>2017-01-15T08:12:38.000Z</time>
      </trkpt>
      <trkpt lat="47.51692" lon="6.77538">
        <ele>431</ele>
        <time>2017-01-15T08:12:39.000Z</time>
      </trkpt>
      <trkpt lat="47.51689" lon="6.77534">
        <ele>430.3</ele>
        <time>2017-01-15T08:12:40.000Z</time>
      </trkpt>
      <trkpt lat="47.51686" lon="6.7753">
        <ele>429.8</ele>
        <time>2017-01-15T08:12:41.000Z</time>
      </trkpt>
      <trkpt lat="47.51683" lon="6.77526">
        <ele>428.8</ele>
        <time>2017-01-15T08:12:42.000Z</time>
      </trkpt>
      <trkpt lat="47.51681" lon="6.77521">
        <ele>427.9</ele>
        <time>2017-01-15T08:12:43.000Z</time>
      </trkpt>
      <trkpt lat="47.51678" lon="6.77517">
        <ele>426.9</ele>
        <time>2017-01-15T08:12:44.000Z</time>
      </trkpt>
      <trkpt lat="47.51676" lon="6.77514">
        <ele>425.8</ele>
        <time>2017-01-15T08:12:45.000Z</time>
      </trkpt>
      <trkpt lat="47.51673" lon="6.77509">
        <ele>424.9</ele>
        <time>2017-01-15T08:12:46.000Z</time>
      </trkpt>
      <trkpt lat="47.5167" lon="6.77505">
        <ele>424</ele>
        <time>2017-01-15T08:12:47.000Z</time>
      </trkpt>
      <trkpt lat="47.51666" lon="6.77501">
        <ele>423.5</ele>
        <time>2017-01-15T08:12:48.000Z</time>
      </trkpt>
      <trkpt lat="47.51662" lon="6.77497">
        <ele>423.7</ele>
        <time>2017-01-15T08:12:49.000Z</time>
      </trkpt>
      <trkpt lat="47.51657" lon="6.77492">
        <ele>424.3</ele>
        <time>2017-01-15T08:12:50.000Z</time>
      </trkpt>
      <trkpt lat="47.51653" lon="6.77487">
        <ele>424.6</ele>
        <time>2017-01-15T08:12:51.000Z</time>
      </trkpt>
      <trkpt lat="47.5165" lon="6.77483">
        <ele>425</ele>
        <time>2017-01-15T08:12:52.000Z</time>
      </trkpt>
      <trkpt lat="47.51646" lon="6.77479">
        <ele>425.6</ele>
        <time>2017-01-15T08:12:53.000Z</time>
      </trkpt>
      <trkpt lat="47.51641" lon="6.77474">
        <ele>426.2</ele>
        <time>2017-01-15T08:12:54.000Z</time>
      </trkpt>
      <trkpt lat="47.51637" lon="6.77469">
        <ele>426.9</ele>
        <time>2017-01-15T08:12:55.000Z</time>
      </trkpt>
      <trkpt lat="47.51633" lon="6.77464">
        <ele>427.2</ele>
        <time>2017-01-15T08:12:56.000Z</time>
      </trkpt>
      <trkpt lat="47.51629" lon="6.77459">
        <ele>427.7</ele>
        <time>2017-01-15T08:12:57.000Z</time>
      </trkpt>
      <trkpt lat="47.51625" lon="6.77454">
        <ele>428.3</ele>
        <time>2017-01-15T08:12:58.000Z</time>
      </trkpt>
      <trkpt lat="47.5162" lon="6.77449">
        <ele>428.7</ele>
        <time>2017-01-15T08:12:59.000Z</time>
      </trkpt>
      <trkpt lat="47.51616" lon="6.77444">
        <ele>429.1</ele>
        <time>2017-01-15T08:13:00.000Z</time>
      </trkpt>
      <trkpt lat="47.51612" lon="6.7744">
        <ele>429.3</ele>
        <time>2017-01-15T08:13:01.000Z</time>
      </trkpt>
      <trkpt lat="47.51608" lon="6.77435">
        <ele>429.5</ele>
        <time>2017-01-15T08:13:02.000Z</time>
      </trkpt>
      <trkpt lat="47.51604" lon="6.7743">
        <ele>429.4</ele>
        <time>2017-01-15T08:13:03.000Z</time>
      </trkpt>
      <trkpt lat="47.516" lon="6.77425">
        <ele>429.4</ele>
        <time>2017-01-15T08:13:04.000Z</time>
      </trkpt>
      <trkpt lat="47.51596" lon="6.77419">
        <ele>429.5</ele>
        <time>2017-01-15T08:13:05.000Z</time>
      </trkpt>
      <trkpt lat="47.51592" lon="6.77414">
        <ele>429.4</ele>
        <time>2017-01-15T08:13:06.000Z</time>
      </trkpt>
      <trkpt lat="47.51587" lon="6.77408">
        <ele>429.6</ele>
        <time>2017-01-15T08:13:07.000Z</time>
      </trkpt>
      <trkpt lat="47.51583" lon="6.77402">
        <ele>430</ele>
        <time>2017-01-15T08:13:08.000Z</time>
      </trkpt>
      <trkpt lat="47.51579" lon="6.77397">
        <ele>430.1</ele>
        <time>2017-01-15T08:13:09.000Z</time>
      </trkpt>
      <trkpt lat="47.51574" lon="6.77391">
        <ele>430.1</ele>
        <time>2017-01-15T08:13:10.000Z</time>
      </trkpt>
      <trkpt lat="47.5157" lon="6.77386">
        <ele>430.1</ele>
        <time>2017-01-15T08:13:11.000Z</time>
      </trkpt>
      <trkpt lat="47.51566" lon="6.77381">
        <ele>429.6</ele>
        <time>2017-01-15T08:13:12.000Z</time>
      </trkpt>
      <trkpt lat="47.51562" lon="6.77376">
        <ele>429.3</ele>
        <time>2017-01-15T08:13:13.000Z</time>
      </trkpt>
      <trkpt lat="47.51557" lon="6.77371">
        <ele>428.9</ele>
        <time>2017-01-15T08:13:14.000Z</time>
      </trkpt>
      <trkpt lat="47.51553" lon="6.77366">
        <ele>428.1</ele>
        <time>2017-01-15T08:13:15.000Z</time>
      </trkpt>
      <trkpt lat="47.51549" lon="6.77362">
        <ele>427.3</ele>
        <time>2017-01-15T08:13:16.000Z</time>
      </trkpt>
      <trkpt lat="47.51544" lon="6.77356">
        <ele>426.8</ele>
        <time>2017-01-15T08:13:17.000Z</time>
      </trkpt>
      <trkpt lat="47.5154" lon="6.77351">
        <ele>426</ele>
        <time>2017-01-15T08:13:18.000Z</time>
      </trkpt>
      <trkpt lat="47.51536" lon="6.77347">
        <ele>425.1</ele>
        <time>2017-01-15T08:13:19.000Z</time>
      </trkpt>
      <trkpt lat="47.51531" lon="6.77342">
        <ele>424.2</ele>
        <time>2017-01-15T08:13:20.000Z</time>
      </trkpt>
      <trkpt lat="47.51527" lon="6.77338">
        <ele>423.1</ele>
        <time>2017-01-15T08:13:21.000Z</time>
      </trkpt>
      <trkpt lat="47.51522" lon="6.77332">
        <ele>422</ele>
        <time>2017-01-15T08:13:22.000Z</time>
      </trkpt>
      <trkpt lat="47.51517" lon="6.77326">
        <ele>421</ele>
        <time>2017-01-15T08:13:23.000Z</time>
      </trkpt>
      <trkpt lat="47.51512" lon="6.7732">
        <ele>420.7</ele>
        <time>2017-01-15T08:13:24.000Z</time>
      </trkpt>
      <trkpt lat="47.51506" lon="6.77312">
        <ele>419.4</ele>
        <time>2017-01-15T08:13:25.000Z</time>
      </trkpt>
      <trkpt lat="47.51502" lon="6.77306">
        <ele>417.7</ele>
        <time>2017-01-15T08:13:26.000Z</time>
      </trkpt>
      <trkpt lat="47.51498" lon="6.77297">
        <ele>415.5</ele>
        <time>2017-01-15T08:13:27.000Z</time>
      </trkpt>
      <trkpt lat="47.51496" lon="6.77288">
        <ele>414.2</ele>
        <time>2017-01-15T08:13:28.000Z</time>
      </trkpt>
      <trkpt lat="47.51493" lon="6.7728">
        <ele>413.9</ele>
        <time>2017-01-15T08:13:29.000Z</time>
      </trkpt>
      <trkpt lat="47.51492" lon="6.77272">
        <ele>413.9</ele>
        <time>2017-01-15T08:13:30.000Z</time>
      </trkpt>
      <trkpt lat="47.51491" lon="6.77263">
        <ele>414</ele>
        <time>2017-01-15T08:13:31.000Z</time>
      </trkpt>
      <trkpt lat="47.5149" lon="6.77254">
        <ele>414.2</ele>
        <time>2017-01-15T08:13:32.000Z</time>
      </trkpt>
      <trkpt lat="47.51489" lon="6.77247">
        <ele>414.2</ele>
        <time>2017-01-15T08:13:33.000Z</time>
      </trkpt>
      <trkpt lat="47.51489" lon="6.77241">
        <ele>414.5</ele>
        <time>2017-01-15T08:13:34.000Z</time>
      </trkpt>
      <trkpt lat="47.51488" lon="6.77234">
        <ele>414.4</ele>
        <time>2017-01-15T08:13:35.000Z</time>
      </trkpt>
      <trkpt lat="47.51488" lon="6.77227">
        <ele>414.6</ele>
        <time>2017-01-15T08:13:36.000Z</time>
      </trkpt>
      <trkpt lat="47.51487" lon="6.77221">
        <ele>415</ele>
        <time>2017-01-15T08:13:37.000Z</time>
      </trkpt>
      <trkpt lat="47.51486" lon="6.77216">
        <ele>415</ele>
        <time>2017-01-15T08:13:38.000Z</time>
      </trkpt>
      <trkpt lat="47.51484" lon="6.77211">
        <ele>415.4</ele>
        <time>2017-01-15T08:13:39.000Z</time>
      </trkpt>
      <trkpt lat="47.51481" lon="6.77207">
        <ele>415.6</ele>
        <time>2017-01-15T08:13:40.000Z</time>
      </trkpt>
      <trkpt lat="47.51478" lon="6.77205">
        <ele>416</ele>
        <time>2017-01-15T08:13:41.000Z</time>
      </trkpt>
      <trkpt lat="47.51473" lon="6.77204">
        <ele>416</ele>
        <time>2017-01-15T08:13:42.000Z</time>
      </trkpt>
      <trkpt lat="47.51468" lon="6.77204">
        <ele>415.9</ele>
        <time>2017-01-15T08:13:43.000Z</time>
      </trkpt>
      <trkpt lat="47.51462" lon="6.77205">
        <ele>415.8</ele>
        <time>2017-01-15T08:13:44.000Z</time>
      </trkpt>
      <trkpt lat="47.51455" lon="6.77206">
        <ele>416.2</ele>
        <time>2017-01-15T08:13:45.000Z</time>
      </trkpt>
      <trkpt lat="47.5145" lon="6.77208">
        <ele>416.4</ele>
        <time>2017-01-15T08:13:46.000Z</time>
      </trkpt>
      <trkpt lat="47.51444" lon="6.77209">
        <ele>416.7</ele>
        <time>2017-01-15T08:13:47.000Z</time>
      </trkpt>
      <trkpt lat="47.51439" lon="6.77211">
        <ele>416.6</ele>
        <time>2017-01-15T08:13:48.000Z</time>
      </trkpt>
      <trkpt lat="47.51434" lon="6.77214">
        <ele>416.6</ele>
        <time>2017-01-15T08:13:49.000Z</time>
      </trkpt>
      <trkpt lat="47.51429" lon="6.77216">
        <ele>416.6</ele>
        <time>2017-01-15T08:13:50.000Z</time>
      </trkpt>
      <trkpt lat="47.51423" lon="6.77219">
        <ele>416.9</ele>
        <time>2017-01-15T08:13:51.000Z</time>
      </trkpt>
      <trkpt lat="47.51418" lon="6.77222">
        <ele>416.9</ele>
        <time>2017-01-15T08:13:52.000Z</time>
      </trkpt>
      <trkpt lat="47.51413" lon="6.77224">
        <ele>417.1</ele>
        <time>2017-01-15T08:13:53.000Z</time>
      </trkpt>
      <trkpt lat="47.5141" lon="6.77226">
        <ele>417.5</ele>
        <time>2017-01-15T08:13:54.000Z</time>
      </trkpt>
      <trkpt lat="47.51407" lon="6.77228">
        <ele>417.9</ele>
        <time>2017-01-15T08:13:55.000Z</time>
      </trkpt>
      <trkpt lat="47.51403" lon="6.7723">
        <ele>418.1</ele>
        <time>2017-01-15T08:13:56.000Z</time>
      </trkpt>
      <trkpt lat="47.51399" lon="6.77232">
        <ele>417.8</ele>
        <time>2017-01-15T08:13:57.000Z</time>
      </trkpt>
      <trkpt lat="47.51396" lon="6.77234">
        <ele>417.8</ele>
        <time>2017-01-15T08:13:58.000Z</time>
      </trkpt>
      <trkpt lat="47.51393" lon="6.77236">
        <ele>418</ele>
        <time>2017-01-15T08:13:59.000Z</time>
      </trkpt>
      <trkpt lat="47.5139" lon="6.77237">
        <ele>418.2</ele>
        <time>2017-01-15T08:14:00.000Z</time>
      </trkpt>
      <trkpt lat="47.51387" lon="6.77239">
        <ele>418.4</ele>
        <time>2017-01-15T08:14:01.000Z</time>
      </trkpt>
      <trkpt lat="47.51384" lon="6.77241">
        <ele>418.4</ele>
        <time>2017-01-15T08:14:02.000Z</time>
      </trkpt>
      <trkpt lat="47.51381" lon="6.77243">
        <ele>418.4</ele>
        <time>2017-01-15T08:14:03.000Z</time>
      </trkpt>
      <trkpt lat="47.51378" lon="6.77246">
        <ele>418.5</ele>
        <time>2017-01-15T08:14:04.000Z</time>
      </trkpt>
      <trkpt lat="47.51374" lon="6.77248">
        <ele>418.4</ele>
        <time>2017-01-15T08:14:05.000Z</time>
      </trkpt>
      <trkpt lat="47.5137" lon="6.77252">
        <ele>418.6</ele>
        <time>2017-01-15T08:14:06.000Z</time>
      </trkpt>
      <trkpt lat="47.51367" lon="6.77255">
        <ele>418.6</ele>
        <time>2017-01-15T08:14:07.000Z</time>
      </trkpt>
      <trkpt lat="47.51364" lon="6.77257">
        <ele>418.8</ele>
        <time>2017-01-15T08:14:08.000Z</time>
      </trkpt>
      <trkpt lat="47.51361" lon="6.7726">
        <ele>418.8</ele>
        <time>2017-01-15T08:14:09.000Z</time>
      </trkpt>
      <trkpt lat="47.51358" lon="6.77262">
        <ele>418.9</ele>
        <time>2017-01-15T08:14:10.000Z</time>
      </trkpt>
      <trkpt lat="47.51356" lon="6.77264">
        <ele>419.1</ele>
        <time>2017-01-15T08:14:11.000Z</time>
      </trkpt>
      <trkpt lat="47.51353" lon="6.77266">
        <ele>419.2</ele>
        <time>2017-01-15T08:14:12.000Z</time>
      </trkpt>
      <trkpt lat="47.5135" lon="6.77269">
        <ele>419.3</ele>
        <time>2017-01-15T08:14:13.000Z</time>
      </trkpt>
      <trkpt lat="47.51347" lon="6.77271">
        <ele>419.5</ele>
        <time>2017-01-15T08:14:14.000Z</time>
      </trkpt>
      <trkpt lat="47.51344" lon="6.77273">
        <ele>419.6</ele>
        <time>2017-01-15T08:14:15.000Z</time>
      </trkpt>
      <trkpt lat="47.51341" lon="6.77275">
        <ele>419.7</ele>
        <time>2017-01-15T08:14:16.000Z</time>
      </trkpt>
      <trkpt lat="47.51339" lon="6.77277">
        <ele>419.8</ele>
        <time>2017-01-15T08:14:17.000Z</time>
      </trkpt>
      <trkpt lat="47.51336" lon="6.77279">
        <ele>419.8</ele>
        <time>2017-01-15T08:14:18.000Z</time>
      </trkpt>
      <trkpt lat="47.51332" lon="6.77279">
        <ele>420</ele>
        <time>2017-01-15T08:14:19.000Z</time>
      </trkpt>
      <trkpt lat="47.51329" lon="6.7728">
        <ele>420</ele>
        <time>2017-01-15T08:14:20.000Z</time>
      </trkpt>
      <trkpt lat="47.51326" lon="6.7728">
        <ele>420</ele>
        <time>2017-01-15T08:14:21.000Z</time>
      </trkpt>
      <trkpt lat="47.51324" lon="6.77279">
        <ele>420</ele>
        <time>2017-01-15T08:14:22.000Z</time>
      </trkpt>
      <trkpt lat="47.51321" lon="6.77278">
        <ele>419.9</ele>
        <time>2017-01-15T08:14:23.000Z</time>
      </trkpt>
      <trkpt lat="47.51318" lon="6.77277">
        <ele>420.1</ele>
        <time>2017-01-15T08:14:24.000Z</time>
      </trkpt>
      <trkpt lat="47.51313" lon="6.77276">
        <ele>420</ele>
        <time>2017-01-15T08:14:25.000Z</time>
      </trkpt>
      <trkpt lat="47.5131" lon="6.77275">
        <ele>420</ele>
        <time>2017-01-15T08:14:26.000Z</time>
      </trkpt>
      <trkpt lat="47.51307" lon="6.77274">
        <ele>420.1</ele>
        <time>2017-01-15T08:14:27.000Z</time>
      </trkpt>
      <trkpt lat="47.51304" lon="6.77273">
        <ele>420.1</ele>
        <time>2017-01-15T08:14:28.000Z</time>
      </trkpt>
      <trkpt lat="47.51301" lon="6.77272">
        <ele>420.1</ele>
        <time>2017-01-15T08:14:29.000Z</time>
      </trkpt>
      <trkpt lat="47.51297" lon="6.7727">
        <ele>420.2</ele>
        <time>2017-01-15T08:14:30.000Z</time>
      </trkpt>
      <trkpt lat="47.51293" lon="6.77269">
        <ele>420.3</ele>
        <time>2017-01-15T08:14:31.000Z</time>
      </trkpt>
      <trkpt lat="47.51289" lon="6.77265">
        <ele>420.9</ele>
        <time>2017-01-15T08:14:32.000Z</time>
      </trkpt>
      <trkpt lat="47.51287" lon="6.77264">
        <ele>420.9</ele>
        <time>2017-01-15T08:14:33.000Z</time>
      </trkpt>
      <trkpt lat="47.51284" lon="6.77263">
        <ele>420.9</ele>
        <time>2017-01-15T08:14:34.000Z</time>
      </trkpt>
      <trkpt lat="47.51282" lon="6.77262">
        <ele>421</ele>
        <time>2017-01-15T08:14:35.000Z</time>
      </trkpt>
      <trkpt lat="47.51279" lon="6.77261">
        <ele>421.1</ele>
        <time>2017-01-15T08:14:36.000Z</time>
      </trkpt>
      <trkpt lat="47.51275" lon="6.77259">
        <ele>421.6</ele>
        <time>2017-01-15T08:14:37.000Z</time>
      </trkpt>
      <trkpt lat="47.51271" lon="6.77256">
        <ele>421.6</ele>
        <time>2017-01-15T08:14:38.000Z</time>
      </trkpt>
      <trkpt lat="47.51268" lon="6.77254">
        <ele>421.7</ele>
        <time>2017-01-15T08:14:39.000Z</time>
      </trkpt>
      <trkpt lat="47.51265" lon="6.77251">
        <ele>421.2</ele>
        <time>2017-01-15T08:14:40.000Z</time>
      </trkpt>
      <trkpt lat="47.51262" lon="6.77247">
        <ele>421.3</ele>
        <time>2017-01-15T08:14:41.000Z</time>
      </trkpt>
      <trkpt lat="47.51259" lon="6.77244">
        <ele>421.6</ele>
        <time>2017-01-15T08:14:42.000Z</time>
      </trkpt>
      <trkpt lat="47.51257" lon="6.7724">
        <ele>421.7</ele>
        <time>2017-01-15T08:14:43.000Z</time>
      </trkpt>
      <trkpt lat="47.51253" lon="6.77236">
        <ele>422.3</ele>
        <time>2017-01-15T08:14:44.000Z</time>
      </trkpt>
      <trkpt lat="47.51251" lon="6.77231">
        <ele>422.9</ele>
        <time>2017-01-15T08:14:45.000Z</time>
      </trkpt>
      <trkpt lat="47.51248" lon="6.77226">
        <ele>423.1</ele>
        <time>2017-01-15T08:14:46.000Z</time>
      </trkpt>
      <trkpt lat="47.51246" lon="6.77221">
        <ele>423.1</ele>
        <time>2017-01-15T08:14:47.000Z</time>
      </trkpt>
      <trkpt lat="47.51243" lon="6.77215">
        <ele>423.1</ele>
        <time>2017-01-15T08:14:48.000Z</time>
      </trkpt>
      <trkpt lat="47.5124" lon="6.7721">
        <ele>423.2</ele>
        <time>2017-01-15T08:14:49.000Z</time>
      </trkpt>
      <trkpt lat="47.51238" lon="6.77204">
        <ele>423</ele>
        <time>2017-01-15T08:14:50.000Z</time>
      </trkpt>
      <trkpt lat="47.51235" lon="6.77198">
        <ele>423.1</ele>
        <time>2017-01-15T08:14:51.000Z</time>
      </trkpt>
      <trkpt lat="47.51232" lon="6.77191">
        <ele>423.7</ele>
        <time>2017-01-15T08:14:52.000Z</time>
      </trkpt>
      <trkpt lat="47.51228" lon="6.77185">
        <ele>424.4</ele>
        <time>2017-01-15T08:14:53.000Z</time>
      </trkpt>
      <trkpt lat="47.51225" lon="6.77178">
        <ele>425.2</ele>
        <time>2017-01-15T08:14:54.000Z</time>
      </trkpt>
      <trkpt lat="47.51222" lon="6.77172">
        <ele>425.9</ele>
        <time>2017-01-15T08:14:55.000Z</time>
      </trkpt>
      <trkpt lat="47.51219" lon="6.77167">
        <ele>426.4</ele>
        <time>2017-01-15T08:14:56.000Z</time>
      </trkpt>
      <trkpt lat="47.51216" lon="6.77161">
        <ele>426.6</ele>
        <time>2017-01-15T08:14:57.000Z</time>
      </trkpt>
      <trkpt lat="47.51214" lon="6.77155">
        <ele>426.6</ele>
        <time>2017-01-15T08:14:58.000Z</time>
      </trkpt>
      <trkpt lat="47.51211" lon="6.77149">
        <ele>426.4</ele>
        <time>2017-01-15T08:14:59.000Z</time>
      </trkpt>
      <trkpt lat="47.51208" lon="6.77144">
        <ele>426.3</ele>
        <time>2017-01-15T08:15:00.000Z</time>
      </trkpt>
      <trkpt lat="47.51205" lon="6.77138">
        <ele>426.4</ele>
        <time>2017-01-15T08:15:01.000Z</time>
      </trkpt>
      <trkpt lat="47.51202" lon="6.77133">
        <ele>426.3</ele>
        <time>2017-01-15T08:15:02.000Z</time>
      </trkpt>
      <trkpt lat="47.51199" lon="6.77128">
        <ele>426</ele>
        <time>2017-01-15T08:15:03.000Z</time>
      </trkpt>
      <trkpt lat="47.51196" lon="6.77122">
        <ele>425.9</ele>
        <time>2017-01-15T08:15:04.000Z</time>
      </trkpt>
      <trkpt lat="47.51193" lon="6.77116">
        <ele>425.6</ele>
        <time>2017-01-15T08:15:05.000Z</time>
      </trkpt>
      <trkpt lat="47.51189" lon="6.7711">
        <ele>425.3</ele>
        <time>2017-01-15T08:15:06.000Z</time>
      </trkpt>
      <trkpt lat="47.51186" lon="6.77103">
        <ele>425</ele>
        <time>2017-01-15T08:15:07.000Z</time>
      </trkpt>
      <trkpt lat="47.51182" lon="6.77097">
        <ele>425</ele>
        <time>2017-01-15T08:15:08.000Z</time>
      </trkpt>
      <trkpt lat="47.51179" lon="6.7709">
        <ele>424.7</ele>
        <time>2017-01-15T08:15:09.000Z</time>
      </trkpt>
      <trkpt lat="47.51175" lon="6.77083">
        <ele>424.4</ele>
        <time>2017-01-15T08:15:10.000Z</time>
      </trkpt>
      <trkpt lat="47.51172" lon="6.77077">
        <ele>424.1</ele>
        <time>2017-01-15T08:15:11.000Z</time>
      </trkpt>
      <trkpt lat="47.51169" lon="6.77072">
        <ele>424</ele>
        <time>2017-01-15T08:15:12.000Z</time>
      </trkpt>
      <trkpt lat="47.51165" lon="6.77066">
        <ele>423.5</ele>
        <time>2017-01-15T08:15:13.000Z</time>
      </trkpt>
      <trkpt lat="47.5116" lon="6.77059">
        <ele>423.3</ele>
        <time>2017-01-15T08:15:14.000Z</time>
      </trkpt>
      <trkpt lat="47.51156" lon="6.77053">
        <ele>423.1</ele>
        <time>2017-01-15T08:15:15.000Z</time>
      </trkpt>
      <trkpt lat="47.51152" lon="6.77049">
        <ele>422.1</ele>
        <time>2017-01-15T08:15:16.000Z</time>
      </trkpt>
      <trkpt lat="47.51148" lon="6.77046">
        <ele>421.3</ele>
        <time>2017-01-15T08:15:17.000Z</time>
      </trkpt>
      <trkpt lat="47.51143" lon="6.77042">
        <ele>421</ele>
        <time>2017-01-15T08:15:18.000Z</time>
      </trkpt>
      <trkpt lat="47.51138" lon="6.77039">
        <ele>420.6</ele>
        <time>2017-01-15T08:15:19.000Z</time>
      </trkpt>
      <trkpt lat="47.51133" lon="6.77034">
        <ele>420.8</ele>
        <time>2017-01-15T08:15:20.000Z</time>
      </trkpt>
      <trkpt lat="47.51127" lon="6.7703">
        <ele>421</ele>
        <time>2017-01-15T08:15:21.000Z</time>
      </trkpt>
      <trkpt lat="47.51122" lon="6.77025">
        <ele>421</ele>
        <time>2017-01-15T08:15:22.000Z</time>
      </trkpt>
      <trkpt lat="47.51117" lon="6.77021">
        <ele>420.9</ele>
        <time>2017-01-15T08:15:23.000Z</time>
      </trkpt>
      <trkpt lat="47.51111" lon="6.77016">
        <ele>420.7</ele>
        <time>2017-01-15T08:15:24.000Z</time>
      </trkpt>
      <trkpt lat="47.51106" lon="6.77012">
        <ele>420.6</ele>
        <time>2017-01-15T08:15:25.000Z</time>
      </trkpt>
      <trkpt lat="47.51101" lon="6.77007">
        <ele>420.6</ele>
        <time>2017-01-15T08:15:26.000Z</time>
      </trkpt>
      <trkpt lat="47.51096" lon="6.77003">
        <ele>420.3</ele>
        <time>2017-01-15T08:15:27.000Z</time>
      </trkpt>
      <trkpt lat="47.51091" lon="6.76999">
        <ele>419.9</ele>
        <time>2017-01-15T08:15:28.000Z</time>
      </trkpt>
      <trkpt lat="47.51086" lon="6.76995">
        <ele>419.8</ele>
        <time>2017-01-15T08:15:29.000Z</time>
      </trkpt>
      <trkpt lat="47.51081" lon="6.7699">
        <ele>420</ele>
        <time>2017-01-15T08:15:30.000Z</time>
      </trkpt>
      <trkpt lat="47.51076" lon="6.76986">
        <ele>419.9</ele>
        <time>2017-01-15T08:15:31.000Z</time>
      </trkpt>
      <trkpt lat="47.51072" lon="6.76983">
        <ele>419.6</ele>
        <time>2017-01-15T08:15:32.000Z</time>
      </trkpt>
      <trkpt lat="47.51068" lon="6.76979">
        <ele>419.3</ele>
        <time>2017-01-15T08:15:33.000Z</time>
      </trkpt>
      <trkpt lat="47.51064" lon="6.76976">
        <ele>419</ele>
        <time>2017-01-15T08:15:34.000Z</time>
      </trkpt>
      <trkpt lat="47.5106" lon="6.76973">
        <ele>418.6</ele>
        <time>2017-01-15T08:15:35.000Z</time>
      </trkpt>
      <trkpt lat="47.51056" lon="6.76969">
        <ele>418</ele>
        <time>2017-01-15T08:15:36.000Z</time>
      </trkpt>
      <trkpt lat="47.51052" lon="6.76965">
        <ele>417.6</ele>
        <time>2017-01-15T08:15:37.000Z</time>
      </trkpt>
      <trkpt lat="47.51047" lon="6.76962">
        <ele>417.3</ele>
        <time>2017-01-15T08:15:38.000Z</time>
      </trkpt>
      <trkpt lat="47.51043" lon="6.76958">
        <ele>416.6</ele>
        <time>2017-01-15T08:15:39.000Z</time>
      </trkpt>
      <trkpt lat="47.51038" lon="6.76954">
        <ele>417</ele>
        <time>2017-01-15T08:15:40.000Z</time>
      </trkpt>
      <trkpt lat="47.51034" lon="6.7695">
        <ele>416.6</ele>
        <time>2017-01-15T08:15:41.000Z</time>
      </trkpt>
      <trkpt lat="47.5103" lon="6.76947">
        <ele>416.6</ele>
        <time>2017-01-15T08:15:42.000Z</time>
      </trkpt>
      <trkpt lat="47.51026" lon="6.76943">
        <ele>416.3</ele>
        <time>2017-01-15T08:15:43.000Z</time>
      </trkpt>
      <trkpt lat="47.51021" lon="6.76939">
        <ele>416.6</ele>
        <time>2017-01-15T08:15:44.000Z</time>
      </trkpt>
      <trkpt lat="47.51016" lon="6.76935">
        <ele>417.2</ele>
        <time>2017-01-15T08:15:45.000Z</time>
      </trkpt>
      <trkpt lat="47.51012" lon="6.76932">
        <ele>417.8</ele>
        <time>2017-01-15T08:15:46.000Z</time>
      </trkpt>
      <trkpt lat="47.51007" lon="6.76929">
        <ele>418.6</ele>
        <time>2017-01-15T08:15:47.000Z</time>
      </trkpt>
      <trkpt lat="47.51003" lon="6.76927">
        <ele>419.2</ele>
        <time>2017-01-15T08:15:48.000Z</time>
      </trkpt>
      <trkpt lat="47.50998" lon="6.76923">
        <ele>419.7</ele>
        <time>2017-01-15T08:15:49.000Z</time>
      </trkpt>
      <trkpt lat="47.50994" lon="6.76918">
        <ele>419.8</ele>
        <time>2017-01-15T08:15:50.000Z</time>
      </trkpt>
      <trkpt lat="47.5099" lon="6.76914">
        <ele>420.3</ele>
        <time>2017-01-15T08:15:51.000Z</time>
      </trkpt>
      <trkpt lat="47.50986" lon="6.76909">
        <ele>420.5</ele>
        <time>2017-01-15T08:15:52.000Z</time>
      </trkpt>
      <trkpt lat="47.50981" lon="6.76907">
        <ele>420.9</ele>
        <time>2017-01-15T08:15:53.000Z</time>
      </trkpt>
      <trkpt lat="47.50976" lon="6.76905">
        <ele>421.2</ele>
        <time>2017-01-15T08:15:54.000Z</time>
      </trkpt>
      <trkpt lat="47.50971" lon="6.76903">
        <ele>421.4</ele>
        <time>2017-01-15T08:15:55.000Z</time>
      </trkpt>
      <trkpt lat="47.50967" lon="6.76902">
        <ele>422</ele>
        <time>2017-01-15T08:15:56.000Z</time>
      </trkpt>
      <trkpt lat="47.50963" lon="6.769">
        <ele>422.3</ele>
        <time>2017-01-15T08:15:57.000Z</time>
      </trkpt>
      <trkpt lat="47.5096" lon="6.76897">
        <ele>423.3</ele>
        <time>2017-01-15T08:15:58.000Z</time>
      </trkpt>
      <trkpt lat="47.50957" lon="6.76894">
        <ele>423.3</ele>
        <time>2017-01-15T08:15:59.000Z</time>
      </trkpt>
      <trkpt lat="47.50953" lon="6.76891">
        <ele>423.2</ele>
        <time>2017-01-15T08:16:00.000Z</time>
      </trkpt>
      <trkpt lat="47.50949" lon="6.76888">
        <ele>423.3</ele>
        <time>2017-01-15T08:16:01.000Z</time>
      </trkpt>
      <trkpt lat="47.50946" lon="6.76885">
        <ele>423.2</ele>
        <time>2017-01-15T08:16:02.000Z</time>
      </trkpt>
      <trkpt lat="47.50942" lon="6.76881">
        <ele>423.1</ele>
        <time>2017-01-15T08:16:03.000Z</time>
      </trkpt>
      <trkpt lat="47.50939" lon="6.76878">
        <ele>423.5</ele>
        <time>2017-01-15T08:16:04.000Z</time>
      </trkpt>
      <trkpt lat="47.50935" lon="6.76874">
        <ele>423.5</ele>
        <time>2017-01-15T08:16:05.000Z</time>
      </trkpt>
      <trkpt lat="47.50932" lon="6.7687">
        <ele>423.6</ele>
        <time>2017-01-15T08:16:06.000Z</time>
      </trkpt>
      <trkpt lat="47.5093" lon="6.76867">
        <ele>423.7</ele>
        <time>2017-01-15T08:16:07.000Z</time>
      </trkpt>
      <trkpt lat="47.50927" lon="6.76862">
        <ele>423.7</ele>
        <time>2017-01-15T08:16:08.000Z</time>
      </trkpt>
      <trkpt lat="47.50925" lon="6.76858">
        <ele>423.8</ele>
        <time>2017-01-15T08:16:09.000Z</time>
      </trkpt>
      <trkpt lat="47.50923" lon="6.76853">
        <ele>423.8</ele>
        <time>2017-01-15T08:16:10.000Z</time>
      </trkpt>
      <trkpt lat="47.5092" lon="6.76848">
        <ele>424.3</ele>
        <time>2017-01-15T08:16:11.000Z</time>
      </trkpt>
      <trkpt lat="47.50917" lon="6.76842">
        <ele>424.3</ele>
        <time>2017-01-15T08:16:12.000Z</time>
      </trkpt>
      <trkpt lat="47.50915" lon="6.76838">
        <ele>424.3</ele>
        <time>2017-01-15T08:16:13.000Z</time>
      </trkpt>
      <trkpt lat="47.50913" lon="6.76833">
        <ele>424.9</ele>
        <time>2017-01-15T08:16:14.000Z</time>
      </trkpt>
      <trkpt lat="47.50911" lon="6.76828">
        <ele>425.4</ele>
        <time>2017-01-15T08:16:15.000Z</time>
      </trkpt>
      <trkpt lat="47.50908" lon="6.76822">
        <ele>425.5</ele>
        <time>2017-01-15T08:16:16.000Z</time>
      </trkpt>
      <trkpt lat="47.50907" lon="6.76817">
        <ele>425.5</ele>
        <time>2017-01-15T08:16:17.000Z</time>
      </trkpt>
      <trkpt lat="47.50905" lon="6.76813">
        <ele>425.5</ele>
        <time>2017-01-15T08:16:18.000Z</time>
      </trkpt>
      <trkpt lat="47.50904" lon="6.76809">
        <ele>425.5</ele>
        <time>2017-01-15T08:16:19.000Z</time>
      </trkpt>
      <trkpt lat="47.50901" lon="6.76804">
        <ele>425.2</ele>
        <time>2017-01-15T08:16:20.000Z</time>
      </trkpt>
      <trkpt lat="47.50899" lon="6.76798">
        <ele>425.2</ele>
        <time>2017-01-15T08:16:21.000Z</time>
      </trkpt>
      <trkpt lat="47.50897" lon="6.76793">
        <ele>425.3</ele>
        <time>2017-01-15T08:16:22.000Z</time>
      </trkpt>
      <trkpt lat="47.50895" lon="6.76789">
        <ele>425.2</ele>
        <time>2017-01-15T08:16:23.000Z</time>
      </trkpt>
      <trkpt lat="47.50892" lon="6.76783">
        <ele>425.3</ele>
        <time>2017-01-15T08:16:24.000Z</time>
      </trkpt>
      <trkpt lat="47.5089" lon="6.76778">
        <ele>425.4</ele>
        <time>2017-01-15T08:16:25.000Z</time>
      </trkpt>
      <trkpt lat="47.50888" lon="6.76773">
        <ele>425.6</ele>
        <time>2017-01-15T08:16:26.000Z</time>
      </trkpt>
      <trkpt lat="47.50887" lon="6.76769">
        <ele>425.7</ele>
        <time>2017-01-15T08:16:27.000Z</time>
      </trkpt>
      <trkpt lat="47.50885" lon="6.76765">
        <ele>425.8</ele>
        <time>2017-01-15T08:16:28.000Z</time>
      </trkpt>
      <trkpt lat="47.50884" lon="6.7676">
        <ele>425.9</ele>
        <time>2017-01-15T08:16:29.000Z</time>
      </trkpt>
      <trkpt lat="47.50882" lon="6.76755">
        <ele>426</ele>
        <time>2017-01-15T08:16:30.000Z</time>
      </trkpt>
      <trkpt lat="47.5088" lon="6.7675">
        <ele>426</ele>
        <time>2017-01-15T08:16:31.000Z</time>
      </trkpt>
      <trkpt lat="47.50879" lon="6.76745">
        <ele>426</ele>
        <time>2017-01-15T08:16:32.000Z</time>
      </trkpt>
      <trkpt lat="47.50878" lon="6.7674">
        <ele>426</ele>
        <time>2017-01-15T08:16:33.000Z</time>
      </trkpt>
      <trkpt lat="47.50876" lon="6.76737">
        <ele>426</ele>
        <time>2017-01-15T08:16:34.000Z</time>
      </trkpt>
      <trkpt lat="47.50875" lon="6.76732">
        <ele>425.9</ele>
        <time>2017-01-15T08:16:35.000Z</time>
      </trkpt>
      <trkpt lat="47.50873" lon="6.76729">
        <ele>425.9</ele>
        <time>2017-01-15T08:16:36.000Z</time>
      </trkpt>
      <trkpt lat="47.50871" lon="6.76723">
        <ele>425.9</ele>
        <time>2017-01-15T08:16:37.000Z</time>
      </trkpt>
      <trkpt lat="47.5087" lon="6.76718">
        <ele>425.8</ele>
        <time>2017-01-15T08:16:38.000Z</time>
      </trkpt>
      <trkpt lat="47.50868" lon="6.76713">
        <ele>425.7</ele>
        <time>2017-01-15T08:16:39.000Z</time>
      </trkpt>
      <trkpt lat="47.50866" lon="6.76709">
        <ele>425.6</ele>
        <time>2017-01-15T08:16:40.000Z</time>
      </trkpt>
      <trkpt lat="47.50865" lon="6.76704">
        <ele>425.7</ele>
        <time>2017-01-15T08:16:41.000Z</time>
      </trkpt>
      <trkpt lat="47.50863" lon="6.767">
        <ele>425.7</ele>
        <time>2017-01-15T08:16:42.000Z</time>
      </trkpt>
      <trkpt lat="47.50862" lon="6.76697">
        <ele>425.9</ele>
        <time>2017-01-15T08:16:43.000Z</time>
      </trkpt>
      <trkpt lat="47.5086" lon="6.76693">
        <ele>426.1</ele>
        <time>2017-01-15T08:16:44.000Z</time>
      </trkpt>
      <trkpt lat="47.50859" lon="6.76689">
        <ele>426.2</ele>
        <time>2017-01-15T08:16:45.000Z</time>
      </trkpt>
      <trkpt lat="47.50857" lon="6.76685">
        <ele>426.3</ele>
        <time>2017-01-15T08:16:46.000Z</time>
      </trkpt>
      <trkpt lat="47.50856" lon="6.76682">
        <ele>426.4</ele>
        <time>2017-01-15T08:16:47.000Z</time>
      </trkpt>
      <trkpt lat="47.50854" lon="6.76677">
        <ele>426.5</ele>
        <time>2017-01-15T08:16:48.000Z</time>
      </trkpt>
      <trkpt lat="47.50852" lon="6.76673">
        <ele>426.7</ele>
        <time>2017-01-15T08:16:49.000Z</time>
      </trkpt>
      <trkpt lat="47.5085" lon="6.76668">
        <ele>426.9</ele>
        <time>2017-01-15T08:16:50.000Z</time>
      </trkpt>
      <trkpt lat="47.50848" lon="6.76663">
        <ele>427.1</ele>
        <time>2017-01-15T08:16:51.000Z</time>
      </trkpt>
      <trkpt lat="47.50846" lon="6.76659">
        <ele>427.2</ele>
        <time>2017-01-15T08:16:52.000Z</time>
      </trkpt>
      <trkpt lat="47.50844" lon="6.76655">
        <ele>427.4</ele>
        <time>2017-01-15T08:16:53.000Z</time>
      </trkpt>
      <trkpt lat="47.50842" lon="6.7665">
        <ele>427.6</ele>
        <time>2017-01-15T08:16:54.000Z</time>
      </trkpt>
      <trkpt lat="47.5084" lon="6.76645">
        <ele>427.7</ele>
        <time>2017-01-15T08:16:55.000Z</time>
      </trkpt>
      <trkpt lat="47.50839" lon="6.76641">
        <ele>427.9</ele>
        <time>2017-01-15T08:16:56.000Z</time>
      </trkpt>
      <trkpt lat="47.50837" lon="6.76637">
        <ele>428.1</ele>
        <time>2017-01-15T08:16:57.000Z</time>
      </trkpt>
      <trkpt lat="47.50835" lon="6.76633">
        <ele>428.3</ele>
        <time>2017-01-15T08:16:58.000Z</time>
      </trkpt>
      <trkpt lat="47.50834" lon="6.7663">
        <ele>428.5</ele>
        <time>2017-01-15T08:16:59.000Z</time>
      </trkpt>
      <trkpt lat="47.50832" lon="6.76627">
        <ele>428.7</ele>
        <time>2017-01-15T08:17:00.000Z</time>
      </trkpt>
      <trkpt lat="47.50831" lon="6.76623">
        <ele>428.9</ele>
        <time>2017-01-15T08:17:01.000Z</time>
      </trkpt>
      <trkpt lat="47.50829" lon="6.76621">
        <ele>429</ele>
        <time>2017-01-15T08:17:02.000Z</time>
      </trkpt>
      <trkpt lat="47.50828" lon="6.76617">
        <ele>429.2</ele>
        <time>2017-01-15T08:17:03.000Z</time>
      </trkpt>
      <trkpt lat="47.50827" lon="6.76614">
        <ele>429.5</ele>
        <time>2017-01-15T08:17:04.000Z</time>
      </trkpt>
      <trkpt lat="47.50826" lon="6.76611">
        <ele>429.6</ele>
        <time>2017-01-15T08:17:05.000Z</time>
      </trkpt>
      <trkpt lat="47.50825" lon="6.76606">
        <ele>429.8</ele>
        <time>2017-01-15T08:17:06.000Z</time>
      </trkpt>
      <trkpt lat="47.50823" lon="6.76602">
        <ele>430</ele>
        <time>2017-01-15T08:17:07.000Z</time>
      </trkpt>
      <trkpt lat="47.50822" lon="6.76599">
        <ele>430.1</ele>
        <time>2017-01-15T08:17:08.000Z</time>
      </trkpt>
      <trkpt lat="47.50818" lon="6.76596">
        <ele>430.3</ele>
        <time>2017-01-15T08:17:10.000Z</time>
      </trkpt>
      <trkpt lat="47.50817" lon="6.76596">
        <ele>430.5</ele>
        <time>2017-01-15T08:17:11.000Z</time>
      </trkpt>
      <trkpt lat="47.50813" lon="6.76596">
        <ele>430.7</ele>
        <time>2017-01-15T08:17:13.000Z</time>
      </trkpt>
      <trkpt lat="47.50811" lon="6.76594">
        <ele>430.8</ele>
        <time>2017-01-15T08:17:14.000Z</time>
      </trkpt>
      <trkpt lat="47.50811" lon="6.76591">
        <ele>431.5</ele>
        <time>2017-01-15T08:17:22.000Z</time>
      </trkpt>
      <trkpt lat="47.508" lon="6.76587">
        <ele>431.6</ele>
        <time>2017-01-15T08:17:23.000Z</time>
      </trkpt>
      <trkpt lat="47.50796" lon="6.76588">
        <ele>431.8</ele>
        <time>2017-01-15T08:17:25.000Z</time>
      </trkpt>
      <trkpt lat="47.50795" lon="6.76588">
        <ele>431.9</ele>
        <time>2017-01-15T08:17:26.000Z</time>
      </trkpt>
      <trkpt lat="47.50793" lon="6.76589">
        <ele>433.2</ele>
        <time>2017-01-15T08:17:37.000Z</time>
      </trkpt>
      <trkpt lat="47.50789" lon="6.76591">
        <ele>433.4</ele>
        <time>2017-01-15T08:17:38.000Z</time>
      </trkpt>
      <trkpt lat="47.50785" lon="6.76594">
        <ele>433.7</ele>
        <time>2017-01-15T08:17:41.000Z</time>
      </trkpt>
      <trkpt lat="47.50784" lon="6.76593">
        <ele>433.8</ele>
        <time>2017-01-15T08:17:42.000Z</time>
      </trkpt>
      <trkpt lat="47.50784" lon="6.76593">
        <ele>434.8</ele>
        <time>2017-01-15T08:17:56.000Z</time>
      </trkpt>
      <trkpt lat="47.50779" lon="6.76595">
        <ele>434.8</ele>
        <time>2017-01-15T08:17:57.000Z</time>
      </trkpt>
      <trkpt lat="47.50777" lon="6.76596">
        <ele>435.1</ele>
        <time>2017-01-15T08:18:00.000Z</time>
      </trkpt>
      <trkpt lat="47.50774" lon="6.76598">
        <ele>435.3</ele>
        <time>2017-01-15T08:18:01.000Z</time>
      </trkpt>
      <trkpt lat="47.50771" lon="6.76599">
        <ele>435.3</ele>
        <time>2017-01-15T08:18:02.000Z</time>
      </trkpt>
      <trkpt lat="47.50768" lon="6.766">
        <ele>435.4</ele>
        <time>2017-01-15T08:18:03.000Z</time>
      </trkpt>
      <trkpt lat="47.50766" lon="6.76601">
        <ele>435.5</ele>
        <time>2017-01-15T08:18:04.000Z</time>
      </trkpt>
      <trkpt lat="47.50763" lon="6.76601">
        <ele>435.7</ele>
        <time>2017-01-15T08:18:05.000Z</time>
      </trkpt>
      <trkpt lat="47.5076" lon="6.76601">
        <ele>435.7</ele>
        <time>2017-01-15T08:18:06.000Z</time>
      </trkpt>
      <trkpt lat="47.50758" lon="6.76601">
        <ele>435.7</ele>
        <time>2017-01-15T08:18:07.000Z</time>
      </trkpt>
      <trkpt lat="47.50755" lon="6.766">
        <ele>435.8</ele>
        <time>2017-01-15T08:18:08.000Z</time>
      </trkpt>
      <trkpt lat="47.50752" lon="6.766">
        <ele>435.9</ele>
        <time>2017-01-15T08:18:09.000Z</time>
      </trkpt>
      <trkpt lat="47.50749" lon="6.76599">
        <ele>435.9</ele>
        <time>2017-01-15T08:18:10.000Z</time>
      </trkpt>
      <trkpt lat="47.50747" lon="6.76598">
        <ele>436</ele>
        <time>2017-01-15T08:18:11.000Z</time>
      </trkpt>
      <trkpt lat="47.50744" lon="6.76597">
        <ele>436.1</ele>
        <time>2017-01-15T08:18:12.000Z</time>
      </trkpt>
      <trkpt lat="47.50741" lon="6.76597">
        <ele>436.1</ele>
        <time>2017-01-15T08:18:13.000Z</time>
      </trkpt>
      <trkpt lat="47.50739" lon="6.76596">
        <ele>436.2</ele>
        <time>2017-01-15T08:18:14.000Z</time>
      </trkpt>
      <trkpt lat="47.50736" lon="6.76595">
        <ele>436.3</ele>
        <time>2017-01-15T08:18:15.000Z</time>
      </trkpt>
      <trkpt lat="47.50733" lon="6.76595">
        <ele>436.3</ele>
        <time>2017-01-15T08:18:16.000Z</time>
      </trkpt>
      <trkpt lat="47.50731" lon="6.76594">
        <ele>436.4</ele>
        <time>2017-01-15T08:18:17.000Z</time>
      </trkpt>
      <trkpt lat="47.50728" lon="6.76593">
        <ele>436.4</ele>
        <time>2017-01-15T08:18:18.000Z</time>
      </trkpt>
      <trkpt lat="47.50726" lon="6.76593">
        <ele>436.5</ele>
        <time>2017-01-15T08:18:19.000Z</time>
      </trkpt>
      <trkpt lat="47.50723" lon="6.76592">
        <ele>436.5</ele>
        <time>2017-01-15T08:18:20.000Z</time>
      </trkpt>
      <trkpt lat="47.50721" lon="6.76591">
        <ele>436.5</ele>
        <time>2017-01-15T08:18:21.000Z</time>
      </trkpt>
      <trkpt lat="47.50718" lon="6.76591">
        <ele>436.5</ele>
        <time>2017-01-15T08:18:22.000Z</time>
      </trkpt>
      <trkpt lat="47.50715" lon="6.76591">
        <ele>436.5</ele>
        <time>2017-01-15T08:18:23.000Z</time>
      </trkpt>
      <trkpt lat="47.50712" lon="6.7659">
        <ele>436.5</ele>
        <time>2017-01-15T08:18:24.000Z</time>
      </trkpt>
      <trkpt lat="47.50709" lon="6.76589">
        <ele>436.5</ele>
        <time>2017-01-15T08:18:25.000Z</time>
      </trkpt>
      <trkpt lat="47.50706" lon="6.76588">
        <ele>436.5</ele>
        <time>2017-01-15T08:18:26.000Z</time>
      </trkpt>
      <trkpt lat="47.50704" lon="6.76588">
        <ele>436.5</ele>
        <time>2017-01-15T08:18:27.000Z</time>
      </trkpt>
      <trkpt lat="47.50701" lon="6.76587">
        <ele>436.5</ele>
        <time>2017-01-15T08:18:28.000Z</time>
      </trkpt>
      <trkpt lat="47.50698" lon="6.76587">
        <ele>436.6</ele>
        <time>2017-01-15T08:18:29.000Z</time>
      </trkpt>
      <trkpt lat="47.50696" lon="6.76587">
        <ele>436.7</ele>
        <time>2017-01-15T08:18:30.000Z</time>
      </trkpt>
      <trkpt lat="47.50693" lon="6.76586">
        <ele>436.7</ele>
        <time>2017-01-15T08:18:31.000Z</time>
      </trkpt>
      <trkpt lat="47.50691" lon="6.76586">
        <ele>436.8</ele>
        <time>2017-01-15T08:18:32.000Z</time>
      </trkpt>
      <trkpt lat="47.50688" lon="6.76586">
        <ele>436.8</ele>
        <time>2017-01-15T08:18:33.000Z</time>
      </trkpt>
      <trkpt lat="47.50685" lon="6.76587">
        <ele>436.9</ele>
        <time>2017-01-15T08:18:34.000Z</time>
      </trkpt>
      <trkpt lat="47.50683" lon="6.76588">
        <ele>437</ele>
        <time>2017-01-15T08:18:35.000Z</time>
      </trkpt>
      <trkpt lat="47.50681" lon="6.76588">
        <ele>437.1</ele>
        <time>2017-01-15T08:18:36.000Z</time>
      </trkpt>
      <trkpt lat="47.50678" lon="6.76589">
        <ele>437.1</ele>
        <time>2017-01-15T08:18:37.000Z</time>
      </trkpt>
      <trkpt lat="47.50674" lon="6.76589">
        <ele>437.2</ele>
        <time>2017-01-15T08:18:39.000Z</time>
      </trkpt>
      <trkpt lat="47.50671" lon="6.7659">
        <ele>437.3</ele>
        <time>2017-01-15T08:18:40.000Z</time>
      </trkpt>
      <trkpt lat="47.50669" lon="6.76591">
        <ele>437.3</ele>
        <time>2017-01-15T08:18:41.000Z</time>
      </trkpt>
      <trkpt lat="47.50667" lon="6.76592">
        <ele>437.4</ele>
        <time>2017-01-15T08:18:42.000Z</time>
      </trkpt>
      <trkpt lat="47.50662" lon="6.76593">
        <ele>437.6</ele>
        <time>2017-01-15T08:18:44.000Z</time>
      </trkpt>
      <trkpt lat="47.5066" lon="6.76593">
        <ele>437.7</ele>
        <time>2017-01-15T08:18:45.000Z</time>
      </trkpt>
      <trkpt lat="47.50658" lon="6.76594">
        <ele>437.8</ele>
        <time>2017-01-15T08:18:46.000Z</time>
      </trkpt>
      <trkpt lat="47.50656" lon="6.76595">
        <ele>437.8</ele>
        <time>2017-01-15T08:18:47.000Z</time>
      </trkpt>
      <trkpt lat="47.50653" lon="6.76595">
        <ele>438</ele>
        <time>2017-01-15T08:18:48.000Z</time>
      </trkpt>
      <trkpt lat="47.5065" lon="6.76596">
        <ele>438</ele>
        <time>2017-01-15T08:18:49.000Z</time>
      </trkpt>
      <trkpt lat="47.50648" lon="6.76597">
        <ele>438.1</ele>
        <time>2017-01-15T08:18:50.000Z</time>
      </trkpt>
      <trkpt lat="47.50646" lon="6.76598">
        <ele>438.1</ele>
        <time>2017-01-15T08:18:51.000Z</time>
      </trkpt>
      <trkpt lat="47.50643" lon="6.766">
        <ele>438.2</ele>
        <time>2017-01-15T08:18:52.000Z</time>
      </trkpt>
      <trkpt lat="47.50641" lon="6.76601">
        <ele>438.2</ele>
        <time>2017-01-15T08:18:53.000Z</time>
      </trkpt>
      <trkpt lat="47.50638" lon="6.76602">
        <ele>438.3</ele>
        <time>2017-01-15T08:18:54.000Z</time>
      </trkpt>
      <trkpt lat="47.50636" lon="6.76604">
        <ele>438.3</ele>
        <time>2017-01-15T08:18:55.000Z</time>
      </trkpt>
      <trkpt lat="47.50632" lon="6.76605">
        <ele>438.3</ele>
        <time>2017-01-15T08:18:56.000Z</time>
      </trkpt>
      <trkpt lat="47.5063" lon="6.76607">
        <ele>438.4</ele>
        <time>2017-01-15T08:18:57.000Z</time>
      </trkpt>
      <trkpt lat="47.50626" lon="6.7661">
        <ele>438.5</ele>
        <time>2017-01-15T08:18:59.000Z</time>
      </trkpt>
      <trkpt lat="47.50624" lon="6.76611">
        <ele>438.6</ele>
        <time>2017-01-15T08:19:00.000Z</time>
      </trkpt>
      <trkpt lat="47.50621" lon="6.76613">
        <ele>438.7</ele>
        <time>2017-01-15T08:19:01.000Z</time>
      </trkpt>
      <trkpt lat="47.50619" lon="6.76614">
        <ele>438.7</ele>
        <time>2017-01-15T08:19:02.000Z</time>
      </trkpt>
      <trkpt lat="47.50616" lon="6.76615">
        <ele>438.8</ele>
        <time>2017-01-15T08:19:03.000Z</time>
      </trkpt>
      <trkpt lat="47.50614" lon="6.76616">
        <ele>438.9</ele>
        <time>2017-01-15T08:19:04.000Z</time>
      </trkpt>
      <trkpt lat="47.50611" lon="6.76617">
        <ele>439</ele>
        <time>2017-01-15T08:19:05.000Z</time>
      </trkpt>
      <trkpt lat="47.50609" lon="6.76619">
        <ele>439.2</ele>
        <time>2017-01-15T08:19:06.000Z</time>
      </trkpt>
      <trkpt lat="47.50607" lon="6.7662">
        <ele>439.3</ele>
        <time>2017-01-15T08:19:07.000Z</time>
      </trkpt>
      <trkpt lat="47.50605" lon="6.7662">
        <ele>439.4</ele>
        <time>2017-01-15T08:19:08.000Z</time>
      </trkpt>
      <trkpt lat="47.506" lon="6.76622">
        <ele>439.7</ele>
        <time>2017-01-15T08:19:10.000Z</time>
      </trkpt>
      <trkpt lat="47.50599" lon="6.76623">
        <ele>439.8</ele>
        <time>2017-01-15T08:19:11.000Z</time>
      </trkpt>
      <trkpt lat="47.50594" lon="6.76625">
        <ele>440.1</ele>
        <time>2017-01-15T08:19:13.000Z</time>
      </trkpt>
      <trkpt lat="47.50592" lon="6.76626">
        <ele>440.2</ele>
        <time>2017-01-15T08:19:14.000Z</time>
      </trkpt>
      <trkpt lat="47.50588" lon="6.76627">
        <ele>440.4</ele>
        <time>2017-01-15T08:19:16.000Z</time>
      </trkpt>
      <trkpt lat="47.50585" lon="6.76628">
        <ele>440.5</ele>
        <time>2017-01-15T08:19:17.000Z</time>
      </trkpt>
      <trkpt lat="47.50582" lon="6.76629">
        <ele>440.6</ele>
        <time>2017-01-15T08:19:18.000Z</time>
      </trkpt>
      <trkpt lat="47.5058" lon="6.7663">
        <ele>440.7</ele>
        <time>2017-01-15T08:19:19.000Z</time>
      </trkpt>
      <trkpt lat="47.50578" lon="6.7663">
        <ele>440.8</ele>
        <time>2017-01-15T08:19:20.000Z</time>
      </trkpt>
      <trkpt lat="47.50575" lon="6.76631">
        <ele>440.9</ele>
        <time>2017-01-15T08:19:21.000Z</time>
      </trkpt>
      <trkpt lat="47.50572" lon="6.76631">
        <ele>441.1</ele>
        <time>2017-01-15T08:19:22.000Z</time>
      </trkpt>
      <trkpt lat="47.5057" lon="6.76632">
        <ele>441.2</ele>
        <time>2017-01-15T08:19:23.000Z</time>
      </trkpt>
      <trkpt lat="47.50567" lon="6.76633">
        <ele>441.4</ele>
        <time>2017-01-15T08:19:24.000Z</time>
      </trkpt>
      <trkpt lat="47.50565" lon="6.76635">
        <ele>441.5</ele>
        <time>2017-01-15T08:19:25.000Z</time>
      </trkpt>
      <trkpt lat="47.50561" lon="6.76637">
        <ele>441.7</ele>
        <time>2017-01-15T08:19:27.000Z</time>
      </trkpt>
      <trkpt lat="47.50559" lon="6.76638">
        <ele>441.9</ele>
        <time>2017-01-15T08:19:28.000Z</time>
      </trkpt>
      <trkpt lat="47.50557" lon="6.76639">
        <ele>442</ele>
        <time>2017-01-15T08:19:29.000Z</time>
      </trkpt>
      <trkpt lat="47.50554" lon="6.7664">
        <ele>442.1</ele>
        <time>2017-01-15T08:19:30.000Z</time>
      </trkpt>
      <trkpt lat="47.50551" lon="6.7664">
        <ele>442.2</ele>
        <time>2017-01-15T08:19:32.000Z</time>
      </trkpt>
      <trkpt lat="47.50549" lon="6.76641">
        <ele>442.3</ele>
        <time>2017-01-15T08:19:33.000Z</time>
      </trkpt>
      <trkpt lat="47.50546" lon="6.76642">
        <ele>442.4</ele>
        <time>2017-01-15T08:19:34.000Z</time>
      </trkpt>
      <trkpt lat="47.50543" lon="6.76642">
        <ele>442.5</ele>
        <time>2017-01-15T08:19:35.000Z</time>
      </trkpt>
      <trkpt lat="47.5054" lon="6.76642">
        <ele>442.5</ele>
        <time>2017-01-15T08:19:36.000Z</time>
      </trkpt>
      <trkpt lat="47.50537" lon="6.76642">
        <ele>442.5</ele>
        <time>2017-01-15T08:19:37.000Z</time>
      </trkpt>
      <trkpt lat="47.50534" lon="6.76643">
        <ele>442.6</ele>
        <time>2017-01-15T08:19:38.000Z</time>
      </trkpt>
      <trkpt lat="47.5053" lon="6.76644">
        <ele>442.7</ele>
        <time>2017-01-15T08:19:39.000Z</time>
      </trkpt>
      <trkpt lat="47.50527" lon="6.76645">
        <ele>442.8</ele>
        <time>2017-01-15T08:19:40.000Z</time>
      </trkpt>
      <trkpt lat="47.50524" lon="6.76646">
        <ele>442.8</ele>
        <time>2017-01-15T08:19:41.000Z</time>
      </trkpt>
      <trkpt lat="47.50522" lon="6.76647">
        <ele>442.7</ele>
        <time>2017-01-15T08:19:42.000Z</time>
      </trkpt>
      <trkpt lat="47.50519" lon="6.76648">
        <ele>442.6</ele>
        <time>2017-01-15T08:19:43.000Z</time>
      </trkpt>
      <trkpt lat="47.50516" lon="6.76649">
        <ele>442.6</ele>
        <time>2017-01-15T08:19:44.000Z</time>
      </trkpt>
      <trkpt lat="47.50513" lon="6.7665">
        <ele>442.5</ele>
        <time>2017-01-15T08:19:45.000Z</time>
      </trkpt>
      <trkpt lat="47.50509" lon="6.76651">
        <ele>442.6</ele>
        <time>2017-01-15T08:19:46.000Z</time>
      </trkpt>
      <trkpt lat="47.50506" lon="6.76652">
        <ele>442.7</ele>
        <time>2017-01-15T08:19:47.000Z</time>
      </trkpt>
      <trkpt lat="47.50503" lon="6.76653">
        <ele>442.7</ele>
        <time>2017-01-15T08:19:48.000Z</time>
      </trkpt>
      <trkpt lat="47.50499" lon="6.76655">
        <ele>442.7</ele>
        <time>2017-01-15T08:19:49.000Z</time>
      </trkpt>
      <trkpt lat="47.50496" lon="6.76656">
        <ele>442.7</ele>
        <time>2017-01-15T08:19:50.000Z</time>
      </trkpt>
      <trkpt lat="47.50493" lon="6.76657">
        <ele>442.7</ele>
        <time>2017-01-15T08:19:51.000Z</time>
      </trkpt>
      <trkpt lat="47.5049" lon="6.76658">
        <ele>442.7</ele>
        <time>2017-01-15T08:19:52.000Z</time>
      </trkpt>
      <trkpt lat="47.50487" lon="6.7666">
        <ele>442.7</ele>
        <time>2017-01-15T08:19:53.000Z</time>
      </trkpt>
      <trkpt lat="47.50483" lon="6.76661">
        <ele>442.6</ele>
        <time>2017-01-15T08:19:54.000Z</time>
      </trkpt>
      <trkpt lat="47.5048" lon="6.76663">
        <ele>442.6</ele>
        <time>2017-01-15T08:19:55.000Z</time>
      </trkpt>
      <trkpt lat="47.50477" lon="6.76664">
        <ele>442.6</ele>
        <time>2017-01-15T08:19:56.000Z</time>
      </trkpt>
      <trkpt lat="47.50474" lon="6.76665">
        <ele>442.6</ele>
        <time>2017-01-15T08:19:57.000Z</time>
      </trkpt>
      <trkpt lat="47.5047" lon="6.76666">
        <ele>442.6</ele>
        <time>2017-01-15T08:19:58.000Z</time>
      </trkpt>
      <trkpt lat="47.50467" lon="6.76667">
        <ele>442.6</ele>
        <time>2017-01-15T08:19:59.000Z</time>
      </trkpt>
      <trkpt lat="47.50463" lon="6.76668">
        <ele>442.6</ele>
        <time>2017-01-15T08:20:00.000Z</time>
      </trkpt>
      <trkpt lat="47.50459" lon="6.7667">
        <ele>442.6</ele>
        <time>2017-01-15T08:20:01.000Z</time>
      </trkpt>
      <trkpt lat="47.50456" lon="6.76671">
        <ele>442.5</ele>
        <time>2017-01-15T08:20:02.000Z</time>
      </trkpt>
      <trkpt lat="47.50454" lon="6.76673">
        <ele>442.5</ele>
        <time>2017-01-15T08:20:03.000Z</time>
      </trkpt>
      <trkpt lat="47.50451" lon="6.76674">
        <ele>442.5</ele>
        <time>2017-01-15T08:20:04.000Z</time>
      </trkpt>
      <trkpt lat="47.50448" lon="6.76675">
        <ele>442.5</ele>
        <time>2017-01-15T08:20:05.000Z</time>
      </trkpt>
      <trkpt lat="47.50445" lon="6.76676">
        <ele>442.5</ele>
        <time>2017-01-15T08:20:06.000Z</time>
      </trkpt>
      <trkpt lat="47.50441" lon="6.76679">
        <ele>442.5</ele>
        <time>2017-01-15T08:20:07.000Z</time>
      </trkpt>
      <trkpt lat="47.50438" lon="6.7668">
        <ele>442.5</ele>
        <time>2017-01-15T08:20:08.000Z</time>
      </trkpt>
      <trkpt lat="47.50434" lon="6.76681">
        <ele>442.5</ele>
        <time>2017-01-15T08:20:09.000Z</time>
      </trkpt>
      <trkpt lat="47.50431" lon="6.76683">
        <ele>442.4</ele>
        <time>2017-01-15T08:20:10.000Z</time>
      </trkpt>
      <trkpt lat="47.50427" lon="6.76685">
        <ele>442.5</ele>
        <time>2017-01-15T08:20:11.000Z</time>
      </trkpt>
      <trkpt lat="47.50423" lon="6.76686">
        <ele>442.5</ele>
        <time>2017-01-15T08:20:12.000Z</time>
      </trkpt>
      <trkpt lat="47.5042" lon="6.76688">
        <ele>442.5</ele>
        <time>2017-01-15T08:20:13.000Z</time>
      </trkpt>
      <trkpt lat="47.50416" lon="6.76689">
        <ele>442.4</ele>
        <time>2017-01-15T08:20:14.000Z</time>
      </trkpt>
      <trkpt lat="47.50413" lon="6.76689">
        <ele>442.4</ele>
        <time>2017-01-15T08:20:15.000Z</time>
      </trkpt>
      <trkpt lat="47.5041" lon="6.76689">
        <ele>442.4</ele>
        <time>2017-01-15T08:20:16.000Z</time>
      </trkpt>
      <trkpt lat="47.50407" lon="6.7669">
        <ele>442.3</ele>
        <time>2017-01-15T08:20:17.000Z</time>
      </trkpt>
      <trkpt lat="47.50405" lon="6.76691">
        <ele>442.3</ele>
        <time>2017-01-15T08:20:18.000Z</time>
      </trkpt>
      <trkpt lat="47.50402" lon="6.76692">
        <ele>442.2</ele>
        <time>2017-01-15T08:20:19.000Z</time>
      </trkpt>
      <trkpt lat="47.504" lon="6.76694">
        <ele>442.2</ele>
        <time>2017-01-15T08:20:20.000Z</time>
      </trkpt>
      <trkpt lat="47.50397" lon="6.76695">
        <ele>442.1</ele>
        <time>2017-01-15T08:20:21.000Z</time>
      </trkpt>
      <trkpt lat="47.50395" lon="6.76697">
        <ele>442</ele>
        <time>2017-01-15T08:20:22.000Z</time>
      </trkpt>
      <trkpt lat="47.50392" lon="6.76698">
        <ele>441.9</ele>
        <time>2017-01-15T08:20:23.000Z</time>
      </trkpt>
      <trkpt lat="47.50389" lon="6.767">
        <ele>441.9</ele>
        <time>2017-01-15T08:20:24.000Z</time>
      </trkpt>
      <trkpt lat="47.50386" lon="6.76701">
        <ele>441.8</ele>
        <time>2017-01-15T08:20:25.000Z</time>
      </trkpt>
      <trkpt lat="47.50383" lon="6.76703">
        <ele>441.8</ele>
        <time>2017-01-15T08:20:26.000Z</time>
      </trkpt>
      <trkpt lat="47.5038" lon="6.76704">
        <ele>441.8</ele>
        <time>2017-01-15T08:20:27.000Z</time>
      </trkpt>
      <trkpt lat="47.50376" lon="6.76705">
        <ele>441.8</ele>
        <time>2017-01-15T08:20:28.000Z</time>
      </trkpt>
      <trkpt lat="47.50373" lon="6.76707">
        <ele>441.8</ele>
        <time>2017-01-15T08:20:29.000Z</time>
      </trkpt>
      <trkpt lat="47.5037" lon="6.76708">
        <ele>441.8</ele>
        <time>2017-01-15T08:20:30.000Z</time>
      </trkpt>
      <trkpt lat="47.50368" lon="6.76709">
        <ele>441.8</ele>
        <time>2017-01-15T08:20:31.000Z</time>
      </trkpt>
      <trkpt lat="47.50365" lon="6.7671">
        <ele>441.8</ele>
        <time>2017-01-15T08:20:32.000Z</time>
      </trkpt>
      <trkpt lat="47.50362" lon="6.76712">
        <ele>441.8</ele>
        <time>2017-01-15T08:20:33.000Z</time>
      </trkpt>
      <trkpt lat="47.50359" lon="6.76713">
        <ele>441.8</ele>
        <time>2017-01-15T08:20:34.000Z</time>
      </trkpt>
      <trkpt lat="47.50356" lon="6.76714">
        <ele>441.9</ele>
        <time>2017-01-15T08:20:35.000Z</time>
      </trkpt>
      <trkpt lat="47.50354" lon="6.76715">
        <ele>441.9</ele>
        <time>2017-01-15T08:20:36.000Z</time>
      </trkpt>
      <trkpt lat="47.50351" lon="6.76717">
        <ele>441.9</ele>
        <time>2017-01-15T08:20:37.000Z</time>
      </trkpt>
      <trkpt lat="47.50349" lon="6.76718">
        <ele>442</ele>
        <time>2017-01-15T08:20:38.000Z</time>
      </trkpt>
      <trkpt lat="47.50346" lon="6.76719">
        <ele>442</ele>
        <time>2017-01-15T08:20:39.000Z</time>
      </trkpt>
      <trkpt lat="47.50344" lon="6.7672">
        <ele>442</ele>
        <time>2017-01-15T08:20:40.000Z</time>
      </trkpt>
      <trkpt lat="47.50341" lon="6.76722">
        <ele>442.1</ele>
        <time>2017-01-15T08:20:41.000Z</time>
      </trkpt>
      <trkpt lat="47.50339" lon="6.76723">
        <ele>442</ele>
        <time>2017-01-15T08:20:42.000Z</time>
      </trkpt>
      <trkpt lat="47.50337" lon="6.76724">
        <ele>442</ele>
        <time>2017-01-15T08:20:43.000Z</time>
      </trkpt>
      <trkpt lat="47.50335" lon="6.76725">
        <ele>442</ele>
        <time>2017-01-15T08:20:44.000Z</time>
      </trkpt>
      <trkpt lat="47.50332" lon="6.76725">
        <ele>442</ele>
        <time>2017-01-15T08:20:45.000Z</time>
      </trkpt>
      <trkpt lat="47.50329" lon="6.76726">
        <ele>442.1</ele>
        <time>2017-01-15T08:20:46.000Z</time>
      </trkpt>
      <trkpt lat="47.50326" lon="6.76727">
        <ele>442.1</ele>
        <time>2017-01-15T08:20:47.000Z</time>
      </trkpt>
      <trkpt lat="47.50324" lon="6.76727">
        <ele>442.1</ele>
        <time>2017-01-15T08:20:48.000Z</time>
      </trkpt>
      <trkpt lat="47.50321" lon="6.76728">
        <ele>442.1</ele>
        <time>2017-01-15T08:20:49.000Z</time>
      </trkpt>
      <trkpt lat="47.50319" lon="6.76729">
        <ele>442.1</ele>
        <time>2017-01-15T08:20:50.000Z</time>
      </trkpt>
      <trkpt lat="47.50316" lon="6.7673">
        <ele>442</ele>
        <time>2017-01-15T08:20:51.000Z</time>
      </trkpt>
      <trkpt lat="47.50314" lon="6.76731">
        <ele>442</ele>
        <time>2017-01-15T08:20:52.000Z</time>
      </trkpt>
      <trkpt lat="47.50311" lon="6.76732">
        <ele>442.1</ele>
        <time>2017-01-15T08:20:53.000Z</time>
      </trkpt>
      <trkpt lat="47.50308" lon="6.76733">
        <ele>442.1</ele>
        <time>2017-01-15T08:20:54.000Z</time>
      </trkpt>
      <trkpt lat="47.50306" lon="6.76734">
        <ele>442.2</ele>
        <time>2017-01-15T08:20:55.000Z</time>
      </trkpt>
      <trkpt lat="47.50303" lon="6.76735">
        <ele>442.3</ele>
        <time>2017-01-15T08:20:56.000Z</time>
      </trkpt>
      <trkpt lat="47.503" lon="6.76735">
        <ele>442.4</ele>
        <time>2017-01-15T08:20:57.000Z</time>
      </trkpt>
      <trkpt lat="47.50297" lon="6.76736">
        <ele>442.4</ele>
        <time>2017-01-15T08:20:58.000Z</time>
      </trkpt>
      <trkpt lat="47.50294" lon="6.76736">
        <ele>442.4</ele>
        <time>2017-01-15T08:20:59.000Z</time>
      </trkpt>
      <trkpt lat="47.50291" lon="6.76737">
        <ele>442.3</ele>
        <time>2017-01-15T08:21:00.000Z</time>
      </trkpt>
      <trkpt lat="47.50288" lon="6.76738">
        <ele>442.3</ele>
        <time>2017-01-15T08:21:01.000Z</time>
      </trkpt>
      <trkpt lat="47.50285" lon="6.76738">
        <ele>442.2</ele>
        <time>2017-01-15T08:21:02.000Z</time>
      </trkpt>
      <trkpt lat="47.50282" lon="6.76739">
        <ele>442.1</ele>
        <time>2017-01-15T08:21:03.000Z</time>
      </trkpt>
      <trkpt lat="47.5028" lon="6.7674">
        <ele>442.1</ele>
        <time>2017-01-15T08:21:04.000Z</time>
      </trkpt>
      <trkpt lat="47.50276" lon="6.7674">
        <ele>442.1</ele>
        <time>2017-01-15T08:21:06.000Z</time>
      </trkpt>
      <trkpt lat="47.50274" lon="6.76741">
        <ele>442.1</ele>
        <time>2017-01-15T08:21:07.000Z</time>
      </trkpt>
      <trkpt lat="47.5027" lon="6.76741">
        <ele>442.1</ele>
        <time>2017-01-15T08:21:09.000Z</time>
      </trkpt>
      <trkpt lat="47.50267" lon="6.76741">
        <ele>442.3</ele>
        <time>2017-01-15T08:21:10.000Z</time>
      </trkpt>
      <trkpt lat="47.50264" lon="6.76742">
        <ele>442.4</ele>
        <time>2017-01-15T08:21:11.000Z</time>
      </trkpt>
      <trkpt lat="47.50262" lon="6.76743">
        <ele>442.5</ele>
        <time>2017-01-15T08:21:12.000Z</time>
      </trkpt>
      <trkpt lat="47.50259" lon="6.76745">
        <ele>442.7</ele>
        <time>2017-01-15T08:21:13.000Z</time>
      </trkpt>
      <trkpt lat="47.50257" lon="6.76746">
        <ele>442.8</ele>
        <time>2017-01-15T08:21:14.000Z</time>
      </trkpt>
      <trkpt lat="47.50253" lon="6.76746">
        <ele>443</ele>
        <time>2017-01-15T08:21:16.000Z</time>
      </trkpt>
      <trkpt lat="47.50251" lon="6.76747">
        <ele>443.2</ele>
        <time>2017-01-15T08:21:17.000Z</time>
      </trkpt>
      <trkpt lat="47.50248" lon="6.76744">
        <ele>443.5</ele>
        <time>2017-01-15T08:21:20.000Z</time>
      </trkpt>
      <trkpt lat="47.50246" lon="6.76743">
        <ele>443.6</ele>
        <time>2017-01-15T08:21:21.000Z</time>
      </trkpt>
      <trkpt lat="47.50244" lon="6.76739">
        <ele>443.6</ele>
        <time>2017-01-15T08:21:22.000Z</time>
      </trkpt>
      <trkpt lat="47.50243" lon="6.76736">
        <ele>443.6</ele>
        <time>2017-01-15T08:21:23.000Z</time>
      </trkpt>
      <trkpt lat="47.50241" lon="6.76732">
        <ele>443.5</ele>
        <time>2017-01-15T08:21:24.000Z</time>
      </trkpt>
      <trkpt lat="47.50239" lon="6.7673">
        <ele>443.5</ele>
        <time>2017-01-15T08:21:25.000Z</time>
      </trkpt>
      <trkpt lat="47.50237" lon="6.76725">
        <ele>443.4</ele>
        <time>2017-01-15T08:21:27.000Z</time>
      </trkpt>
      <trkpt lat="47.50235" lon="6.76722">
        <ele>443.4</ele>
        <time>2017-01-15T08:21:28.000Z</time>
      </trkpt>
      <trkpt lat="47.50234" lon="6.76716">
        <ele>443.4</ele>
        <time>2017-01-15T08:21:30.000Z</time>
      </trkpt>
      <trkpt lat="47.50233" lon="6.76713">
        <ele>443.4</ele>
        <time>2017-01-15T08:21:31.000Z</time>
      </trkpt>
      <trkpt lat="47.50231" lon="6.76709">
        <ele>443.3</ele>
        <time>2017-01-15T08:21:32.000Z</time>
      </trkpt>
      <trkpt lat="47.50231" lon="6.76707">
        <ele>443.2</ele>
        <time>2017-01-15T08:21:33.000Z</time>
      </trkpt>
      <trkpt lat="47.50229" lon="6.76701">
        <ele>443.2</ele>
        <time>2017-01-15T08:21:35.000Z</time>
      </trkpt>
      <trkpt lat="47.50228" lon="6.76698">
        <ele>443.1</ele>
        <time>2017-01-15T08:21:36.000Z</time>
      </trkpt>
      <trkpt lat="47.50226" lon="6.76695">
        <ele>443.1</ele>
        <time>2017-01-15T08:21:37.000Z</time>
      </trkpt>
      <trkpt lat="47.50225" lon="6.76691">
        <ele>443</ele>
        <time>2017-01-15T08:21:38.000Z</time>
      </trkpt>
      <trkpt lat="47.50223" lon="6.76688">
        <ele>443.1</ele>
        <time>2017-01-15T08:21:39.000Z</time>
      </trkpt>
      <trkpt lat="47.50222" lon="6.76684">
        <ele>443.2</ele>
        <time>2017-01-15T08:21:40.000Z</time>
      </trkpt>
      <trkpt lat="47.50221" lon="6.76681">
        <ele>443.2</ele>
        <time>2017-01-15T08:21:41.000Z</time>
      </trkpt>
      <trkpt lat="47.5022" lon="6.76677">
        <ele>443.2</ele>
        <time>2017-01-15T08:21:42.000Z</time>
      </trkpt>
      <trkpt lat="47.50218" lon="6.76674">
        <ele>443.3</ele>
        <time>2017-01-15T08:21:43.000Z</time>
      </trkpt>
      <trkpt lat="47.50217" lon="6.76671">
        <ele>443.4</ele>
        <time>2017-01-15T08:21:44.000Z</time>
      </trkpt>
      <trkpt lat="47.50216" lon="6.76667">
        <ele>443.5</ele>
        <time>2017-01-15T08:21:45.000Z</time>
      </trkpt>
      <trkpt lat="47.50215" lon="6.76663">
        <ele>443.7</ele>
        <time>2017-01-15T08:21:46.000Z</time>
      </trkpt>
      <trkpt lat="47.50213" lon="6.7666">
        <ele>443.8</ele>
        <time>2017-01-15T08:21:47.000Z</time>
      </trkpt>
      <trkpt lat="47.50212" lon="6.76656">
        <ele>443.9</ele>
        <time>2017-01-15T08:21:48.000Z</time>
      </trkpt>
      <trkpt lat="47.50211" lon="6.76653">
        <ele>443.8</ele>
        <time>2017-01-15T08:21:49.000Z</time>
      </trkpt>
      <trkpt lat="47.5021" lon="6.7665">
        <ele>443.8</ele>
        <time>2017-01-15T08:21:50.000Z</time>
      </trkpt>
      <trkpt lat="47.50209" lon="6.76643">
        <ele>443.8</ele>
        <time>2017-01-15T08:21:52.000Z</time>
      </trkpt>
      <trkpt lat="47.50208" lon="6.7664">
        <ele>443.8</ele>
        <time>2017-01-15T08:21:53.000Z</time>
      </trkpt>
      <trkpt lat="47.50208" lon="6.76637">
        <ele>443.8</ele>
        <time>2017-01-15T08:21:54.000Z</time>
      </trkpt>
      <trkpt lat="47.50207" lon="6.76633">
        <ele>443.7</ele>
        <time>2017-01-15T08:21:55.000Z</time>
      </trkpt>
      <trkpt lat="47.50206" lon="6.7663">
        <ele>443.7</ele>
        <time>2017-01-15T08:21:56.000Z</time>
      </trkpt>
      <trkpt lat="47.50205" lon="6.76627">
        <ele>443.7</ele>
        <time>2017-01-15T08:21:57.000Z</time>
      </trkpt>
      <trkpt lat="47.50204" lon="6.76623">
        <ele>443.7</ele>
        <time>2017-01-15T08:21:58.000Z</time>
      </trkpt>
      <trkpt lat="47.50203" lon="6.76619">
        <ele>443.6</ele>
        <time>2017-01-15T08:21:59.000Z</time>
      </trkpt>
      <trkpt lat="47.50202" lon="6.76615">
        <ele>443.6</ele>
        <time>2017-01-15T08:22:00.000Z</time>
      </trkpt>
      <trkpt lat="47.50201" lon="6.76612">
        <ele>443.5</ele>
        <time>2017-01-15T08:22:01.000Z</time>
      </trkpt>
      <trkpt lat="47.502" lon="6.76608">
        <ele>443.5</ele>
        <time>2017-01-15T08:22:02.000Z</time>
      </trkpt>
      <trkpt lat="47.50199" lon="6.76605">
        <ele>443.4</ele>
        <time>2017-01-15T08:22:03.000Z</time>
      </trkpt>
      <trkpt lat="47.50197" lon="6.76601">
        <ele>443.3</ele>
        <time>2017-01-15T08:22:05.000Z</time>
      </trkpt>
      <trkpt lat="47.50196" lon="6.76598">
        <ele>443.2</ele>
        <time>2017-01-15T08:22:06.000Z</time>
      </trkpt>
      <trkpt lat="47.50195" lon="6.76594">
        <ele>443</ele>
        <time>2017-01-15T08:22:08.000Z</time>
      </trkpt>
      <trkpt lat="47.50195" lon="6.76591">
        <ele>442.9</ele>
        <time>2017-01-15T08:22:09.000Z</time>
      </trkpt>
      <trkpt lat="47.50194" lon="6.76585">
        <ele>442.9</ele>
        <time>2017-01-15T08:22:11.000Z</time>
      </trkpt>
      <trkpt lat="47.50194" lon="6.76581">
        <ele>442.8</ele>
        <time>2017-01-15T08:22:12.000Z</time>
      </trkpt>
      <trkpt lat="47.50194" lon="6.76574">
        <ele>442.7</ele>
        <time>2017-01-15T08:22:15.000Z</time>
      </trkpt>
      <trkpt lat="47.50196" lon="6.76572">
        <ele>442.6</ele>
        <time>2017-01-15T08:22:16.000Z</time>
      </trkpt>
      <trkpt lat="47.502" lon="6.7657">
        <ele>442.3</ele>
        <time>2017-01-15T08:22:18.000Z</time>
      </trkpt>
      <trkpt lat="47.50202" lon="6.76569">
        <ele>442.2</ele>
        <time>2017-01-15T08:22:19.000Z</time>
      </trkpt>
      <trkpt lat="47.50204" lon="6.76568">
        <ele>442.2</ele>
        <time>2017-01-15T08:22:20.000Z</time>
      </trkpt>
      <trkpt lat="47.50207" lon="6.76568">
        <ele>442</ele>
        <time>2017-01-15T08:22:21.000Z</time>
      </trkpt>
      <trkpt lat="47.5021" lon="6.76567">
        <ele>441.9</ele>
        <time>2017-01-15T08:22:22.000Z</time>
      </trkpt>
      <trkpt lat="47.50213" lon="6.76566">
        <ele>441.8</ele>
        <time>2017-01-15T08:22:23.000Z</time>
      </trkpt>
      <trkpt lat="47.50216" lon="6.76564">
        <ele>441.7</ele>
        <time>2017-01-15T08:22:24.000Z</time>
      </trkpt>
      <trkpt lat="47.5022" lon="6.76562">
        <ele>441.6</ele>
        <time>2017-01-15T08:22:25.000Z</time>
      </trkpt>
      <trkpt lat="47.50224" lon="6.76558">
        <ele>441.6</ele>
        <time>2017-01-15T08:22:26.000Z</time>
      </trkpt>
      <trkpt lat="47.50225" lon="6.76553">
        <ele>441.6</ele>
        <time>2017-01-15T08:22:27.000Z</time>
      </trkpt>
      <trkpt lat="47.50224" lon="6.76549">
        <ele>441.6</ele>
        <time>2017-01-15T08:22:28.000Z</time>
      </trkpt>
      <trkpt lat="47.50223" lon="6.76545">
        <ele>441.4</ele>
        <time>2017-01-15T08:22:29.000Z</time>
      </trkpt>
      <trkpt lat="47.50222" lon="6.76542">
        <ele>441.3</ele>
        <time>2017-01-15T08:22:30.000Z</time>
      </trkpt>
      <trkpt lat="47.50222" lon="6.76538">
        <ele>441.2</ele>
        <time>2017-01-15T08:22:31.000Z</time>
      </trkpt>
      <trkpt lat="47.50221" lon="6.76531">
        <ele>440.7</ele>
        <time>2017-01-15T08:22:38.000Z</time>
      </trkpt>
      <trkpt lat="47.50222" lon="6.7653">
        <ele>440.5</ele>
        <time>2017-01-15T08:22:39.000Z</time>
      </trkpt>
      <trkpt lat="47.50222" lon="6.76526">
        <ele>440.4</ele>
        <time>2017-01-15T08:22:44.000Z</time>
      </trkpt>
      <trkpt lat="47.50222" lon="6.76523">
        <ele>440.2</ele>
        <time>2017-01-15T08:22:45.000Z</time>
      </trkpt>
      <trkpt lat="47.5022" lon="6.76521">
        <ele>440.1</ele>
        <time>2017-01-15T08:22:50.000Z</time>
      </trkpt>
      <trkpt lat="47.50219" lon="6.76517">
        <ele>440</ele>
        <time>2017-01-15T08:22:51.000Z</time>
      </trkpt>
      <trkpt lat="47.50215" lon="6.76514">
        <ele>440.2</ele>
        <time>2017-01-15T08:22:55.000Z</time>
      </trkpt>
      <trkpt lat="47.50214" lon="6.76513">
        <ele>440.4</ele>
        <time>2017-01-15T08:22:56.000Z</time>
      </trkpt>
      <trkpt lat="47.50219" lon="6.76515">
        <ele>441</ele>
        <time>2017-01-15T08:23:21.000Z</time>
      </trkpt>
      <trkpt lat="47.50219" lon="6.76514">
        <ele>441.1</ele>
        <time>2017-01-15T08:23:22.000Z</time>
      </trkpt>
      <trkpt lat="47.50218" lon="6.76511">
        <ele>441.2</ele>
        <time>2017-01-15T08:23:23.000Z</time>
      </trkpt>
      <trkpt lat="47.50216" lon="6.76508">
        <ele>441.4</ele>
        <time>2017-01-15T08:23:24.000Z</time>
      </trkpt>
      <trkpt lat="47.50214" lon="6.76506">
        <ele>441.5</ele>
        <time>2017-01-15T08:23:25.000Z</time>
      </trkpt>
      <trkpt lat="47.50213" lon="6.76502">
        <ele>441.7</ele>
        <time>2017-01-15T08:23:26.000Z</time>
      </trkpt>
      <trkpt lat="47.50212" lon="6.76499">
        <ele>441.9</ele>
        <time>2017-01-15T08:23:27.000Z</time>
      </trkpt>
      <trkpt lat="47.5021" lon="6.76495">
        <ele>442.1</ele>
        <time>2017-01-15T08:23:28.000Z</time>
      </trkpt>
      <trkpt lat="47.50209" lon="6.76492">
        <ele>442.3</ele>
        <time>2017-01-15T08:23:29.000Z</time>
      </trkpt>
      <trkpt lat="47.50207" lon="6.76488">
        <ele>442.5</ele>
        <time>2017-01-15T08:23:30.000Z</time>
      </trkpt>
      <trkpt lat="47.50205" lon="6.76483">
        <ele>442.9</ele>
        <time>2017-01-15T08:23:32.000Z</time>
      </trkpt>
      <trkpt lat="47.50204" lon="6.76478">
        <ele>443.1</ele>
        <time>2017-01-15T08:23:33.000Z</time>
      </trkpt>
      <trkpt lat="47.50202" lon="6.76472">
        <ele>443.4</ele>
        <time>2017-01-15T08:23:34.000Z</time>
      </trkpt>
      <trkpt lat="47.502" lon="6.76465">
        <ele>445.6</ele>
        <time>2017-01-15T08:23:35.000Z</time>
      </trkpt>
      <trkpt lat="47.50198" lon="6.76459">
        <ele>447.1</ele>
        <time>2017-01-15T08:23:36.000Z</time>
      </trkpt>
      <trkpt lat="47.50197" lon="6.76453">
        <ele>447.3</ele>
        <time>2017-01-15T08:23:37.000Z</time>
      </trkpt>
      <trkpt lat="47.50195" lon="6.76448">
        <ele>447.5</ele>
        <time>2017-01-15T08:23:38.000Z</time>
      </trkpt>
      <trkpt lat="47.50193" lon="6.76443">
        <ele>449.4</ele>
        <time>2017-01-15T08:23:39.000Z</time>
      </trkpt>
      <trkpt lat="47.50192" lon="6.76439">
        <ele>449.5</ele>
        <time>2017-01-15T08:23:40.000Z</time>
      </trkpt>
      <trkpt lat="47.50191" lon="6.76435">
        <ele>449.7</ele>
        <time>2017-01-15T08:23:41.000Z</time>
      </trkpt>
      <trkpt lat="47.5019" lon="6.76431">
        <ele>449.8</ele>
        <time>2017-01-15T08:23:42.000Z</time>
      </trkpt>
      <trkpt lat="47.50189" lon="6.76426">
        <ele>449.9</ele>
        <time>2017-01-15T08:23:43.000Z</time>
      </trkpt>
      <trkpt lat="47.50187" lon="6.76421">
        <ele>449.9</ele>
        <time>2017-01-15T08:23:44.000Z</time>
      </trkpt>
      <trkpt lat="47.50184" lon="6.76416">
        <ele>449.9</ele>
        <time>2017-01-15T08:23:45.000Z</time>
      </trkpt>
      <trkpt lat="47.50182" lon="6.76412">
        <ele>449.8</ele>
        <time>2017-01-15T08:23:46.000Z</time>
      </trkpt>
      <trkpt lat="47.50181" lon="6.76407">
        <ele>449.8</ele>
        <time>2017-01-15T08:23:47.000Z</time>
      </trkpt>
      <trkpt lat="47.5018" lon="6.76402">
        <ele>449.6</ele>
        <time>2017-01-15T08:23:48.000Z</time>
      </trkpt>
      <trkpt lat="47.50179" lon="6.76397">
        <ele>449.5</ele>
        <time>2017-01-15T08:23:49.000Z</time>
      </trkpt>
      <trkpt lat="47.50178" lon="6.76393">
        <ele>449.4</ele>
        <time>2017-01-15T08:23:50.000Z</time>
      </trkpt>
      <trkpt lat="47.50176" lon="6.76387">
        <ele>449.2</ele>
        <time>2017-01-15T08:23:51.000Z</time>
      </trkpt>
      <trkpt lat="47.50175" lon="6.76383">
        <ele>449.1</ele>
        <time>2017-01-15T08:23:52.000Z</time>
      </trkpt>
      <trkpt lat="47.50173" lon="6.76379">
        <ele>449</ele>
        <time>2017-01-15T08:23:53.000Z</time>
      </trkpt>
      <trkpt lat="47.50171" lon="6.76374">
        <ele>448.9</ele>
        <time>2017-01-15T08:23:54.000Z</time>
      </trkpt>
      <trkpt lat="47.50169" lon="6.7637">
        <ele>448.9</ele>
        <time>2017-01-15T08:23:55.000Z</time>
      </trkpt>
      <trkpt lat="47.50167" lon="6.76366">
        <ele>448.8</ele>
        <time>2017-01-15T08:23:56.000Z</time>
      </trkpt>
      <trkpt lat="47.50166" lon="6.76363">
        <ele>448.7</ele>
        <time>2017-01-15T08:23:57.000Z</time>
      </trkpt>
      <trkpt lat="47.50165" lon="6.76359">
        <ele>448.6</ele>
        <time>2017-01-15T08:23:58.000Z</time>
      </trkpt>
      <trkpt lat="47.50164" lon="6.76355">
        <ele>448.5</ele>
        <time>2017-01-15T08:23:59.000Z</time>
      </trkpt>
      <trkpt lat="47.50163" lon="6.7635">
        <ele>448.4</ele>
        <time>2017-01-15T08:24:00.000Z</time>
      </trkpt>
      <trkpt lat="47.50161" lon="6.76346">
        <ele>448.4</ele>
        <time>2017-01-15T08:24:01.000Z</time>
      </trkpt>
      <trkpt lat="47.5016" lon="6.7634">
        <ele>448.3</ele>
        <time>2017-01-15T08:24:02.000Z</time>
      </trkpt>
      <trkpt lat="47.50158" lon="6.76336">
        <ele>448.1</ele>
        <time>2017-01-15T08:24:03.000Z</time>
      </trkpt>
      <trkpt lat="47.50157" lon="6.76332">
        <ele>447.9</ele>
        <time>2017-01-15T08:24:04.000Z</time>
      </trkpt>
      <trkpt lat="47.50156" lon="6.76328">
        <ele>447.7</ele>
        <time>2017-01-15T08:24:05.000Z</time>
      </trkpt>
      <trkpt lat="47.50154" lon="6.76323">
        <ele>447.6</ele>
        <time>2017-01-15T08:24:06.000Z</time>
      </trkpt>
      <trkpt lat="47.50152" lon="6.76318">
        <ele>447.4</ele>
        <time>2017-01-15T08:24:07.000Z</time>
      </trkpt>
      <trkpt lat="47.50151" lon="6.76314">
        <ele>447.3</ele>
        <time>2017-01-15T08:24:08.000Z</time>
      </trkpt>
      <trkpt lat="47.50151" lon="6.76309">
        <ele>447.1</ele>
        <time>2017-01-15T08:24:09.000Z</time>
      </trkpt>
      <trkpt lat="47.5015" lon="6.76305">
        <ele>447</ele>
        <time>2017-01-15T08:24:10.000Z</time>
      </trkpt>
      <trkpt lat="47.50148" lon="6.76302">
        <ele>446.9</ele>
        <time>2017-01-15T08:24:11.000Z</time>
      </trkpt>
      <trkpt lat="47.50147" lon="6.76298">
        <ele>446.8</ele>
        <time>2017-01-15T08:24:12.000Z</time>
      </trkpt>
      <trkpt lat="47.50147" lon="6.76292">
        <ele>446.6</ele>
        <time>2017-01-15T08:24:14.000Z</time>
      </trkpt>
      <trkpt lat="47.50147" lon="6.76289">
        <ele>446.4</ele>
        <time>2017-01-15T08:24:15.000Z</time>
      </trkpt>
      <trkpt lat="47.50146" lon="6.76285">
        <ele>446.3</ele>
        <time>2017-01-15T08:24:16.000Z</time>
      </trkpt>
      <trkpt lat="47.50145" lon="6.76281">
        <ele>446.2</ele>
        <time>2017-01-15T08:24:17.000Z</time>
      </trkpt>
      <trkpt lat="47.50143" lon="6.76276">
        <ele>445.8</ele>
        <time>2017-01-15T08:24:20.000Z</time>
      </trkpt>
      <trkpt lat="47.50143" lon="6.76273">
        <ele>445.6</ele>
        <time>2017-01-15T08:24:21.000Z</time>
      </trkpt>
      <trkpt lat="47.50142" lon="6.76269">
        <ele>445.5</ele>
        <time>2017-01-15T08:24:22.000Z</time>
      </trkpt>
      <trkpt lat="47.50141" lon="6.76265">
        <ele>445.3</ele>
        <time>2017-01-15T08:24:23.000Z</time>
      </trkpt>
      <trkpt lat="47.5014" lon="6.76261">
        <ele>445.1</ele>
        <time>2017-01-15T08:24:24.000Z</time>
      </trkpt>
      <trkpt lat="47.50139" lon="6.76257">
        <ele>444.9</ele>
        <time>2017-01-15T08:24:25.000Z</time>
      </trkpt>
      <trkpt lat="47.50139" lon="6.76252">
        <ele>444.5</ele>
        <time>2017-01-15T08:24:27.000Z</time>
      </trkpt>
      <trkpt lat="47.5014" lon="6.76249">
        <ele>444.2</ele>
        <time>2017-01-15T08:24:28.000Z</time>
      </trkpt>
      <trkpt lat="47.5014" lon="6.76245">
        <ele>443.9</ele>
        <time>2017-01-15T08:24:29.000Z</time>
      </trkpt>
      <trkpt lat="47.5014" lon="6.76241">
        <ele>443.6</ele>
        <time>2017-01-15T08:24:30.000Z</time>
      </trkpt>
      <trkpt lat="47.50139" lon="6.76237">
        <ele>443.2</ele>
        <time>2017-01-15T08:24:31.000Z</time>
      </trkpt>
      <trkpt lat="47.50138" lon="6.76232">
        <ele>442.8</ele>
        <time>2017-01-15T08:24:32.000Z</time>
      </trkpt>
      <trkpt lat="47.50137" lon="6.76227">
        <ele>442.4</ele>
        <time>2017-01-15T08:24:33.000Z</time>
      </trkpt>
      <trkpt lat="47.50136" lon="6.76224">
        <ele>441.9</ele>
        <time>2017-01-15T08:24:34.000Z</time>
      </trkpt>
      <trkpt lat="47.50135" lon="6.76219">
        <ele>440.8</ele>
        <time>2017-01-15T08:24:36.000Z</time>
      </trkpt>
      <trkpt lat="47.50134" lon="6.76215">
        <ele>440.3</ele>
        <time>2017-01-15T08:24:37.000Z</time>
      </trkpt>
      <trkpt lat="47.50134" lon="6.76211">
        <ele>439.7</ele>
        <time>2017-01-15T08:24:38.000Z</time>
      </trkpt>
      <trkpt lat="47.50134" lon="6.76206">
        <ele>439.2</ele>
        <time>2017-01-15T08:24:39.000Z</time>
      </trkpt>
      <trkpt lat="47.50133" lon="6.76201">
        <ele>438.7</ele>
        <time>2017-01-15T08:24:40.000Z</time>
      </trkpt>
      <trkpt lat="47.50132" lon="6.76196">
        <ele>438.2</ele>
        <time>2017-01-15T08:24:41.000Z</time>
      </trkpt>
      <trkpt lat="47.50131" lon="6.7619">
        <ele>437.7</ele>
        <time>2017-01-15T08:24:42.000Z</time>
      </trkpt>
      <trkpt lat="47.5013" lon="6.76184">
        <ele>437.2</ele>
        <time>2017-01-15T08:24:43.000Z</time>
      </trkpt>
      <trkpt lat="47.50128" lon="6.76178">
        <ele>436.7</ele>
        <time>2017-01-15T08:24:44.000Z</time>
      </trkpt>
      <trkpt lat="47.50128" lon="6.7617">
        <ele>436.1</ele>
        <time>2017-01-15T08:24:45.000Z</time>
      </trkpt>
      <trkpt lat="47.50127" lon="6.76163">
        <ele>435.4</ele>
        <time>2017-01-15T08:24:46.000Z</time>
      </trkpt>
      <trkpt lat="47.50127" lon="6.76157">
        <ele>434.7</ele>
        <time>2017-01-15T08:24:47.000Z</time>
      </trkpt>
      <trkpt lat="47.50126" lon="6.76152">
        <ele>434</ele>
        <time>2017-01-15T08:24:48.000Z</time>
      </trkpt>
      <trkpt lat="47.50125" lon="6.76146">
        <ele>433.3</ele>
        <time>2017-01-15T08:24:49.000Z</time>
      </trkpt>
      <trkpt lat="47.50124" lon="6.76141">
        <ele>432.6</ele>
        <time>2017-01-15T08:24:50.000Z</time>
      </trkpt>
      <trkpt lat="47.50125" lon="6.76135">
        <ele>431.3</ele>
        <time>2017-01-15T08:24:53.000Z</time>
      </trkpt>
      <trkpt lat="47.50125" lon="6.76133">
        <ele>430.8</ele>
        <time>2017-01-15T08:24:54.000Z</time>
      </trkpt>
      <trkpt lat="47.50124" lon="6.76128">
        <ele>430.3</ele>
        <time>2017-01-15T08:24:57.000Z</time>
      </trkpt>
      <trkpt lat="47.50125" lon="6.76122">
        <ele>430.3</ele>
        <time>2017-01-15T08:24:58.000Z</time>
      </trkpt>
      <trkpt lat="47.50125" lon="6.76115">
        <ele>430.3</ele>
        <time>2017-01-15T08:24:59.000Z</time>
      </trkpt>
      <trkpt lat="47.50125" lon="6.76111">
        <ele>430.2</ele>
        <time>2017-01-15T08:25:00.000Z</time>
      </trkpt>
      <trkpt lat="47.50125" lon="6.76107">
        <ele>430.1</ele>
        <time>2017-01-15T08:25:01.000Z</time>
      </trkpt>
      <trkpt lat="47.50128" lon="6.76097">
        <ele>430</ele>
        <time>2017-01-15T08:25:02.000Z</time>
      </trkpt>
      <trkpt lat="47.50127" lon="6.76089">
        <ele>430</ele>
        <time>2017-01-15T08:25:03.000Z</time>
      </trkpt>
      <trkpt lat="47.50126" lon="6.76079">
        <ele>429.9</ele>
        <time>2017-01-15T08:25:04.000Z</time>
      </trkpt>
      <trkpt lat="47.50124" lon="6.76071">
        <ele>429.9</ele>
        <time>2017-01-15T08:25:05.000Z</time>
      </trkpt>
      <trkpt lat="47.50122" lon="6.76064">
        <ele>429.7</ele>
        <time>2017-01-15T08:25:06.000Z</time>
      </trkpt>
      <trkpt lat="47.50119" lon="6.76056">
        <ele>428.1</ele>
        <time>2017-01-15T08:25:07.000Z</time>
      </trkpt>
      <trkpt lat="47.50116" lon="6.76046">
        <ele>426.2</ele>
        <time>2017-01-15T08:25:08.000Z</time>
      </trkpt>
      <trkpt lat="47.50113" lon="6.76038">
        <ele>426</ele>
        <time>2017-01-15T08:25:09.000Z</time>
      </trkpt>
      <trkpt lat="47.5011" lon="6.76029">
        <ele>425.9</ele>
        <time>2017-01-15T08:25:10.000Z</time>
      </trkpt>
      <trkpt lat="47.50109" lon="6.76021">
        <ele>425.3</ele>
        <time>2017-01-15T08:25:11.000Z</time>
      </trkpt>
      <trkpt lat="47.50106" lon="6.76013">
        <ele>425.3</ele>
        <time>2017-01-15T08:25:12.000Z</time>
      </trkpt>
      <trkpt lat="47.50102" lon="6.76007">
        <ele>425.2</ele>
        <time>2017-01-15T08:25:13.000Z</time>
      </trkpt>
      <trkpt lat="47.50098" lon="6.76001">
        <ele>425</ele>
        <time>2017-01-15T08:25:14.000Z</time>
      </trkpt>
      <trkpt lat="47.50093" lon="6.75995">
        <ele>424.8</ele>
        <time>2017-01-15T08:25:15.000Z</time>
      </trkpt>
      <trkpt lat="47.5009" lon="6.75989">
        <ele>424.6</ele>
        <time>2017-01-15T08:25:16.000Z</time>
      </trkpt>
      <trkpt lat="47.50086" lon="6.75983">
        <ele>424.4</ele>
        <time>2017-01-15T08:25:17.000Z</time>
      </trkpt>
      <trkpt lat="47.50082" lon="6.75979">
        <ele>424.2</ele>
        <time>2017-01-15T08:25:18.000Z</time>
      </trkpt>
      <trkpt lat="47.50079" lon="6.75973">
        <ele>422.5</ele>
        <time>2017-01-15T08:25:19.000Z</time>
      </trkpt>
      <trkpt lat="47.50076" lon="6.75968">
        <ele>422.3</ele>
        <time>2017-01-15T08:25:20.000Z</time>
      </trkpt>
      <trkpt lat="47.50072" lon="6.75963">
        <ele>422</ele>
        <time>2017-01-15T08:25:21.000Z</time>
      </trkpt>
      <trkpt lat="47.50069" lon="6.75958">
        <ele>421.8</ele>
        <time>2017-01-15T08:25:22.000Z</time>
      </trkpt>
      <trkpt lat="47.50066" lon="6.75954">
        <ele>421.5</ele>
        <time>2017-01-15T08:25:23.000Z</time>
      </trkpt>
      <trkpt lat="47.50064" lon="6.7595">
        <ele>421.3</ele>
        <time>2017-01-15T08:25:24.000Z</time>
      </trkpt>
      <trkpt lat="47.50061" lon="6.75946">
        <ele>421.1</ele>
        <time>2017-01-15T08:25:25.000Z</time>
      </trkpt>
      <trkpt lat="47.50059" lon="6.75942">
        <ele>418.9</ele>
        <time>2017-01-15T08:25:26.000Z</time>
      </trkpt>
      <trkpt lat="47.50056" lon="6.75938">
        <ele>418.7</ele>
        <time>2017-01-15T08:25:27.000Z</time>
      </trkpt>
      <trkpt lat="47.50053" lon="6.75933">
        <ele>418.5</ele>
        <time>2017-01-15T08:25:28.000Z</time>
      </trkpt>
      <trkpt lat="47.50049" lon="6.75928">
        <ele>416.2</ele>
        <time>2017-01-15T08:25:29.000Z</time>
      </trkpt>
      <trkpt lat="47.50045" lon="6.7592">
        <ele>414</ele>
        <time>2017-01-15T08:25:30.000Z</time>
      </trkpt>
      <trkpt lat="47.5004" lon="6.75914">
        <ele>411.8</ele>
        <time>2017-01-15T08:25:31.000Z</time>
      </trkpt>
      <trkpt lat="47.50036" lon="6.75908">
        <ele>411.5</ele>
        <time>2017-01-15T08:25:32.000Z</time>
      </trkpt>
      <trkpt lat="47.50033" lon="6.75901">
        <ele>410.3</ele>
        <time>2017-01-15T08:25:33.000Z</time>
      </trkpt>
      <trkpt lat="47.50029" lon="6.75896">
        <ele>409.1</ele>
        <time>2017-01-15T08:25:34.000Z</time>
      </trkpt>
      <trkpt lat="47.50024" lon="6.75891">
        <ele>407.3</ele>
        <time>2017-01-15T08:25:35.000Z</time>
      </trkpt>
      <trkpt lat="47.5002" lon="6.75884">
        <ele>406.8</ele>
        <time>2017-01-15T08:25:36.000Z</time>
      </trkpt>
      <trkpt lat="47.50016" lon="6.75877">
        <ele>406.5</ele>
        <time>2017-01-15T08:25:37.000Z</time>
      </trkpt>
      <trkpt lat="47.50013" lon="6.7587">
        <ele>406.5</ele>
        <time>2017-01-15T08:25:38.000Z</time>
      </trkpt>
      <trkpt lat="47.50009" lon="6.75865">
        <ele>406.1</ele>
        <time>2017-01-15T08:25:39.000Z</time>
      </trkpt>
      <trkpt lat="47.50006" lon="6.7586">
        <ele>404.4</ele>
        <time>2017-01-15T08:25:40.000Z</time>
      </trkpt>
      <trkpt lat="47.50003" lon="6.75854">
        <ele>402.9</ele>
        <time>2017-01-15T08:25:41.000Z</time>
      </trkpt>
      <trkpt lat="47.5" lon="6.75848">
        <ele>401.5</ele>
        <time>2017-01-15T08:25:42.000Z</time>
      </trkpt>
      <trkpt lat="47.49998" lon="6.75845">
        <ele>401.6</ele>
        <time>2017-01-15T08:25:43.000Z</time>
      </trkpt>
      <trkpt lat="47.49994" lon="6.7584">
        <ele>401</ele>
        <time>2017-01-15T08:25:44.000Z</time>
      </trkpt>
      <trkpt lat="47.4999" lon="6.75833">
        <ele>400.9</ele>
        <time>2017-01-15T08:25:45.000Z</time>
      </trkpt>
      <trkpt lat="47.49988" lon="6.75826">
        <ele>400.9</ele>
        <time>2017-01-15T08:25:46.000Z</time>
      </trkpt>
      <trkpt lat="47.49985" lon="6.75821">
        <ele>400.8</ele>
        <time>2017-01-15T08:25:47.000Z</time>
      </trkpt>
      <trkpt lat="47.49982" lon="6.75816">
        <ele>400.6</ele>
        <time>2017-01-15T08:25:48.000Z</time>
      </trkpt>
      <trkpt lat="47.49979" lon="6.7581">
        <ele>399.8</ele>
        <time>2017-01-15T08:25:49.000Z</time>
      </trkpt>
      <trkpt lat="47.49976" lon="6.75805">
        <ele>399.2</ele>
        <time>2017-01-15T08:25:50.000Z</time>
      </trkpt>
      <trkpt lat="47.49971" lon="6.75801">
        <ele>399.2</ele>
        <time>2017-01-15T08:25:51.000Z</time>
      </trkpt>
      <trkpt lat="47.49967" lon="6.75796">
        <ele>397.8</ele>
        <time>2017-01-15T08:25:52.000Z</time>
      </trkpt>
      <trkpt lat="47.49964" lon="6.75793">
        <ele>397.6</ele>
        <time>2017-01-15T08:25:53.000Z</time>
      </trkpt>
      <trkpt lat="47.4996" lon="6.75788">
        <ele>395.7</ele>
        <time>2017-01-15T08:25:54.000Z</time>
      </trkpt>
      <trkpt lat="47.49956" lon="6.75781">
        <ele>394.6</ele>
        <time>2017-01-15T08:25:55.000Z</time>
      </trkpt>
      <trkpt lat="47.49952" lon="6.75774">
        <ele>393.9</ele>
        <time>2017-01-15T08:25:56.000Z</time>
      </trkpt>
      <trkpt lat="47.49947" lon="6.75768">
        <ele>393.4</ele>
        <time>2017-01-15T08:25:57.000Z</time>
      </trkpt>
      <trkpt lat="47.49944" lon="6.75763">
        <ele>392.8</ele>
        <time>2017-01-15T08:25:58.000Z</time>
      </trkpt>
      <trkpt lat="47.4994" lon="6.75758">
        <ele>393.6</ele>
        <time>2017-01-15T08:25:59.000Z</time>
      </trkpt>
      <trkpt lat="47.49935" lon="6.75751">
        <ele>394.2</ele>
        <time>2017-01-15T08:26:00.000Z</time>
      </trkpt>
      <trkpt lat="47.49931" lon="6.75744">
        <ele>395</ele>
        <time>2017-01-15T08:26:01.000Z</time>
      </trkpt>
      <trkpt lat="47.49924" lon="6.75738">
        <ele>396.7</ele>
        <time>2017-01-15T08:26:02.000Z</time>
      </trkpt>
      <trkpt lat="47.49917" lon="6.75734">
        <ele>396.7</ele>
        <time>2017-01-15T08:26:03.000Z</time>
      </trkpt>
      <trkpt lat="47.4991" lon="6.7573">
        <ele>396.1</ele>
        <time>2017-01-15T08:26:04.000Z</time>
      </trkpt>
      <trkpt lat="47.49904" lon="6.7573">
        <ele>396.6</ele>
        <time>2017-01-15T08:26:05.000Z</time>
      </trkpt>
      <trkpt lat="47.49898" lon="6.7573">
        <ele>397.2</ele>
        <time>2017-01-15T08:26:06.000Z</time>
      </trkpt>
      <trkpt lat="47.49891" lon="6.75731">
        <ele>396.9</ele>
        <time>2017-01-15T08:26:07.000Z</time>
      </trkpt>
      <trkpt lat="47.49884" lon="6.75731">
        <ele>396.7</ele>
        <time>2017-01-15T08:26:08.000Z</time>
      </trkpt>
      <trkpt lat="47.49878" lon="6.75731">
        <ele>396.4</ele>
        <time>2017-01-15T08:26:09.000Z</time>
      </trkpt>
      <trkpt lat="47.49871" lon="6.7573">
        <ele>396.6</ele>
        <time>2017-01-15T08:26:10.000Z</time>
      </trkpt>
      <trkpt lat="47.49865" lon="6.75732">
        <ele>397.1</ele>
        <time>2017-01-15T08:26:11.000Z</time>
      </trkpt>
      <trkpt lat="47.49859" lon="6.75733">
        <ele>397.4</ele>
        <time>2017-01-15T08:26:12.000Z</time>
      </trkpt>
      <trkpt lat="47.49853" lon="6.75735">
        <ele>396.9</ele>
        <time>2017-01-15T08:26:13.000Z</time>
      </trkpt>
      <trkpt lat="47.49846" lon="6.75739">
        <ele>396.3</ele>
        <time>2017-01-15T08:26:14.000Z</time>
      </trkpt>
      <trkpt lat="47.49839" lon="6.7574">
        <ele>395.8</ele>
        <time>2017-01-15T08:26:15.000Z</time>
      </trkpt>
      <trkpt lat="47.49831" lon="6.75744">
        <ele>395.9</ele>
        <time>2017-01-15T08:26:16.000Z</time>
      </trkpt>
      <trkpt lat="47.49823" lon="6.75747">
        <ele>395.5</ele>
        <time>2017-01-15T08:26:17.000Z</time>
      </trkpt>
      <trkpt lat="47.49815" lon="6.75748">
        <ele>394.9</ele>
        <time>2017-01-15T08:26:18.000Z</time>
      </trkpt>
      <trkpt lat="47.49807" lon="6.75749">
        <ele>394.1</ele>
        <time>2017-01-15T08:26:19.000Z</time>
      </trkpt>
      <trkpt lat="47.498" lon="6.7575">
        <ele>393.5</ele>
        <time>2017-01-15T08:26:20.000Z</time>
      </trkpt>
      <trkpt lat="47.49794" lon="6.75752">
        <ele>393</ele>
        <time>2017-01-15T08:26:21.000Z</time>
      </trkpt>
      <trkpt lat="47.49787" lon="6.75753">
        <ele>392.4</ele>
        <time>2017-01-15T08:26:22.000Z</time>
      </trkpt>
      <trkpt lat="47.49779" lon="6.75754">
        <ele>391</ele>
        <time>2017-01-15T08:26:23.000Z</time>
      </trkpt>
      <trkpt lat="47.49772" lon="6.75755">
        <ele>390</ele>
        <time>2017-01-15T08:26:24.000Z</time>
      </trkpt>
      <trkpt lat="47.49765" lon="6.75757">
        <ele>389.3</ele>
        <time>2017-01-15T08:26:25.000Z</time>
      </trkpt>
      <trkpt lat="47.49759" lon="6.75759">
        <ele>388.8</ele>
        <time>2017-01-15T08:26:26.000Z</time>
      </trkpt>
      <trkpt lat="47.49752" lon="6.75761">
        <ele>388.8</ele>
        <time>2017-01-15T08:26:27.000Z</time>
      </trkpt>
      <trkpt lat="47.49745" lon="6.75763">
        <ele>388.7</ele>
        <time>2017-01-15T08:26:28.000Z</time>
      </trkpt>
      <trkpt lat="47.4974" lon="6.75763">
        <ele>388.2</ele>
        <time>2017-01-15T08:26:29.000Z</time>
      </trkpt>
      <trkpt lat="47.49735" lon="6.75766">
        <ele>387.4</ele>
        <time>2017-01-15T08:26:30.000Z</time>
      </trkpt>
      <trkpt lat="47.49731" lon="6.75768">
        <ele>385.7</ele>
        <time>2017-01-15T08:26:31.000Z</time>
      </trkpt>
      <trkpt lat="47.49726" lon="6.75771">
        <ele>384.2</ele>
        <time>2017-01-15T08:26:32.000Z</time>
      </trkpt>
      <trkpt lat="47.49722" lon="6.75772">
        <ele>383.4</ele>
        <time>2017-01-15T08:26:33.000Z</time>
      </trkpt>
      <trkpt lat="47.49716" lon="6.75774">
        <ele>382.6</ele>
        <time>2017-01-15T08:26:34.000Z</time>
      </trkpt>
      <trkpt lat="47.49711" lon="6.75776">
        <ele>382.5</ele>
        <time>2017-01-15T08:26:35.000Z</time>
      </trkpt>
      <trkpt lat="47.49706" lon="6.75777">
        <ele>381.9</ele>
        <time>2017-01-15T08:26:36.000Z</time>
      </trkpt>
      <trkpt lat="47.49702" lon="6.75779">
        <ele>381.8</ele>
        <time>2017-01-15T08:26:37.000Z</time>
      </trkpt>
      <trkpt lat="47.49696" lon="6.75781">
        <ele>381.5</ele>
        <time>2017-01-15T08:26:38.000Z</time>
      </trkpt>
      <trkpt lat="47.4969" lon="6.75782">
        <ele>381.4</ele>
        <time>2017-01-15T08:26:39.000Z</time>
      </trkpt>
      <trkpt lat="47.49685" lon="6.75783">
        <ele>381.4</ele>
        <time>2017-01-15T08:26:40.000Z</time>
      </trkpt>
      <trkpt lat="47.49679" lon="6.75783">
        <ele>381.4</ele>
        <time>2017-01-15T08:26:41.000Z</time>
      </trkpt>
      <trkpt lat="47.49675" lon="6.75784">
        <ele>381.5</ele>
        <time>2017-01-15T08:26:42.000Z</time>
      </trkpt>
      <trkpt lat="47.4967" lon="6.75785">
        <ele>381.5</ele>
        <time>2017-01-15T08:26:43.000Z</time>
      </trkpt>
      <trkpt lat="47.49665" lon="6.75787">
        <ele>381.7</ele>
        <time>2017-01-15T08:26:44.000Z</time>
      </trkpt>
      <trkpt lat="47.4966" lon="6.75788">
        <ele>381.9</ele>
        <time>2017-01-15T08:26:45.000Z</time>
      </trkpt>
      <trkpt lat="47.49654" lon="6.75787">
        <ele>381.1</ele>
        <time>2017-01-15T08:26:46.000Z</time>
      </trkpt>
      <trkpt lat="47.49649" lon="6.75786">
        <ele>380.9</ele>
        <time>2017-01-15T08:26:47.000Z</time>
      </trkpt>
      <trkpt lat="47.49645" lon="6.75785">
        <ele>380.8</ele>
        <time>2017-01-15T08:26:48.000Z</time>
      </trkpt>
      <trkpt lat="47.49641" lon="6.75786">
        <ele>380.6</ele>
        <time>2017-01-15T08:26:49.000Z</time>
      </trkpt>
      <trkpt lat="47.49635" lon="6.75785">
        <ele>379.6</ele>
        <time>2017-01-15T08:26:50.000Z</time>
      </trkpt>
      <trkpt lat="47.49629" lon="6.75785">
        <ele>379.5</ele>
        <time>2017-01-15T08:26:51.000Z</time>
      </trkpt>
      <trkpt lat="47.49625" lon="6.75785">
        <ele>379.4</ele>
        <time>2017-01-15T08:26:52.000Z</time>
      </trkpt>
      <trkpt lat="47.49621" lon="6.75786">
        <ele>379.4</ele>
        <time>2017-01-15T08:26:53.000Z</time>
      </trkpt>
      <trkpt lat="47.49616" lon="6.75788">
        <ele>379.3</ele>
        <time>2017-01-15T08:26:54.000Z</time>
      </trkpt>
      <trkpt lat="47.4961" lon="6.75787">
        <ele>378.9</ele>
        <time>2017-01-15T08:26:55.000Z</time>
      </trkpt>
      <trkpt lat="47.49606" lon="6.75786">
        <ele>379</ele>
        <time>2017-01-15T08:26:56.000Z</time>
      </trkpt>
      <trkpt lat="47.49601" lon="6.75785">
        <ele>378.9</ele>
        <time>2017-01-15T08:26:57.000Z</time>
      </trkpt>
      <trkpt lat="47.49598" lon="6.75783">
        <ele>378.9</ele>
        <time>2017-01-15T08:26:58.000Z</time>
      </trkpt>
      <trkpt lat="47.49594" lon="6.75782">
        <ele>378.9</ele>
        <time>2017-01-15T08:26:59.000Z</time>
      </trkpt>
      <trkpt lat="47.4959" lon="6.75781">
        <ele>378.8</ele>
        <time>2017-01-15T08:27:00.000Z</time>
      </trkpt>
      <trkpt lat="47.49587" lon="6.75779">
        <ele>378.7</ele>
        <time>2017-01-15T08:27:01.000Z</time>
      </trkpt>
      <trkpt lat="47.49584" lon="6.75778">
        <ele>378.6</ele>
        <time>2017-01-15T08:27:02.000Z</time>
      </trkpt>
      <trkpt lat="47.4958" lon="6.75778">
        <ele>378.4</ele>
        <time>2017-01-15T08:27:03.000Z</time>
      </trkpt>
      <trkpt lat="47.49577" lon="6.75778">
        <ele>378.2</ele>
        <time>2017-01-15T08:27:04.000Z</time>
      </trkpt>
      <trkpt lat="47.49574" lon="6.75777">
        <ele>378</ele>
        <time>2017-01-15T08:27:05.000Z</time>
      </trkpt>
      <trkpt lat="47.49571" lon="6.75775">
        <ele>377.7</ele>
        <time>2017-01-15T08:27:06.000Z</time>
      </trkpt>
      <trkpt lat="47.49567" lon="6.75773">
        <ele>377.5</ele>
        <time>2017-01-15T08:27:07.000Z</time>
      </trkpt>
      <trkpt lat="47.49564" lon="6.7577">
        <ele>377.2</ele>
        <time>2017-01-15T08:27:08.000Z</time>
      </trkpt>
      <trkpt lat="47.49561" lon="6.75768">
        <ele>377</ele>
        <time>2017-01-15T08:27:09.000Z</time>
      </trkpt>
      <trkpt lat="47.49559" lon="6.75763">
        <ele>376</ele>
        <time>2017-01-15T08:27:13.000Z</time>
      </trkpt>
      <trkpt lat="47.4956" lon="6.75757">
        <ele>375.7</ele>
        <time>2017-01-15T08:27:14.000Z</time>
      </trkpt>
      <trkpt lat="47.49562" lon="6.75753">
        <ele>375.6</ele>
        <time>2017-01-15T08:27:15.000Z</time>
      </trkpt>
      <trkpt lat="47.49563" lon="6.7575">
        <ele>375.3</ele>
        <time>2017-01-15T08:27:16.000Z</time>
      </trkpt>
      <trkpt lat="47.49565" lon="6.75748">
        <ele>375.1</ele>
        <time>2017-01-15T08:27:17.000Z</time>
      </trkpt>
      <trkpt lat="47.49568" lon="6.75745">
        <ele>375</ele>
        <time>2017-01-15T08:27:18.000Z</time>
      </trkpt>
      <trkpt lat="47.49571" lon="6.75743">
        <ele>374.7</ele>
        <time>2017-01-15T08:27:19.000Z</time>
      </trkpt>
      <trkpt lat="47.49574" lon="6.75741">
        <ele>374.5</ele>
        <time>2017-01-15T08:27:20.000Z</time>
      </trkpt>
      <trkpt lat="47.49578" lon="6.75739">
        <ele>371.5</ele>
        <time>2017-01-15T08:27:21.000Z</time>
      </trkpt>
      <trkpt lat="47.49582" lon="6.75735">
        <ele>368.9</ele>
        <time>2017-01-15T08:27:22.000Z</time>
      </trkpt>
      <trkpt lat="47.49586" lon="6.75732">
        <ele>368.6</ele>
        <time>2017-01-15T08:27:23.000Z</time>
      </trkpt>
      <trkpt lat="47.49588" lon="6.75728">
        <ele>368.4</ele>
        <time>2017-01-15T08:27:24.000Z</time>
      </trkpt>
      <trkpt lat="47.49591" lon="6.75724">
        <ele>368.1</ele>
        <time>2017-01-15T08:27:25.000Z</time>
      </trkpt>
      <trkpt lat="47.49593" lon="6.7572">
        <ele>367.9</ele>
        <time>2017-01-15T08:27:26.000Z</time>
      </trkpt>
      <trkpt lat="47.49595" lon="6.75715">
        <ele>366.3</ele>
        <time>2017-01-15T08:27:27.000Z</time>
      </trkpt>
      <trkpt lat="47.49597" lon="6.7571">
        <ele>364.9</ele>
        <time>2017-01-15T08:27:28.000Z</time>
      </trkpt>
      <trkpt lat="47.49597" lon="6.75704">
        <ele>364.3</ele>
        <time>2017-01-15T08:27:29.000Z</time>
      </trkpt>
      <trkpt lat="47.49597" lon="6.75698">
        <ele>364.2</ele>
        <time>2017-01-15T08:27:30.000Z</time>
      </trkpt>
      <trkpt lat="47.49595" lon="6.75693">
        <ele>364.2</ele>
        <time>2017-01-15T08:27:31.000Z</time>
      </trkpt>
      <trkpt lat="47.49594" lon="6.75688">
        <ele>364.1</ele>
        <time>2017-01-15T08:27:32.000Z</time>
      </trkpt>
      <trkpt lat="47.49592" lon="6.75683">
        <ele>364</ele>
        <time>2017-01-15T08:27:33.000Z</time>
      </trkpt>
      <trkpt lat="47.49589" lon="6.7568">
        <ele>364</ele>
        <time>2017-01-15T08:27:34.000Z</time>
      </trkpt>
      <trkpt lat="47.49587" lon="6.75677">
        <ele>364</ele>
        <time>2017-01-15T08:27:35.000Z</time>
      </trkpt>
      <trkpt lat="47.49584" lon="6.75673">
        <ele>364</ele>
        <time>2017-01-15T08:27:36.000Z</time>
      </trkpt>
      <trkpt lat="47.49581" lon="6.75669">
        <ele>363.8</ele>
        <time>2017-01-15T08:27:37.000Z</time>
      </trkpt>
      <trkpt lat="47.49577" lon="6.75666">
        <ele>363.8</ele>
        <time>2017-01-15T08:27:38.000Z</time>
      </trkpt>
      <trkpt lat="47.49573" lon="6.75666">
        <ele>363.9</ele>
        <time>2017-01-15T08:27:39.000Z</time>
      </trkpt>
      <trkpt lat="47.4957" lon="6.75668">
        <ele>364</ele>
        <time>2017-01-15T08:27:40.000Z</time>
      </trkpt>
      <trkpt lat="47.49566" lon="6.75672">
        <ele>365</ele>
        <time>2017-01-15T08:27:41.000Z</time>
      </trkpt>
      <trkpt lat="47.49563" lon="6.75675">
        <ele>365</ele>
        <time>2017-01-15T08:27:42.000Z</time>
      </trkpt>
      <trkpt lat="47.4956" lon="6.75679">
        <ele>365.3</ele>
        <time>2017-01-15T08:27:43.000Z</time>
      </trkpt>
      <trkpt lat="47.49555" lon="6.75686">
        <ele>365.4</ele>
        <time>2017-01-15T08:27:44.000Z</time>
      </trkpt>
      <trkpt lat="47.49551" lon="6.75692">
        <ele>365.1</ele>
        <time>2017-01-15T08:27:45.000Z</time>
      </trkpt>
      <trkpt lat="47.49547" lon="6.75696">
        <ele>364.8</ele>
        <time>2017-01-15T08:27:46.000Z</time>
      </trkpt>
      <trkpt lat="47.49543" lon="6.75701">
        <ele>364.7</ele>
        <time>2017-01-15T08:27:47.000Z</time>
      </trkpt>
      <trkpt lat="47.49538" lon="6.75706">
        <ele>364.4</ele>
        <time>2017-01-15T08:27:48.000Z</time>
      </trkpt>
      <trkpt lat="47.49533" lon="6.7571">
        <ele>363.9</ele>
        <time>2017-01-15T08:27:49.000Z</time>
      </trkpt>
      <trkpt lat="47.49529" lon="6.75714">
        <ele>363.4</ele>
        <time>2017-01-15T08:27:50.000Z</time>
      </trkpt>
      <trkpt lat="47.49524" lon="6.75717">
        <ele>363.9</ele>
        <time>2017-01-15T08:27:51.000Z</time>
      </trkpt>
      <trkpt lat="47.49521" lon="6.7572">
        <ele>364.3</ele>
        <time>2017-01-15T08:27:52.000Z</time>
      </trkpt>
      <trkpt lat="47.49517" lon="6.75723">
        <ele>364.3</ele>
        <time>2017-01-15T08:27:53.000Z</time>
      </trkpt>
      <trkpt lat="47.49512" lon="6.75726">
        <ele>364</ele>
        <time>2017-01-15T08:27:54.000Z</time>
      </trkpt>
      <trkpt lat="47.49507" lon="6.75728">
        <ele>363.2</ele>
        <time>2017-01-15T08:27:55.000Z</time>
      </trkpt>
      <trkpt lat="47.49502" lon="6.75732">
        <ele>362.6</ele>
        <time>2017-01-15T08:27:56.000Z</time>
      </trkpt>
      <trkpt lat="47.49496" lon="6.75735">
        <ele>362.3</ele>
        <time>2017-01-15T08:27:57.000Z</time>
      </trkpt>
      <trkpt lat="47.49491" lon="6.75737">
        <ele>361.8</ele>
        <time>2017-01-15T08:27:58.000Z</time>
      </trkpt>
      <trkpt lat="47.49486" lon="6.75737">
        <ele>362.1</ele>
        <time>2017-01-15T08:27:59.000Z</time>
      </trkpt>
      <trkpt lat="47.49482" lon="6.75734">
        <ele>362.1</ele>
        <time>2017-01-15T08:28:00.000Z</time>
      </trkpt>
      <trkpt lat="47.4948" lon="6.75728">
        <ele>362.9</ele>
        <time>2017-01-15T08:28:01.000Z</time>
      </trkpt>
      <trkpt lat="47.49478" lon="6.75722">
        <ele>363</ele>
        <time>2017-01-15T08:28:02.000Z</time>
      </trkpt>
      <trkpt lat="47.49475" lon="6.75716">
        <ele>363.3</ele>
        <time>2017-01-15T08:28:03.000Z</time>
      </trkpt>
      <trkpt lat="47.49473" lon="6.7571">
        <ele>363.8</ele>
        <time>2017-01-15T08:28:04.000Z</time>
      </trkpt>
      <trkpt lat="47.49471" lon="6.75703">
        <ele>364.4</ele>
        <time>2017-01-15T08:28:05.000Z</time>
      </trkpt>
      <trkpt lat="47.49467" lon="6.75694">
        <ele>364.8</ele>
        <time>2017-01-15T08:28:06.000Z</time>
      </trkpt>
      <trkpt lat="47.49464" lon="6.7569">
        <ele>364.9</ele>
        <time>2017-01-15T08:28:07.000Z</time>
      </trkpt>
      <trkpt lat="47.49459" lon="6.75691">
        <ele>364.9</ele>
        <time>2017-01-15T08:28:08.000Z</time>
      </trkpt>
      <trkpt lat="47.49456" lon="6.75694">
        <ele>364.8</ele>
        <time>2017-01-15T08:28:09.000Z</time>
      </trkpt>
      <trkpt lat="47.49451" lon="6.75695">
        <ele>365</ele>
        <time>2017-01-15T08:28:10.000Z</time>
      </trkpt>
      <trkpt lat="47.49446" lon="6.75696">
        <ele>365.7</ele>
        <time>2017-01-15T08:28:11.000Z</time>
      </trkpt>
      <trkpt lat="47.49444" lon="6.75697">
        <ele>365.7</ele>
        <time>2017-01-15T08:28:12.000Z</time>
      </trkpt>
      <trkpt lat="47.49443" lon="6.75693">
        <ele>365.8</ele>
        <time>2017-01-15T08:28:13.000Z</time>
      </trkpt>
      <trkpt lat="47.49441" lon="6.75688">
        <ele>365.9</ele>
        <time>2017-01-15T08:28:14.000Z</time>
      </trkpt>
      <trkpt lat="47.4944" lon="6.75684">
        <ele>365.9</ele>
        <time>2017-01-15T08:28:15.000Z</time>
      </trkpt>
      <trkpt lat="47.49438" lon="6.75678">
        <ele>365.9</ele>
        <time>2017-01-15T08:28:16.000Z</time>
      </trkpt>
      <trkpt lat="47.49436" lon="6.75674">
        <ele>365.9</ele>
        <time>2017-01-15T08:28:17.000Z</time>
      </trkpt>
      <trkpt lat="47.49434" lon="6.75669">
        <ele>365.8</ele>
        <time>2017-01-15T08:28:18.000Z</time>
      </trkpt>
      <trkpt lat="47.49432" lon="6.75669">
        <ele>365.7</ele>
        <time>2017-01-15T08:28:19.000Z</time>
      </trkpt>
      <trkpt lat="47.49428" lon="6.7567">
        <ele>365.6</ele>
        <time>2017-01-15T08:28:20.000Z</time>
      </trkpt>
      <trkpt lat="47.49425" lon="6.75672">
        <ele>365.6</ele>
        <time>2017-01-15T08:28:21.000Z</time>
      </trkpt>
      <trkpt lat="47.49421" lon="6.75674">
        <ele>365.4</ele>
        <time>2017-01-15T08:28:22.000Z</time>
      </trkpt>
      <trkpt lat="47.49418" lon="6.75676">
        <ele>365.4</ele>
        <time>2017-01-15T08:28:23.000Z</time>
      </trkpt>
      <trkpt lat="47.49415" lon="6.75679">
        <ele>365.2</ele>
        <time>2017-01-15T08:28:24.000Z</time>
      </trkpt>
      <trkpt lat="47.49411" lon="6.75681">
        <ele>363.3</ele>
        <time>2017-01-15T08:28:25.000Z</time>
      </trkpt>
      <trkpt lat="47.49407" lon="6.75685">
        <ele>361.8</ele>
        <time>2017-01-15T08:28:26.000Z</time>
      </trkpt>
      <trkpt lat="47.49402" lon="6.75688">
        <ele>361.1</ele>
        <time>2017-01-15T08:28:27.000Z</time>
      </trkpt>
      <trkpt lat="47.49398" lon="6.75691">
        <ele>360.7</ele>
        <time>2017-01-15T08:28:28.000Z</time>
      </trkpt>
      <trkpt lat="47.49394" lon="6.75695">
        <ele>359.6</ele>
        <time>2017-01-15T08:28:29.000Z</time>
      </trkpt>
      <trkpt lat="47.49389" lon="6.75698">
        <ele>359.5</ele>
        <time>2017-01-15T08:28:30.000Z</time>
      </trkpt>
      <trkpt lat="47.49385" lon="6.75702">
        <ele>359</ele>
        <time>2017-01-15T08:28:31.000Z</time>
      </trkpt>
      <trkpt lat="47.49381" lon="6.75704">
        <ele>358.9</ele>
        <time>2017-01-15T08:28:32.000Z</time>
      </trkpt>
      <trkpt lat="47.49377" lon="6.75706">
        <ele>358.6</ele>
        <time>2017-01-15T08:28:33.000Z</time>
      </trkpt>
      <trkpt lat="47.49375" lon="6.75708">
        <ele>358.5</ele>
        <time>2017-01-15T08:28:34.000Z</time>
      </trkpt>
      <trkpt lat="47.49372" lon="6.75711">
        <ele>358.5</ele>
        <time>2017-01-15T08:28:35.000Z</time>
      </trkpt>
      <trkpt lat="47.49368" lon="6.75713">
        <ele>358.5</ele>
        <time>2017-01-15T08:28:36.000Z</time>
      </trkpt>
      <trkpt lat="47.49365" lon="6.75715">
        <ele>358.5</ele>
        <time>2017-01-15T08:28:37.000Z</time>
      </trkpt>
      <trkpt lat="47.49363" lon="6.75718">
        <ele>358.5</ele>
        <time>2017-01-15T08:28:38.000Z</time>
      </trkpt>
      <trkpt lat="47.49358" lon="6.75722">
        <ele>358.5</ele>
        <time>2017-01-15T08:28:39.000Z</time>
      </trkpt>
      <trkpt lat="47.49355" lon="6.75725">
        <ele>358.6</ele>
        <time>2017-01-15T08:28:40.000Z</time>
      </trkpt>
      <trkpt lat="47.49351" lon="6.75726">
        <ele>358.7</ele>
        <time>2017-01-15T08:28:41.000Z</time>
      </trkpt>
      <trkpt lat="47.49349" lon="6.75728">
        <ele>358.7</ele>
        <time>2017-01-15T08:28:42.000Z</time>
      </trkpt>
      <trkpt lat="47.49346" lon="6.75729">
        <ele>358.7</ele>
        <time>2017-01-15T08:28:43.000Z</time>
      </trkpt>
      <trkpt lat="47.49342" lon="6.75731">
        <ele>358.9</ele>
        <time>2017-01-15T08:28:44.000Z</time>
      </trkpt>
      <trkpt lat="47.49338" lon="6.75734">
        <ele>358.5</ele>
        <time>2017-01-15T08:28:45.000Z</time>
      </trkpt>
      <trkpt lat="47.49333" lon="6.75736">
        <ele>358.5</ele>
        <time>2017-01-15T08:28:46.000Z</time>
      </trkpt>
      <trkpt lat="47.49328" lon="6.75739">
        <ele>358.3</ele>
        <time>2017-01-15T08:28:47.000Z</time>
      </trkpt>
      <trkpt lat="47.49324" lon="6.75743">
        <ele>357.6</ele>
        <time>2017-01-15T08:28:48.000Z</time>
      </trkpt>
      <trkpt lat="47.49319" lon="6.75747">
        <ele>357.7</ele>
        <time>2017-01-15T08:28:49.000Z</time>
      </trkpt>
      <trkpt lat="47.49316" lon="6.7575">
        <ele>357.9</ele>
        <time>2017-01-15T08:28:50.000Z</time>
      </trkpt>
      <trkpt lat="47.49312" lon="6.75754">
        <ele>357.5</ele>
        <time>2017-01-15T08:28:51.000Z</time>
      </trkpt>
      <trkpt lat="47.49309" lon="6.75758">
        <ele>356.7</ele>
        <time>2017-01-15T08:28:52.000Z</time>
      </trkpt>
      <trkpt lat="47.49305" lon="6.75762">
        <ele>356.1</ele>
        <time>2017-01-15T08:28:53.000Z</time>
      </trkpt>
      <trkpt lat="47.49301" lon="6.75767">
        <ele>356</ele>
        <time>2017-01-15T08:28:54.000Z</time>
      </trkpt>
      <trkpt lat="47.49298" lon="6.75771">
        <ele>355.6</ele>
        <time>2017-01-15T08:28:55.000Z</time>
      </trkpt>
      <trkpt lat="47.49295" lon="6.75776">
        <ele>355.5</ele>
        <time>2017-01-15T08:28:56.000Z</time>
      </trkpt>
      <trkpt lat="47.49291" lon="6.75782">
        <ele>355.3</ele>
        <time>2017-01-15T08:28:57.000Z</time>
      </trkpt>
      <trkpt lat="47.49287" lon="6.75789">
        <ele>355.7</ele>
        <time>2017-01-15T08:28:58.000Z</time>
      </trkpt>
      <trkpt lat="47.49283" lon="6.75795">
        <ele>355.7</ele>
        <time>2017-01-15T08:28:59.000Z</time>
      </trkpt>
      <trkpt lat="47.49278" lon="6.75801">
        <ele>355.5</ele>
        <time>2017-01-15T08:29:00.000Z</time>
      </trkpt>
      <trkpt lat="47.49273" lon="6.75806">
        <ele>355.7</ele>
        <time>2017-01-15T08:29:01.000Z</time>
      </trkpt>
      <trkpt lat="47.4927" lon="6.7581">
        <ele>355.7</ele>
        <time>2017-01-15T08:29:02.000Z</time>
      </trkpt>
      <trkpt lat="47.49266" lon="6.75815">
        <ele>355.6</ele>
        <time>2017-01-15T08:29:03.000Z</time>
      </trkpt>
      <trkpt lat="47.49263" lon="6.75821">
        <ele>355.4</ele>
        <time>2017-01-15T08:29:04.000Z</time>
      </trkpt>
      <trkpt lat="47.49259" lon="6.7583">
        <ele>355.7</ele>
        <time>2017-01-15T08:29:05.000Z</time>
      </trkpt>
      <trkpt lat="47.49255" lon="6.75837">
        <ele>355.8</ele>
        <time>2017-01-15T08:29:06.000Z</time>
      </trkpt>
      <trkpt lat="47.49252" lon="6.75843">
        <ele>355.6</ele>
        <time>2017-01-15T08:29:07.000Z</time>
      </trkpt>
      <trkpt lat="47.49249" lon="6.75849">
        <ele>355.5</ele>
        <time>2017-01-15T08:29:08.000Z</time>
      </trkpt>
      <trkpt lat="47.49245" lon="6.75856">
        <ele>354.9</ele>
        <time>2017-01-15T08:29:09.000Z</time>
      </trkpt>
      <trkpt lat="47.49243" lon="6.75862">
        <ele>355</ele>
        <time>2017-01-15T08:29:10.000Z</time>
      </trkpt>
      <trkpt lat="47.4924" lon="6.75868">
        <ele>354.7</ele>
        <time>2017-01-15T08:29:11.000Z</time>
      </trkpt>
      <trkpt lat="47.49237" lon="6.75876">
        <ele>354.3</ele>
        <time>2017-01-15T08:29:12.000Z</time>
      </trkpt>
      <trkpt lat="47.49234" lon="6.75883">
        <ele>354.4</ele>
        <time>2017-01-15T08:29:13.000Z</time>
      </trkpt>
      <trkpt lat="47.49231" lon="6.75889">
        <ele>354.5</ele>
        <time>2017-01-15T08:29:14.000Z</time>
      </trkpt>
      <trkpt lat="47.49228" lon="6.75895">
        <ele>354.7</ele>
        <time>2017-01-15T08:29:15.000Z</time>
      </trkpt>
      <trkpt lat="47.49224" lon="6.75904">
        <ele>355.2</ele>
        <time>2017-01-15T08:29:16.000Z</time>
      </trkpt>
      <trkpt lat="47.49221" lon="6.75911">
        <ele>355.6</ele>
        <time>2017-01-15T08:29:17.000Z</time>
      </trkpt>
      <trkpt lat="47.49218" lon="6.75916">
        <ele>356.2</ele>
        <time>2017-01-15T08:29:18.000Z</time>
      </trkpt>
      <trkpt lat="47.49215" lon="6.75922">
        <ele>357.1</ele>
        <time>2017-01-15T08:29:19.000Z</time>
      </trkpt>
      <trkpt lat="47.49212" lon="6.75928">
        <ele>356.8</ele>
        <time>2017-01-15T08:29:20.000Z</time>
      </trkpt>
      <trkpt lat="47.49208" lon="6.75934">
        <ele>355.9</ele>
        <time>2017-01-15T08:29:21.000Z</time>
      </trkpt>
      <trkpt lat="47.49204" lon="6.75939">
        <ele>355.4</ele>
        <time>2017-01-15T08:29:22.000Z</time>
      </trkpt>
      <trkpt lat="47.49201" lon="6.75945">
        <ele>354.6</ele>
        <time>2017-01-15T08:29:23.000Z</time>
      </trkpt>
      <trkpt lat="47.49197" lon="6.75952">
        <ele>354.3</ele>
        <time>2017-01-15T08:29:24.000Z</time>
      </trkpt>
      <trkpt lat="47.49193" lon="6.75961">
        <ele>354.2</ele>
        <time>2017-01-15T08:29:25.000Z</time>
      </trkpt>
      <trkpt lat="47.49189" lon="6.75969">
        <ele>354.4</ele>
        <time>2017-01-15T08:29:26.000Z</time>
      </trkpt>
      <trkpt lat="47.49186" lon="6.75976">
        <ele>354.5</ele>
        <time>2017-01-15T08:29:27.000Z</time>
      </trkpt>
      <trkpt lat="47.49182" lon="6.75984">
        <ele>354.3</ele>
        <time>2017-01-15T08:29:28.000Z</time>
      </trkpt>
      <trkpt lat="47.4918" lon="6.75991">
        <ele>354.7</ele>
        <time>2017-01-15T08:29:29.000Z</time>
      </trkpt>
      <trkpt lat="47.49177" lon="6.75997">
        <ele>354.6</ele>
        <time>2017-01-15T08:29:30.000Z</time>
      </trkpt>
      <trkpt lat="47.49174" lon="6.76005">
        <ele>355</ele>
        <time>2017-01-15T08:29:31.000Z</time>
      </trkpt>
      <trkpt lat="47.49171" lon="6.76014">
        <ele>355.2</ele>
        <time>2017-01-15T08:29:32.000Z</time>
      </trkpt>
      <trkpt lat="47.49167" lon="6.76022">
        <ele>355</ele>
        <time>2017-01-15T08:29:33.000Z</time>
      </trkpt>
      <trkpt lat="47.49164" lon="6.7603">
        <ele>355.5</ele>
        <time>2017-01-15T08:29:34.000Z</time>
      </trkpt>
      <trkpt lat="47.49161" lon="6.76037">
        <ele>355.8</ele>
        <time>2017-01-15T08:29:35.000Z</time>
      </trkpt>
      <trkpt lat="47.49159" lon="6.76043">
        <ele>355.6</ele>
        <time>2017-01-15T08:29:36.000Z</time>
      </trkpt>
      <trkpt lat="47.49156" lon="6.7605">
        <ele>355.9</ele>
        <time>2017-01-15T08:29:37.000Z</time>
      </trkpt>
      <trkpt lat="47.49154" lon="6.76057">
        <ele>355.6</ele>
        <time>2017-01-15T08:29:38.000Z</time>
      </trkpt>
      <trkpt lat="47.49152" lon="6.76067">
        <ele>355.6</ele>
        <time>2017-01-15T08:29:39.000Z</time>
      </trkpt>
      <trkpt lat="47.49149" lon="6.76075">
        <ele>355.8</ele>
        <time>2017-01-15T08:29:40.000Z</time>
      </trkpt>
      <trkpt lat="47.49147" lon="6.76083">
        <ele>355.9</ele>
        <time>2017-01-15T08:29:41.000Z</time>
      </trkpt>
      <trkpt lat="47.49144" lon="6.76092">
        <ele>356</ele>
        <time>2017-01-15T08:29:42.000Z</time>
      </trkpt>
      <trkpt lat="47.49142" lon="6.76101">
        <ele>356.1</ele>
        <time>2017-01-15T08:29:43.000Z</time>
      </trkpt>
      <trkpt lat="47.4914" lon="6.76109">
        <ele>356.2</ele>
        <time>2017-01-15T08:29:44.000Z</time>
      </trkpt>
      <trkpt lat="47.49138" lon="6.76117">
        <ele>355.6</ele>
        <time>2017-01-15T08:29:45.000Z</time>
      </trkpt>
      <trkpt lat="47.49137" lon="6.76125">
        <ele>355.6</ele>
        <time>2017-01-15T08:29:46.000Z</time>
      </trkpt>
      <trkpt lat="47.49136" lon="6.76132">
        <ele>355.7</ele>
        <time>2017-01-15T08:29:47.000Z</time>
      </trkpt>
      <trkpt lat="47.49135" lon="6.76139">
        <ele>355.6</ele>
        <time>2017-01-15T08:29:48.000Z</time>
      </trkpt>
      <trkpt lat="47.49134" lon="6.76145">
        <ele>355.8</ele>
        <time>2017-01-15T08:29:49.000Z</time>
      </trkpt>
      <trkpt lat="47.49132" lon="6.76153">
        <ele>355.4</ele>
        <time>2017-01-15T08:29:50.000Z</time>
      </trkpt>
      <trkpt lat="47.49131" lon="6.76161">
        <ele>354.4</ele>
        <time>2017-01-15T08:29:51.000Z</time>
      </trkpt>
      <trkpt lat="47.4913" lon="6.76169">
        <ele>354</ele>
        <time>2017-01-15T08:29:52.000Z</time>
      </trkpt>
      <trkpt lat="47.4913" lon="6.76176">
        <ele>353.5</ele>
        <time>2017-01-15T08:29:53.000Z</time>
      </trkpt>
      <trkpt lat="47.4913" lon="6.76183">
        <ele>353.2</ele>
        <time>2017-01-15T08:29:54.000Z</time>
      </trkpt>
      <trkpt lat="47.4913" lon="6.76193">
        <ele>352.9</ele>
        <time>2017-01-15T08:29:55.000Z</time>
      </trkpt>
      <trkpt lat="47.4913" lon="6.762">
        <ele>352.1</ele>
        <time>2017-01-15T08:29:56.000Z</time>
      </trkpt>
      <trkpt lat="47.49129" lon="6.76208">
        <ele>351.5</ele>
        <time>2017-01-15T08:29:57.000Z</time>
      </trkpt>
      <trkpt lat="47.49129" lon="6.76216">
        <ele>351.4</ele>
        <time>2017-01-15T08:29:58.000Z</time>
      </trkpt>
      <trkpt lat="47.49129" lon="6.76223">
        <ele>351.5</ele>
        <time>2017-01-15T08:29:59.000Z</time>
      </trkpt>
      <trkpt lat="47.49129" lon="6.76231">
        <ele>351.4</ele>
        <time>2017-01-15T08:30:00.000Z</time>
      </trkpt>
      <trkpt lat="47.49129" lon="6.76237">
        <ele>351.4</ele>
        <time>2017-01-15T08:30:01.000Z</time>
      </trkpt>
      <trkpt lat="47.49129" lon="6.76243">
        <ele>351.3</ele>
        <time>2017-01-15T08:30:02.000Z</time>
      </trkpt>
      <trkpt lat="47.49129" lon="6.76249">
        <ele>351.2</ele>
        <time>2017-01-15T08:30:03.000Z</time>
      </trkpt>
      <trkpt lat="47.49129" lon="6.76257">
        <ele>350.2</ele>
        <time>2017-01-15T08:30:04.000Z</time>
      </trkpt>
      <trkpt lat="47.49128" lon="6.76265">
        <ele>349.8</ele>
        <time>2017-01-15T08:30:05.000Z</time>
      </trkpt>
      <trkpt lat="47.49127" lon="6.76275">
        <ele>349</ele>
        <time>2017-01-15T08:30:06.000Z</time>
      </trkpt>
      <trkpt lat="47.49128" lon="6.76281">
        <ele>348.4</ele>
        <time>2017-01-15T08:30:07.000Z</time>
      </trkpt>
      <trkpt lat="47.49128" lon="6.76288">
        <ele>348.1</ele>
        <time>2017-01-15T08:30:08.000Z</time>
      </trkpt>
      <trkpt lat="47.49129" lon="6.76296">
        <ele>347.6</ele>
        <time>2017-01-15T08:30:09.000Z</time>
      </trkpt>
      <trkpt lat="47.49129" lon="6.76303">
        <ele>347.6</ele>
        <time>2017-01-15T08:30:10.000Z</time>
      </trkpt>
      <trkpt lat="47.4913" lon="6.76309">
        <ele>347.3</ele>
        <time>2017-01-15T08:30:11.000Z</time>
      </trkpt>
      <trkpt lat="47.4913" lon="6.76315">
        <ele>346.9</ele>
        <time>2017-01-15T08:30:12.000Z</time>
      </trkpt>
      <trkpt lat="47.4913" lon="6.76322">
        <ele>346.5</ele>
        <time>2017-01-15T08:30:13.000Z</time>
      </trkpt>
      <trkpt lat="47.4913" lon="6.76327">
        <ele>346.5</ele>
        <time>2017-01-15T08:30:14.000Z</time>
      </trkpt>
      <trkpt lat="47.4913" lon="6.76333">
        <ele>346.4</ele>
        <time>2017-01-15T08:30:15.000Z</time>
      </trkpt>
      <trkpt lat="47.4913" lon="6.76339">
        <ele>345.3</ele>
        <time>2017-01-15T08:30:16.000Z</time>
      </trkpt>
      <trkpt lat="47.4913" lon="6.76346">
        <ele>344.8</ele>
        <time>2017-01-15T08:30:17.000Z</time>
      </trkpt>
      <trkpt lat="47.4913" lon="6.76352">
        <ele>344.7</ele>
        <time>2017-01-15T08:30:18.000Z</time>
      </trkpt>
      <trkpt lat="47.4913" lon="6.76358">
        <ele>344.6</ele>
        <time>2017-01-15T08:30:19.000Z</time>
      </trkpt>
      <trkpt lat="47.4913" lon="6.76367">
        <ele>343.4</ele>
        <time>2017-01-15T08:30:20.000Z</time>
      </trkpt>
      <trkpt lat="47.4913" lon="6.76376">
        <ele>343.1</ele>
        <time>2017-01-15T08:30:21.000Z</time>
      </trkpt>
      <trkpt lat="47.49129" lon="6.76385">
        <ele>342.5</ele>
        <time>2017-01-15T08:30:22.000Z</time>
      </trkpt>
      <trkpt lat="47.49129" lon="6.76394">
        <ele>342.6</ele>
        <time>2017-01-15T08:30:23.000Z</time>
      </trkpt>
      <trkpt lat="47.49129" lon="6.76402">
        <ele>343.1</ele>
        <time>2017-01-15T08:30:24.000Z</time>
      </trkpt>
      <trkpt lat="47.49129" lon="6.76409">
        <ele>343.5</ele>
        <time>2017-01-15T08:30:25.000Z</time>
      </trkpt>
      <trkpt lat="47.49128" lon="6.76417">
        <ele>343.8</ele>
        <time>2017-01-15T08:30:26.000Z</time>
      </trkpt>
      <trkpt lat="47.49128" lon="6.76426">
        <ele>344.4</ele>
        <time>2017-01-15T08:30:27.000Z</time>
      </trkpt>
      <trkpt lat="47.49127" lon="6.76434">
        <ele>345.4</ele>
        <time>2017-01-15T08:30:28.000Z</time>
      </trkpt>
      <trkpt lat="47.49127" lon="6.76441">
        <ele>346.5</ele>
        <time>2017-01-15T08:30:29.000Z</time>
      </trkpt>
      <trkpt lat="47.49129" lon="6.76449">
        <ele>346.7</ele>
        <time>2017-01-15T08:30:30.000Z</time>
      </trkpt>
      <trkpt lat="47.49129" lon="6.76459">
        <ele>347.2</ele>
        <time>2017-01-15T08:30:31.000Z</time>
      </trkpt>
      <trkpt lat="47.49129" lon="6.76465">
        <ele>347.2</ele>
        <time>2017-01-15T08:30:32.000Z</time>
      </trkpt>
      <trkpt lat="47.4913" lon="6.76472">
        <ele>347.2</ele>
        <time>2017-01-15T08:30:33.000Z</time>
      </trkpt>
      <trkpt lat="47.4913" lon="6.76478">
        <ele>347.4</ele>
        <time>2017-01-15T08:30:34.000Z</time>
      </trkpt>
      <trkpt lat="47.49131" lon="6.76485">
        <ele>347.5</ele>
        <time>2017-01-15T08:30:35.000Z</time>
      </trkpt>
      <trkpt lat="47.49134" lon="6.76489">
        <ele>347.6</ele>
        <time>2017-01-15T08:30:36.000Z</time>
      </trkpt>
      <trkpt lat="47.49136" lon="6.76493">
        <ele>347.7</ele>
        <time>2017-01-15T08:30:37.000Z</time>
      </trkpt>
      <trkpt lat="47.49137" lon="6.76495">
        <ele>347.9</ele>
        <time>2017-01-15T08:30:38.000Z</time>
      </trkpt>
      <trkpt lat="47.4914" lon="6.76498">
        <ele>348.1</ele>
        <time>2017-01-15T08:30:39.000Z</time>
      </trkpt>
      <trkpt lat="47.49142" lon="6.76501">
        <ele>348.2</ele>
        <time>2017-01-15T08:30:40.000Z</time>
      </trkpt>
      <trkpt lat="47.49143" lon="6.76502">
        <ele>348.4</ele>
        <time>2017-01-15T08:30:41.000Z</time>
      </trkpt>
      <trkpt lat="47.49147" lon="6.76504">
        <ele>348.8</ele>
        <time>2017-01-15T08:30:43.000Z</time>
      </trkpt>
      <trkpt lat="47.49149" lon="6.76505">
        <ele>349.1</ele>
        <time>2017-01-15T08:30:44.000Z</time>
      </trkpt>
      <trkpt lat="47.49152" lon="6.76505">
        <ele>349.4</ele>
        <time>2017-01-15T08:30:46.000Z</time>
      </trkpt>
      <trkpt lat="47.49154" lon="6.76506">
        <ele>349.5</ele>
        <time>2017-01-15T08:30:47.000Z</time>
      </trkpt>
      <trkpt lat="47.49158" lon="6.76507">
        <ele>349.8</ele>
        <time>2017-01-15T08:30:49.000Z</time>
      </trkpt>
      <trkpt lat="47.4916" lon="6.76508">
        <ele>349.9</ele>
        <time>2017-01-15T08:30:50.000Z</time>
      </trkpt>
      <trkpt lat="47.49162" lon="6.76508">
        <ele>350.1</ele>
        <time>2017-01-15T08:30:51.000Z</time>
      </trkpt>
      <trkpt lat="47.49165" lon="6.76508">
        <ele>350.3</ele>
        <time>2017-01-15T08:30:52.000Z</time>
      </trkpt>
      <trkpt lat="47.49169" lon="6.76509">
        <ele>350.8</ele>
        <time>2017-01-15T08:30:54.000Z</time>
      </trkpt>
      <trkpt lat="47.4917" lon="6.76508">
        <ele>351</ele>
        <time>2017-01-15T08:30:55.000Z</time>
      </trkpt>
      <trkpt lat="47.49174" lon="6.76506">
        <ele>351.2</ele>
        <time>2017-01-15T08:30:57.000Z</time>
      </trkpt>
      <trkpt lat="47.49175" lon="6.76504">
        <ele>351.3</ele>
        <time>2017-01-15T08:30:58.000Z</time>
      </trkpt>
      <trkpt lat="47.49178" lon="6.76503">
        <ele>351.4</ele>
        <time>2017-01-15T08:30:59.000Z</time>
      </trkpt>
      <trkpt lat="47.49179" lon="6.76501">
        <ele>351.3</ele>
        <time>2017-01-15T08:31:00.000Z</time>
      </trkpt>
      <trkpt lat="47.49178" lon="6.76495">
        <ele>352</ele>
        <time>2017-01-15T08:31:09.000Z</time>
      </trkpt>
      <trkpt lat="47.49177" lon="6.76494">
        <ele>352</ele>
        <time>2017-01-15T08:31:10.000Z</time>
      </trkpt>
      <trkpt lat="47.49181" lon="6.76497">
        <ele>353.5</ele>
        <time>2017-01-15T08:31:34.000Z</time>
      </trkpt>
      <trkpt lat="47.49181" lon="6.76498">
        <ele>353.5</ele>
        <time>2017-01-15T08:31:35.000Z</time>
      </trkpt>
      <trkpt lat="47.49181" lon="6.76502">
        <ele>353.7</ele>
        <time>2017-01-15T08:31:37.000Z</time>
      </trkpt>
      <trkpt lat="47.4918" lon="6.76505">
        <ele>353.7</ele>
        <time>2017-01-15T08:31:38.000Z</time>
      </trkpt>
      <trkpt lat="47.49178" lon="6.7651">
        <ele>353.9</ele>
        <time>2017-01-15T08:31:41.000Z</time>
      </trkpt>
      <trkpt lat="47.49177" lon="6.76513">
        <ele>354</ele>
        <time>2017-01-15T08:31:42.000Z</time>
      </trkpt>
      <trkpt lat="47.49174" lon="6.76515">
        <ele>354.2</ele>
        <time>2017-01-15T08:31:43.000Z</time>
      </trkpt>
      <trkpt lat="47.49172" lon="6.76517">
        <ele>354.3</ele>
        <time>2017-01-15T08:31:44.000Z</time>
      </trkpt>
      <trkpt lat="47.49169" lon="6.76519">
        <ele>354.5</ele>
        <time>2017-01-15T08:31:45.000Z</time>
      </trkpt>
      <trkpt lat="47.49166" lon="6.76521">
        <ele>354.6</ele>
        <time>2017-01-15T08:31:46.000Z</time>
      </trkpt>
      <trkpt lat="47.49163" lon="6.76522">
        <ele>354.8</ele>
        <time>2017-01-15T08:31:47.000Z</time>
      </trkpt>
      <trkpt lat="47.49159" lon="6.76524">
        <ele>354.9</ele>
        <time>2017-01-15T08:31:48.000Z</time>
      </trkpt>
      <trkpt lat="47.49156" lon="6.76525">
        <ele>355.1</ele>
        <time>2017-01-15T08:31:49.000Z</time>
      </trkpt>
      <trkpt lat="47.49153" lon="6.76526">
        <ele>355.2</ele>
        <time>2017-01-15T08:31:50.000Z</time>
      </trkpt>
      <trkpt lat="47.49149" lon="6.76527">
        <ele>355.4</ele>
        <time>2017-01-15T08:31:51.000Z</time>
      </trkpt>
      <trkpt lat="47.49146" lon="6.76529">
        <ele>355.6</ele>
        <time>2017-01-15T08:31:52.000Z</time>
      </trkpt>
      <trkpt lat="47.49142" lon="6.7653">
        <ele>355.7</ele>
        <time>2017-01-15T08:31:53.000Z</time>
      </trkpt>
      <trkpt lat="47.49139" lon="6.7653">
        <ele>355.8</ele>
        <time>2017-01-15T08:31:54.000Z</time>
      </trkpt>
      <trkpt lat="47.49136" lon="6.76528">
        <ele>355.9</ele>
        <time>2017-01-15T08:31:55.000Z</time>
      </trkpt>
      <trkpt lat="47.49134" lon="6.76526">
        <ele>355.9</ele>
        <time>2017-01-15T08:31:56.000Z</time>
      </trkpt>
      <trkpt lat="47.49131" lon="6.76525">
        <ele>356</ele>
        <time>2017-01-15T08:31:57.000Z</time>
      </trkpt>
      <trkpt lat="47.49128" lon="6.76522">
        <ele>356.1</ele>
        <time>2017-01-15T08:31:58.000Z</time>
      </trkpt>
      <trkpt lat="47.49126" lon="6.7652">
        <ele>356.2</ele>
        <time>2017-01-15T08:31:59.000Z</time>
      </trkpt>
      <trkpt lat="47.49124" lon="6.76518">
        <ele>356.3</ele>
        <time>2017-01-15T08:32:00.000Z</time>
      </trkpt>
      <trkpt lat="47.49122" lon="6.76516">
        <ele>356.6</ele>
        <time>2017-01-15T08:32:01.000Z</time>
      </trkpt>
      <trkpt lat="47.4912" lon="6.76513">
        <ele>356.7</ele>
        <time>2017-01-15T08:32:02.000Z</time>
      </trkpt>
      <trkpt lat="47.49118" lon="6.76508">
        <ele>356.8</ele>
        <time>2017-01-15T08:32:03.000Z</time>
      </trkpt>
      <trkpt lat="47.49118" lon="6.76504">
        <ele>356.9</ele>
        <time>2017-01-15T08:32:04.000Z</time>
      </trkpt>
      <trkpt lat="47.49118" lon="6.765">
        <ele>357</ele>
        <time>2017-01-15T08:32:05.000Z</time>
      </trkpt>
      <trkpt lat="47.49119" lon="6.76497">
        <ele>357.1</ele>
        <time>2017-01-15T08:32:06.000Z</time>
      </trkpt>
      <trkpt lat="47.49119" lon="6.76491">
        <ele>357</ele>
        <time>2017-01-15T08:32:08.000Z</time>
      </trkpt>
      <trkpt lat="47.4912" lon="6.76488">
        <ele>356.9</ele>
        <time>2017-01-15T08:32:09.000Z</time>
      </trkpt>
      <trkpt lat="47.49121" lon="6.76482">
        <ele>356.8</ele>
        <time>2017-01-15T08:32:11.000Z</time>
      </trkpt>
      <trkpt lat="47.49122" lon="6.76478">
        <ele>356.8</ele>
        <time>2017-01-15T08:32:12.000Z</time>
      </trkpt>
      <trkpt lat="47.49123" lon="6.76472">
        <ele>356.6</ele>
        <time>2017-01-15T08:32:14.000Z</time>
      </trkpt>
      <trkpt lat="47.49123" lon="6.7647">
        <ele>356.6</ele>
        <time>2017-01-15T08:32:15.000Z</time>
      </trkpt>
      <trkpt lat="47.49124" lon="6.76464">
        <ele>356.6</ele>
        <time>2017-01-15T08:32:17.000Z</time>
      </trkpt>
      <trkpt lat="47.49123" lon="6.76461">
        <ele>356.6</ele>
        <time>2017-01-15T08:32:18.000Z</time>
      </trkpt>
      <trkpt lat="47.49123" lon="6.76456">
        <ele>356.5</ele>
        <time>2017-01-15T08:32:19.000Z</time>
      </trkpt>
      <trkpt lat="47.49123" lon="6.7645">
        <ele>356.4</ele>
        <time>2017-01-15T08:32:20.000Z</time>
      </trkpt>
      <trkpt lat="47.49123" lon="6.76446">
        <ele>356.4</ele>
        <time>2017-01-15T08:32:21.000Z</time>
      </trkpt>
      <trkpt lat="47.49123" lon="6.76443">
        <ele>356.4</ele>
        <time>2017-01-15T08:32:22.000Z</time>
      </trkpt>
      <trkpt lat="47.49124" lon="6.76439">
        <ele>356.5</ele>
        <time>2017-01-15T08:32:23.000Z</time>
      </trkpt>
      <trkpt lat="47.49125" lon="6.76436">
        <ele>356.5</ele>
        <time>2017-01-15T08:32:24.000Z</time>
      </trkpt>
      <trkpt lat="47.49122" lon="6.76432">
        <ele>356.5</ele>
        <time>2017-01-15T08:32:27.000Z</time>
      </trkpt>
      <trkpt lat="47.49121" lon="6.76431">
        <ele>356.5</ele>
        <time>2017-01-15T08:32:28.000Z</time>
      </trkpt>
      <trkpt lat="47.49118" lon="6.7643">
        <ele>356.5</ele>
        <time>2017-01-15T08:32:29.000Z</time>
      </trkpt>
      <trkpt lat="47.49115" lon="6.76428">
        <ele>356.5</ele>
        <time>2017-01-15T08:32:30.000Z</time>
      </trkpt>
      <trkpt lat="47.49112" lon="6.76428">
        <ele>356.5</ele>
        <time>2017-01-15T08:32:31.000Z</time>
      </trkpt>
      <trkpt lat="47.49109" lon="6.76428">
        <ele>356.6</ele>
        <time>2017-01-15T08:32:32.000Z</time>
      </trkpt>
      <trkpt lat="47.49107" lon="6.76427">
        <ele>356.7</ele>
        <time>2017-01-15T08:32:33.000Z</time>
      </trkpt>
      <trkpt lat="47.49104" lon="6.76426">
        <ele>356.8</ele>
        <time>2017-01-15T08:32:34.000Z</time>
      </trkpt>
      <trkpt lat="47.49101" lon="6.76421">
        <ele>357.1</ele>
        <time>2017-01-15T08:32:36.000Z</time>
      </trkpt>
      <trkpt lat="47.49101" lon="6.76418">
        <ele>357.3</ele>
        <time>2017-01-15T08:32:37.000Z</time>
      </trkpt>
      <trkpt lat="47.49102" lon="6.76413">
        <ele>357.4</ele>
        <time>2017-01-15T08:32:39.000Z</time>
      </trkpt>
      <trkpt lat="47.49102" lon="6.76409">
        <ele>357.4</ele>
        <time>2017-01-15T08:32:40.000Z</time>
      </trkpt>
      <trkpt lat="47.49102" lon="6.76405">
        <ele>357.3</ele>
        <time>2017-01-15T08:32:41.000Z</time>
      </trkpt>
      <trkpt lat="47.49103" lon="6.76401">
        <ele>357.3</ele>
        <time>2017-01-15T08:32:42.000Z</time>
      </trkpt>
      <trkpt lat="47.49103" lon="6.76397">
        <ele>357.2</ele>
        <time>2017-01-15T08:32:43.000Z</time>
      </trkpt>
      <trkpt lat="47.49103" lon="6.76394">
        <ele>357.1</ele>
        <time>2017-01-15T08:32:44.000Z</time>
      </trkpt>
      <trkpt lat="47.49104" lon="6.7639">
        <ele>357</ele>
        <time>2017-01-15T08:32:45.000Z</time>
      </trkpt>
      <trkpt lat="47.49104" lon="6.76387">
        <ele>356.9</ele>
        <time>2017-01-15T08:32:46.000Z</time>
      </trkpt>
      <trkpt lat="47.49104" lon="6.76382">
        <ele>356.7</ele>
        <time>2017-01-15T08:32:47.000Z</time>
      </trkpt>
      <trkpt lat="47.49105" lon="6.76378">
        <ele>356.6</ele>
        <time>2017-01-15T08:32:48.000Z</time>
      </trkpt>
      <trkpt lat="47.49105" lon="6.76373">
        <ele>356.6</ele>
        <time>2017-01-15T08:32:49.000Z</time>
      </trkpt>
      <trkpt lat="47.49104" lon="6.76368">
        <ele>356.5</ele>
        <time>2017-01-15T08:32:50.000Z</time>
      </trkpt>
      <trkpt lat="47.49104" lon="6.76366">
        <ele>356.4</ele>
        <time>2017-01-15T08:32:51.000Z</time>
      </trkpt>
      <trkpt lat="47.49103" lon="6.76362">
        <ele>356.3</ele>
        <time>2017-01-15T08:32:52.000Z</time>
      </trkpt>
      <trkpt lat="47.49103" lon="6.76357">
        <ele>356.2</ele>
        <time>2017-01-15T08:32:53.000Z</time>
      </trkpt>
      <trkpt lat="47.49103" lon="6.76352">
        <ele>356.2</ele>
        <time>2017-01-15T08:32:54.000Z</time>
      </trkpt>
      <trkpt lat="47.49102" lon="6.76348">
        <ele>356.1</ele>
        <time>2017-01-15T08:32:55.000Z</time>
      </trkpt>
      <trkpt lat="47.49102" lon="6.76344">
        <ele>356.1</ele>
        <time>2017-01-15T08:32:56.000Z</time>
      </trkpt>
      <trkpt lat="47.49102" lon="6.7634">
        <ele>356</ele>
        <time>2017-01-15T08:32:57.000Z</time>
      </trkpt>
      <trkpt lat="47.49103" lon="6.76335">
        <ele>355.9</ele>
        <time>2017-01-15T08:32:58.000Z</time>
      </trkpt>
      <trkpt lat="47.49103" lon="6.76331">
        <ele>355.8</ele>
        <time>2017-01-15T08:32:59.000Z</time>
      </trkpt>
      <trkpt lat="47.49103" lon="6.76326">
        <ele>355.8</ele>
        <time>2017-01-15T08:33:00.000Z</time>
      </trkpt>
      <trkpt lat="47.49104" lon="6.76321">
        <ele>355.7</ele>
        <time>2017-01-15T08:33:01.000Z</time>
      </trkpt>
      <trkpt lat="47.49104" lon="6.76315">
        <ele>355.6</ele>
        <time>2017-01-15T08:33:02.000Z</time>
      </trkpt>
      <trkpt lat="47.49104" lon="6.7631">
        <ele>355.5</ele>
        <time>2017-01-15T08:33:03.000Z</time>
      </trkpt>
      <trkpt lat="47.49104" lon="6.76305">
        <ele>355.4</ele>
        <time>2017-01-15T08:33:04.000Z</time>
      </trkpt>
      <trkpt lat="47.49104" lon="6.763">
        <ele>355.4</ele>
        <time>2017-01-15T08:33:05.000Z</time>
      </trkpt>
      <trkpt lat="47.49103" lon="6.76296">
        <ele>355.3</ele>
        <time>2017-01-15T08:33:06.000Z</time>
      </trkpt>
      <trkpt lat="47.49103" lon="6.76291">
        <ele>355.2</ele>
        <time>2017-01-15T08:33:07.000Z</time>
      </trkpt>
      <trkpt lat="47.49103" lon="6.76289">
        <ele>355.2</ele>
        <time>2017-01-15T08:33:08.000Z</time>
      </trkpt>
      <trkpt lat="47.49103" lon="6.76284">
        <ele>355.1</ele>
        <time>2017-01-15T08:33:09.000Z</time>
      </trkpt>
      <trkpt lat="47.49102" lon="6.7628">
        <ele>355</ele>
        <time>2017-01-15T08:33:10.000Z</time>
      </trkpt>
      <trkpt lat="47.49102" lon="6.76276">
        <ele>354.8</ele>
        <time>2017-01-15T08:33:11.000Z</time>
      </trkpt>
      <trkpt lat="47.49102" lon="6.76273">
        <ele>354.7</ele>
        <time>2017-01-15T08:33:12.000Z</time>
      </trkpt>
      <trkpt lat="47.49102" lon="6.76269">
        <ele>354.6</ele>
        <time>2017-01-15T08:33:13.000Z</time>
      </trkpt>
      <trkpt lat="47.49102" lon="6.76265">
        <ele>354.6</ele>
        <time>2017-01-15T08:33:14.000Z</time>
      </trkpt>
      <trkpt lat="47.49101" lon="6.76261">
        <ele>354.4</ele>
        <time>2017-01-15T08:33:15.000Z</time>
      </trkpt>
      <trkpt lat="47.491" lon="6.76257">
        <ele>354.2</ele>
        <time>2017-01-15T08:33:16.000Z</time>
      </trkpt>
      <trkpt lat="47.491" lon="6.76251">
        <ele>354</ele>
        <time>2017-01-15T08:33:17.000Z</time>
      </trkpt>
      <trkpt lat="47.491" lon="6.76247">
        <ele>353.8</ele>
        <time>2017-01-15T08:33:18.000Z</time>
      </trkpt>
      <trkpt lat="47.491" lon="6.76241">
        <ele>353.7</ele>
        <time>2017-01-15T08:33:20.000Z</time>
      </trkpt>
      <trkpt lat="47.491" lon="6.76237">
        <ele>353.6</ele>
        <time>2017-01-15T08:33:21.000Z</time>
      </trkpt>
      <trkpt lat="47.491" lon="6.76234">
        <ele>353.6</ele>
        <time>2017-01-15T08:33:22.000Z</time>
      </trkpt>
      <trkpt lat="47.491" lon="6.76228">
        <ele>353.6</ele>
        <time>2017-01-15T08:33:23.000Z</time>
      </trkpt>
      <trkpt lat="47.49101" lon="6.76225">
        <ele>353.6</ele>
        <time>2017-01-15T08:33:24.000Z</time>
      </trkpt>
      <trkpt lat="47.491" lon="6.76221">
        <ele>353.6</ele>
        <time>2017-01-15T08:33:25.000Z</time>
      </trkpt>
      <trkpt lat="47.491" lon="6.76218">
        <ele>353.6</ele>
        <time>2017-01-15T08:33:26.000Z</time>
      </trkpt>
      <trkpt lat="47.491" lon="6.76214">
        <ele>353.6</ele>
        <time>2017-01-15T08:33:27.000Z</time>
      </trkpt>
      <trkpt lat="47.49099" lon="6.76211">
        <ele>353.6</ele>
        <time>2017-01-15T08:33:28.000Z</time>
      </trkpt>
      <trkpt lat="47.49099" lon="6.76206">
        <ele>353.6</ele>
        <time>2017-01-15T08:33:29.000Z</time>
      </trkpt>
      <trkpt lat="47.49098" lon="6.76202">
        <ele>353.6</ele>
        <time>2017-01-15T08:33:30.000Z</time>
      </trkpt>
      <trkpt lat="47.49098" lon="6.76197">
        <ele>353.6</ele>
        <time>2017-01-15T08:33:31.000Z</time>
      </trkpt>
      <trkpt lat="47.49099" lon="6.76193">
        <ele>353.6</ele>
        <time>2017-01-15T08:33:32.000Z</time>
      </trkpt>
      <trkpt lat="47.491" lon="6.76188">
        <ele>353.5</ele>
        <time>2017-01-15T08:33:33.000Z</time>
      </trkpt>
      <trkpt lat="47.491" lon="6.76181">
        <ele>353.2</ele>
        <time>2017-01-15T08:33:34.000Z</time>
      </trkpt>
      <trkpt lat="47.491" lon="6.76175">
        <ele>353</ele>
        <time>2017-01-15T08:33:35.000Z</time>
      </trkpt>
      <trkpt lat="47.491" lon="6.76169">
        <ele>352.9</ele>
        <time>2017-01-15T08:33:36.000Z</time>
      </trkpt>
      <trkpt lat="47.49099" lon="6.76164">
        <ele>352.8</ele>
        <time>2017-01-15T08:33:37.000Z</time>
      </trkpt>
      <trkpt lat="47.49099" lon="6.76159">
        <ele>352.7</ele>
        <time>2017-01-15T08:33:38.000Z</time>
      </trkpt>
      <trkpt lat="47.49099" lon="6.76154">
        <ele>352.5</ele>
        <time>2017-01-15T08:33:39.000Z</time>
      </trkpt>
      <trkpt lat="47.49099" lon="6.76149">
        <ele>352.4</ele>
        <time>2017-01-15T08:33:40.000Z</time>
      </trkpt>
      <trkpt lat="47.49098" lon="6.76144">
        <ele>352.2</ele>
        <time>2017-01-15T08:33:41.000Z</time>
      </trkpt>
      <trkpt lat="47.49097" lon="6.76139">
        <ele>352</ele>
        <time>2017-01-15T08:33:42.000Z</time>
      </trkpt>
      <trkpt lat="47.49097" lon="6.76134">
        <ele>351.8</ele>
        <time>2017-01-15T08:33:43.000Z</time>
      </trkpt>
      <trkpt lat="47.49097" lon="6.76129">
        <ele>351.5</ele>
        <time>2017-01-15T08:33:44.000Z</time>
      </trkpt>
      <trkpt lat="47.49097" lon="6.76126">
        <ele>351.3</ele>
        <time>2017-01-15T08:33:45.000Z</time>
      </trkpt>
      <trkpt lat="47.49097" lon="6.76122">
        <ele>351.1</ele>
        <time>2017-01-15T08:33:46.000Z</time>
      </trkpt>
      <trkpt lat="47.49097" lon="6.76116">
        <ele>350.6</ele>
        <time>2017-01-15T08:33:48.000Z</time>
      </trkpt>
      <trkpt lat="47.49097" lon="6.76114">
        <ele>350.4</ele>
        <time>2017-01-15T08:33:49.000Z</time>
      </trkpt>
      <trkpt lat="47.49097" lon="6.76112">
        <ele>350</ele>
        <time>2017-01-15T08:33:51.000Z</time>
      </trkpt>
      <trkpt lat="47.49097" lon="6.76106">
        <ele>349.6</ele>
        <time>2017-01-15T08:33:52.000Z</time>
      </trkpt>
      <trkpt lat="47.49097" lon="6.761">
        <ele>349.4</ele>
        <time>2017-01-15T08:33:53.000Z</time>
      </trkpt>
      <trkpt lat="47.49098" lon="6.76093">
        <ele>349.2</ele>
        <time>2017-01-15T08:33:54.000Z</time>
      </trkpt>
      <trkpt lat="47.49098" lon="6.76086">
        <ele>349.1</ele>
        <time>2017-01-15T08:33:55.000Z</time>
      </trkpt>
      <trkpt lat="47.49098" lon="6.76076">
        <ele>348.9</ele>
        <time>2017-01-15T08:33:56.000Z</time>
      </trkpt>
      <trkpt lat="47.49099" lon="6.7607">
        <ele>348.7</ele>
        <time>2017-01-15T08:33:57.000Z</time>
      </trkpt>
      <trkpt lat="47.49098" lon="6.76064">
        <ele>348.6</ele>
        <time>2017-01-15T08:33:58.000Z</time>
      </trkpt>
      <trkpt lat="47.49098" lon="6.76054">
        <ele>348.4</ele>
        <time>2017-01-15T08:33:59.000Z</time>
      </trkpt>
      <trkpt lat="47.49099" lon="6.76048">
        <ele>348.3</ele>
        <time>2017-01-15T08:34:01.000Z</time>
      </trkpt>
      <trkpt lat="47.491" lon="6.76044">
        <ele>348.4</ele>
        <time>2017-01-15T08:34:02.000Z</time>
      </trkpt>
      <trkpt lat="47.49101" lon="6.76039">
        <ele>348.5</ele>
        <time>2017-01-15T08:34:03.000Z</time>
      </trkpt>
      <trkpt lat="47.49101" lon="6.76034">
        <ele>348.6</ele>
        <time>2017-01-15T08:34:04.000Z</time>
      </trkpt>
      <trkpt lat="47.49103" lon="6.76026">
        <ele>348.7</ele>
        <time>2017-01-15T08:34:05.000Z</time>
      </trkpt>
      <trkpt lat="47.49105" lon="6.76021">
        <ele>349.3</ele>
        <time>2017-01-15T08:34:07.000Z</time>
      </trkpt>
      <trkpt lat="47.49106" lon="6.76019">
        <ele>349.6</ele>
        <time>2017-01-15T08:34:08.000Z</time>
      </trkpt>
      <trkpt lat="47.49107" lon="6.76015">
        <ele>349.9</ele>
        <time>2017-01-15T08:34:09.000Z</time>
      </trkpt>
      <trkpt lat="47.49108" lon="6.76013">
        <ele>350.1</ele>
        <time>2017-01-15T08:34:10.000Z</time>
      </trkpt>
      <trkpt lat="47.49108" lon="6.76009">
        <ele>350.4</ele>
        <time>2017-01-15T08:34:11.000Z</time>
      </trkpt>
      <trkpt lat="47.4911" lon="6.76006">
        <ele>350.6</ele>
        <time>2017-01-15T08:34:12.000Z</time>
      </trkpt>
      <trkpt lat="47.4911" lon="6.76002">
        <ele>350.9</ele>
        <time>2017-01-15T08:34:13.000Z</time>
      </trkpt>
      <trkpt lat="47.49111" lon="6.75999">
        <ele>351</ele>
        <time>2017-01-15T08:34:14.000Z</time>
      </trkpt>
      <trkpt lat="47.49112" lon="6.75995">
        <ele>351.1</ele>
        <time>2017-01-15T08:34:15.000Z</time>
      </trkpt>
      <trkpt lat="47.49113" lon="6.75992">
        <ele>351.3</ele>
        <time>2017-01-15T08:34:16.000Z</time>
      </trkpt>
      <trkpt lat="47.49114" lon="6.75988">
        <ele>351.4</ele>
        <time>2017-01-15T08:34:17.000Z</time>
      </trkpt>
      <trkpt lat="47.49114" lon="6.75983">
        <ele>351.5</ele>
        <time>2017-01-15T08:34:18.000Z</time>
      </trkpt>
      <trkpt lat="47.49115" lon="6.75979">
        <ele>351.5</ele>
        <time>2017-01-15T08:34:19.000Z</time>
      </trkpt>
      <trkpt lat="47.49116" lon="6.75976">
        <ele>351.5</ele>
        <time>2017-01-15T08:34:20.000Z</time>
      </trkpt>
      <trkpt lat="47.49117" lon="6.75969">
        <ele>351.4</ele>
        <time>2017-01-15T08:34:22.000Z</time>
      </trkpt>
      <trkpt lat="47.49117" lon="6.75966">
        <ele>351.4</ele>
        <time>2017-01-15T08:34:23.000Z</time>
      </trkpt>
      <trkpt lat="47.49117" lon="6.7596">
        <ele>351.1</ele>
        <time>2017-01-15T08:34:25.000Z</time>
      </trkpt>
      <trkpt lat="47.49118" lon="6.75956">
        <ele>350.9</ele>
        <time>2017-01-15T08:34:26.000Z</time>
      </trkpt>
      <trkpt lat="47.4912" lon="6.75952">
        <ele>350.7</ele>
        <time>2017-01-15T08:34:28.000Z</time>
      </trkpt>
      <trkpt lat="47.4912" lon="6.75949">
        <ele>350.5</ele>
        <time>2017-01-15T08:34:29.000Z</time>
      </trkpt>
      <trkpt lat="47.49121" lon="6.75943">
        <ele>350.2</ele>
        <time>2017-01-15T08:34:31.000Z</time>
      </trkpt>
      <trkpt lat="47.49122" lon="6.7594">
        <ele>349.9</ele>
        <time>2017-01-15T08:34:32.000Z</time>
      </trkpt>
      <trkpt lat="47.49124" lon="6.75934">
        <ele>349.5</ele>
        <time>2017-01-15T08:34:34.000Z</time>
      </trkpt>
      <trkpt lat="47.49124" lon="6.75931">
        <ele>349.3</ele>
        <time>2017-01-15T08:34:35.000Z</time>
      </trkpt>
      <trkpt lat="47.49126" lon="6.75925">
        <ele>348.9</ele>
        <time>2017-01-15T08:34:37.000Z</time>
      </trkpt>
      <trkpt lat="47.49127" lon="6.75922">
        <ele>348.8</ele>
        <time>2017-01-15T08:34:38.000Z</time>
      </trkpt>
      <trkpt lat="47.49128" lon="6.75919">
        <ele>348.7</ele>
        <time>2017-01-15T08:34:39.000Z</time>
      </trkpt>
      <trkpt lat="47.49128" lon="6.75915">
        <ele>348.6</ele>
        <time>2017-01-15T08:34:40.000Z</time>
      </trkpt>
      <trkpt lat="47.49129" lon="6.75911">
        <ele>348.5</ele>
        <time>2017-01-15T08:34:41.000Z</time>
      </trkpt>
      <trkpt lat="47.4913" lon="6.75907">
        <ele>348.2</ele>
        <time>2017-01-15T08:34:42.000Z</time>
      </trkpt>
      <trkpt lat="47.49131" lon="6.75903">
        <ele>348</ele>
        <time>2017-01-15T08:34:43.000Z</time>
      </trkpt>
      <trkpt lat="47.49132" lon="6.759">
        <ele>347.8</ele>
        <time>2017-01-15T08:34:44.000Z</time>
      </trkpt>
      <trkpt lat="47.49133" lon="6.75896">
        <ele>347.6</ele>
        <time>2017-01-15T08:34:45.000Z</time>
      </trkpt>
      <trkpt lat="47.49134" lon="6.75892">
        <ele>347.4</ele>
        <time>2017-01-15T08:34:46.000Z</time>
      </trkpt>
      <trkpt lat="47.49135" lon="6.75888">
        <ele>347.2</ele>
        <time>2017-01-15T08:34:47.000Z</time>
      </trkpt>
      <trkpt lat="47.49136" lon="6.75884">
        <ele>347</ele>
        <time>2017-01-15T08:34:48.000Z</time>
      </trkpt>
      <trkpt lat="47.49136" lon="6.75881">
        <ele>346.8</ele>
        <time>2017-01-15T08:34:49.000Z</time>
      </trkpt>
      <trkpt lat="47.49138" lon="6.75878">
        <ele>346.6</ele>
        <time>2017-01-15T08:34:50.000Z</time>
      </trkpt>
      <trkpt lat="47.49139" lon="6.75872">
        <ele>346.2</ele>
        <time>2017-01-15T08:34:52.000Z</time>
      </trkpt>
      <trkpt lat="47.4914" lon="6.75869">
        <ele>346</ele>
        <time>2017-01-15T08:34:53.000Z</time>
      </trkpt>
      <trkpt lat="47.4914" lon="6.75865">
        <ele>345.8</ele>
        <time>2017-01-15T08:34:54.000Z</time>
      </trkpt>
      <trkpt lat="47.49142" lon="6.7586">
        <ele>345.6</ele>
        <time>2017-01-15T08:34:55.000Z</time>
      </trkpt>
      <trkpt lat="47.49144" lon="6.75857">
        <ele>345.4</ele>
        <time>2017-01-15T08:34:56.000Z</time>
      </trkpt>
      <trkpt lat="47.49145" lon="6.75853">
        <ele>345.1</ele>
        <time>2017-01-15T08:34:57.000Z</time>
      </trkpt>
      <trkpt lat="47.49146" lon="6.75849">
        <ele>344.9</ele>
        <time>2017-01-15T08:34:58.000Z</time>
      </trkpt>
      <trkpt lat="47.49148" lon="6.75845">
        <ele>344.6</ele>
        <time>2017-01-15T08:34:59.000Z</time>
      </trkpt>
      <trkpt lat="47.49149" lon="6.75841">
        <ele>344.4</ele>
        <time>2017-01-15T08:34:59.999Z</time>
      </trkpt>
      <trkpt lat="47.4915" lon="6.75837">
        <ele>344.1</ele>
        <time>2017-01-15T08:35:00.999Z</time>
      </trkpt>
      <trkpt lat="47.49151" lon="6.75833">
        <ele>343.7</ele>
        <time>2017-01-15T08:35:01.999Z</time>
      </trkpt>
      <trkpt lat="47.49152" lon="6.75829">
        <ele>343.4</ele>
        <time>2017-01-15T08:35:02.999Z</time>
      </trkpt>
      <trkpt lat="47.49153" lon="6.75826">
        <ele>343</ele>
        <time>2017-01-15T08:35:03.999Z</time>
      </trkpt>
      <trkpt lat="47.49154" lon="6.75822">
        <ele>342.5</ele>
        <time>2017-01-15T08:35:04.999Z</time>
      </trkpt>
      <trkpt lat="47.49155" lon="6.75818">
        <ele>342.1</ele>
        <time>2017-01-15T08:35:05.999Z</time>
      </trkpt>
      <trkpt lat="47.49156" lon="6.75814">
        <ele>341.6</ele>
        <time>2017-01-15T08:35:06.999Z</time>
      </trkpt>
      <trkpt lat="47.49158" lon="6.75809">
        <ele>341.1</ele>
        <time>2017-01-15T08:35:07.999Z</time>
      </trkpt>
      <trkpt lat="47.49159" lon="6.75805">
        <ele>340.5</ele>
        <time>2017-01-15T08:35:08.999Z</time>
      </trkpt>
      <trkpt lat="47.4916" lon="6.758">
        <ele>339.8</ele>
        <time>2017-01-15T08:35:09.999Z</time>
      </trkpt>
      <trkpt lat="47.49162" lon="6.75796">
        <ele>339.1</ele>
        <time>2017-01-15T08:35:10.999Z</time>
      </trkpt>
      <trkpt lat="47.49164" lon="6.75792">
        <ele>338.4</ele>
        <time>2017-01-15T08:35:11.999Z</time>
      </trkpt>
      <trkpt lat="47.49167" lon="6.75782">
        <ele>337.6</ele>
        <time>2017-01-15T08:35:12.999Z</time>
      </trkpt>
      <trkpt lat="47.4917" lon="6.75771">
        <ele>336.8</ele>
        <time>2017-01-15T08:35:13.999Z</time>
      </trkpt>
      <trkpt lat="47.49173" lon="6.75761">
        <ele>336.1</ele>
        <time>2017-01-15T08:35:14.999Z</time>
      </trkpt>
      <trkpt lat="47.49176" lon="6.75745">
        <ele>335.8</ele>
        <time>2017-01-15T08:35:15.999Z</time>
      </trkpt>
      <trkpt lat="47.49179" lon="6.75731">
        <ele>335.6</ele>
        <time>2017-01-15T08:35:16.999Z</time>
      </trkpt>
      <trkpt lat="47.49182" lon="6.75722">
        <ele>335.5</ele>
        <time>2017-01-15T08:35:17.999Z</time>
      </trkpt>
      <trkpt lat="47.49185" lon="6.75714">
        <ele>335.4</ele>
        <time>2017-01-15T08:35:18.999Z</time>
      </trkpt>
      <trkpt lat="47.49191" lon="6.75694">
        <ele>335.4</ele>
        <time>2017-01-15T08:35:19.999Z</time>
      </trkpt>
      <trkpt lat="47.49194" lon="6.75686">
        <ele>335.5</ele>
        <time>2017-01-15T08:35:20.999Z</time>
      </trkpt>
      <trkpt lat="47.49198" lon="6.7568">
        <ele>335.7</ele>
        <time>2017-01-15T08:35:21.999Z</time>
      </trkpt>
      <trkpt lat="47.49201" lon="6.75673">
        <ele>336.2</ele>
        <time>2017-01-15T08:35:22.999Z</time>
      </trkpt>
      <trkpt lat="47.49203" lon="6.75669">
        <ele>336.6</ele>
        <time>2017-01-15T08:35:23.999Z</time>
      </trkpt>
      <trkpt lat="47.49206" lon="6.75665">
        <ele>337.2</ele>
        <time>2017-01-15T08:35:24.999Z</time>
      </trkpt>
      <trkpt lat="47.49208" lon="6.7566">
        <ele>337.7</ele>
        <time>2017-01-15T08:35:25.999Z</time>
      </trkpt>
      <trkpt lat="47.49211" lon="6.75657">
        <ele>338.2</ele>
        <time>2017-01-15T08:35:26.999Z</time>
      </trkpt>
      <trkpt lat="47.49213" lon="6.75653">
        <ele>338.7</ele>
        <time>2017-01-15T08:35:27.999Z</time>
      </trkpt>
      <trkpt lat="47.49217" lon="6.75649">
        <ele>339.3</ele>
        <time>2017-01-15T08:35:28.999Z</time>
      </trkpt>
      <trkpt lat="47.49218" lon="6.75645">
        <ele>339.9</ele>
        <time>2017-01-15T08:35:29.999Z</time>
      </trkpt>
      <trkpt lat="47.4922" lon="6.7564">
        <ele>340.4</ele>
        <time>2017-01-15T08:35:30.999Z</time>
      </trkpt>
      <trkpt lat="47.49222" lon="6.75636">
        <ele>340.8</ele>
        <time>2017-01-15T08:35:31.999Z</time>
      </trkpt>
      <trkpt lat="47.49223" lon="6.75632">
        <ele>341.3</ele>
        <time>2017-01-15T08:35:32.999Z</time>
      </trkpt>
      <trkpt lat="47.49225" lon="6.75627">
        <ele>341.8</ele>
        <time>2017-01-15T08:35:33.999Z</time>
      </trkpt>
      <trkpt lat="47.49228" lon="6.75617">
        <ele>342.3</ele>
        <time>2017-01-15T08:35:34.999Z</time>
      </trkpt>
      <trkpt lat="47.4923" lon="6.7561">
        <ele>342.8</ele>
        <time>2017-01-15T08:35:35.999Z</time>
      </trkpt>
      <trkpt lat="47.49231" lon="6.75606">
        <ele>343.2</ele>
        <time>2017-01-15T08:35:36.999Z</time>
      </trkpt>
      <trkpt lat="47.49232" lon="6.75602">
        <ele>343.6</ele>
        <time>2017-01-15T08:35:37.999Z</time>
      </trkpt>
      <trkpt lat="47.49232" lon="6.75599">
        <ele>344</ele>
        <time>2017-01-15T08:35:38.999Z</time>
      </trkpt>
      <trkpt lat="47.49232" lon="6.75595">
        <ele>344.3</ele>
        <time>2017-01-15T08:35:39.999Z</time>
      </trkpt>
      <trkpt lat="47.49233" lon="6.75591">
        <ele>344.7</ele>
        <time>2017-01-15T08:35:40.999Z</time>
      </trkpt>
      <trkpt lat="47.49234" lon="6.75586">
        <ele>345</ele>
        <time>2017-01-15T08:35:41.999Z</time>
      </trkpt>
      <trkpt lat="47.49236" lon="6.75581">
        <ele>345.3</ele>
        <time>2017-01-15T08:35:42.999Z</time>
      </trkpt>
      <trkpt lat="47.49237" lon="6.75576">
        <ele>345.5</ele>
        <time>2017-01-15T08:35:43.999Z</time>
      </trkpt>
      <trkpt lat="47.49239" lon="6.75571">
        <ele>345.7</ele>
        <time>2017-01-15T08:35:44.999Z</time>
      </trkpt>
      <trkpt lat="47.4924" lon="6.75566">
        <ele>345.9</ele>
        <time>2017-01-15T08:35:45.999Z</time>
      </trkpt>
      <trkpt lat="47.49242" lon="6.75561">
        <ele>346</ele>
        <time>2017-01-15T08:35:46.999Z</time>
      </trkpt>
      <trkpt lat="47.49244" lon="6.75556">
        <ele>346.3</ele>
        <time>2017-01-15T08:35:47.999Z</time>
      </trkpt>
      <trkpt lat="47.49246" lon="6.75552">
        <ele>346.6</ele>
        <time>2017-01-15T08:35:48.999Z</time>
      </trkpt>
      <trkpt lat="47.49247" lon="6.75547">
        <ele>346.8</ele>
        <time>2017-01-15T08:35:49.999Z</time>
      </trkpt>
      <trkpt lat="47.49249" lon="6.7554">
        <ele>347.1</ele>
        <time>2017-01-15T08:35:50.999Z</time>
      </trkpt>
      <trkpt lat="47.4925" lon="6.75526">
        <ele>347.3</ele>
        <time>2017-01-15T08:35:51.999Z</time>
      </trkpt>
      <trkpt lat="47.49251" lon="6.7552">
        <ele>347.6</ele>
        <time>2017-01-15T08:35:52.999Z</time>
      </trkpt>
      <trkpt lat="47.49251" lon="6.75516">
        <ele>347.8</ele>
        <time>2017-01-15T08:35:53.999Z</time>
      </trkpt>
      <trkpt lat="47.49253" lon="6.75511">
        <ele>348</ele>
        <time>2017-01-15T08:35:54.999Z</time>
      </trkpt>
      <trkpt lat="47.49254" lon="6.75507">
        <ele>348.3</ele>
        <time>2017-01-15T08:35:55.999Z</time>
      </trkpt>
      <trkpt lat="47.49256" lon="6.75502">
        <ele>348.5</ele>
        <time>2017-01-15T08:35:56.999Z</time>
      </trkpt>
      <trkpt lat="47.49259" lon="6.75494">
        <ele>348.8</ele>
        <time>2017-01-15T08:35:57.999Z</time>
      </trkpt>
      <trkpt lat="47.4926" lon="6.7549">
        <ele>349.1</ele>
        <time>2017-01-15T08:35:58.999Z</time>
      </trkpt>
      <trkpt lat="47.49261" lon="6.75485">
        <ele>349.3</ele>
        <time>2017-01-15T08:35:59.999Z</time>
      </trkpt>
      <trkpt lat="47.49262" lon="6.75481">
        <ele>349.5</ele>
        <time>2017-01-15T08:36:00.999Z</time>
      </trkpt>
      <trkpt lat="47.49263" lon="6.75476">
        <ele>349.7</ele>
        <time>2017-01-15T08:36:01.999Z</time>
      </trkpt>
      <trkpt lat="47.49263" lon="6.75472">
        <ele>349.9</ele>
        <time>2017-01-15T08:36:02.999Z</time>
      </trkpt>
      <trkpt lat="47.49263" lon="6.75468">
        <ele>350.1</ele>
        <time>2017-01-15T08:36:03.999Z</time>
      </trkpt>
      <trkpt lat="47.49262" lon="6.75465">
        <ele>350.4</ele>
        <time>2017-01-15T08:36:04.999Z</time>
      </trkpt>
      <trkpt lat="47.49262" lon="6.75461">
        <ele>350.7</ele>
        <time>2017-01-15T08:36:05.999Z</time>
      </trkpt>
      <trkpt lat="47.49263" lon="6.75455">
        <ele>350.9</ele>
        <time>2017-01-15T08:36:06.999Z</time>
      </trkpt>
      <trkpt lat="47.49263" lon="6.75449">
        <ele>351.2</ele>
        <time>2017-01-15T08:36:07.999Z</time>
      </trkpt>
      <trkpt lat="47.49262" lon="6.75444">
        <ele>351.3</ele>
        <time>2017-01-15T08:36:08.999Z</time>
      </trkpt>
      <trkpt lat="47.49262" lon="6.75438">
        <ele>351.4</ele>
        <time>2017-01-15T08:36:09.999Z</time>
      </trkpt>
      <trkpt lat="47.49263" lon="6.75433">
        <ele>351.5</ele>
        <time>2017-01-15T08:36:10.999Z</time>
      </trkpt>
      <trkpt lat="47.49263" lon="6.75428">
        <ele>351.5</ele>
        <time>2017-01-15T08:36:11.999Z</time>
      </trkpt>
      <trkpt lat="47.49264" lon="6.75423">
        <ele>351.5</ele>
        <time>2017-01-15T08:36:12.999Z</time>
      </trkpt>
      <trkpt lat="47.49265" lon="6.75418">
        <ele>351.6</ele>
        <time>2017-01-15T08:36:13.999Z</time>
      </trkpt>
      <trkpt lat="47.49265" lon="6.75414">
        <ele>351.7</ele>
        <time>2017-01-15T08:36:14.999Z</time>
      </trkpt>
      <trkpt lat="47.49265" lon="6.7541">
        <ele>351.7</ele>
        <time>2017-01-15T08:36:15.999Z</time>
      </trkpt>
      <trkpt lat="47.49265" lon="6.75406">
        <ele>351.8</ele>
        <time>2017-01-15T08:36:16.999Z</time>
      </trkpt>
      <trkpt lat="47.49265" lon="6.75401">
        <ele>351.8</ele>
        <time>2017-01-15T08:36:17.999Z</time>
      </trkpt>
      <trkpt lat="47.49266" lon="6.75397">
        <ele>351.8</ele>
        <time>2017-01-15T08:36:18.999Z</time>
      </trkpt>
      <trkpt lat="47.49267" lon="6.75394">
        <ele>351.7</ele>
        <time>2017-01-15T08:36:19.999Z</time>
      </trkpt>
      <trkpt lat="47.49268" lon="6.75388">
        <ele>351.5</ele>
        <time>2017-01-15T08:36:21.999Z</time>
      </trkpt>
      <trkpt lat="47.4927" lon="6.75384">
        <ele>351.4</ele>
        <time>2017-01-15T08:36:22.999Z</time>
      </trkpt>
      <trkpt lat="47.49271" lon="6.75379">
        <ele>351.3</ele>
        <time>2017-01-15T08:36:23.999Z</time>
      </trkpt>
      <trkpt lat="47.49272" lon="6.75375">
        <ele>351.1</ele>
        <time>2017-01-15T08:36:24.999Z</time>
      </trkpt>
      <trkpt lat="47.49273" lon="6.75371">
        <ele>350.9</ele>
        <time>2017-01-15T08:36:25.999Z</time>
      </trkpt>
      <trkpt lat="47.49274" lon="6.75368">
        <ele>350.6</ele>
        <time>2017-01-15T08:36:26.999Z</time>
      </trkpt>
      <trkpt lat="47.49275" lon="6.75362">
        <ele>350.2</ele>
        <time>2017-01-15T08:36:28.999Z</time>
      </trkpt>
      <trkpt lat="47.49275" lon="6.75358">
        <ele>350</ele>
        <time>2017-01-15T08:36:29.999Z</time>
      </trkpt>
      <trkpt lat="47.49275" lon="6.75353">
        <ele>349.8</ele>
        <time>2017-01-15T08:36:30.999Z</time>
      </trkpt>
      <trkpt lat="47.49276" lon="6.7535">
        <ele>349.5</ele>
        <time>2017-01-15T08:36:31.999Z</time>
      </trkpt>
      <trkpt lat="47.49277" lon="6.75346">
        <ele>349.2</ele>
        <time>2017-01-15T08:36:32.999Z</time>
      </trkpt>
      <trkpt lat="47.49278" lon="6.7534">
        <ele>349.2</ele>
        <time>2017-01-15T08:36:33.999Z</time>
      </trkpt>
      <trkpt lat="47.49278" lon="6.75334">
        <ele>349</ele>
        <time>2017-01-15T08:36:34.999Z</time>
      </trkpt>
      <trkpt lat="47.49279" lon="6.75332">
        <ele>349</ele>
        <time>2017-01-15T08:36:35.999Z</time>
      </trkpt>
      <trkpt lat="47.4928" lon="6.75328">
        <ele>349.1</ele>
        <time>2017-01-15T08:36:36.999Z</time>
      </trkpt>
      <trkpt lat="47.49281" lon="6.75323">
        <ele>349.2</ele>
        <time>2017-01-15T08:36:37.999Z</time>
      </trkpt>
      <trkpt lat="47.49281" lon="6.7532">
        <ele>349.4</ele>
        <time>2017-01-15T08:36:38.999Z</time>
      </trkpt>
      <trkpt lat="47.49282" lon="6.75316">
        <ele>349.7</ele>
        <time>2017-01-15T08:36:39.999Z</time>
      </trkpt>
      <trkpt lat="47.49284" lon="6.75311">
        <ele>350</ele>
        <time>2017-01-15T08:36:40.999Z</time>
      </trkpt>
      <trkpt lat="47.49285" lon="6.75305">
        <ele>350.4</ele>
        <time>2017-01-15T08:36:41.999Z</time>
      </trkpt>
      <trkpt lat="47.49286" lon="6.753">
        <ele>350.9</ele>
        <time>2017-01-15T08:36:42.999Z</time>
      </trkpt>
      <trkpt lat="47.49288" lon="6.75295">
        <ele>351.3</ele>
        <time>2017-01-15T08:36:43.999Z</time>
      </trkpt>
      <trkpt lat="47.49289" lon="6.75291">
        <ele>351.7</ele>
        <time>2017-01-15T08:36:44.999Z</time>
      </trkpt>
      <trkpt lat="47.4929" lon="6.75287">
        <ele>352.2</ele>
        <time>2017-01-15T08:36:45.999Z</time>
      </trkpt>
      <trkpt lat="47.49291" lon="6.75283">
        <ele>352.7</ele>
        <time>2017-01-15T08:36:46.999Z</time>
      </trkpt>
      <trkpt lat="47.49292" lon="6.75279">
        <ele>353.2</ele>
        <time>2017-01-15T08:36:47.999Z</time>
      </trkpt>
      <trkpt lat="47.49292" lon="6.75274">
        <ele>353.6</ele>
        <time>2017-01-15T08:36:48.999Z</time>
      </trkpt>
      <trkpt lat="47.49292" lon="6.75269">
        <ele>354</ele>
        <time>2017-01-15T08:36:49.999Z</time>
      </trkpt>
      <trkpt lat="47.49294" lon="6.75264">
        <ele>355</ele>
        <time>2017-01-15T08:36:51.999Z</time>
      </trkpt>
      <trkpt lat="47.49294" lon="6.75261">
        <ele>355.5</ele>
        <time>2017-01-15T08:36:52.999Z</time>
      </trkpt>
      <trkpt lat="47.49295" lon="6.75257">
        <ele>356</ele>
        <time>2017-01-15T08:36:53.999Z</time>
      </trkpt>
      <trkpt lat="47.49295" lon="6.75253">
        <ele>356.4</ele>
        <time>2017-01-15T08:36:54.999Z</time>
      </trkpt>
      <trkpt lat="47.49295" lon="6.75249">
        <ele>356.9</ele>
        <time>2017-01-15T08:36:55.999Z</time>
      </trkpt>
      <trkpt lat="47.49295" lon="6.75246">
        <ele>357.3</ele>
        <time>2017-01-15T08:36:56.999Z</time>
      </trkpt>
      <trkpt lat="47.49295" lon="6.75242">
        <ele>357.8</ele>
        <time>2017-01-15T08:36:57.999Z</time>
      </trkpt>
      <trkpt lat="47.49295" lon="6.75239">
        <ele>358.2</ele>
        <time>2017-01-15T08:36:58.999Z</time>
      </trkpt>
      <trkpt lat="47.49295" lon="6.75233">
        <ele>359.1</ele>
        <time>2017-01-15T08:37:00.999Z</time>
      </trkpt>
      <trkpt lat="47.49295" lon="6.7523">
        <ele>359.5</ele>
        <time>2017-01-15T08:37:01.999Z</time>
      </trkpt>
      <trkpt lat="47.49295" lon="6.75226">
        <ele>359.8</ele>
        <time>2017-01-15T08:37:02.999Z</time>
      </trkpt>
      <trkpt lat="47.49295" lon="6.75223">
        <ele>360</ele>
        <time>2017-01-15T08:37:03.999Z</time>
      </trkpt>
      <trkpt lat="47.49295" lon="6.75219">
        <ele>360.2</ele>
        <time>2017-01-15T08:37:04.999Z</time>
      </trkpt>
      <trkpt lat="47.49295" lon="6.75215">
        <ele>360.4</ele>
        <time>2017-01-15T08:37:05.999Z</time>
      </trkpt>
      <trkpt lat="47.49295" lon="6.75209">
        <ele>360.8</ele>
        <time>2017-01-15T08:37:07.999Z</time>
      </trkpt>
      <trkpt lat="47.49295" lon="6.75207">
        <ele>360.9</ele>
        <time>2017-01-15T08:37:08.999Z</time>
      </trkpt>
      <trkpt lat="47.49296" lon="6.75198">
        <ele>361</ele>
        <time>2017-01-15T08:37:09.999Z</time>
      </trkpt>
      <trkpt lat="47.49296" lon="6.75193">
        <ele>361.5</ele>
        <time>2017-01-15T08:37:11.999Z</time>
      </trkpt>
      <trkpt lat="47.49296" lon="6.75191">
        <ele>361.6</ele>
        <time>2017-01-15T08:37:12.999Z</time>
      </trkpt>
      <trkpt lat="47.49296" lon="6.75184">
        <ele>361.7</ele>
        <time>2017-01-15T08:37:13.999Z</time>
      </trkpt>
      <trkpt lat="47.49295" lon="6.75181">
        <ele>361.8</ele>
        <time>2017-01-15T08:37:14.999Z</time>
      </trkpt>
      <trkpt lat="47.49296" lon="6.75175">
        <ele>361.9</ele>
        <time>2017-01-15T08:37:16.999Z</time>
      </trkpt>
      <trkpt lat="47.49297" lon="6.75173">
        <ele>362</ele>
        <time>2017-01-15T08:37:17.999Z</time>
      </trkpt>
      <trkpt lat="47.49296" lon="6.75169">
        <ele>362.4</ele>
        <time>2017-01-15T08:37:19.999Z</time>
      </trkpt>
      <trkpt lat="47.49295" lon="6.75166">
        <ele>362.7</ele>
        <time>2017-01-15T08:37:20.999Z</time>
      </trkpt>
      <trkpt lat="47.49295" lon="6.75161">
        <ele>363.1</ele>
        <time>2017-01-15T08:37:22.999Z</time>
      </trkpt>
      <trkpt lat="47.49293" lon="6.75158">
        <ele>363.3</ele>
        <time>2017-01-15T08:37:23.999Z</time>
      </trkpt>
      <trkpt lat="47.49292" lon="6.75155">
        <ele>363.4</ele>
        <time>2017-01-15T08:37:24.999Z</time>
      </trkpt>
      <trkpt lat="47.49291" lon="6.75151">
        <ele>363.5</ele>
        <time>2017-01-15T08:37:25.999Z</time>
      </trkpt>
      <trkpt lat="47.4929" lon="6.75147">
        <ele>363.6</ele>
        <time>2017-01-15T08:37:26.999Z</time>
      </trkpt>
      <trkpt lat="47.49289" lon="6.75142">
        <ele>363.7</ele>
        <time>2017-01-15T08:37:27.999Z</time>
      </trkpt>
      <trkpt lat="47.49289" lon="6.75138">
        <ele>363.7</ele>
        <time>2017-01-15T08:37:28.999Z</time>
      </trkpt>
      <trkpt lat="47.4929" lon="6.75134">
        <ele>363.7</ele>
        <time>2017-01-15T08:37:29.999Z</time>
      </trkpt>
      <trkpt lat="47.49291" lon="6.75129">
        <ele>363.6</ele>
        <time>2017-01-15T08:37:30.999Z</time>
      </trkpt>
      <trkpt lat="47.49291" lon="6.75125">
        <ele>363.5</ele>
        <time>2017-01-15T08:37:31.999Z</time>
      </trkpt>
      <trkpt lat="47.49291" lon="6.75121">
        <ele>363.4</ele>
        <time>2017-01-15T08:37:32.999Z</time>
      </trkpt>
      <trkpt lat="47.49291" lon="6.75117">
        <ele>363.2</ele>
        <time>2017-01-15T08:37:33.999Z</time>
      </trkpt>
      <trkpt lat="47.49292" lon="6.7511">
        <ele>363</ele>
        <time>2017-01-15T08:37:35.999Z</time>
      </trkpt>
      <trkpt lat="47.49291" lon="6.75106">
        <ele>363</ele>
        <time>2017-01-15T08:37:36.999Z</time>
      </trkpt>
      <trkpt lat="47.49291" lon="6.75098">
        <ele>363</ele>
        <time>2017-01-15T08:37:37.999Z</time>
      </trkpt>
      <trkpt lat="47.4929" lon="6.75093">
        <ele>362.9</ele>
        <time>2017-01-15T08:37:38.999Z</time>
      </trkpt>
      <trkpt lat="47.49291" lon="6.7509">
        <ele>362.9</ele>
        <time>2017-01-15T08:37:39.999Z</time>
      </trkpt>
      <trkpt lat="47.49291" lon="6.75086">
        <ele>362.9</ele>
        <time>2017-01-15T08:37:40.999Z</time>
      </trkpt>
      <trkpt lat="47.49292" lon="6.75083">
        <ele>362.8</ele>
        <time>2017-01-15T08:37:41.999Z</time>
      </trkpt>
      <trkpt lat="47.49294" lon="6.7508">
        <ele>362.7</ele>
        <time>2017-01-15T08:37:42.999Z</time>
      </trkpt>
      <trkpt lat="47.49296" lon="6.75074">
        <ele>362.6</ele>
        <time>2017-01-15T08:37:43.999Z</time>
      </trkpt>
      <trkpt lat="47.49299" lon="6.75068">
        <ele>362.4</ele>
        <time>2017-01-15T08:37:44.999Z</time>
      </trkpt>
      <trkpt lat="47.49301" lon="6.75063">
        <ele>362.3</ele>
        <time>2017-01-15T08:37:45.999Z</time>
      </trkpt>
      <trkpt lat="47.49304" lon="6.7506">
        <ele>362.2</ele>
        <time>2017-01-15T08:37:46.999Z</time>
      </trkpt>
      <trkpt lat="47.49306" lon="6.75057">
        <ele>362.1</ele>
        <time>2017-01-15T08:37:47.999Z</time>
      </trkpt>
      <trkpt lat="47.49309" lon="6.75054">
        <ele>362</ele>
        <time>2017-01-15T08:37:48.999Z</time>
      </trkpt>
      <trkpt lat="47.49312" lon="6.75051">
        <ele>361.9</ele>
        <time>2017-01-15T08:37:49.999Z</time>
      </trkpt>
      <trkpt lat="47.49315" lon="6.75046">
        <ele>361.8</ele>
        <time>2017-01-15T08:37:50.999Z</time>
      </trkpt>
      <trkpt lat="47.49318" lon="6.75042">
        <ele>361.7</ele>
        <time>2017-01-15T08:37:51.999Z</time>
      </trkpt>
      <trkpt lat="47.4932" lon="6.75038">
        <ele>361.5</ele>
        <time>2017-01-15T08:37:52.999Z</time>
      </trkpt>
      <trkpt lat="47.49323" lon="6.75035">
        <ele>361.3</ele>
        <time>2017-01-15T08:37:53.999Z</time>
      </trkpt>
      <trkpt lat="47.49325" lon="6.75032">
        <ele>361.1</ele>
        <time>2017-01-15T08:37:54.999Z</time>
      </trkpt>
      <trkpt lat="47.49328" lon="6.75029">
        <ele>361</ele>
        <time>2017-01-15T08:37:56.999Z</time>
      </trkpt>
      <trkpt lat="47.4933" lon="6.75028">
        <ele>360.9</ele>
        <time>2017-01-15T08:37:57.999Z</time>
      </trkpt>
      <trkpt lat="47.49331" lon="6.75022">
        <ele>360.8</ele>
        <time>2017-01-15T08:38:01.999Z</time>
      </trkpt>
      <trkpt lat="47.49331" lon="6.75019">
        <ele>360.7</ele>
        <time>2017-01-15T08:38:02.999Z</time>
      </trkpt>
      <trkpt lat="47.49331" lon="6.75017">
        <ele>360.6</ele>
        <time>2017-01-15T08:38:03.999Z</time>
      </trkpt>
      <trkpt lat="47.4933" lon="6.75012">
        <ele>360.5</ele>
        <time>2017-01-15T08:38:04.999Z</time>
      </trkpt>
      <trkpt lat="47.49329" lon="6.75008">
        <ele>360.4</ele>
        <time>2017-01-15T08:38:05.999Z</time>
      </trkpt>
      <trkpt lat="47.49328" lon="6.75005">
        <ele>360.2</ele>
        <time>2017-01-15T08:38:06.999Z</time>
      </trkpt>
      <trkpt lat="47.49327" lon="6.74999">
        <ele>359.9</ele>
        <time>2017-01-15T08:38:09.999Z</time>
      </trkpt>
      <trkpt lat="47.49327" lon="6.74997">
        <ele>359.8</ele>
        <time>2017-01-15T08:38:10.999Z</time>
      </trkpt>
      <trkpt lat="47.49326" lon="6.74991">
        <ele>359.7</ele>
        <time>2017-01-15T08:38:13.999Z</time>
      </trkpt>
      <trkpt lat="47.49326" lon="6.74989">
        <ele>359.6</ele>
        <time>2017-01-15T08:38:14.999Z</time>
      </trkpt>
      <trkpt lat="47.49326" lon="6.74984">
        <ele>359.3</ele>
        <time>2017-01-15T08:38:17.999Z</time>
      </trkpt>
      <trkpt lat="47.49326" lon="6.74982">
        <ele>359.2</ele>
        <time>2017-01-15T08:38:18.999Z</time>
      </trkpt>
      <trkpt lat="47.49326" lon="6.74976">
        <ele>359.1</ele>
        <time>2017-01-15T08:38:20.999Z</time>
      </trkpt>
      <trkpt lat="47.49326" lon="6.74974">
        <ele>359.1</ele>
        <time>2017-01-15T08:38:21.999Z</time>
      </trkpt>
      <trkpt lat="47.49326" lon="6.74968">
        <ele>359.2</ele>
        <time>2017-01-15T08:38:23.999Z</time>
      </trkpt>
      <trkpt lat="47.49326" lon="6.74964">
        <ele>359.3</ele>
        <time>2017-01-15T08:38:24.999Z</time>
      </trkpt>
      <trkpt lat="47.49327" lon="6.7496">
        <ele>359.4</ele>
        <time>2017-01-15T08:38:25.999Z</time>
      </trkpt>
      <trkpt lat="47.49326" lon="6.74956">
        <ele>359.6</ele>
        <time>2017-01-15T08:38:26.999Z</time>
      </trkpt>
      <trkpt lat="47.49327" lon="6.74951">
        <ele>359.9</ele>
        <time>2017-01-15T08:38:29.999Z</time>
      </trkpt>
      <trkpt lat="47.49329" lon="6.74948">
        <ele>359.9</ele>
        <time>2017-01-15T08:38:30.999Z</time>
      </trkpt>
      <trkpt lat="47.4933" lon="6.74943">
        <ele>360.5</ele>
        <time>2017-01-15T08:38:37.999Z</time>
      </trkpt>
      <trkpt lat="47.4933" lon="6.74942">
        <ele>360.7</ele>
        <time>2017-01-15T08:38:38.999Z</time>
      </trkpt>
      <trkpt lat="47.4933" lon="6.74936">
        <ele>361.4</ele>
        <time>2017-01-15T08:38:42.999Z</time>
      </trkpt>
      <trkpt lat="47.49329" lon="6.74935">
        <ele>361.6</ele>
        <time>2017-01-15T08:38:43.999Z</time>
      </trkpt>
      <trkpt lat="47.49328" lon="6.7493">
        <ele>361.8</ele>
        <time>2017-01-15T08:38:45.999Z</time>
      </trkpt>
      <trkpt lat="47.49327" lon="6.74928">
        <ele>362</ele>
        <time>2017-01-15T08:38:46.999Z</time>
      </trkpt>
      <trkpt lat="47.49325" lon="6.74923">
        <ele>362.5</ele>
        <time>2017-01-15T08:38:50.999Z</time>
      </trkpt>
      <trkpt lat="47.49324" lon="6.74923">
        <ele>362.7</ele>
        <time>2017-01-15T08:38:51.999Z</time>
      </trkpt>
      <trkpt lat="47.49327" lon="6.74918">
        <ele>366</ele>
        <time>2017-01-15T08:39:00.999Z</time>
      </trkpt>
      <trkpt lat="47.49328" lon="6.74917">
        <ele>366.2</ele>
        <time>2017-01-15T08:39:01.999Z</time>
      </trkpt>
      <trkpt lat="47.49329" lon="6.74911">
        <ele>366.7</ele>
        <time>2017-01-15T08:39:04.999Z</time>
      </trkpt>
      <trkpt lat="47.4933" lon="6.74908">
        <ele>366.8</ele>
        <time>2017-01-15T08:39:05.999Z</time>
      </trkpt>
      <trkpt lat="47.49332" lon="6.74905">
        <ele>366.9</ele>
        <time>2017-01-15T08:39:06.999Z</time>
      </trkpt>
      <trkpt lat="47.49333" lon="6.74901">
        <ele>367</ele>
        <time>2017-01-15T08:39:07.999Z</time>
      </trkpt>
      <trkpt lat="47.49334" lon="6.74898">
        <ele>367.1</ele>
        <time>2017-01-15T08:39:08.999Z</time>
      </trkpt>
      <trkpt lat="47.49336" lon="6.74894">
        <ele>367.3</ele>
        <time>2017-01-15T08:39:09.999Z</time>
      </trkpt>
      <trkpt lat="47.49338" lon="6.74889">
        <ele>367.6</ele>
        <time>2017-01-15T08:39:11.999Z</time>
      </trkpt>
      <trkpt lat="47.4934" lon="6.74885">
        <ele>367.7</ele>
        <time>2017-01-15T08:39:12.999Z</time>
      </trkpt>
      <trkpt lat="47.49342" lon="6.74882">
        <ele>367.7</ele>
        <time>2017-01-15T08:39:13.999Z</time>
      </trkpt>
      <trkpt lat="47.49344" lon="6.74879">
        <ele>367.7</ele>
        <time>2017-01-15T08:39:14.999Z</time>
      </trkpt>
      <trkpt lat="47.49346" lon="6.74877">
        <ele>367.7</ele>
        <time>2017-01-15T08:39:15.999Z</time>
      </trkpt>
      <trkpt lat="47.49349" lon="6.74875">
        <ele>367.7</ele>
        <time>2017-01-15T08:39:16.999Z</time>
      </trkpt>
      <trkpt lat="47.49351" lon="6.7487">
        <ele>367.7</ele>
        <time>2017-01-15T08:39:18.999Z</time>
      </trkpt>
      <trkpt lat="47.49353" lon="6.74868">
        <ele>367.6</ele>
        <time>2017-01-15T08:39:19.999Z</time>
      </trkpt>
      <trkpt lat="47.49355" lon="6.74864">
        <ele>367.4</ele>
        <time>2017-01-15T08:39:21.999Z</time>
      </trkpt>
      <trkpt lat="47.49356" lon="6.7486">
        <ele>367.3</ele>
        <time>2017-01-15T08:39:22.999Z</time>
      </trkpt>
      <trkpt lat="47.49358" lon="6.74855">
        <ele>367.1</ele>
        <time>2017-01-15T08:39:24.999Z</time>
      </trkpt>
      <trkpt lat="47.49361" lon="6.74851">
        <ele>366.9</ele>
        <time>2017-01-15T08:39:25.999Z</time>
      </trkpt>
      <trkpt lat="47.49364" lon="6.74844">
        <ele>366.7</ele>
        <time>2017-01-15T08:39:26.999Z</time>
      </trkpt>
      <trkpt lat="47.49365" lon="6.74839">
        <ele>366.5</ele>
        <time>2017-01-15T08:39:27.999Z</time>
      </trkpt>
      <trkpt lat="47.49367" lon="6.74834">
        <ele>366.2</ele>
        <time>2017-01-15T08:39:28.999Z</time>
      </trkpt>
      <trkpt lat="47.49367" lon="6.7483">
        <ele>365.9</ele>
        <time>2017-01-15T08:39:29.999Z</time>
      </trkpt>
      <trkpt lat="47.49368" lon="6.74827">
        <ele>365.7</ele>
        <time>2017-01-15T08:39:30.999Z</time>
      </trkpt>
      <trkpt lat="47.49369" lon="6.74822">
        <ele>365.4</ele>
        <time>2017-01-15T08:39:31.999Z</time>
      </trkpt>
      <trkpt lat="47.49371" lon="6.74817">
        <ele>365.1</ele>
        <time>2017-01-15T08:39:32.999Z</time>
      </trkpt>
      <trkpt lat="47.49372" lon="6.74812">
        <ele>364.8</ele>
        <time>2017-01-15T08:39:33.999Z</time>
      </trkpt>
      <trkpt lat="47.49373" lon="6.74808">
        <ele>364.6</ele>
        <time>2017-01-15T08:39:34.999Z</time>
      </trkpt>
      <trkpt lat="47.49373" lon="6.74803">
        <ele>364.4</ele>
        <time>2017-01-15T08:39:36.999Z</time>
      </trkpt>
      <trkpt lat="47.49374" lon="6.74797">
        <ele>364.3</ele>
        <time>2017-01-15T08:39:37.999Z</time>
      </trkpt>
      <trkpt lat="47.49375" lon="6.74794">
        <ele>364.1</ele>
        <time>2017-01-15T08:39:38.999Z</time>
      </trkpt>
      <trkpt lat="47.49376" lon="6.74789">
        <ele>363.9</ele>
        <time>2017-01-15T08:39:39.999Z</time>
      </trkpt>
      <trkpt lat="47.49376" lon="6.74785">
        <ele>363.8</ele>
        <time>2017-01-15T08:39:40.999Z</time>
      </trkpt>
      <trkpt lat="47.49376" lon="6.74781">
        <ele>363.6</ele>
        <time>2017-01-15T08:39:41.999Z</time>
      </trkpt>
      <trkpt lat="47.49378" lon="6.74779">
        <ele>363.4</ele>
        <time>2017-01-15T08:39:42.999Z</time>
      </trkpt>
      <trkpt lat="47.49379" lon="6.74776">
        <ele>363.3</ele>
        <time>2017-01-15T08:39:43.999Z</time>
      </trkpt>
      <trkpt lat="47.49381" lon="6.7477">
        <ele>363</ele>
        <time>2017-01-15T08:39:45.999Z</time>
      </trkpt>
      <trkpt lat="47.49382" lon="6.74767">
        <ele>362.8</ele>
        <time>2017-01-15T08:39:46.999Z</time>
      </trkpt>
      <trkpt lat="47.49383" lon="6.74762">
        <ele>362.6</ele>
        <time>2017-01-15T08:39:47.999Z</time>
      </trkpt>
      <trkpt lat="47.49383" lon="6.74759">
        <ele>362.4</ele>
        <time>2017-01-15T08:39:48.999Z</time>
      </trkpt>
      <trkpt lat="47.49383" lon="6.74753">
        <ele>362</ele>
        <time>2017-01-15T08:39:50.999Z</time>
      </trkpt>
      <trkpt lat="47.49383" lon="6.7475">
        <ele>361.7</ele>
        <time>2017-01-15T08:39:51.999Z</time>
      </trkpt>
      <trkpt lat="47.49383" lon="6.74745">
        <ele>361.2</ele>
        <time>2017-01-15T08:39:53.999Z</time>
      </trkpt>
      <trkpt lat="47.49383" lon="6.74741">
        <ele>360.9</ele>
        <time>2017-01-15T08:39:54.999Z</time>
      </trkpt>
      <trkpt lat="47.49383" lon="6.74738">
        <ele>360.7</ele>
        <time>2017-01-15T08:39:55.999Z</time>
      </trkpt>
      <trkpt lat="47.49382" lon="6.74735">
        <ele>360.4</ele>
        <time>2017-01-15T08:39:56.999Z</time>
      </trkpt>
      <trkpt lat="47.49382" lon="6.74728">
        <ele>360</ele>
        <time>2017-01-15T08:39:58.999Z</time>
      </trkpt>
      <trkpt lat="47.49381" lon="6.74725">
        <ele>359.8</ele>
        <time>2017-01-15T08:39:59.999Z</time>
      </trkpt>
      <trkpt lat="47.49381" lon="6.74722">
        <ele>359.8</ele>
        <time>2017-01-15T08:40:00.999Z</time>
      </trkpt>
      <trkpt lat="47.49381" lon="6.74718">
        <ele>359.5</ele>
        <time>2017-01-15T08:40:01.999Z</time>
      </trkpt>
      <trkpt lat="47.49381" lon="6.74713">
        <ele>359.3</ele>
        <time>2017-01-15T08:40:02.999Z</time>
      </trkpt>
      <trkpt lat="47.49381" lon="6.74707">
        <ele>359.1</ele>
        <time>2017-01-15T08:40:03.999Z</time>
      </trkpt>
      <trkpt lat="47.49381" lon="6.74702">
        <ele>358.8</ele>
        <time>2017-01-15T08:40:04.999Z</time>
      </trkpt>
      <trkpt lat="47.4938" lon="6.74697">
        <ele>358.5</ele>
        <time>2017-01-15T08:40:05.999Z</time>
      </trkpt>
      <trkpt lat="47.49381" lon="6.74693">
        <ele>358.3</ele>
        <time>2017-01-15T08:40:06.999Z</time>
      </trkpt>
      <trkpt lat="47.49381" lon="6.74689">
        <ele>358</ele>
        <time>2017-01-15T08:40:07.999Z</time>
      </trkpt>
      <trkpt lat="47.49381" lon="6.74683">
        <ele>357.3</ele>
        <time>2017-01-15T08:40:09.999Z</time>
      </trkpt>
      <trkpt lat="47.49381" lon="6.74678">
        <ele>357.1</ele>
        <time>2017-01-15T08:40:10.999Z</time>
      </trkpt>
      <trkpt lat="47.49382" lon="6.7467">
        <ele>356.9</ele>
        <time>2017-01-15T08:40:11.999Z</time>
      </trkpt>
      <trkpt lat="47.49384" lon="6.74664">
        <ele>356.6</ele>
        <time>2017-01-15T08:40:12.999Z</time>
      </trkpt>
      <trkpt lat="47.49385" lon="6.74659">
        <ele>356.4</ele>
        <time>2017-01-15T08:40:13.999Z</time>
      </trkpt>
      <trkpt lat="47.49386" lon="6.74654">
        <ele>356.1</ele>
        <time>2017-01-15T08:40:14.999Z</time>
      </trkpt>
      <trkpt lat="47.49387" lon="6.7465">
        <ele>355.9</ele>
        <time>2017-01-15T08:40:15.999Z</time>
      </trkpt>
      <trkpt lat="47.49389" lon="6.74645">
        <ele>355.9</ele>
        <time>2017-01-15T08:40:16.999Z</time>
      </trkpt>
      <trkpt lat="47.4939" lon="6.7464">
        <ele>355.8</ele>
        <time>2017-01-15T08:40:17.999Z</time>
      </trkpt>
      <trkpt lat="47.4939" lon="6.74635">
        <ele>355.7</ele>
        <time>2017-01-15T08:40:18.999Z</time>
      </trkpt>
      <trkpt lat="47.49391" lon="6.74629">
        <ele>355.6</ele>
        <time>2017-01-15T08:40:19.999Z</time>
      </trkpt>
      <trkpt lat="47.49391" lon="6.74626">
        <ele>355.7</ele>
        <time>2017-01-15T08:40:21.999Z</time>
      </trkpt>
      <trkpt lat="47.49393" lon="6.74621">
        <ele>355.8</ele>
        <time>2017-01-15T08:40:22.999Z</time>
      </trkpt>
      <trkpt lat="47.49393" lon="6.74615">
        <ele>356</ele>
        <time>2017-01-15T08:40:23.999Z</time>
      </trkpt>
      <trkpt lat="47.49394" lon="6.74609">
        <ele>356.1</ele>
        <time>2017-01-15T08:40:24.999Z</time>
      </trkpt>
      <trkpt lat="47.49394" lon="6.74604">
        <ele>356.2</ele>
        <time>2017-01-15T08:40:25.999Z</time>
      </trkpt>
      <trkpt lat="47.49394" lon="6.746">
        <ele>356.3</ele>
        <time>2017-01-15T08:40:26.999Z</time>
      </trkpt>
      <trkpt lat="47.49395" lon="6.74593">
        <ele>356.6</ele>
        <time>2017-01-15T08:40:28.999Z</time>
      </trkpt>
      <trkpt lat="47.49395" lon="6.74588">
        <ele>356.6</ele>
        <time>2017-01-15T08:40:29.999Z</time>
      </trkpt>
      <trkpt lat="47.49395" lon="6.74582">
        <ele>356.7</ele>
        <time>2017-01-15T08:40:30.999Z</time>
      </trkpt>
      <trkpt lat="47.49394" lon="6.74569">
        <ele>356.9</ele>
        <time>2017-01-15T08:40:31.999Z</time>
      </trkpt>
      <trkpt lat="47.49393" lon="6.74562">
        <ele>357</ele>
        <time>2017-01-15T08:40:32.999Z</time>
      </trkpt>
      <trkpt lat="47.49393" lon="6.74558">
        <ele>357.2</ele>
        <time>2017-01-15T08:40:33.999Z</time>
      </trkpt>
      <trkpt lat="47.49393" lon="6.74553">
        <ele>357.4</ele>
        <time>2017-01-15T08:40:34.999Z</time>
      </trkpt>
      <trkpt lat="47.49392" lon="6.74547">
        <ele>357.7</ele>
        <time>2017-01-15T08:40:36.999Z</time>
      </trkpt>
      <trkpt lat="47.49394" lon="6.74544">
        <ele>357.8</ele>
        <time>2017-01-15T08:40:37.999Z</time>
      </trkpt>
      <trkpt lat="47.49395" lon="6.74541">
        <ele>357.9</ele>
        <time>2017-01-15T08:40:38.999Z</time>
      </trkpt>
      <trkpt lat="47.49396" lon="6.74538">
        <ele>358.1</ele>
        <time>2017-01-15T08:40:39.999Z</time>
      </trkpt>
      <trkpt lat="47.49397" lon="6.74534">
        <ele>358.3</ele>
        <time>2017-01-15T08:40:40.999Z</time>
      </trkpt>
      <trkpt lat="47.49399" lon="6.7453">
        <ele>358.5</ele>
        <time>2017-01-15T08:40:41.999Z</time>
      </trkpt>
      <trkpt lat="47.494" lon="6.74526">
        <ele>358.8</ele>
        <time>2017-01-15T08:40:43.999Z</time>
      </trkpt>
      <trkpt lat="47.49399" lon="6.74522">
        <ele>359</ele>
        <time>2017-01-15T08:40:44.999Z</time>
      </trkpt>
      <trkpt lat="47.49399" lon="6.74517">
        <ele>359</ele>
        <time>2017-01-15T08:40:45.999Z</time>
      </trkpt>
      <trkpt lat="47.49398" lon="6.74513">
        <ele>359.1</ele>
        <time>2017-01-15T08:40:46.999Z</time>
      </trkpt>
      <trkpt lat="47.49398" lon="6.74508">
        <ele>359.2</ele>
        <time>2017-01-15T08:40:47.999Z</time>
      </trkpt>
      <trkpt lat="47.49397" lon="6.74503">
        <ele>359.3</ele>
        <time>2017-01-15T08:40:48.999Z</time>
      </trkpt>
      <trkpt lat="47.49396" lon="6.74497">
        <ele>359.2</ele>
        <time>2017-01-15T08:40:50.999Z</time>
      </trkpt>
      <trkpt lat="47.49396" lon="6.74494">
        <ele>359.1</ele>
        <time>2017-01-15T08:40:51.999Z</time>
      </trkpt>
      <trkpt lat="47.49396" lon="6.74489">
        <ele>359.1</ele>
        <time>2017-01-15T08:40:53.999Z</time>
      </trkpt>
      <trkpt lat="47.49396" lon="6.74486">
        <ele>359.1</ele>
        <time>2017-01-15T08:40:54.999Z</time>
      </trkpt>
      <trkpt lat="47.49395" lon="6.74482">
        <ele>359.2</ele>
        <time>2017-01-15T08:40:55.999Z</time>
      </trkpt>
      <trkpt lat="47.49394" lon="6.74477">
        <ele>359.3</ele>
        <time>2017-01-15T08:40:56.999Z</time>
      </trkpt>
      <trkpt lat="47.49393" lon="6.74474">
        <ele>359.4</ele>
        <time>2017-01-15T08:40:57.999Z</time>
      </trkpt>
      <trkpt lat="47.49393" lon="6.74471">
        <ele>359.6</ele>
        <time>2017-01-15T08:40:58.999Z</time>
      </trkpt>
      <trkpt lat="47.49393" lon="6.74465">
        <ele>359.7</ele>
        <time>2017-01-15T08:40:59.999Z</time>
      </trkpt>
      <trkpt lat="47.49393" lon="6.7446">
        <ele>359.6</ele>
        <time>2017-01-15T08:41:00.999Z</time>
      </trkpt>
      <trkpt lat="47.49393" lon="6.74455">
        <ele>359.6</ele>
        <time>2017-01-15T08:41:01.999Z</time>
      </trkpt>
      <trkpt lat="47.49393" lon="6.74451">
        <ele>359.5</ele>
        <time>2017-01-15T08:41:02.999Z</time>
      </trkpt>
      <trkpt lat="47.49393" lon="6.74445">
        <ele>359.5</ele>
        <time>2017-01-15T08:41:03.999Z</time>
      </trkpt>
      <trkpt lat="47.49393" lon="6.7444">
        <ele>359.5</ele>
        <time>2017-01-15T08:41:04.999Z</time>
      </trkpt>
      <trkpt lat="47.49394" lon="6.74434">
        <ele>359.5</ele>
        <time>2017-01-15T08:41:06.999Z</time>
      </trkpt>
      <trkpt lat="47.49393" lon="6.74429">
        <ele>359.5</ele>
        <time>2017-01-15T08:41:07.999Z</time>
      </trkpt>
      <trkpt lat="47.49394" lon="6.74424">
        <ele>359.6</ele>
        <time>2017-01-15T08:41:08.999Z</time>
      </trkpt>
      <trkpt lat="47.49395" lon="6.74419">
        <ele>359.6</ele>
        <time>2017-01-15T08:41:09.999Z</time>
      </trkpt>
      <trkpt lat="47.49395" lon="6.74415">
        <ele>359.7</ele>
        <time>2017-01-15T08:41:10.999Z</time>
      </trkpt>
      <trkpt lat="47.49395" lon="6.74411">
        <ele>359.7</ele>
        <time>2017-01-15T08:41:11.999Z</time>
      </trkpt>
      <trkpt lat="47.49396" lon="6.74407">
        <ele>359.8</ele>
        <time>2017-01-15T08:41:12.999Z</time>
      </trkpt>
      <trkpt lat="47.49397" lon="6.74404">
        <ele>359.7</ele>
        <time>2017-01-15T08:41:13.999Z</time>
      </trkpt>
      <trkpt lat="47.49397" lon="6.744">
        <ele>359.7</ele>
        <time>2017-01-15T08:41:14.999Z</time>
      </trkpt>
      <trkpt lat="47.49396" lon="6.74391">
        <ele>359.8</ele>
        <time>2017-01-15T08:41:15.999Z</time>
      </trkpt>
      <trkpt lat="47.49396" lon="6.74385">
        <ele>359.8</ele>
        <time>2017-01-15T08:41:16.999Z</time>
      </trkpt>
      <trkpt lat="47.49396" lon="6.74381">
        <ele>359.9</ele>
        <time>2017-01-15T08:41:17.999Z</time>
      </trkpt>
      <trkpt lat="47.49395" lon="6.74377">
        <ele>360</ele>
        <time>2017-01-15T08:41:18.999Z</time>
      </trkpt>
      <trkpt lat="47.49395" lon="6.74373">
        <ele>360</ele>
        <time>2017-01-15T08:41:19.999Z</time>
      </trkpt>
      <trkpt lat="47.49395" lon="6.74368">
        <ele>360.1</ele>
        <time>2017-01-15T08:41:21.999Z</time>
      </trkpt>
      <trkpt lat="47.49394" lon="6.74364">
        <ele>360.2</ele>
        <time>2017-01-15T08:41:22.999Z</time>
      </trkpt>
      <trkpt lat="47.49394" lon="6.7436">
        <ele>360.3</ele>
        <time>2017-01-15T08:41:24.999Z</time>
      </trkpt>
      <trkpt lat="47.49394" lon="6.74356">
        <ele>360.4</ele>
        <time>2017-01-15T08:41:25.999Z</time>
      </trkpt>
      <trkpt lat="47.49393" lon="6.74352">
        <ele>360.5</ele>
        <time>2017-01-15T08:41:27.999Z</time>
      </trkpt>
      <trkpt lat="47.49392" lon="6.7435">
        <ele>360.5</ele>
        <time>2017-01-15T08:41:28.999Z</time>
      </trkpt>
      <trkpt lat="47.49392" lon="6.74347">
        <ele>360.6</ele>
        <time>2017-01-15T08:41:29.999Z</time>
      </trkpt>
      <trkpt lat="47.49392" lon="6.74343">
        <ele>360.5</ele>
        <time>2017-01-15T08:41:30.999Z</time>
      </trkpt>
      <trkpt lat="47.49392" lon="6.74339">
        <ele>360.5</ele>
        <time>2017-01-15T08:41:31.999Z</time>
      </trkpt>
      <trkpt lat="47.49391" lon="6.74335">
        <ele>360.4</ele>
        <time>2017-01-15T08:41:32.999Z</time>
      </trkpt>
      <trkpt lat="47.49391" lon="6.74331">
        <ele>360.4</ele>
        <time>2017-01-15T08:41:33.999Z</time>
      </trkpt>
      <trkpt lat="47.4939" lon="6.74327">
        <ele>360.4</ele>
        <time>2017-01-15T08:41:34.999Z</time>
      </trkpt>
      <trkpt lat="47.4939" lon="6.74323">
        <ele>360.4</ele>
        <time>2017-01-15T08:41:35.999Z</time>
      </trkpt>
      <trkpt lat="47.4939" lon="6.74319">
        <ele>360.3</ele>
        <time>2017-01-15T08:41:36.999Z</time>
      </trkpt>
      <trkpt lat="47.4939" lon="6.74315">
        <ele>360.4</ele>
        <time>2017-01-15T08:41:37.999Z</time>
      </trkpt>
      <trkpt lat="47.4939" lon="6.74312">
        <ele>360.4</ele>
        <time>2017-01-15T08:41:38.999Z</time>
      </trkpt>
      <trkpt lat="47.49391" lon="6.74306">
        <ele>360.3</ele>
        <time>2017-01-15T08:41:40.999Z</time>
      </trkpt>
      <trkpt lat="47.49391" lon="6.74305">
        <ele>360.3</ele>
        <time>2017-01-15T08:41:41.999Z</time>
      </trkpt>
      <trkpt lat="47.49391" lon="6.743">
        <ele>360.1</ele>
        <time>2017-01-15T08:41:43.999Z</time>
      </trkpt>
      <trkpt lat="47.49391" lon="6.74297">
        <ele>360</ele>
        <time>2017-01-15T08:41:44.999Z</time>
      </trkpt>
      <trkpt lat="47.49391" lon="6.74293">
        <ele>359.8</ele>
        <time>2017-01-15T08:41:45.999Z</time>
      </trkpt>
      <trkpt lat="47.49391" lon="6.74289">
        <ele>359.7</ele>
        <time>2017-01-15T08:41:46.999Z</time>
      </trkpt>
      <trkpt lat="47.49392" lon="6.74284">
        <ele>359.3</ele>
        <time>2017-01-15T08:41:48.999Z</time>
      </trkpt>
      <trkpt lat="47.49393" lon="6.74281">
        <ele>359.2</ele>
        <time>2017-01-15T08:41:49.999Z</time>
      </trkpt>
      <trkpt lat="47.49395" lon="6.74275">
        <ele>358.8</ele>
        <time>2017-01-15T08:41:51.999Z</time>
      </trkpt>
      <trkpt lat="47.49395" lon="6.74271">
        <ele>358.5</ele>
        <time>2017-01-15T08:41:52.999Z</time>
      </trkpt>
      <trkpt lat="47.49395" lon="6.74267">
        <ele>358.2</ele>
        <time>2017-01-15T08:41:53.999Z</time>
      </trkpt>
      <trkpt lat="47.49397" lon="6.74263">
        <ele>358</ele>
        <time>2017-01-15T08:41:54.999Z</time>
      </trkpt>
      <trkpt lat="47.49398" lon="6.74257">
        <ele>357.7</ele>
        <time>2017-01-15T08:41:55.999Z</time>
      </trkpt>
      <trkpt lat="47.49398" lon="6.74253">
        <ele>357.5</ele>
        <time>2017-01-15T08:41:56.999Z</time>
      </trkpt>
      <trkpt lat="47.49399" lon="6.74246">
        <ele>357.2</ele>
        <time>2017-01-15T08:41:58.999Z</time>
      </trkpt>
      <trkpt lat="47.49399" lon="6.74243">
        <ele>357</ele>
        <time>2017-01-15T08:41:59.999Z</time>
      </trkpt>
      <trkpt lat="47.494" lon="6.7424">
        <ele>356.7</ele>
        <time>2017-01-15T08:42:00.999Z</time>
      </trkpt>
      <trkpt lat="47.494" lon="6.74235">
        <ele>356.6</ele>
        <time>2017-01-15T08:42:01.999Z</time>
      </trkpt>
      <trkpt lat="47.49401" lon="6.7423">
        <ele>356.3</ele>
        <time>2017-01-15T08:42:02.999Z</time>
      </trkpt>
      <trkpt lat="47.49401" lon="6.74224">
        <ele>356</ele>
        <time>2017-01-15T08:42:03.999Z</time>
      </trkpt>
      <trkpt lat="47.49403" lon="6.74218">
        <ele>355.7</ele>
        <time>2017-01-15T08:42:04.999Z</time>
      </trkpt>
      <trkpt lat="47.49404" lon="6.74212">
        <ele>355.5</ele>
        <time>2017-01-15T08:42:05.999Z</time>
      </trkpt>
      <trkpt lat="47.49404" lon="6.74205">
        <ele>355.2</ele>
        <time>2017-01-15T08:42:06.999Z</time>
      </trkpt>
      <trkpt lat="47.49404" lon="6.742">
        <ele>355</ele>
        <time>2017-01-15T08:42:07.999Z</time>
      </trkpt>
      <trkpt lat="47.49404" lon="6.74195">
        <ele>354.8</ele>
        <time>2017-01-15T08:42:08.999Z</time>
      </trkpt>
      <trkpt lat="47.49404" lon="6.74191">
        <ele>354.6</ele>
        <time>2017-01-15T08:42:09.999Z</time>
      </trkpt>
      <trkpt lat="47.49403" lon="6.74188">
        <ele>354.4</ele>
        <time>2017-01-15T08:42:10.999Z</time>
      </trkpt>
      <trkpt lat="47.49403" lon="6.74185">
        <ele>354.1</ele>
        <time>2017-01-15T08:42:11.999Z</time>
      </trkpt>
      <trkpt lat="47.49403" lon="6.74182">
        <ele>353.9</ele>
        <time>2017-01-15T08:42:12.999Z</time>
      </trkpt>
      <trkpt lat="47.49403" lon="6.74177">
        <ele>353.6</ele>
        <time>2017-01-15T08:42:13.999Z</time>
      </trkpt>
      <trkpt lat="47.49403" lon="6.74173">
        <ele>353.4</ele>
        <time>2017-01-15T08:42:14.999Z</time>
      </trkpt>
      <trkpt lat="47.49404" lon="6.74169">
        <ele>353.2</ele>
        <time>2017-01-15T08:42:15.999Z</time>
      </trkpt>
      <trkpt lat="47.49403" lon="6.74162">
        <ele>353</ele>
        <time>2017-01-15T08:42:16.999Z</time>
      </trkpt>
      <trkpt lat="47.49404" lon="6.74156">
        <ele>352.7</ele>
        <time>2017-01-15T08:42:18.999Z</time>
      </trkpt>
      <trkpt lat="47.49404" lon="6.74151">
        <ele>352.6</ele>
        <time>2017-01-15T08:42:19.999Z</time>
      </trkpt>
      <trkpt lat="47.49404" lon="6.74147">
        <ele>352.5</ele>
        <time>2017-01-15T08:42:20.999Z</time>
      </trkpt>
      <trkpt lat="47.49404" lon="6.74142">
        <ele>352.5</ele>
        <time>2017-01-15T08:42:21.999Z</time>
      </trkpt>
      <trkpt lat="47.49404" lon="6.74138">
        <ele>352.6</ele>
        <time>2017-01-15T08:42:22.999Z</time>
      </trkpt>
      <trkpt lat="47.49403" lon="6.74133">
        <ele>352.6</ele>
        <time>2017-01-15T08:42:23.999Z</time>
      </trkpt>
      <trkpt lat="47.49403" lon="6.74128">
        <ele>352.6</ele>
        <time>2017-01-15T08:42:24.999Z</time>
      </trkpt>
      <trkpt lat="47.49404" lon="6.74123">
        <ele>352.8</ele>
        <time>2017-01-15T08:42:25.999Z</time>
      </trkpt>
      <trkpt lat="47.49404" lon="6.74117">
        <ele>353.4</ele>
        <time>2017-01-15T08:42:29.999Z</time>
      </trkpt>
      <trkpt lat="47.49403" lon="6.74113">
        <ele>353.8</ele>
        <time>2017-01-15T08:42:30.999Z</time>
      </trkpt>
      <trkpt lat="47.49404" lon="6.74109">
        <ele>354.3</ele>
        <time>2017-01-15T08:42:31.999Z</time>
      </trkpt>
      <trkpt lat="47.49404" lon="6.74105">
        <ele>354.8</ele>
        <time>2017-01-15T08:42:32.999Z</time>
      </trkpt>
      <trkpt lat="47.49405" lon="6.741">
        <ele>356.4</ele>
        <time>2017-01-15T08:42:35.999Z</time>
      </trkpt>
      <trkpt lat="47.49405" lon="6.74096">
        <ele>357</ele>
        <time>2017-01-15T08:42:36.999Z</time>
      </trkpt>
      <trkpt lat="47.49405" lon="6.74092">
        <ele>357.5</ele>
        <time>2017-01-15T08:42:37.999Z</time>
      </trkpt>
      <trkpt lat="47.49405" lon="6.74089">
        <ele>358</ele>
        <time>2017-01-15T08:42:38.999Z</time>
      </trkpt>
      <trkpt lat="47.49405" lon="6.74084">
        <ele>358.6</ele>
        <time>2017-01-15T08:42:39.999Z</time>
      </trkpt>
      <trkpt lat="47.49405" lon="6.74081">
        <ele>359.1</ele>
        <time>2017-01-15T08:42:40.999Z</time>
      </trkpt>
      <trkpt lat="47.49406" lon="6.74077">
        <ele>360.4</ele>
        <time>2017-01-15T08:42:43.999Z</time>
      </trkpt>
      <trkpt lat="47.49405" lon="6.74074">
        <ele>360.9</ele>
        <time>2017-01-15T08:42:44.999Z</time>
      </trkpt>
      <trkpt lat="47.49405" lon="6.7407">
        <ele>361.4</ele>
        <time>2017-01-15T08:42:45.999Z</time>
      </trkpt>
      <trkpt lat="47.49403" lon="6.74058">
        <ele>361.9</ele>
        <time>2017-01-15T08:42:46.999Z</time>
      </trkpt>
      <trkpt lat="47.49403" lon="6.74053">
        <ele>362.4</ele>
        <time>2017-01-15T08:42:47.999Z</time>
      </trkpt>
      <trkpt lat="47.49403" lon="6.7405">
        <ele>362.9</ele>
        <time>2017-01-15T08:42:48.999Z</time>
      </trkpt>
      <trkpt lat="47.49404" lon="6.74044">
        <ele>364.8</ele>
        <time>2017-01-15T08:42:52.999Z</time>
      </trkpt>
      <trkpt lat="47.49404" lon="6.74042">
        <ele>365.3</ele>
        <time>2017-01-15T08:42:53.999Z</time>
      </trkpt>
      <trkpt lat="47.49404" lon="6.74036">
        <ele>367.4</ele>
        <time>2017-01-15T08:43:01.999Z</time>
      </trkpt>
      <trkpt lat="47.49404" lon="6.74035">
        <ele>367.6</ele>
        <time>2017-01-15T08:43:02.999Z</time>
      </trkpt>
      <trkpt lat="47.49402" lon="6.7403">
        <ele>369.2</ele>
        <time>2017-01-15T08:43:10.999Z</time>
      </trkpt>
      <trkpt lat="47.49401" lon="6.74029">
        <ele>369.3</ele>
        <time>2017-01-15T08:43:11.999Z</time>
      </trkpt>
      <trkpt lat="47.49401" lon="6.74022">
        <ele>372.1</ele>
        <time>2017-01-15T08:43:27.999Z</time>
      </trkpt>
      <trkpt lat="47.49403" lon="6.74021">
        <ele>373.1</ele>
        <time>2017-01-15T08:43:28.999Z</time>
      </trkpt>
      <trkpt lat="47.49406" lon="6.74017">
        <ele>374.5</ele>
        <time>2017-01-15T08:43:30.999Z</time>
      </trkpt>
      <trkpt lat="47.49408" lon="6.74015">
        <ele>375.1</ele>
        <time>2017-01-15T08:43:31.999Z</time>
      </trkpt>
      <trkpt lat="47.4941" lon="6.74012">
        <ele>375.7</ele>
        <time>2017-01-15T08:43:32.999Z</time>
      </trkpt>
      <trkpt lat="47.49414" lon="6.74007">
        <ele>376.3</ele>
        <time>2017-01-15T08:43:33.999Z</time>
      </trkpt>
      <trkpt lat="47.49416" lon="6.74004">
        <ele>376.7</ele>
        <time>2017-01-15T08:43:34.999Z</time>
      </trkpt>
      <trkpt lat="47.4942" lon="6.73998">
        <ele>377.1</ele>
        <time>2017-01-15T08:43:35.999Z</time>
      </trkpt>
      <trkpt lat="47.49422" lon="6.73995">
        <ele>377.4</ele>
        <time>2017-01-15T08:43:36.999Z</time>
      </trkpt>
      <trkpt lat="47.49423" lon="6.7399">
        <ele>377.6</ele>
        <time>2017-01-15T08:43:37.999Z</time>
      </trkpt>
      <trkpt lat="47.49425" lon="6.73987">
        <ele>377.9</ele>
        <time>2017-01-15T08:43:38.999Z</time>
      </trkpt>
      <trkpt lat="47.49426" lon="6.73984">
        <ele>378.2</ele>
        <time>2017-01-15T08:43:39.999Z</time>
      </trkpt>
      <trkpt lat="47.49428" lon="6.7398">
        <ele>378.7</ele>
        <time>2017-01-15T08:43:41.999Z</time>
      </trkpt>
      <trkpt lat="47.49428" lon="6.73977">
        <ele>378.9</ele>
        <time>2017-01-15T08:43:42.999Z</time>
      </trkpt>
      <trkpt lat="47.49427" lon="6.73971">
        <ele>379.1</ele>
        <time>2017-01-15T08:43:43.999Z</time>
      </trkpt>
      <trkpt lat="47.49427" lon="6.73967">
        <ele>379.3</ele>
        <time>2017-01-15T08:43:44.999Z</time>
      </trkpt>
      <trkpt lat="47.49427" lon="6.73961">
        <ele>379.7</ele>
        <time>2017-01-15T08:43:46.999Z</time>
      </trkpt>
      <trkpt lat="47.49427" lon="6.73959">
        <ele>379.8</ele>
        <time>2017-01-15T08:43:47.999Z</time>
      </trkpt>
      <trkpt lat="47.49426" lon="6.73955">
        <ele>379.9</ele>
        <time>2017-01-15T08:43:49.999Z</time>
      </trkpt>
      <trkpt lat="47.49426" lon="6.73951">
        <ele>380</ele>
        <time>2017-01-15T08:43:50.999Z</time>
      </trkpt>
      <trkpt lat="47.49425" lon="6.73947">
        <ele>380.1</ele>
        <time>2017-01-15T08:43:51.999Z</time>
      </trkpt>
      <trkpt lat="47.49425" lon="6.73942">
        <ele>380.1</ele>
        <time>2017-01-15T08:43:52.999Z</time>
      </trkpt>
      <trkpt lat="47.49424" lon="6.73938">
        <ele>380.1</ele>
        <time>2017-01-15T08:43:53.999Z</time>
      </trkpt>
      <trkpt lat="47.49424" lon="6.73933">
        <ele>380.2</ele>
        <time>2017-01-15T08:43:54.999Z</time>
      </trkpt>
      <trkpt lat="47.49423" lon="6.73928">
        <ele>380.2</ele>
        <time>2017-01-15T08:43:55.999Z</time>
      </trkpt>
      <trkpt lat="47.49423" lon="6.73923">
        <ele>380.2</ele>
        <time>2017-01-15T08:43:56.999Z</time>
      </trkpt>
      <trkpt lat="47.49421" lon="6.73919">
        <ele>380.1</ele>
        <time>2017-01-15T08:43:57.999Z</time>
      </trkpt>
      <trkpt lat="47.4942" lon="6.73913">
        <ele>380.1</ele>
        <time>2017-01-15T08:43:58.999Z</time>
      </trkpt>
      <trkpt lat="47.4942" lon="6.73909">
        <ele>380</ele>
        <time>2017-01-15T08:43:59.999Z</time>
      </trkpt>
      <trkpt lat="47.4942" lon="6.73904">
        <ele>380</ele>
        <time>2017-01-15T08:44:00.999Z</time>
      </trkpt>
      <trkpt lat="47.49421" lon="6.73898">
        <ele>380</ele>
        <time>2017-01-15T08:44:01.999Z</time>
      </trkpt>
      <trkpt lat="47.49421" lon="6.73893">
        <ele>379.9</ele>
        <time>2017-01-15T08:44:02.999Z</time>
      </trkpt>
      <trkpt lat="47.49421" lon="6.73886">
        <ele>379.7</ele>
        <time>2017-01-15T08:44:03.999Z</time>
      </trkpt>
      <trkpt lat="47.4942" lon="6.7388">
        <ele>379.4</ele>
        <time>2017-01-15T08:44:04.999Z</time>
      </trkpt>
      <trkpt lat="47.49421" lon="6.73875">
        <ele>379</ele>
        <time>2017-01-15T08:44:05.999Z</time>
      </trkpt>
      <trkpt lat="47.49422" lon="6.73868">
        <ele>378.3</ele>
        <time>2017-01-15T08:44:06.999Z</time>
      </trkpt>
      <trkpt lat="47.49423" lon="6.73859">
        <ele>377.7</ele>
        <time>2017-01-15T08:44:07.999Z</time>
      </trkpt>
      <trkpt lat="47.49424" lon="6.7385">
        <ele>377.1</ele>
        <time>2017-01-15T08:44:08.999Z</time>
      </trkpt>
      <trkpt lat="47.49426" lon="6.73839">
        <ele>376.5</ele>
        <time>2017-01-15T08:44:09.999Z</time>
      </trkpt>
      <trkpt lat="47.49429" lon="6.73827">
        <ele>375.9</ele>
        <time>2017-01-15T08:44:10.999Z</time>
      </trkpt>
      <trkpt lat="47.49429" lon="6.73815">
        <ele>375.4</ele>
        <time>2017-01-15T08:44:11.999Z</time>
      </trkpt>
      <trkpt lat="47.49428" lon="6.73808">
        <ele>374.9</ele>
        <time>2017-01-15T08:44:12.999Z</time>
      </trkpt>
      <trkpt lat="47.49428" lon="6.73801">
        <ele>374.4</ele>
        <time>2017-01-15T08:44:13.999Z</time>
      </trkpt>
      <trkpt lat="47.49429" lon="6.73795">
        <ele>373.9</ele>
        <time>2017-01-15T08:44:14.999Z</time>
      </trkpt>
      <trkpt lat="47.49429" lon="6.73788">
        <ele>373.5</ele>
        <time>2017-01-15T08:44:15.999Z</time>
      </trkpt>
      <trkpt lat="47.49431" lon="6.73781">
        <ele>373.3</ele>
        <time>2017-01-15T08:44:16.999Z</time>
      </trkpt>
      <trkpt lat="47.49433" lon="6.73774">
        <ele>373.1</ele>
        <time>2017-01-15T08:44:17.999Z</time>
      </trkpt>
      <trkpt lat="47.49435" lon="6.73768">
        <ele>372.9</ele>
        <time>2017-01-15T08:44:18.999Z</time>
      </trkpt>
      <trkpt lat="47.49437" lon="6.73762">
        <ele>372.8</ele>
        <time>2017-01-15T08:44:19.999Z</time>
      </trkpt>
      <trkpt lat="47.49439" lon="6.73758">
        <ele>372.8</ele>
        <time>2017-01-15T08:44:20.999Z</time>
      </trkpt>
      <trkpt lat="47.49442" lon="6.73753">
        <ele>372.7</ele>
        <time>2017-01-15T08:44:21.999Z</time>
      </trkpt>
      <trkpt lat="47.49447" lon="6.73743">
        <ele>372.5</ele>
        <time>2017-01-15T08:44:22.999Z</time>
      </trkpt>
      <trkpt lat="47.4945" lon="6.73739">
        <ele>372.4</ele>
        <time>2017-01-15T08:44:23.999Z</time>
      </trkpt>
      <trkpt lat="47.49452" lon="6.73734">
        <ele>372.4</ele>
        <time>2017-01-15T08:44:24.999Z</time>
      </trkpt>
      <trkpt lat="47.49455" lon="6.73729">
        <ele>371.7</ele>
        <time>2017-01-15T08:44:25.999Z</time>
      </trkpt>
      <trkpt lat="47.49457" lon="6.73724">
        <ele>371.5</ele>
        <time>2017-01-15T08:44:26.999Z</time>
      </trkpt>
      <trkpt lat="47.49462" lon="6.73713">
        <ele>370.5</ele>
        <time>2017-01-15T08:44:28.999Z</time>
      </trkpt>
      <trkpt lat="47.49464" lon="6.73708">
        <ele>370.5</ele>
        <time>2017-01-15T08:44:29.999Z</time>
      </trkpt>
      <trkpt lat="47.49465" lon="6.73703">
        <ele>370.6</ele>
        <time>2017-01-15T08:44:30.999Z</time>
      </trkpt>
      <trkpt lat="47.49468" lon="6.73697">
        <ele>371.4</ele>
        <time>2017-01-15T08:44:31.999Z</time>
      </trkpt>
      <trkpt lat="47.4947" lon="6.73691">
        <ele>371.5</ele>
        <time>2017-01-15T08:44:32.999Z</time>
      </trkpt>
      <trkpt lat="47.49473" lon="6.73686">
        <ele>371.6</ele>
        <time>2017-01-15T08:44:33.999Z</time>
      </trkpt>
      <trkpt lat="47.49475" lon="6.73681">
        <ele>372.3</ele>
        <time>2017-01-15T08:44:34.999Z</time>
      </trkpt>
      <trkpt lat="47.49478" lon="6.73676">
        <ele>373.5</ele>
        <time>2017-01-15T08:44:35.999Z</time>
      </trkpt>
      <trkpt lat="47.49481" lon="6.7367">
        <ele>373.7</ele>
        <time>2017-01-15T08:44:36.999Z</time>
      </trkpt>
      <trkpt lat="47.49484" lon="6.73664">
        <ele>373.3</ele>
        <time>2017-01-15T08:44:37.999Z</time>
      </trkpt>
      <trkpt lat="47.49486" lon="6.73659">
        <ele>373.1</ele>
        <time>2017-01-15T08:44:38.999Z</time>
      </trkpt>
      <trkpt lat="47.49489" lon="6.73653">
        <ele>372.9</ele>
        <time>2017-01-15T08:44:39.999Z</time>
      </trkpt>
      <trkpt lat="47.49492" lon="6.73647">
        <ele>371.8</ele>
        <time>2017-01-15T08:44:40.999Z</time>
      </trkpt>
      <trkpt lat="47.49495" lon="6.73642">
        <ele>371.4</ele>
        <time>2017-01-15T08:44:41.999Z</time>
      </trkpt>
      <trkpt lat="47.49498" lon="6.73637">
        <ele>371.5</ele>
        <time>2017-01-15T08:44:42.999Z</time>
      </trkpt>
      <trkpt lat="47.495" lon="6.73633">
        <ele>371.9</ele>
        <time>2017-01-15T08:44:43.999Z</time>
      </trkpt>
      <trkpt lat="47.49504" lon="6.73627">
        <ele>372.3</ele>
        <time>2017-01-15T08:44:44.999Z</time>
      </trkpt>
      <trkpt lat="47.49507" lon="6.73621">
        <ele>372</ele>
        <time>2017-01-15T08:44:45.999Z</time>
      </trkpt>
      <trkpt lat="47.49512" lon="6.73618">
        <ele>371.9</ele>
        <time>2017-01-15T08:44:46.999Z</time>
      </trkpt>
      <trkpt lat="47.49516" lon="6.73613">
        <ele>372</ele>
        <time>2017-01-15T08:44:47.999Z</time>
      </trkpt>
      <trkpt lat="47.4952" lon="6.73609">
        <ele>372.3</ele>
        <time>2017-01-15T08:44:48.999Z</time>
      </trkpt>
      <trkpt lat="47.49523" lon="6.73604">
        <ele>372.7</ele>
        <time>2017-01-15T08:44:49.999Z</time>
      </trkpt>
      <trkpt lat="47.49526" lon="6.73599">
        <ele>372.6</ele>
        <time>2017-01-15T08:44:50.999Z</time>
      </trkpt>
      <trkpt lat="47.49529" lon="6.73595">
        <ele>372.9</ele>
        <time>2017-01-15T08:44:51.999Z</time>
      </trkpt>
      <trkpt lat="47.49532" lon="6.73591">
        <ele>373.4</ele>
        <time>2017-01-15T08:44:52.999Z</time>
      </trkpt>
      <trkpt lat="47.49535" lon="6.73588">
        <ele>373.2</ele>
        <time>2017-01-15T08:44:53.999Z</time>
      </trkpt>
      <trkpt lat="47.49539" lon="6.73584">
        <ele>372.8</ele>
        <time>2017-01-15T08:44:54.999Z</time>
      </trkpt>
      <trkpt lat="47.49543" lon="6.7358">
        <ele>372.9</ele>
        <time>2017-01-15T08:44:55.999Z</time>
      </trkpt>
      <trkpt lat="47.49547" lon="6.73576">
        <ele>373.5</ele>
        <time>2017-01-15T08:44:56.999Z</time>
      </trkpt>
      <trkpt lat="47.4955" lon="6.73572">
        <ele>373.6</ele>
        <time>2017-01-15T08:44:57.999Z</time>
      </trkpt>
      <trkpt lat="47.49554" lon="6.73569">
        <ele>373.9</ele>
        <time>2017-01-15T08:44:58.999Z</time>
      </trkpt>
      <trkpt lat="47.49557" lon="6.73566">
        <ele>374.6</ele>
        <time>2017-01-15T08:44:59.999Z</time>
      </trkpt>
      <trkpt lat="47.49561" lon="6.73563">
        <ele>375.1</ele>
        <time>2017-01-15T08:45:00.999Z</time>
      </trkpt>
      <trkpt lat="47.49565" lon="6.7356">
        <ele>375.5</ele>
        <time>2017-01-15T08:45:01.999Z</time>
      </trkpt>
      <trkpt lat="47.49569" lon="6.73557">
        <ele>376</ele>
        <time>2017-01-15T08:45:02.999Z</time>
      </trkpt>
      <trkpt lat="47.49573" lon="6.73553">
        <ele>376.4</ele>
        <time>2017-01-15T08:45:03.999Z</time>
      </trkpt>
      <trkpt lat="47.49576" lon="6.7355">
        <ele>376.8</ele>
        <time>2017-01-15T08:45:04.999Z</time>
      </trkpt>
      <trkpt lat="47.49579" lon="6.73547">
        <ele>377.3</ele>
        <time>2017-01-15T08:45:05.999Z</time>
      </trkpt>
      <trkpt lat="47.49583" lon="6.73543">
        <ele>377.5</ele>
        <time>2017-01-15T08:45:06.999Z</time>
      </trkpt>
      <trkpt lat="47.49586" lon="6.7354">
        <ele>377.3</ele>
        <time>2017-01-15T08:45:07.999Z</time>
      </trkpt>
      <trkpt lat="47.49589" lon="6.73537">
        <ele>377.5</ele>
        <time>2017-01-15T08:45:08.999Z</time>
      </trkpt>
      <trkpt lat="47.49592" lon="6.73534">
        <ele>377.3</ele>
        <time>2017-01-15T08:45:09.999Z</time>
      </trkpt>
      <trkpt lat="47.49596" lon="6.73531">
        <ele>377.3</ele>
        <time>2017-01-15T08:45:10.999Z</time>
      </trkpt>
      <trkpt lat="47.496" lon="6.73528">
        <ele>377.8</ele>
        <time>2017-01-15T08:45:11.999Z</time>
      </trkpt>
      <trkpt lat="47.49604" lon="6.73525">
        <ele>378.2</ele>
        <time>2017-01-15T08:45:12.999Z</time>
      </trkpt>
      <trkpt lat="47.49608" lon="6.73521">
        <ele>378</ele>
        <time>2017-01-15T08:45:13.999Z</time>
      </trkpt>
      <trkpt lat="47.4961" lon="6.73518">
        <ele>377.8</ele>
        <time>2017-01-15T08:45:14.999Z</time>
      </trkpt>
      <trkpt lat="47.49614" lon="6.73515">
        <ele>377.7</ele>
        <time>2017-01-15T08:45:15.999Z</time>
      </trkpt>
      <trkpt lat="47.49617" lon="6.73511">
        <ele>377.8</ele>
        <time>2017-01-15T08:45:16.999Z</time>
      </trkpt>
      <trkpt lat="47.4962" lon="6.73507">
        <ele>378</ele>
        <time>2017-01-15T08:45:17.999Z</time>
      </trkpt>
      <trkpt lat="47.49623" lon="6.73503">
        <ele>378.1</ele>
        <time>2017-01-15T08:45:18.999Z</time>
      </trkpt>
      <trkpt lat="47.49626" lon="6.73499">
        <ele>378</ele>
        <time>2017-01-15T08:45:19.999Z</time>
      </trkpt>
      <trkpt lat="47.49629" lon="6.73496">
        <ele>377.9</ele>
        <time>2017-01-15T08:45:20.999Z</time>
      </trkpt>
      <trkpt lat="47.49631" lon="6.73492">
        <ele>377.5</ele>
        <time>2017-01-15T08:45:21.999Z</time>
      </trkpt>
      <trkpt lat="47.49634" lon="6.73488">
        <ele>377.4</ele>
        <time>2017-01-15T08:45:22.999Z</time>
      </trkpt>
      <trkpt lat="47.49637" lon="6.73483">
        <ele>377</ele>
        <time>2017-01-15T08:45:23.999Z</time>
      </trkpt>
      <trkpt lat="47.4964" lon="6.73479">
        <ele>376.1</ele>
        <time>2017-01-15T08:45:24.999Z</time>
      </trkpt>
      <trkpt lat="47.49643" lon="6.73475">
        <ele>375</ele>
        <time>2017-01-15T08:45:25.999Z</time>
      </trkpt>
      <trkpt lat="47.49646" lon="6.73471">
        <ele>374.2</ele>
        <time>2017-01-15T08:45:26.999Z</time>
      </trkpt>
      <trkpt lat="47.49651" lon="6.73462">
        <ele>372.3</ele>
        <time>2017-01-15T08:45:28.999Z</time>
      </trkpt>
      <trkpt lat="47.49654" lon="6.73458">
        <ele>371.3</ele>
        <time>2017-01-15T08:45:29.999Z</time>
      </trkpt>
      <trkpt lat="47.49657" lon="6.73454">
        <ele>371.1</ele>
        <time>2017-01-15T08:45:30.999Z</time>
      </trkpt>
      <trkpt lat="47.49661" lon="6.7345">
        <ele>371</ele>
        <time>2017-01-15T08:45:31.999Z</time>
      </trkpt>
      <trkpt lat="47.49664" lon="6.73446">
        <ele>371.3</ele>
        <time>2017-01-15T08:45:32.999Z</time>
      </trkpt>
      <trkpt lat="47.49666" lon="6.73442">
        <ele>372.1</ele>
        <time>2017-01-15T08:45:33.999Z</time>
      </trkpt>
      <trkpt lat="47.4967" lon="6.73438">
        <ele>373.2</ele>
        <time>2017-01-15T08:45:34.999Z</time>
      </trkpt>
      <trkpt lat="47.49673" lon="6.73434">
        <ele>374.1</ele>
        <time>2017-01-15T08:45:35.999Z</time>
      </trkpt>
      <trkpt lat="47.49675" lon="6.7343">
        <ele>375.3</ele>
        <time>2017-01-15T08:45:36.999Z</time>
      </trkpt>
      <trkpt lat="47.49678" lon="6.73426">
        <ele>375.9</ele>
        <time>2017-01-15T08:45:37.999Z</time>
      </trkpt>
      <trkpt lat="47.49681" lon="6.73421">
        <ele>375.5</ele>
        <time>2017-01-15T08:45:38.999Z</time>
      </trkpt>
      <trkpt lat="47.49685" lon="6.73416">
        <ele>375.2</ele>
        <time>2017-01-15T08:45:39.999Z</time>
      </trkpt>
      <trkpt lat="47.49688" lon="6.73412">
        <ele>375.1</ele>
        <time>2017-01-15T08:45:40.999Z</time>
      </trkpt>
      <trkpt lat="47.4969" lon="6.73408">
        <ele>375.8</ele>
        <time>2017-01-15T08:45:41.999Z</time>
      </trkpt>
      <trkpt lat="47.49693" lon="6.73405">
        <ele>376.3</ele>
        <time>2017-01-15T08:45:42.999Z</time>
      </trkpt>
      <trkpt lat="47.49695" lon="6.73401">
        <ele>376.7</ele>
        <time>2017-01-15T08:45:43.999Z</time>
      </trkpt>
      <trkpt lat="47.49698" lon="6.73397">
        <ele>376.7</ele>
        <time>2017-01-15T08:45:44.999Z</time>
      </trkpt>
      <trkpt lat="47.49701" lon="6.73394">
        <ele>377.8</ele>
        <time>2017-01-15T08:45:45.999Z</time>
      </trkpt>
      <trkpt lat="47.49704" lon="6.73389">
        <ele>378.9</ele>
        <time>2017-01-15T08:45:46.999Z</time>
      </trkpt>
      <trkpt lat="47.49707" lon="6.73385">
        <ele>379.7</ele>
        <time>2017-01-15T08:45:47.999Z</time>
      </trkpt>
      <trkpt lat="47.49709" lon="6.73381">
        <ele>379.7</ele>
        <time>2017-01-15T08:45:48.999Z</time>
      </trkpt>
      <trkpt lat="47.49712" lon="6.73377">
        <ele>379.9</ele>
        <time>2017-01-15T08:45:49.999Z</time>
      </trkpt>
      <trkpt lat="47.49715" lon="6.73372">
        <ele>379.6</ele>
        <time>2017-01-15T08:45:50.999Z</time>
      </trkpt>
      <trkpt lat="47.49717" lon="6.73368">
        <ele>379.5</ele>
        <time>2017-01-15T08:45:51.999Z</time>
      </trkpt>
      <trkpt lat="47.49719" lon="6.73364">
        <ele>379.4</ele>
        <time>2017-01-15T08:45:52.999Z</time>
      </trkpt>
      <trkpt lat="47.49722" lon="6.7336">
        <ele>379.3</ele>
        <time>2017-01-15T08:45:53.999Z</time>
      </trkpt>
      <trkpt lat="47.49725" lon="6.73356">
        <ele>379.6</ele>
        <time>2017-01-15T08:45:54.999Z</time>
      </trkpt>
      <trkpt lat="47.49728" lon="6.73352">
        <ele>380.3</ele>
        <time>2017-01-15T08:45:55.999Z</time>
      </trkpt>
      <trkpt lat="47.49731" lon="6.73348">
        <ele>380.8</ele>
        <time>2017-01-15T08:45:56.999Z</time>
      </trkpt>
      <trkpt lat="47.49734" lon="6.73343">
        <ele>381.7</ele>
        <time>2017-01-15T08:45:57.999Z</time>
      </trkpt>
      <trkpt lat="47.49737" lon="6.73338">
        <ele>382</ele>
        <time>2017-01-15T08:45:58.999Z</time>
      </trkpt>
      <trkpt lat="47.4974" lon="6.73334">
        <ele>382.4</ele>
        <time>2017-01-15T08:45:59.999Z</time>
      </trkpt>
      <trkpt lat="47.49743" lon="6.7333">
        <ele>382.6</ele>
        <time>2017-01-15T08:46:00.999Z</time>
      </trkpt>
      <trkpt lat="47.49746" lon="6.73326">
        <ele>382.9</ele>
        <time>2017-01-15T08:46:01.999Z</time>
      </trkpt>
      <trkpt lat="47.49748" lon="6.73323">
        <ele>383.1</ele>
        <time>2017-01-15T08:46:02.999Z</time>
      </trkpt>
      <trkpt lat="47.49751" lon="6.73319">
        <ele>383.7</ele>
        <time>2017-01-15T08:46:03.999Z</time>
      </trkpt>
      <trkpt lat="47.49753" lon="6.73314">
        <ele>383.8</ele>
        <time>2017-01-15T08:46:04.999Z</time>
      </trkpt>
      <trkpt lat="47.49757" lon="6.7331">
        <ele>383.6</ele>
        <time>2017-01-15T08:46:05.999Z</time>
      </trkpt>
      <trkpt lat="47.4976" lon="6.73305">
        <ele>383.2</ele>
        <time>2017-01-15T08:46:06.999Z</time>
      </trkpt>
      <trkpt lat="47.49763" lon="6.73301">
        <ele>383.1</ele>
        <time>2017-01-15T08:46:07.999Z</time>
      </trkpt>
      <trkpt lat="47.49766" lon="6.73296">
        <ele>383.2</ele>
        <time>2017-01-15T08:46:08.999Z</time>
      </trkpt>
      <trkpt lat="47.4977" lon="6.73291">
        <ele>383.1</ele>
        <time>2017-01-15T08:46:09.999Z</time>
      </trkpt>
      <trkpt lat="47.49772" lon="6.73287">
        <ele>382.6</ele>
        <time>2017-01-15T08:46:10.999Z</time>
      </trkpt>
      <trkpt lat="47.49774" lon="6.73283">
        <ele>382.1</ele>
        <time>2017-01-15T08:46:11.999Z</time>
      </trkpt>
      <trkpt lat="47.49777" lon="6.73278">
        <ele>382.1</ele>
        <time>2017-01-15T08:46:12.999Z</time>
      </trkpt>
      <trkpt lat="47.49779" lon="6.73275">
        <ele>382</ele>
        <time>2017-01-15T08:46:13.999Z</time>
      </trkpt>
      <trkpt lat="47.4978" lon="6.73271">
        <ele>381.3</ele>
        <time>2017-01-15T08:46:14.999Z</time>
      </trkpt>
      <trkpt lat="47.49783" lon="6.73265">
        <ele>381.3</ele>
        <time>2017-01-15T08:46:15.999Z</time>
      </trkpt>
      <trkpt lat="47.49785" lon="6.73261">
        <ele>381.2</ele>
        <time>2017-01-15T08:46:16.999Z</time>
      </trkpt>
      <trkpt lat="47.49786" lon="6.73257">
        <ele>381.1</ele>
        <time>2017-01-15T08:46:17.999Z</time>
      </trkpt>
      <trkpt lat="47.49788" lon="6.73253">
        <ele>381</ele>
        <time>2017-01-15T08:46:18.999Z</time>
      </trkpt>
      <trkpt lat="47.4979" lon="6.73248">
        <ele>380.9</ele>
        <time>2017-01-15T08:46:19.999Z</time>
      </trkpt>
      <trkpt lat="47.49792" lon="6.73244">
        <ele>380.8</ele>
        <time>2017-01-15T08:46:20.999Z</time>
      </trkpt>
      <trkpt lat="47.49794" lon="6.73239">
        <ele>380.7</ele>
        <time>2017-01-15T08:46:21.999Z</time>
      </trkpt>
      <trkpt lat="47.49796" lon="6.73235">
        <ele>380.6</ele>
        <time>2017-01-15T08:46:22.999Z</time>
      </trkpt>
      <trkpt lat="47.49798" lon="6.73231">
        <ele>380.6</ele>
        <time>2017-01-15T08:46:23.999Z</time>
      </trkpt>
      <trkpt lat="47.498" lon="6.73226">
        <ele>380.5</ele>
        <time>2017-01-15T08:46:24.999Z</time>
      </trkpt>
      <trkpt lat="47.49802" lon="6.73222">
        <ele>380.5</ele>
        <time>2017-01-15T08:46:25.999Z</time>
      </trkpt>
      <trkpt lat="47.49803" lon="6.73218">
        <ele>380.4</ele>
        <time>2017-01-15T08:46:26.999Z</time>
      </trkpt>
      <trkpt lat="47.49806" lon="6.73209">
        <ele>380.4</ele>
        <time>2017-01-15T08:46:28.999Z</time>
      </trkpt>
      <trkpt lat="47.49808" lon="6.73205">
        <ele>380.4</ele>
        <time>2017-01-15T08:46:29.999Z</time>
      </trkpt>
      <trkpt lat="47.49809" lon="6.73201">
        <ele>380.3</ele>
        <time>2017-01-15T08:46:30.999Z</time>
      </trkpt>
      <trkpt lat="47.4981" lon="6.73196">
        <ele>380.3</ele>
        <time>2017-01-15T08:46:31.999Z</time>
      </trkpt>
      <trkpt lat="47.49811" lon="6.73191">
        <ele>380.3</ele>
        <time>2017-01-15T08:46:32.999Z</time>
      </trkpt>
      <trkpt lat="47.49812" lon="6.73187">
        <ele>380.2</ele>
        <time>2017-01-15T08:46:33.999Z</time>
      </trkpt>
      <trkpt lat="47.49814" lon="6.73182">
        <ele>380.2</ele>
        <time>2017-01-15T08:46:34.999Z</time>
      </trkpt>
      <trkpt lat="47.49815" lon="6.73178">
        <ele>380</ele>
        <time>2017-01-15T08:46:35.999Z</time>
      </trkpt>
      <trkpt lat="47.49816" lon="6.73175">
        <ele>379.9</ele>
        <time>2017-01-15T08:46:36.999Z</time>
      </trkpt>
      <trkpt lat="47.49818" lon="6.73169">
        <ele>379.7</ele>
        <time>2017-01-15T08:46:37.999Z</time>
      </trkpt>
      <trkpt lat="47.49819" lon="6.73165">
        <ele>379.6</ele>
        <time>2017-01-15T08:46:38.999Z</time>
      </trkpt>
      <trkpt lat="47.4982" lon="6.73161">
        <ele>379.6</ele>
        <time>2017-01-15T08:46:39.999Z</time>
      </trkpt>
      <trkpt lat="47.49821" lon="6.73155">
        <ele>379.5</ele>
        <time>2017-01-15T08:46:40.999Z</time>
      </trkpt>
      <trkpt lat="47.49822" lon="6.7315">
        <ele>379.5</ele>
        <time>2017-01-15T08:46:41.999Z</time>
      </trkpt>
      <trkpt lat="47.49823" lon="6.73145">
        <ele>379.5</ele>
        <time>2017-01-15T08:46:42.999Z</time>
      </trkpt>
      <trkpt lat="47.49824" lon="6.73141">
        <ele>379.6</ele>
        <time>2017-01-15T08:46:43.999Z</time>
      </trkpt>
      <trkpt lat="47.49824" lon="6.73138">
        <ele>379.6</ele>
        <time>2017-01-15T08:46:44.999Z</time>
      </trkpt>
      <trkpt lat="47.49825" lon="6.73135">
        <ele>379.7</ele>
        <time>2017-01-15T08:46:45.999Z</time>
      </trkpt>
      <trkpt lat="47.49826" lon="6.73131">
        <ele>379.7</ele>
        <time>2017-01-15T08:46:46.999Z</time>
      </trkpt>
      <trkpt lat="47.49829" lon="6.73126">
        <ele>379.7</ele>
        <time>2017-01-15T08:46:48.999Z</time>
      </trkpt>
      <trkpt lat="47.49829" lon="6.73123">
        <ele>379.7</ele>
        <time>2017-01-15T08:46:49.999Z</time>
      </trkpt>
      <trkpt lat="47.4983" lon="6.7312">
        <ele>379.7</ele>
        <time>2017-01-15T08:46:50.999Z</time>
      </trkpt>
      <trkpt lat="47.49831" lon="6.73116">
        <ele>379.7</ele>
        <time>2017-01-15T08:46:51.999Z</time>
      </trkpt>
      <trkpt lat="47.49831" lon="6.73113">
        <ele>379.7</ele>
        <time>2017-01-15T08:46:52.999Z</time>
      </trkpt>
      <trkpt lat="47.49832" lon="6.73109">
        <ele>379.7</ele>
        <time>2017-01-15T08:46:53.999Z</time>
      </trkpt>
      <trkpt lat="47.49833" lon="6.73104">
        <ele>379.8</ele>
        <time>2017-01-15T08:46:54.999Z</time>
      </trkpt>
      <trkpt lat="47.49835" lon="6.731">
        <ele>379.8</ele>
        <time>2017-01-15T08:46:55.999Z</time>
      </trkpt>
      <trkpt lat="47.49837" lon="6.73096">
        <ele>379.7</ele>
        <time>2017-01-15T08:46:56.999Z</time>
      </trkpt>
      <trkpt lat="47.49838" lon="6.73092">
        <ele>379.8</ele>
        <time>2017-01-15T08:46:57.999Z</time>
      </trkpt>
      <trkpt lat="47.49839" lon="6.73088">
        <ele>379.8</ele>
        <time>2017-01-15T08:46:58.999Z</time>
      </trkpt>
      <trkpt lat="47.4984" lon="6.73084">
        <ele>379.7</ele>
        <time>2017-01-15T08:46:59.999Z</time>
      </trkpt>
      <trkpt lat="47.49841" lon="6.73081">
        <ele>379.7</ele>
        <time>2017-01-15T08:47:00.999Z</time>
      </trkpt>
      <trkpt lat="47.49842" lon="6.73077">
        <ele>379.7</ele>
        <time>2017-01-15T08:47:01.999Z</time>
      </trkpt>
      <trkpt lat="47.49843" lon="6.73073">
        <ele>379.7</ele>
        <time>2017-01-15T08:47:02.999Z</time>
      </trkpt>
      <trkpt lat="47.49844" lon="6.73069">
        <ele>379.7</ele>
        <time>2017-01-15T08:47:03.999Z</time>
      </trkpt>
      <trkpt lat="47.49844" lon="6.73065">
        <ele>379.7</ele>
        <time>2017-01-15T08:47:04.999Z</time>
      </trkpt>
      <trkpt lat="47.49846" lon="6.73062">
        <ele>379.8</ele>
        <time>2017-01-15T08:47:05.999Z</time>
      </trkpt>
      <trkpt lat="47.49847" lon="6.73057">
        <ele>379.8</ele>
        <time>2017-01-15T08:47:06.999Z</time>
      </trkpt>
      <trkpt lat="47.49849" lon="6.73053">
        <ele>379.9</ele>
        <time>2017-01-15T08:47:07.999Z</time>
      </trkpt>
      <trkpt lat="47.49851" lon="6.73048">
        <ele>380</ele>
        <time>2017-01-15T08:47:08.999Z</time>
      </trkpt>
      <trkpt lat="47.49853" lon="6.73042">
        <ele>380</ele>
        <time>2017-01-15T08:47:09.999Z</time>
      </trkpt>
      <trkpt lat="47.49854" lon="6.73038">
        <ele>380.1</ele>
        <time>2017-01-15T08:47:10.999Z</time>
      </trkpt>
      <trkpt lat="47.49856" lon="6.73034">
        <ele>380.1</ele>
        <time>2017-01-15T08:47:11.999Z</time>
      </trkpt>
      <trkpt lat="47.49857" lon="6.73031">
        <ele>380.1</ele>
        <time>2017-01-15T08:47:12.999Z</time>
      </trkpt>
      <trkpt lat="47.49859" lon="6.73027">
        <ele>380.2</ele>
        <time>2017-01-15T08:47:13.999Z</time>
      </trkpt>
      <trkpt lat="47.49861" lon="6.73024">
        <ele>380.1</ele>
        <time>2017-01-15T08:47:14.999Z</time>
      </trkpt>
      <trkpt lat="47.49862" lon="6.73021">
        <ele>380.2</ele>
        <time>2017-01-15T08:47:15.999Z</time>
      </trkpt>
      <trkpt lat="47.49864" lon="6.73017">
        <ele>380.2</ele>
        <time>2017-01-15T08:47:16.999Z</time>
      </trkpt>
      <trkpt lat="47.49865" lon="6.73013">
        <ele>380.2</ele>
        <time>2017-01-15T08:47:17.999Z</time>
      </trkpt>
      <trkpt lat="47.49867" lon="6.7301">
        <ele>380.3</ele>
        <time>2017-01-15T08:47:18.999Z</time>
      </trkpt>
      <trkpt lat="47.49868" lon="6.73007">
        <ele>380.3</ele>
        <time>2017-01-15T08:47:19.999Z</time>
      </trkpt>
      <trkpt lat="47.4987" lon="6.73003">
        <ele>380.3</ele>
        <time>2017-01-15T08:47:20.999Z</time>
      </trkpt>
      <trkpt lat="47.49872" lon="6.72998">
        <ele>380.3</ele>
        <time>2017-01-15T08:47:21.999Z</time>
      </trkpt>
      <trkpt lat="47.49873" lon="6.72994">
        <ele>380.3</ele>
        <time>2017-01-15T08:47:22.999Z</time>
      </trkpt>
      <trkpt lat="47.49874" lon="6.72989">
        <ele>380.3</ele>
        <time>2017-01-15T08:47:23.999Z</time>
      </trkpt>
      <trkpt lat="47.49876" lon="6.72985">
        <ele>380.3</ele>
        <time>2017-01-15T08:47:24.999Z</time>
      </trkpt>
      <trkpt lat="47.49877" lon="6.7298">
        <ele>380.3</ele>
        <time>2017-01-15T08:47:25.999Z</time>
      </trkpt>
      <trkpt lat="47.49879" lon="6.72976">
        <ele>380.3</ele>
        <time>2017-01-15T08:47:26.999Z</time>
      </trkpt>
      <trkpt lat="47.49884" lon="6.72966">
        <ele>380.2</ele>
        <time>2017-01-15T08:47:28.999Z</time>
      </trkpt>
      <trkpt lat="47.49886" lon="6.72961">
        <ele>380.1</ele>
        <time>2017-01-15T08:47:29.999Z</time>
      </trkpt>
      <trkpt lat="47.49888" lon="6.72957">
        <ele>380.1</ele>
        <time>2017-01-15T08:47:30.999Z</time>
      </trkpt>
      <trkpt lat="47.49891" lon="6.72953">
        <ele>380.5</ele>
        <time>2017-01-15T08:47:31.999Z</time>
      </trkpt>
      <trkpt lat="47.49893" lon="6.72948">
        <ele>381.5</ele>
        <time>2017-01-15T08:47:32.999Z</time>
      </trkpt>
      <trkpt lat="47.49895" lon="6.72946">
        <ele>381.5</ele>
        <time>2017-01-15T08:47:33.999Z</time>
      </trkpt>
      <trkpt lat="47.49898" lon="6.72947">
        <ele>381.1</ele>
        <time>2017-01-15T08:47:34.999Z</time>
      </trkpt>
      <trkpt lat="47.49902" lon="6.7295">
        <ele>381.1</ele>
        <time>2017-01-15T08:47:36.999Z</time>
      </trkpt>
      <trkpt lat="47.49905" lon="6.72952">
        <ele>381.1</ele>
        <time>2017-01-15T08:47:37.999Z</time>
      </trkpt>
      <trkpt lat="47.49909" lon="6.72953">
        <ele>380.2</ele>
        <time>2017-01-15T08:47:38.999Z</time>
      </trkpt>
      <trkpt lat="47.49913" lon="6.72955">
        <ele>380.2</ele>
        <time>2017-01-15T08:47:39.999Z</time>
      </trkpt>
      <trkpt lat="47.49919" lon="6.72956">
        <ele>380.4</ele>
        <time>2017-01-15T08:47:40.999Z</time>
      </trkpt>
      <trkpt lat="47.49924" lon="6.72958">
        <ele>380.7</ele>
        <time>2017-01-15T08:47:41.999Z</time>
      </trkpt>
      <trkpt lat="47.49931" lon="6.72961">
        <ele>380.9</ele>
        <time>2017-01-15T08:47:42.999Z</time>
      </trkpt>
      <trkpt lat="47.49937" lon="6.72965">
        <ele>381.4</ele>
        <time>2017-01-15T08:47:43.999Z</time>
      </trkpt>
      <trkpt lat="47.49944" lon="6.72967">
        <ele>381.6</ele>
        <time>2017-01-15T08:47:44.999Z</time>
      </trkpt>
      <trkpt lat="47.49949" lon="6.72968">
        <ele>381.8</ele>
        <time>2017-01-15T08:47:45.999Z</time>
      </trkpt>
      <trkpt lat="47.49954" lon="6.72969">
        <ele>382.1</ele>
        <time>2017-01-15T08:47:46.999Z</time>
      </trkpt>
      <trkpt lat="47.4996" lon="6.72971">
        <ele>382.5</ele>
        <time>2017-01-15T08:47:47.999Z</time>
      </trkpt>
      <trkpt lat="47.49966" lon="6.72973">
        <ele>382.7</ele>
        <time>2017-01-15T08:47:48.999Z</time>
      </trkpt>
      <trkpt lat="47.49971" lon="6.72976">
        <ele>382.7</ele>
        <time>2017-01-15T08:47:49.999Z</time>
      </trkpt>
      <trkpt lat="47.49975" lon="6.72979">
        <ele>382.3</ele>
        <time>2017-01-15T08:47:50.999Z</time>
      </trkpt>
      <trkpt lat="47.49977" lon="6.72983">
        <ele>382.1</ele>
        <time>2017-01-15T08:47:51.999Z</time>
      </trkpt>
      <trkpt lat="47.49981" lon="6.72987">
        <ele>381</ele>
        <time>2017-01-15T08:47:52.999Z</time>
      </trkpt>
      <trkpt lat="47.49983" lon="6.7299">
        <ele>380.3</ele>
        <time>2017-01-15T08:47:53.999Z</time>
      </trkpt>
      <trkpt lat="47.49987" lon="6.72995">
        <ele>380.2</ele>
        <time>2017-01-15T08:47:54.999Z</time>
      </trkpt>
      <trkpt lat="47.4999" lon="6.73">
        <ele>380.2</ele>
        <time>2017-01-15T08:47:55.999Z</time>
      </trkpt>
      <trkpt lat="47.49994" lon="6.73005">
        <ele>380.2</ele>
        <time>2017-01-15T08:47:56.999Z</time>
      </trkpt>
      <trkpt lat="47.49996" lon="6.73009">
        <ele>380.3</ele>
        <time>2017-01-15T08:47:57.999Z</time>
      </trkpt>
      <trkpt lat="47.49999" lon="6.73013">
        <ele>380.6</ele>
        <time>2017-01-15T08:47:58.999Z</time>
      </trkpt>
      <trkpt lat="47.50001" lon="6.73017">
        <ele>380.6</ele>
        <time>2017-01-15T08:47:59.999Z</time>
      </trkpt>
      <trkpt lat="47.50004" lon="6.73021">
        <ele>381</ele>
        <time>2017-01-15T08:48:00.999Z</time>
      </trkpt>
      <trkpt lat="47.50007" lon="6.73026">
        <ele>381.2</ele>
        <time>2017-01-15T08:48:01.999Z</time>
      </trkpt>
      <trkpt lat="47.50011" lon="6.7303">
        <ele>381.1</ele>
        <time>2017-01-15T08:48:02.999Z</time>
      </trkpt>
      <trkpt lat="47.50015" lon="6.73035">
        <ele>381</ele>
        <time>2017-01-15T08:48:03.999Z</time>
      </trkpt>
      <trkpt lat="47.50019" lon="6.73038">
        <ele>381</ele>
        <time>2017-01-15T08:48:04.999Z</time>
      </trkpt>
      <trkpt lat="47.50022" lon="6.73042">
        <ele>381.1</ele>
        <time>2017-01-15T08:48:05.999Z</time>
      </trkpt>
      <trkpt lat="47.50025" lon="6.73044">
        <ele>381.1</ele>
        <time>2017-01-15T08:48:06.999Z</time>
      </trkpt>
      <trkpt lat="47.50028" lon="6.73047">
        <ele>381.1</ele>
        <time>2017-01-15T08:48:07.999Z</time>
      </trkpt>
      <trkpt lat="47.50032" lon="6.7305">
        <ele>381.1</ele>
        <time>2017-01-15T08:48:08.999Z</time>
      </trkpt>
      <trkpt lat="47.50034" lon="6.73053">
        <ele>381</ele>
        <time>2017-01-15T08:48:09.999Z</time>
      </trkpt>
      <trkpt lat="47.50037" lon="6.73057">
        <ele>381.1</ele>
        <time>2017-01-15T08:48:10.999Z</time>
      </trkpt>
      <trkpt lat="47.5004" lon="6.7306">
        <ele>381.1</ele>
        <time>2017-01-15T08:48:11.999Z</time>
      </trkpt>
      <trkpt lat="47.50043" lon="6.73064">
        <ele>381</ele>
        <time>2017-01-15T08:48:12.999Z</time>
      </trkpt>
      <trkpt lat="47.50047" lon="6.73068">
        <ele>381.2</ele>
        <time>2017-01-15T08:48:13.999Z</time>
      </trkpt>
      <trkpt lat="47.5005" lon="6.73072">
        <ele>381.3</ele>
        <time>2017-01-15T08:48:14.999Z</time>
      </trkpt>
      <trkpt lat="47.50054" lon="6.73076">
        <ele>381.3</ele>
        <time>2017-01-15T08:48:15.999Z</time>
      </trkpt>
      <trkpt lat="47.50057" lon="6.7308">
        <ele>381.5</ele>
        <time>2017-01-15T08:48:16.999Z</time>
      </trkpt>
      <trkpt lat="47.5006" lon="6.73084">
        <ele>381.9</ele>
        <time>2017-01-15T08:48:17.999Z</time>
      </trkpt>
      <trkpt lat="47.50064" lon="6.73087">
        <ele>382.5</ele>
        <time>2017-01-15T08:48:18.999Z</time>
      </trkpt>
      <trkpt lat="47.50069" lon="6.73091">
        <ele>382.8</ele>
        <time>2017-01-15T08:48:19.999Z</time>
      </trkpt>
      <trkpt lat="47.50073" lon="6.73094">
        <ele>383.3</ele>
        <time>2017-01-15T08:48:20.999Z</time>
      </trkpt>
      <trkpt lat="47.50077" lon="6.73098">
        <ele>383.6</ele>
        <time>2017-01-15T08:48:21.999Z</time>
      </trkpt>
      <trkpt lat="47.5008" lon="6.73101">
        <ele>383.9</ele>
        <time>2017-01-15T08:48:22.999Z</time>
      </trkpt>
      <trkpt lat="47.50084" lon="6.73104">
        <ele>384.2</ele>
        <time>2017-01-15T08:48:23.999Z</time>
      </trkpt>
      <trkpt lat="47.50087" lon="6.73106">
        <ele>384.3</ele>
        <time>2017-01-15T08:48:24.999Z</time>
      </trkpt>
      <trkpt lat="47.5009" lon="6.73109">
        <ele>384.3</ele>
        <time>2017-01-15T08:48:25.999Z</time>
      </trkpt>
      <trkpt lat="47.50094" lon="6.73111">
        <ele>384.1</ele>
        <time>2017-01-15T08:48:26.999Z</time>
      </trkpt>
      <trkpt lat="47.50101" lon="6.73117">
        <ele>382.9</ele>
        <time>2017-01-15T08:48:28.999Z</time>
      </trkpt>
      <trkpt lat="47.50105" lon="6.73119">
        <ele>382.7</ele>
        <time>2017-01-15T08:48:29.999Z</time>
      </trkpt>
      <trkpt lat="47.50109" lon="6.73121">
        <ele>382.6</ele>
        <time>2017-01-15T08:48:30.999Z</time>
      </trkpt>
      <trkpt lat="47.50112" lon="6.73121">
        <ele>382.5</ele>
        <time>2017-01-15T08:48:31.999Z</time>
      </trkpt>
      <trkpt lat="47.50116" lon="6.73122">
        <ele>382.3</ele>
        <time>2017-01-15T08:48:32.999Z</time>
      </trkpt>
      <trkpt lat="47.50121" lon="6.73122">
        <ele>382.3</ele>
        <time>2017-01-15T08:48:33.999Z</time>
      </trkpt>
      <trkpt lat="47.50125" lon="6.73122">
        <ele>382.2</ele>
        <time>2017-01-15T08:48:34.999Z</time>
      </trkpt>
      <trkpt lat="47.50129" lon="6.73123">
        <ele>382.1</ele>
        <time>2017-01-15T08:48:35.999Z</time>
      </trkpt>
      <trkpt lat="47.50132" lon="6.73123">
        <ele>382</ele>
        <time>2017-01-15T08:48:36.999Z</time>
      </trkpt>
      <trkpt lat="47.50135" lon="6.73123">
        <ele>381.9</ele>
        <time>2017-01-15T08:48:37.999Z</time>
      </trkpt>
      <trkpt lat="47.50138" lon="6.73124">
        <ele>381.8</ele>
        <time>2017-01-15T08:48:38.999Z</time>
      </trkpt>
      <trkpt lat="47.5014" lon="6.73124">
        <ele>381.8</ele>
        <time>2017-01-15T08:48:39.999Z</time>
      </trkpt>
      <trkpt lat="47.50143" lon="6.73124">
        <ele>381.7</ele>
        <time>2017-01-15T08:48:40.999Z</time>
      </trkpt>
      <trkpt lat="47.50146" lon="6.73123">
        <ele>381.6</ele>
        <time>2017-01-15T08:48:41.999Z</time>
      </trkpt>
      <trkpt lat="47.50149" lon="6.73123">
        <ele>381.7</ele>
        <time>2017-01-15T08:48:42.999Z</time>
      </trkpt>
      <trkpt lat="47.50151" lon="6.73123">
        <ele>381.7</ele>
        <time>2017-01-15T08:48:43.999Z</time>
      </trkpt>
      <trkpt lat="47.50155" lon="6.73123">
        <ele>381.7</ele>
        <time>2017-01-15T08:48:44.999Z</time>
      </trkpt>
      <trkpt lat="47.50159" lon="6.73122">
        <ele>381.8</ele>
        <time>2017-01-15T08:48:45.999Z</time>
      </trkpt>
      <trkpt lat="47.50162" lon="6.73121">
        <ele>381.9</ele>
        <time>2017-01-15T08:48:46.999Z</time>
      </trkpt>
      <trkpt lat="47.50165" lon="6.7312">
        <ele>382</ele>
        <time>2017-01-15T08:48:47.999Z</time>
      </trkpt>
      <trkpt lat="47.50169" lon="6.73119">
        <ele>382.2</ele>
        <time>2017-01-15T08:48:48.999Z</time>
      </trkpt>
      <trkpt lat="47.50172" lon="6.73119">
        <ele>382.3</ele>
        <time>2017-01-15T08:48:49.999Z</time>
      </trkpt>
      <trkpt lat="47.50175" lon="6.7312">
        <ele>382.5</ele>
        <time>2017-01-15T08:48:50.999Z</time>
      </trkpt>
      <trkpt lat="47.50179" lon="6.73121">
        <ele>382.6</ele>
        <time>2017-01-15T08:48:51.999Z</time>
      </trkpt>
      <trkpt lat="47.50182" lon="6.73121">
        <ele>382.6</ele>
        <time>2017-01-15T08:48:52.999Z</time>
      </trkpt>
      <trkpt lat="47.50185" lon="6.73121">
        <ele>382.7</ele>
        <time>2017-01-15T08:48:53.999Z</time>
      </trkpt>
      <trkpt lat="47.50189" lon="6.73121">
        <ele>382.7</ele>
        <time>2017-01-15T08:48:54.999Z</time>
      </trkpt>
      <trkpt lat="47.50192" lon="6.7312">
        <ele>382.7</ele>
        <time>2017-01-15T08:48:55.999Z</time>
      </trkpt>
      <trkpt lat="47.50196" lon="6.73119">
        <ele>382.8</ele>
        <time>2017-01-15T08:48:56.999Z</time>
      </trkpt>
      <trkpt lat="47.50197" lon="6.73118">
        <ele>382.9</ele>
        <time>2017-01-15T08:48:57.999Z</time>
      </trkpt>
      <trkpt lat="47.50199" lon="6.73115">
        <ele>383</ele>
        <time>2017-01-15T08:48:58.999Z</time>
      </trkpt>
      <trkpt lat="47.50201" lon="6.7311">
        <ele>383.1</ele>
        <time>2017-01-15T08:48:59.999Z</time>
      </trkpt>
      <trkpt lat="47.50202" lon="6.73106">
        <ele>383.1</ele>
        <time>2017-01-15T08:49:00.999Z</time>
      </trkpt>
      <trkpt lat="47.50204" lon="6.731">
        <ele>383.2</ele>
        <time>2017-01-15T08:49:01.999Z</time>
      </trkpt>
      <trkpt lat="47.50206" lon="6.73095">
        <ele>383.2</ele>
        <time>2017-01-15T08:49:02.999Z</time>
      </trkpt>
      <trkpt lat="47.50208" lon="6.73089">
        <ele>383.3</ele>
        <time>2017-01-15T08:49:03.999Z</time>
      </trkpt>
      <trkpt lat="47.50209" lon="6.73083">
        <ele>383.3</ele>
        <time>2017-01-15T08:49:04.999Z</time>
      </trkpt>
      <trkpt lat="47.5021" lon="6.73079">
        <ele>383.3</ele>
        <time>2017-01-15T08:49:05.999Z</time>
      </trkpt>
      <trkpt lat="47.50212" lon="6.73075">
        <ele>383.3</ele>
        <time>2017-01-15T08:49:06.999Z</time>
      </trkpt>
      <trkpt lat="47.50214" lon="6.73071">
        <ele>383.2</ele>
        <time>2017-01-15T08:49:07.999Z</time>
      </trkpt>
      <trkpt lat="47.50215" lon="6.73067">
        <ele>383.1</ele>
        <time>2017-01-15T08:49:08.999Z</time>
      </trkpt>
      <trkpt lat="47.50217" lon="6.73063">
        <ele>383.1</ele>
        <time>2017-01-15T08:49:09.999Z</time>
      </trkpt>
      <trkpt lat="47.50219" lon="6.73058">
        <ele>383</ele>
        <time>2017-01-15T08:49:10.999Z</time>
      </trkpt>
      <trkpt lat="47.5022" lon="6.73052">
        <ele>381.9</ele>
        <time>2017-01-15T08:49:11.999Z</time>
      </trkpt>
      <trkpt lat="47.50222" lon="6.73047">
        <ele>381.8</ele>
        <time>2017-01-15T08:49:12.999Z</time>
      </trkpt>
      <trkpt lat="47.50224" lon="6.73041">
        <ele>380.8</ele>
        <time>2017-01-15T08:49:13.999Z</time>
      </trkpt>
      <trkpt lat="47.50225" lon="6.73037">
        <ele>380.7</ele>
        <time>2017-01-15T08:49:14.999Z</time>
      </trkpt>
      <trkpt lat="47.50227" lon="6.73032">
        <ele>380.6</ele>
        <time>2017-01-15T08:49:15.999Z</time>
      </trkpt>
      <trkpt lat="47.50229" lon="6.73026">
        <ele>379.5</ele>
        <time>2017-01-15T08:49:16.999Z</time>
      </trkpt>
      <trkpt lat="47.5023" lon="6.73021">
        <ele>379.4</ele>
        <time>2017-01-15T08:49:17.999Z</time>
      </trkpt>
      <trkpt lat="47.50232" lon="6.73015">
        <ele>379.3</ele>
        <time>2017-01-15T08:49:18.999Z</time>
      </trkpt>
      <trkpt lat="47.50234" lon="6.73009">
        <ele>379.2</ele>
        <time>2017-01-15T08:49:19.999Z</time>
      </trkpt>
      <trkpt lat="47.50235" lon="6.73004">
        <ele>379.2</ele>
        <time>2017-01-15T08:49:20.999Z</time>
      </trkpt>
      <trkpt lat="47.50237" lon="6.72999">
        <ele>379.2</ele>
        <time>2017-01-15T08:49:21.999Z</time>
      </trkpt>
      <trkpt lat="47.50239" lon="6.72994">
        <ele>379.3</ele>
        <time>2017-01-15T08:49:22.999Z</time>
      </trkpt>
      <trkpt lat="47.50242" lon="6.72989">
        <ele>379.1</ele>
        <time>2017-01-15T08:49:23.999Z</time>
      </trkpt>
      <trkpt lat="47.50244" lon="6.72983">
        <ele>379.1</ele>
        <time>2017-01-15T08:49:24.999Z</time>
      </trkpt>
      <trkpt lat="47.50247" lon="6.72977">
        <ele>379.1</ele>
        <time>2017-01-15T08:49:25.999Z</time>
      </trkpt>
      <trkpt lat="47.5025" lon="6.72972">
        <ele>379</ele>
        <time>2017-01-15T08:49:26.999Z</time>
      </trkpt>
      <trkpt lat="47.50255" lon="6.72963">
        <ele>378.9</ele>
        <time>2017-01-15T08:49:28.999Z</time>
      </trkpt>
      <trkpt lat="47.50257" lon="6.72958">
        <ele>378.9</ele>
        <time>2017-01-15T08:49:29.999Z</time>
      </trkpt>
      <trkpt lat="47.50259" lon="6.72954">
        <ele>379</ele>
        <time>2017-01-15T08:49:30.999Z</time>
      </trkpt>
      <trkpt lat="47.50261" lon="6.72951">
        <ele>379.1</ele>
        <time>2017-01-15T08:49:31.999Z</time>
      </trkpt>
      <trkpt lat="47.50263" lon="6.72946">
        <ele>379.1</ele>
        <time>2017-01-15T08:49:32.999Z</time>
      </trkpt>
      <trkpt lat="47.50265" lon="6.7294">
        <ele>379</ele>
        <time>2017-01-15T08:49:33.999Z</time>
      </trkpt>
      <trkpt lat="47.50267" lon="6.72936">
        <ele>378.9</ele>
        <time>2017-01-15T08:49:34.999Z</time>
      </trkpt>
      <trkpt lat="47.50269" lon="6.72931">
        <ele>378.8</ele>
        <time>2017-01-15T08:49:35.999Z</time>
      </trkpt>
      <trkpt lat="47.5027" lon="6.72927">
        <ele>378.7</ele>
        <time>2017-01-15T08:49:36.999Z</time>
      </trkpt>
      <trkpt lat="47.50271" lon="6.72922">
        <ele>378.6</ele>
        <time>2017-01-15T08:49:37.999Z</time>
      </trkpt>
      <trkpt lat="47.50273" lon="6.72918">
        <ele>378.6</ele>
        <time>2017-01-15T08:49:38.999Z</time>
      </trkpt>
      <trkpt lat="47.50274" lon="6.72914">
        <ele>378.5</ele>
        <time>2017-01-15T08:49:39.999Z</time>
      </trkpt>
      <trkpt lat="47.50274" lon="6.7291">
        <ele>378.5</ele>
        <time>2017-01-15T08:49:40.999Z</time>
      </trkpt>
      <trkpt lat="47.50275" lon="6.72906">
        <ele>378.5</ele>
        <time>2017-01-15T08:49:41.999Z</time>
      </trkpt>
      <trkpt lat="47.50277" lon="6.72902">
        <ele>378.5</ele>
        <time>2017-01-15T08:49:42.999Z</time>
      </trkpt>
      <trkpt lat="47.50279" lon="6.729">
        <ele>378.5</ele>
        <time>2017-01-15T08:49:43.999Z</time>
      </trkpt>
      <trkpt lat="47.50282" lon="6.72898">
        <ele>378.6</ele>
        <time>2017-01-15T08:49:44.999Z</time>
      </trkpt>
      <trkpt lat="47.50286" lon="6.72898">
        <ele>378.6</ele>
        <time>2017-01-15T08:49:45.999Z</time>
      </trkpt>
      <trkpt lat="47.50288" lon="6.72898">
        <ele>378.7</ele>
        <time>2017-01-15T08:49:46.999Z</time>
      </trkpt>
      <trkpt lat="47.50291" lon="6.72899">
        <ele>378.8</ele>
        <time>2017-01-15T08:49:47.999Z</time>
      </trkpt>
      <trkpt lat="47.50294" lon="6.729">
        <ele>378.9</ele>
        <time>2017-01-15T08:49:48.999Z</time>
      </trkpt>
      <trkpt lat="47.50297" lon="6.72901">
        <ele>379</ele>
        <time>2017-01-15T08:49:49.999Z</time>
      </trkpt>
      <trkpt lat="47.50301" lon="6.72902">
        <ele>379.2</ele>
        <time>2017-01-15T08:49:50.999Z</time>
      </trkpt>
      <trkpt lat="47.50304" lon="6.72903">
        <ele>379.5</ele>
        <time>2017-01-15T08:49:51.999Z</time>
      </trkpt>
      <trkpt lat="47.50307" lon="6.72903">
        <ele>379.7</ele>
        <time>2017-01-15T08:49:52.999Z</time>
      </trkpt>
      <trkpt lat="47.5031" lon="6.72904">
        <ele>379.9</ele>
        <time>2017-01-15T08:49:53.999Z</time>
      </trkpt>
      <trkpt lat="47.50315" lon="6.72906">
        <ele>380.1</ele>
        <time>2017-01-15T08:49:54.999Z</time>
      </trkpt>
      <trkpt lat="47.5032" lon="6.72908">
        <ele>380.2</ele>
        <time>2017-01-15T08:49:55.999Z</time>
      </trkpt>
      <trkpt lat="47.50324" lon="6.72911">
        <ele>382.1</ele>
        <time>2017-01-15T08:49:56.999Z</time>
      </trkpt>
      <trkpt lat="47.50329" lon="6.72913">
        <ele>383.8</ele>
        <time>2017-01-15T08:49:57.999Z</time>
      </trkpt>
      <trkpt lat="47.50333" lon="6.72915">
        <ele>385</ele>
        <time>2017-01-15T08:49:58.999Z</time>
      </trkpt>
      <trkpt lat="47.50336" lon="6.72917">
        <ele>385.1</ele>
        <time>2017-01-15T08:49:59.999Z</time>
      </trkpt>
      <trkpt lat="47.50341" lon="6.72919">
        <ele>385.8</ele>
        <time>2017-01-15T08:50:00.999Z</time>
      </trkpt>
      <trkpt lat="47.50344" lon="6.72921">
        <ele>385.8</ele>
        <time>2017-01-15T08:50:01.999Z</time>
      </trkpt>
      <trkpt lat="47.50348" lon="6.72922">
        <ele>385.9</ele>
        <time>2017-01-15T08:50:02.999Z</time>
      </trkpt>
      <trkpt lat="47.50352" lon="6.72923">
        <ele>385.9</ele>
        <time>2017-01-15T08:50:03.999Z</time>
      </trkpt>
      <trkpt lat="47.50356" lon="6.72924">
        <ele>386</ele>
        <time>2017-01-15T08:50:04.999Z</time>
      </trkpt>
      <trkpt lat="47.5036" lon="6.72925">
        <ele>387</ele>
        <time>2017-01-15T08:50:05.999Z</time>
      </trkpt>
      <trkpt lat="47.50365" lon="6.72926">
        <ele>387.7</ele>
        <time>2017-01-15T08:50:06.999Z</time>
      </trkpt>
      <trkpt lat="47.5037" lon="6.72926">
        <ele>388.6</ele>
        <time>2017-01-15T08:50:07.999Z</time>
      </trkpt>
      <trkpt lat="47.50374" lon="6.72928">
        <ele>388.7</ele>
        <time>2017-01-15T08:50:08.999Z</time>
      </trkpt>
      <trkpt lat="47.50378" lon="6.72928">
        <ele>388.7</ele>
        <time>2017-01-15T08:50:09.999Z</time>
      </trkpt>
      <trkpt lat="47.50381" lon="6.72929">
        <ele>388.7</ele>
        <time>2017-01-15T08:50:10.999Z</time>
      </trkpt>
      <trkpt lat="47.50384" lon="6.72929">
        <ele>388.7</ele>
        <time>2017-01-15T08:50:11.999Z</time>
      </trkpt>
      <trkpt lat="47.50388" lon="6.72929">
        <ele>388.7</ele>
        <time>2017-01-15T08:50:12.999Z</time>
      </trkpt>
      <trkpt lat="47.50391" lon="6.7293">
        <ele>388.7</ele>
        <time>2017-01-15T08:50:13.999Z</time>
      </trkpt>
      <trkpt lat="47.50395" lon="6.72931">
        <ele>388.8</ele>
        <time>2017-01-15T08:50:14.999Z</time>
      </trkpt>
      <trkpt lat="47.50398" lon="6.72931">
        <ele>388.8</ele>
        <time>2017-01-15T08:50:15.999Z</time>
      </trkpt>
      <trkpt lat="47.50402" lon="6.72931">
        <ele>388.9</ele>
        <time>2017-01-15T08:50:16.999Z</time>
      </trkpt>
      <trkpt lat="47.50405" lon="6.72932">
        <ele>389</ele>
        <time>2017-01-15T08:50:17.999Z</time>
      </trkpt>
      <trkpt lat="47.50408" lon="6.72932">
        <ele>389.1</ele>
        <time>2017-01-15T08:50:18.999Z</time>
      </trkpt>
      <trkpt lat="47.50411" lon="6.72933">
        <ele>389.1</ele>
        <time>2017-01-15T08:50:19.999Z</time>
      </trkpt>
      <trkpt lat="47.50414" lon="6.72933">
        <ele>389.1</ele>
        <time>2017-01-15T08:50:20.999Z</time>
      </trkpt>
      <trkpt lat="47.50416" lon="6.72933">
        <ele>389.2</ele>
        <time>2017-01-15T08:50:21.999Z</time>
      </trkpt>
      <trkpt lat="47.50419" lon="6.72934">
        <ele>389.3</ele>
        <time>2017-01-15T08:50:22.999Z</time>
      </trkpt>
      <trkpt lat="47.50422" lon="6.72935">
        <ele>389.3</ele>
        <time>2017-01-15T08:50:23.999Z</time>
      </trkpt>
      <trkpt lat="47.50424" lon="6.72936">
        <ele>389.4</ele>
        <time>2017-01-15T08:50:24.999Z</time>
      </trkpt>
      <trkpt lat="47.50427" lon="6.72937">
        <ele>389.4</ele>
        <time>2017-01-15T08:50:25.999Z</time>
      </trkpt>
      <trkpt lat="47.5043" lon="6.72937">
        <ele>389.5</ele>
        <time>2017-01-15T08:50:26.999Z</time>
      </trkpt>
      <trkpt lat="47.50433" lon="6.72937">
        <ele>389.6</ele>
        <time>2017-01-15T08:50:27.999Z</time>
      </trkpt>
      <trkpt lat="47.50435" lon="6.72938">
        <ele>389.7</ele>
        <time>2017-01-15T08:50:28.999Z</time>
      </trkpt>
      <trkpt lat="47.50438" lon="6.72939">
        <ele>389.9</ele>
        <time>2017-01-15T08:50:29.999Z</time>
      </trkpt>
      <trkpt lat="47.50441" lon="6.72939">
        <ele>390</ele>
        <time>2017-01-15T08:50:30.999Z</time>
      </trkpt>
      <trkpt lat="47.50445" lon="6.72941">
        <ele>390.1</ele>
        <time>2017-01-15T08:50:32.999Z</time>
      </trkpt>
      <trkpt lat="47.50447" lon="6.72942">
        <ele>390.2</ele>
        <time>2017-01-15T08:50:33.999Z</time>
      </trkpt>
      <trkpt lat="47.50449" lon="6.72943">
        <ele>390.3</ele>
        <time>2017-01-15T08:50:34.999Z</time>
      </trkpt>
      <trkpt lat="47.50452" lon="6.72942">
        <ele>390.4</ele>
        <time>2017-01-15T08:50:35.999Z</time>
      </trkpt>
      <trkpt lat="47.50454" lon="6.7294">
        <ele>390.6</ele>
        <time>2017-01-15T08:50:36.999Z</time>
      </trkpt>
      <trkpt lat="47.50456" lon="6.72938">
        <ele>390.7</ele>
        <time>2017-01-15T08:50:37.999Z</time>
      </trkpt>
      <trkpt lat="47.50458" lon="6.72936">
        <ele>390.9</ele>
        <time>2017-01-15T08:50:38.999Z</time>
      </trkpt>
      <trkpt lat="47.5046" lon="6.72934">
        <ele>391</ele>
        <time>2017-01-15T08:50:39.999Z</time>
      </trkpt>
      <trkpt lat="47.50462" lon="6.72932">
        <ele>391.1</ele>
        <time>2017-01-15T08:50:40.999Z</time>
      </trkpt>
      <trkpt lat="47.50464" lon="6.7293">
        <ele>391.3</ele>
        <time>2017-01-15T08:50:41.999Z</time>
      </trkpt>
      <trkpt lat="47.50467" lon="6.72926">
        <ele>391.4</ele>
        <time>2017-01-15T08:50:42.999Z</time>
      </trkpt>
      <trkpt lat="47.50469" lon="6.72924">
        <ele>391.5</ele>
        <time>2017-01-15T08:50:43.999Z</time>
      </trkpt>
      <trkpt lat="47.50471" lon="6.72922">
        <ele>391.6</ele>
        <time>2017-01-15T08:50:44.999Z</time>
      </trkpt>
      <trkpt lat="47.50472" lon="6.7292">
        <ele>391.8</ele>
        <time>2017-01-15T08:50:45.999Z</time>
      </trkpt>
      <trkpt lat="47.50475" lon="6.72917">
        <ele>392</ele>
        <time>2017-01-15T08:50:46.999Z</time>
      </trkpt>
      <trkpt lat="47.50477" lon="6.72914">
        <ele>392.1</ele>
        <time>2017-01-15T08:50:47.999Z</time>
      </trkpt>
      <trkpt lat="47.50479" lon="6.72912">
        <ele>392.1</ele>
        <time>2017-01-15T08:50:48.999Z</time>
      </trkpt>
      <trkpt lat="47.50481" lon="6.72909">
        <ele>392.2</ele>
        <time>2017-01-15T08:50:49.999Z</time>
      </trkpt>
      <trkpt lat="47.50483" lon="6.72907">
        <ele>392.2</ele>
        <time>2017-01-15T08:50:50.999Z</time>
      </trkpt>
      <trkpt lat="47.50485" lon="6.72904">
        <ele>392.3</ele>
        <time>2017-01-15T08:50:51.999Z</time>
      </trkpt>
      <trkpt lat="47.50486" lon="6.72901">
        <ele>392.3</ele>
        <time>2017-01-15T08:50:52.999Z</time>
      </trkpt>
      <trkpt lat="47.50489" lon="6.72898">
        <ele>392.4</ele>
        <time>2017-01-15T08:50:53.999Z</time>
      </trkpt>
      <trkpt lat="47.5049" lon="6.72895">
        <ele>392.5</ele>
        <time>2017-01-15T08:50:54.999Z</time>
      </trkpt>
      <trkpt lat="47.50492" lon="6.72892">
        <ele>392.6</ele>
        <time>2017-01-15T08:50:55.999Z</time>
      </trkpt>
      <trkpt lat="47.50494" lon="6.72888">
        <ele>392.7</ele>
        <time>2017-01-15T08:50:56.999Z</time>
      </trkpt>
      <trkpt lat="47.50497" lon="6.72885">
        <ele>392.7</ele>
        <time>2017-01-15T08:50:57.999Z</time>
      </trkpt>
      <trkpt lat="47.50499" lon="6.72883">
        <ele>392.8</ele>
        <time>2017-01-15T08:50:58.999Z</time>
      </trkpt>
      <trkpt lat="47.50501" lon="6.7288">
        <ele>392.8</ele>
        <time>2017-01-15T08:50:59.999Z</time>
      </trkpt>
      <trkpt lat="47.50503" lon="6.72877">
        <ele>392.8</ele>
        <time>2017-01-15T08:51:00.999Z</time>
      </trkpt>
      <trkpt lat="47.50505" lon="6.72875">
        <ele>392.9</ele>
        <time>2017-01-15T08:51:01.999Z</time>
      </trkpt>
      <trkpt lat="47.50508" lon="6.72873">
        <ele>392.8</ele>
        <time>2017-01-15T08:51:02.999Z</time>
      </trkpt>
      <trkpt lat="47.5051" lon="6.72871">
        <ele>392.8</ele>
        <time>2017-01-15T08:51:03.999Z</time>
      </trkpt>
      <trkpt lat="47.50513" lon="6.72866">
        <ele>392.9</ele>
        <time>2017-01-15T08:51:05.999Z</time>
      </trkpt>
      <trkpt lat="47.50515" lon="6.72864">
        <ele>393</ele>
        <time>2017-01-15T08:51:06.999Z</time>
      </trkpt>
      <trkpt lat="47.50517" lon="6.72862">
        <ele>393.1</ele>
        <time>2017-01-15T08:51:07.999Z</time>
      </trkpt>
      <trkpt lat="47.50519" lon="6.72861">
        <ele>393.2</ele>
        <time>2017-01-15T08:51:08.999Z</time>
      </trkpt>
      <trkpt lat="47.50522" lon="6.72858">
        <ele>393.4</ele>
        <time>2017-01-15T08:51:11.999Z</time>
      </trkpt>
      <trkpt lat="47.50524" lon="6.72857">
        <ele>393.5</ele>
        <time>2017-01-15T08:51:12.999Z</time>
      </trkpt>
      <trkpt lat="47.50528" lon="6.72856">
        <ele>393.6</ele>
        <time>2017-01-15T08:51:15.999Z</time>
      </trkpt>
      <trkpt lat="47.50529" lon="6.72855">
        <ele>393.7</ele>
        <time>2017-01-15T08:51:16.999Z</time>
      </trkpt>
      <trkpt lat="47.50533" lon="6.72852">
        <ele>393.8</ele>
        <time>2017-01-15T08:51:18.999Z</time>
      </trkpt>
      <trkpt lat="47.50535" lon="6.72851">
        <ele>393.9</ele>
        <time>2017-01-15T08:51:19.999Z</time>
      </trkpt>
      <trkpt lat="47.50537" lon="6.7285">
        <ele>394</ele>
        <time>2017-01-15T08:51:20.999Z</time>
      </trkpt>
      <trkpt lat="47.50539" lon="6.72848">
        <ele>394.1</ele>
        <time>2017-01-15T08:51:21.999Z</time>
      </trkpt>
      <trkpt lat="47.50542" lon="6.72847">
        <ele>394.2</ele>
        <time>2017-01-15T08:51:22.999Z</time>
      </trkpt>
      <trkpt lat="47.50544" lon="6.72845">
        <ele>394.3</ele>
        <time>2017-01-15T08:51:23.999Z</time>
      </trkpt>
      <trkpt lat="47.50548" lon="6.72843">
        <ele>394.9</ele>
        <time>2017-01-15T08:51:26.999Z</time>
      </trkpt>
      <trkpt lat="47.5055" lon="6.72841">
        <ele>395.2</ele>
        <time>2017-01-15T08:51:28.999Z</time>
      </trkpt>
      <trkpt lat="47.50554" lon="6.72838">
        <ele>395.4</ele>
        <time>2017-01-15T08:51:31.999Z</time>
      </trkpt>
      <trkpt lat="47.50555" lon="6.72837">
        <ele>395.4</ele>
        <time>2017-01-15T08:51:32.999Z</time>
      </trkpt>
      <trkpt lat="47.50558" lon="6.72834">
        <ele>395.6</ele>
        <time>2017-01-15T08:51:34.999Z</time>
      </trkpt>
      <trkpt lat="47.50559" lon="6.72833">
        <ele>395.7</ele>
        <time>2017-01-15T08:51:35.999Z</time>
      </trkpt>
      <trkpt lat="47.50562" lon="6.7283">
        <ele>395.7</ele>
        <time>2017-01-15T08:51:37.999Z</time>
      </trkpt>
      <trkpt lat="47.50563" lon="6.72829">
        <ele>395.7</ele>
        <time>2017-01-15T08:51:38.999Z</time>
      </trkpt>
      <trkpt lat="47.50567" lon="6.72828">
        <ele>395.6</ele>
        <time>2017-01-15T08:51:40.999Z</time>
      </trkpt>
      <trkpt lat="47.50568" lon="6.72827">
        <ele>395.6</ele>
        <time>2017-01-15T08:51:41.999Z</time>
      </trkpt>
      <trkpt lat="47.50572" lon="6.72824">
        <ele>395.6</ele>
        <time>2017-01-15T08:51:43.999Z</time>
      </trkpt>
      <trkpt lat="47.50573" lon="6.72824">
        <ele>395.5</ele>
        <time>2017-01-15T08:51:44.999Z</time>
      </trkpt>
      <trkpt lat="47.50577" lon="6.72822">
        <ele>395.4</ele>
        <time>2017-01-15T08:51:47.999Z</time>
      </trkpt>
      <trkpt lat="47.50579" lon="6.72821">
        <ele>395.4</ele>
        <time>2017-01-15T08:51:48.999Z</time>
      </trkpt>
      <trkpt lat="47.50583" lon="6.72818">
        <ele>395.4</ele>
        <time>2017-01-15T08:51:51.999Z</time>
      </trkpt>
      <trkpt lat="47.50585" lon="6.72817">
        <ele>395.4</ele>
        <time>2017-01-15T08:51:52.999Z</time>
      </trkpt>
      <trkpt lat="47.50588" lon="6.72815">
        <ele>395.4</ele>
        <time>2017-01-15T08:51:54.999Z</time>
      </trkpt>
      <trkpt lat="47.5059" lon="6.72814">
        <ele>395.5</ele>
        <time>2017-01-15T08:51:55.999Z</time>
      </trkpt>
      <trkpt lat="47.50592" lon="6.72812">
        <ele>395.5</ele>
        <time>2017-01-15T08:51:56.999Z</time>
      </trkpt>
      <trkpt lat="47.50594" lon="6.7281">
        <ele>395.7</ele>
        <time>2017-01-15T08:51:57.999Z</time>
      </trkpt>
      <trkpt lat="47.50597" lon="6.72808">
        <ele>395.9</ele>
        <time>2017-01-15T08:51:59.999Z</time>
      </trkpt>
      <trkpt lat="47.50598" lon="6.72806">
        <ele>396.1</ele>
        <time>2017-01-15T08:52:00.999Z</time>
      </trkpt>
      <trkpt lat="47.50602" lon="6.72803">
        <ele>396.4</ele>
        <time>2017-01-15T08:52:03.999Z</time>
      </trkpt>
      <trkpt lat="47.50603" lon="6.72802">
        <ele>396.5</ele>
        <time>2017-01-15T08:52:04.999Z</time>
      </trkpt>
      <trkpt lat="47.50605" lon="6.728">
        <ele>396.6</ele>
        <time>2017-01-15T08:52:05.999Z</time>
      </trkpt>
      <trkpt lat="47.50608" lon="6.72797">
        <ele>396.8</ele>
        <time>2017-01-15T08:52:06.999Z</time>
      </trkpt>
      <trkpt lat="47.5061" lon="6.72796">
        <ele>397</ele>
        <time>2017-01-15T08:52:07.999Z</time>
      </trkpt>
      <trkpt lat="47.50613" lon="6.72795">
        <ele>397.2</ele>
        <time>2017-01-15T08:52:08.999Z</time>
      </trkpt>
      <trkpt lat="47.50616" lon="6.72793">
        <ele>397.6</ele>
        <time>2017-01-15T08:52:10.999Z</time>
      </trkpt>
      <trkpt lat="47.50618" lon="6.72793">
        <ele>397.7</ele>
        <time>2017-01-15T08:52:11.999Z</time>
      </trkpt>
      <trkpt lat="47.50622" lon="6.7279">
        <ele>398.2</ele>
        <time>2017-01-15T08:52:14.999Z</time>
      </trkpt>
      <trkpt lat="47.50623" lon="6.72789">
        <ele>398.3</ele>
        <time>2017-01-15T08:52:15.999Z</time>
      </trkpt>
      <trkpt lat="47.50626" lon="6.72788">
        <ele>398.5</ele>
        <time>2017-01-15T08:52:18.999Z</time>
      </trkpt>
      <trkpt lat="47.50627" lon="6.72787">
        <ele>398.5</ele>
        <time>2017-01-15T08:52:19.999Z</time>
      </trkpt>
      <trkpt lat="47.50631" lon="6.72784">
        <ele>398.4</ele>
        <time>2017-01-15T08:52:22.999Z</time>
      </trkpt>
      <trkpt lat="47.50632" lon="6.72783">
        <ele>398.3</ele>
        <time>2017-01-15T08:52:23.999Z</time>
      </trkpt>
      <trkpt lat="47.50634" lon="6.72782">
        <ele>398</ele>
        <time>2017-01-15T08:52:26.999Z</time>
      </trkpt>
      <trkpt lat="47.50636" lon="6.72781">
        <ele>397.9</ele>
        <time>2017-01-15T08:52:27.999Z</time>
      </trkpt>
      <trkpt lat="47.50639" lon="6.72779">
        <ele>397.7</ele>
        <time>2017-01-15T08:52:28.999Z</time>
      </trkpt>
      <trkpt lat="47.50643" lon="6.72775">
        <ele>397.5</ele>
        <time>2017-01-15T08:52:29.999Z</time>
      </trkpt>
      <trkpt lat="47.50645" lon="6.7277">
        <ele>397.5</ele>
        <time>2017-01-15T08:52:31.999Z</time>
      </trkpt>
      <trkpt lat="47.50647" lon="6.72768">
        <ele>397.5</ele>
        <time>2017-01-15T08:52:32.999Z</time>
      </trkpt>
      <trkpt lat="47.50649" lon="6.72764">
        <ele>397.4</ele>
        <time>2017-01-15T08:52:34.999Z</time>
      </trkpt>
      <trkpt lat="47.50651" lon="6.72763">
        <ele>397.3</ele>
        <time>2017-01-15T08:52:35.999Z</time>
      </trkpt>
      <trkpt lat="47.50652" lon="6.7276">
        <ele>397.2</ele>
        <time>2017-01-15T08:52:36.999Z</time>
      </trkpt>
      <trkpt lat="47.50654" lon="6.72757">
        <ele>397.1</ele>
        <time>2017-01-15T08:52:37.999Z</time>
      </trkpt>
      <trkpt lat="47.50657" lon="6.72752">
        <ele>397</ele>
        <time>2017-01-15T08:52:41.999Z</time>
      </trkpt>
      <trkpt lat="47.50658" lon="6.72751">
        <ele>397</ele>
        <time>2017-01-15T08:52:42.999Z</time>
      </trkpt>
      <trkpt lat="47.50661" lon="6.72748">
        <ele>397.1</ele>
        <time>2017-01-15T08:52:44.999Z</time>
      </trkpt>
      <trkpt lat="47.50662" lon="6.72746">
        <ele>397</ele>
        <time>2017-01-15T08:52:45.999Z</time>
      </trkpt>
      <trkpt lat="47.50665" lon="6.72743">
        <ele>397</ele>
        <time>2017-01-15T08:52:48.999Z</time>
      </trkpt>
      <trkpt lat="47.50666" lon="6.72742">
        <ele>397.1</ele>
        <time>2017-01-15T08:52:49.999Z</time>
      </trkpt>
      <trkpt lat="47.50668" lon="6.7274">
        <ele>397.2</ele>
        <time>2017-01-15T08:52:50.999Z</time>
      </trkpt>
      <trkpt lat="47.5067" lon="6.72737">
        <ele>397.2</ele>
        <time>2017-01-15T08:52:51.999Z</time>
      </trkpt>
      <trkpt lat="47.50672" lon="6.72733">
        <ele>397.1</ele>
        <time>2017-01-15T08:52:53.999Z</time>
      </trkpt>
      <trkpt lat="47.50674" lon="6.72731">
        <ele>397.1</ele>
        <time>2017-01-15T08:52:54.999Z</time>
      </trkpt>
      <trkpt lat="47.50675" lon="6.72726">
        <ele>397</ele>
        <time>2017-01-15T08:52:56.999Z</time>
      </trkpt>
      <trkpt lat="47.50677" lon="6.72723">
        <ele>397</ele>
        <time>2017-01-15T08:52:57.999Z</time>
      </trkpt>
      <trkpt lat="47.50679" lon="6.72719">
        <ele>396.9</ele>
        <time>2017-01-15T08:52:59.999Z</time>
      </trkpt>
      <trkpt lat="47.5068" lon="6.72716">
        <ele>396.8</ele>
        <time>2017-01-15T08:53:00.999Z</time>
      </trkpt>
      <trkpt lat="47.50682" lon="6.72714">
        <ele>396.9</ele>
        <time>2017-01-15T08:53:01.999Z</time>
      </trkpt>
      <trkpt lat="47.50684" lon="6.72711">
        <ele>396.9</ele>
        <time>2017-01-15T08:53:02.999Z</time>
      </trkpt>
      <trkpt lat="47.50685" lon="6.72709">
        <ele>396.9</ele>
        <time>2017-01-15T08:53:03.999Z</time>
      </trkpt>
      <trkpt lat="47.50687" lon="6.72706">
        <ele>397</ele>
        <time>2017-01-15T08:53:04.999Z</time>
      </trkpt>
      <trkpt lat="47.5069" lon="6.72703">
        <ele>397.3</ele>
        <time>2017-01-15T08:53:06.999Z</time>
      </trkpt>
      <trkpt lat="47.50692" lon="6.72702">
        <ele>397.6</ele>
        <time>2017-01-15T08:53:07.999Z</time>
      </trkpt>
      <trkpt lat="47.50695" lon="6.727">
        <ele>397.9</ele>
        <time>2017-01-15T08:53:08.999Z</time>
      </trkpt>
      <trkpt lat="47.50697" lon="6.72698">
        <ele>398.3</ele>
        <time>2017-01-15T08:53:09.999Z</time>
      </trkpt>
      <trkpt lat="47.50699" lon="6.72695">
        <ele>398.9</ele>
        <time>2017-01-15T08:53:11.999Z</time>
      </trkpt>
      <trkpt lat="47.50701" lon="6.72694">
        <ele>399.1</ele>
        <time>2017-01-15T08:53:12.999Z</time>
      </trkpt>
      <trkpt lat="47.50704" lon="6.72691">
        <ele>400</ele>
        <time>2017-01-15T08:53:15.999Z</time>
      </trkpt>
      <trkpt lat="47.50706" lon="6.72689">
        <ele>400.3</ele>
        <time>2017-01-15T08:53:16.999Z</time>
      </trkpt>
      <trkpt lat="47.50708" lon="6.72685">
        <ele>400.7</ele>
        <time>2017-01-15T08:53:18.999Z</time>
      </trkpt>
      <trkpt lat="47.50709" lon="6.72682">
        <ele>400.9</ele>
        <time>2017-01-15T08:53:19.999Z</time>
      </trkpt>
      <trkpt lat="47.50712" lon="6.7268">
        <ele>401.1</ele>
        <time>2017-01-15T08:53:20.999Z</time>
      </trkpt>
      <trkpt lat="47.50713" lon="6.72678">
        <ele>401.3</ele>
        <time>2017-01-15T08:53:21.999Z</time>
      </trkpt>
      <trkpt lat="47.50716" lon="6.72675">
        <ele>401.7</ele>
        <time>2017-01-15T08:53:23.999Z</time>
      </trkpt>
      <trkpt lat="47.50717" lon="6.72674">
        <ele>401.8</ele>
        <time>2017-01-15T08:53:24.999Z</time>
      </trkpt>
      <trkpt lat="47.50719" lon="6.72671">
        <ele>402.1</ele>
        <time>2017-01-15T08:53:26.999Z</time>
      </trkpt>
      <trkpt lat="47.50721" lon="6.72669">
        <ele>402.2</ele>
        <time>2017-01-15T08:53:27.999Z</time>
      </trkpt>
      <trkpt lat="47.50724" lon="6.72666">
        <ele>402.5</ele>
        <time>2017-01-15T08:53:30.999Z</time>
      </trkpt>
      <trkpt lat="47.50725" lon="6.72664">
        <ele>402.5</ele>
        <time>2017-01-15T08:53:31.999Z</time>
      </trkpt>
      <trkpt lat="47.50728" lon="6.7266">
        <ele>402.4</ele>
        <time>2017-01-15T08:53:33.999Z</time>
      </trkpt>
      <trkpt lat="47.50729" lon="6.72658">
        <ele>402.3</ele>
        <time>2017-01-15T08:53:34.999Z</time>
      </trkpt>
      <trkpt lat="47.50732" lon="6.72655">
        <ele>402.1</ele>
        <time>2017-01-15T08:53:36.999Z</time>
      </trkpt>
      <trkpt lat="47.50735" lon="6.72652">
        <ele>402</ele>
        <time>2017-01-15T08:53:37.999Z</time>
      </trkpt>
      <trkpt lat="47.50738" lon="6.72649">
        <ele>401.9</ele>
        <time>2017-01-15T08:53:39.999Z</time>
      </trkpt>
      <trkpt lat="47.50739" lon="6.72647">
        <ele>401.8</ele>
        <time>2017-01-15T08:53:40.999Z</time>
      </trkpt>
      <trkpt lat="47.50742" lon="6.72645">
        <ele>401.7</ele>
        <time>2017-01-15T08:53:41.999Z</time>
      </trkpt>
      <trkpt lat="47.50744" lon="6.72641">
        <ele>401.6</ele>
        <time>2017-01-15T08:53:42.999Z</time>
      </trkpt>
      <trkpt lat="47.50748" lon="6.72637">
        <ele>401.6</ele>
        <time>2017-01-15T08:53:44.999Z</time>
      </trkpt>
      <trkpt lat="47.50749" lon="6.72635">
        <ele>401.6</ele>
        <time>2017-01-15T08:53:45.999Z</time>
      </trkpt>
      <trkpt lat="47.50751" lon="6.72631">
        <ele>401.4</ele>
        <time>2017-01-15T08:53:47.999Z</time>
      </trkpt>
      <trkpt lat="47.50752" lon="6.72629">
        <ele>401.4</ele>
        <time>2017-01-15T08:53:48.999Z</time>
      </trkpt>
      <trkpt lat="47.50755" lon="6.72626">
        <ele>401.4</ele>
        <time>2017-01-15T08:53:50.999Z</time>
      </trkpt>
      <trkpt lat="47.50757" lon="6.72623">
        <ele>401.3</ele>
        <time>2017-01-15T08:53:51.999Z</time>
      </trkpt>
      <trkpt lat="47.50758" lon="6.72621">
        <ele>401.3</ele>
        <time>2017-01-15T08:53:52.999Z</time>
      </trkpt>
      <trkpt lat="47.5076" lon="6.72618">
        <ele>401.3</ele>
        <time>2017-01-15T08:53:53.999Z</time>
      </trkpt>
      <trkpt lat="47.50764" lon="6.72614">
        <ele>401.4</ele>
        <time>2017-01-15T08:53:55.999Z</time>
      </trkpt>
      <trkpt lat="47.50766" lon="6.7261">
        <ele>401.6</ele>
        <time>2017-01-15T08:53:56.999Z</time>
      </trkpt>
      <trkpt lat="47.5077" lon="6.72606">
        <ele>401.9</ele>
        <time>2017-01-15T08:53:58.999Z</time>
      </trkpt>
      <trkpt lat="47.50771" lon="6.72604">
        <ele>401.9</ele>
        <time>2017-01-15T08:53:59.999Z</time>
      </trkpt>
      <trkpt lat="47.50775" lon="6.72601">
        <ele>402</ele>
        <time>2017-01-15T08:54:01.999Z</time>
      </trkpt>
      <trkpt lat="47.50777" lon="6.726">
        <ele>402.1</ele>
        <time>2017-01-15T08:54:02.999Z</time>
      </trkpt>
      <trkpt lat="47.5078" lon="6.72596">
        <ele>402.4</ele>
        <time>2017-01-15T08:54:04.999Z</time>
      </trkpt>
      <trkpt lat="47.50781" lon="6.72595">
        <ele>402.4</ele>
        <time>2017-01-15T08:54:05.999Z</time>
      </trkpt>
      <trkpt lat="47.50784" lon="6.72591">
        <ele>402.4</ele>
        <time>2017-01-15T08:54:07.999Z</time>
      </trkpt>
      <trkpt lat="47.50785" lon="6.7259">
        <ele>402.4</ele>
        <time>2017-01-15T08:54:08.999Z</time>
      </trkpt>
      <trkpt lat="47.50788" lon="6.72587">
        <ele>402.5</ele>
        <time>2017-01-15T08:54:10.999Z</time>
      </trkpt>
      <trkpt lat="47.50788" lon="6.72585">
        <ele>402.6</ele>
        <time>2017-01-15T08:54:11.999Z</time>
      </trkpt>
      <trkpt lat="47.5079" lon="6.72581">
        <ele>402.7</ele>
        <time>2017-01-15T08:54:12.999Z</time>
      </trkpt>
      <trkpt lat="47.50791" lon="6.72579">
        <ele>402.8</ele>
        <time>2017-01-15T08:54:13.999Z</time>
      </trkpt>
      <trkpt lat="47.50794" lon="6.72574">
        <ele>402.7</ele>
        <time>2017-01-15T08:54:15.999Z</time>
      </trkpt>
      <trkpt lat="47.50796" lon="6.72572">
        <ele>402.7</ele>
        <time>2017-01-15T08:54:16.999Z</time>
      </trkpt>
      <trkpt lat="47.50799" lon="6.72569">
        <ele>402.6</ele>
        <time>2017-01-15T08:54:18.999Z</time>
      </trkpt>
      <trkpt lat="47.50801" lon="6.72568">
        <ele>402.5</ele>
        <time>2017-01-15T08:54:19.999Z</time>
      </trkpt>
      <trkpt lat="47.50804" lon="6.72565">
        <ele>402.5</ele>
        <time>2017-01-15T08:54:20.999Z</time>
      </trkpt>
      <trkpt lat="47.50806" lon="6.72563">
        <ele>402.4</ele>
        <time>2017-01-15T08:54:21.999Z</time>
      </trkpt>
      <trkpt lat="47.50808" lon="6.72561">
        <ele>402.3</ele>
        <time>2017-01-15T08:54:22.999Z</time>
      </trkpt>
      <trkpt lat="47.50811" lon="6.7256">
        <ele>402.2</ele>
        <time>2017-01-15T08:54:23.999Z</time>
      </trkpt>
      <trkpt lat="47.50815" lon="6.72557">
        <ele>401.9</ele>
        <time>2017-01-15T08:54:25.999Z</time>
      </trkpt>
      <trkpt lat="47.50817" lon="6.72555">
        <ele>401.9</ele>
        <time>2017-01-15T08:54:26.999Z</time>
      </trkpt>
      <trkpt lat="47.50821" lon="6.72552">
        <ele>401.5</ele>
        <time>2017-01-15T08:54:28.999Z</time>
      </trkpt>
      <trkpt lat="47.50823" lon="6.7255">
        <ele>401.4</ele>
        <time>2017-01-15T08:54:29.999Z</time>
      </trkpt>
      <trkpt lat="47.50825" lon="6.72548">
        <ele>401.4</ele>
        <time>2017-01-15T08:54:30.999Z</time>
      </trkpt>
      <trkpt lat="47.50827" lon="6.72546">
        <ele>401.3</ele>
        <time>2017-01-15T08:54:31.999Z</time>
      </trkpt>
      <trkpt lat="47.50828" lon="6.72544">
        <ele>401.2</ele>
        <time>2017-01-15T08:54:32.999Z</time>
      </trkpt>
      <trkpt lat="47.50832" lon="6.72541">
        <ele>401</ele>
        <time>2017-01-15T08:54:35.999Z</time>
      </trkpt>
      <trkpt lat="47.50833" lon="6.7254">
        <ele>401</ele>
        <time>2017-01-15T08:54:36.999Z</time>
      </trkpt>
      <trkpt lat="47.50835" lon="6.72539">
        <ele>401.2</ele>
        <time>2017-01-15T08:54:38.999Z</time>
      </trkpt>
      <trkpt lat="47.50838" lon="6.72537">
        <ele>401.2</ele>
        <time>2017-01-15T08:54:39.999Z</time>
      </trkpt>
      <trkpt lat="47.5084" lon="6.72537">
        <ele>401.3</ele>
        <time>2017-01-15T08:54:40.999Z</time>
      </trkpt>
      <trkpt lat="47.50842" lon="6.72536">
        <ele>401.4</ele>
        <time>2017-01-15T08:54:41.999Z</time>
      </trkpt>
      <trkpt lat="47.50847" lon="6.72535">
        <ele>401.6</ele>
        <time>2017-01-15T08:54:43.999Z</time>
      </trkpt>
      <trkpt lat="47.50849" lon="6.72535">
        <ele>401.7</ele>
        <time>2017-01-15T08:54:44.999Z</time>
      </trkpt>
      <trkpt lat="47.50852" lon="6.72534">
        <ele>401.8</ele>
        <time>2017-01-15T08:54:46.999Z</time>
      </trkpt>
      <trkpt lat="47.50853" lon="6.72533">
        <ele>401.9</ele>
        <time>2017-01-15T08:54:47.999Z</time>
      </trkpt>
      <trkpt lat="47.50857" lon="6.7253">
        <ele>402.2</ele>
        <time>2017-01-15T08:54:50.999Z</time>
      </trkpt>
      <trkpt lat="47.50858" lon="6.7253">
        <ele>402.2</ele>
        <time>2017-01-15T08:54:51.999Z</time>
      </trkpt>
      <trkpt lat="47.50862" lon="6.72528">
        <ele>402.4</ele>
        <time>2017-01-15T08:54:54.999Z</time>
      </trkpt>
      <trkpt lat="47.50864" lon="6.72528">
        <ele>402.6</ele>
        <time>2017-01-15T08:54:55.999Z</time>
      </trkpt>
      <trkpt lat="47.50868" lon="6.72526">
        <ele>403.2</ele>
        <time>2017-01-15T08:54:57.999Z</time>
      </trkpt>
      <trkpt lat="47.50871" lon="6.72525">
        <ele>403.5</ele>
        <time>2017-01-15T08:54:58.999Z</time>
      </trkpt>
      <trkpt lat="47.50873" lon="6.72523">
        <ele>403.8</ele>
        <time>2017-01-15T08:54:59.999Z</time>
      </trkpt>
      <trkpt lat="47.50876" lon="6.72522">
        <ele>404</ele>
        <time>2017-01-15T08:55:00.999Z</time>
      </trkpt>
      <trkpt lat="47.50879" lon="6.7252">
        <ele>404.5</ele>
        <time>2017-01-15T08:55:02.999Z</time>
      </trkpt>
      <trkpt lat="47.50881" lon="6.7252">
        <ele>404.8</ele>
        <time>2017-01-15T08:55:03.999Z</time>
      </trkpt>
      <trkpt lat="47.50885" lon="6.7252">
        <ele>405.5</ele>
        <time>2017-01-15T08:55:05.999Z</time>
      </trkpt>
      <trkpt lat="47.50887" lon="6.7252">
        <ele>405.9</ele>
        <time>2017-01-15T08:55:06.999Z</time>
      </trkpt>
      <trkpt lat="47.5089" lon="6.72518">
        <ele>406.9</ele>
        <time>2017-01-15T08:55:08.999Z</time>
      </trkpt>
      <trkpt lat="47.50892" lon="6.72518">
        <ele>407.6</ele>
        <time>2017-01-15T08:55:09.999Z</time>
      </trkpt>
      <trkpt lat="47.50894" lon="6.72517">
        <ele>409</ele>
        <time>2017-01-15T08:55:11.999Z</time>
      </trkpt>
      <trkpt lat="47.50896" lon="6.72517">
        <ele>409.8</ele>
        <time>2017-01-15T08:55:12.999Z</time>
      </trkpt>
      <trkpt lat="47.509" lon="6.72516">
        <ele>411.5</ele>
        <time>2017-01-15T08:55:14.999Z</time>
      </trkpt>
      <trkpt lat="47.50902" lon="6.72516">
        <ele>412.4</ele>
        <time>2017-01-15T08:55:15.999Z</time>
      </trkpt>
      <trkpt lat="47.50904" lon="6.72515">
        <ele>413.3</ele>
        <time>2017-01-15T08:55:16.999Z</time>
      </trkpt>
      <trkpt lat="47.50906" lon="6.72514">
        <ele>414.2</ele>
        <time>2017-01-15T08:55:17.999Z</time>
      </trkpt>
      <trkpt lat="47.50913" lon="6.72512">
        <ele>415.1</ele>
        <time>2017-01-15T08:55:18.999Z</time>
      </trkpt>
      <trkpt lat="47.50918" lon="6.7251">
        <ele>415.9</ele>
        <time>2017-01-15T08:55:19.999Z</time>
      </trkpt>
      <trkpt lat="47.5092" lon="6.72508">
        <ele>416.8</ele>
        <time>2017-01-15T08:55:20.999Z</time>
      </trkpt>
      <trkpt lat="47.50922" lon="6.72505">
        <ele>417.6</ele>
        <time>2017-01-15T08:55:21.999Z</time>
      </trkpt>
      <trkpt lat="47.50925" lon="6.72502">
        <ele>420.1</ele>
        <time>2017-01-15T08:55:24.999Z</time>
      </trkpt>
      <trkpt lat="47.50926" lon="6.72502">
        <ele>420.9</ele>
        <time>2017-01-15T08:55:25.999Z</time>
      </trkpt>
      <trkpt lat="47.5093" lon="6.72502">
        <ele>424.2</ele>
        <time>2017-01-15T08:55:29.999Z</time>
      </trkpt>
      <trkpt lat="47.50931" lon="6.72502">
        <ele>424.9</ele>
        <time>2017-01-15T08:55:30.999Z</time>
      </trkpt>
      <trkpt lat="47.50935" lon="6.72501">
        <ele>428</ele>
        <time>2017-01-15T08:55:35.999Z</time>
      </trkpt>
      <trkpt lat="47.50936" lon="6.72501">
        <ele>428.6</ele>
        <time>2017-01-15T08:55:36.999Z</time>
      </trkpt>
      <trkpt lat="47.5094" lon="6.72503">
        <ele>431</ele>
        <time>2017-01-15T08:55:40.999Z</time>
      </trkpt>
      <trkpt lat="47.50942" lon="6.72503">
        <ele>431.6</ele>
        <time>2017-01-15T08:55:41.999Z</time>
      </trkpt>
      <trkpt lat="47.50946" lon="6.72505">
        <ele>433</ele>
        <time>2017-01-15T08:55:44.999Z</time>
      </trkpt>
      <trkpt lat="47.50946" lon="6.72505">
        <ele>433.3</ele>
        <time>2017-01-15T08:55:45.999Z</time>
      </trkpt>
      <trkpt lat="47.5095" lon="6.72506">
        <ele>435.7</ele>
        <time>2017-01-15T08:55:52.999Z</time>
      </trkpt>
      <trkpt lat="47.50951" lon="6.72506">
        <ele>436</ele>
        <time>2017-01-15T08:55:53.999Z</time>
      </trkpt>
      <trkpt lat="47.50956" lon="6.72504">
        <ele>437.5</ele>
        <time>2017-01-15T08:55:57.999Z</time>
      </trkpt>
      <trkpt lat="47.50957" lon="6.72504">
        <ele>437.9</ele>
        <time>2017-01-15T08:55:58.999Z</time>
      </trkpt>
      <trkpt lat="47.50961" lon="6.72503">
        <ele>438.8</ele>
        <time>2017-01-15T08:56:01.999Z</time>
      </trkpt>
      <trkpt lat="47.50962" lon="6.72503">
        <ele>439.1</ele>
        <time>2017-01-15T08:56:02.999Z</time>
      </trkpt>
      <trkpt lat="47.50965" lon="6.72501">
        <ele>440.7</ele>
        <time>2017-01-15T08:56:07.999Z</time>
      </trkpt>
      <trkpt lat="47.50966" lon="6.72501">
        <ele>440.9</ele>
        <time>2017-01-15T08:56:08.999Z</time>
      </trkpt>
      <trkpt lat="47.5097" lon="6.725">
        <ele>442.1</ele>
        <time>2017-01-15T08:56:14.999Z</time>
      </trkpt>
      <trkpt lat="47.50972" lon="6.72499">
        <ele>442.3</ele>
        <time>2017-01-15T08:56:15.999Z</time>
      </trkpt>
      <trkpt lat="47.50977" lon="6.72498">
        <ele>442.9</ele>
        <time>2017-01-15T08:56:19.999Z</time>
      </trkpt>
      <trkpt lat="47.50978" lon="6.72498">
        <ele>443</ele>
        <time>2017-01-15T08:56:20.999Z</time>
      </trkpt>
      <trkpt lat="47.50982" lon="6.72498">
        <ele>443.4</ele>
        <time>2017-01-15T08:56:23.999Z</time>
      </trkpt>
      <trkpt lat="47.50984" lon="6.72497">
        <ele>443.5</ele>
        <time>2017-01-15T08:56:24.999Z</time>
      </trkpt>
      <trkpt lat="47.50987" lon="6.72497">
        <ele>443.7</ele>
        <time>2017-01-15T08:56:26.999Z</time>
      </trkpt>
      <trkpt lat="47.5099" lon="6.72496">
        <ele>444</ele>
        <time>2017-01-15T08:56:28.999Z</time>
      </trkpt>
      <trkpt lat="47.50994" lon="6.72496">
        <ele>444.4</ele>
        <time>2017-01-15T08:56:33.999Z</time>
      </trkpt>
      <trkpt lat="47.50995" lon="6.72496">
        <ele>444.5</ele>
        <time>2017-01-15T08:56:34.999Z</time>
      </trkpt>
      <trkpt lat="47.50998" lon="6.72495">
        <ele>445.1</ele>
        <time>2017-01-15T08:56:38.999Z</time>
      </trkpt>
      <trkpt lat="47.50999" lon="6.72494">
        <ele>445.3</ele>
        <time>2017-01-15T08:56:39.999Z</time>
      </trkpt>
      <trkpt lat="47.51002" lon="6.72496">
        <ele>445.8</ele>
        <time>2017-01-15T08:56:42.999Z</time>
      </trkpt>
      <trkpt lat="47.51003" lon="6.72497">
        <ele>445.9</ele>
        <time>2017-01-15T08:56:43.999Z</time>
      </trkpt>
      <trkpt lat="47.51007" lon="6.72497">
        <ele>446.6</ele>
        <time>2017-01-15T08:56:49.999Z</time>
      </trkpt>
      <trkpt lat="47.51008" lon="6.72497">
        <ele>446.8</ele>
        <time>2017-01-15T08:56:50.999Z</time>
      </trkpt>
      <trkpt lat="47.51012" lon="6.72499">
        <ele>447.6</ele>
        <time>2017-01-15T08:56:55.999Z</time>
      </trkpt>
      <trkpt lat="47.51013" lon="6.72499">
        <ele>447.6</ele>
        <time>2017-01-15T08:56:56.999Z</time>
      </trkpt>
      <trkpt lat="47.51016" lon="6.72498">
        <ele>448.8</ele>
        <time>2017-01-15T08:57:01.999Z</time>
      </trkpt>
      <trkpt lat="47.51017" lon="6.72498">
        <ele>449.1</ele>
        <time>2017-01-15T08:57:02.999Z</time>
      </trkpt>
      <trkpt lat="47.51021" lon="6.72499">
        <ele>449.6</ele>
        <time>2017-01-15T08:57:05.999Z</time>
      </trkpt>
      <trkpt lat="47.51023" lon="6.72499">
        <ele>449.7</ele>
        <time>2017-01-15T08:57:06.999Z</time>
      </trkpt>
      <trkpt lat="47.51026" lon="6.725">
        <ele>450.1</ele>
        <time>2017-01-15T08:57:08.999Z</time>
      </trkpt>
      <trkpt lat="47.51028" lon="6.725">
        <ele>450.3</ele>
        <time>2017-01-15T08:57:09.999Z</time>
      </trkpt>
      <trkpt lat="47.51031" lon="6.72502">
        <ele>450.4</ele>
        <time>2017-01-15T08:57:11.999Z</time>
      </trkpt>
      <trkpt lat="47.51032" lon="6.72504">
        <ele>450.5</ele>
        <time>2017-01-15T08:57:12.999Z</time>
      </trkpt>
      <trkpt lat="47.51037" lon="6.72505">
        <ele>451.3</ele>
        <time>2017-01-15T08:57:17.999Z</time>
      </trkpt>
      <trkpt lat="47.51037" lon="6.72506">
        <ele>451.5</ele>
        <time>2017-01-15T08:57:18.999Z</time>
      </trkpt>
      <trkpt lat="47.51041" lon="6.72508">
        <ele>451.6</ele>
        <time>2017-01-15T08:57:21.999Z</time>
      </trkpt>
      <trkpt lat="47.51042" lon="6.72509">
        <ele>451.6</ele>
        <time>2017-01-15T08:57:22.999Z</time>
      </trkpt>
      <trkpt lat="47.51046" lon="6.7251">
        <ele>451.9</ele>
        <time>2017-01-15T08:57:25.999Z</time>
      </trkpt>
      <trkpt lat="47.51047" lon="6.7251">
        <ele>452.1</ele>
        <time>2017-01-15T08:57:26.999Z</time>
      </trkpt>
      <trkpt lat="47.51051" lon="6.7251">
        <ele>452.8</ele>
        <time>2017-01-15T08:57:29.999Z</time>
      </trkpt>
      <trkpt lat="47.51052" lon="6.72511">
        <ele>452.9</ele>
        <time>2017-01-15T08:57:30.999Z</time>
      </trkpt>
      <trkpt lat="47.51055" lon="6.72511">
        <ele>453.3</ele>
        <time>2017-01-15T08:57:32.999Z</time>
      </trkpt>
      <trkpt lat="47.51057" lon="6.72511">
        <ele>453.3</ele>
        <time>2017-01-15T08:57:33.999Z</time>
      </trkpt>
      <trkpt lat="47.5106" lon="6.72513">
        <ele>453.5</ele>
        <time>2017-01-15T08:57:36.999Z</time>
      </trkpt>
      <trkpt lat="47.51061" lon="6.72513">
        <ele>453.6</ele>
        <time>2017-01-15T08:57:37.999Z</time>
      </trkpt>
      <trkpt lat="47.51065" lon="6.72514">
        <ele>453.7</ele>
        <time>2017-01-15T08:57:43.999Z</time>
      </trkpt>
      <trkpt lat="47.51066" lon="6.72514">
        <ele>453.7</ele>
        <time>2017-01-15T08:57:44.999Z</time>
      </trkpt>
      <trkpt lat="47.5107" lon="6.72514">
        <ele>453.8</ele>
        <time>2017-01-15T08:57:48.999Z</time>
      </trkpt>
      <trkpt lat="47.51071" lon="6.72514">
        <ele>453.9</ele>
        <time>2017-01-15T08:57:49.999Z</time>
      </trkpt>
      <trkpt lat="47.51075" lon="6.72515">
        <ele>454.4</ele>
        <time>2017-01-15T08:57:53.999Z</time>
      </trkpt>
      <trkpt lat="47.51076" lon="6.72515">
        <ele>454.5</ele>
        <time>2017-01-15T08:57:54.999Z</time>
      </trkpt>
      <trkpt lat="47.5108" lon="6.72518">
        <ele>454.8</ele>
        <time>2017-01-15T08:57:57.999Z</time>
      </trkpt>
      <trkpt lat="47.51081" lon="6.72519">
        <ele>454.9</ele>
        <time>2017-01-15T08:57:58.999Z</time>
      </trkpt>
      <trkpt lat="47.51084" lon="6.72522">
        <ele>457.7</ele>
        <time>2017-01-15T08:58:07.999Z</time>
      </trkpt>
      <trkpt lat="47.51085" lon="6.72522">
        <ele>458</ele>
        <time>2017-01-15T08:58:08.999Z</time>
      </trkpt>
      <trkpt lat="47.51088" lon="6.72523">
        <ele>458.5</ele>
        <time>2017-01-15T08:58:11.999Z</time>
      </trkpt>
      <trkpt lat="47.51091" lon="6.72525">
        <ele>458.7</ele>
        <time>2017-01-15T08:58:12.999Z</time>
      </trkpt>
      <trkpt lat="47.51093" lon="6.72525">
        <ele>458.8</ele>
        <time>2017-01-15T08:58:13.999Z</time>
      </trkpt>
      <trkpt lat="47.51095" lon="6.72527">
        <ele>459.1</ele>
        <time>2017-01-15T08:58:14.999Z</time>
      </trkpt>
      <trkpt lat="47.51099" lon="6.72528">
        <ele>459.7</ele>
        <time>2017-01-15T08:58:17.999Z</time>
      </trkpt>
      <trkpt lat="47.51101" lon="6.72529">
        <ele>459.7</ele>
        <time>2017-01-15T08:58:18.999Z</time>
      </trkpt>
      <trkpt lat="47.51104" lon="6.7253">
        <ele>459.9</ele>
        <time>2017-01-15T08:58:21.999Z</time>
      </trkpt>
      <trkpt lat="47.51106" lon="6.72531">
        <ele>459.9</ele>
        <time>2017-01-15T08:58:22.999Z</time>
      </trkpt>
      <trkpt lat="47.51109" lon="6.72532">
        <ele>460</ele>
        <time>2017-01-15T08:58:26.999Z</time>
      </trkpt>
      <trkpt lat="47.51111" lon="6.72531">
        <ele>460.1</ele>
        <time>2017-01-15T08:58:28.999Z</time>
      </trkpt>
      <trkpt lat="47.51114" lon="6.72532">
        <ele>460.2</ele>
        <time>2017-01-15T08:58:32.999Z</time>
      </trkpt>
      <trkpt lat="47.51116" lon="6.72532">
        <ele>460.2</ele>
        <time>2017-01-15T08:58:33.999Z</time>
      </trkpt>
      <trkpt lat="47.5112" lon="6.72533">
        <ele>460.2</ele>
        <time>2017-01-15T08:58:35.999Z</time>
      </trkpt>
      <trkpt lat="47.51121" lon="6.72534">
        <ele>460.3</ele>
        <time>2017-01-15T08:58:36.999Z</time>
      </trkpt>
      <trkpt lat="47.51124" lon="6.72536">
        <ele>460.2</ele>
        <time>2017-01-15T08:58:39.999Z</time>
      </trkpt>
      <trkpt lat="47.51126" lon="6.72536">
        <ele>460.1</ele>
        <time>2017-01-15T08:58:40.999Z</time>
      </trkpt>
      <trkpt lat="47.5113" lon="6.72537">
        <ele>459.9</ele>
        <time>2017-01-15T08:58:42.999Z</time>
      </trkpt>
      <trkpt lat="47.51132" lon="6.72538">
        <ele>459.9</ele>
        <time>2017-01-15T08:58:43.999Z</time>
      </trkpt>
      <trkpt lat="47.51136" lon="6.72539">
        <ele>459.8</ele>
        <time>2017-01-15T08:58:45.999Z</time>
      </trkpt>
      <trkpt lat="47.51137" lon="6.72539">
        <ele>459.7</ele>
        <time>2017-01-15T08:58:46.999Z</time>
      </trkpt>
      <trkpt lat="47.5114" lon="6.72542">
        <ele>460</ele>
        <time>2017-01-15T08:58:50.999Z</time>
      </trkpt>
      <trkpt lat="47.51141" lon="6.72542">
        <ele>460.1</ele>
        <time>2017-01-15T08:58:51.999Z</time>
      </trkpt>
      <trkpt lat="47.51143" lon="6.72545">
        <ele>460.1</ele>
        <time>2017-01-15T08:58:53.999Z</time>
      </trkpt>
      <trkpt lat="47.51145" lon="6.72545">
        <ele>460.1</ele>
        <time>2017-01-15T08:58:54.999Z</time>
      </trkpt>
      <trkpt lat="47.51148" lon="6.72547">
        <ele>460.3</ele>
        <time>2017-01-15T08:58:57.999Z</time>
      </trkpt>
      <trkpt lat="47.51149" lon="6.72548">
        <ele>460.3</ele>
        <time>2017-01-15T08:58:58.999Z</time>
      </trkpt>
      <trkpt lat="47.51153" lon="6.7255">
        <ele>460.5</ele>
        <time>2017-01-15T08:59:00.999Z</time>
      </trkpt>
      <trkpt lat="47.51154" lon="6.72551">
        <ele>460.5</ele>
        <time>2017-01-15T08:59:01.999Z</time>
      </trkpt>
      <trkpt lat="47.51158" lon="6.7255">
        <ele>460.7</ele>
        <time>2017-01-15T08:59:06.999Z</time>
      </trkpt>
      <trkpt lat="47.51159" lon="6.72549">
        <ele>460.8</ele>
        <time>2017-01-15T08:59:07.999Z</time>
      </trkpt>
      <trkpt lat="47.51163" lon="6.72549">
        <ele>461.6</ele>
        <time>2017-01-15T08:59:17.999Z</time>
      </trkpt>
      <trkpt lat="47.51164" lon="6.72549">
        <ele>461.6</ele>
        <time>2017-01-15T08:59:18.999Z</time>
      </trkpt>
      <trkpt lat="47.51168" lon="6.72546">
        <ele>466.1</ele>
        <time>2017-01-15T08:59:37.999Z</time>
      </trkpt>
      <trkpt lat="47.51169" lon="6.72545">
        <ele>466.5</ele>
        <time>2017-01-15T08:59:38.999Z</time>
      </trkpt>
      <trkpt lat="47.51165" lon="6.72547">
        <ele>483.5</ele>
        <time>2017-01-15T09:02:13.999Z</time>
      </trkpt>
      <trkpt lat="47.51164" lon="6.72548">
        <ele>483.6</ele>
        <time>2017-01-15T09:02:14.999Z</time>
      </trkpt>
      <trkpt lat="47.51168" lon="6.7255">
        <ele>482.4</ele>
        <time>2017-01-15T09:02:50.999Z</time>
      </trkpt>
      <trkpt lat="47.5117" lon="6.72551">
        <ele>482.1</ele>
        <time>2017-01-15T09:02:51.999Z</time>
      </trkpt>
      <trkpt lat="47.51174" lon="6.72552">
        <ele>481.6</ele>
        <time>2017-01-15T09:02:53.999Z</time>
      </trkpt>
      <trkpt lat="47.51177" lon="6.72553">
        <ele>481.5</ele>
        <time>2017-01-15T09:02:54.999Z</time>
      </trkpt>
      <trkpt lat="47.51179" lon="6.72554">
        <ele>481.2</ele>
        <time>2017-01-15T09:02:56.999Z</time>
      </trkpt>
      <trkpt lat="47.51181" lon="6.72554">
        <ele>481.1</ele>
        <time>2017-01-15T09:02:57.999Z</time>
      </trkpt>
      <trkpt lat="47.51184" lon="6.72555">
        <ele>481</ele>
        <time>2017-01-15T09:02:58.999Z</time>
      </trkpt>
      <trkpt lat="47.51186" lon="6.72555">
        <ele>480.8</ele>
        <time>2017-01-15T09:02:59.999Z</time>
      </trkpt>
      <trkpt lat="47.51189" lon="6.72556">
        <ele>480.4</ele>
        <time>2017-01-15T09:03:01.999Z</time>
      </trkpt>
      <trkpt lat="47.51192" lon="6.72556">
        <ele>480.3</ele>
        <time>2017-01-15T09:03:02.999Z</time>
      </trkpt>
      <trkpt lat="47.51194" lon="6.72557">
        <ele>480</ele>
        <time>2017-01-15T09:03:03.999Z</time>
      </trkpt>
      <trkpt lat="47.51197" lon="6.72558">
        <ele>479.7</ele>
        <time>2017-01-15T09:03:04.999Z</time>
      </trkpt>
      <trkpt lat="47.512" lon="6.7256">
        <ele>479.5</ele>
        <time>2017-01-15T09:03:05.999Z</time>
      </trkpt>
      <trkpt lat="47.51203" lon="6.72562">
        <ele>479.2</ele>
        <time>2017-01-15T09:03:06.999Z</time>
      </trkpt>
      <trkpt lat="47.51208" lon="6.72565">
        <ele>478.9</ele>
        <time>2017-01-15T09:03:07.999Z</time>
      </trkpt>
      <trkpt lat="47.51211" lon="6.72568">
        <ele>478</ele>
        <time>2017-01-15T09:03:11.999Z</time>
      </trkpt>
      <trkpt lat="47.51211" lon="6.72569">
        <ele>477.9</ele>
        <time>2017-01-15T09:03:12.999Z</time>
      </trkpt>
      <trkpt lat="47.51221" lon="6.72573">
        <ele>477.7</ele>
        <time>2017-01-15T09:03:13.999Z</time>
      </trkpt>
      <trkpt lat="47.51226" lon="6.72574">
        <ele>477.7</ele>
        <time>2017-01-15T09:03:14.999Z</time>
      </trkpt>
      <trkpt lat="47.5123" lon="6.72575">
        <ele>477.6</ele>
        <time>2017-01-15T09:03:15.999Z</time>
      </trkpt>
      <trkpt lat="47.51234" lon="6.72576">
        <ele>477.4</ele>
        <time>2017-01-15T09:03:16.999Z</time>
      </trkpt>
      <trkpt lat="47.51238" lon="6.72577">
        <ele>477.2</ele>
        <time>2017-01-15T09:03:17.999Z</time>
      </trkpt>
      <trkpt lat="47.5124" lon="6.72578">
        <ele>477</ele>
        <time>2017-01-15T09:03:18.999Z</time>
      </trkpt>
      <trkpt lat="47.51243" lon="6.72578">
        <ele>476.8</ele>
        <time>2017-01-15T09:03:19.999Z</time>
      </trkpt>
      <trkpt lat="47.51246" lon="6.72579">
        <ele>476.6</ele>
        <time>2017-01-15T09:03:20.999Z</time>
      </trkpt>
      <trkpt lat="47.51249" lon="6.72579">
        <ele>476.4</ele>
        <time>2017-01-15T09:03:21.999Z</time>
      </trkpt>
      <trkpt lat="47.51253" lon="6.72579">
        <ele>476.3</ele>
        <time>2017-01-15T09:03:22.999Z</time>
      </trkpt>
      <trkpt lat="47.51255" lon="6.72579">
        <ele>476.1</ele>
        <time>2017-01-15T09:03:23.999Z</time>
      </trkpt>
      <trkpt lat="47.51258" lon="6.7258">
        <ele>475.9</ele>
        <time>2017-01-15T09:03:24.999Z</time>
      </trkpt>
      <trkpt lat="47.5126" lon="6.72581">
        <ele>475.8</ele>
        <time>2017-01-15T09:03:25.999Z</time>
      </trkpt>
      <trkpt lat="47.51262" lon="6.72581">
        <ele>475.7</ele>
        <time>2017-01-15T09:03:26.999Z</time>
      </trkpt>
      <trkpt lat="47.51265" lon="6.72582">
        <ele>475.5</ele>
        <time>2017-01-15T09:03:27.999Z</time>
      </trkpt>
      <trkpt lat="47.51267" lon="6.72583">
        <ele>475.3</ele>
        <time>2017-01-15T09:03:28.999Z</time>
      </trkpt>
      <trkpt lat="47.5127" lon="6.72583">
        <ele>474.9</ele>
        <time>2017-01-15T09:03:30.999Z</time>
      </trkpt>
      <trkpt lat="47.51272" lon="6.72584">
        <ele>474.6</ele>
        <time>2017-01-15T09:03:31.999Z</time>
      </trkpt>
      <trkpt lat="47.51274" lon="6.72584">
        <ele>474.3</ele>
        <time>2017-01-15T09:03:32.999Z</time>
      </trkpt>
      <trkpt lat="47.51276" lon="6.72585">
        <ele>473.9</ele>
        <time>2017-01-15T09:03:33.999Z</time>
      </trkpt>
      <trkpt lat="47.51279" lon="6.72585">
        <ele>473.6</ele>
        <time>2017-01-15T09:03:34.999Z</time>
      </trkpt>
      <trkpt lat="47.51281" lon="6.72586">
        <ele>473.3</ele>
        <time>2017-01-15T09:03:35.999Z</time>
      </trkpt>
      <trkpt lat="47.51284" lon="6.72587">
        <ele>473.1</ele>
        <time>2017-01-15T09:03:36.999Z</time>
      </trkpt>
      <trkpt lat="47.51286" lon="6.72588">
        <ele>472.8</ele>
        <time>2017-01-15T09:03:37.999Z</time>
      </trkpt>
      <trkpt lat="47.5129" lon="6.72591">
        <ele>472.4</ele>
        <time>2017-01-15T09:03:39.999Z</time>
      </trkpt>
      <trkpt lat="47.51292" lon="6.72592">
        <ele>472.2</ele>
        <time>2017-01-15T09:03:40.999Z</time>
      </trkpt>
      <trkpt lat="47.51295" lon="6.72594">
        <ele>471.9</ele>
        <time>2017-01-15T09:03:42.999Z</time>
      </trkpt>
      <trkpt lat="47.51296" lon="6.72595">
        <ele>471.7</ele>
        <time>2017-01-15T09:03:43.999Z</time>
      </trkpt>
      <trkpt lat="47.513" lon="6.72598">
        <ele>471.2</ele>
        <time>2017-01-15T09:03:45.999Z</time>
      </trkpt>
      <trkpt lat="47.51301" lon="6.72599">
        <ele>471.1</ele>
        <time>2017-01-15T09:03:46.999Z</time>
      </trkpt>
      <trkpt lat="47.51305" lon="6.72601">
        <ele>470.9</ele>
        <time>2017-01-15T09:03:48.999Z</time>
      </trkpt>
      <trkpt lat="47.51306" lon="6.72601">
        <ele>470.8</ele>
        <time>2017-01-15T09:03:49.999Z</time>
      </trkpt>
      <trkpt lat="47.51309" lon="6.72603">
        <ele>470.6</ele>
        <time>2017-01-15T09:03:51.999Z</time>
      </trkpt>
      <trkpt lat="47.51311" lon="6.72604">
        <ele>470.6</ele>
        <time>2017-01-15T09:03:52.999Z</time>
      </trkpt>
      <trkpt lat="47.51313" lon="6.72605">
        <ele>470.5</ele>
        <time>2017-01-15T09:03:53.999Z</time>
      </trkpt>
      <trkpt lat="47.51315" lon="6.72606">
        <ele>470.3</ele>
        <time>2017-01-15T09:03:54.999Z</time>
      </trkpt>
      <trkpt lat="47.51319" lon="6.7261">
        <ele>470.1</ele>
        <time>2017-01-15T09:03:56.999Z</time>
      </trkpt>
      <trkpt lat="47.5132" lon="6.72612">
        <ele>469.9</ele>
        <time>2017-01-15T09:03:57.999Z</time>
      </trkpt>
      <trkpt lat="47.51324" lon="6.72614">
        <ele>469.2</ele>
        <time>2017-01-15T09:04:00.999Z</time>
      </trkpt>
      <trkpt lat="47.51328" lon="6.72617">
        <ele>469.1</ele>
        <time>2017-01-15T09:04:01.999Z</time>
      </trkpt>
      <trkpt lat="47.51332" lon="6.72619">
        <ele>468.8</ele>
        <time>2017-01-15T09:04:03.999Z</time>
      </trkpt>
      <trkpt lat="47.51334" lon="6.72621">
        <ele>468.6</ele>
        <time>2017-01-15T09:04:04.999Z</time>
      </trkpt>
      <trkpt lat="47.51336" lon="6.72623">
        <ele>468.5</ele>
        <time>2017-01-15T09:04:05.999Z</time>
      </trkpt>
      <trkpt lat="47.51339" lon="6.72624">
        <ele>468.5</ele>
        <time>2017-01-15T09:04:06.999Z</time>
      </trkpt>
      <trkpt lat="47.51343" lon="6.72625">
        <ele>468.5</ele>
        <time>2017-01-15T09:04:09.999Z</time>
      </trkpt>
      <trkpt lat="47.51343" lon="6.72626">
        <ele>468.6</ele>
        <time>2017-01-15T09:04:10.999Z</time>
      </trkpt>
      <trkpt lat="47.51347" lon="6.72626">
        <ele>468.5</ele>
        <time>2017-01-15T09:04:13.999Z</time>
      </trkpt>
      <trkpt lat="47.51348" lon="6.72625">
        <ele>468.4</ele>
        <time>2017-01-15T09:04:14.999Z</time>
      </trkpt>
      <trkpt lat="47.51349" lon="6.72624">
        <ele>468.3</ele>
        <time>2017-01-15T09:04:15.999Z</time>
      </trkpt>
      <trkpt lat="47.51352" lon="6.72623">
        <ele>468.3</ele>
        <time>2017-01-15T09:04:16.999Z</time>
      </trkpt>
      <trkpt lat="47.51356" lon="6.72621">
        <ele>468.1</ele>
        <time>2017-01-15T09:04:18.999Z</time>
      </trkpt>
      <trkpt lat="47.51358" lon="6.7262">
        <ele>467.9</ele>
        <time>2017-01-15T09:04:19.999Z</time>
      </trkpt>
      <trkpt lat="47.51362" lon="6.72618">
        <ele>467.8</ele>
        <time>2017-01-15T09:04:21.999Z</time>
      </trkpt>
      <trkpt lat="47.51363" lon="6.72617">
        <ele>467.7</ele>
        <time>2017-01-15T09:04:22.999Z</time>
      </trkpt>
      <trkpt lat="47.51366" lon="6.72615">
        <ele>467.4</ele>
        <time>2017-01-15T09:04:24.999Z</time>
      </trkpt>
      <trkpt lat="47.51368" lon="6.72614">
        <ele>467.2</ele>
        <time>2017-01-15T09:04:25.999Z</time>
      </trkpt>
      <trkpt lat="47.51371" lon="6.72613">
        <ele>467.3</ele>
        <time>2017-01-15T09:04:27.999Z</time>
      </trkpt>
      <trkpt lat="47.51373" lon="6.72613">
        <ele>467.3</ele>
        <time>2017-01-15T09:04:28.999Z</time>
      </trkpt>
      <trkpt lat="47.51377" lon="6.72612">
        <ele>467.3</ele>
        <time>2017-01-15T09:04:30.999Z</time>
      </trkpt>
      <trkpt lat="47.51378" lon="6.72611">
        <ele>467.2</ele>
        <time>2017-01-15T09:04:31.999Z</time>
      </trkpt>
      <trkpt lat="47.51381" lon="6.7261">
        <ele>467.2</ele>
        <time>2017-01-15T09:04:33.999Z</time>
      </trkpt>
      <trkpt lat="47.51383" lon="6.7261">
        <ele>467.2</ele>
        <time>2017-01-15T09:04:34.999Z</time>
      </trkpt>
      <trkpt lat="47.51387" lon="6.72608">
        <ele>467.3</ele>
        <time>2017-01-15T09:04:36.999Z</time>
      </trkpt>
      <trkpt lat="47.51388" lon="6.72605">
        <ele>467.3</ele>
        <time>2017-01-15T09:04:37.999Z</time>
      </trkpt>
      <trkpt lat="47.5139" lon="6.72599">
        <ele>467.1</ele>
        <time>2017-01-15T09:04:40.999Z</time>
      </trkpt>
      <trkpt lat="47.5139" lon="6.72596">
        <ele>467.1</ele>
        <time>2017-01-15T09:04:41.999Z</time>
      </trkpt>
      <trkpt lat="47.51389" lon="6.7259">
        <ele>466.9</ele>
        <time>2017-01-15T09:04:43.999Z</time>
      </trkpt>
      <trkpt lat="47.51388" lon="6.72587">
        <ele>466.8</ele>
        <time>2017-01-15T09:04:44.999Z</time>
      </trkpt>
      <trkpt lat="47.51387" lon="6.72582">
        <ele>466.6</ele>
        <time>2017-01-15T09:04:45.999Z</time>
      </trkpt>
      <trkpt lat="47.51386" lon="6.72579">
        <ele>466.5</ele>
        <time>2017-01-15T09:04:46.999Z</time>
      </trkpt>
      <trkpt lat="47.51386" lon="6.72574">
        <ele>466.4</ele>
        <time>2017-01-15T09:04:48.999Z</time>
      </trkpt>
      <trkpt lat="47.51385" lon="6.72571">
        <ele>466.4</ele>
        <time>2017-01-15T09:04:49.999Z</time>
      </trkpt>
      <trkpt lat="47.51384" lon="6.72567">
        <ele>466.2</ele>
        <time>2017-01-15T09:04:51.999Z</time>
      </trkpt>
      <trkpt lat="47.51384" lon="6.72563">
        <ele>466</ele>
        <time>2017-01-15T09:04:52.999Z</time>
      </trkpt>
      <trkpt lat="47.51383" lon="6.72559">
        <ele>465.9</ele>
        <time>2017-01-15T09:04:53.999Z</time>
      </trkpt>
      <trkpt lat="47.51383" lon="6.72554">
        <ele>465.8</ele>
        <time>2017-01-15T09:04:54.999Z</time>
      </trkpt>
      <trkpt lat="47.51382" lon="6.72551">
        <ele>465.6</ele>
        <time>2017-01-15T09:04:55.999Z</time>
      </trkpt>
      <trkpt lat="47.51382" lon="6.72545">
        <ele>465.5</ele>
        <time>2017-01-15T09:04:56.999Z</time>
      </trkpt>
      <trkpt lat="47.51382" lon="6.7254">
        <ele>465.2</ele>
        <time>2017-01-15T09:04:58.999Z</time>
      </trkpt>
      <trkpt lat="47.51382" lon="6.72537">
        <ele>465.1</ele>
        <time>2017-01-15T09:04:59.999Z</time>
      </trkpt>
      <trkpt lat="47.51381" lon="6.72534">
        <ele>465.1</ele>
        <time>2017-01-15T09:05:00.999Z</time>
      </trkpt>
      <trkpt lat="47.51381" lon="6.72529">
        <ele>465</ele>
        <time>2017-01-15T09:05:01.999Z</time>
      </trkpt>
      <trkpt lat="47.51381" lon="6.72523">
        <ele>465</ele>
        <time>2017-01-15T09:05:02.999Z</time>
      </trkpt>
      <trkpt lat="47.51381" lon="6.72519">
        <ele>465</ele>
        <time>2017-01-15T09:05:03.999Z</time>
      </trkpt>
      <trkpt lat="47.5138" lon="6.72512">
        <ele>465</ele>
        <time>2017-01-15T09:05:05.999Z</time>
      </trkpt>
      <trkpt lat="47.5138" lon="6.72507">
        <ele>465</ele>
        <time>2017-01-15T09:05:06.999Z</time>
      </trkpt>
      <trkpt lat="47.51379" lon="6.72504">
        <ele>465</ele>
        <time>2017-01-15T09:05:07.999Z</time>
      </trkpt>
      <trkpt lat="47.51377" lon="6.725">
        <ele>465.1</ele>
        <time>2017-01-15T09:05:08.999Z</time>
      </trkpt>
      <trkpt lat="47.51376" lon="6.72494">
        <ele>465.3</ele>
        <time>2017-01-15T09:05:10.999Z</time>
      </trkpt>
      <trkpt lat="47.51376" lon="6.72492">
        <ele>465.4</ele>
        <time>2017-01-15T09:05:11.999Z</time>
      </trkpt>
      <trkpt lat="47.51375" lon="6.72486">
        <ele>465.5</ele>
        <time>2017-01-15T09:05:13.999Z</time>
      </trkpt>
      <trkpt lat="47.51375" lon="6.72483">
        <ele>465.6</ele>
        <time>2017-01-15T09:05:14.999Z</time>
      </trkpt>
      <trkpt lat="47.51374" lon="6.72479">
        <ele>466</ele>
        <time>2017-01-15T09:05:17.999Z</time>
      </trkpt>
      <trkpt lat="47.51372" lon="6.72474">
        <ele>466</ele>
        <time>2017-01-15T09:05:18.999Z</time>
      </trkpt>
      <trkpt lat="47.5137" lon="6.7247">
        <ele>466.2</ele>
        <time>2017-01-15T09:05:20.999Z</time>
      </trkpt>
      <trkpt lat="47.5137" lon="6.72467">
        <ele>466.2</ele>
        <time>2017-01-15T09:05:21.999Z</time>
      </trkpt>
      <trkpt lat="47.51368" lon="6.72462">
        <ele>466.3</ele>
        <time>2017-01-15T09:05:23.999Z</time>
      </trkpt>
      <trkpt lat="47.51367" lon="6.72458">
        <ele>466.3</ele>
        <time>2017-01-15T09:05:24.999Z</time>
      </trkpt>
      <trkpt lat="47.51366" lon="6.72454">
        <ele>466.2</ele>
        <time>2017-01-15T09:05:25.999Z</time>
      </trkpt>
      <trkpt lat="47.51366" lon="6.7245">
        <ele>466.1</ele>
        <time>2017-01-15T09:05:26.999Z</time>
      </trkpt>
      <trkpt lat="47.51364" lon="6.72445">
        <ele>466</ele>
        <time>2017-01-15T09:05:27.999Z</time>
      </trkpt>
      <trkpt lat="47.51363" lon="6.72441">
        <ele>466</ele>
        <time>2017-01-15T09:05:28.999Z</time>
      </trkpt>
      <trkpt lat="47.51365" lon="6.72436">
        <ele>465.9</ele>
        <time>2017-01-15T09:05:31.999Z</time>
      </trkpt>
      <trkpt lat="47.51367" lon="6.72435">
        <ele>465.9</ele>
        <time>2017-01-15T09:05:32.999Z</time>
      </trkpt>
      <trkpt lat="47.51369" lon="6.72434">
        <ele>466</ele>
        <time>2017-01-15T09:05:33.999Z</time>
      </trkpt>
      <trkpt lat="47.51373" lon="6.72433">
        <ele>466</ele>
        <time>2017-01-15T09:05:34.999Z</time>
      </trkpt>
      <trkpt lat="47.51375" lon="6.72432">
        <ele>465.9</ele>
        <time>2017-01-15T09:05:35.999Z</time>
      </trkpt>
      <trkpt lat="47.51379" lon="6.72431">
        <ele>465.9</ele>
        <time>2017-01-15T09:05:36.999Z</time>
      </trkpt>
      <trkpt lat="47.51384" lon="6.72429">
        <ele>465.9</ele>
        <time>2017-01-15T09:05:37.999Z</time>
      </trkpt>
      <trkpt lat="47.51388" lon="6.72428">
        <ele>465.7</ele>
        <time>2017-01-15T09:05:38.999Z</time>
      </trkpt>
      <trkpt lat="47.51393" lon="6.72427">
        <ele>465.6</ele>
        <time>2017-01-15T09:05:39.999Z</time>
      </trkpt>
      <trkpt lat="47.51398" lon="6.72426">
        <ele>465.4</ele>
        <time>2017-01-15T09:05:40.999Z</time>
      </trkpt>
      <trkpt lat="47.51402" lon="6.72424">
        <ele>465.2</ele>
        <time>2017-01-15T09:05:41.999Z</time>
      </trkpt>
      <trkpt lat="47.51406" lon="6.72423">
        <ele>465.1</ele>
        <time>2017-01-15T09:05:42.999Z</time>
      </trkpt>
      <trkpt lat="47.5141" lon="6.72421">
        <ele>464.9</ele>
        <time>2017-01-15T09:05:43.999Z</time>
      </trkpt>
      <trkpt lat="47.51414" lon="6.72419">
        <ele>464.7</ele>
        <time>2017-01-15T09:05:44.999Z</time>
      </trkpt>
      <trkpt lat="47.51419" lon="6.72419">
        <ele>464.5</ele>
        <time>2017-01-15T09:05:45.999Z</time>
      </trkpt>
      <trkpt lat="47.51422" lon="6.72417">
        <ele>464.2</ele>
        <time>2017-01-15T09:05:46.999Z</time>
      </trkpt>
      <trkpt lat="47.51427" lon="6.72416">
        <ele>464</ele>
        <time>2017-01-15T09:05:47.999Z</time>
      </trkpt>
      <trkpt lat="47.51432" lon="6.72414">
        <ele>463.7</ele>
        <time>2017-01-15T09:05:48.999Z</time>
      </trkpt>
      <trkpt lat="47.51437" lon="6.72412">
        <ele>463.4</ele>
        <time>2017-01-15T09:05:49.999Z</time>
      </trkpt>
      <trkpt lat="47.51443" lon="6.7241">
        <ele>460</ele>
        <time>2017-01-15T09:05:50.999Z</time>
      </trkpt>
      <trkpt lat="47.51449" lon="6.72407">
        <ele>459.8</ele>
        <time>2017-01-15T09:05:51.999Z</time>
      </trkpt>
      <trkpt lat="47.51454" lon="6.72406">
        <ele>459.5</ele>
        <time>2017-01-15T09:05:52.999Z</time>
      </trkpt>
      <trkpt lat="47.51459" lon="6.72404">
        <ele>459.3</ele>
        <time>2017-01-15T09:05:53.999Z</time>
      </trkpt>
      <trkpt lat="47.51465" lon="6.72402">
        <ele>459</ele>
        <time>2017-01-15T09:05:54.999Z</time>
      </trkpt>
      <trkpt lat="47.51471" lon="6.72402">
        <ele>458.7</ele>
        <time>2017-01-15T09:05:55.999Z</time>
      </trkpt>
      <trkpt lat="47.51476" lon="6.724">
        <ele>458.5</ele>
        <time>2017-01-15T09:05:56.999Z</time>
      </trkpt>
      <trkpt lat="47.51481" lon="6.72399">
        <ele>458.3</ele>
        <time>2017-01-15T09:05:57.999Z</time>
      </trkpt>
      <trkpt lat="47.51485" lon="6.72397">
        <ele>458.1</ele>
        <time>2017-01-15T09:05:58.999Z</time>
      </trkpt>
      <trkpt lat="47.51489" lon="6.72395">
        <ele>457.9</ele>
        <time>2017-01-15T09:05:59.999Z</time>
      </trkpt>
      <trkpt lat="47.51492" lon="6.72393">
        <ele>457.7</ele>
        <time>2017-01-15T09:06:00.999Z</time>
      </trkpt>
      <trkpt lat="47.51495" lon="6.72391">
        <ele>457.4</ele>
        <time>2017-01-15T09:06:02.999Z</time>
      </trkpt>
      <trkpt lat="47.51497" lon="6.72389">
        <ele>457.2</ele>
        <time>2017-01-15T09:06:03.999Z</time>
      </trkpt>
      <trkpt lat="47.515" lon="6.72388">
        <ele>457</ele>
        <time>2017-01-15T09:06:04.999Z</time>
      </trkpt>
      <trkpt lat="47.51502" lon="6.72386">
        <ele>456.8</ele>
        <time>2017-01-15T09:06:05.999Z</time>
      </trkpt>
      <trkpt lat="47.51504" lon="6.72384">
        <ele>456.5</ele>
        <time>2017-01-15T09:06:06.999Z</time>
      </trkpt>
      <trkpt lat="47.51508" lon="6.72383">
        <ele>456.2</ele>
        <time>2017-01-15T09:06:07.999Z</time>
      </trkpt>
      <trkpt lat="47.51512" lon="6.72382">
        <ele>455.8</ele>
        <time>2017-01-15T09:06:08.999Z</time>
      </trkpt>
      <trkpt lat="47.51515" lon="6.72381">
        <ele>455.4</ele>
        <time>2017-01-15T09:06:09.999Z</time>
      </trkpt>
      <trkpt lat="47.51518" lon="6.72379">
        <ele>455</ele>
        <time>2017-01-15T09:06:10.999Z</time>
      </trkpt>
      <trkpt lat="47.51522" lon="6.72378">
        <ele>454.7</ele>
        <time>2017-01-15T09:06:11.999Z</time>
      </trkpt>
      <trkpt lat="47.51526" lon="6.72376">
        <ele>454.3</ele>
        <time>2017-01-15T09:06:12.999Z</time>
      </trkpt>
      <trkpt lat="47.5153" lon="6.72375">
        <ele>453.9</ele>
        <time>2017-01-15T09:06:13.999Z</time>
      </trkpt>
      <trkpt lat="47.51534" lon="6.72372">
        <ele>453.5</ele>
        <time>2017-01-15T09:06:14.999Z</time>
      </trkpt>
      <trkpt lat="47.51538" lon="6.72371">
        <ele>453.1</ele>
        <time>2017-01-15T09:06:15.999Z</time>
      </trkpt>
      <trkpt lat="47.51542" lon="6.72369">
        <ele>452.6</ele>
        <time>2017-01-15T09:06:16.999Z</time>
      </trkpt>
      <trkpt lat="47.51547" lon="6.72367">
        <ele>447.6</ele>
        <time>2017-01-15T09:06:17.999Z</time>
      </trkpt>
      <trkpt lat="47.51551" lon="6.72365">
        <ele>447.2</ele>
        <time>2017-01-15T09:06:18.999Z</time>
      </trkpt>
      <trkpt lat="47.51556" lon="6.72363">
        <ele>442.9</ele>
        <time>2017-01-15T09:06:19.999Z</time>
      </trkpt>
      <trkpt lat="47.5156" lon="6.72362">
        <ele>442.5</ele>
        <time>2017-01-15T09:06:20.999Z</time>
      </trkpt>
      <trkpt lat="47.51565" lon="6.72362">
        <ele>442.2</ele>
        <time>2017-01-15T09:06:21.999Z</time>
      </trkpt>
      <trkpt lat="47.51569" lon="6.72361">
        <ele>441.8</ele>
        <time>2017-01-15T09:06:22.999Z</time>
      </trkpt>
      <trkpt lat="47.51573" lon="6.72359">
        <ele>441.5</ele>
        <time>2017-01-15T09:06:23.999Z</time>
      </trkpt>
      <trkpt lat="47.51578" lon="6.72358">
        <ele>441.1</ele>
        <time>2017-01-15T09:06:24.999Z</time>
      </trkpt>
      <trkpt lat="47.51583" lon="6.72356">
        <ele>440.7</ele>
        <time>2017-01-15T09:06:25.999Z</time>
      </trkpt>
      <trkpt lat="47.5159" lon="6.72355">
        <ele>440.5</ele>
        <time>2017-01-15T09:06:26.999Z</time>
      </trkpt>
      <trkpt lat="47.51595" lon="6.72353">
        <ele>440.2</ele>
        <time>2017-01-15T09:06:27.999Z</time>
      </trkpt>
      <trkpt lat="47.516" lon="6.72352">
        <ele>439.9</ele>
        <time>2017-01-15T09:06:28.999Z</time>
      </trkpt>
      <trkpt lat="47.51605" lon="6.72351">
        <ele>439.6</ele>
        <time>2017-01-15T09:06:29.999Z</time>
      </trkpt>
      <trkpt lat="47.51609" lon="6.72351">
        <ele>439.2</ele>
        <time>2017-01-15T09:06:30.999Z</time>
      </trkpt>
      <trkpt lat="47.51612" lon="6.7235">
        <ele>438.9</ele>
        <time>2017-01-15T09:06:31.999Z</time>
      </trkpt>
      <trkpt lat="47.51616" lon="6.72348">
        <ele>438.5</ele>
        <time>2017-01-15T09:06:32.999Z</time>
      </trkpt>
      <trkpt lat="47.5162" lon="6.72347">
        <ele>438.2</ele>
        <time>2017-01-15T09:06:33.999Z</time>
      </trkpt>
      <trkpt lat="47.51624" lon="6.72346">
        <ele>437.8</ele>
        <time>2017-01-15T09:06:34.999Z</time>
      </trkpt>
      <trkpt lat="47.51627" lon="6.72345">
        <ele>437.4</ele>
        <time>2017-01-15T09:06:35.999Z</time>
      </trkpt>
      <trkpt lat="47.51632" lon="6.72346">
        <ele>437</ele>
        <time>2017-01-15T09:06:36.999Z</time>
      </trkpt>
      <trkpt lat="47.51634" lon="6.72347">
        <ele>436.8</ele>
        <time>2017-01-15T09:06:37.999Z</time>
      </trkpt>
      <trkpt lat="47.51637" lon="6.72349">
        <ele>436.6</ele>
        <time>2017-01-15T09:06:38.999Z</time>
      </trkpt>
      <trkpt lat="47.51641" lon="6.7235">
        <ele>436.3</ele>
        <time>2017-01-15T09:06:40.999Z</time>
      </trkpt>
      <trkpt lat="47.51643" lon="6.72351">
        <ele>436.2</ele>
        <time>2017-01-15T09:06:41.999Z</time>
      </trkpt>
      <trkpt lat="47.51646" lon="6.72351">
        <ele>436</ele>
        <time>2017-01-15T09:06:43.999Z</time>
      </trkpt>
      <trkpt lat="47.51647" lon="6.7235">
        <ele>435.9</ele>
        <time>2017-01-15T09:06:44.999Z</time>
      </trkpt>
      <trkpt lat="47.51649" lon="6.72349">
        <ele>435.9</ele>
        <time>2017-01-15T09:06:45.999Z</time>
      </trkpt>
      <trkpt lat="47.51653" lon="6.72347">
        <ele>435.7</ele>
        <time>2017-01-15T09:06:46.999Z</time>
      </trkpt>
      <trkpt lat="47.51658" lon="6.72344">
        <ele>435.6</ele>
        <time>2017-01-15T09:06:47.999Z</time>
      </trkpt>
      <trkpt lat="47.51662" lon="6.7234">
        <ele>435.4</ele>
        <time>2017-01-15T09:06:48.999Z</time>
      </trkpt>
      <trkpt lat="47.51667" lon="6.72336">
        <ele>435.2</ele>
        <time>2017-01-15T09:06:49.999Z</time>
      </trkpt>
      <trkpt lat="47.51671" lon="6.72331">
        <ele>435</ele>
        <time>2017-01-15T09:06:50.999Z</time>
      </trkpt>
      <trkpt lat="47.51675" lon="6.72327">
        <ele>434.6</ele>
        <time>2017-01-15T09:06:51.999Z</time>
      </trkpt>
      <trkpt lat="47.51679" lon="6.72323">
        <ele>434.3</ele>
        <time>2017-01-15T09:06:52.999Z</time>
      </trkpt>
      <trkpt lat="47.51681" lon="6.7232">
        <ele>434</ele>
        <time>2017-01-15T09:06:53.999Z</time>
      </trkpt>
      <trkpt lat="47.51684" lon="6.72315">
        <ele>433.6</ele>
        <time>2017-01-15T09:06:54.999Z</time>
      </trkpt>
      <trkpt lat="47.51686" lon="6.72312">
        <ele>433.3</ele>
        <time>2017-01-15T09:06:55.999Z</time>
      </trkpt>
      <trkpt lat="47.51688" lon="6.7231">
        <ele>433.1</ele>
        <time>2017-01-15T09:06:56.999Z</time>
      </trkpt>
      <trkpt lat="47.51691" lon="6.72308">
        <ele>432.8</ele>
        <time>2017-01-15T09:06:57.999Z</time>
      </trkpt>
      <trkpt lat="47.51694" lon="6.72306">
        <ele>432.5</ele>
        <time>2017-01-15T09:06:58.999Z</time>
      </trkpt>
      <trkpt lat="47.51696" lon="6.72303">
        <ele>432.3</ele>
        <time>2017-01-15T09:06:59.999Z</time>
      </trkpt>
      <trkpt lat="47.51699" lon="6.72301">
        <ele>432.1</ele>
        <time>2017-01-15T09:07:00.999Z</time>
      </trkpt>
      <trkpt lat="47.51704" lon="6.72298">
        <ele>430.1</ele>
        <time>2017-01-15T09:07:01.999Z</time>
      </trkpt>
      <trkpt lat="47.51709" lon="6.72294">
        <ele>427.8</ele>
        <time>2017-01-15T09:07:02.999Z</time>
      </trkpt>
      <trkpt lat="47.51717" lon="6.72289">
        <ele>426.4</ele>
        <time>2017-01-15T09:07:03.999Z</time>
      </trkpt>
      <trkpt lat="47.51722" lon="6.72285">
        <ele>424.2</ele>
        <time>2017-01-15T09:07:04.999Z</time>
      </trkpt>
      <trkpt lat="47.51729" lon="6.7228">
        <ele>422.4</ele>
        <time>2017-01-15T09:07:05.999Z</time>
      </trkpt>
      <trkpt lat="47.51736" lon="6.72275">
        <ele>420.4</ele>
        <time>2017-01-15T09:07:06.999Z</time>
      </trkpt>
      <trkpt lat="47.5174" lon="6.72273">
        <ele>420.2</ele>
        <time>2017-01-15T09:07:07.999Z</time>
      </trkpt>
      <trkpt lat="47.51746" lon="6.72267">
        <ele>418</ele>
        <time>2017-01-15T09:07:08.999Z</time>
      </trkpt>
      <trkpt lat="47.51752" lon="6.72264">
        <ele>415.4</ele>
        <time>2017-01-15T09:07:09.999Z</time>
      </trkpt>
      <trkpt lat="47.51759" lon="6.7226">
        <ele>413.2</ele>
        <time>2017-01-15T09:07:10.999Z</time>
      </trkpt>
      <trkpt lat="47.51766" lon="6.72255">
        <ele>411.2</ele>
        <time>2017-01-15T09:07:11.999Z</time>
      </trkpt>
      <trkpt lat="47.51772" lon="6.72249">
        <ele>409.6</ele>
        <time>2017-01-15T09:07:12.999Z</time>
      </trkpt>
      <trkpt lat="47.51779" lon="6.72245">
        <ele>408.1</ele>
        <time>2017-01-15T09:07:13.999Z</time>
      </trkpt>
      <trkpt lat="47.51785" lon="6.72242">
        <ele>406.2</ele>
        <time>2017-01-15T09:07:14.999Z</time>
      </trkpt>
      <trkpt lat="47.5179" lon="6.72237">
        <ele>404.5</ele>
        <time>2017-01-15T09:07:15.999Z</time>
      </trkpt>
      <trkpt lat="47.51795" lon="6.72234">
        <ele>402.3</ele>
        <time>2017-01-15T09:07:16.999Z</time>
      </trkpt>
      <trkpt lat="47.51799" lon="6.72234">
        <ele>402</ele>
        <time>2017-01-15T09:07:17.999Z</time>
      </trkpt>
      <trkpt lat="47.51802" lon="6.72234">
        <ele>401.6</ele>
        <time>2017-01-15T09:07:18.999Z</time>
      </trkpt>
      <trkpt lat="47.51806" lon="6.72235">
        <ele>401.2</ele>
        <time>2017-01-15T09:07:19.999Z</time>
      </trkpt>
      <trkpt lat="47.51811" lon="6.72235">
        <ele>396.4</ele>
        <time>2017-01-15T09:07:20.999Z</time>
      </trkpt>
      <trkpt lat="47.51816" lon="6.72235">
        <ele>391.4</ele>
        <time>2017-01-15T09:07:21.999Z</time>
      </trkpt>
      <trkpt lat="47.51819" lon="6.72233">
        <ele>391.1</ele>
        <time>2017-01-15T09:07:22.999Z</time>
      </trkpt>
      <trkpt lat="47.51822" lon="6.72232">
        <ele>390.8</ele>
        <time>2017-01-15T09:07:23.999Z</time>
      </trkpt>
      <trkpt lat="47.51827" lon="6.7223">
        <ele>389.1</ele>
        <time>2017-01-15T09:07:24.999Z</time>
      </trkpt>
      <trkpt lat="47.51831" lon="6.72234">
        <ele>388.4</ele>
        <time>2017-01-15T09:07:27.999Z</time>
      </trkpt>
      <trkpt lat="47.51833" lon="6.72234">
        <ele>388.2</ele>
        <time>2017-01-15T09:07:28.999Z</time>
      </trkpt>
      <trkpt lat="47.51835" lon="6.72234">
        <ele>388.1</ele>
        <time>2017-01-15T09:07:29.999Z</time>
      </trkpt>
      <trkpt lat="47.51842" lon="6.72234">
        <ele>388.1</ele>
        <time>2017-01-15T09:07:30.999Z</time>
      </trkpt>
      <trkpt lat="47.51848" lon="6.72235">
        <ele>388.1</ele>
        <time>2017-01-15T09:07:31.999Z</time>
      </trkpt>
      <trkpt lat="47.5185" lon="6.72236">
        <ele>388.2</ele>
        <time>2017-01-15T09:07:32.999Z</time>
      </trkpt>
      <trkpt lat="47.51855" lon="6.72237">
        <ele>388.2</ele>
        <time>2017-01-15T09:07:33.999Z</time>
      </trkpt>
      <trkpt lat="47.51859" lon="6.72237">
        <ele>388.3</ele>
        <time>2017-01-15T09:07:34.999Z</time>
      </trkpt>
      <trkpt lat="47.51864" lon="6.72237">
        <ele>388.5</ele>
        <time>2017-01-15T09:07:35.999Z</time>
      </trkpt>
      <trkpt lat="47.51868" lon="6.72237">
        <ele>388.6</ele>
        <time>2017-01-15T09:07:36.999Z</time>
      </trkpt>
      <trkpt lat="47.51872" lon="6.72236">
        <ele>388.9</ele>
        <time>2017-01-15T09:07:37.999Z</time>
      </trkpt>
      <trkpt lat="47.51876" lon="6.72236">
        <ele>389.3</ele>
        <time>2017-01-15T09:07:38.999Z</time>
      </trkpt>
      <trkpt lat="47.51881" lon="6.72235">
        <ele>389.7</ele>
        <time>2017-01-15T09:07:39.999Z</time>
      </trkpt>
      <trkpt lat="47.51884" lon="6.72235">
        <ele>390</ele>
        <time>2017-01-15T09:07:40.999Z</time>
      </trkpt>
      <trkpt lat="47.51886" lon="6.72234">
        <ele>390.3</ele>
        <time>2017-01-15T09:07:41.999Z</time>
      </trkpt>
      <trkpt lat="47.51889" lon="6.72233">
        <ele>390.7</ele>
        <time>2017-01-15T09:07:42.999Z</time>
      </trkpt>
      <trkpt lat="47.51893" lon="6.72234">
        <ele>391.6</ele>
        <time>2017-01-15T09:07:45.999Z</time>
      </trkpt>
      <trkpt lat="47.51896" lon="6.72233">
        <ele>391.9</ele>
        <time>2017-01-15T09:07:46.999Z</time>
      </trkpt>
      <trkpt lat="47.51899" lon="6.72233">
        <ele>392</ele>
        <time>2017-01-15T09:07:47.999Z</time>
      </trkpt>
      <trkpt lat="47.51902" lon="6.72231">
        <ele>392.1</ele>
        <time>2017-01-15T09:07:48.999Z</time>
      </trkpt>
      <trkpt lat="47.51905" lon="6.7223">
        <ele>392.3</ele>
        <time>2017-01-15T09:07:49.999Z</time>
      </trkpt>
      <trkpt lat="47.51908" lon="6.72228">
        <ele>392.4</ele>
        <time>2017-01-15T09:07:50.999Z</time>
      </trkpt>
      <trkpt lat="47.51911" lon="6.72226">
        <ele>392.6</ele>
        <time>2017-01-15T09:07:51.999Z</time>
      </trkpt>
      <trkpt lat="47.51914" lon="6.72224">
        <ele>392.8</ele>
        <time>2017-01-15T09:07:52.999Z</time>
      </trkpt>
      <trkpt lat="47.51918" lon="6.72222">
        <ele>393.1</ele>
        <time>2017-01-15T09:07:54.999Z</time>
      </trkpt>
      <trkpt lat="47.5192" lon="6.7222">
        <ele>393.2</ele>
        <time>2017-01-15T09:07:55.999Z</time>
      </trkpt>
      <trkpt lat="47.51925" lon="6.72216">
        <ele>393.3</ele>
        <time>2017-01-15T09:07:56.999Z</time>
      </trkpt>
      <trkpt lat="47.51928" lon="6.72214">
        <ele>393.4</ele>
        <time>2017-01-15T09:07:57.999Z</time>
      </trkpt>
      <trkpt lat="47.51931" lon="6.72212">
        <ele>393.5</ele>
        <time>2017-01-15T09:07:58.999Z</time>
      </trkpt>
      <trkpt lat="47.51934" lon="6.72209">
        <ele>393.7</ele>
        <time>2017-01-15T09:08:02.999Z</time>
      </trkpt>
      <trkpt lat="47.51935" lon="6.72209">
        <ele>393.9</ele>
        <time>2017-01-15T09:08:03.999Z</time>
      </trkpt>
      <trkpt lat="47.51939" lon="6.7221">
        <ele>394.7</ele>
        <time>2017-01-15T09:08:07.999Z</time>
      </trkpt>
      <trkpt lat="47.5194" lon="6.72211">
        <ele>395</ele>
        <time>2017-01-15T09:08:08.999Z</time>
      </trkpt>
      <trkpt lat="47.51943" lon="6.72214">
        <ele>395.8</ele>
        <time>2017-01-15T09:08:12.999Z</time>
      </trkpt>
      <trkpt lat="47.51945" lon="6.72215">
        <ele>396</ele>
        <time>2017-01-15T09:08:13.999Z</time>
      </trkpt>
      <trkpt lat="47.51949" lon="6.72217">
        <ele>396.7</ele>
        <time>2017-01-15T09:08:16.999Z</time>
      </trkpt>
      <trkpt lat="47.5195" lon="6.72218">
        <ele>396.9</ele>
        <time>2017-01-15T09:08:17.999Z</time>
      </trkpt>
      <trkpt lat="47.51953" lon="6.72221">
        <ele>397.1</ele>
        <time>2017-01-15T09:08:19.999Z</time>
      </trkpt>
      <trkpt lat="47.51954" lon="6.72221">
        <ele>397.2</ele>
        <time>2017-01-15T09:08:20.999Z</time>
      </trkpt>
      <trkpt lat="47.51958" lon="6.72222">
        <ele>397.7</ele>
        <time>2017-01-15T09:08:23.999Z</time>
      </trkpt>
      <trkpt lat="47.51959" lon="6.72223">
        <ele>397.9</ele>
        <time>2017-01-15T09:08:24.999Z</time>
      </trkpt>
      <trkpt lat="47.51963" lon="6.72224">
        <ele>398.3</ele>
        <time>2017-01-15T09:08:27.999Z</time>
      </trkpt>
      <trkpt lat="47.51964" lon="6.72223">
        <ele>398.3</ele>
        <time>2017-01-15T09:08:28.999Z</time>
      </trkpt>
      <trkpt lat="47.51968" lon="6.72223">
        <ele>398.4</ele>
        <time>2017-01-15T09:08:31.999Z</time>
      </trkpt>
      <trkpt lat="47.51969" lon="6.72223">
        <ele>398.4</ele>
        <time>2017-01-15T09:08:32.999Z</time>
      </trkpt>
      <trkpt lat="47.51973" lon="6.72221">
        <ele>398.7</ele>
        <time>2017-01-15T09:08:34.999Z</time>
      </trkpt>
      <trkpt lat="47.51974" lon="6.72221">
        <ele>398.8</ele>
        <time>2017-01-15T09:08:35.999Z</time>
      </trkpt>
      <trkpt lat="47.51977" lon="6.72218">
        <ele>398.9</ele>
        <time>2017-01-15T09:08:36.999Z</time>
      </trkpt>
      <trkpt lat="47.51981" lon="6.72216">
        <ele>399.1</ele>
        <time>2017-01-15T09:08:37.999Z</time>
      </trkpt>
      <trkpt lat="47.51985" lon="6.72215">
        <ele>399.3</ele>
        <time>2017-01-15T09:08:38.999Z</time>
      </trkpt>
      <trkpt lat="47.51988" lon="6.72215">
        <ele>399.4</ele>
        <time>2017-01-15T09:08:39.999Z</time>
      </trkpt>
      <trkpt lat="47.51991" lon="6.72213">
        <ele>399.8</ele>
        <time>2017-01-15T09:08:41.999Z</time>
      </trkpt>
      <trkpt lat="47.51993" lon="6.72212">
        <ele>400</ele>
        <time>2017-01-15T09:08:42.999Z</time>
      </trkpt>
      <trkpt lat="47.51996" lon="6.72208">
        <ele>400.1</ele>
        <time>2017-01-15T09:08:44.999Z</time>
      </trkpt>
      <trkpt lat="47.51998" lon="6.72207">
        <ele>400.2</ele>
        <time>2017-01-15T09:08:45.999Z</time>
      </trkpt>
      <trkpt lat="47.52" lon="6.72203">
        <ele>400.5</ele>
        <time>2017-01-15T09:08:48.999Z</time>
      </trkpt>
      <trkpt lat="47.52001" lon="6.72202">
        <ele>400.5</ele>
        <time>2017-01-15T09:08:49.999Z</time>
      </trkpt>
      <trkpt lat="47.52004" lon="6.72199">
        <ele>401</ele>
        <time>2017-01-15T09:08:52.999Z</time>
      </trkpt>
      <trkpt lat="47.52004" lon="6.72197">
        <ele>401.1</ele>
        <time>2017-01-15T09:08:53.999Z</time>
      </trkpt>
      <trkpt lat="47.52007" lon="6.72192">
        <ele>402.4</ele>
        <time>2017-01-15T09:08:59.999Z</time>
      </trkpt>
      <trkpt lat="47.52008" lon="6.7219">
        <ele>402.5</ele>
        <time>2017-01-15T09:09:00.999Z</time>
      </trkpt>
      <trkpt lat="47.52009" lon="6.72185">
        <ele>402.8</ele>
        <time>2017-01-15T09:09:03.999Z</time>
      </trkpt>
      <trkpt lat="47.5201" lon="6.72184">
        <ele>402.9</ele>
        <time>2017-01-15T09:09:04.999Z</time>
      </trkpt>
      <trkpt lat="47.52013" lon="6.7218">
        <ele>403.3</ele>
        <time>2017-01-15T09:09:07.999Z</time>
      </trkpt>
      <trkpt lat="47.52013" lon="6.72178">
        <ele>403.5</ele>
        <time>2017-01-15T09:09:08.999Z</time>
      </trkpt>
      <trkpt lat="47.52014" lon="6.72173">
        <ele>403.6</ele>
        <time>2017-01-15T09:09:11.999Z</time>
      </trkpt>
      <trkpt lat="47.52015" lon="6.72169">
        <ele>403.5</ele>
        <time>2017-01-15T09:09:12.999Z</time>
      </trkpt>
      <trkpt lat="47.52015" lon="6.72162">
        <ele>403.7</ele>
        <time>2017-01-15T09:09:15.999Z</time>
      </trkpt>
      <trkpt lat="47.52015" lon="6.72161">
        <ele>403.8</ele>
        <time>2017-01-15T09:09:16.999Z</time>
      </trkpt>
      <trkpt lat="47.52017" lon="6.72156">
        <ele>403.9</ele>
        <time>2017-01-15T09:09:19.999Z</time>
      </trkpt>
      <trkpt lat="47.52017" lon="6.72153">
        <ele>403.9</ele>
        <time>2017-01-15T09:09:20.999Z</time>
      </trkpt>
      <trkpt lat="47.52019" lon="6.72147">
        <ele>404</ele>
        <time>2017-01-15T09:09:26.999Z</time>
      </trkpt>
      <trkpt lat="47.52019" lon="6.72146">
        <ele>404</ele>
        <time>2017-01-15T09:09:27.999Z</time>
      </trkpt>
      <trkpt lat="47.52021" lon="6.72142">
        <ele>403.7</ele>
        <time>2017-01-15T09:09:31.999Z</time>
      </trkpt>
      <trkpt lat="47.52021" lon="6.72141">
        <ele>403.5</ele>
        <time>2017-01-15T09:09:32.999Z</time>
      </trkpt>
      <trkpt lat="47.52024" lon="6.72136">
        <ele>402.4</ele>
        <time>2017-01-15T09:09:38.999Z</time>
      </trkpt>
      <trkpt lat="47.52025" lon="6.72135">
        <ele>402.1</ele>
        <time>2017-01-15T09:09:39.999Z</time>
      </trkpt>
      <trkpt lat="47.52026" lon="6.7213">
        <ele>401.7</ele>
        <time>2017-01-15T09:09:42.999Z</time>
      </trkpt>
      <trkpt lat="47.52026" lon="6.72126">
        <ele>401.7</ele>
        <time>2017-01-15T09:09:43.999Z</time>
      </trkpt>
      <trkpt lat="47.52025" lon="6.72122">
        <ele>401.9</ele>
        <time>2017-01-15T09:09:44.999Z</time>
      </trkpt>
      <trkpt lat="47.52025" lon="6.72118">
        <ele>402.1</ele>
        <time>2017-01-15T09:09:45.999Z</time>
      </trkpt>
      <trkpt lat="47.52025" lon="6.72115">
        <ele>402.7</ele>
        <time>2017-01-15T09:09:47.999Z</time>
      </trkpt>
      <trkpt lat="47.52025" lon="6.72111">
        <ele>403.1</ele>
        <time>2017-01-15T09:09:48.999Z</time>
      </trkpt>
      <trkpt lat="47.52025" lon="6.72105">
        <ele>403.6</ele>
        <time>2017-01-15T09:09:49.999Z</time>
      </trkpt>
      <trkpt lat="47.52026" lon="6.72099">
        <ele>404</ele>
        <time>2017-01-15T09:09:50.999Z</time>
      </trkpt>
      <trkpt lat="47.52026" lon="6.72094">
        <ele>404.6</ele>
        <time>2017-01-15T09:09:51.999Z</time>
      </trkpt>
      <trkpt lat="47.52027" lon="6.72089">
        <ele>405.2</ele>
        <time>2017-01-15T09:09:52.999Z</time>
      </trkpt>
      <trkpt lat="47.52028" lon="6.72084">
        <ele>405.6</ele>
        <time>2017-01-15T09:09:53.999Z</time>
      </trkpt>
      <trkpt lat="47.52029" lon="6.72079">
        <ele>406.1</ele>
        <time>2017-01-15T09:09:54.999Z</time>
      </trkpt>
      <trkpt lat="47.5203" lon="6.72073">
        <ele>406.9</ele>
        <time>2017-01-15T09:09:56.999Z</time>
      </trkpt>
      <trkpt lat="47.5203" lon="6.7207">
        <ele>407.3</ele>
        <time>2017-01-15T09:09:57.999Z</time>
      </trkpt>
      <trkpt lat="47.5203" lon="6.72063">
        <ele>408.5</ele>
        <time>2017-01-15T09:10:00.999Z</time>
      </trkpt>
      <trkpt lat="47.5203" lon="6.72061">
        <ele>409.1</ele>
        <time>2017-01-15T09:10:01.999Z</time>
      </trkpt>
      <trkpt lat="47.5203" lon="6.72056">
        <ele>410.3</ele>
        <time>2017-01-15T09:10:03.999Z</time>
      </trkpt>
      <trkpt lat="47.52031" lon="6.72054">
        <ele>410.9</ele>
        <time>2017-01-15T09:10:04.999Z</time>
      </trkpt>
      <trkpt lat="47.52032" lon="6.72049">
        <ele>412.4</ele>
        <time>2017-01-15T09:10:07.999Z</time>
      </trkpt>
      <trkpt lat="47.52032" lon="6.72047">
        <ele>412.8</ele>
        <time>2017-01-15T09:10:08.999Z</time>
      </trkpt>
      <trkpt lat="47.52032" lon="6.72042">
        <ele>413.3</ele>
        <time>2017-01-15T09:10:09.999Z</time>
      </trkpt>
      <trkpt lat="47.52032" lon="6.72039">
        <ele>413.6</ele>
        <time>2017-01-15T09:10:10.999Z</time>
      </trkpt>
      <trkpt lat="47.52034" lon="6.72033">
        <ele>414.5</ele>
        <time>2017-01-15T09:10:13.999Z</time>
      </trkpt>
      <trkpt lat="47.52034" lon="6.72031">
        <ele>414.8</ele>
        <time>2017-01-15T09:10:14.999Z</time>
      </trkpt>
      <trkpt lat="47.52035" lon="6.72025">
        <ele>415.6</ele>
        <time>2017-01-15T09:10:17.999Z</time>
      </trkpt>
      <trkpt lat="47.52035" lon="6.72024">
        <ele>415.9</ele>
        <time>2017-01-15T09:10:18.999Z</time>
      </trkpt>
      <trkpt lat="47.52035" lon="6.72017">
        <ele>416.8</ele>
        <time>2017-01-15T09:10:21.999Z</time>
      </trkpt>
      <trkpt lat="47.52034" lon="6.72014">
        <ele>417</ele>
        <time>2017-01-15T09:10:22.999Z</time>
      </trkpt>
      <trkpt lat="47.52034" lon="6.72008">
        <ele>417.7</ele>
        <time>2017-01-15T09:10:25.999Z</time>
      </trkpt>
      <trkpt lat="47.52033" lon="6.72007">
        <ele>417.9</ele>
        <time>2017-01-15T09:10:26.999Z</time>
      </trkpt>
      <trkpt lat="47.52034" lon="6.72002">
        <ele>418.2</ele>
        <time>2017-01-15T09:10:28.999Z</time>
      </trkpt>
      <trkpt lat="47.52034" lon="6.72">
        <ele>418.4</ele>
        <time>2017-01-15T09:10:29.999Z</time>
      </trkpt>
      <trkpt lat="47.52034" lon="6.71995">
        <ele>418.4</ele>
        <time>2017-01-15T09:10:30.999Z</time>
      </trkpt>
      <trkpt lat="47.52034" lon="6.71992">
        <ele>418.5</ele>
        <time>2017-01-15T09:10:31.999Z</time>
      </trkpt>
      <trkpt lat="47.52033" lon="6.71987">
        <ele>418.7</ele>
        <time>2017-01-15T09:10:33.999Z</time>
      </trkpt>
      <trkpt lat="47.52032" lon="6.71985">
        <ele>418.9</ele>
        <time>2017-01-15T09:10:34.999Z</time>
      </trkpt>
      <trkpt lat="47.52031" lon="6.71979">
        <ele>419.7</ele>
        <time>2017-01-15T09:10:38.999Z</time>
      </trkpt>
      <trkpt lat="47.52031" lon="6.71976">
        <ele>419.8</ele>
        <time>2017-01-15T09:10:39.999Z</time>
      </trkpt>
      <trkpt lat="47.52031" lon="6.7197">
        <ele>420.2</ele>
        <time>2017-01-15T09:10:42.999Z</time>
      </trkpt>
      <trkpt lat="47.52031" lon="6.71968">
        <ele>420.3</ele>
        <time>2017-01-15T09:10:43.999Z</time>
      </trkpt>
      <trkpt lat="47.5203" lon="6.71961">
        <ele>420.8</ele>
        <time>2017-01-15T09:10:46.999Z</time>
      </trkpt>
      <trkpt lat="47.5203" lon="6.71959">
        <ele>421</ele>
        <time>2017-01-15T09:10:47.999Z</time>
      </trkpt>
      <trkpt lat="47.5203" lon="6.71954">
        <ele>421.3</ele>
        <time>2017-01-15T09:10:49.999Z</time>
      </trkpt>
      <trkpt lat="47.52029" lon="6.7195">
        <ele>421.4</ele>
        <time>2017-01-15T09:10:50.999Z</time>
      </trkpt>
      <trkpt lat="47.52028" lon="6.71947">
        <ele>421.5</ele>
        <time>2017-01-15T09:10:51.999Z</time>
      </trkpt>
      <trkpt lat="47.52027" lon="6.71944">
        <ele>421.7</ele>
        <time>2017-01-15T09:10:52.999Z</time>
      </trkpt>
      <trkpt lat="47.52027" lon="6.71938">
        <ele>422</ele>
        <time>2017-01-15T09:10:54.999Z</time>
      </trkpt>
      <trkpt lat="47.52027" lon="6.71936">
        <ele>422.1</ele>
        <time>2017-01-15T09:10:55.999Z</time>
      </trkpt>
      <trkpt lat="47.52028" lon="6.71931">
        <ele>422.7</ele>
        <time>2017-01-15T09:10:58.999Z</time>
      </trkpt>
      <trkpt lat="47.52028" lon="6.71929">
        <ele>422.9</ele>
        <time>2017-01-15T09:10:59.999Z</time>
      </trkpt>
      <trkpt lat="47.5203" lon="6.71923">
        <ele>423.3</ele>
        <time>2017-01-15T09:11:01.999Z</time>
      </trkpt>
      <trkpt lat="47.5203" lon="6.71921">
        <ele>423.6</ele>
        <time>2017-01-15T09:11:02.999Z</time>
      </trkpt>
      <trkpt lat="47.52031" lon="6.71915">
        <ele>424.2</ele>
        <time>2017-01-15T09:11:05.999Z</time>
      </trkpt>
      <trkpt lat="47.52031" lon="6.71914">
        <ele>424.3</ele>
        <time>2017-01-15T09:11:06.999Z</time>
      </trkpt>
      <trkpt lat="47.52032" lon="6.71908">
        <ele>424.7</ele>
        <time>2017-01-15T09:11:08.999Z</time>
      </trkpt>
      <trkpt lat="47.52034" lon="6.71906">
        <ele>424.9</ele>
        <time>2017-01-15T09:11:09.999Z</time>
      </trkpt>
      <trkpt lat="47.52035" lon="6.719">
        <ele>425.3</ele>
        <time>2017-01-15T09:11:13.999Z</time>
      </trkpt>
      <trkpt lat="47.52034" lon="6.71898">
        <ele>425.4</ele>
        <time>2017-01-15T09:11:14.999Z</time>
      </trkpt>
      <trkpt lat="47.52034" lon="6.71893">
        <ele>425.5</ele>
        <time>2017-01-15T09:11:17.999Z</time>
      </trkpt>
      <trkpt lat="47.52034" lon="6.71891">
        <ele>425.6</ele>
        <time>2017-01-15T09:11:18.999Z</time>
      </trkpt>
      <trkpt lat="47.52034" lon="6.71885">
        <ele>425.4</ele>
        <time>2017-01-15T09:11:21.999Z</time>
      </trkpt>
      <trkpt lat="47.52035" lon="6.71882">
        <ele>425.3</ele>
        <time>2017-01-15T09:11:22.999Z</time>
      </trkpt>
      <trkpt lat="47.52035" lon="6.71875">
        <ele>425.2</ele>
        <time>2017-01-15T09:11:27.999Z</time>
      </trkpt>
      <trkpt lat="47.52034" lon="6.71874">
        <ele>425.2</ele>
        <time>2017-01-15T09:11:28.999Z</time>
      </trkpt>
      <trkpt lat="47.52034" lon="6.71868">
        <ele>424.9</ele>
        <time>2017-01-15T09:11:31.999Z</time>
      </trkpt>
      <trkpt lat="47.52034" lon="6.71866">
        <ele>424.8</ele>
        <time>2017-01-15T09:11:32.999Z</time>
      </trkpt>
      <trkpt lat="47.52033" lon="6.71861">
        <ele>424.4</ele>
        <time>2017-01-15T09:11:34.999Z</time>
      </trkpt>
      <trkpt lat="47.52033" lon="6.71859">
        <ele>424.2</ele>
        <time>2017-01-15T09:11:35.999Z</time>
      </trkpt>
      <trkpt lat="47.52032" lon="6.71855">
        <ele>424.1</ele>
        <time>2017-01-15T09:11:37.999Z</time>
      </trkpt>
      <trkpt lat="47.52032" lon="6.71852">
        <ele>424</ele>
        <time>2017-01-15T09:11:38.999Z</time>
      </trkpt>
      <trkpt lat="47.52032" lon="6.71846">
        <ele>423.6</ele>
        <time>2017-01-15T09:11:41.999Z</time>
      </trkpt>
      <trkpt lat="47.52031" lon="6.71843">
        <ele>423.5</ele>
        <time>2017-01-15T09:11:42.999Z</time>
      </trkpt>
      <trkpt lat="47.52031" lon="6.71838">
        <ele>423.1</ele>
        <time>2017-01-15T09:11:44.999Z</time>
      </trkpt>
      <trkpt lat="47.52031" lon="6.71836">
        <ele>422.9</ele>
        <time>2017-01-15T09:11:45.999Z</time>
      </trkpt>
      <trkpt lat="47.5203" lon="6.7183">
        <ele>422.4</ele>
        <time>2017-01-15T09:11:47.999Z</time>
      </trkpt>
      <trkpt lat="47.5203" lon="6.71828">
        <ele>422.1</ele>
        <time>2017-01-15T09:11:48.999Z</time>
      </trkpt>
      <trkpt lat="47.5203" lon="6.71822">
        <ele>421.5</ele>
        <time>2017-01-15T09:11:51.999Z</time>
      </trkpt>
      <trkpt lat="47.52031" lon="6.7182">
        <ele>421.3</ele>
        <time>2017-01-15T09:11:52.999Z</time>
      </trkpt>
      <trkpt lat="47.52031" lon="6.71815">
        <ele>420.9</ele>
        <time>2017-01-15T09:11:54.999Z</time>
      </trkpt>
      <trkpt lat="47.52032" lon="6.71813">
        <ele>420.7</ele>
        <time>2017-01-15T09:11:55.999Z</time>
      </trkpt>
      <trkpt lat="47.52032" lon="6.71808">
        <ele>420.6</ele>
        <time>2017-01-15T09:11:57.999Z</time>
      </trkpt>
      <trkpt lat="47.52032" lon="6.71804">
        <ele>420.8</ele>
        <time>2017-01-15T09:11:58.999Z</time>
      </trkpt>
      <trkpt lat="47.52032" lon="6.71799">
        <ele>421</ele>
        <time>2017-01-15T09:11:59.999Z</time>
      </trkpt>
      <trkpt lat="47.52032" lon="6.71793">
        <ele>421.3</ele>
        <time>2017-01-15T09:12:00.999Z</time>
      </trkpt>
      <trkpt lat="47.52033" lon="6.71787">
        <ele>421.6</ele>
        <time>2017-01-15T09:12:01.999Z</time>
      </trkpt>
      <trkpt lat="47.52033" lon="6.71782">
        <ele>422.1</ele>
        <time>2017-01-15T09:12:02.999Z</time>
      </trkpt>
      <trkpt lat="47.52034" lon="6.71777">
        <ele>422.5</ele>
        <time>2017-01-15T09:12:03.999Z</time>
      </trkpt>
      <trkpt lat="47.52034" lon="6.71772">
        <ele>423</ele>
        <time>2017-01-15T09:12:04.999Z</time>
      </trkpt>
      <trkpt lat="47.52035" lon="6.71769">
        <ele>423.6</ele>
        <time>2017-01-15T09:12:05.999Z</time>
      </trkpt>
      <trkpt lat="47.52035" lon="6.71765">
        <ele>424.1</ele>
        <time>2017-01-15T09:12:06.999Z</time>
      </trkpt>
      <trkpt lat="47.52036" lon="6.71762">
        <ele>424.6</ele>
        <time>2017-01-15T09:12:07.999Z</time>
      </trkpt>
      <trkpt lat="47.52037" lon="6.71758">
        <ele>425.1</ele>
        <time>2017-01-15T09:12:08.999Z</time>
      </trkpt>
      <trkpt lat="47.52038" lon="6.71754">
        <ele>425.5</ele>
        <time>2017-01-15T09:12:09.999Z</time>
      </trkpt>
      <trkpt lat="47.52038" lon="6.71751">
        <ele>425.9</ele>
        <time>2017-01-15T09:12:10.999Z</time>
      </trkpt>
      <trkpt lat="47.5204" lon="6.71746">
        <ele>426.7</ele>
        <time>2017-01-15T09:12:12.999Z</time>
      </trkpt>
      <trkpt lat="47.52041" lon="6.71744">
        <ele>427.2</ele>
        <time>2017-01-15T09:12:13.999Z</time>
      </trkpt>
      <trkpt lat="47.52043" lon="6.71739">
        <ele>428.1</ele>
        <time>2017-01-15T09:12:15.999Z</time>
      </trkpt>
      <trkpt lat="47.52044" lon="6.71735">
        <ele>428.6</ele>
        <time>2017-01-15T09:12:16.999Z</time>
      </trkpt>
      <trkpt lat="47.52047" lon="6.7173">
        <ele>429.7</ele>
        <time>2017-01-15T09:12:18.999Z</time>
      </trkpt>
      <trkpt lat="47.52048" lon="6.71727">
        <ele>430.1</ele>
        <time>2017-01-15T09:12:19.999Z</time>
      </trkpt>
      <trkpt lat="47.5205" lon="6.71722">
        <ele>431</ele>
        <time>2017-01-15T09:12:21.999Z</time>
      </trkpt>
      <trkpt lat="47.5205" lon="6.7172">
        <ele>431.4</ele>
        <time>2017-01-15T09:12:22.999Z</time>
      </trkpt>
      <trkpt lat="47.52052" lon="6.71714">
        <ele>432.5</ele>
        <time>2017-01-15T09:12:25.999Z</time>
      </trkpt>
      <trkpt lat="47.52053" lon="6.71711">
        <ele>432.8</ele>
        <time>2017-01-15T09:12:26.999Z</time>
      </trkpt>
      <trkpt lat="47.52055" lon="6.71707">
        <ele>433.5</ele>
        <time>2017-01-15T09:12:28.999Z</time>
      </trkpt>
      <trkpt lat="47.52056" lon="6.71705">
        <ele>433.8</ele>
        <time>2017-01-15T09:12:29.999Z</time>
      </trkpt>
      <trkpt lat="47.52058" lon="6.71701">
        <ele>434.5</ele>
        <time>2017-01-15T09:12:31.999Z</time>
      </trkpt>
      <trkpt lat="47.52059" lon="6.71698">
        <ele>434.8</ele>
        <time>2017-01-15T09:12:32.999Z</time>
      </trkpt>
      <trkpt lat="47.52062" lon="6.71693">
        <ele>435.5</ele>
        <time>2017-01-15T09:12:34.999Z</time>
      </trkpt>
      <trkpt lat="47.52062" lon="6.7169">
        <ele>435.8</ele>
        <time>2017-01-15T09:12:35.999Z</time>
      </trkpt>
      <trkpt lat="47.52064" lon="6.71685">
        <ele>436.4</ele>
        <time>2017-01-15T09:12:37.999Z</time>
      </trkpt>
      <trkpt lat="47.52065" lon="6.71683">
        <ele>436.7</ele>
        <time>2017-01-15T09:12:38.999Z</time>
      </trkpt>
      <trkpt lat="47.52067" lon="6.71681">
        <ele>436.9</ele>
        <time>2017-01-15T09:12:39.999Z</time>
      </trkpt>
      <trkpt lat="47.52069" lon="6.71678">
        <ele>437.1</ele>
        <time>2017-01-15T09:12:40.999Z</time>
      </trkpt>
      <trkpt lat="47.5207" lon="6.71675">
        <ele>437.3</ele>
        <time>2017-01-15T09:12:41.999Z</time>
      </trkpt>
      <trkpt lat="47.52072" lon="6.71673">
        <ele>437.6</ele>
        <time>2017-01-15T09:12:42.999Z</time>
      </trkpt>
      <trkpt lat="47.52075" lon="6.71669">
        <ele>438.2</ele>
        <time>2017-01-15T09:12:45.999Z</time>
      </trkpt>
      <trkpt lat="47.52076" lon="6.71668">
        <ele>438.3</ele>
        <time>2017-01-15T09:12:46.999Z</time>
      </trkpt>
      <trkpt lat="47.52078" lon="6.71665">
        <ele>438.4</ele>
        <time>2017-01-15T09:12:47.999Z</time>
      </trkpt>
      <trkpt lat="47.5208" lon="6.71663">
        <ele>438.5</ele>
        <time>2017-01-15T09:12:48.999Z</time>
      </trkpt>
      <trkpt lat="47.52081" lon="6.71661">
        <ele>438.6</ele>
        <time>2017-01-15T09:12:49.999Z</time>
      </trkpt>
      <trkpt lat="47.52083" lon="6.71658">
        <ele>438.7</ele>
        <time>2017-01-15T09:12:50.999Z</time>
      </trkpt>
      <trkpt lat="47.52086" lon="6.71655">
        <ele>438.8</ele>
        <time>2017-01-15T09:12:51.999Z</time>
      </trkpt>
      <trkpt lat="47.52089" lon="6.71651">
        <ele>440.1</ele>
        <time>2017-01-15T09:12:52.999Z</time>
      </trkpt>
      <trkpt lat="47.52093" lon="6.71648">
        <ele>441.6</ele>
        <time>2017-01-15T09:12:53.999Z</time>
      </trkpt>
      <trkpt lat="47.52097" lon="6.71645">
        <ele>442.5</ele>
        <time>2017-01-15T09:12:54.999Z</time>
      </trkpt>
      <trkpt lat="47.521" lon="6.7164">
        <ele>442.3</ele>
        <time>2017-01-15T09:12:55.999Z</time>
      </trkpt>
      <trkpt lat="47.52105" lon="6.71635">
        <ele>442.1</ele>
        <time>2017-01-15T09:12:56.999Z</time>
      </trkpt>
      <trkpt lat="47.52109" lon="6.7163">
        <ele>441.5</ele>
        <time>2017-01-15T09:12:57.999Z</time>
      </trkpt>
      <trkpt lat="47.52112" lon="6.71624">
        <ele>441</ele>
        <time>2017-01-15T09:12:58.999Z</time>
      </trkpt>
      <trkpt lat="47.52116" lon="6.7162">
        <ele>440.5</ele>
        <time>2017-01-15T09:12:59.999Z</time>
      </trkpt>
      <trkpt lat="47.52119" lon="6.71616">
        <ele>440.8</ele>
        <time>2017-01-15T09:13:00.999Z</time>
      </trkpt>
      <trkpt lat="47.52124" lon="6.71611">
        <ele>440.9</ele>
        <time>2017-01-15T09:13:01.999Z</time>
      </trkpt>
      <trkpt lat="47.52128" lon="6.71606">
        <ele>440.8</ele>
        <time>2017-01-15T09:13:02.999Z</time>
      </trkpt>
      <trkpt lat="47.52131" lon="6.71603">
        <ele>440.3</ele>
        <time>2017-01-15T09:13:03.999Z</time>
      </trkpt>
      <trkpt lat="47.52135" lon="6.716">
        <ele>440.3</ele>
        <time>2017-01-15T09:13:04.999Z</time>
      </trkpt>
      <trkpt lat="47.52139" lon="6.71599">
        <ele>440.2</ele>
        <time>2017-01-15T09:13:05.999Z</time>
      </trkpt>
      <trkpt lat="47.52143" lon="6.71599">
        <ele>440.1</ele>
        <time>2017-01-15T09:13:06.999Z</time>
      </trkpt>
      <trkpt lat="47.52149" lon="6.71597">
        <ele>438.1</ele>
        <time>2017-01-15T09:13:07.999Z</time>
      </trkpt>
      <trkpt lat="47.52156" lon="6.71594">
        <ele>436.4</ele>
        <time>2017-01-15T09:13:08.999Z</time>
      </trkpt>
      <trkpt lat="47.52162" lon="6.71589">
        <ele>434.7</ele>
        <time>2017-01-15T09:13:09.999Z</time>
      </trkpt>
      <trkpt lat="47.52166" lon="6.71582">
        <ele>432.6</ele>
        <time>2017-01-15T09:13:10.999Z</time>
      </trkpt>
      <trkpt lat="47.52167" lon="6.71577">
        <ele>432.2</ele>
        <time>2017-01-15T09:13:11.999Z</time>
      </trkpt>
      <trkpt lat="47.52167" lon="6.71571">
        <ele>432</ele>
        <time>2017-01-15T09:13:12.999Z</time>
      </trkpt>
      <trkpt lat="47.52167" lon="6.71565">
        <ele>432.1</ele>
        <time>2017-01-15T09:13:13.999Z</time>
      </trkpt>
      <trkpt lat="47.52167" lon="6.71558">
        <ele>433</ele>
        <time>2017-01-15T09:13:14.999Z</time>
      </trkpt>
      <trkpt lat="47.52167" lon="6.7155">
        <ele>433.8</ele>
        <time>2017-01-15T09:13:15.999Z</time>
      </trkpt>
      <trkpt lat="47.52165" lon="6.71545">
        <ele>433.9</ele>
        <time>2017-01-15T09:13:22.999Z</time>
      </trkpt>
      <trkpt lat="47.52165" lon="6.71544">
        <ele>433.9</ele>
        <time>2017-01-15T09:13:23.999Z</time>
      </trkpt>
      <trkpt lat="47.52167" lon="6.71539">
        <ele>432.3</ele>
        <time>2017-01-15T09:14:28.999Z</time>
      </trkpt>
      <trkpt lat="47.52168" lon="6.71537">
        <ele>432.4</ele>
        <time>2017-01-15T09:14:29.999Z</time>
      </trkpt>
      <trkpt lat="47.5217" lon="6.71533">
        <ele>432.5</ele>
        <time>2017-01-15T09:14:30.999Z</time>
      </trkpt>
      <trkpt lat="47.5217" lon="6.71529">
        <ele>432.7</ele>
        <time>2017-01-15T09:14:31.999Z</time>
      </trkpt>
      <trkpt lat="47.5217" lon="6.71526">
        <ele>432.8</ele>
        <time>2017-01-15T09:14:32.999Z</time>
      </trkpt>
      <trkpt lat="47.52171" lon="6.71519">
        <ele>432.7</ele>
        <time>2017-01-15T09:14:33.999Z</time>
      </trkpt>
      <trkpt lat="47.5217" lon="6.71514">
        <ele>432.7</ele>
        <time>2017-01-15T09:14:34.999Z</time>
      </trkpt>
      <trkpt lat="47.5217" lon="6.71509">
        <ele>432.7</ele>
        <time>2017-01-15T09:14:35.999Z</time>
      </trkpt>
      <trkpt lat="47.52168" lon="6.71504">
        <ele>432.9</ele>
        <time>2017-01-15T09:14:37.999Z</time>
      </trkpt>
      <trkpt lat="47.52168" lon="6.71501">
        <ele>433</ele>
        <time>2017-01-15T09:14:38.999Z</time>
      </trkpt>
      <trkpt lat="47.52168" lon="6.71496">
        <ele>433.2</ele>
        <time>2017-01-15T09:14:39.999Z</time>
      </trkpt>
      <trkpt lat="47.52169" lon="6.71491">
        <ele>433.3</ele>
        <time>2017-01-15T09:14:40.999Z</time>
      </trkpt>
      <trkpt lat="47.52169" lon="6.71485">
        <ele>433.5</ele>
        <time>2017-01-15T09:14:41.999Z</time>
      </trkpt>
      <trkpt lat="47.52167" lon="6.71479">
        <ele>434.8</ele>
        <time>2017-01-15T09:14:42.999Z</time>
      </trkpt>
      <trkpt lat="47.52167" lon="6.71473">
        <ele>435.5</ele>
        <time>2017-01-15T09:14:43.999Z</time>
      </trkpt>
      <trkpt lat="47.52166" lon="6.71467">
        <ele>435.5</ele>
        <time>2017-01-15T09:14:44.999Z</time>
      </trkpt>
      <trkpt lat="47.52166" lon="6.71461">
        <ele>436.1</ele>
        <time>2017-01-15T09:14:45.999Z</time>
      </trkpt>
      <trkpt lat="47.52165" lon="6.71455">
        <ele>436.1</ele>
        <time>2017-01-15T09:14:46.999Z</time>
      </trkpt>
      <trkpt lat="47.52163" lon="6.7145">
        <ele>436.1</ele>
        <time>2017-01-15T09:14:47.999Z</time>
      </trkpt>
      <trkpt lat="47.52163" lon="6.71444">
        <ele>436.1</ele>
        <time>2017-01-15T09:14:48.999Z</time>
      </trkpt>
      <trkpt lat="47.52163" lon="6.71439">
        <ele>436</ele>
        <time>2017-01-15T09:14:49.999Z</time>
      </trkpt>
      <trkpt lat="47.52163" lon="6.71434">
        <ele>436</ele>
        <time>2017-01-15T09:14:50.999Z</time>
      </trkpt>
      <trkpt lat="47.52162" lon="6.71429">
        <ele>435.2</ele>
        <time>2017-01-15T09:14:51.999Z</time>
      </trkpt>
      <trkpt lat="47.52162" lon="6.71424">
        <ele>435</ele>
        <time>2017-01-15T09:14:52.999Z</time>
      </trkpt>
      <trkpt lat="47.52161" lon="6.71419">
        <ele>435.1</ele>
        <time>2017-01-15T09:14:53.999Z</time>
      </trkpt>
      <trkpt lat="47.52159" lon="6.71416">
        <ele>435.1</ele>
        <time>2017-01-15T09:14:54.999Z</time>
      </trkpt>
      <trkpt lat="47.52157" lon="6.71411">
        <ele>435.1</ele>
        <time>2017-01-15T09:14:55.999Z</time>
      </trkpt>
      <trkpt lat="47.52155" lon="6.71405">
        <ele>435</ele>
        <time>2017-01-15T09:14:56.999Z</time>
      </trkpt>
      <trkpt lat="47.52154" lon="6.71398">
        <ele>435</ele>
        <time>2017-01-15T09:14:57.999Z</time>
      </trkpt>
      <trkpt lat="47.52154" lon="6.71393">
        <ele>434.7</ele>
        <time>2017-01-15T09:14:58.999Z</time>
      </trkpt>
      <trkpt lat="47.52153" lon="6.71387">
        <ele>434</ele>
        <time>2017-01-15T09:14:59.999Z</time>
      </trkpt>
      <trkpt lat="47.5215" lon="6.71381">
        <ele>434</ele>
        <time>2017-01-15T09:15:00.999Z</time>
      </trkpt>
      <trkpt lat="47.52149" lon="6.71376">
        <ele>433.9</ele>
        <time>2017-01-15T09:15:01.999Z</time>
      </trkpt>
      <trkpt lat="47.52148" lon="6.71371">
        <ele>433.9</ele>
        <time>2017-01-15T09:15:02.999Z</time>
      </trkpt>
      <trkpt lat="47.52146" lon="6.71365">
        <ele>433.8</ele>
        <time>2017-01-15T09:15:03.999Z</time>
      </trkpt>
      <trkpt lat="47.52145" lon="6.71362">
        <ele>433.7</ele>
        <time>2017-01-15T09:15:04.999Z</time>
      </trkpt>
      <trkpt lat="47.52146" lon="6.71359">
        <ele>433.7</ele>
        <time>2017-01-15T09:15:05.999Z</time>
      </trkpt>
      <trkpt lat="47.52147" lon="6.71353">
        <ele>433.6</ele>
        <time>2017-01-15T09:15:06.999Z</time>
      </trkpt>
      <trkpt lat="47.52149" lon="6.71348">
        <ele>431.9</ele>
        <time>2017-01-15T09:15:08.000Z</time>
      </trkpt>
      <trkpt lat="47.52152" lon="6.71343">
        <ele>431.8</ele>
        <time>2017-01-15T09:15:08.999Z</time>
      </trkpt>
      <trkpt lat="47.52154" lon="6.7134">
        <ele>431.6</ele>
        <time>2017-01-15T09:15:09.999Z</time>
      </trkpt>
      <trkpt lat="47.52158" lon="6.71335">
        <ele>431.5</ele>
        <time>2017-01-15T09:15:11.000Z</time>
      </trkpt>
      <trkpt lat="47.5216" lon="6.7133">
        <ele>431.3</ele>
        <time>2017-01-15T09:15:12.000Z</time>
      </trkpt>
      <trkpt lat="47.52163" lon="6.71327">
        <ele>431</ele>
        <time>2017-01-15T09:15:13.000Z</time>
      </trkpt>
      <trkpt lat="47.52165" lon="6.71324">
        <ele>430.8</ele>
        <time>2017-01-15T09:15:14.000Z</time>
      </trkpt>
      <trkpt lat="47.52169" lon="6.71321">
        <ele>430.6</ele>
        <time>2017-01-15T09:15:15.000Z</time>
      </trkpt>
      <trkpt lat="47.52172" lon="6.71319">
        <ele>430.3</ele>
        <time>2017-01-15T09:15:16.000Z</time>
      </trkpt>
      <trkpt lat="47.52175" lon="6.71317">
        <ele>430</ele>
        <time>2017-01-15T09:15:17.000Z</time>
      </trkpt>
      <trkpt lat="47.52178" lon="6.71315">
        <ele>429.8</ele>
        <time>2017-01-15T09:15:18.000Z</time>
      </trkpt>
      <trkpt lat="47.52182" lon="6.71311">
        <ele>429.4</ele>
        <time>2017-01-15T09:15:19.000Z</time>
      </trkpt>
      <trkpt lat="47.52187" lon="6.71307">
        <ele>425.8</ele>
        <time>2017-01-15T09:15:20.000Z</time>
      </trkpt>
      <trkpt lat="47.52193" lon="6.713">
        <ele>422.4</ele>
        <time>2017-01-15T09:15:21.000Z</time>
      </trkpt>
      <trkpt lat="47.52198" lon="6.71296">
        <ele>419.4</ele>
        <time>2017-01-15T09:15:22.000Z</time>
      </trkpt>
      <trkpt lat="47.52203" lon="6.71291">
        <ele>417.2</ele>
        <time>2017-01-15T09:15:23.000Z</time>
      </trkpt>
      <trkpt lat="47.52208" lon="6.71287">
        <ele>415</ele>
        <time>2017-01-15T09:15:24.000Z</time>
      </trkpt>
      <trkpt lat="47.52212" lon="6.71283">
        <ele>413.2</ele>
        <time>2017-01-15T09:15:25.000Z</time>
      </trkpt>
      <trkpt lat="47.52215" lon="6.71279">
        <ele>412.4</ele>
        <time>2017-01-15T09:15:26.000Z</time>
      </trkpt>
      <trkpt lat="47.52218" lon="6.71274">
        <ele>412.3</ele>
        <time>2017-01-15T09:15:27.000Z</time>
      </trkpt>
      <trkpt lat="47.52222" lon="6.71271">
        <ele>412.2</ele>
        <time>2017-01-15T09:15:28.000Z</time>
      </trkpt>
      <trkpt lat="47.52226" lon="6.71268">
        <ele>411.6</ele>
        <time>2017-01-15T09:15:29.000Z</time>
      </trkpt>
      <trkpt lat="47.52228" lon="6.71266">
        <ele>411.5</ele>
        <time>2017-01-15T09:15:30.000Z</time>
      </trkpt>
      <trkpt lat="47.52231" lon="6.71264">
        <ele>411.5</ele>
        <time>2017-01-15T09:15:31.000Z</time>
      </trkpt>
      <trkpt lat="47.52234" lon="6.71263">
        <ele>411.5</ele>
        <time>2017-01-15T09:15:32.000Z</time>
      </trkpt>
      <trkpt lat="47.52237" lon="6.7126">
        <ele>411.4</ele>
        <time>2017-01-15T09:15:33.000Z</time>
      </trkpt>
      <trkpt lat="47.52241" lon="6.71257">
        <ele>411.3</ele>
        <time>2017-01-15T09:15:34.000Z</time>
      </trkpt>
      <trkpt lat="47.52245" lon="6.71253">
        <ele>411.3</ele>
        <time>2017-01-15T09:15:35.000Z</time>
      </trkpt>
      <trkpt lat="47.52248" lon="6.71249">
        <ele>411.2</ele>
        <time>2017-01-15T09:15:36.000Z</time>
      </trkpt>
      <trkpt lat="47.52251" lon="6.71245">
        <ele>411.3</ele>
        <time>2017-01-15T09:15:37.000Z</time>
      </trkpt>
      <trkpt lat="47.52255" lon="6.71242">
        <ele>411</ele>
        <time>2017-01-15T09:15:38.000Z</time>
      </trkpt>
      <trkpt lat="47.52259" lon="6.71237">
        <ele>410</ele>
        <time>2017-01-15T09:15:39.000Z</time>
      </trkpt>
      <trkpt lat="47.52263" lon="6.71232">
        <ele>409.9</ele>
        <time>2017-01-15T09:15:40.000Z</time>
      </trkpt>
      <trkpt lat="47.52265" lon="6.7123">
        <ele>409.8</ele>
        <time>2017-01-15T09:15:41.000Z</time>
      </trkpt>
      <trkpt lat="47.52268" lon="6.7123">
        <ele>409.4</ele>
        <time>2017-01-15T09:15:42.000Z</time>
      </trkpt>
      <trkpt lat="47.52271" lon="6.71229">
        <ele>409.1</ele>
        <time>2017-01-15T09:15:43.000Z</time>
      </trkpt>
      <trkpt lat="47.52274" lon="6.71226">
        <ele>408.4</ele>
        <time>2017-01-15T09:15:44.000Z</time>
      </trkpt>
      <trkpt lat="47.52277" lon="6.71223">
        <ele>408.3</ele>
        <time>2017-01-15T09:15:45.000Z</time>
      </trkpt>
      <trkpt lat="47.52281" lon="6.71221">
        <ele>408.2</ele>
        <time>2017-01-15T09:15:46.000Z</time>
      </trkpt>
      <trkpt lat="47.52284" lon="6.71217">
        <ele>408.1</ele>
        <time>2017-01-15T09:15:47.000Z</time>
      </trkpt>
      <trkpt lat="47.52287" lon="6.71213">
        <ele>406.2</ele>
        <time>2017-01-15T09:15:48.000Z</time>
      </trkpt>
      <trkpt lat="47.52291" lon="6.71209">
        <ele>404.2</ele>
        <time>2017-01-15T09:15:49.000Z</time>
      </trkpt>
      <trkpt lat="47.52295" lon="6.71204">
        <ele>401.9</ele>
        <time>2017-01-15T09:15:50.000Z</time>
      </trkpt>
      <trkpt lat="47.52299" lon="6.712">
        <ele>400.1</ele>
        <time>2017-01-15T09:15:51.000Z</time>
      </trkpt>
      <trkpt lat="47.52302" lon="6.71196">
        <ele>399.6</ele>
        <time>2017-01-15T09:15:52.000Z</time>
      </trkpt>
      <trkpt lat="47.52305" lon="6.71192">
        <ele>399.7</ele>
        <time>2017-01-15T09:15:53.000Z</time>
      </trkpt>
      <trkpt lat="47.52309" lon="6.71187">
        <ele>399.7</ele>
        <time>2017-01-15T09:15:54.000Z</time>
      </trkpt>
      <trkpt lat="47.52312" lon="6.71182">
        <ele>400.1</ele>
        <time>2017-01-15T09:15:55.000Z</time>
      </trkpt>
      <trkpt lat="47.52316" lon="6.71178">
        <ele>400.8</ele>
        <time>2017-01-15T09:15:56.000Z</time>
      </trkpt>
      <trkpt lat="47.52319" lon="6.71174">
        <ele>401.6</ele>
        <time>2017-01-15T09:15:57.000Z</time>
      </trkpt>
      <trkpt lat="47.52321" lon="6.71171">
        <ele>401.7</ele>
        <time>2017-01-15T09:15:58.000Z</time>
      </trkpt>
      <trkpt lat="47.52323" lon="6.71167">
        <ele>401.7</ele>
        <time>2017-01-15T09:15:59.000Z</time>
      </trkpt>
      <trkpt lat="47.52324" lon="6.71164">
        <ele>401.8</ele>
        <time>2017-01-15T09:16:00.000Z</time>
      </trkpt>
      <trkpt lat="47.52326" lon="6.71159">
        <ele>402.1</ele>
        <time>2017-01-15T09:16:04.000Z</time>
      </trkpt>
      <trkpt lat="47.52329" lon="6.71156">
        <ele>402.2</ele>
        <time>2017-01-15T09:16:05.000Z</time>
      </trkpt>
      <trkpt lat="47.52332" lon="6.71155">
        <ele>402.4</ele>
        <time>2017-01-15T09:16:06.000Z</time>
      </trkpt>
      <trkpt lat="47.52334" lon="6.71155">
        <ele>402.5</ele>
        <time>2017-01-15T09:16:07.000Z</time>
      </trkpt>
      <trkpt lat="47.52337" lon="6.71155">
        <ele>402.6</ele>
        <time>2017-01-15T09:16:08.000Z</time>
      </trkpt>
      <trkpt lat="47.5234" lon="6.71155">
        <ele>402.7</ele>
        <time>2017-01-15T09:16:09.000Z</time>
      </trkpt>
      <trkpt lat="47.52343" lon="6.71157">
        <ele>404.1</ele>
        <time>2017-01-15T09:16:10.000Z</time>
      </trkpt>
      <trkpt lat="47.52346" lon="6.71159">
        <ele>405.8</ele>
        <time>2017-01-15T09:16:11.000Z</time>
      </trkpt>
      <trkpt lat="47.52349" lon="6.71163">
        <ele>406</ele>
        <time>2017-01-15T09:16:12.000Z</time>
      </trkpt>
      <trkpt lat="47.52352" lon="6.71166">
        <ele>406.1</ele>
        <time>2017-01-15T09:16:13.000Z</time>
      </trkpt>
      <trkpt lat="47.52356" lon="6.7117">
        <ele>407.9</ele>
        <time>2017-01-15T09:16:14.000Z</time>
      </trkpt>
      <trkpt lat="47.52359" lon="6.71174">
        <ele>408</ele>
        <time>2017-01-15T09:16:15.000Z</time>
      </trkpt>
      <trkpt lat="47.52362" lon="6.71178">
        <ele>408.2</ele>
        <time>2017-01-15T09:16:16.000Z</time>
      </trkpt>
      <trkpt lat="47.52365" lon="6.7118">
        <ele>408.4</ele>
        <time>2017-01-15T09:16:17.000Z</time>
      </trkpt>
      <trkpt lat="47.52369" lon="6.71182">
        <ele>410.3</ele>
        <time>2017-01-15T09:16:18.000Z</time>
      </trkpt>
      <trkpt lat="47.52372" lon="6.71182">
        <ele>410.5</ele>
        <time>2017-01-15T09:16:19.000Z</time>
      </trkpt>
      <trkpt lat="47.52375" lon="6.71183">
        <ele>410.6</ele>
        <time>2017-01-15T09:16:20.000Z</time>
      </trkpt>
      <trkpt lat="47.52379" lon="6.71184">
        <ele>410.8</ele>
        <time>2017-01-15T09:16:21.000Z</time>
      </trkpt>
      <trkpt lat="47.52383" lon="6.71185">
        <ele>410.9</ele>
        <time>2017-01-15T09:16:22.000Z</time>
      </trkpt>
      <trkpt lat="47.52387" lon="6.71185">
        <ele>412.3</ele>
        <time>2017-01-15T09:16:23.000Z</time>
      </trkpt>
      <trkpt lat="47.52391" lon="6.71185">
        <ele>412.6</ele>
        <time>2017-01-15T09:16:24.000Z</time>
      </trkpt>
      <trkpt lat="47.52395" lon="6.71185">
        <ele>412.1</ele>
        <time>2017-01-15T09:16:25.000Z</time>
      </trkpt>
      <trkpt lat="47.52399" lon="6.71185">
        <ele>411.7</ele>
        <time>2017-01-15T09:16:26.000Z</time>
      </trkpt>
      <trkpt lat="47.52403" lon="6.71184">
        <ele>410.9</ele>
        <time>2017-01-15T09:16:27.000Z</time>
      </trkpt>
      <trkpt lat="47.52407" lon="6.71183">
        <ele>410</ele>
        <time>2017-01-15T09:16:28.000Z</time>
      </trkpt>
      <trkpt lat="47.52411" lon="6.71183">
        <ele>408.9</ele>
        <time>2017-01-15T09:16:29.000Z</time>
      </trkpt>
      <trkpt lat="47.52415" lon="6.71182">
        <ele>407.8</ele>
        <time>2017-01-15T09:16:30.000Z</time>
      </trkpt>
      <trkpt lat="47.52419" lon="6.71182">
        <ele>407.8</ele>
        <time>2017-01-15T09:16:31.000Z</time>
      </trkpt>
      <trkpt lat="47.52423" lon="6.71182">
        <ele>407.7</ele>
        <time>2017-01-15T09:16:32.000Z</time>
      </trkpt>
      <trkpt lat="47.52427" lon="6.71182">
        <ele>407.6</ele>
        <time>2017-01-15T09:16:33.000Z</time>
      </trkpt>
      <trkpt lat="47.52431" lon="6.71182">
        <ele>406.2</ele>
        <time>2017-01-15T09:16:34.000Z</time>
      </trkpt>
      <trkpt lat="47.52434" lon="6.71181">
        <ele>404.6</ele>
        <time>2017-01-15T09:16:35.000Z</time>
      </trkpt>
      <trkpt lat="47.52439" lon="6.7118">
        <ele>403.8</ele>
        <time>2017-01-15T09:16:36.000Z</time>
      </trkpt>
      <trkpt lat="47.52443" lon="6.71179">
        <ele>403.4</ele>
        <time>2017-01-15T09:16:37.000Z</time>
      </trkpt>
      <trkpt lat="47.52449" lon="6.71178">
        <ele>403.4</ele>
        <time>2017-01-15T09:16:38.000Z</time>
      </trkpt>
      <trkpt lat="47.52454" lon="6.71177">
        <ele>404.2</ele>
        <time>2017-01-15T09:16:39.000Z</time>
      </trkpt>
      <trkpt lat="47.5246" lon="6.71177">
        <ele>404.9</ele>
        <time>2017-01-15T09:16:40.000Z</time>
      </trkpt>
      <trkpt lat="47.52465" lon="6.71177">
        <ele>405</ele>
        <time>2017-01-15T09:16:41.000Z</time>
      </trkpt>
      <trkpt lat="47.5247" lon="6.71178">
        <ele>404.9</ele>
        <time>2017-01-15T09:16:42.000Z</time>
      </trkpt>
      <trkpt lat="47.52474" lon="6.71179">
        <ele>404.4</ele>
        <time>2017-01-15T09:16:43.000Z</time>
      </trkpt>
      <trkpt lat="47.52479" lon="6.71181">
        <ele>404.4</ele>
        <time>2017-01-15T09:16:44.000Z</time>
      </trkpt>
      <trkpt lat="47.52484" lon="6.71185">
        <ele>403.8</ele>
        <time>2017-01-15T09:16:45.000Z</time>
      </trkpt>
      <trkpt lat="47.52488" lon="6.71189">
        <ele>403.1</ele>
        <time>2017-01-15T09:16:46.000Z</time>
      </trkpt>
      <trkpt lat="47.52492" lon="6.71194">
        <ele>402.4</ele>
        <time>2017-01-15T09:16:47.000Z</time>
      </trkpt>
      <trkpt lat="47.52495" lon="6.71198">
        <ele>401.7</ele>
        <time>2017-01-15T09:16:48.000Z</time>
      </trkpt>
      <trkpt lat="47.52498" lon="6.71203">
        <ele>401.8</ele>
        <time>2017-01-15T09:16:49.000Z</time>
      </trkpt>
      <trkpt lat="47.52501" lon="6.71207">
        <ele>402.3</ele>
        <time>2017-01-15T09:16:50.000Z</time>
      </trkpt>
      <trkpt lat="47.52505" lon="6.71212">
        <ele>402.2</ele>
        <time>2017-01-15T09:16:51.000Z</time>
      </trkpt>
      <trkpt lat="47.52508" lon="6.71217">
        <ele>402.6</ele>
        <time>2017-01-15T09:16:52.000Z</time>
      </trkpt>
      <trkpt lat="47.52512" lon="6.71221">
        <ele>403.2</ele>
        <time>2017-01-15T09:16:53.000Z</time>
      </trkpt>
      <trkpt lat="47.52516" lon="6.71226">
        <ele>403.5</ele>
        <time>2017-01-15T09:16:54.000Z</time>
      </trkpt>
      <trkpt lat="47.5252" lon="6.7123">
        <ele>404.1</ele>
        <time>2017-01-15T09:16:55.000Z</time>
      </trkpt>
      <trkpt lat="47.52524" lon="6.71233">
        <ele>404.5</ele>
        <time>2017-01-15T09:16:56.000Z</time>
      </trkpt>
      <trkpt lat="47.52528" lon="6.71235">
        <ele>404.3</ele>
        <time>2017-01-15T09:16:57.000Z</time>
      </trkpt>
      <trkpt lat="47.52532" lon="6.71238">
        <ele>404.2</ele>
        <time>2017-01-15T09:16:58.000Z</time>
      </trkpt>
      <trkpt lat="47.52536" lon="6.71242">
        <ele>404.3</ele>
        <time>2017-01-15T09:16:59.000Z</time>
      </trkpt>
      <trkpt lat="47.5254" lon="6.71245">
        <ele>404.4</ele>
        <time>2017-01-15T09:17:00.000Z</time>
      </trkpt>
      <trkpt lat="47.52544" lon="6.71247">
        <ele>403.5</ele>
        <time>2017-01-15T09:17:01.000Z</time>
      </trkpt>
      <trkpt lat="47.52548" lon="6.71249">
        <ele>402.9</ele>
        <time>2017-01-15T09:17:02.000Z</time>
      </trkpt>
      <trkpt lat="47.52552" lon="6.7125">
        <ele>402.5</ele>
        <time>2017-01-15T09:17:03.000Z</time>
      </trkpt>
      <trkpt lat="47.52556" lon="6.71251">
        <ele>401.9</ele>
        <time>2017-01-15T09:17:04.000Z</time>
      </trkpt>
      <trkpt lat="47.5256" lon="6.71252">
        <ele>401.8</ele>
        <time>2017-01-15T09:17:05.000Z</time>
      </trkpt>
      <trkpt lat="47.52565" lon="6.71254">
        <ele>401.1</ele>
        <time>2017-01-15T09:17:06.000Z</time>
      </trkpt>
      <trkpt lat="47.5257" lon="6.71256">
        <ele>400.5</ele>
        <time>2017-01-15T09:17:07.000Z</time>
      </trkpt>
      <trkpt lat="47.52575" lon="6.71258">
        <ele>399.4</ele>
        <time>2017-01-15T09:17:08.000Z</time>
      </trkpt>
      <trkpt lat="47.5258" lon="6.7126">
        <ele>399.6</ele>
        <time>2017-01-15T09:17:09.000Z</time>
      </trkpt>
      <trkpt lat="47.52585" lon="6.71261">
        <ele>399.6</ele>
        <time>2017-01-15T09:17:10.000Z</time>
      </trkpt>
      <trkpt lat="47.5259" lon="6.71262">
        <ele>399.6</ele>
        <time>2017-01-15T09:17:11.000Z</time>
      </trkpt>
      <trkpt lat="47.52595" lon="6.71264">
        <ele>399.5</ele>
        <time>2017-01-15T09:17:12.000Z</time>
      </trkpt>
      <trkpt lat="47.526" lon="6.71264">
        <ele>399.4</ele>
        <time>2017-01-15T09:17:13.000Z</time>
      </trkpt>
      <trkpt lat="47.52605" lon="6.71265">
        <ele>399.7</ele>
        <time>2017-01-15T09:17:14.000Z</time>
      </trkpt>
      <trkpt lat="47.5261" lon="6.71266">
        <ele>399.3</ele>
        <time>2017-01-15T09:17:15.000Z</time>
      </trkpt>
      <trkpt lat="47.52615" lon="6.71268">
        <ele>399.3</ele>
        <time>2017-01-15T09:17:16.000Z</time>
      </trkpt>
      <trkpt lat="47.5262" lon="6.7127">
        <ele>399.3</ele>
        <time>2017-01-15T09:17:17.000Z</time>
      </trkpt>
      <trkpt lat="47.52625" lon="6.7127">
        <ele>399.4</ele>
        <time>2017-01-15T09:17:18.000Z</time>
      </trkpt>
      <trkpt lat="47.52629" lon="6.71271">
        <ele>399.4</ele>
        <time>2017-01-15T09:17:19.000Z</time>
      </trkpt>
      <trkpt lat="47.52635" lon="6.71272">
        <ele>399</ele>
        <time>2017-01-15T09:17:20.000Z</time>
      </trkpt>
      <trkpt lat="47.5264" lon="6.71274">
        <ele>399</ele>
        <time>2017-01-15T09:17:21.000Z</time>
      </trkpt>
      <trkpt lat="47.52647" lon="6.71276">
        <ele>398.1</ele>
        <time>2017-01-15T09:17:22.000Z</time>
      </trkpt>
      <trkpt lat="47.52653" lon="6.71277">
        <ele>397.7</ele>
        <time>2017-01-15T09:17:23.000Z</time>
      </trkpt>
      <trkpt lat="47.52657" lon="6.71279">
        <ele>397.6</ele>
        <time>2017-01-15T09:17:24.000Z</time>
      </trkpt>
      <trkpt lat="47.52661" lon="6.7128">
        <ele>397.5</ele>
        <time>2017-01-15T09:17:25.000Z</time>
      </trkpt>
      <trkpt lat="47.52666" lon="6.71281">
        <ele>397.5</ele>
        <time>2017-01-15T09:17:26.000Z</time>
      </trkpt>
      <trkpt lat="47.52671" lon="6.71282">
        <ele>397.3</ele>
        <time>2017-01-15T09:17:27.000Z</time>
      </trkpt>
      <trkpt lat="47.52677" lon="6.71283">
        <ele>395.4</ele>
        <time>2017-01-15T09:17:28.000Z</time>
      </trkpt>
      <trkpt lat="47.52682" lon="6.71284">
        <ele>393.4</ele>
        <time>2017-01-15T09:17:29.000Z</time>
      </trkpt>
      <trkpt lat="47.52686" lon="6.71286">
        <ele>393.2</ele>
        <time>2017-01-15T09:17:30.000Z</time>
      </trkpt>
      <trkpt lat="47.52689" lon="6.71286">
        <ele>393</ele>
        <time>2017-01-15T09:17:31.000Z</time>
      </trkpt>
      <trkpt lat="47.52694" lon="6.71286">
        <ele>392.8</ele>
        <time>2017-01-15T09:17:32.000Z</time>
      </trkpt>
      <trkpt lat="47.52698" lon="6.71286">
        <ele>392.6</ele>
        <time>2017-01-15T09:17:33.000Z</time>
      </trkpt>
      <trkpt lat="47.52704" lon="6.71284">
        <ele>391.1</ele>
        <time>2017-01-15T09:17:34.000Z</time>
      </trkpt>
      <trkpt lat="47.52708" lon="6.71281">
        <ele>389.2</ele>
        <time>2017-01-15T09:17:35.000Z</time>
      </trkpt>
      <trkpt lat="47.52712" lon="6.71275">
        <ele>389.1</ele>
        <time>2017-01-15T09:17:36.000Z</time>
      </trkpt>
      <trkpt lat="47.52714" lon="6.71271">
        <ele>389</ele>
        <time>2017-01-15T09:17:37.000Z</time>
      </trkpt>
      <trkpt lat="47.52715" lon="6.71264">
        <ele>388.9</ele>
        <time>2017-01-15T09:17:38.000Z</time>
      </trkpt>
      <trkpt lat="47.52716" lon="6.71259">
        <ele>388.9</ele>
        <time>2017-01-15T09:17:39.000Z</time>
      </trkpt>
      <trkpt lat="47.52716" lon="6.71255">
        <ele>388.9</ele>
        <time>2017-01-15T09:17:40.000Z</time>
      </trkpt>
      <trkpt lat="47.52715" lon="6.71251">
        <ele>388.9</ele>
        <time>2017-01-15T09:17:41.000Z</time>
      </trkpt>
      <trkpt lat="47.52714" lon="6.71246">
        <ele>388.9</ele>
        <time>2017-01-15T09:17:42.000Z</time>
      </trkpt>
      <trkpt lat="47.52712" lon="6.71242">
        <ele>388.9</ele>
        <time>2017-01-15T09:17:43.000Z</time>
      </trkpt>
      <trkpt lat="47.52711" lon="6.71236">
        <ele>389</ele>
        <time>2017-01-15T09:17:44.000Z</time>
      </trkpt>
      <trkpt lat="47.5271" lon="6.7123">
        <ele>389.1</ele>
        <time>2017-01-15T09:17:45.000Z</time>
      </trkpt>
      <trkpt lat="47.52709" lon="6.71225">
        <ele>389.2</ele>
        <time>2017-01-15T09:17:46.000Z</time>
      </trkpt>
      <trkpt lat="47.52707" lon="6.71219">
        <ele>389.4</ele>
        <time>2017-01-15T09:17:47.000Z</time>
      </trkpt>
      <trkpt lat="47.52706" lon="6.71216">
        <ele>389.6</ele>
        <time>2017-01-15T09:17:48.000Z</time>
      </trkpt>
      <trkpt lat="47.52707" lon="6.7121">
        <ele>390.3</ele>
        <time>2017-01-15T09:17:51.000Z</time>
      </trkpt>
      <trkpt lat="47.52708" lon="6.71209">
        <ele>390.4</ele>
        <time>2017-01-15T09:17:52.000Z</time>
      </trkpt>
      <trkpt lat="47.5271" lon="6.71204">
        <ele>390.8</ele>
        <time>2017-01-15T09:17:54.000Z</time>
      </trkpt>
      <trkpt lat="47.52711" lon="6.71203">
        <ele>391</ele>
        <time>2017-01-15T09:17:55.000Z</time>
      </trkpt>
      <trkpt lat="47.52713" lon="6.71198">
        <ele>391.5</ele>
        <time>2017-01-15T09:17:58.000Z</time>
      </trkpt>
      <trkpt lat="47.52714" lon="6.71197">
        <ele>391.6</ele>
        <time>2017-01-15T09:17:59.000Z</time>
      </trkpt>
      <trkpt lat="47.52717" lon="6.71195">
        <ele>392.3</ele>
        <time>2017-01-15T09:18:04.000Z</time>
      </trkpt>
      <trkpt lat="47.5272" lon="6.71192">
        <ele>392.4</ele>
        <time>2017-01-15T09:18:05.000Z</time>
      </trkpt>
      <trkpt lat="47.52723" lon="6.71188">
        <ele>392.7</ele>
        <time>2017-01-15T09:18:07.000Z</time>
      </trkpt>
      <trkpt lat="47.52725" lon="6.71185">
        <ele>392.7</ele>
        <time>2017-01-15T09:18:08.000Z</time>
      </trkpt>
      <trkpt lat="47.52727" lon="6.71181">
        <ele>392.8</ele>
        <time>2017-01-15T09:18:09.000Z</time>
      </trkpt>
      <trkpt lat="47.52729" lon="6.71181">
        <ele>392.9</ele>
        <time>2017-01-15T09:18:10.000Z</time>
      </trkpt>
      <trkpt lat="47.52733" lon="6.71179">
        <ele>393</ele>
        <time>2017-01-15T09:18:11.000Z</time>
      </trkpt>
      <trkpt lat="47.52736" lon="6.71176">
        <ele>393</ele>
        <time>2017-01-15T09:18:12.000Z</time>
      </trkpt>
      <trkpt lat="47.52741" lon="6.71172">
        <ele>393.5</ele>
        <time>2017-01-15T09:18:13.000Z</time>
      </trkpt>
      <trkpt lat="47.52744" lon="6.71167">
        <ele>393</ele>
        <time>2017-01-15T09:18:14.000Z</time>
      </trkpt>
      <trkpt lat="47.52746" lon="6.71164">
        <ele>392.9</ele>
        <time>2017-01-15T09:18:15.000Z</time>
      </trkpt>
      <trkpt lat="47.52747" lon="6.71157">
        <ele>391.6</ele>
        <time>2017-01-15T09:18:16.000Z</time>
      </trkpt>
      <trkpt lat="47.52748" lon="6.7115">
        <ele>390.6</ele>
        <time>2017-01-15T09:18:17.000Z</time>
      </trkpt>
      <trkpt lat="47.52749" lon="6.71143">
        <ele>388.7</ele>
        <time>2017-01-15T09:18:18.000Z</time>
      </trkpt>
      <trkpt lat="47.52749" lon="6.71135">
        <ele>386.9</ele>
        <time>2017-01-15T09:18:19.000Z</time>
      </trkpt>
      <trkpt lat="47.52747" lon="6.71125">
        <ele>385</ele>
        <time>2017-01-15T09:18:20.000Z</time>
      </trkpt>
      <trkpt lat="47.52746" lon="6.71114">
        <ele>384.1</ele>
        <time>2017-01-15T09:18:21.000Z</time>
      </trkpt>
      <trkpt lat="47.52745" lon="6.71102">
        <ele>382.8</ele>
        <time>2017-01-15T09:18:22.000Z</time>
      </trkpt>
      <trkpt lat="47.52744" lon="6.71091">
        <ele>382.1</ele>
        <time>2017-01-15T09:18:23.000Z</time>
      </trkpt>
      <trkpt lat="47.52744" lon="6.71082">
        <ele>381.6</ele>
        <time>2017-01-15T09:18:24.000Z</time>
      </trkpt>
      <trkpt lat="47.52744" lon="6.71075">
        <ele>381.7</ele>
        <time>2017-01-15T09:18:25.000Z</time>
      </trkpt>
      <trkpt lat="47.52744" lon="6.7107">
        <ele>381.7</ele>
        <time>2017-01-15T09:18:26.000Z</time>
      </trkpt>
      <trkpt lat="47.52744" lon="6.71063">
        <ele>381.9</ele>
        <time>2017-01-15T09:18:27.000Z</time>
      </trkpt>
      <trkpt lat="47.52746" lon="6.71058">
        <ele>382</ele>
        <time>2017-01-15T09:18:28.000Z</time>
      </trkpt>
      <trkpt lat="47.52748" lon="6.71053">
        <ele>382.2</ele>
        <time>2017-01-15T09:18:29.000Z</time>
      </trkpt>
      <trkpt lat="47.52749" lon="6.71048">
        <ele>382.4</ele>
        <time>2017-01-15T09:18:30.000Z</time>
      </trkpt>
      <trkpt lat="47.52751" lon="6.71044">
        <ele>382.5</ele>
        <time>2017-01-15T09:18:31.000Z</time>
      </trkpt>
      <trkpt lat="47.52752" lon="6.71038">
        <ele>382.9</ele>
        <time>2017-01-15T09:18:33.000Z</time>
      </trkpt>
      <trkpt lat="47.52752" lon="6.71035">
        <ele>383.2</ele>
        <time>2017-01-15T09:18:34.000Z</time>
      </trkpt>
      <trkpt lat="47.5275" lon="6.7103">
        <ele>383.6</ele>
        <time>2017-01-15T09:18:36.000Z</time>
      </trkpt>
      <trkpt lat="47.52749" lon="6.71026">
        <ele>383.8</ele>
        <time>2017-01-15T09:18:37.000Z</time>
      </trkpt>
      <trkpt lat="47.52748" lon="6.71022">
        <ele>384</ele>
        <time>2017-01-15T09:18:38.000Z</time>
      </trkpt>
      <trkpt lat="47.52747" lon="6.7102">
        <ele>384.2</ele>
        <time>2017-01-15T09:18:39.000Z</time>
      </trkpt>
      <trkpt lat="47.52746" lon="6.71015">
        <ele>384.6</ele>
        <time>2017-01-15T09:18:41.000Z</time>
      </trkpt>
      <trkpt lat="47.52745" lon="6.71013">
        <ele>384.8</ele>
        <time>2017-01-15T09:18:42.000Z</time>
      </trkpt>
      <trkpt lat="47.52744" lon="6.71009">
        <ele>384.9</ele>
        <time>2017-01-15T09:18:43.000Z</time>
      </trkpt>
      <trkpt lat="47.52742" lon="6.71007">
        <ele>385.1</ele>
        <time>2017-01-15T09:18:44.000Z</time>
      </trkpt>
      <trkpt lat="47.52741" lon="6.71003">
        <ele>385.3</ele>
        <time>2017-01-15T09:18:45.000Z</time>
      </trkpt>
      <trkpt lat="47.5274" lon="6.71001">
        <ele>385.4</ele>
        <time>2017-01-15T09:18:46.000Z</time>
      </trkpt>
      <trkpt lat="47.52738" lon="6.70997">
        <ele>385.7</ele>
        <time>2017-01-15T09:18:48.000Z</time>
      </trkpt>
      <trkpt lat="47.52737" lon="6.70994">
        <ele>385.8</ele>
        <time>2017-01-15T09:18:49.000Z</time>
      </trkpt>
      <trkpt lat="47.52735" lon="6.7099">
        <ele>386</ele>
        <time>2017-01-15T09:18:51.000Z</time>
      </trkpt>
      <trkpt lat="47.52734" lon="6.70988">
        <ele>386.1</ele>
        <time>2017-01-15T09:18:52.000Z</time>
      </trkpt>
      <trkpt lat="47.52732" lon="6.70984">
        <ele>386.3</ele>
        <time>2017-01-15T09:18:54.000Z</time>
      </trkpt>
      <trkpt lat="47.52732" lon="6.70981">
        <ele>386.3</ele>
        <time>2017-01-15T09:18:55.000Z</time>
      </trkpt>
      <trkpt lat="47.52731" lon="6.70977">
        <ele>386.2</ele>
        <time>2017-01-15T09:18:56.000Z</time>
      </trkpt>
      <trkpt lat="47.52731" lon="6.70973">
        <ele>386.1</ele>
        <time>2017-01-15T09:18:57.000Z</time>
      </trkpt>
      <trkpt lat="47.52729" lon="6.70968">
        <ele>386.1</ele>
        <time>2017-01-15T09:18:59.000Z</time>
      </trkpt>
      <trkpt lat="47.52729" lon="6.70966">
        <ele>386</ele>
        <time>2017-01-15T09:19:00.000Z</time>
      </trkpt>
      <trkpt lat="47.52729" lon="6.70961">
        <ele>385.7</ele>
        <time>2017-01-15T09:19:02.000Z</time>
      </trkpt>
      <trkpt lat="47.5273" lon="6.70959">
        <ele>385.5</ele>
        <time>2017-01-15T09:19:03.000Z</time>
      </trkpt>
      <trkpt lat="47.5273" lon="6.70954">
        <ele>385.2</ele>
        <time>2017-01-15T09:19:05.000Z</time>
      </trkpt>
      <trkpt lat="47.5273" lon="6.70951">
        <ele>384.9</ele>
        <time>2017-01-15T09:19:06.000Z</time>
      </trkpt>
      <trkpt lat="47.52731" lon="6.70946">
        <ele>384.7</ele>
        <time>2017-01-15T09:19:07.000Z</time>
      </trkpt>
      <trkpt lat="47.52731" lon="6.70943">
        <ele>384.3</ele>
        <time>2017-01-15T09:19:08.000Z</time>
      </trkpt>
      <trkpt lat="47.52731" lon="6.70939">
        <ele>384</ele>
        <time>2017-01-15T09:19:09.000Z</time>
      </trkpt>
      <trkpt lat="47.52732" lon="6.70936">
        <ele>383.6</ele>
        <time>2017-01-15T09:19:10.000Z</time>
      </trkpt>
      <trkpt lat="47.52733" lon="6.70931">
        <ele>382.9</ele>
        <time>2017-01-15T09:19:12.000Z</time>
      </trkpt>
      <trkpt lat="47.52734" lon="6.70929">
        <ele>382.5</ele>
        <time>2017-01-15T09:19:13.000Z</time>
      </trkpt>
      <trkpt lat="47.52735" lon="6.70925">
        <ele>382</ele>
        <time>2017-01-15T09:19:14.000Z</time>
      </trkpt>
      <trkpt lat="47.52736" lon="6.70921">
        <ele>381.6</ele>
        <time>2017-01-15T09:19:15.000Z</time>
      </trkpt>
      <trkpt lat="47.52736" lon="6.70917">
        <ele>381.2</ele>
        <time>2017-01-15T09:19:16.000Z</time>
      </trkpt>
      <trkpt lat="47.52737" lon="6.70914">
        <ele>380.8</ele>
        <time>2017-01-15T09:19:17.000Z</time>
      </trkpt>
      <trkpt lat="47.52737" lon="6.70911">
        <ele>380.4</ele>
        <time>2017-01-15T09:19:18.000Z</time>
      </trkpt>
      <trkpt lat="47.52737" lon="6.70906">
        <ele>380</ele>
        <time>2017-01-15T09:19:19.000Z</time>
      </trkpt>
      <trkpt lat="47.52737" lon="6.70902">
        <ele>379.5</ele>
        <time>2017-01-15T09:19:20.000Z</time>
      </trkpt>
      <trkpt lat="47.52738" lon="6.70898">
        <ele>379</ele>
        <time>2017-01-15T09:19:21.000Z</time>
      </trkpt>
      <trkpt lat="47.52737" lon="6.70892">
        <ele>378.6</ele>
        <time>2017-01-15T09:19:22.000Z</time>
      </trkpt>
      <trkpt lat="47.52738" lon="6.70888">
        <ele>378.1</ele>
        <time>2017-01-15T09:19:23.000Z</time>
      </trkpt>
      <trkpt lat="47.52738" lon="6.70883">
        <ele>377.7</ele>
        <time>2017-01-15T09:19:24.000Z</time>
      </trkpt>
      <trkpt lat="47.52738" lon="6.70877">
        <ele>377.3</ele>
        <time>2017-01-15T09:19:25.000Z</time>
      </trkpt>
      <trkpt lat="47.52738" lon="6.70873">
        <ele>377</ele>
        <time>2017-01-15T09:19:26.000Z</time>
      </trkpt>
      <trkpt lat="47.52738" lon="6.7087">
        <ele>376.9</ele>
        <time>2017-01-15T09:19:27.000Z</time>
      </trkpt>
      <trkpt lat="47.52739" lon="6.70866">
        <ele>376.9</ele>
        <time>2017-01-15T09:19:28.000Z</time>
      </trkpt>
      <trkpt lat="47.52739" lon="6.70862">
        <ele>377.1</ele>
        <time>2017-01-15T09:19:29.000Z</time>
      </trkpt>
      <trkpt lat="47.52739" lon="6.70855">
        <ele>377.2</ele>
        <time>2017-01-15T09:19:30.000Z</time>
      </trkpt>
      <trkpt lat="47.52739" lon="6.70847">
        <ele>377.4</ele>
        <time>2017-01-15T09:19:31.000Z</time>
      </trkpt>
      <trkpt lat="47.5274" lon="6.70839">
        <ele>377.7</ele>
        <time>2017-01-15T09:19:32.000Z</time>
      </trkpt>
      <trkpt lat="47.5274" lon="6.70834">
        <ele>378</ele>
        <time>2017-01-15T09:19:33.000Z</time>
      </trkpt>
      <trkpt lat="47.5274" lon="6.7083">
        <ele>378.3</ele>
        <time>2017-01-15T09:19:34.000Z</time>
      </trkpt>
      <trkpt lat="47.52741" lon="6.70826">
        <ele>378.6</ele>
        <time>2017-01-15T09:19:35.000Z</time>
      </trkpt>
      <trkpt lat="47.52741" lon="6.70821">
        <ele>379</ele>
        <time>2017-01-15T09:19:36.000Z</time>
      </trkpt>
      <trkpt lat="47.52741" lon="6.70815">
        <ele>379.3</ele>
        <time>2017-01-15T09:19:37.000Z</time>
      </trkpt>
      <trkpt lat="47.52741" lon="6.70808">
        <ele>379.7</ele>
        <time>2017-01-15T09:19:38.000Z</time>
      </trkpt>
      <trkpt lat="47.52742" lon="6.70802">
        <ele>380.1</ele>
        <time>2017-01-15T09:19:39.000Z</time>
      </trkpt>
      <trkpt lat="47.52742" lon="6.70796">
        <ele>380.5</ele>
        <time>2017-01-15T09:19:40.000Z</time>
      </trkpt>
      <trkpt lat="47.52742" lon="6.70791">
        <ele>380.8</ele>
        <time>2017-01-15T09:19:41.000Z</time>
      </trkpt>
      <trkpt lat="47.52743" lon="6.70786">
        <ele>381</ele>
        <time>2017-01-15T09:19:42.000Z</time>
      </trkpt>
      <trkpt lat="47.52743" lon="6.70782">
        <ele>381.2</ele>
        <time>2017-01-15T09:19:43.000Z</time>
      </trkpt>
      <trkpt lat="47.52743" lon="6.70779">
        <ele>381.5</ele>
        <time>2017-01-15T09:19:44.000Z</time>
      </trkpt>
      <trkpt lat="47.52744" lon="6.70775">
        <ele>381.7</ele>
        <time>2017-01-15T09:19:45.000Z</time>
      </trkpt>
      <trkpt lat="47.52744" lon="6.7077">
        <ele>381.9</ele>
        <time>2017-01-15T09:19:46.000Z</time>
      </trkpt>
      <trkpt lat="47.52744" lon="6.70766">
        <ele>382</ele>
        <time>2017-01-15T09:19:47.000Z</time>
      </trkpt>
      <trkpt lat="47.52744" lon="6.70761">
        <ele>382</ele>
        <time>2017-01-15T09:19:48.000Z</time>
      </trkpt>
      <trkpt lat="47.52745" lon="6.70757">
        <ele>381.9</ele>
        <time>2017-01-15T09:19:49.000Z</time>
      </trkpt>
      <trkpt lat="47.52746" lon="6.7075">
        <ele>381.8</ele>
        <time>2017-01-15T09:19:50.000Z</time>
      </trkpt>
      <trkpt lat="47.52747" lon="6.70746">
        <ele>381.7</ele>
        <time>2017-01-15T09:19:51.000Z</time>
      </trkpt>
      <trkpt lat="47.52748" lon="6.70743">
        <ele>381.7</ele>
        <time>2017-01-15T09:19:52.000Z</time>
      </trkpt>
      <trkpt lat="47.5275" lon="6.70738">
        <ele>381.5</ele>
        <time>2017-01-15T09:19:54.000Z</time>
      </trkpt>
      <trkpt lat="47.5275" lon="6.70737">
        <ele>381.4</ele>
        <time>2017-01-15T09:19:55.000Z</time>
      </trkpt>
      <trkpt lat="47.52752" lon="6.70733">
        <ele>381.2</ele>
        <time>2017-01-15T09:19:56.000Z</time>
      </trkpt>
      <trkpt lat="47.52753" lon="6.7073">
        <ele>381</ele>
        <time>2017-01-15T09:19:57.000Z</time>
      </trkpt>
      <trkpt lat="47.52752" lon="6.70725">
        <ele>380.8</ele>
        <time>2017-01-15T09:20:00.000Z</time>
      </trkpt>
      <trkpt lat="47.52753" lon="6.70722">
        <ele>380.7</ele>
        <time>2017-01-15T09:20:01.000Z</time>
      </trkpt>
      <trkpt lat="47.52754" lon="6.70717">
        <ele>380.6</ele>
        <time>2017-01-15T09:20:03.000Z</time>
      </trkpt>
      <trkpt lat="47.52754" lon="6.70714">
        <ele>380.6</ele>
        <time>2017-01-15T09:20:04.000Z</time>
      </trkpt>
      <trkpt lat="47.52753" lon="6.7071">
        <ele>380.5</ele>
        <time>2017-01-15T09:20:05.000Z</time>
      </trkpt>
      <trkpt lat="47.52754" lon="6.70707">
        <ele>380.4</ele>
        <time>2017-01-15T09:20:06.000Z</time>
      </trkpt>
      <trkpt lat="47.52754" lon="6.70702">
        <ele>380.4</ele>
        <time>2017-01-15T09:20:07.000Z</time>
      </trkpt>
      <trkpt lat="47.52754" lon="6.70695">
        <ele>380.5</ele>
        <time>2017-01-15T09:20:08.000Z</time>
      </trkpt>
      <trkpt lat="47.52754" lon="6.70691">
        <ele>380.5</ele>
        <time>2017-01-15T09:20:09.000Z</time>
      </trkpt>
      <trkpt lat="47.52754" lon="6.70685">
        <ele>380.8</ele>
        <time>2017-01-15T09:20:10.000Z</time>
      </trkpt>
      <trkpt lat="47.52754" lon="6.70679">
        <ele>381</ele>
        <time>2017-01-15T09:20:11.000Z</time>
      </trkpt>
      <trkpt lat="47.52754" lon="6.70674">
        <ele>381.3</ele>
        <time>2017-01-15T09:20:12.000Z</time>
      </trkpt>
      <trkpt lat="47.52754" lon="6.7067">
        <ele>381.6</ele>
        <time>2017-01-15T09:20:13.000Z</time>
      </trkpt>
      <trkpt lat="47.52754" lon="6.70667">
        <ele>381.8</ele>
        <time>2017-01-15T09:20:14.000Z</time>
      </trkpt>
      <trkpt lat="47.52754" lon="6.70662">
        <ele>382.4</ele>
        <time>2017-01-15T09:20:16.000Z</time>
      </trkpt>
      <trkpt lat="47.52754" lon="6.70659">
        <ele>382.7</ele>
        <time>2017-01-15T09:20:17.000Z</time>
      </trkpt>
      <trkpt lat="47.52754" lon="6.70654">
        <ele>382.9</ele>
        <time>2017-01-15T09:20:18.000Z</time>
      </trkpt>
      <trkpt lat="47.52753" lon="6.70649">
        <ele>383.1</ele>
        <time>2017-01-15T09:20:19.000Z</time>
      </trkpt>
      <trkpt lat="47.52752" lon="6.70643">
        <ele>383.5</ele>
        <time>2017-01-15T09:20:21.000Z</time>
      </trkpt>
      <trkpt lat="47.52751" lon="6.7064">
        <ele>383.7</ele>
        <time>2017-01-15T09:20:22.000Z</time>
      </trkpt>
      <trkpt lat="47.52751" lon="6.70634">
        <ele>384.1</ele>
        <time>2017-01-15T09:20:24.000Z</time>
      </trkpt>
      <trkpt lat="47.5275" lon="6.70631">
        <ele>384.4</ele>
        <time>2017-01-15T09:20:25.000Z</time>
      </trkpt>
      <trkpt lat="47.52749" lon="6.70626">
        <ele>384.7</ele>
        <time>2017-01-15T09:20:27.000Z</time>
      </trkpt>
      <trkpt lat="47.52749" lon="6.70622">
        <ele>384.9</ele>
        <time>2017-01-15T09:20:28.000Z</time>
      </trkpt>
      <trkpt lat="47.52749" lon="6.70616">
        <ele>385.2</ele>
        <time>2017-01-15T09:20:30.000Z</time>
      </trkpt>
      <trkpt lat="47.52749" lon="6.70614">
        <ele>385.2</ele>
        <time>2017-01-15T09:20:31.000Z</time>
      </trkpt>
      <trkpt lat="47.52751" lon="6.70612">
        <ele>385.2</ele>
        <time>2017-01-15T09:20:32.000Z</time>
      </trkpt>
      <trkpt lat="47.52754" lon="6.70608">
        <ele>385</ele>
        <time>2017-01-15T09:20:33.000Z</time>
      </trkpt>
      <trkpt lat="47.52757" lon="6.70604">
        <ele>384.9</ele>
        <time>2017-01-15T09:20:34.000Z</time>
      </trkpt>
      <trkpt lat="47.5276" lon="6.706">
        <ele>384.9</ele>
        <time>2017-01-15T09:20:35.000Z</time>
      </trkpt>
      <trkpt lat="47.52763" lon="6.70598">
        <ele>384.8</ele>
        <time>2017-01-15T09:20:36.000Z</time>
      </trkpt>
      <trkpt lat="47.52765" lon="6.70596">
        <ele>384.7</ele>
        <time>2017-01-15T09:20:37.000Z</time>
      </trkpt>
      <trkpt lat="47.52769" lon="6.70597">
        <ele>384.6</ele>
        <time>2017-01-15T09:20:39.000Z</time>
      </trkpt>
      <trkpt lat="47.5277" lon="6.70597">
        <ele>384.8</ele>
        <time>2017-01-15T09:20:40.000Z</time>
      </trkpt>
      <trkpt lat="47.52773" lon="6.70597">
        <ele>384.9</ele>
        <time>2017-01-15T09:20:41.000Z</time>
      </trkpt>
      <trkpt lat="47.52775" lon="6.70597">
        <ele>384.9</ele>
        <time>2017-01-15T09:20:42.000Z</time>
      </trkpt>
      <trkpt lat="47.52778" lon="6.70598">
        <ele>385</ele>
        <time>2017-01-15T09:20:43.000Z</time>
      </trkpt>
      <trkpt lat="47.5278" lon="6.70598">
        <ele>385.1</ele>
        <time>2017-01-15T09:20:44.000Z</time>
      </trkpt>
      <trkpt lat="47.52784" lon="6.70598">
        <ele>385.1</ele>
        <time>2017-01-15T09:20:46.000Z</time>
      </trkpt>
      <trkpt lat="47.52785" lon="6.70597">
        <ele>385.1</ele>
        <time>2017-01-15T09:20:47.000Z</time>
      </trkpt>
      <trkpt lat="47.52789" lon="6.70594">
        <ele>385.2</ele>
        <time>2017-01-15T09:20:49.000Z</time>
      </trkpt>
      <trkpt lat="47.5279" lon="6.70592">
        <ele>385.2</ele>
        <time>2017-01-15T09:20:50.000Z</time>
      </trkpt>
      <trkpt lat="47.52792" lon="6.70589">
        <ele>385.1</ele>
        <time>2017-01-15T09:20:52.000Z</time>
      </trkpt>
      <trkpt lat="47.52794" lon="6.70586">
        <ele>385.1</ele>
        <time>2017-01-15T09:20:53.000Z</time>
      </trkpt>
      <trkpt lat="47.52795" lon="6.70582">
        <ele>385.1</ele>
        <time>2017-01-15T09:20:54.000Z</time>
      </trkpt>
      <trkpt lat="47.52796" lon="6.70579">
        <ele>385</ele>
        <time>2017-01-15T09:20:55.000Z</time>
      </trkpt>
      <trkpt lat="47.52796" lon="6.70576">
        <ele>385</ele>
        <time>2017-01-15T09:20:56.000Z</time>
      </trkpt>
      <trkpt lat="47.52796" lon="6.70572">
        <ele>384.9</ele>
        <time>2017-01-15T09:20:57.000Z</time>
      </trkpt>
      <trkpt lat="47.52795" lon="6.70566">
        <ele>385.1</ele>
        <time>2017-01-15T09:20:59.000Z</time>
      </trkpt>
      <trkpt lat="47.52794" lon="6.70564">
        <ele>385.2</ele>
        <time>2017-01-15T09:21:00.000Z</time>
      </trkpt>
      <trkpt lat="47.52792" lon="6.70558">
        <ele>385.4</ele>
        <time>2017-01-15T09:21:02.000Z</time>
      </trkpt>
      <trkpt lat="47.52792" lon="6.70557">
        <ele>385.5</ele>
        <time>2017-01-15T09:21:03.000Z</time>
      </trkpt>
      <trkpt lat="47.52793" lon="6.70551">
        <ele>386.1</ele>
        <time>2017-01-15T09:21:08.000Z</time>
      </trkpt>
      <trkpt lat="47.52795" lon="6.70551">
        <ele>386.2</ele>
        <time>2017-01-15T09:21:09.000Z</time>
      </trkpt>
      <trkpt lat="47.52798" lon="6.70552">
        <ele>386.5</ele>
        <time>2017-01-15T09:21:11.000Z</time>
      </trkpt>
      <trkpt lat="47.52801" lon="6.70553">
        <ele>386.5</ele>
        <time>2017-01-15T09:21:12.000Z</time>
      </trkpt>
      <trkpt lat="47.52803" lon="6.70555">
        <ele>386.6</ele>
        <time>2017-01-15T09:21:13.000Z</time>
      </trkpt>
      <trkpt lat="47.52807" lon="6.70557">
        <ele>386.7</ele>
        <time>2017-01-15T09:21:14.000Z</time>
      </trkpt>
      <trkpt lat="47.52809" lon="6.7056">
        <ele>386.8</ele>
        <time>2017-01-15T09:21:15.000Z</time>
      </trkpt>
      <trkpt lat="47.52812" lon="6.70563">
        <ele>386.8</ele>
        <time>2017-01-15T09:21:16.000Z</time>
      </trkpt>
      <trkpt lat="47.52814" lon="6.70567">
        <ele>386.9</ele>
        <time>2017-01-15T09:21:18.000Z</time>
      </trkpt>
      <trkpt lat="47.52815" lon="6.70568">
        <ele>386.9</ele>
        <time>2017-01-15T09:21:19.000Z</time>
      </trkpt>
      <trkpt lat="47.52818" lon="6.70571">
        <ele>387.2</ele>
        <time>2017-01-15T09:21:21.000Z</time>
      </trkpt>
      <trkpt lat="47.5282" lon="6.70574">
        <ele>387.3</ele>
        <time>2017-01-15T09:21:22.000Z</time>
      </trkpt>
      <trkpt lat="47.52823" lon="6.70578">
        <ele>387.6</ele>
        <time>2017-01-15T09:21:25.000Z</time>
      </trkpt>
      <trkpt lat="47.52825" lon="6.70579">
        <ele>387.7</ele>
        <time>2017-01-15T09:21:26.000Z</time>
      </trkpt>
      <trkpt lat="47.52828" lon="6.70581">
        <ele>388.1</ele>
        <time>2017-01-15T09:21:29.000Z</time>
      </trkpt>
      <trkpt lat="47.5283" lon="6.70582">
        <ele>388.2</ele>
        <time>2017-01-15T09:21:30.000Z</time>
      </trkpt>
      <trkpt lat="47.52834" lon="6.70583">
        <ele>388.4</ele>
        <time>2017-01-15T09:21:33.000Z</time>
      </trkpt>
      <trkpt lat="47.52836" lon="6.70585">
        <ele>388.6</ele>
        <time>2017-01-15T09:21:34.000Z</time>
      </trkpt>
      <trkpt lat="47.52839" lon="6.70585">
        <ele>388.9</ele>
        <time>2017-01-15T09:21:36.000Z</time>
      </trkpt>
      <trkpt lat="47.52841" lon="6.70585">
        <ele>389.1</ele>
        <time>2017-01-15T09:21:37.000Z</time>
      </trkpt>
      <trkpt lat="47.52843" lon="6.70583">
        <ele>389.4</ele>
        <time>2017-01-15T09:21:39.000Z</time>
      </trkpt>
      <trkpt lat="47.52845" lon="6.70581">
        <ele>389.5</ele>
        <time>2017-01-15T09:21:40.000Z</time>
      </trkpt>
      <trkpt lat="47.52846" lon="6.70579">
        <ele>389.6</ele>
        <time>2017-01-15T09:21:41.000Z</time>
      </trkpt>
      <trkpt lat="47.52849" lon="6.70575">
        <ele>389.6</ele>
        <time>2017-01-15T09:21:42.000Z</time>
      </trkpt>
      <trkpt lat="47.5285" lon="6.70571">
        <ele>389.7</ele>
        <time>2017-01-15T09:21:43.000Z</time>
      </trkpt>
      <trkpt lat="47.52851" lon="6.70568">
        <ele>389.6</ele>
        <time>2017-01-15T09:21:44.000Z</time>
      </trkpt>
      <trkpt lat="47.52851" lon="6.70564">
        <ele>389.5</ele>
        <time>2017-01-15T09:21:45.000Z</time>
      </trkpt>
      <trkpt lat="47.52851" lon="6.70558">
        <ele>389.4</ele>
        <time>2017-01-15T09:21:46.000Z</time>
      </trkpt>
      <trkpt lat="47.52851" lon="6.70553">
        <ele>389.4</ele>
        <time>2017-01-15T09:21:47.000Z</time>
      </trkpt>
      <trkpt lat="47.52851" lon="6.70548">
        <ele>389.4</ele>
        <time>2017-01-15T09:21:48.000Z</time>
      </trkpt>
      <trkpt lat="47.52852" lon="6.70542">
        <ele>389.5</ele>
        <time>2017-01-15T09:21:50.000Z</time>
      </trkpt>
      <trkpt lat="47.52852" lon="6.7054">
        <ele>389.6</ele>
        <time>2017-01-15T09:21:51.000Z</time>
      </trkpt>
      <trkpt lat="47.52852" lon="6.70535">
        <ele>389.7</ele>
        <time>2017-01-15T09:21:53.000Z</time>
      </trkpt>
      <trkpt lat="47.52852" lon="6.70532">
        <ele>389.8</ele>
        <time>2017-01-15T09:21:54.000Z</time>
      </trkpt>
      <trkpt lat="47.52851" lon="6.70529">
        <ele>389.8</ele>
        <time>2017-01-15T09:21:55.000Z</time>
      </trkpt>
      <trkpt lat="47.52851" lon="6.70524">
        <ele>389.9</ele>
        <time>2017-01-15T09:21:56.000Z</time>
      </trkpt>
      <trkpt lat="47.5285" lon="6.7052">
        <ele>389.9</ele>
        <time>2017-01-15T09:21:57.000Z</time>
      </trkpt>
      <trkpt lat="47.52849" lon="6.70514">
        <ele>389.9</ele>
        <time>2017-01-15T09:21:58.000Z</time>
      </trkpt>
      <trkpt lat="47.52848" lon="6.7051">
        <ele>390</ele>
        <time>2017-01-15T09:21:59.000Z</time>
      </trkpt>
      <trkpt lat="47.52847" lon="6.70506">
        <ele>390.1</ele>
        <time>2017-01-15T09:22:00.000Z</time>
      </trkpt>
      <trkpt lat="47.52847" lon="6.70501">
        <ele>390.1</ele>
        <time>2017-01-15T09:22:01.000Z</time>
      </trkpt>
      <trkpt lat="47.52845" lon="6.70496">
        <ele>390.1</ele>
        <time>2017-01-15T09:22:02.000Z</time>
      </trkpt>
      <trkpt lat="47.52844" lon="6.70492">
        <ele>390.3</ele>
        <time>2017-01-15T09:22:03.000Z</time>
      </trkpt>
      <trkpt lat="47.52843" lon="6.70488">
        <ele>390.4</ele>
        <time>2017-01-15T09:22:04.000Z</time>
      </trkpt>
      <trkpt lat="47.52841" lon="6.70483">
        <ele>390.8</ele>
        <time>2017-01-15T09:22:06.000Z</time>
      </trkpt>
      <trkpt lat="47.52839" lon="6.7048">
        <ele>390.9</ele>
        <time>2017-01-15T09:22:07.000Z</time>
      </trkpt>
      <trkpt lat="47.52837" lon="6.70476">
        <ele>391</ele>
        <time>2017-01-15T09:22:08.000Z</time>
      </trkpt>
      <trkpt lat="47.52835" lon="6.70474">
        <ele>391.1</ele>
        <time>2017-01-15T09:22:09.000Z</time>
      </trkpt>
      <trkpt lat="47.52833" lon="6.70471">
        <ele>391.2</ele>
        <time>2017-01-15T09:22:10.000Z</time>
      </trkpt>
      <trkpt lat="47.52832" lon="6.70469">
        <ele>391.3</ele>
        <time>2017-01-15T09:22:11.000Z</time>
      </trkpt>
      <trkpt lat="47.5283" lon="6.70466">
        <ele>391.3</ele>
        <time>2017-01-15T09:22:12.000Z</time>
      </trkpt>
      <trkpt lat="47.52828" lon="6.70463">
        <ele>391.3</ele>
        <time>2017-01-15T09:22:13.000Z</time>
      </trkpt>
      <trkpt lat="47.52825" lon="6.70458">
        <ele>391.4</ele>
        <time>2017-01-15T09:22:15.000Z</time>
      </trkpt>
      <trkpt lat="47.52824" lon="6.70455">
        <ele>391.3</ele>
        <time>2017-01-15T09:22:16.000Z</time>
      </trkpt>
      <trkpt lat="47.52822" lon="6.7045">
        <ele>391.3</ele>
        <time>2017-01-15T09:22:18.000Z</time>
      </trkpt>
      <trkpt lat="47.52822" lon="6.70447">
        <ele>391.3</ele>
        <time>2017-01-15T09:22:19.000Z</time>
      </trkpt>
      <trkpt lat="47.52822" lon="6.70441">
        <ele>391.4</ele>
        <time>2017-01-15T09:22:22.000Z</time>
      </trkpt>
      <trkpt lat="47.52821" lon="6.7044">
        <ele>391.5</ele>
        <time>2017-01-15T09:22:23.000Z</time>
      </trkpt>
      <trkpt lat="47.52822" lon="6.70433">
        <ele>391.6</ele>
        <time>2017-01-15T09:22:25.000Z</time>
      </trkpt>
      <trkpt lat="47.52824" lon="6.70431">
        <ele>391.5</ele>
        <time>2017-01-15T09:22:26.000Z</time>
      </trkpt>
      <trkpt lat="47.52828" lon="6.70431">
        <ele>390.9</ele>
        <time>2017-01-15T09:22:32.000Z</time>
      </trkpt>
      <trkpt lat="47.52833" lon="6.70432">
        <ele>390.8</ele>
        <time>2017-01-15T09:22:33.000Z</time>
      </trkpt>
      <trkpt lat="47.52836" lon="6.70432">
        <ele>390.7</ele>
        <time>2017-01-15T09:22:34.000Z</time>
      </trkpt>
      <trkpt lat="47.5284" lon="6.70432">
        <ele>390.6</ele>
        <time>2017-01-15T09:22:35.000Z</time>
      </trkpt>
      <trkpt lat="47.52844" lon="6.70434">
        <ele>390.5</ele>
        <time>2017-01-15T09:22:38.000Z</time>
      </trkpt>
      <trkpt lat="47.52844" lon="6.70434">
        <ele>390.4</ele>
        <time>2017-01-15T09:22:39.000Z</time>
      </trkpt>
      <trkpt lat="47.52847" lon="6.70436">
        <ele>389.8</ele>
        <time>2017-01-15T09:22:43.000Z</time>
      </trkpt>
      <trkpt lat="47.52849" lon="6.70436">
        <ele>389.6</ele>
        <time>2017-01-15T09:22:44.000Z</time>
      </trkpt>
      <trkpt lat="47.52853" lon="6.70438">
        <ele>389.5</ele>
        <time>2017-01-15T09:22:46.000Z</time>
      </trkpt>
      <trkpt lat="47.52854" lon="6.70439">
        <ele>389.5</ele>
        <time>2017-01-15T09:22:47.000Z</time>
      </trkpt>
      <trkpt lat="47.52858" lon="6.7044">
        <ele>389.6</ele>
        <time>2017-01-15T09:22:49.000Z</time>
      </trkpt>
      <trkpt lat="47.5286" lon="6.7044">
        <ele>389.7</ele>
        <time>2017-01-15T09:22:50.000Z</time>
      </trkpt>
      <trkpt lat="47.52864" lon="6.70441">
        <ele>389.7</ele>
        <time>2017-01-15T09:22:52.000Z</time>
      </trkpt>
      <trkpt lat="47.52866" lon="6.70441">
        <ele>389.9</ele>
        <time>2017-01-15T09:22:53.000Z</time>
      </trkpt>
      <trkpt lat="47.52869" lon="6.70443">
        <ele>390.1</ele>
        <time>2017-01-15T09:22:55.000Z</time>
      </trkpt>
      <trkpt lat="47.5287" lon="6.70443">
        <ele>390.3</ele>
        <time>2017-01-15T09:22:56.000Z</time>
      </trkpt>
      <trkpt lat="47.52872" lon="6.70443">
        <ele>390.4</ele>
        <time>2017-01-15T09:22:57.000Z</time>
      </trkpt>
      <trkpt lat="47.52877" lon="6.70442">
        <ele>390.5</ele>
        <time>2017-01-15T09:22:58.000Z</time>
      </trkpt>
      <trkpt lat="47.52881" lon="6.70442">
        <ele>390.6</ele>
        <time>2017-01-15T09:23:00.000Z</time>
      </trkpt>
      <trkpt lat="47.52883" lon="6.70442">
        <ele>390.6</ele>
        <time>2017-01-15T09:23:01.000Z</time>
      </trkpt>
      <trkpt lat="47.52886" lon="6.70442">
        <ele>390.8</ele>
        <time>2017-01-15T09:23:03.000Z</time>
      </trkpt>
      <trkpt lat="47.52887" lon="6.70442">
        <ele>390.9</ele>
        <time>2017-01-15T09:23:04.000Z</time>
      </trkpt>
      <trkpt lat="47.52891" lon="6.70442">
        <ele>390.9</ele>
        <time>2017-01-15T09:23:06.000Z</time>
      </trkpt>
      <trkpt lat="47.52892" lon="6.70443">
        <ele>391</ele>
        <time>2017-01-15T09:23:07.000Z</time>
      </trkpt>
      <trkpt lat="47.52895" lon="6.70443">
        <ele>391.1</ele>
        <time>2017-01-15T09:23:09.000Z</time>
      </trkpt>
      <trkpt lat="47.52897" lon="6.70444">
        <ele>391.2</ele>
        <time>2017-01-15T09:23:10.000Z</time>
      </trkpt>
      <trkpt lat="47.52901" lon="6.70445">
        <ele>391.7</ele>
        <time>2017-01-15T09:23:12.000Z</time>
      </trkpt>
      <trkpt lat="47.52902" lon="6.70445">
        <ele>391.8</ele>
        <time>2017-01-15T09:23:13.000Z</time>
      </trkpt>
      <trkpt lat="47.52906" lon="6.70447">
        <ele>392.1</ele>
        <time>2017-01-15T09:23:16.000Z</time>
      </trkpt>
      <trkpt lat="47.52907" lon="6.70447">
        <ele>392.2</ele>
        <time>2017-01-15T09:23:17.000Z</time>
      </trkpt>
      <trkpt lat="47.5291" lon="6.70446">
        <ele>392.3</ele>
        <time>2017-01-15T09:23:21.000Z</time>
      </trkpt>
      <trkpt lat="47.52912" lon="6.70446">
        <ele>392.3</ele>
        <time>2017-01-15T09:23:22.000Z</time>
      </trkpt>
      <trkpt lat="47.52913" lon="6.70446">
        <ele>392.2</ele>
        <time>2017-01-15T09:23:23.000Z</time>
      </trkpt>
      <trkpt lat="47.52917" lon="6.70445">
        <ele>392.2</ele>
        <time>2017-01-15T09:23:24.000Z</time>
      </trkpt>
      <trkpt lat="47.52921" lon="6.70445">
        <ele>391.8</ele>
        <time>2017-01-15T09:23:26.000Z</time>
      </trkpt>
      <trkpt lat="47.52923" lon="6.70444">
        <ele>391.6</ele>
        <time>2017-01-15T09:23:27.000Z</time>
      </trkpt>
      <trkpt lat="47.52926" lon="6.70444">
        <ele>391.5</ele>
        <time>2017-01-15T09:23:28.000Z</time>
      </trkpt>
      <trkpt lat="47.52928" lon="6.70444">
        <ele>391.2</ele>
        <time>2017-01-15T09:23:29.000Z</time>
      </trkpt>
      <trkpt lat="47.52932" lon="6.70446">
        <ele>390.7</ele>
        <time>2017-01-15T09:23:31.000Z</time>
      </trkpt>
      <trkpt lat="47.52934" lon="6.70445">
        <ele>390.6</ele>
        <time>2017-01-15T09:23:32.000Z</time>
      </trkpt>
      <trkpt lat="47.52937" lon="6.70446">
        <ele>390.4</ele>
        <time>2017-01-15T09:23:34.000Z</time>
      </trkpt>
      <trkpt lat="47.52938" lon="6.70447">
        <ele>390.3</ele>
        <time>2017-01-15T09:23:35.000Z</time>
      </trkpt>
      <trkpt lat="47.52942" lon="6.70448">
        <ele>390.3</ele>
        <time>2017-01-15T09:23:36.000Z</time>
      </trkpt>
      <trkpt lat="47.52944" lon="6.70449">
        <ele>390.2</ele>
        <time>2017-01-15T09:23:37.000Z</time>
      </trkpt>
      <trkpt lat="47.52947" lon="6.70449">
        <ele>390.2</ele>
        <time>2017-01-15T09:23:39.000Z</time>
      </trkpt>
      <trkpt lat="47.52948" lon="6.70449">
        <ele>390.2</ele>
        <time>2017-01-15T09:23:40.000Z</time>
      </trkpt>
      <trkpt lat="47.52953" lon="6.70451">
        <ele>390.5</ele>
        <time>2017-01-15T09:23:45.000Z</time>
      </trkpt>
      <trkpt lat="47.52954" lon="6.70451">
        <ele>390.6</ele>
        <time>2017-01-15T09:23:46.000Z</time>
      </trkpt>
      <trkpt lat="47.52957" lon="6.70452">
        <ele>390.6</ele>
        <time>2017-01-15T09:23:49.000Z</time>
      </trkpt>
      <trkpt lat="47.52959" lon="6.70453">
        <ele>390.7</ele>
        <time>2017-01-15T09:23:50.000Z</time>
      </trkpt>
      <trkpt lat="47.5296" lon="6.70454">
        <ele>390.9</ele>
        <time>2017-01-15T09:23:51.000Z</time>
      </trkpt>
      <trkpt lat="47.52964" lon="6.70456">
        <ele>391</ele>
        <time>2017-01-15T09:23:52.000Z</time>
      </trkpt>
      <trkpt lat="47.52968" lon="6.70457">
        <ele>391.2</ele>
        <time>2017-01-15T09:23:53.000Z</time>
      </trkpt>
      <trkpt lat="47.5297" lon="6.70458">
        <ele>391.4</ele>
        <time>2017-01-15T09:23:54.000Z</time>
      </trkpt>
      <trkpt lat="47.52974" lon="6.70459">
        <ele>391.8</ele>
        <time>2017-01-15T09:23:57.000Z</time>
      </trkpt>
      <trkpt lat="47.52976" lon="6.70459">
        <ele>391.8</ele>
        <time>2017-01-15T09:23:58.000Z</time>
      </trkpt>
      <trkpt lat="47.52979" lon="6.70462">
        <ele>392.6</ele>
        <time>2017-01-15T09:24:03.000Z</time>
      </trkpt>
      <trkpt lat="47.5298" lon="6.70463">
        <ele>392.8</ele>
        <time>2017-01-15T09:24:04.000Z</time>
      </trkpt>
      <trkpt lat="47.52984" lon="6.70464">
        <ele>393.8</ele>
        <time>2017-01-15T09:24:08.000Z</time>
      </trkpt>
      <trkpt lat="47.52985" lon="6.70465">
        <ele>394</ele>
        <time>2017-01-15T09:24:09.000Z</time>
      </trkpt>
      <trkpt lat="47.52987" lon="6.70467">
        <ele>394.6</ele>
        <time>2017-01-15T09:24:11.000Z</time>
      </trkpt>
      <trkpt lat="47.52992" lon="6.70468">
        <ele>394.8</ele>
        <time>2017-01-15T09:24:12.000Z</time>
      </trkpt>
      <trkpt lat="47.52995" lon="6.70468">
        <ele>395.2</ele>
        <time>2017-01-15T09:24:15.000Z</time>
      </trkpt>
      <trkpt lat="47.52997" lon="6.70468">
        <ele>395.4</ele>
        <time>2017-01-15T09:24:16.000Z</time>
      </trkpt>
      <trkpt lat="47.53001" lon="6.70469">
        <ele>395.8</ele>
        <time>2017-01-15T09:24:20.000Z</time>
      </trkpt>
      <trkpt lat="47.53002" lon="6.70469">
        <ele>395.9</ele>
        <time>2017-01-15T09:24:21.000Z</time>
      </trkpt>
      <trkpt lat="47.53005" lon="6.70471">
        <ele>396.8</ele>
        <time>2017-01-15T09:24:26.000Z</time>
      </trkpt>
      <trkpt lat="47.53006" lon="6.70472">
        <ele>397.1</ele>
        <time>2017-01-15T09:24:27.000Z</time>
      </trkpt>
      <trkpt lat="47.53009" lon="6.70476">
        <ele>399.3</ele>
        <time>2017-01-15T09:24:38.000Z</time>
      </trkpt>
      <trkpt lat="47.5301" lon="6.70477">
        <ele>399.3</ele>
        <time>2017-01-15T09:24:39.000Z</time>
      </trkpt>
      <trkpt lat="47.53014" lon="6.70479">
        <ele>400.6</ele>
        <time>2017-01-15T09:24:45.000Z</time>
      </trkpt>
      <trkpt lat="47.53014" lon="6.70479">
        <ele>400.8</ele>
        <time>2017-01-15T09:24:46.000Z</time>
      </trkpt>
      <trkpt lat="47.53019" lon="6.70479">
        <ele>401.1</ele>
        <time>2017-01-15T09:24:48.000Z</time>
      </trkpt>
      <trkpt lat="47.5302" lon="6.70479">
        <ele>401.2</ele>
        <time>2017-01-15T09:24:49.000Z</time>
      </trkpt>
      <trkpt lat="47.53023" lon="6.70479">
        <ele>401.2</ele>
        <time>2017-01-15T09:24:50.000Z</time>
      </trkpt>
      <trkpt lat="47.53025" lon="6.70479">
        <ele>401.2</ele>
        <time>2017-01-15T09:24:51.000Z</time>
      </trkpt>
      <trkpt lat="47.53029" lon="6.7048">
        <ele>401.3</ele>
        <time>2017-01-15T09:24:56.000Z</time>
      </trkpt>
      <trkpt lat="47.5303" lon="6.70481">
        <ele>401.5</ele>
        <time>2017-01-15T09:24:57.000Z</time>
      </trkpt>
      <trkpt lat="47.53033" lon="6.70482">
        <ele>402.2</ele>
        <time>2017-01-15T09:25:01.000Z</time>
      </trkpt>
      <trkpt lat="47.53035" lon="6.70483">
        <ele>402.3</ele>
        <time>2017-01-15T09:25:02.000Z</time>
      </trkpt>
      <trkpt lat="47.53038" lon="6.70484">
        <ele>403.1</ele>
        <time>2017-01-15T09:25:06.000Z</time>
      </trkpt>
      <trkpt lat="47.53039" lon="6.70485">
        <ele>403.3</ele>
        <time>2017-01-15T09:25:07.000Z</time>
      </trkpt>
      <trkpt lat="47.53043" lon="6.70487">
        <ele>404.2</ele>
        <time>2017-01-15T09:25:11.000Z</time>
      </trkpt>
      <trkpt lat="47.53043" lon="6.70487">
        <ele>404.3</ele>
        <time>2017-01-15T09:25:12.000Z</time>
      </trkpt>
      <trkpt lat="47.53047" lon="6.70487">
        <ele>405.6</ele>
        <time>2017-01-15T09:25:18.000Z</time>
      </trkpt>
      <trkpt lat="47.53048" lon="6.70487">
        <ele>405.8</ele>
        <time>2017-01-15T09:25:19.000Z</time>
      </trkpt>
      <trkpt lat="47.53052" lon="6.70488">
        <ele>406.3</ele>
        <time>2017-01-15T09:25:22.000Z</time>
      </trkpt>
      <trkpt lat="47.53053" lon="6.70489">
        <ele>406.5</ele>
        <time>2017-01-15T09:25:23.000Z</time>
      </trkpt>
      <trkpt lat="47.53057" lon="6.7049">
        <ele>406.9</ele>
        <time>2017-01-15T09:25:27.000Z</time>
      </trkpt>
      <trkpt lat="47.53058" lon="6.7049">
        <ele>407</ele>
        <time>2017-01-15T09:25:28.000Z</time>
      </trkpt>
      <trkpt lat="47.53063" lon="6.70489">
        <ele>408</ele>
        <time>2017-01-15T09:25:32.000Z</time>
      </trkpt>
      <trkpt lat="47.53063" lon="6.7049">
        <ele>408.2</ele>
        <time>2017-01-15T09:25:33.000Z</time>
      </trkpt>
      <trkpt lat="47.53067" lon="6.7049">
        <ele>408.7</ele>
        <time>2017-01-15T09:25:36.000Z</time>
      </trkpt>
      <trkpt lat="47.53068" lon="6.70491">
        <ele>408.8</ele>
        <time>2017-01-15T09:25:37.000Z</time>
      </trkpt>
      <trkpt lat="47.53071" lon="6.70494">
        <ele>409.7</ele>
        <time>2017-01-15T09:25:43.000Z</time>
      </trkpt>
      <trkpt lat="47.53071" lon="6.70495">
        <ele>410.1</ele>
        <time>2017-01-15T09:25:44.000Z</time>
      </trkpt>
      <trkpt lat="47.53075" lon="6.70497">
        <ele>412.8</ele>
        <time>2017-01-15T09:25:53.000Z</time>
      </trkpt>
      <trkpt lat="47.53075" lon="6.70497">
        <ele>413.1</ele>
        <time>2017-01-15T09:25:54.000Z</time>
      </trkpt>
      <trkpt lat="47.53079" lon="6.70496">
        <ele>414.2</ele>
        <time>2017-01-15T09:26:05.000Z</time>
      </trkpt>
      <trkpt lat="47.5308" lon="6.70496">
        <ele>414.2</ele>
        <time>2017-01-15T09:26:06.000Z</time>
      </trkpt>
      <trkpt lat="47.53085" lon="6.70496">
        <ele>415.8</ele>
        <time>2017-01-15T09:26:13.000Z</time>
      </trkpt>
      <trkpt lat="47.53085" lon="6.70496">
        <ele>415.8</ele>
        <time>2017-01-15T09:26:14.000Z</time>
      </trkpt>
      <trkpt lat="47.53087" lon="6.70491">
        <ele>416.6</ele>
        <time>2017-01-15T09:26:19.000Z</time>
      </trkpt>
      <trkpt lat="47.53087" lon="6.7049">
        <ele>417.1</ele>
        <time>2017-01-15T09:26:20.000Z</time>
      </trkpt>
      <trkpt lat="47.53083" lon="6.70486">
        <ele>418.4</ele>
        <time>2017-01-15T09:26:26.000Z</time>
      </trkpt>
      <trkpt lat="47.53083" lon="6.70486">
        <ele>418.6</ele>
        <time>2017-01-15T09:26:27.000Z</time>
      </trkpt>
      <trkpt lat="47.53086" lon="6.70483">
        <ele>418.5</ele>
        <time>2017-01-15T09:26:38.000Z</time>
      </trkpt>
      <trkpt lat="47.53089" lon="6.70483">
        <ele>418.5</ele>
        <time>2017-01-15T09:26:39.000Z</time>
      </trkpt>
      <trkpt lat="47.53091" lon="6.70482">
        <ele>418.5</ele>
        <time>2017-01-15T09:26:40.000Z</time>
      </trkpt>
      <trkpt lat="47.53094" lon="6.70482">
        <ele>418.4</ele>
        <time>2017-01-15T09:26:41.000Z</time>
      </trkpt>
      <trkpt lat="47.53095" lon="6.70483">
        <ele>418.4</ele>
        <time>2017-01-15T09:26:42.000Z</time>
      </trkpt>
      <trkpt lat="47.53098" lon="6.70483">
        <ele>418.3</ele>
        <time>2017-01-15T09:26:43.000Z</time>
      </trkpt>
      <trkpt lat="47.53101" lon="6.70482">
        <ele>418.2</ele>
        <time>2017-01-15T09:26:44.000Z</time>
      </trkpt>
      <trkpt lat="47.53103" lon="6.70482">
        <ele>418.1</ele>
        <time>2017-01-15T09:26:45.000Z</time>
      </trkpt>
      <trkpt lat="47.53106" lon="6.70479">
        <ele>417.6</ele>
        <time>2017-01-15T09:26:48.000Z</time>
      </trkpt>
      <trkpt lat="47.53108" lon="6.70477">
        <ele>417.4</ele>
        <time>2017-01-15T09:26:49.000Z</time>
      </trkpt>
      <trkpt lat="47.53111" lon="6.70474">
        <ele>416.8</ele>
        <time>2017-01-15T09:26:52.000Z</time>
      </trkpt>
      <trkpt lat="47.53113" lon="6.70472">
        <ele>416.5</ele>
        <time>2017-01-15T09:26:53.000Z</time>
      </trkpt>
      <trkpt lat="47.53117" lon="6.70469">
        <ele>416</ele>
        <time>2017-01-15T09:26:55.000Z</time>
      </trkpt>
      <trkpt lat="47.53119" lon="6.70468">
        <ele>415.9</ele>
        <time>2017-01-15T09:26:56.000Z</time>
      </trkpt>
      <trkpt lat="47.53123" lon="6.70465">
        <ele>415.7</ele>
        <time>2017-01-15T09:27:00.000Z</time>
      </trkpt>
      <trkpt lat="47.53123" lon="6.70464">
        <ele>415.6</ele>
        <time>2017-01-15T09:27:01.000Z</time>
      </trkpt>
      <trkpt lat="47.53126" lon="6.70462">
        <ele>415.6</ele>
        <time>2017-01-15T09:27:04.000Z</time>
      </trkpt>
      <trkpt lat="47.53127" lon="6.7046">
        <ele>415.7</ele>
        <time>2017-01-15T09:27:05.000Z</time>
      </trkpt>
      <trkpt lat="47.53129" lon="6.70454">
        <ele>416.6</ele>
        <time>2017-01-15T09:27:09.000Z</time>
      </trkpt>
      <trkpt lat="47.5313" lon="6.70452">
        <ele>416.8</ele>
        <time>2017-01-15T09:27:10.000Z</time>
      </trkpt>
      <trkpt lat="47.53131" lon="6.7045">
        <ele>417</ele>
        <time>2017-01-15T09:27:11.000Z</time>
      </trkpt>
      <trkpt lat="47.53133" lon="6.70447">
        <ele>417.2</ele>
        <time>2017-01-15T09:27:12.000Z</time>
      </trkpt>
      <trkpt lat="47.53137" lon="6.70445">
        <ele>417.8</ele>
        <time>2017-01-15T09:27:14.000Z</time>
      </trkpt>
      <trkpt lat="47.53139" lon="6.70444">
        <ele>418.1</ele>
        <time>2017-01-15T09:27:15.000Z</time>
      </trkpt>
      <trkpt lat="47.53141" lon="6.70441">
        <ele>419</ele>
        <time>2017-01-15T09:27:17.000Z</time>
      </trkpt>
      <trkpt lat="47.53142" lon="6.70439">
        <ele>419.6</ele>
        <time>2017-01-15T09:27:18.000Z</time>
      </trkpt>
      <trkpt lat="47.53145" lon="6.70436">
        <ele>420.4</ele>
        <time>2017-01-15T09:27:20.000Z</time>
      </trkpt>
      <trkpt lat="47.53147" lon="6.70434">
        <ele>420.7</ele>
        <time>2017-01-15T09:27:21.000Z</time>
      </trkpt>
      <trkpt lat="47.5315" lon="6.70432">
        <ele>421</ele>
        <time>2017-01-15T09:27:23.000Z</time>
      </trkpt>
      <trkpt lat="47.53151" lon="6.70431">
        <ele>421.4</ele>
        <time>2017-01-15T09:27:24.000Z</time>
      </trkpt>
      <trkpt lat="47.53154" lon="6.70429">
        <ele>422</ele>
        <time>2017-01-15T09:27:26.000Z</time>
      </trkpt>
      <trkpt lat="47.53156" lon="6.70428">
        <ele>422.3</ele>
        <time>2017-01-15T09:27:27.000Z</time>
      </trkpt>
      <trkpt lat="47.53159" lon="6.70426">
        <ele>422.7</ele>
        <time>2017-01-15T09:27:29.000Z</time>
      </trkpt>
      <trkpt lat="47.53161" lon="6.70424">
        <ele>423</ele>
        <time>2017-01-15T09:27:30.000Z</time>
      </trkpt>
      <trkpt lat="47.53163" lon="6.70421">
        <ele>424</ele>
        <time>2017-01-15T09:27:33.000Z</time>
      </trkpt>
      <trkpt lat="47.53167" lon="6.70416">
        <ele>424.3</ele>
        <time>2017-01-15T09:27:34.000Z</time>
      </trkpt>
      <trkpt lat="47.53171" lon="6.70412">
        <ele>424.9</ele>
        <time>2017-01-15T09:27:37.000Z</time>
      </trkpt>
      <trkpt lat="47.53171" lon="6.70412">
        <ele>425.1</ele>
        <time>2017-01-15T09:27:38.000Z</time>
      </trkpt>
      <trkpt lat="47.53175" lon="6.70409">
        <ele>425.7</ele>
        <time>2017-01-15T09:27:42.000Z</time>
      </trkpt>
      <trkpt lat="47.53176" lon="6.70409">
        <ele>425.7</ele>
        <time>2017-01-15T09:27:43.000Z</time>
      </trkpt>
      <trkpt lat="47.5318" lon="6.70409">
        <ele>426</ele>
        <time>2017-01-15T09:27:45.000Z</time>
      </trkpt>
      <trkpt lat="47.53182" lon="6.70409">
        <ele>426.1</ele>
        <time>2017-01-15T09:27:46.000Z</time>
      </trkpt>
      <trkpt lat="47.53185" lon="6.70407">
        <ele>426.5</ele>
        <time>2017-01-15T09:27:48.000Z</time>
      </trkpt>
      <trkpt lat="47.53186" lon="6.70406">
        <ele>426.7</ele>
        <time>2017-01-15T09:27:49.000Z</time>
      </trkpt>
      <trkpt lat="47.5319" lon="6.70405">
        <ele>426.9</ele>
        <time>2017-01-15T09:27:52.000Z</time>
      </trkpt>
      <trkpt lat="47.53191" lon="6.70404">
        <ele>426.9</ele>
        <time>2017-01-15T09:27:53.000Z</time>
      </trkpt>
      <trkpt lat="47.53194" lon="6.70401">
        <ele>427</ele>
        <time>2017-01-15T09:27:57.000Z</time>
      </trkpt>
      <trkpt lat="47.53195" lon="6.70401">
        <ele>426.9</ele>
        <time>2017-01-15T09:27:58.000Z</time>
      </trkpt>
      <trkpt lat="47.53198" lon="6.704">
        <ele>426.8</ele>
        <time>2017-01-15T09:28:01.000Z</time>
      </trkpt>
      <trkpt lat="47.532" lon="6.704">
        <ele>426.8</ele>
        <time>2017-01-15T09:28:02.000Z</time>
      </trkpt>
      <trkpt lat="47.53203" lon="6.70398">
        <ele>427.4</ele>
        <time>2017-01-15T09:28:06.000Z</time>
      </trkpt>
      <trkpt lat="47.53204" lon="6.70398">
        <ele>427.4</ele>
        <time>2017-01-15T09:28:07.000Z</time>
      </trkpt>
      <trkpt lat="47.53209" lon="6.70396">
        <ele>427.5</ele>
        <time>2017-01-15T09:28:10.000Z</time>
      </trkpt>
      <trkpt lat="47.5321" lon="6.70395">
        <ele>427.5</ele>
        <time>2017-01-15T09:28:11.000Z</time>
      </trkpt>
      <trkpt lat="47.53214" lon="6.70393">
        <ele>427.5</ele>
        <time>2017-01-15T09:28:14.000Z</time>
      </trkpt>
      <trkpt lat="47.53215" lon="6.70392">
        <ele>427.5</ele>
        <time>2017-01-15T09:28:15.000Z</time>
      </trkpt>
      <trkpt lat="47.53219" lon="6.70389">
        <ele>428</ele>
        <time>2017-01-15T09:28:18.000Z</time>
      </trkpt>
      <trkpt lat="47.53221" lon="6.70388">
        <ele>428</ele>
        <time>2017-01-15T09:28:19.000Z</time>
      </trkpt>
      <trkpt lat="47.53223" lon="6.70388">
        <ele>428.1</ele>
        <time>2017-01-15T09:28:20.000Z</time>
      </trkpt>
      <trkpt lat="47.53225" lon="6.70387">
        <ele>428.2</ele>
        <time>2017-01-15T09:28:21.000Z</time>
      </trkpt>
      <trkpt lat="47.53229" lon="6.70384">
        <ele>428.3</ele>
        <time>2017-01-15T09:28:23.000Z</time>
      </trkpt>
      <trkpt lat="47.53231" lon="6.70383">
        <ele>428.5</ele>
        <time>2017-01-15T09:28:24.000Z</time>
      </trkpt>
      <trkpt lat="47.53235" lon="6.70381">
        <ele>428.6</ele>
        <time>2017-01-15T09:28:26.000Z</time>
      </trkpt>
      <trkpt lat="47.53237" lon="6.70381">
        <ele>428.7</ele>
        <time>2017-01-15T09:28:27.000Z</time>
      </trkpt>
      <trkpt lat="47.53241" lon="6.70379">
        <ele>429.1</ele>
        <time>2017-01-15T09:28:30.000Z</time>
      </trkpt>
      <trkpt lat="47.53242" lon="6.70378">
        <ele>429.2</ele>
        <time>2017-01-15T09:28:31.000Z</time>
      </trkpt>
      <trkpt lat="47.53246" lon="6.70376">
        <ele>429.2</ele>
        <time>2017-01-15T09:28:34.000Z</time>
      </trkpt>
      <trkpt lat="47.53247" lon="6.70376">
        <ele>429.1</ele>
        <time>2017-01-15T09:28:35.000Z</time>
      </trkpt>
      <trkpt lat="47.53252" lon="6.70375">
        <ele>429</ele>
        <time>2017-01-15T09:28:39.000Z</time>
      </trkpt>
      <trkpt lat="47.53253" lon="6.70376">
        <ele>428.9</ele>
        <time>2017-01-15T09:28:40.000Z</time>
      </trkpt>
      <trkpt lat="47.53256" lon="6.70376">
        <ele>428.8</ele>
        <time>2017-01-15T09:28:41.000Z</time>
      </trkpt>
      <trkpt lat="47.53258" lon="6.70376">
        <ele>428.7</ele>
        <time>2017-01-15T09:28:42.000Z</time>
      </trkpt>
      <trkpt lat="47.53262" lon="6.70374">
        <ele>428.4</ele>
        <time>2017-01-15T09:28:44.000Z</time>
      </trkpt>
      <trkpt lat="47.53263" lon="6.70373">
        <ele>428.3</ele>
        <time>2017-01-15T09:28:45.000Z</time>
      </trkpt>
      <trkpt lat="47.53267" lon="6.70372">
        <ele>427.8</ele>
        <time>2017-01-15T09:28:48.000Z</time>
      </trkpt>
      <trkpt lat="47.5327" lon="6.70371">
        <ele>427.7</ele>
        <time>2017-01-15T09:28:49.000Z</time>
      </trkpt>
      <trkpt lat="47.53272" lon="6.7037">
        <ele>427.5</ele>
        <time>2017-01-15T09:28:50.000Z</time>
      </trkpt>
      <trkpt lat="47.53275" lon="6.70369">
        <ele>427.4</ele>
        <time>2017-01-15T09:28:51.000Z</time>
      </trkpt>
      <trkpt lat="47.53279" lon="6.70367">
        <ele>427.3</ele>
        <time>2017-01-15T09:28:52.000Z</time>
      </trkpt>
      <trkpt lat="47.53282" lon="6.70366">
        <ele>427.2</ele>
        <time>2017-01-15T09:28:53.000Z</time>
      </trkpt>
      <trkpt lat="47.53285" lon="6.70364">
        <ele>426.8</ele>
        <time>2017-01-15T09:28:55.000Z</time>
      </trkpt>
      <trkpt lat="47.53287" lon="6.70363">
        <ele>426.7</ele>
        <time>2017-01-15T09:28:56.000Z</time>
      </trkpt>
      <trkpt lat="47.5329" lon="6.70361">
        <ele>426.4</ele>
        <time>2017-01-15T09:28:58.000Z</time>
      </trkpt>
      <trkpt lat="47.53291" lon="6.7036">
        <ele>426.3</ele>
        <time>2017-01-15T09:28:59.000Z</time>
      </trkpt>
      <trkpt lat="47.53293" lon="6.70359">
        <ele>426.3</ele>
        <time>2017-01-15T09:29:00.000Z</time>
      </trkpt>
      <trkpt lat="47.53296" lon="6.70356">
        <ele>426.1</ele>
        <time>2017-01-15T09:29:01.000Z</time>
      </trkpt>
      <trkpt lat="47.533" lon="6.70355">
        <ele>426</ele>
        <time>2017-01-15T09:29:03.000Z</time>
      </trkpt>
      <trkpt lat="47.53301" lon="6.70354">
        <ele>425.9</ele>
        <time>2017-01-15T09:29:04.000Z</time>
      </trkpt>
      <trkpt lat="47.53303" lon="6.70349">
        <ele>425.9</ele>
        <time>2017-01-15T09:29:14.000Z</time>
      </trkpt>
      <trkpt lat="47.53303" lon="6.70348">
        <ele>426</ele>
        <time>2017-01-15T09:29:15.000Z</time>
      </trkpt>
      <trkpt lat="47.53302" lon="6.70343">
        <ele>427</ele>
        <time>2017-01-15T09:29:18.000Z</time>
      </trkpt>
      <trkpt lat="47.53299" lon="6.70342">
        <ele>427.4</ele>
        <time>2017-01-15T09:29:19.000Z</time>
      </trkpt>
      <trkpt lat="47.53296" lon="6.70341">
        <ele>428.4</ele>
        <time>2017-01-15T09:29:21.000Z</time>
      </trkpt>
      <trkpt lat="47.53294" lon="6.70341">
        <ele>428.5</ele>
        <time>2017-01-15T09:29:22.000Z</time>
      </trkpt>
      <trkpt lat="47.5329" lon="6.70342">
        <ele>428.6</ele>
        <time>2017-01-15T09:29:24.000Z</time>
      </trkpt>
      <trkpt lat="47.53289" lon="6.70342">
        <ele>428.7</ele>
        <time>2017-01-15T09:29:25.000Z</time>
      </trkpt>
      <trkpt lat="47.53286" lon="6.70339">
        <ele>429.8</ele>
        <time>2017-01-15T09:29:29.000Z</time>
      </trkpt>
      <trkpt lat="47.53285" lon="6.70338">
        <ele>430.6</ele>
        <time>2017-01-15T09:29:30.000Z</time>
      </trkpt>
      <trkpt lat="47.53289" lon="6.70334">
        <ele>430.9</ele>
        <time>2017-01-15T09:29:37.000Z</time>
      </trkpt>
      <trkpt lat="47.53289" lon="6.70332">
        <ele>431</ele>
        <time>2017-01-15T09:29:38.000Z</time>
      </trkpt>
      <trkpt lat="47.53291" lon="6.70327">
        <ele>431.1</ele>
        <time>2017-01-15T09:29:41.000Z</time>
      </trkpt>
      <trkpt lat="47.53291" lon="6.70326">
        <ele>431.2</ele>
        <time>2017-01-15T09:29:42.000Z</time>
      </trkpt>
      <trkpt lat="47.53291" lon="6.7032">
        <ele>432.2</ele>
        <time>2017-01-15T09:29:56.000Z</time>
      </trkpt>
      <trkpt lat="47.53291" lon="6.70318">
        <ele>432.6</ele>
        <time>2017-01-15T09:29:57.000Z</time>
      </trkpt>
      <trkpt lat="47.53291" lon="6.70312">
        <ele>433.3</ele>
        <time>2017-01-15T09:29:59.000Z</time>
      </trkpt>
      <trkpt lat="47.53291" lon="6.70307">
        <ele>433.6</ele>
        <time>2017-01-15T09:30:00.000Z</time>
      </trkpt>
      <trkpt lat="47.53293" lon="6.703">
        <ele>433.9</ele>
        <time>2017-01-15T09:30:01.000Z</time>
      </trkpt>
      <trkpt lat="47.53295" lon="6.70287">
        <ele>434.1</ele>
        <time>2017-01-15T09:30:02.000Z</time>
      </trkpt>
      <trkpt lat="47.53297" lon="6.7028">
        <ele>436.9</ele>
        <time>2017-01-15T09:30:03.000Z</time>
      </trkpt>
      <trkpt lat="47.53298" lon="6.70271">
        <ele>439.4</ele>
        <time>2017-01-15T09:30:04.000Z</time>
      </trkpt>
      <trkpt lat="47.53299" lon="6.70263">
        <ele>441.2</ele>
        <time>2017-01-15T09:30:05.000Z</time>
      </trkpt>
      <trkpt lat="47.533" lon="6.70252">
        <ele>441.8</ele>
        <time>2017-01-15T09:30:06.000Z</time>
      </trkpt>
      <trkpt lat="47.53301" lon="6.70244">
        <ele>441.8</ele>
        <time>2017-01-15T09:30:07.000Z</time>
      </trkpt>
      <trkpt lat="47.53303" lon="6.70235">
        <ele>441.5</ele>
        <time>2017-01-15T09:30:08.000Z</time>
      </trkpt>
      <trkpt lat="47.53304" lon="6.70227">
        <ele>441.3</ele>
        <time>2017-01-15T09:30:09.000Z</time>
      </trkpt>
      <trkpt lat="47.53305" lon="6.70221">
        <ele>441.3</ele>
        <time>2017-01-15T09:30:10.000Z</time>
      </trkpt>
      <trkpt lat="47.53306" lon="6.70216">
        <ele>441.3</ele>
        <time>2017-01-15T09:30:11.000Z</time>
      </trkpt>
      <trkpt lat="47.53308" lon="6.70212">
        <ele>441.2</ele>
        <time>2017-01-15T09:30:12.000Z</time>
      </trkpt>
      <trkpt lat="47.53309" lon="6.70206">
        <ele>441.1</ele>
        <time>2017-01-15T09:30:13.000Z</time>
      </trkpt>
      <trkpt lat="47.53311" lon="6.70199">
        <ele>441</ele>
        <time>2017-01-15T09:30:14.000Z</time>
      </trkpt>
      <trkpt lat="47.53312" lon="6.7019">
        <ele>440.1</ele>
        <time>2017-01-15T09:30:15.000Z</time>
      </trkpt>
      <trkpt lat="47.53312" lon="6.70181">
        <ele>438.3</ele>
        <time>2017-01-15T09:30:16.000Z</time>
      </trkpt>
      <trkpt lat="47.53313" lon="6.70174">
        <ele>438.1</ele>
        <time>2017-01-15T09:30:17.000Z</time>
      </trkpt>
      <trkpt lat="47.53315" lon="6.70165">
        <ele>437.9</ele>
        <time>2017-01-15T09:30:18.000Z</time>
      </trkpt>
      <trkpt lat="47.53314" lon="6.70159">
        <ele>437.7</ele>
        <time>2017-01-15T09:30:19.000Z</time>
      </trkpt>
      <trkpt lat="47.53314" lon="6.70154">
        <ele>437.5</ele>
        <time>2017-01-15T09:30:20.000Z</time>
      </trkpt>
      <trkpt lat="47.53314" lon="6.70149">
        <ele>437.1</ele>
        <time>2017-01-15T09:30:21.000Z</time>
      </trkpt>
      <trkpt lat="47.53316" lon="6.70145">
        <ele>436.7</ele>
        <time>2017-01-15T09:30:22.000Z</time>
      </trkpt>
      <trkpt lat="47.53316" lon="6.70141">
        <ele>436.2</ele>
        <time>2017-01-15T09:30:23.000Z</time>
      </trkpt>
      <trkpt lat="47.53316" lon="6.70135">
        <ele>435.8</ele>
        <time>2017-01-15T09:30:24.000Z</time>
      </trkpt>
      <trkpt lat="47.53317" lon="6.70129">
        <ele>435.3</ele>
        <time>2017-01-15T09:30:25.000Z</time>
      </trkpt>
      <trkpt lat="47.53318" lon="6.70123">
        <ele>434.8</ele>
        <time>2017-01-15T09:30:26.000Z</time>
      </trkpt>
      <trkpt lat="47.53319" lon="6.70118">
        <ele>434.4</ele>
        <time>2017-01-15T09:30:27.000Z</time>
      </trkpt>
      <trkpt lat="47.5332" lon="6.70114">
        <ele>433.8</ele>
        <time>2017-01-15T09:30:28.000Z</time>
      </trkpt>
      <trkpt lat="47.5332" lon="6.70111">
        <ele>433.4</ele>
        <time>2017-01-15T09:30:29.000Z</time>
      </trkpt>
      <trkpt lat="47.5332" lon="6.70107">
        <ele>433</ele>
        <time>2017-01-15T09:30:30.000Z</time>
      </trkpt>
      <trkpt lat="47.53319" lon="6.70101">
        <ele>432.5</ele>
        <time>2017-01-15T09:30:31.000Z</time>
      </trkpt>
      <trkpt lat="47.53319" lon="6.70099">
        <ele>431.9</ele>
        <time>2017-01-15T09:30:32.000Z</time>
      </trkpt>
      <trkpt lat="47.53319" lon="6.70093">
        <ele>431.4</ele>
        <time>2017-01-15T09:30:33.000Z</time>
      </trkpt>
      <trkpt lat="47.53319" lon="6.70088">
        <ele>430.9</ele>
        <time>2017-01-15T09:30:34.000Z</time>
      </trkpt>
      <trkpt lat="47.53319" lon="6.70084">
        <ele>430.3</ele>
        <time>2017-01-15T09:30:35.000Z</time>
      </trkpt>
      <trkpt lat="47.53319" lon="6.7008">
        <ele>429.8</ele>
        <time>2017-01-15T09:30:36.000Z</time>
      </trkpt>
      <trkpt lat="47.5332" lon="6.70074">
        <ele>429.3</ele>
        <time>2017-01-15T09:30:37.000Z</time>
      </trkpt>
      <trkpt lat="47.5332" lon="6.70069">
        <ele>428.9</ele>
        <time>2017-01-15T09:30:38.000Z</time>
      </trkpt>
      <trkpt lat="47.53318" lon="6.70066">
        <ele>428.5</ele>
        <time>2017-01-15T09:30:39.000Z</time>
      </trkpt>
      <trkpt lat="47.53317" lon="6.70063">
        <ele>428.2</ele>
        <time>2017-01-15T09:30:40.000Z</time>
      </trkpt>
      <trkpt lat="47.53317" lon="6.70059">
        <ele>427.9</ele>
        <time>2017-01-15T09:30:41.000Z</time>
      </trkpt>
      <trkpt lat="47.53316" lon="6.70055">
        <ele>427.6</ele>
        <time>2017-01-15T09:30:42.000Z</time>
      </trkpt>
      <trkpt lat="47.53315" lon="6.70053">
        <ele>427.3</ele>
        <time>2017-01-15T09:30:43.000Z</time>
      </trkpt>
      <trkpt lat="47.53313" lon="6.70049">
        <ele>427.1</ele>
        <time>2017-01-15T09:30:44.000Z</time>
      </trkpt>
      <trkpt lat="47.53311" lon="6.70046">
        <ele>426.8</ele>
        <time>2017-01-15T09:30:45.000Z</time>
      </trkpt>
      <trkpt lat="47.5331" lon="6.70041">
        <ele>426.6</ele>
        <time>2017-01-15T09:30:46.000Z</time>
      </trkpt>
      <trkpt lat="47.53309" lon="6.70035">
        <ele>426.2</ele>
        <time>2017-01-15T09:30:47.000Z</time>
      </trkpt>
      <trkpt lat="47.53307" lon="6.70026">
        <ele>425.6</ele>
        <time>2017-01-15T09:30:48.000Z</time>
      </trkpt>
      <trkpt lat="47.53304" lon="6.70019">
        <ele>425.1</ele>
        <time>2017-01-15T09:30:49.000Z</time>
      </trkpt>
      <trkpt lat="47.53302" lon="6.70011">
        <ele>424.7</ele>
        <time>2017-01-15T09:30:50.000Z</time>
      </trkpt>
      <trkpt lat="47.53299" lon="6.70004">
        <ele>424.3</ele>
        <time>2017-01-15T09:30:51.000Z</time>
      </trkpt>
      <trkpt lat="47.53297" lon="6.69997">
        <ele>424</ele>
        <time>2017-01-15T09:30:52.000Z</time>
      </trkpt>
      <trkpt lat="47.53295" lon="6.69988">
        <ele>423.8</ele>
        <time>2017-01-15T09:30:53.000Z</time>
      </trkpt>
      <trkpt lat="47.53292" lon="6.6998">
        <ele>423.5</ele>
        <time>2017-01-15T09:30:54.000Z</time>
      </trkpt>
      <trkpt lat="47.53291" lon="6.69973">
        <ele>423.2</ele>
        <time>2017-01-15T09:30:55.000Z</time>
      </trkpt>
      <trkpt lat="47.53292" lon="6.69967">
        <ele>422.8</ele>
        <time>2017-01-15T09:30:56.000Z</time>
      </trkpt>
      <trkpt lat="47.53294" lon="6.69962">
        <ele>422.4</ele>
        <time>2017-01-15T09:30:57.000Z</time>
      </trkpt>
      <trkpt lat="47.53296" lon="6.69957">
        <ele>422</ele>
        <time>2017-01-15T09:30:58.000Z</time>
      </trkpt>
      <trkpt lat="47.53298" lon="6.69952">
        <ele>421.6</ele>
        <time>2017-01-15T09:30:59.000Z</time>
      </trkpt>
      <trkpt lat="47.53302" lon="6.69948">
        <ele>421.2</ele>
        <time>2017-01-15T09:31:00.000Z</time>
      </trkpt>
      <trkpt lat="47.53306" lon="6.69944">
        <ele>420.9</ele>
        <time>2017-01-15T09:31:01.000Z</time>
      </trkpt>
      <trkpt lat="47.5331" lon="6.69939">
        <ele>420.4</ele>
        <time>2017-01-15T09:31:02.000Z</time>
      </trkpt>
      <trkpt lat="47.53314" lon="6.69934">
        <ele>419.9</ele>
        <time>2017-01-15T09:31:03.000Z</time>
      </trkpt>
      <trkpt lat="47.53317" lon="6.69931">
        <ele>419.4</ele>
        <time>2017-01-15T09:31:04.000Z</time>
      </trkpt>
      <trkpt lat="47.5332" lon="6.69928">
        <ele>418.9</ele>
        <time>2017-01-15T09:31:05.000Z</time>
      </trkpt>
      <trkpt lat="47.53323" lon="6.69925">
        <ele>418.4</ele>
        <time>2017-01-15T09:31:06.000Z</time>
      </trkpt>
      <trkpt lat="47.53326" lon="6.69922">
        <ele>417.8</ele>
        <time>2017-01-15T09:31:07.000Z</time>
      </trkpt>
      <trkpt lat="47.53329" lon="6.69919">
        <ele>417.1</ele>
        <time>2017-01-15T09:31:08.000Z</time>
      </trkpt>
      <trkpt lat="47.53333" lon="6.69915">
        <ele>416.4</ele>
        <time>2017-01-15T09:31:09.000Z</time>
      </trkpt>
      <trkpt lat="47.53335" lon="6.69911">
        <ele>415.8</ele>
        <time>2017-01-15T09:31:10.000Z</time>
      </trkpt>
      <trkpt lat="47.53337" lon="6.69907">
        <ele>415.2</ele>
        <time>2017-01-15T09:31:11.000Z</time>
      </trkpt>
      <trkpt lat="47.53338" lon="6.69903">
        <ele>414.6</ele>
        <time>2017-01-15T09:31:12.000Z</time>
      </trkpt>
      <trkpt lat="47.53339" lon="6.69899">
        <ele>414</ele>
        <time>2017-01-15T09:31:13.000Z</time>
      </trkpt>
      <trkpt lat="47.5334" lon="6.69895">
        <ele>413.3</ele>
        <time>2017-01-15T09:31:14.000Z</time>
      </trkpt>
      <trkpt lat="47.53341" lon="6.69891">
        <ele>412.8</ele>
        <time>2017-01-15T09:31:15.000Z</time>
      </trkpt>
      <trkpt lat="47.53341" lon="6.69887">
        <ele>412.2</ele>
        <time>2017-01-15T09:31:16.000Z</time>
      </trkpt>
      <trkpt lat="47.53342" lon="6.69883">
        <ele>411.7</ele>
        <time>2017-01-15T09:31:17.000Z</time>
      </trkpt>
      <trkpt lat="47.53342" lon="6.69879">
        <ele>411.3</ele>
        <time>2017-01-15T09:31:18.000Z</time>
      </trkpt>
      <trkpt lat="47.53343" lon="6.69876">
        <ele>411</ele>
        <time>2017-01-15T09:31:19.000Z</time>
      </trkpt>
      <trkpt lat="47.53343" lon="6.69873">
        <ele>410.6</ele>
        <time>2017-01-15T09:31:20.000Z</time>
      </trkpt>
      <trkpt lat="47.53343" lon="6.69868">
        <ele>410.3</ele>
        <time>2017-01-15T09:31:21.000Z</time>
      </trkpt>
      <trkpt lat="47.53344" lon="6.69863">
        <ele>410</ele>
        <time>2017-01-15T09:31:22.000Z</time>
      </trkpt>
      <trkpt lat="47.53345" lon="6.69858">
        <ele>409.6</ele>
        <time>2017-01-15T09:31:23.000Z</time>
      </trkpt>
      <trkpt lat="47.53345" lon="6.69852">
        <ele>409.4</ele>
        <time>2017-01-15T09:31:24.000Z</time>
      </trkpt>
      <trkpt lat="47.53345" lon="6.69846">
        <ele>409.2</ele>
        <time>2017-01-15T09:31:25.000Z</time>
      </trkpt>
      <trkpt lat="47.53345" lon="6.69841">
        <ele>409</ele>
        <time>2017-01-15T09:31:26.000Z</time>
      </trkpt>
      <trkpt lat="47.53344" lon="6.69835">
        <ele>408.8</ele>
        <time>2017-01-15T09:31:27.000Z</time>
      </trkpt>
      <trkpt lat="47.53344" lon="6.6983">
        <ele>408.5</ele>
        <time>2017-01-15T09:31:28.000Z</time>
      </trkpt>
      <trkpt lat="47.53343" lon="6.69825">
        <ele>408.3</ele>
        <time>2017-01-15T09:31:29.000Z</time>
      </trkpt>
      <trkpt lat="47.53342" lon="6.6982">
        <ele>408.1</ele>
        <time>2017-01-15T09:31:30.000Z</time>
      </trkpt>
      <trkpt lat="47.53341" lon="6.69815">
        <ele>407.8</ele>
        <time>2017-01-15T09:31:31.000Z</time>
      </trkpt>
      <trkpt lat="47.53339" lon="6.6981">
        <ele>407.7</ele>
        <time>2017-01-15T09:31:32.000Z</time>
      </trkpt>
      <trkpt lat="47.53337" lon="6.69805">
        <ele>407.5</ele>
        <time>2017-01-15T09:31:33.000Z</time>
      </trkpt>
      <trkpt lat="47.53335" lon="6.69799">
        <ele>407.1</ele>
        <time>2017-01-15T09:31:35.000Z</time>
      </trkpt>
      <trkpt lat="47.53335" lon="6.69797">
        <ele>406.9</ele>
        <time>2017-01-15T09:31:36.000Z</time>
      </trkpt>
      <trkpt lat="47.53334" lon="6.69792">
        <ele>406.6</ele>
        <time>2017-01-15T09:31:38.000Z</time>
      </trkpt>
      <trkpt lat="47.53333" lon="6.69788">
        <ele>406.5</ele>
        <time>2017-01-15T09:31:39.000Z</time>
      </trkpt>
      <trkpt lat="47.53333" lon="6.69784">
        <ele>406.4</ele>
        <time>2017-01-15T09:31:40.000Z</time>
      </trkpt>
      <trkpt lat="47.53332" lon="6.6978">
        <ele>406.2</ele>
        <time>2017-01-15T09:31:41.000Z</time>
      </trkpt>
      <trkpt lat="47.53331" lon="6.69774">
        <ele>406.1</ele>
        <time>2017-01-15T09:31:42.000Z</time>
      </trkpt>
      <trkpt lat="47.5333" lon="6.69768">
        <ele>406</ele>
        <time>2017-01-15T09:31:43.000Z</time>
      </trkpt>
      <trkpt lat="47.53329" lon="6.69763">
        <ele>405.8</ele>
        <time>2017-01-15T09:31:44.000Z</time>
      </trkpt>
      <trkpt lat="47.53328" lon="6.69759">
        <ele>405.7</ele>
        <time>2017-01-15T09:31:45.000Z</time>
      </trkpt>
      <trkpt lat="47.53327" lon="6.69754">
        <ele>405.6</ele>
        <time>2017-01-15T09:31:46.000Z</time>
      </trkpt>
      <trkpt lat="47.53326" lon="6.69749">
        <ele>405.4</ele>
        <time>2017-01-15T09:31:47.000Z</time>
      </trkpt>
      <trkpt lat="47.53325" lon="6.69744">
        <ele>405.3</ele>
        <time>2017-01-15T09:31:48.000Z</time>
      </trkpt>
      <trkpt lat="47.53325" lon="6.6974">
        <ele>405.2</ele>
        <time>2017-01-15T09:31:49.000Z</time>
      </trkpt>
      <trkpt lat="47.53324" lon="6.69736">
        <ele>405.1</ele>
        <time>2017-01-15T09:31:50.000Z</time>
      </trkpt>
      <trkpt lat="47.53323" lon="6.69733">
        <ele>405</ele>
        <time>2017-01-15T09:31:51.000Z</time>
      </trkpt>
      <trkpt lat="47.53323" lon="6.6973">
        <ele>404.8</ele>
        <time>2017-01-15T09:31:52.000Z</time>
      </trkpt>
      <trkpt lat="47.53322" lon="6.69725">
        <ele>404.7</ele>
        <time>2017-01-15T09:31:53.000Z</time>
      </trkpt>
      <trkpt lat="47.53321" lon="6.6972">
        <ele>404.5</ele>
        <time>2017-01-15T09:31:54.000Z</time>
      </trkpt>
      <trkpt lat="47.5332" lon="6.69716">
        <ele>404.4</ele>
        <time>2017-01-15T09:31:55.000Z</time>
      </trkpt>
      <trkpt lat="47.53319" lon="6.69712">
        <ele>404.2</ele>
        <time>2017-01-15T09:31:56.000Z</time>
      </trkpt>
      <trkpt lat="47.53319" lon="6.69708">
        <ele>403.9</ele>
        <time>2017-01-15T09:31:57.000Z</time>
      </trkpt>
      <trkpt lat="47.53319" lon="6.69704">
        <ele>403.7</ele>
        <time>2017-01-15T09:31:58.000Z</time>
      </trkpt>
      <trkpt lat="47.53318" lon="6.697">
        <ele>403.5</ele>
        <time>2017-01-15T09:31:59.000Z</time>
      </trkpt>
      <trkpt lat="47.53318" lon="6.69695">
        <ele>403.4</ele>
        <time>2017-01-15T09:32:00.000Z</time>
      </trkpt>
      <trkpt lat="47.53317" lon="6.6969">
        <ele>403.2</ele>
        <time>2017-01-15T09:32:01.000Z</time>
      </trkpt>
      <trkpt lat="47.53316" lon="6.69687">
        <ele>403.1</ele>
        <time>2017-01-15T09:32:02.000Z</time>
      </trkpt>
      <trkpt lat="47.53315" lon="6.69682">
        <ele>403</ele>
        <time>2017-01-15T09:32:03.000Z</time>
      </trkpt>
      <trkpt lat="47.53315" lon="6.69678">
        <ele>402.9</ele>
        <time>2017-01-15T09:32:04.000Z</time>
      </trkpt>
      <trkpt lat="47.53315" lon="6.69673">
        <ele>402.8</ele>
        <time>2017-01-15T09:32:05.000Z</time>
      </trkpt>
      <trkpt lat="47.53314" lon="6.69669">
        <ele>402.8</ele>
        <time>2017-01-15T09:32:06.000Z</time>
      </trkpt>
      <trkpt lat="47.53314" lon="6.69667">
        <ele>402.7</ele>
        <time>2017-01-15T09:32:07.000Z</time>
      </trkpt>
      <trkpt lat="47.53313" lon="6.69661">
        <ele>402.8</ele>
        <time>2017-01-15T09:32:09.000Z</time>
      </trkpt>
      <trkpt lat="47.53312" lon="6.69657">
        <ele>402.7</ele>
        <time>2017-01-15T09:32:10.000Z</time>
      </trkpt>
      <trkpt lat="47.53311" lon="6.69653">
        <ele>402.7</ele>
        <time>2017-01-15T09:32:11.000Z</time>
      </trkpt>
      <trkpt lat="47.53311" lon="6.69648">
        <ele>402.6</ele>
        <time>2017-01-15T09:32:12.000Z</time>
      </trkpt>
      <trkpt lat="47.5331" lon="6.69643">
        <ele>402.5</ele>
        <time>2017-01-15T09:32:13.000Z</time>
      </trkpt>
      <trkpt lat="47.5331" lon="6.6964">
        <ele>402.5</ele>
        <time>2017-01-15T09:32:14.000Z</time>
      </trkpt>
      <trkpt lat="47.53309" lon="6.69636">
        <ele>402.4</ele>
        <time>2017-01-15T09:32:15.000Z</time>
      </trkpt>
      <trkpt lat="47.53309" lon="6.69632">
        <ele>402.4</ele>
        <time>2017-01-15T09:32:16.000Z</time>
      </trkpt>
      <trkpt lat="47.53308" lon="6.69626">
        <ele>402.3</ele>
        <time>2017-01-15T09:32:18.000Z</time>
      </trkpt>
      <trkpt lat="47.53307" lon="6.69622">
        <ele>402.3</ele>
        <time>2017-01-15T09:32:19.000Z</time>
      </trkpt>
      <trkpt lat="47.53307" lon="6.69618">
        <ele>402.3</ele>
        <time>2017-01-15T09:32:20.000Z</time>
      </trkpt>
      <trkpt lat="47.53307" lon="6.69614">
        <ele>402.3</ele>
        <time>2017-01-15T09:32:21.000Z</time>
      </trkpt>
      <trkpt lat="47.53306" lon="6.6961">
        <ele>402.4</ele>
        <time>2017-01-15T09:32:22.000Z</time>
      </trkpt>
      <trkpt lat="47.53306" lon="6.69606">
        <ele>402.4</ele>
        <time>2017-01-15T09:32:23.000Z</time>
      </trkpt>
      <trkpt lat="47.53305" lon="6.69601">
        <ele>402.4</ele>
        <time>2017-01-15T09:32:24.000Z</time>
      </trkpt>
      <trkpt lat="47.53304" lon="6.69597">
        <ele>402.3</ele>
        <time>2017-01-15T09:32:25.000Z</time>
      </trkpt>
      <trkpt lat="47.53304" lon="6.69593">
        <ele>402.3</ele>
        <time>2017-01-15T09:32:26.000Z</time>
      </trkpt>
      <trkpt lat="47.53303" lon="6.69588">
        <ele>402.2</ele>
        <time>2017-01-15T09:32:27.000Z</time>
      </trkpt>
      <trkpt lat="47.53302" lon="6.69584">
        <ele>402.1</ele>
        <time>2017-01-15T09:32:28.000Z</time>
      </trkpt>
      <trkpt lat="47.53301" lon="6.69579">
        <ele>402</ele>
        <time>2017-01-15T09:32:29.000Z</time>
      </trkpt>
      <trkpt lat="47.533" lon="6.69576">
        <ele>401.9</ele>
        <time>2017-01-15T09:32:30.000Z</time>
      </trkpt>
      <trkpt lat="47.533" lon="6.69571">
        <ele>401.8</ele>
        <time>2017-01-15T09:32:31.000Z</time>
      </trkpt>
      <trkpt lat="47.53299" lon="6.69567">
        <ele>401.7</ele>
        <time>2017-01-15T09:32:32.000Z</time>
      </trkpt>
      <trkpt lat="47.53298" lon="6.69563">
        <ele>401.7</ele>
        <time>2017-01-15T09:32:33.000Z</time>
      </trkpt>
      <trkpt lat="47.53298" lon="6.69559">
        <ele>401.6</ele>
        <time>2017-01-15T09:32:34.000Z</time>
      </trkpt>
      <trkpt lat="47.53297" lon="6.69556">
        <ele>401.5</ele>
        <time>2017-01-15T09:32:35.000Z</time>
      </trkpt>
      <trkpt lat="47.53297" lon="6.69551">
        <ele>401.5</ele>
        <time>2017-01-15T09:32:36.000Z</time>
      </trkpt>
      <trkpt lat="47.53296" lon="6.69548">
        <ele>401.4</ele>
        <time>2017-01-15T09:32:37.000Z</time>
      </trkpt>
      <trkpt lat="47.53296" lon="6.69543">
        <ele>401.2</ele>
        <time>2017-01-15T09:32:38.000Z</time>
      </trkpt>
      <trkpt lat="47.53295" lon="6.6954">
        <ele>401.1</ele>
        <time>2017-01-15T09:32:39.000Z</time>
      </trkpt>
      <trkpt lat="47.53294" lon="6.69534">
        <ele>401</ele>
        <time>2017-01-15T09:32:41.000Z</time>
      </trkpt>
      <trkpt lat="47.53294" lon="6.69531">
        <ele>400.9</ele>
        <time>2017-01-15T09:32:42.000Z</time>
      </trkpt>
      <trkpt lat="47.53291" lon="6.69525">
        <ele>400.6</ele>
        <time>2017-01-15T09:32:45.000Z</time>
      </trkpt>
      <trkpt lat="47.5329" lon="6.69523">
        <ele>400.5</ele>
        <time>2017-01-15T09:32:46.000Z</time>
      </trkpt>
      <trkpt lat="47.53287" lon="6.69521">
        <ele>400.3</ele>
        <time>2017-01-15T09:32:48.000Z</time>
      </trkpt>
      <trkpt lat="47.53285" lon="6.6952">
        <ele>400.2</ele>
        <time>2017-01-15T09:32:49.000Z</time>
      </trkpt>
      <trkpt lat="47.53281" lon="6.6952">
        <ele>400.1</ele>
        <time>2017-01-15T09:32:51.000Z</time>
      </trkpt>
      <trkpt lat="47.53279" lon="6.69521">
        <ele>400</ele>
        <time>2017-01-15T09:32:52.000Z</time>
      </trkpt>
      <trkpt lat="47.53276" lon="6.69521">
        <ele>400</ele>
        <time>2017-01-15T09:32:53.000Z</time>
      </trkpt>
      <trkpt lat="47.53274" lon="6.69522">
        <ele>400</ele>
        <time>2017-01-15T09:32:54.000Z</time>
      </trkpt>
      <trkpt lat="47.53271" lon="6.69522">
        <ele>400</ele>
        <time>2017-01-15T09:32:55.000Z</time>
      </trkpt>
      <trkpt lat="47.53269" lon="6.69522">
        <ele>400.1</ele>
        <time>2017-01-15T09:32:56.000Z</time>
      </trkpt>
      <trkpt lat="47.53266" lon="6.69523">
        <ele>400.1</ele>
        <time>2017-01-15T09:32:57.000Z</time>
      </trkpt>
      <trkpt lat="47.53264" lon="6.69522">
        <ele>400.1</ele>
        <time>2017-01-15T09:32:58.000Z</time>
      </trkpt>
      <trkpt lat="47.5326" lon="6.69522">
        <ele>400</ele>
        <time>2017-01-15T09:33:00.000Z</time>
      </trkpt>
      <trkpt lat="47.53258" lon="6.69522">
        <ele>399.9</ele>
        <time>2017-01-15T09:33:01.000Z</time>
      </trkpt>
      <trkpt lat="47.53254" lon="6.69523">
        <ele>399.9</ele>
        <time>2017-01-15T09:33:03.000Z</time>
      </trkpt>
      <trkpt lat="47.53251" lon="6.69524">
        <ele>399.9</ele>
        <time>2017-01-15T09:33:04.000Z</time>
      </trkpt>
      <trkpt lat="47.53248" lon="6.69524">
        <ele>399.9</ele>
        <time>2017-01-15T09:33:05.000Z</time>
      </trkpt>
      <trkpt lat="47.53245" lon="6.69524">
        <ele>400</ele>
        <time>2017-01-15T09:33:06.000Z</time>
      </trkpt>
      <trkpt lat="47.53242" lon="6.69525">
        <ele>400</ele>
        <time>2017-01-15T09:33:07.000Z</time>
      </trkpt>
      <trkpt lat="47.53239" lon="6.69526">
        <ele>400</ele>
        <time>2017-01-15T09:33:08.000Z</time>
      </trkpt>
      <trkpt lat="47.53237" lon="6.69526">
        <ele>400</ele>
        <time>2017-01-15T09:33:09.000Z</time>
      </trkpt>
      <trkpt lat="47.53235" lon="6.69527">
        <ele>400</ele>
        <time>2017-01-15T09:33:10.000Z</time>
      </trkpt>
      <trkpt lat="47.53232" lon="6.69528">
        <ele>400.1</ele>
        <time>2017-01-15T09:33:11.000Z</time>
      </trkpt>
      <trkpt lat="47.53228" lon="6.69528">
        <ele>400.1</ele>
        <time>2017-01-15T09:33:12.000Z</time>
      </trkpt>
      <trkpt lat="47.53225" lon="6.69528">
        <ele>400.2</ele>
        <time>2017-01-15T09:33:13.000Z</time>
      </trkpt>
      <trkpt lat="47.53222" lon="6.69529">
        <ele>400.3</ele>
        <time>2017-01-15T09:33:14.000Z</time>
      </trkpt>
      <trkpt lat="47.53219" lon="6.69529">
        <ele>400.3</ele>
        <time>2017-01-15T09:33:15.000Z</time>
      </trkpt>
      <trkpt lat="47.53216" lon="6.6953">
        <ele>400.3</ele>
        <time>2017-01-15T09:33:16.000Z</time>
      </trkpt>
      <trkpt lat="47.53213" lon="6.6953">
        <ele>400.3</ele>
        <time>2017-01-15T09:33:17.000Z</time>
      </trkpt>
      <trkpt lat="47.5321" lon="6.69531">
        <ele>400.3</ele>
        <time>2017-01-15T09:33:18.000Z</time>
      </trkpt>
      <trkpt lat="47.53207" lon="6.69531">
        <ele>400.1</ele>
        <time>2017-01-15T09:33:19.000Z</time>
      </trkpt>
      <trkpt lat="47.53204" lon="6.69531">
        <ele>400.1</ele>
        <time>2017-01-15T09:33:20.000Z</time>
      </trkpt>
      <trkpt lat="47.53201" lon="6.69532">
        <ele>400</ele>
        <time>2017-01-15T09:33:21.000Z</time>
      </trkpt>
      <trkpt lat="47.53198" lon="6.69532">
        <ele>400</ele>
        <time>2017-01-15T09:33:22.000Z</time>
      </trkpt>
      <trkpt lat="47.53195" lon="6.69533">
        <ele>400</ele>
        <time>2017-01-15T09:33:23.000Z</time>
      </trkpt>
      <trkpt lat="47.53192" lon="6.69535">
        <ele>400</ele>
        <time>2017-01-15T09:33:24.000Z</time>
      </trkpt>
      <trkpt lat="47.53189" lon="6.69536">
        <ele>400</ele>
        <time>2017-01-15T09:33:25.000Z</time>
      </trkpt>
      <trkpt lat="47.53186" lon="6.69537">
        <ele>400.1</ele>
        <time>2017-01-15T09:33:26.000Z</time>
      </trkpt>
      <trkpt lat="47.53184" lon="6.69538">
        <ele>400.2</ele>
        <time>2017-01-15T09:33:27.000Z</time>
      </trkpt>
      <trkpt lat="47.53181" lon="6.69539">
        <ele>400.2</ele>
        <time>2017-01-15T09:33:28.000Z</time>
      </trkpt>
      <trkpt lat="47.53178" lon="6.6954">
        <ele>400.3</ele>
        <time>2017-01-15T09:33:29.000Z</time>
      </trkpt>
      <trkpt lat="47.53175" lon="6.69541">
        <ele>400.4</ele>
        <time>2017-01-15T09:33:30.000Z</time>
      </trkpt>
      <trkpt lat="47.53171" lon="6.69542">
        <ele>400.4</ele>
        <time>2017-01-15T09:33:31.000Z</time>
      </trkpt>
      <trkpt lat="47.53169" lon="6.69543">
        <ele>400.4</ele>
        <time>2017-01-15T09:33:32.000Z</time>
      </trkpt>
      <trkpt lat="47.53165" lon="6.69544">
        <ele>400.5</ele>
        <time>2017-01-15T09:33:33.000Z</time>
      </trkpt>
      <trkpt lat="47.53162" lon="6.69546">
        <ele>400.5</ele>
        <time>2017-01-15T09:33:34.000Z</time>
      </trkpt>
      <trkpt lat="47.53158" lon="6.69547">
        <ele>400.6</ele>
        <time>2017-01-15T09:33:35.000Z</time>
      </trkpt>
      <trkpt lat="47.53154" lon="6.69548">
        <ele>400.7</ele>
        <time>2017-01-15T09:33:36.000Z</time>
      </trkpt>
      <trkpt lat="47.53151" lon="6.69548">
        <ele>400.8</ele>
        <time>2017-01-15T09:33:37.000Z</time>
      </trkpt>
      <trkpt lat="47.53148" lon="6.69548">
        <ele>400.9</ele>
        <time>2017-01-15T09:33:38.000Z</time>
      </trkpt>
      <trkpt lat="47.53146" lon="6.69548">
        <ele>401</ele>
        <time>2017-01-15T09:33:39.000Z</time>
      </trkpt>
      <trkpt lat="47.53144" lon="6.69547">
        <ele>401</ele>
        <time>2017-01-15T09:33:40.000Z</time>
      </trkpt>
      <trkpt lat="47.53142" lon="6.69546">
        <ele>401.1</ele>
        <time>2017-01-15T09:33:41.000Z</time>
      </trkpt>
      <trkpt lat="47.53139" lon="6.69545">
        <ele>401.2</ele>
        <time>2017-01-15T09:33:42.000Z</time>
      </trkpt>
      <trkpt lat="47.53137" lon="6.69544">
        <ele>401.3</ele>
        <time>2017-01-15T09:33:43.000Z</time>
      </trkpt>
      <trkpt lat="47.53135" lon="6.69542">
        <ele>401.4</ele>
        <time>2017-01-15T09:33:44.000Z</time>
      </trkpt>
      <trkpt lat="47.53133" lon="6.6954">
        <ele>401.5</ele>
        <time>2017-01-15T09:33:45.000Z</time>
      </trkpt>
      <trkpt lat="47.53131" lon="6.69537">
        <ele>401.5</ele>
        <time>2017-01-15T09:33:46.000Z</time>
      </trkpt>
      <trkpt lat="47.53128" lon="6.69533">
        <ele>401.7</ele>
        <time>2017-01-15T09:33:48.000Z</time>
      </trkpt>
      <trkpt lat="47.53128" lon="6.69531">
        <ele>401.8</ele>
        <time>2017-01-15T09:33:49.000Z</time>
      </trkpt>
      <trkpt lat="47.53127" lon="6.69525">
        <ele>401.8</ele>
        <time>2017-01-15T09:33:51.000Z</time>
      </trkpt>
      <trkpt lat="47.53127" lon="6.69522">
        <ele>401.8</ele>
        <time>2017-01-15T09:33:52.000Z</time>
      </trkpt>
      <trkpt lat="47.53127" lon="6.69517">
        <ele>401.8</ele>
        <time>2017-01-15T09:33:54.000Z</time>
      </trkpt>
      <trkpt lat="47.53127" lon="6.69514">
        <ele>401.8</ele>
        <time>2017-01-15T09:33:55.000Z</time>
      </trkpt>
      <trkpt lat="47.53127" lon="6.69509">
        <ele>401.8</ele>
        <time>2017-01-15T09:33:57.000Z</time>
      </trkpt>
      <trkpt lat="47.53127" lon="6.69506">
        <ele>401.8</ele>
        <time>2017-01-15T09:33:58.000Z</time>
      </trkpt>
      <trkpt lat="47.53127" lon="6.69499">
        <ele>401.7</ele>
        <time>2017-01-15T09:34:00.000Z</time>
      </trkpt>
      <trkpt lat="47.53127" lon="6.69496">
        <ele>401.7</ele>
        <time>2017-01-15T09:34:01.000Z</time>
      </trkpt>
      <trkpt lat="47.53127" lon="6.69491">
        <ele>401.8</ele>
        <time>2017-01-15T09:34:03.000Z</time>
      </trkpt>
      <trkpt lat="47.53127" lon="6.69489">
        <ele>401.8</ele>
        <time>2017-01-15T09:34:04.000Z</time>
      </trkpt>
      <trkpt lat="47.53127" lon="6.69482">
        <ele>401.8</ele>
        <time>2017-01-15T09:34:06.000Z</time>
      </trkpt>
      <trkpt lat="47.53127" lon="6.69479">
        <ele>401.8</ele>
        <time>2017-01-15T09:34:07.000Z</time>
      </trkpt>
      <trkpt lat="47.53127" lon="6.69474">
        <ele>401.7</ele>
        <time>2017-01-15T09:34:09.000Z</time>
      </trkpt>
      <trkpt lat="47.53127" lon="6.69471">
        <ele>401.6</ele>
        <time>2017-01-15T09:34:10.000Z</time>
      </trkpt>
      <trkpt lat="47.53127" lon="6.69468">
        <ele>401.7</ele>
        <time>2017-01-15T09:34:11.000Z</time>
      </trkpt>
      <trkpt lat="47.53126" lon="6.69464">
        <ele>401.7</ele>
        <time>2017-01-15T09:34:12.000Z</time>
      </trkpt>
      <trkpt lat="47.53126" lon="6.6946">
        <ele>401.8</ele>
        <time>2017-01-15T09:34:13.000Z</time>
      </trkpt>
      <trkpt lat="47.53126" lon="6.69457">
        <ele>401.8</ele>
        <time>2017-01-15T09:34:14.000Z</time>
      </trkpt>
      <trkpt lat="47.53125" lon="6.69451">
        <ele>401.8</ele>
        <time>2017-01-15T09:34:16.000Z</time>
      </trkpt>
      <trkpt lat="47.53125" lon="6.69448">
        <ele>401.8</ele>
        <time>2017-01-15T09:34:17.000Z</time>
      </trkpt>
      <trkpt lat="47.53125" lon="6.69444">
        <ele>401.9</ele>
        <time>2017-01-15T09:34:19.000Z</time>
      </trkpt>
      <trkpt lat="47.53125" lon="6.69441">
        <ele>402</ele>
        <time>2017-01-15T09:34:20.000Z</time>
      </trkpt>
      <trkpt lat="47.53124" lon="6.69435">
        <ele>402</ele>
        <time>2017-01-15T09:34:22.000Z</time>
      </trkpt>
      <trkpt lat="47.53124" lon="6.69431">
        <ele>402</ele>
        <time>2017-01-15T09:34:23.000Z</time>
      </trkpt>
      <trkpt lat="47.53124" lon="6.69427">
        <ele>402</ele>
        <time>2017-01-15T09:34:25.000Z</time>
      </trkpt>
      <trkpt lat="47.53124" lon="6.69424">
        <ele>402</ele>
        <time>2017-01-15T09:34:26.000Z</time>
      </trkpt>
      <trkpt lat="47.53123" lon="6.69419">
        <ele>402.1</ele>
        <time>2017-01-15T09:34:28.000Z</time>
      </trkpt>
      <trkpt lat="47.53122" lon="6.69416">
        <ele>402</ele>
        <time>2017-01-15T09:34:29.000Z</time>
      </trkpt>
      <trkpt lat="47.53122" lon="6.6941">
        <ele>401.9</ele>
        <time>2017-01-15T09:34:31.000Z</time>
      </trkpt>
      <trkpt lat="47.53122" lon="6.69408">
        <ele>401.9</ele>
        <time>2017-01-15T09:34:32.000Z</time>
      </trkpt>
      <trkpt lat="47.53121" lon="6.69403">
        <ele>401.8</ele>
        <time>2017-01-15T09:34:34.000Z</time>
      </trkpt>
      <trkpt lat="47.53121" lon="6.694">
        <ele>401.8</ele>
        <time>2017-01-15T09:34:35.000Z</time>
      </trkpt>
      <trkpt lat="47.5312" lon="6.69394">
        <ele>401.9</ele>
        <time>2017-01-15T09:34:37.000Z</time>
      </trkpt>
      <trkpt lat="47.5312" lon="6.69391">
        <ele>401.9</ele>
        <time>2017-01-15T09:34:38.000Z</time>
      </trkpt>
      <trkpt lat="47.5312" lon="6.69385">
        <ele>401.8</ele>
        <time>2017-01-15T09:34:40.000Z</time>
      </trkpt>
      <trkpt lat="47.53119" lon="6.69383">
        <ele>401.8</ele>
        <time>2017-01-15T09:34:41.000Z</time>
      </trkpt>
      <trkpt lat="47.53119" lon="6.69376">
        <ele>401.8</ele>
        <time>2017-01-15T09:34:43.000Z</time>
      </trkpt>
      <trkpt lat="47.53119" lon="6.69373">
        <ele>401.8</ele>
        <time>2017-01-15T09:34:44.000Z</time>
      </trkpt>
      <trkpt lat="47.53118" lon="6.69368">
        <ele>402</ele>
        <time>2017-01-15T09:34:46.000Z</time>
      </trkpt>
      <trkpt lat="47.53118" lon="6.69365">
        <ele>402.1</ele>
        <time>2017-01-15T09:34:47.000Z</time>
      </trkpt>
      <trkpt lat="47.53118" lon="6.69359">
        <ele>402.3</ele>
        <time>2017-01-15T09:34:49.000Z</time>
      </trkpt>
      <trkpt lat="47.53117" lon="6.69356">
        <ele>402.3</ele>
        <time>2017-01-15T09:34:50.000Z</time>
      </trkpt>
      <trkpt lat="47.53117" lon="6.69351">
        <ele>402.4</ele>
        <time>2017-01-15T09:34:52.000Z</time>
      </trkpt>
      <trkpt lat="47.53117" lon="6.69349">
        <ele>402.4</ele>
        <time>2017-01-15T09:34:53.000Z</time>
      </trkpt>
      <trkpt lat="47.53117" lon="6.69343">
        <ele>402.6</ele>
        <time>2017-01-15T09:34:55.000Z</time>
      </trkpt>
      <trkpt lat="47.53117" lon="6.6934">
        <ele>402.6</ele>
        <time>2017-01-15T09:34:56.000Z</time>
      </trkpt>
      <trkpt lat="47.53118" lon="6.69335">
        <ele>402.7</ele>
        <time>2017-01-15T09:34:58.000Z</time>
      </trkpt>
      <trkpt lat="47.53118" lon="6.69332">
        <ele>402.7</ele>
        <time>2017-01-15T09:34:59.000Z</time>
      </trkpt>
      <trkpt lat="47.53118" lon="6.69326">
        <ele>402.8</ele>
        <time>2017-01-15T09:35:01.000Z</time>
      </trkpt>
      <trkpt lat="47.53118" lon="6.69323">
        <ele>402.8</ele>
        <time>2017-01-15T09:35:02.000Z</time>
      </trkpt>
      <trkpt lat="47.53117" lon="6.69318">
        <ele>403</ele>
        <time>2017-01-15T09:35:04.000Z</time>
      </trkpt>
      <trkpt lat="47.53117" lon="6.69316">
        <ele>403</ele>
        <time>2017-01-15T09:35:05.000Z</time>
      </trkpt>
      <trkpt lat="47.53117" lon="6.69312">
        <ele>403.1</ele>
        <time>2017-01-15T09:35:06.000Z</time>
      </trkpt>
      <trkpt lat="47.53117" lon="6.69309">
        <ele>403.1</ele>
        <time>2017-01-15T09:35:07.000Z</time>
      </trkpt>
      <trkpt lat="47.53118" lon="6.69303">
        <ele>403.1</ele>
        <time>2017-01-15T09:35:09.000Z</time>
      </trkpt>
      <trkpt lat="47.53118" lon="6.69299">
        <ele>403.1</ele>
        <time>2017-01-15T09:35:10.000Z</time>
      </trkpt>
      <trkpt lat="47.53117" lon="6.69294">
        <ele>403.1</ele>
        <time>2017-01-15T09:35:12.000Z</time>
      </trkpt>
      <trkpt lat="47.53117" lon="6.69292">
        <ele>403.1</ele>
        <time>2017-01-15T09:35:13.000Z</time>
      </trkpt>
      <trkpt lat="47.53117" lon="6.69286">
        <ele>403.2</ele>
        <time>2017-01-15T09:35:15.000Z</time>
      </trkpt>
      <trkpt lat="47.53117" lon="6.69283">
        <ele>403.3</ele>
        <time>2017-01-15T09:35:16.000Z</time>
      </trkpt>
      <trkpt lat="47.53117" lon="6.69278">
        <ele>403.5</ele>
        <time>2017-01-15T09:35:18.000Z</time>
      </trkpt>
      <trkpt lat="47.53117" lon="6.69275">
        <ele>403.5</ele>
        <time>2017-01-15T09:35:19.000Z</time>
      </trkpt>
      <trkpt lat="47.53116" lon="6.69269">
        <ele>403.6</ele>
        <time>2017-01-15T09:35:21.000Z</time>
      </trkpt>
      <trkpt lat="47.53115" lon="6.69265">
        <ele>403.7</ele>
        <time>2017-01-15T09:35:22.000Z</time>
      </trkpt>
      <trkpt lat="47.53114" lon="6.6926">
        <ele>403.7</ele>
        <time>2017-01-15T09:35:24.000Z</time>
      </trkpt>
      <trkpt lat="47.53114" lon="6.69257">
        <ele>403.8</ele>
        <time>2017-01-15T09:35:25.000Z</time>
      </trkpt>
      <trkpt lat="47.53113" lon="6.69251">
        <ele>403.9</ele>
        <time>2017-01-15T09:35:27.000Z</time>
      </trkpt>
      <trkpt lat="47.53113" lon="6.69248">
        <ele>403.9</ele>
        <time>2017-01-15T09:35:28.000Z</time>
      </trkpt>
      <trkpt lat="47.53113" lon="6.69243">
        <ele>404.1</ele>
        <time>2017-01-15T09:35:30.000Z</time>
      </trkpt>
      <trkpt lat="47.53112" lon="6.6924">
        <ele>404.1</ele>
        <time>2017-01-15T09:35:31.000Z</time>
      </trkpt>
      <trkpt lat="47.53112" lon="6.69234">
        <ele>404.3</ele>
        <time>2017-01-15T09:35:33.000Z</time>
      </trkpt>
      <trkpt lat="47.53112" lon="6.69232">
        <ele>404.4</ele>
        <time>2017-01-15T09:35:34.000Z</time>
      </trkpt>
      <trkpt lat="47.53112" lon="6.69227">
        <ele>404.6</ele>
        <time>2017-01-15T09:35:36.000Z</time>
      </trkpt>
      <trkpt lat="47.53112" lon="6.69224">
        <ele>404.6</ele>
        <time>2017-01-15T09:35:37.000Z</time>
      </trkpt>
      <trkpt lat="47.53112" lon="6.69219">
        <ele>404.8</ele>
        <time>2017-01-15T09:35:39.000Z</time>
      </trkpt>
      <trkpt lat="47.53112" lon="6.69217">
        <ele>404.8</ele>
        <time>2017-01-15T09:35:40.000Z</time>
      </trkpt>
      <trkpt lat="47.53111" lon="6.69213">
        <ele>405</ele>
        <time>2017-01-15T09:35:42.000Z</time>
      </trkpt>
      <trkpt lat="47.53111" lon="6.6921">
        <ele>405</ele>
        <time>2017-01-15T09:35:43.000Z</time>
      </trkpt>
      <trkpt lat="47.53111" lon="6.69205">
        <ele>405.1</ele>
        <time>2017-01-15T09:35:45.000Z</time>
      </trkpt>
      <trkpt lat="47.53111" lon="6.69203">
        <ele>405.2</ele>
        <time>2017-01-15T09:35:46.000Z</time>
      </trkpt>
      <trkpt lat="47.53111" lon="6.69197">
        <ele>405.3</ele>
        <time>2017-01-15T09:35:48.000Z</time>
      </trkpt>
      <trkpt lat="47.53111" lon="6.69194">
        <ele>405.4</ele>
        <time>2017-01-15T09:35:49.000Z</time>
      </trkpt>
      <trkpt lat="47.5311" lon="6.69188">
        <ele>405.5</ele>
        <time>2017-01-15T09:35:51.000Z</time>
      </trkpt>
      <trkpt lat="47.5311" lon="6.69186">
        <ele>405.6</ele>
        <time>2017-01-15T09:35:52.000Z</time>
      </trkpt>
      <trkpt lat="47.5311" lon="6.6918">
        <ele>405.7</ele>
        <time>2017-01-15T09:35:56.000Z</time>
      </trkpt>
      <trkpt lat="47.53111" lon="6.69178">
        <ele>405.7</ele>
        <time>2017-01-15T09:35:57.000Z</time>
      </trkpt>
      <trkpt lat="47.5311" lon="6.69172">
        <ele>405.9</ele>
        <time>2017-01-15T09:36:00.000Z</time>
      </trkpt>
      <trkpt lat="47.5311" lon="6.69168">
        <ele>406</ele>
        <time>2017-01-15T09:36:01.000Z</time>
      </trkpt>
      <trkpt lat="47.5311" lon="6.69162">
        <ele>406.2</ele>
        <time>2017-01-15T09:36:04.000Z</time>
      </trkpt>
      <trkpt lat="47.53109" lon="6.69161">
        <ele>406.3</ele>
        <time>2017-01-15T09:36:05.000Z</time>
      </trkpt>
      <trkpt lat="47.53109" lon="6.69157">
        <ele>406.6</ele>
        <time>2017-01-15T09:36:07.000Z</time>
      </trkpt>
      <trkpt lat="47.53109" lon="6.69154">
        <ele>406.7</ele>
        <time>2017-01-15T09:36:08.000Z</time>
      </trkpt>
      <trkpt lat="47.53109" lon="6.6915">
        <ele>406.7</ele>
        <time>2017-01-15T09:36:10.000Z</time>
      </trkpt>
      <trkpt lat="47.53109" lon="6.69147">
        <ele>406.7</ele>
        <time>2017-01-15T09:36:11.000Z</time>
      </trkpt>
      <trkpt lat="47.53109" lon="6.69143">
        <ele>406.8</ele>
        <time>2017-01-15T09:36:13.000Z</time>
      </trkpt>
      <trkpt lat="47.53109" lon="6.6914">
        <ele>406.9</ele>
        <time>2017-01-15T09:36:14.000Z</time>
      </trkpt>
      <trkpt lat="47.53108" lon="6.69133">
        <ele>407.1</ele>
        <time>2017-01-15T09:36:17.000Z</time>
      </trkpt>
      <trkpt lat="47.53108" lon="6.69131">
        <ele>407.2</ele>
        <time>2017-01-15T09:36:18.000Z</time>
      </trkpt>
      <trkpt lat="47.53107" lon="6.69127">
        <ele>407.5</ele>
        <time>2017-01-15T09:36:20.000Z</time>
      </trkpt>
      <trkpt lat="47.53107" lon="6.69124">
        <ele>407.6</ele>
        <time>2017-01-15T09:36:21.000Z</time>
      </trkpt>
      <trkpt lat="47.53107" lon="6.69118">
        <ele>407.9</ele>
        <time>2017-01-15T09:36:24.000Z</time>
      </trkpt>
      <trkpt lat="47.53107" lon="6.69116">
        <ele>408.1</ele>
        <time>2017-01-15T09:36:25.000Z</time>
      </trkpt>
      <trkpt lat="47.53107" lon="6.6911">
        <ele>408.3</ele>
        <time>2017-01-15T09:36:27.000Z</time>
      </trkpt>
      <trkpt lat="47.53106" lon="6.69107">
        <ele>408.5</ele>
        <time>2017-01-15T09:36:28.000Z</time>
      </trkpt>
      <trkpt lat="47.53106" lon="6.69102">
        <ele>408.8</ele>
        <time>2017-01-15T09:36:31.000Z</time>
      </trkpt>
      <trkpt lat="47.53105" lon="6.69099">
        <ele>408.8</ele>
        <time>2017-01-15T09:36:32.000Z</time>
      </trkpt>
      <trkpt lat="47.53105" lon="6.69093">
        <ele>409.3</ele>
        <time>2017-01-15T09:36:35.000Z</time>
      </trkpt>
      <trkpt lat="47.53104" lon="6.69091">
        <ele>409.4</ele>
        <time>2017-01-15T09:36:36.000Z</time>
      </trkpt>
      <trkpt lat="47.53104" lon="6.69085">
        <ele>409.7</ele>
        <time>2017-01-15T09:36:39.000Z</time>
      </trkpt>
      <trkpt lat="47.53104" lon="6.69082">
        <ele>409.8</ele>
        <time>2017-01-15T09:36:40.000Z</time>
      </trkpt>
      <trkpt lat="47.53104" lon="6.69078">
        <ele>410</ele>
        <time>2017-01-15T09:36:42.000Z</time>
      </trkpt>
      <trkpt lat="47.53104" lon="6.69075">
        <ele>410</ele>
        <time>2017-01-15T09:36:43.000Z</time>
      </trkpt>
      <trkpt lat="47.53103" lon="6.69069">
        <ele>410.2</ele>
        <time>2017-01-15T09:36:45.000Z</time>
      </trkpt>
      <trkpt lat="47.53103" lon="6.69066">
        <ele>410.3</ele>
        <time>2017-01-15T09:36:46.000Z</time>
      </trkpt>
      <trkpt lat="47.53102" lon="6.69061">
        <ele>410.6</ele>
        <time>2017-01-15T09:36:48.000Z</time>
      </trkpt>
      <trkpt lat="47.53102" lon="6.6906">
        <ele>410.7</ele>
        <time>2017-01-15T09:36:49.000Z</time>
      </trkpt>
      <trkpt lat="47.53102" lon="6.69054">
        <ele>411</ele>
        <time>2017-01-15T09:36:52.000Z</time>
      </trkpt>
      <trkpt lat="47.53102" lon="6.69052">
        <ele>411.1</ele>
        <time>2017-01-15T09:36:53.000Z</time>
      </trkpt>
      <trkpt lat="47.53101" lon="6.69047">
        <ele>411.3</ele>
        <time>2017-01-15T09:36:55.000Z</time>
      </trkpt>
      <trkpt lat="47.53101" lon="6.69045">
        <ele>411.3</ele>
        <time>2017-01-15T09:36:56.000Z</time>
      </trkpt>
      <trkpt lat="47.531" lon="6.69038">
        <ele>411.6</ele>
        <time>2017-01-15T09:36:59.000Z</time>
      </trkpt>
      <trkpt lat="47.531" lon="6.69036">
        <ele>411.7</ele>
        <time>2017-01-15T09:37:00.000Z</time>
      </trkpt>
      <trkpt lat="47.531" lon="6.6903">
        <ele>412</ele>
        <time>2017-01-15T09:37:03.000Z</time>
      </trkpt>
      <trkpt lat="47.531" lon="6.69027">
        <ele>412.2</ele>
        <time>2017-01-15T09:37:04.000Z</time>
      </trkpt>
      <trkpt lat="47.53099" lon="6.69021">
        <ele>412.3</ele>
        <time>2017-01-15T09:37:06.000Z</time>
      </trkpt>
      <trkpt lat="47.53099" lon="6.69019">
        <ele>412.5</ele>
        <time>2017-01-15T09:37:07.000Z</time>
      </trkpt>
      <trkpt lat="47.53099" lon="6.69014">
        <ele>412.8</ele>
        <time>2017-01-15T09:37:09.000Z</time>
      </trkpt>
      <trkpt lat="47.53099" lon="6.69012">
        <ele>413</ele>
        <time>2017-01-15T09:37:10.000Z</time>
      </trkpt>
      <trkpt lat="47.53098" lon="6.69006">
        <ele>413.2</ele>
        <time>2017-01-15T09:37:12.000Z</time>
      </trkpt>
      <trkpt lat="47.53098" lon="6.69003">
        <ele>413.3</ele>
        <time>2017-01-15T09:37:13.000Z</time>
      </trkpt>
      <trkpt lat="47.53098" lon="6.68997">
        <ele>413.7</ele>
        <time>2017-01-15T09:37:16.000Z</time>
      </trkpt>
      <trkpt lat="47.53098" lon="6.68995">
        <ele>413.8</ele>
        <time>2017-01-15T09:37:17.000Z</time>
      </trkpt>
      <trkpt lat="47.53098" lon="6.6899">
        <ele>414.2</ele>
        <time>2017-01-15T09:37:19.000Z</time>
      </trkpt>
      <trkpt lat="47.53098" lon="6.68987">
        <ele>414.4</ele>
        <time>2017-01-15T09:37:20.000Z</time>
      </trkpt>
      <trkpt lat="47.53097" lon="6.68982">
        <ele>414.6</ele>
        <time>2017-01-15T09:37:22.000Z</time>
      </trkpt>
      <trkpt lat="47.53097" lon="6.6898">
        <ele>414.7</ele>
        <time>2017-01-15T09:37:23.000Z</time>
      </trkpt>
      <trkpt lat="47.53096" lon="6.68973">
        <ele>414.9</ele>
        <time>2017-01-15T09:37:26.000Z</time>
      </trkpt>
      <trkpt lat="47.53097" lon="6.68971">
        <ele>414.9</ele>
        <time>2017-01-15T09:37:27.000Z</time>
      </trkpt>
      <trkpt lat="47.53097" lon="6.68965">
        <ele>414.9</ele>
        <time>2017-01-15T09:37:29.000Z</time>
      </trkpt>
      <trkpt lat="47.53097" lon="6.68962">
        <ele>414.9</ele>
        <time>2017-01-15T09:37:30.000Z</time>
      </trkpt>
      <trkpt lat="47.53097" lon="6.68956">
        <ele>415.1</ele>
        <time>2017-01-15T09:37:32.000Z</time>
      </trkpt>
      <trkpt lat="47.53097" lon="6.68953">
        <ele>415.2</ele>
        <time>2017-01-15T09:37:33.000Z</time>
      </trkpt>
      <trkpt lat="47.53097" lon="6.68947">
        <ele>415.4</ele>
        <time>2017-01-15T09:37:35.000Z</time>
      </trkpt>
      <trkpt lat="47.53097" lon="6.68944">
        <ele>415.5</ele>
        <time>2017-01-15T09:37:36.000Z</time>
      </trkpt>
      <trkpt lat="47.53097" lon="6.68939">
        <ele>415.8</ele>
        <time>2017-01-15T09:37:38.000Z</time>
      </trkpt>
      <trkpt lat="47.53097" lon="6.68937">
        <ele>416</ele>
        <time>2017-01-15T09:37:39.000Z</time>
      </trkpt>
      <trkpt lat="47.53098" lon="6.68932">
        <ele>416.4</ele>
        <time>2017-01-15T09:37:41.000Z</time>
      </trkpt>
      <trkpt lat="47.53098" lon="6.68929">
        <ele>416.5</ele>
        <time>2017-01-15T09:37:42.000Z</time>
      </trkpt>
      <trkpt lat="47.53098" lon="6.68924">
        <ele>416.9</ele>
        <time>2017-01-15T09:37:44.000Z</time>
      </trkpt>
      <trkpt lat="47.53098" lon="6.68922">
        <ele>417.1</ele>
        <time>2017-01-15T09:37:45.000Z</time>
      </trkpt>
      <trkpt lat="47.53098" lon="6.68916">
        <ele>417.5</ele>
        <time>2017-01-15T09:37:47.000Z</time>
      </trkpt>
      <trkpt lat="47.53098" lon="6.68913">
        <ele>417.6</ele>
        <time>2017-01-15T09:37:48.000Z</time>
      </trkpt>
      <trkpt lat="47.53098" lon="6.68907">
        <ele>417.9</ele>
        <time>2017-01-15T09:37:50.000Z</time>
      </trkpt>
      <trkpt lat="47.53098" lon="6.68905">
        <ele>418</ele>
        <time>2017-01-15T09:37:51.000Z</time>
      </trkpt>
      <trkpt lat="47.53098" lon="6.689">
        <ele>418.2</ele>
        <time>2017-01-15T09:37:53.000Z</time>
      </trkpt>
      <trkpt lat="47.53098" lon="6.68897">
        <ele>418.3</ele>
        <time>2017-01-15T09:37:54.000Z</time>
      </trkpt>
      <trkpt lat="47.53097" lon="6.68891">
        <ele>418.4</ele>
        <time>2017-01-15T09:37:56.000Z</time>
      </trkpt>
      <trkpt lat="47.53097" lon="6.68888">
        <ele>418.4</ele>
        <time>2017-01-15T09:37:57.000Z</time>
      </trkpt>
      <trkpt lat="47.53096" lon="6.68883">
        <ele>418.6</ele>
        <time>2017-01-15T09:37:59.000Z</time>
      </trkpt>
      <trkpt lat="47.53096" lon="6.6888">
        <ele>418.7</ele>
        <time>2017-01-15T09:38:00.000Z</time>
      </trkpt>
      <trkpt lat="47.53095" lon="6.68875">
        <ele>418.9</ele>
        <time>2017-01-15T09:38:02.000Z</time>
      </trkpt>
      <trkpt lat="47.53095" lon="6.68872">
        <ele>419</ele>
        <time>2017-01-15T09:38:03.000Z</time>
      </trkpt>
      <trkpt lat="47.53095" lon="6.68866">
        <ele>419.2</ele>
        <time>2017-01-15T09:38:05.000Z</time>
      </trkpt>
      <trkpt lat="47.53094" lon="6.68863">
        <ele>419.3</ele>
        <time>2017-01-15T09:38:06.000Z</time>
      </trkpt>
      <trkpt lat="47.53094" lon="6.68858">
        <ele>419.4</ele>
        <time>2017-01-15T09:38:08.000Z</time>
      </trkpt>
      <trkpt lat="47.53094" lon="6.68856">
        <ele>419.5</ele>
        <time>2017-01-15T09:38:09.000Z</time>
      </trkpt>
      <trkpt lat="47.53094" lon="6.68851">
        <ele>419.7</ele>
        <time>2017-01-15T09:38:11.000Z</time>
      </trkpt>
      <trkpt lat="47.53094" lon="6.68848">
        <ele>419.8</ele>
        <time>2017-01-15T09:38:12.000Z</time>
      </trkpt>
      <trkpt lat="47.53095" lon="6.68842">
        <ele>420</ele>
        <time>2017-01-15T09:38:14.000Z</time>
      </trkpt>
      <trkpt lat="47.53095" lon="6.68839">
        <ele>420.1</ele>
        <time>2017-01-15T09:38:15.000Z</time>
      </trkpt>
      <trkpt lat="47.53094" lon="6.68835">
        <ele>420.3</ele>
        <time>2017-01-15T09:38:17.000Z</time>
      </trkpt>
      <trkpt lat="47.53094" lon="6.68832">
        <ele>420.4</ele>
        <time>2017-01-15T09:38:18.000Z</time>
      </trkpt>
      <trkpt lat="47.53095" lon="6.68826">
        <ele>420.5</ele>
        <time>2017-01-15T09:38:20.000Z</time>
      </trkpt>
      <trkpt lat="47.53094" lon="6.68823">
        <ele>420.5</ele>
        <time>2017-01-15T09:38:21.000Z</time>
      </trkpt>
      <trkpt lat="47.53094" lon="6.68817">
        <ele>420.6</ele>
        <time>2017-01-15T09:38:23.000Z</time>
      </trkpt>
      <trkpt lat="47.53094" lon="6.68815">
        <ele>420.7</ele>
        <time>2017-01-15T09:38:24.000Z</time>
      </trkpt>
      <trkpt lat="47.53094" lon="6.68811">
        <ele>421</ele>
        <time>2017-01-15T09:38:26.000Z</time>
      </trkpt>
      <trkpt lat="47.53093" lon="6.68807">
        <ele>421.1</ele>
        <time>2017-01-15T09:38:27.000Z</time>
      </trkpt>
      <trkpt lat="47.53093" lon="6.68801">
        <ele>421.4</ele>
        <time>2017-01-15T09:38:29.000Z</time>
      </trkpt>
      <trkpt lat="47.53093" lon="6.68799">
        <ele>421.5</ele>
        <time>2017-01-15T09:38:30.000Z</time>
      </trkpt>
      <trkpt lat="47.53092" lon="6.68793">
        <ele>421.6</ele>
        <time>2017-01-15T09:38:32.000Z</time>
      </trkpt>
      <trkpt lat="47.53092" lon="6.6879">
        <ele>421.7</ele>
        <time>2017-01-15T09:38:33.000Z</time>
      </trkpt>
      <trkpt lat="47.53091" lon="6.68785">
        <ele>421.7</ele>
        <time>2017-01-15T09:38:35.000Z</time>
      </trkpt>
      <trkpt lat="47.5309" lon="6.68783">
        <ele>421.8</ele>
        <time>2017-01-15T09:38:36.000Z</time>
      </trkpt>
      <trkpt lat="47.5309" lon="6.68777">
        <ele>423</ele>
        <time>2017-01-15T09:38:57.000Z</time>
      </trkpt>
      <trkpt lat="47.53091" lon="6.68776">
        <ele>423.1</ele>
        <time>2017-01-15T09:38:58.000Z</time>
      </trkpt>
      <trkpt lat="47.53093" lon="6.68771">
        <ele>423.4</ele>
        <time>2017-01-15T09:39:04.000Z</time>
      </trkpt>
      <trkpt lat="47.53093" lon="6.6877">
        <ele>423.6</ele>
        <time>2017-01-15T09:39:05.000Z</time>
      </trkpt>
      <trkpt lat="47.53093" lon="6.68763">
        <ele>424.1</ele>
        <time>2017-01-15T09:39:15.000Z</time>
      </trkpt>
      <trkpt lat="47.53092" lon="6.6876">
        <ele>424.1</ele>
        <time>2017-01-15T09:39:16.000Z</time>
      </trkpt>
      <trkpt lat="47.53092" lon="6.68754">
        <ele>424.1</ele>
        <time>2017-01-15T09:39:18.000Z</time>
      </trkpt>
      <trkpt lat="47.53092" lon="6.68752">
        <ele>424.2</ele>
        <time>2017-01-15T09:39:19.000Z</time>
      </trkpt>
      <trkpt lat="47.53093" lon="6.68746">
        <ele>424.3</ele>
        <time>2017-01-15T09:39:22.000Z</time>
      </trkpt>
      <trkpt lat="47.53093" lon="6.68744">
        <ele>424.3</ele>
        <time>2017-01-15T09:39:23.000Z</time>
      </trkpt>
      <trkpt lat="47.53094" lon="6.68739">
        <ele>424.4</ele>
        <time>2017-01-15T09:39:25.000Z</time>
      </trkpt>
      <trkpt lat="47.53094" lon="6.68737">
        <ele>424.5</ele>
        <time>2017-01-15T09:39:26.000Z</time>
      </trkpt>
      <trkpt lat="47.53094" lon="6.68732">
        <ele>424.7</ele>
        <time>2017-01-15T09:39:28.000Z</time>
      </trkpt>
      <trkpt lat="47.53093" lon="6.6873">
        <ele>424.8</ele>
        <time>2017-01-15T09:39:29.000Z</time>
      </trkpt>
      <trkpt lat="47.53092" lon="6.68726">
        <ele>425</ele>
        <time>2017-01-15T09:39:31.000Z</time>
      </trkpt>
      <trkpt lat="47.53091" lon="6.68724">
        <ele>425.1</ele>
        <time>2017-01-15T09:39:32.000Z</time>
      </trkpt>
      <trkpt lat="47.53089" lon="6.6872">
        <ele>425.2</ele>
        <time>2017-01-15T09:39:34.000Z</time>
      </trkpt>
      <trkpt lat="47.53088" lon="6.68718">
        <ele>425.3</ele>
        <time>2017-01-15T09:39:35.000Z</time>
      </trkpt>
      <trkpt lat="47.53088" lon="6.68712">
        <ele>425.3</ele>
        <time>2017-01-15T09:39:38.000Z</time>
      </trkpt>
      <trkpt lat="47.53088" lon="6.68709">
        <ele>425.3</ele>
        <time>2017-01-15T09:39:39.000Z</time>
      </trkpt>
      <trkpt lat="47.53088" lon="6.68703">
        <ele>425.3</ele>
        <time>2017-01-15T09:39:42.000Z</time>
      </trkpt>
      <trkpt lat="47.53088" lon="6.68701">
        <ele>425.3</ele>
        <time>2017-01-15T09:39:43.000Z</time>
      </trkpt>
      <trkpt lat="47.53088" lon="6.68695">
        <ele>425.3</ele>
        <time>2017-01-15T09:39:46.000Z</time>
      </trkpt>
      <trkpt lat="47.53088" lon="6.68694">
        <ele>425.3</ele>
        <time>2017-01-15T09:39:47.000Z</time>
      </trkpt>
      <trkpt lat="47.53088" lon="6.68689">
        <ele>425.4</ele>
        <time>2017-01-15T09:39:49.000Z</time>
      </trkpt>
      <trkpt lat="47.53088" lon="6.68687">
        <ele>425.5</ele>
        <time>2017-01-15T09:39:50.000Z</time>
      </trkpt>
      <trkpt lat="47.53087" lon="6.68681">
        <ele>425.8</ele>
        <time>2017-01-15T09:39:53.000Z</time>
      </trkpt>
      <trkpt lat="47.53087" lon="6.68678">
        <ele>425.9</ele>
        <time>2017-01-15T09:39:54.000Z</time>
      </trkpt>
      <trkpt lat="47.53086" lon="6.68672">
        <ele>425.9</ele>
        <time>2017-01-15T09:39:57.000Z</time>
      </trkpt>
      <trkpt lat="47.53086" lon="6.6867">
        <ele>425.9</ele>
        <time>2017-01-15T09:39:58.000Z</time>
      </trkpt>
      <trkpt lat="47.53087" lon="6.68664">
        <ele>425.8</ele>
        <time>2017-01-15T09:40:00.000Z</time>
      </trkpt>
      <trkpt lat="47.53087" lon="6.68661">
        <ele>425.8</ele>
        <time>2017-01-15T09:40:01.000Z</time>
      </trkpt>
      <trkpt lat="47.53086" lon="6.68656">
        <ele>425.8</ele>
        <time>2017-01-15T09:40:03.000Z</time>
      </trkpt>
      <trkpt lat="47.53086" lon="6.68654">
        <ele>425.7</ele>
        <time>2017-01-15T09:40:04.000Z</time>
      </trkpt>
      <trkpt lat="47.53085" lon="6.68648">
        <ele>425.7</ele>
        <time>2017-01-15T09:40:07.000Z</time>
      </trkpt>
      <trkpt lat="47.53085" lon="6.68647">
        <ele>425.8</ele>
        <time>2017-01-15T09:40:08.000Z</time>
      </trkpt>
      <trkpt lat="47.53084" lon="6.68642">
        <ele>425.8</ele>
        <time>2017-01-15T09:40:10.000Z</time>
      </trkpt>
      <trkpt lat="47.53083" lon="6.6864">
        <ele>425.8</ele>
        <time>2017-01-15T09:40:11.000Z</time>
      </trkpt>
      <trkpt lat="47.53083" lon="6.68636">
        <ele>425.9</ele>
        <time>2017-01-15T09:40:13.000Z</time>
      </trkpt>
      <trkpt lat="47.53082" lon="6.68634">
        <ele>425.9</ele>
        <time>2017-01-15T09:40:14.000Z</time>
      </trkpt>
      <trkpt lat="47.53081" lon="6.68629">
        <ele>425.9</ele>
        <time>2017-01-15T09:40:16.000Z</time>
      </trkpt>
      <trkpt lat="47.53081" lon="6.68627">
        <ele>426</ele>
        <time>2017-01-15T09:40:17.000Z</time>
      </trkpt>
      <trkpt lat="47.53081" lon="6.68622">
        <ele>426.3</ele>
        <time>2017-01-15T09:40:19.000Z</time>
      </trkpt>
      <trkpt lat="47.53081" lon="6.6862">
        <ele>426.4</ele>
        <time>2017-01-15T09:40:20.000Z</time>
      </trkpt>
      <trkpt lat="47.5308" lon="6.68616">
        <ele>426.5</ele>
        <time>2017-01-15T09:40:22.000Z</time>
      </trkpt>
      <trkpt lat="47.5308" lon="6.68613">
        <ele>426.5</ele>
        <time>2017-01-15T09:40:23.000Z</time>
      </trkpt>
      <trkpt lat="47.53079" lon="6.68608">
        <ele>426.7</ele>
        <time>2017-01-15T09:40:26.000Z</time>
      </trkpt>
      <trkpt lat="47.53078" lon="6.68606">
        <ele>426.7</ele>
        <time>2017-01-15T09:40:27.000Z</time>
      </trkpt>
      <trkpt lat="47.53078" lon="6.686">
        <ele>426.9</ele>
        <time>2017-01-15T09:40:29.000Z</time>
      </trkpt>
      <trkpt lat="47.53077" lon="6.68598">
        <ele>426.9</ele>
        <time>2017-01-15T09:40:30.000Z</time>
      </trkpt>
      <trkpt lat="47.53077" lon="6.68592">
        <ele>427.1</ele>
        <time>2017-01-15T09:40:33.000Z</time>
      </trkpt>
      <trkpt lat="47.53077" lon="6.6859">
        <ele>427.1</ele>
        <time>2017-01-15T09:40:34.000Z</time>
      </trkpt>
      <trkpt lat="47.53076" lon="6.68584">
        <ele>427.5</ele>
        <time>2017-01-15T09:40:37.000Z</time>
      </trkpt>
      <trkpt lat="47.53076" lon="6.68582">
        <ele>427.5</ele>
        <time>2017-01-15T09:40:38.000Z</time>
      </trkpt>
      <trkpt lat="47.53075" lon="6.68577">
        <ele>427.7</ele>
        <time>2017-01-15T09:40:40.000Z</time>
      </trkpt>
      <trkpt lat="47.53075" lon="6.68575">
        <ele>427.9</ele>
        <time>2017-01-15T09:40:41.000Z</time>
      </trkpt>
      <trkpt lat="47.53074" lon="6.68568">
        <ele>428.4</ele>
        <time>2017-01-15T09:40:44.000Z</time>
      </trkpt>
      <trkpt lat="47.53073" lon="6.68566">
        <ele>428.6</ele>
        <time>2017-01-15T09:40:45.000Z</time>
      </trkpt>
      <trkpt lat="47.53073" lon="6.6856">
        <ele>429.2</ele>
        <time>2017-01-15T09:40:49.000Z</time>
      </trkpt>
      <trkpt lat="47.53073" lon="6.68559">
        <ele>429.3</ele>
        <time>2017-01-15T09:40:50.000Z</time>
      </trkpt>
      <trkpt lat="47.53072" lon="6.68554">
        <ele>429.4</ele>
        <time>2017-01-15T09:40:52.000Z</time>
      </trkpt>
      <trkpt lat="47.53071" lon="6.68552">
        <ele>429.4</ele>
        <time>2017-01-15T09:40:53.000Z</time>
      </trkpt>
      <trkpt lat="47.5307" lon="6.68547">
        <ele>429.4</ele>
        <time>2017-01-15T09:40:56.000Z</time>
      </trkpt>
      <trkpt lat="47.5307" lon="6.68546">
        <ele>429.4</ele>
        <time>2017-01-15T09:40:57.000Z</time>
      </trkpt>
      <trkpt lat="47.53068" lon="6.68541">
        <ele>429.5</ele>
        <time>2017-01-15T09:41:00.000Z</time>
      </trkpt>
      <trkpt lat="47.53067" lon="6.68538">
        <ele>429.5</ele>
        <time>2017-01-15T09:41:01.000Z</time>
      </trkpt>
      <trkpt lat="47.53066" lon="6.68533">
        <ele>429.6</ele>
        <time>2017-01-15T09:41:03.000Z</time>
      </trkpt>
      <trkpt lat="47.53066" lon="6.68532">
        <ele>429.7</ele>
        <time>2017-01-15T09:41:04.000Z</time>
      </trkpt>
      <trkpt lat="47.53065" lon="6.68527">
        <ele>429.9</ele>
        <time>2017-01-15T09:41:07.000Z</time>
      </trkpt>
      <trkpt lat="47.53064" lon="6.68525">
        <ele>429.9</ele>
        <time>2017-01-15T09:41:08.000Z</time>
      </trkpt>
      <trkpt lat="47.53063" lon="6.6852">
        <ele>430</ele>
        <time>2017-01-15T09:41:11.000Z</time>
      </trkpt>
      <trkpt lat="47.53062" lon="6.68518">
        <ele>430</ele>
        <time>2017-01-15T09:41:12.000Z</time>
      </trkpt>
      <trkpt lat="47.53061" lon="6.68514">
        <ele>430.1</ele>
        <time>2017-01-15T09:41:14.000Z</time>
      </trkpt>
      <trkpt lat="47.53061" lon="6.68512">
        <ele>430.2</ele>
        <time>2017-01-15T09:41:15.000Z</time>
      </trkpt>
      <trkpt lat="47.53059" lon="6.68506">
        <ele>430.3</ele>
        <time>2017-01-15T09:41:18.000Z</time>
      </trkpt>
      <trkpt lat="47.53058" lon="6.68503">
        <ele>430.3</ele>
        <time>2017-01-15T09:41:19.000Z</time>
      </trkpt>
      <trkpt lat="47.53057" lon="6.68499">
        <ele>430.3</ele>
        <time>2017-01-15T09:41:21.000Z</time>
      </trkpt>
      <trkpt lat="47.53057" lon="6.68497">
        <ele>430.3</ele>
        <time>2017-01-15T09:41:22.000Z</time>
      </trkpt>
      <trkpt lat="47.53056" lon="6.6849">
        <ele>430.4</ele>
        <time>2017-01-15T09:41:25.000Z</time>
      </trkpt>
      <trkpt lat="47.53056" lon="6.68489">
        <ele>430.4</ele>
        <time>2017-01-15T09:41:26.000Z</time>
      </trkpt>
      <trkpt lat="47.53055" lon="6.68484">
        <ele>430.4</ele>
        <time>2017-01-15T09:41:28.000Z</time>
      </trkpt>
      <trkpt lat="47.53055" lon="6.68481">
        <ele>430.4</ele>
        <time>2017-01-15T09:41:29.000Z</time>
      </trkpt>
      <trkpt lat="47.53053" lon="6.68475">
        <ele>430.3</ele>
        <time>2017-01-15T09:41:32.000Z</time>
      </trkpt>
      <trkpt lat="47.53053" lon="6.68473">
        <ele>430.4</ele>
        <time>2017-01-15T09:41:33.000Z</time>
      </trkpt>
      <trkpt lat="47.53052" lon="6.68468">
        <ele>430.5</ele>
        <time>2017-01-15T09:41:36.000Z</time>
      </trkpt>
      <trkpt lat="47.53052" lon="6.68466">
        <ele>430.5</ele>
        <time>2017-01-15T09:41:37.000Z</time>
      </trkpt>
      <trkpt lat="47.53051" lon="6.6846">
        <ele>430.5</ele>
        <time>2017-01-15T09:41:40.000Z</time>
      </trkpt>
      <trkpt lat="47.53051" lon="6.68458">
        <ele>430.5</ele>
        <time>2017-01-15T09:41:41.000Z</time>
      </trkpt>
      <trkpt lat="47.53049" lon="6.68453">
        <ele>430.7</ele>
        <time>2017-01-15T09:41:44.000Z</time>
      </trkpt>
      <trkpt lat="47.53049" lon="6.68451">
        <ele>430.8</ele>
        <time>2017-01-15T09:41:45.000Z</time>
      </trkpt>
      <trkpt lat="47.53048" lon="6.68447">
        <ele>430.9</ele>
        <time>2017-01-15T09:41:47.000Z</time>
      </trkpt>
      <trkpt lat="47.53047" lon="6.68444">
        <ele>430.9</ele>
        <time>2017-01-15T09:41:48.000Z</time>
      </trkpt>
      <trkpt lat="47.53047" lon="6.68439">
        <ele>431.1</ele>
        <time>2017-01-15T09:41:50.000Z</time>
      </trkpt>
      <trkpt lat="47.53046" lon="6.68437">
        <ele>431.2</ele>
        <time>2017-01-15T09:41:51.000Z</time>
      </trkpt>
      <trkpt lat="47.53045" lon="6.68432">
        <ele>431.5</ele>
        <time>2017-01-15T09:41:54.000Z</time>
      </trkpt>
      <trkpt lat="47.53044" lon="6.68429">
        <ele>431.6</ele>
        <time>2017-01-15T09:41:55.000Z</time>
      </trkpt>
      <trkpt lat="47.53043" lon="6.68424">
        <ele>431.7</ele>
        <time>2017-01-15T09:41:57.000Z</time>
      </trkpt>
      <trkpt lat="47.53043" lon="6.68423">
        <ele>431.8</ele>
        <time>2017-01-15T09:41:58.000Z</time>
      </trkpt>
      <trkpt lat="47.53042" lon="6.68419">
        <ele>431.8</ele>
        <time>2017-01-15T09:42:00.000Z</time>
      </trkpt>
      <trkpt lat="47.53041" lon="6.68416">
        <ele>431.8</ele>
        <time>2017-01-15T09:42:01.000Z</time>
      </trkpt>
      <trkpt lat="47.53039" lon="6.68412">
        <ele>431.8</ele>
        <time>2017-01-15T09:42:03.000Z</time>
      </trkpt>
      <trkpt lat="47.53039" lon="6.68409">
        <ele>431.8</ele>
        <time>2017-01-15T09:42:04.000Z</time>
      </trkpt>
      <trkpt lat="47.53038" lon="6.68405">
        <ele>431.9</ele>
        <time>2017-01-15T09:42:06.000Z</time>
      </trkpt>
      <trkpt lat="47.53037" lon="6.68402">
        <ele>432</ele>
        <time>2017-01-15T09:42:07.000Z</time>
      </trkpt>
      <trkpt lat="47.53036" lon="6.68395">
        <ele>432.3</ele>
        <time>2017-01-15T09:42:10.000Z</time>
      </trkpt>
      <trkpt lat="47.53036" lon="6.68393">
        <ele>432.4</ele>
        <time>2017-01-15T09:42:11.000Z</time>
      </trkpt>
      <trkpt lat="47.53035" lon="6.68388">
        <ele>432.5</ele>
        <time>2017-01-15T09:42:13.000Z</time>
      </trkpt>
      <trkpt lat="47.53035" lon="6.68386">
        <ele>432.7</ele>
        <time>2017-01-15T09:42:14.000Z</time>
      </trkpt>
      <trkpt lat="47.53037" lon="6.6838">
        <ele>433</ele>
        <time>2017-01-15T09:42:17.000Z</time>
      </trkpt>
      <trkpt lat="47.53037" lon="6.6838">
        <ele>433</ele>
        <time>2017-01-15T09:42:18.000Z</time>
      </trkpt>
      <trkpt lat="47.5304" lon="6.68375">
        <ele>433.4</ele>
        <time>2017-01-15T09:42:21.000Z</time>
      </trkpt>
      <trkpt lat="47.53041" lon="6.68375">
        <ele>433.4</ele>
        <time>2017-01-15T09:42:22.000Z</time>
      </trkpt>
      <trkpt lat="47.53043" lon="6.6838">
        <ele>431.5</ele>
        <time>2017-01-15T09:42:55.000Z</time>
      </trkpt>
      <trkpt lat="47.53043" lon="6.68381">
        <ele>431.5</ele>
        <time>2017-01-15T09:42:56.000Z</time>
      </trkpt>
      <trkpt lat="47.53044" lon="6.68375">
        <ele>428.9</ele>
        <time>2017-01-15T09:43:21.000Z</time>
      </trkpt>
      <trkpt lat="47.53044" lon="6.68374">
        <ele>428.6</ele>
        <time>2017-01-15T09:43:22.000Z</time>
      </trkpt>
      <trkpt lat="47.53045" lon="6.6838">
        <ele>429.5</ele>
        <time>2017-01-15T09:44:02.000Z</time>
      </trkpt>
      <trkpt lat="47.53045" lon="6.68381">
        <ele>429.4</ele>
        <time>2017-01-15T09:44:03.000Z</time>
      </trkpt>
      <trkpt lat="47.53049" lon="6.68383">
        <ele>429.4</ele>
        <time>2017-01-15T09:44:06.000Z</time>
      </trkpt>
      <trkpt lat="47.5305" lon="6.68384">
        <ele>429.4</ele>
        <time>2017-01-15T09:44:07.000Z</time>
      </trkpt>
      <trkpt lat="47.53054" lon="6.68382">
        <ele>429.5</ele>
        <time>2017-01-15T09:44:09.000Z</time>
      </trkpt>
      <trkpt lat="47.53056" lon="6.68382">
        <ele>429.5</ele>
        <time>2017-01-15T09:44:10.000Z</time>
      </trkpt>
      <trkpt lat="47.5306" lon="6.68382">
        <ele>429.5</ele>
        <time>2017-01-15T09:44:12.000Z</time>
      </trkpt>
      <trkpt lat="47.53062" lon="6.68383">
        <ele>429.5</ele>
        <time>2017-01-15T09:44:13.000Z</time>
      </trkpt>
      <trkpt lat="47.53065" lon="6.68383">
        <ele>429.5</ele>
        <time>2017-01-15T09:44:15.000Z</time>
      </trkpt>
      <trkpt lat="47.53067" lon="6.68383">
        <ele>429.5</ele>
        <time>2017-01-15T09:44:16.000Z</time>
      </trkpt>
      <trkpt lat="47.53071" lon="6.68383">
        <ele>429.6</ele>
        <time>2017-01-15T09:44:18.000Z</time>
      </trkpt>
      <trkpt lat="47.53073" lon="6.68382">
        <ele>429.7</ele>
        <time>2017-01-15T09:44:19.000Z</time>
      </trkpt>
      <trkpt lat="47.53076" lon="6.68381">
        <ele>429.8</ele>
        <time>2017-01-15T09:44:21.000Z</time>
      </trkpt>
      <trkpt lat="47.53078" lon="6.68381">
        <ele>429.8</ele>
        <time>2017-01-15T09:44:22.000Z</time>
      </trkpt>
      <trkpt lat="47.53082" lon="6.6838">
        <ele>429.9</ele>
        <time>2017-01-15T09:44:24.000Z</time>
      </trkpt>
      <trkpt lat="47.53083" lon="6.6838">
        <ele>430</ele>
        <time>2017-01-15T09:44:25.000Z</time>
      </trkpt>
      <trkpt lat="47.53087" lon="6.68381">
        <ele>430.2</ele>
        <time>2017-01-15T09:44:27.000Z</time>
      </trkpt>
      <trkpt lat="47.53088" lon="6.68381">
        <ele>430.4</ele>
        <time>2017-01-15T09:44:28.000Z</time>
      </trkpt>
      <trkpt lat="47.53092" lon="6.6838">
        <ele>430.5</ele>
        <time>2017-01-15T09:44:31.000Z</time>
      </trkpt>
      <trkpt lat="47.53093" lon="6.6838">
        <ele>430.5</ele>
        <time>2017-01-15T09:44:32.000Z</time>
      </trkpt>
      <trkpt lat="47.53097" lon="6.68379">
        <ele>430.5</ele>
        <time>2017-01-15T09:44:34.000Z</time>
      </trkpt>
      <trkpt lat="47.53099" lon="6.68379">
        <ele>430.5</ele>
        <time>2017-01-15T09:44:35.000Z</time>
      </trkpt>
      <trkpt lat="47.53103" lon="6.68379">
        <ele>430.3</ele>
        <time>2017-01-15T09:44:37.000Z</time>
      </trkpt>
      <trkpt lat="47.53104" lon="6.68378">
        <ele>430.1</ele>
        <time>2017-01-15T09:44:38.000Z</time>
      </trkpt>
      <trkpt lat="47.53108" lon="6.68378">
        <ele>429.8</ele>
        <time>2017-01-15T09:44:41.000Z</time>
      </trkpt>
      <trkpt lat="47.5311" lon="6.68378">
        <ele>429.7</ele>
        <time>2017-01-15T09:44:42.000Z</time>
      </trkpt>
      <trkpt lat="47.53113" lon="6.68378">
        <ele>429.6</ele>
        <time>2017-01-15T09:44:44.000Z</time>
      </trkpt>
      <trkpt lat="47.53115" lon="6.68378">
        <ele>429.5</ele>
        <time>2017-01-15T09:44:45.000Z</time>
      </trkpt>
      <trkpt lat="47.53119" lon="6.68378">
        <ele>429.4</ele>
        <time>2017-01-15T09:44:47.000Z</time>
      </trkpt>
      <trkpt lat="47.5312" lon="6.68378">
        <ele>429.4</ele>
        <time>2017-01-15T09:44:48.000Z</time>
      </trkpt>
      <trkpt lat="47.53124" lon="6.68378">
        <ele>429.4</ele>
        <time>2017-01-15T09:44:50.000Z</time>
      </trkpt>
      <trkpt lat="47.53127" lon="6.68378">
        <ele>429.4</ele>
        <time>2017-01-15T09:44:51.000Z</time>
      </trkpt>
      <trkpt lat="47.53131" lon="6.68379">
        <ele>429.4</ele>
        <time>2017-01-15T09:44:53.000Z</time>
      </trkpt>
      <trkpt lat="47.53133" lon="6.68379">
        <ele>429.5</ele>
        <time>2017-01-15T09:44:54.000Z</time>
      </trkpt>
      <trkpt lat="47.53137" lon="6.68379">
        <ele>429.7</ele>
        <time>2017-01-15T09:44:56.000Z</time>
      </trkpt>
      <trkpt lat="47.53139" lon="6.68379">
        <ele>429.8</ele>
        <time>2017-01-15T09:44:57.000Z</time>
      </trkpt>
      <trkpt lat="47.53143" lon="6.6838">
        <ele>429.8</ele>
        <time>2017-01-15T09:44:59.000Z</time>
      </trkpt>
      <trkpt lat="47.53145" lon="6.68379">
        <ele>429.8</ele>
        <time>2017-01-15T09:45:00.000Z</time>
      </trkpt>
      <trkpt lat="47.53149" lon="6.68379">
        <ele>429.9</ele>
        <time>2017-01-15T09:45:02.000Z</time>
      </trkpt>
      <trkpt lat="47.53151" lon="6.68379">
        <ele>430</ele>
        <time>2017-01-15T09:45:03.000Z</time>
      </trkpt>
      <trkpt lat="47.53154" lon="6.68379">
        <ele>430</ele>
        <time>2017-01-15T09:45:04.000Z</time>
      </trkpt>
      <trkpt lat="47.53156" lon="6.68378">
        <ele>430</ele>
        <time>2017-01-15T09:45:05.000Z</time>
      </trkpt>
      <trkpt lat="47.53159" lon="6.68379">
        <ele>430</ele>
        <time>2017-01-15T09:45:06.000Z</time>
      </trkpt>
      <trkpt lat="47.53162" lon="6.68378">
        <ele>429.9</ele>
        <time>2017-01-15T09:45:07.000Z</time>
      </trkpt>
      <trkpt lat="47.53165" lon="6.68378">
        <ele>429.9</ele>
        <time>2017-01-15T09:45:08.000Z</time>
      </trkpt>
      <trkpt lat="47.53168" lon="6.68378">
        <ele>429.9</ele>
        <time>2017-01-15T09:45:09.000Z</time>
      </trkpt>
      <trkpt lat="47.53171" lon="6.68378">
        <ele>429.8</ele>
        <time>2017-01-15T09:45:10.000Z</time>
      </trkpt>
      <trkpt lat="47.53175" lon="6.68378">
        <ele>429.7</ele>
        <time>2017-01-15T09:45:11.000Z</time>
      </trkpt>
      <trkpt lat="47.53179" lon="6.68376">
        <ele>428.1</ele>
        <time>2017-01-15T09:45:12.000Z</time>
      </trkpt>
      <trkpt lat="47.53184" lon="6.68373">
        <ele>426.5</ele>
        <time>2017-01-15T09:45:13.000Z</time>
      </trkpt>
      <trkpt lat="47.53188" lon="6.68372">
        <ele>425.3</ele>
        <time>2017-01-15T09:45:14.000Z</time>
      </trkpt>
      <trkpt lat="47.53192" lon="6.68372">
        <ele>424.2</ele>
        <time>2017-01-15T09:45:15.000Z</time>
      </trkpt>
      <trkpt lat="47.53196" lon="6.68371">
        <ele>424.1</ele>
        <time>2017-01-15T09:45:16.000Z</time>
      </trkpt>
      <trkpt lat="47.53201" lon="6.68371">
        <ele>423.9</ele>
        <time>2017-01-15T09:45:17.000Z</time>
      </trkpt>
      <trkpt lat="47.53206" lon="6.68371">
        <ele>422.5</ele>
        <time>2017-01-15T09:45:18.000Z</time>
      </trkpt>
      <trkpt lat="47.53213" lon="6.6837">
        <ele>421.2</ele>
        <time>2017-01-15T09:45:19.000Z</time>
      </trkpt>
      <trkpt lat="47.53217" lon="6.6837">
        <ele>419.4</ele>
        <time>2017-01-15T09:45:20.000Z</time>
      </trkpt>
      <trkpt lat="47.53222" lon="6.68371">
        <ele>418.2</ele>
        <time>2017-01-15T09:45:21.000Z</time>
      </trkpt>
      <trkpt lat="47.53228" lon="6.68371">
        <ele>417.4</ele>
        <time>2017-01-15T09:45:22.000Z</time>
      </trkpt>
      <trkpt lat="47.53233" lon="6.6837">
        <ele>416.7</ele>
        <time>2017-01-15T09:45:23.000Z</time>
      </trkpt>
      <trkpt lat="47.53238" lon="6.6837">
        <ele>415.6</ele>
        <time>2017-01-15T09:45:24.000Z</time>
      </trkpt>
      <trkpt lat="47.53241" lon="6.6837">
        <ele>415.4</ele>
        <time>2017-01-15T09:45:25.000Z</time>
      </trkpt>
      <trkpt lat="47.53243" lon="6.68371">
        <ele>415.4</ele>
        <time>2017-01-15T09:45:26.000Z</time>
      </trkpt>
      <trkpt lat="47.53247" lon="6.6837">
        <ele>415.3</ele>
        <time>2017-01-15T09:45:27.000Z</time>
      </trkpt>
      <trkpt lat="47.53251" lon="6.68369">
        <ele>415.2</ele>
        <time>2017-01-15T09:45:28.000Z</time>
      </trkpt>
      <trkpt lat="47.53255" lon="6.68368">
        <ele>415.1</ele>
        <time>2017-01-15T09:45:29.000Z</time>
      </trkpt>
      <trkpt lat="47.53258" lon="6.68368">
        <ele>415</ele>
        <time>2017-01-15T09:45:30.000Z</time>
      </trkpt>
      <trkpt lat="47.53261" lon="6.68368">
        <ele>415</ele>
        <time>2017-01-15T09:45:31.000Z</time>
      </trkpt>
      <trkpt lat="47.53263" lon="6.68368">
        <ele>414.9</ele>
        <time>2017-01-15T09:45:32.000Z</time>
      </trkpt>
      <trkpt lat="47.53266" lon="6.68368">
        <ele>414.8</ele>
        <time>2017-01-15T09:45:34.000Z</time>
      </trkpt>
      <trkpt lat="47.53269" lon="6.68368">
        <ele>414.8</ele>
        <time>2017-01-15T09:45:35.000Z</time>
      </trkpt>
      <trkpt lat="47.53273" lon="6.68369">
        <ele>414.8</ele>
        <time>2017-01-15T09:45:36.000Z</time>
      </trkpt>
      <trkpt lat="47.53276" lon="6.68368">
        <ele>414.7</ele>
        <time>2017-01-15T09:45:37.000Z</time>
      </trkpt>
      <trkpt lat="47.5328" lon="6.68369">
        <ele>414.4</ele>
        <time>2017-01-15T09:45:38.000Z</time>
      </trkpt>
      <trkpt lat="47.53284" lon="6.68369">
        <ele>413.3</ele>
        <time>2017-01-15T09:45:39.000Z</time>
      </trkpt>
      <trkpt lat="47.53288" lon="6.68369">
        <ele>411.9</ele>
        <time>2017-01-15T09:45:40.000Z</time>
      </trkpt>
      <trkpt lat="47.53292" lon="6.68369">
        <ele>410.8</ele>
        <time>2017-01-15T09:45:41.000Z</time>
      </trkpt>
      <trkpt lat="47.53296" lon="6.68369">
        <ele>410.7</ele>
        <time>2017-01-15T09:45:42.000Z</time>
      </trkpt>
      <trkpt lat="47.53299" lon="6.68369">
        <ele>410.6</ele>
        <time>2017-01-15T09:45:43.000Z</time>
      </trkpt>
      <trkpt lat="47.53303" lon="6.6837">
        <ele>410.6</ele>
        <time>2017-01-15T09:45:44.000Z</time>
      </trkpt>
      <trkpt lat="47.53306" lon="6.6837">
        <ele>410.5</ele>
        <time>2017-01-15T09:45:45.000Z</time>
      </trkpt>
      <trkpt lat="47.53309" lon="6.68372">
        <ele>410.4</ele>
        <time>2017-01-15T09:45:46.000Z</time>
      </trkpt>
      <trkpt lat="47.53313" lon="6.68374">
        <ele>410.3</ele>
        <time>2017-01-15T09:45:47.000Z</time>
      </trkpt>
      <trkpt lat="47.53316" lon="6.68375">
        <ele>410.2</ele>
        <time>2017-01-15T09:45:48.000Z</time>
      </trkpt>
      <trkpt lat="47.53319" lon="6.68377">
        <ele>410</ele>
        <time>2017-01-15T09:45:49.000Z</time>
      </trkpt>
      <trkpt lat="47.53321" lon="6.68379">
        <ele>409.9</ele>
        <time>2017-01-15T09:45:50.000Z</time>
      </trkpt>
      <trkpt lat="47.53323" lon="6.68381">
        <ele>409.7</ele>
        <time>2017-01-15T09:45:51.000Z</time>
      </trkpt>
      <trkpt lat="47.53325" lon="6.68383">
        <ele>409.4</ele>
        <time>2017-01-15T09:45:52.000Z</time>
      </trkpt>
      <trkpt lat="47.53328" lon="6.68383">
        <ele>409.2</ele>
        <time>2017-01-15T09:45:53.000Z</time>
      </trkpt>
      <trkpt lat="47.5333" lon="6.68382">
        <ele>409</ele>
        <time>2017-01-15T09:45:54.000Z</time>
      </trkpt>
      <trkpt lat="47.53333" lon="6.68381">
        <ele>408.7</ele>
        <time>2017-01-15T09:45:55.000Z</time>
      </trkpt>
      <trkpt lat="47.53335" lon="6.68381">
        <ele>408.5</ele>
        <time>2017-01-15T09:45:56.000Z</time>
      </trkpt>
      <trkpt lat="47.53338" lon="6.68381">
        <ele>408.3</ele>
        <time>2017-01-15T09:45:57.000Z</time>
      </trkpt>
      <trkpt lat="47.53342" lon="6.68381">
        <ele>408</ele>
        <time>2017-01-15T09:45:58.000Z</time>
      </trkpt>
      <trkpt lat="47.53347" lon="6.68382">
        <ele>407.7</ele>
        <time>2017-01-15T09:45:59.000Z</time>
      </trkpt>
      <trkpt lat="47.5335" lon="6.68383">
        <ele>407.5</ele>
        <time>2017-01-15T09:46:00.000Z</time>
      </trkpt>
      <trkpt lat="47.53354" lon="6.68384">
        <ele>407.3</ele>
        <time>2017-01-15T09:46:01.000Z</time>
      </trkpt>
      <trkpt lat="47.53359" lon="6.68385">
        <ele>407.1</ele>
        <time>2017-01-15T09:46:02.000Z</time>
      </trkpt>
      <trkpt lat="47.53362" lon="6.68386">
        <ele>406.8</ele>
        <time>2017-01-15T09:46:03.000Z</time>
      </trkpt>
      <trkpt lat="47.53364" lon="6.68387">
        <ele>406.6</ele>
        <time>2017-01-15T09:46:04.000Z</time>
      </trkpt>
      <trkpt lat="47.53366" lon="6.68388">
        <ele>406.4</ele>
        <time>2017-01-15T09:46:05.000Z</time>
      </trkpt>
      <trkpt lat="47.53369" lon="6.68389">
        <ele>406.2</ele>
        <time>2017-01-15T09:46:07.000Z</time>
      </trkpt>
      <trkpt lat="47.53371" lon="6.6839">
        <ele>406.1</ele>
        <time>2017-01-15T09:46:08.000Z</time>
      </trkpt>
      <trkpt lat="47.53375" lon="6.68388">
        <ele>405.4</ele>
        <time>2017-01-15T09:46:14.000Z</time>
      </trkpt>
      <trkpt lat="47.53375" lon="6.68386">
        <ele>405.4</ele>
        <time>2017-01-15T09:46:15.000Z</time>
      </trkpt>
      <trkpt lat="47.53376" lon="6.6838">
        <ele>405.2</ele>
        <time>2017-01-15T09:46:19.000Z</time>
      </trkpt>
      <trkpt lat="47.53376" lon="6.68379">
        <ele>405.1</ele>
        <time>2017-01-15T09:46:20.000Z</time>
      </trkpt>
      <trkpt lat="47.53379" lon="6.68374">
        <ele>404.8</ele>
        <time>2017-01-15T09:46:35.000Z</time>
      </trkpt>
      <trkpt lat="47.5338" lon="6.68373">
        <ele>404.9</ele>
        <time>2017-01-15T09:46:36.000Z</time>
      </trkpt>
      <trkpt lat="47.53383" lon="6.68369">
        <ele>405</ele>
        <time>2017-01-15T09:46:40.000Z</time>
      </trkpt>
      <trkpt lat="47.53384" lon="6.68369">
        <ele>405</ele>
        <time>2017-01-15T09:46:41.000Z</time>
      </trkpt>
      <trkpt lat="47.53387" lon="6.68368">
        <ele>405.2</ele>
        <time>2017-01-15T09:46:45.000Z</time>
      </trkpt>
      <trkpt lat="47.53388" lon="6.68368">
        <ele>405.3</ele>
        <time>2017-01-15T09:46:46.000Z</time>
      </trkpt>
      <trkpt lat="47.53391" lon="6.68367">
        <ele>405.6</ele>
        <time>2017-01-15T09:46:50.000Z</time>
      </trkpt>
      <trkpt lat="47.53394" lon="6.68369">
        <ele>405.8</ele>
        <time>2017-01-15T09:46:51.000Z</time>
      </trkpt>
      <trkpt lat="47.53399" lon="6.6837">
        <ele>406.6</ele>
        <time>2017-01-15T09:46:55.000Z</time>
      </trkpt>
      <trkpt lat="47.53399" lon="6.6837">
        <ele>406.8</ele>
        <time>2017-01-15T09:46:56.000Z</time>
      </trkpt>
      <trkpt lat="47.53403" lon="6.68371">
        <ele>407.7</ele>
        <time>2017-01-15T09:47:00.000Z</time>
      </trkpt>
      <trkpt lat="47.53405" lon="6.68371">
        <ele>407.9</ele>
        <time>2017-01-15T09:47:01.000Z</time>
      </trkpt>
      <trkpt lat="47.53409" lon="6.68372">
        <ele>408.2</ele>
        <time>2017-01-15T09:47:03.000Z</time>
      </trkpt>
      <trkpt lat="47.53411" lon="6.68372">
        <ele>408.4</ele>
        <time>2017-01-15T09:47:04.000Z</time>
      </trkpt>
      <trkpt lat="47.53415" lon="6.68373">
        <ele>408.9</ele>
        <time>2017-01-15T09:47:08.000Z</time>
      </trkpt>
      <trkpt lat="47.53417" lon="6.68373">
        <ele>409.1</ele>
        <time>2017-01-15T09:47:09.000Z</time>
      </trkpt>
      <trkpt lat="47.53421" lon="6.68374">
        <ele>409.8</ele>
        <time>2017-01-15T09:47:13.000Z</time>
      </trkpt>
      <trkpt lat="47.53422" lon="6.68374">
        <ele>410</ele>
        <time>2017-01-15T09:47:14.000Z</time>
      </trkpt>
      <trkpt lat="47.53425" lon="6.68373">
        <ele>410.3</ele>
        <time>2017-01-15T09:47:17.000Z</time>
      </trkpt>
      <trkpt lat="47.53429" lon="6.68374">
        <ele>410.5</ele>
        <time>2017-01-15T09:47:18.000Z</time>
      </trkpt>
      <trkpt lat="47.53431" lon="6.68375">
        <ele>410.7</ele>
        <time>2017-01-15T09:47:19.000Z</time>
      </trkpt>
      <trkpt lat="47.53434" lon="6.68376">
        <ele>411</ele>
        <time>2017-01-15T09:47:20.000Z</time>
      </trkpt>
      <trkpt lat="47.53437" lon="6.68377">
        <ele>411.3</ele>
        <time>2017-01-15T09:47:21.000Z</time>
      </trkpt>
      <trkpt lat="47.53439" lon="6.68378">
        <ele>411.5</ele>
        <time>2017-01-15T09:47:22.000Z</time>
      </trkpt>
      <trkpt lat="47.53443" lon="6.68378">
        <ele>412</ele>
        <time>2017-01-15T09:47:24.000Z</time>
      </trkpt>
      <trkpt lat="47.53445" lon="6.68378">
        <ele>412.2</ele>
        <time>2017-01-15T09:47:25.000Z</time>
      </trkpt>
      <trkpt lat="47.53448" lon="6.68379">
        <ele>412.5</ele>
        <time>2017-01-15T09:47:26.000Z</time>
      </trkpt>
      <trkpt lat="47.53451" lon="6.6838">
        <ele>412.7</ele>
        <time>2017-01-15T09:47:27.000Z</time>
      </trkpt>
      <trkpt lat="47.53453" lon="6.68379">
        <ele>412.9</ele>
        <time>2017-01-15T09:47:28.000Z</time>
      </trkpt>
      <trkpt lat="47.53456" lon="6.68378">
        <ele>413</ele>
        <time>2017-01-15T09:47:29.000Z</time>
      </trkpt>
      <trkpt lat="47.53458" lon="6.68377">
        <ele>413.1</ele>
        <time>2017-01-15T09:47:30.000Z</time>
      </trkpt>
      <trkpt lat="47.5346" lon="6.68375">
        <ele>413.2</ele>
        <time>2017-01-15T09:47:31.000Z</time>
      </trkpt>
      <trkpt lat="47.53463" lon="6.6837">
        <ele>413.5</ele>
        <time>2017-01-15T09:47:33.000Z</time>
      </trkpt>
      <trkpt lat="47.53464" lon="6.68368">
        <ele>413.6</ele>
        <time>2017-01-15T09:47:34.000Z</time>
      </trkpt>
      <trkpt lat="47.53467" lon="6.68364">
        <ele>413.7</ele>
        <time>2017-01-15T09:47:37.000Z</time>
      </trkpt>
      <trkpt lat="47.53468" lon="6.68363">
        <ele>413.7</ele>
        <time>2017-01-15T09:47:38.000Z</time>
      </trkpt>
      <trkpt lat="47.5347" lon="6.68361">
        <ele>413.7</ele>
        <time>2017-01-15T09:47:39.000Z</time>
      </trkpt>
      <trkpt lat="47.53472" lon="6.68359">
        <ele>413.7</ele>
        <time>2017-01-15T09:47:40.000Z</time>
      </trkpt>
      <trkpt lat="47.53475" lon="6.68357">
        <ele>413.7</ele>
        <time>2017-01-15T09:47:41.000Z</time>
      </trkpt>
      <trkpt lat="47.53477" lon="6.68355">
        <ele>413.6</ele>
        <time>2017-01-15T09:47:42.000Z</time>
      </trkpt>
      <trkpt lat="47.53479" lon="6.68353">
        <ele>413.5</ele>
        <time>2017-01-15T09:47:43.000Z</time>
      </trkpt>
      <trkpt lat="47.53481" lon="6.68352">
        <ele>413.5</ele>
        <time>2017-01-15T09:47:44.000Z</time>
      </trkpt>
      <trkpt lat="47.53485" lon="6.68354">
        <ele>413.7</ele>
        <time>2017-01-15T09:47:47.000Z</time>
      </trkpt>
      <trkpt lat="47.53487" lon="6.68354">
        <ele>413.7</ele>
        <time>2017-01-15T09:47:48.000Z</time>
      </trkpt>
      <trkpt lat="47.53491" lon="6.68355">
        <ele>413.8</ele>
        <time>2017-01-15T09:47:50.000Z</time>
      </trkpt>
      <trkpt lat="47.53493" lon="6.68357">
        <ele>413.9</ele>
        <time>2017-01-15T09:47:51.000Z</time>
      </trkpt>
      <trkpt lat="47.53497" lon="6.68358">
        <ele>414.1</ele>
        <time>2017-01-15T09:47:54.000Z</time>
      </trkpt>
      <trkpt lat="47.53499" lon="6.68359">
        <ele>414.2</ele>
        <time>2017-01-15T09:47:55.000Z</time>
      </trkpt>
      <trkpt lat="47.53503" lon="6.6836">
        <ele>414.2</ele>
        <time>2017-01-15T09:47:57.000Z</time>
      </trkpt>
      <trkpt lat="47.53505" lon="6.6836">
        <ele>414.2</ele>
        <time>2017-01-15T09:47:58.000Z</time>
      </trkpt>
      <trkpt lat="47.53509" lon="6.68362">
        <ele>414.3</ele>
        <time>2017-01-15T09:48:00.000Z</time>
      </trkpt>
      <trkpt lat="47.53511" lon="6.68362">
        <ele>414.4</ele>
        <time>2017-01-15T09:48:01.000Z</time>
      </trkpt>
      <trkpt lat="47.53514" lon="6.68363">
        <ele>414.5</ele>
        <time>2017-01-15T09:48:02.000Z</time>
      </trkpt>
      <trkpt lat="47.53517" lon="6.68362">
        <ele>414.5</ele>
        <time>2017-01-15T09:48:03.000Z</time>
      </trkpt>
      <trkpt lat="47.53521" lon="6.68362">
        <ele>414.6</ele>
        <time>2017-01-15T09:48:05.000Z</time>
      </trkpt>
      <trkpt lat="47.53523" lon="6.68361">
        <ele>414.6</ele>
        <time>2017-01-15T09:48:06.000Z</time>
      </trkpt>
      <trkpt lat="47.53526" lon="6.6836">
        <ele>414.6</ele>
        <time>2017-01-15T09:48:07.000Z</time>
      </trkpt>
      <trkpt lat="47.53529" lon="6.68359">
        <ele>414.6</ele>
        <time>2017-01-15T09:48:08.000Z</time>
      </trkpt>
      <trkpt lat="47.53532" lon="6.68359">
        <ele>414.6</ele>
        <time>2017-01-15T09:48:09.000Z</time>
      </trkpt>
      <trkpt lat="47.53535" lon="6.68358">
        <ele>414.6</ele>
        <time>2017-01-15T09:48:10.000Z</time>
      </trkpt>
      <trkpt lat="47.53538" lon="6.68357">
        <ele>414.6</ele>
        <time>2017-01-15T09:48:11.000Z</time>
      </trkpt>
      <trkpt lat="47.53541" lon="6.68355">
        <ele>414.7</ele>
        <time>2017-01-15T09:48:12.000Z</time>
      </trkpt>
      <trkpt lat="47.53544" lon="6.68354">
        <ele>414.7</ele>
        <time>2017-01-15T09:48:13.000Z</time>
      </trkpt>
      <trkpt lat="47.53546" lon="6.68351">
        <ele>414.7</ele>
        <time>2017-01-15T09:48:14.000Z</time>
      </trkpt>
      <trkpt lat="47.53549" lon="6.68348">
        <ele>414.7</ele>
        <time>2017-01-15T09:48:15.000Z</time>
      </trkpt>
      <trkpt lat="47.53552" lon="6.68348">
        <ele>414.7</ele>
        <time>2017-01-15T09:48:16.000Z</time>
      </trkpt>
      <trkpt lat="47.53554" lon="6.68346">
        <ele>414.6</ele>
        <time>2017-01-15T09:48:17.000Z</time>
      </trkpt>
      <trkpt lat="47.53556" lon="6.68343">
        <ele>414.5</ele>
        <time>2017-01-15T09:48:18.000Z</time>
      </trkpt>
      <trkpt lat="47.53557" lon="6.68341">
        <ele>414.4</ele>
        <time>2017-01-15T09:48:19.000Z</time>
      </trkpt>
      <trkpt lat="47.5356" lon="6.68338">
        <ele>414.2</ele>
        <time>2017-01-15T09:48:20.000Z</time>
      </trkpt>
      <trkpt lat="47.53562" lon="6.68335">
        <ele>414.1</ele>
        <time>2017-01-15T09:48:21.000Z</time>
      </trkpt>
      <trkpt lat="47.53564" lon="6.68332">
        <ele>413.9</ele>
        <time>2017-01-15T09:48:22.000Z</time>
      </trkpt>
      <trkpt lat="47.53567" lon="6.6833">
        <ele>413.8</ele>
        <time>2017-01-15T09:48:23.000Z</time>
      </trkpt>
      <trkpt lat="47.53569" lon="6.68328">
        <ele>413.7</ele>
        <time>2017-01-15T09:48:24.000Z</time>
      </trkpt>
      <trkpt lat="47.53573" lon="6.68329">
        <ele>413.5</ele>
        <time>2017-01-15T09:48:27.000Z</time>
      </trkpt>
      <trkpt lat="47.53574" lon="6.6833">
        <ele>413.6</ele>
        <time>2017-01-15T09:48:28.000Z</time>
      </trkpt>
      <trkpt lat="47.53577" lon="6.68332">
        <ele>413.7</ele>
        <time>2017-01-15T09:48:31.000Z</time>
      </trkpt>
      <trkpt lat="47.53579" lon="6.68333">
        <ele>413.6</ele>
        <time>2017-01-15T09:48:32.000Z</time>
      </trkpt>
      <trkpt lat="47.53581" lon="6.68334">
        <ele>413.5</ele>
        <time>2017-01-15T09:48:33.000Z</time>
      </trkpt>
      <trkpt lat="47.53584" lon="6.68335">
        <ele>413.4</ele>
        <time>2017-01-15T09:48:34.000Z</time>
      </trkpt>
      <trkpt lat="47.53588" lon="6.68335">
        <ele>413.1</ele>
        <time>2017-01-15T09:48:36.000Z</time>
      </trkpt>
      <trkpt lat="47.5359" lon="6.68334">
        <ele>412.9</ele>
        <time>2017-01-15T09:48:37.000Z</time>
      </trkpt>
      <trkpt lat="47.53594" lon="6.68334">
        <ele>412.8</ele>
        <time>2017-01-15T09:48:40.000Z</time>
      </trkpt>
      <trkpt lat="47.53596" lon="6.68335">
        <ele>412.8</ele>
        <time>2017-01-15T09:48:41.000Z</time>
      </trkpt>
      <trkpt lat="47.536" lon="6.68334">
        <ele>412.8</ele>
        <time>2017-01-15T09:48:43.000Z</time>
      </trkpt>
      <trkpt lat="47.53604" lon="6.68334">
        <ele>412.8</ele>
        <time>2017-01-15T09:48:44.000Z</time>
      </trkpt>
      <trkpt lat="47.53608" lon="6.68333">
        <ele>412.9</ele>
        <time>2017-01-15T09:48:45.000Z</time>
      </trkpt>
      <trkpt lat="47.53611" lon="6.68332">
        <ele>412.9</ele>
        <time>2017-01-15T09:48:46.000Z</time>
      </trkpt>
      <trkpt lat="47.53614" lon="6.6833">
        <ele>412.9</ele>
        <time>2017-01-15T09:48:47.000Z</time>
      </trkpt>
      <trkpt lat="47.53617" lon="6.68329">
        <ele>412.9</ele>
        <time>2017-01-15T09:48:48.000Z</time>
      </trkpt>
      <trkpt lat="47.5362" lon="6.68327">
        <ele>412.9</ele>
        <time>2017-01-15T09:48:49.000Z</time>
      </trkpt>
      <trkpt lat="47.53622" lon="6.68326">
        <ele>413</ele>
        <time>2017-01-15T09:48:50.000Z</time>
      </trkpt>
      <trkpt lat="47.53625" lon="6.68324">
        <ele>412.9</ele>
        <time>2017-01-15T09:48:52.000Z</time>
      </trkpt>
      <trkpt lat="47.53627" lon="6.68324">
        <ele>412.9</ele>
        <time>2017-01-15T09:48:53.000Z</time>
      </trkpt>
      <trkpt lat="47.53628" lon="6.68324">
        <ele>412.9</ele>
        <time>2017-01-15T09:48:54.000Z</time>
      </trkpt>
      <trkpt lat="47.53631" lon="6.68323">
        <ele>412.9</ele>
        <time>2017-01-15T09:48:55.000Z</time>
      </trkpt>
      <trkpt lat="47.53634" lon="6.68321">
        <ele>412.9</ele>
        <time>2017-01-15T09:48:56.000Z</time>
      </trkpt>
      <trkpt lat="47.53637" lon="6.6832">
        <ele>412.8</ele>
        <time>2017-01-15T09:48:57.000Z</time>
      </trkpt>
      <trkpt lat="47.5364" lon="6.68318">
        <ele>412.7</ele>
        <time>2017-01-15T09:48:58.000Z</time>
      </trkpt>
      <trkpt lat="47.53643" lon="6.68316">
        <ele>412.5</ele>
        <time>2017-01-15T09:48:59.000Z</time>
      </trkpt>
      <trkpt lat="47.53645" lon="6.68315">
        <ele>412.3</ele>
        <time>2017-01-15T09:49:00.000Z</time>
      </trkpt>
      <trkpt lat="47.53648" lon="6.68312">
        <ele>412.1</ele>
        <time>2017-01-15T09:49:01.000Z</time>
      </trkpt>
      <trkpt lat="47.53651" lon="6.68311">
        <ele>411.8</ele>
        <time>2017-01-15T09:49:02.000Z</time>
      </trkpt>
      <trkpt lat="47.53654" lon="6.6831">
        <ele>411.5</ele>
        <time>2017-01-15T09:49:03.000Z</time>
      </trkpt>
      <trkpt lat="47.53657" lon="6.68309">
        <ele>411.4</ele>
        <time>2017-01-15T09:49:04.000Z</time>
      </trkpt>
      <trkpt lat="47.53659" lon="6.68308">
        <ele>411.1</ele>
        <time>2017-01-15T09:49:05.000Z</time>
      </trkpt>
      <trkpt lat="47.53662" lon="6.68307">
        <ele>411.1</ele>
        <time>2017-01-15T09:49:06.000Z</time>
      </trkpt>
      <trkpt lat="47.53665" lon="6.68307">
        <ele>411</ele>
        <time>2017-01-15T09:49:07.000Z</time>
      </trkpt>
      <trkpt lat="47.53669" lon="6.68306">
        <ele>411</ele>
        <time>2017-01-15T09:49:10.000Z</time>
      </trkpt>
      <trkpt lat="47.53671" lon="6.68305">
        <ele>411.2</ele>
        <time>2017-01-15T09:49:11.000Z</time>
      </trkpt>
      <trkpt lat="47.53674" lon="6.68305">
        <ele>411.8</ele>
        <time>2017-01-15T09:49:14.000Z</time>
      </trkpt>
      <trkpt lat="47.53675" lon="6.68305">
        <ele>412</ele>
        <time>2017-01-15T09:49:15.000Z</time>
      </trkpt>
      <trkpt lat="47.5368" lon="6.68306">
        <ele>412.4</ele>
        <time>2017-01-15T09:49:18.000Z</time>
      </trkpt>
      <trkpt lat="47.53681" lon="6.68307">
        <ele>412.6</ele>
        <time>2017-01-15T09:49:19.000Z</time>
      </trkpt>
      <trkpt lat="47.53684" lon="6.68309">
        <ele>412.8</ele>
        <time>2017-01-15T09:49:21.000Z</time>
      </trkpt>
      <trkpt lat="47.53689" lon="6.68314">
        <ele>412.9</ele>
        <time>2017-01-15T09:49:22.000Z</time>
      </trkpt>
      <trkpt lat="47.53693" lon="6.68316">
        <ele>412.9</ele>
        <time>2017-01-15T09:49:23.000Z</time>
      </trkpt>
      <trkpt lat="47.53695" lon="6.68316">
        <ele>413</ele>
        <time>2017-01-15T09:49:24.000Z</time>
      </trkpt>
      <trkpt lat="47.53697" lon="6.68316">
        <ele>413.1</ele>
        <time>2017-01-15T09:49:25.000Z</time>
      </trkpt>
      <trkpt lat="47.53699" lon="6.68316">
        <ele>413.1</ele>
        <time>2017-01-15T09:49:26.000Z</time>
      </trkpt>
      <trkpt lat="47.53703" lon="6.68316">
        <ele>413.2</ele>
        <time>2017-01-15T09:49:28.000Z</time>
      </trkpt>
      <trkpt lat="47.53705" lon="6.68315">
        <ele>413.3</ele>
        <time>2017-01-15T09:49:29.000Z</time>
      </trkpt>
      <trkpt lat="47.53708" lon="6.68314">
        <ele>413.3</ele>
        <time>2017-01-15T09:49:30.000Z</time>
      </trkpt>
      <trkpt lat="47.53711" lon="6.68313">
        <ele>413.4</ele>
        <time>2017-01-15T09:49:31.000Z</time>
      </trkpt>
      <trkpt lat="47.53714" lon="6.68312">
        <ele>413.4</ele>
        <time>2017-01-15T09:49:32.000Z</time>
      </trkpt>
      <trkpt lat="47.53716" lon="6.68311">
        <ele>413.4</ele>
        <time>2017-01-15T09:49:33.000Z</time>
      </trkpt>
      <trkpt lat="47.5372" lon="6.68309">
        <ele>413.5</ele>
        <time>2017-01-15T09:49:34.000Z</time>
      </trkpt>
      <trkpt lat="47.53722" lon="6.68307">
        <ele>413.5</ele>
        <time>2017-01-15T09:49:35.000Z</time>
      </trkpt>
      <trkpt lat="47.53725" lon="6.68305">
        <ele>413.6</ele>
        <time>2017-01-15T09:49:36.000Z</time>
      </trkpt>
      <trkpt lat="47.53728" lon="6.68302">
        <ele>413.7</ele>
        <time>2017-01-15T09:49:37.000Z</time>
      </trkpt>
      <trkpt lat="47.5373" lon="6.68298">
        <ele>413.7</ele>
        <time>2017-01-15T09:49:38.000Z</time>
      </trkpt>
      <trkpt lat="47.53732" lon="6.68296">
        <ele>413.8</ele>
        <time>2017-01-15T09:49:39.000Z</time>
      </trkpt>
      <trkpt lat="47.53734" lon="6.68294">
        <ele>413.8</ele>
        <time>2017-01-15T09:49:40.000Z</time>
      </trkpt>
      <trkpt lat="47.53736" lon="6.68292">
        <ele>413.9</ele>
        <time>2017-01-15T09:49:41.000Z</time>
      </trkpt>
      <trkpt lat="47.5374" lon="6.68289">
        <ele>414.1</ele>
        <time>2017-01-15T09:49:43.000Z</time>
      </trkpt>
      <trkpt lat="47.53742" lon="6.68288">
        <ele>414.2</ele>
        <time>2017-01-15T09:49:44.000Z</time>
      </trkpt>
      <trkpt lat="47.53744" lon="6.68286">
        <ele>414.5</ele>
        <time>2017-01-15T09:49:45.000Z</time>
      </trkpt>
      <trkpt lat="47.53747" lon="6.68284">
        <ele>414.6</ele>
        <time>2017-01-15T09:49:46.000Z</time>
      </trkpt>
      <trkpt lat="47.5375" lon="6.68281">
        <ele>414.8</ele>
        <time>2017-01-15T09:49:47.000Z</time>
      </trkpt>
      <trkpt lat="47.53752" lon="6.68278">
        <ele>414.8</ele>
        <time>2017-01-15T09:49:48.000Z</time>
      </trkpt>
      <trkpt lat="47.53754" lon="6.68275">
        <ele>414.9</ele>
        <time>2017-01-15T09:49:49.000Z</time>
      </trkpt>
      <trkpt lat="47.53757" lon="6.68273">
        <ele>414.9</ele>
        <time>2017-01-15T09:49:50.000Z</time>
      </trkpt>
      <trkpt lat="47.53759" lon="6.6827">
        <ele>414.9</ele>
        <time>2017-01-15T09:49:51.000Z</time>
      </trkpt>
      <trkpt lat="47.53761" lon="6.68266">
        <ele>415.1</ele>
        <time>2017-01-15T09:49:52.000Z</time>
      </trkpt>
      <trkpt lat="47.53761" lon="6.68263">
        <ele>415.3</ele>
        <time>2017-01-15T09:49:53.000Z</time>
      </trkpt>
      <trkpt lat="47.5376" lon="6.6826">
        <ele>415.5</ele>
        <time>2017-01-15T09:49:54.000Z</time>
      </trkpt>
      <trkpt lat="47.53758" lon="6.68256">
        <ele>415.8</ele>
        <time>2017-01-15T09:49:55.000Z</time>
      </trkpt>
      <trkpt lat="47.53757" lon="6.68253">
        <ele>416.1</ele>
        <time>2017-01-15T09:49:56.000Z</time>
      </trkpt>
      <trkpt lat="47.53754" lon="6.68248">
        <ele>416.5</ele>
        <time>2017-01-15T09:49:58.000Z</time>
      </trkpt>
      <trkpt lat="47.53753" lon="6.68246">
        <ele>416.7</ele>
        <time>2017-01-15T09:49:59.000Z</time>
      </trkpt>
      <trkpt lat="47.53752" lon="6.68242">
        <ele>417.2</ele>
        <time>2017-01-15T09:50:01.000Z</time>
      </trkpt>
      <trkpt lat="47.53751" lon="6.6824">
        <ele>417.4</ele>
        <time>2017-01-15T09:50:02.000Z</time>
      </trkpt>
      <trkpt lat="47.53751" lon="6.68235">
        <ele>417.7</ele>
        <time>2017-01-15T09:50:04.000Z</time>
      </trkpt>
      <trkpt lat="47.53751" lon="6.68233">
        <ele>417.9</ele>
        <time>2017-01-15T09:50:05.000Z</time>
      </trkpt>
      <trkpt lat="47.5375" lon="6.6823">
        <ele>418</ele>
        <time>2017-01-15T09:50:06.000Z</time>
      </trkpt>
      <trkpt lat="47.53748" lon="6.68227">
        <ele>418</ele>
        <time>2017-01-15T09:50:07.000Z</time>
      </trkpt>
      <trkpt lat="47.53747" lon="6.68222">
        <ele>418</ele>
        <time>2017-01-15T09:50:09.000Z</time>
      </trkpt>
      <trkpt lat="47.53745" lon="6.68219">
        <ele>417.9</ele>
        <time>2017-01-15T09:50:10.000Z</time>
      </trkpt>
      <trkpt lat="47.53744" lon="6.68216">
        <ele>417.9</ele>
        <time>2017-01-15T09:50:11.000Z</time>
      </trkpt>
      <trkpt lat="47.53743" lon="6.68212">
        <ele>417.7</ele>
        <time>2017-01-15T09:50:12.000Z</time>
      </trkpt>
      <trkpt lat="47.53743" lon="6.68208">
        <ele>417.6</ele>
        <time>2017-01-15T09:50:13.000Z</time>
      </trkpt>
      <trkpt lat="47.53743" lon="6.68205">
        <ele>417.5</ele>
        <time>2017-01-15T09:50:14.000Z</time>
      </trkpt>
      <trkpt lat="47.53743" lon="6.68199">
        <ele>417.3</ele>
        <time>2017-01-15T09:50:16.000Z</time>
      </trkpt>
      <trkpt lat="47.53744" lon="6.68197">
        <ele>417.1</ele>
        <time>2017-01-15T09:50:17.000Z</time>
      </trkpt>
      <trkpt lat="47.53746" lon="6.68194">
        <ele>416.9</ele>
        <time>2017-01-15T09:50:18.000Z</time>
      </trkpt>
      <trkpt lat="47.53747" lon="6.68189">
        <ele>416.8</ele>
        <time>2017-01-15T09:50:19.000Z</time>
      </trkpt>
      <trkpt lat="47.53749" lon="6.68185">
        <ele>416.6</ele>
        <time>2017-01-15T09:50:20.000Z</time>
      </trkpt>
      <trkpt lat="47.53749" lon="6.68182">
        <ele>416.4</ele>
        <time>2017-01-15T09:50:21.000Z</time>
      </trkpt>
      <trkpt lat="47.5375" lon="6.68178">
        <ele>416.1</ele>
        <time>2017-01-15T09:50:22.000Z</time>
      </trkpt>
      <trkpt lat="47.53751" lon="6.68175">
        <ele>415.8</ele>
        <time>2017-01-15T09:50:23.000Z</time>
      </trkpt>
      <trkpt lat="47.53752" lon="6.68171">
        <ele>415.5</ele>
        <time>2017-01-15T09:50:24.000Z</time>
      </trkpt>
      <trkpt lat="47.53752" lon="6.68167">
        <ele>415.1</ele>
        <time>2017-01-15T09:50:25.000Z</time>
      </trkpt>
      <trkpt lat="47.53752" lon="6.68163">
        <ele>414.8</ele>
        <time>2017-01-15T09:50:26.000Z</time>
      </trkpt>
      <trkpt lat="47.53752" lon="6.68159">
        <ele>414.6</ele>
        <time>2017-01-15T09:50:27.000Z</time>
      </trkpt>
      <trkpt lat="47.53752" lon="6.68155">
        <ele>414.4</ele>
        <time>2017-01-15T09:50:28.000Z</time>
      </trkpt>
      <trkpt lat="47.53751" lon="6.68153">
        <ele>414.2</ele>
        <time>2017-01-15T09:50:29.000Z</time>
      </trkpt>
      <trkpt lat="47.53751" lon="6.68148">
        <ele>414</ele>
        <time>2017-01-15T09:50:30.000Z</time>
      </trkpt>
      <trkpt lat="47.5375" lon="6.68143">
        <ele>413.8</ele>
        <time>2017-01-15T09:50:31.000Z</time>
      </trkpt>
      <trkpt lat="47.53749" lon="6.68134">
        <ele>413.9</ele>
        <time>2017-01-15T09:50:32.000Z</time>
      </trkpt>
      <trkpt lat="47.53748" lon="6.68124">
        <ele>414.1</ele>
        <time>2017-01-15T09:50:33.000Z</time>
      </trkpt>
      <trkpt lat="47.53746" lon="6.68116">
        <ele>414.3</ele>
        <time>2017-01-15T09:50:34.000Z</time>
      </trkpt>
      <trkpt lat="47.53745" lon="6.68109">
        <ele>414.6</ele>
        <time>2017-01-15T09:50:35.000Z</time>
      </trkpt>
      <trkpt lat="47.53744" lon="6.681">
        <ele>414.9</ele>
        <time>2017-01-15T09:50:36.000Z</time>
      </trkpt>
      <trkpt lat="47.53744" lon="6.68094">
        <ele>415.2</ele>
        <time>2017-01-15T09:50:37.000Z</time>
      </trkpt>
      <trkpt lat="47.53745" lon="6.68088">
        <ele>415.6</ele>
        <time>2017-01-15T09:50:38.000Z</time>
      </trkpt>
      <trkpt lat="47.53746" lon="6.68082">
        <ele>415.9</ele>
        <time>2017-01-15T09:50:39.000Z</time>
      </trkpt>
      <trkpt lat="47.53748" lon="6.68078">
        <ele>416.2</ele>
        <time>2017-01-15T09:50:40.000Z</time>
      </trkpt>
      <trkpt lat="47.5375" lon="6.68075">
        <ele>416.4</ele>
        <time>2017-01-15T09:50:41.000Z</time>
      </trkpt>
      <trkpt lat="47.53754" lon="6.68074">
        <ele>416.7</ele>
        <time>2017-01-15T09:50:42.000Z</time>
      </trkpt>
      <trkpt lat="47.53756" lon="6.68074">
        <ele>417.6</ele>
        <time>2017-01-15T09:50:50.000Z</time>
      </trkpt>
      <trkpt lat="47.53758" lon="6.68074">
        <ele>417.8</ele>
        <time>2017-01-15T09:50:51.000Z</time>
      </trkpt>
      <trkpt lat="47.53766" lon="6.68073">
        <ele>417.9</ele>
        <time>2017-01-15T09:50:52.000Z</time>
      </trkpt>
      <trkpt lat="47.53771" lon="6.68074">
        <ele>418</ele>
        <time>2017-01-15T09:50:53.000Z</time>
      </trkpt>
      <trkpt lat="47.53777" lon="6.68074">
        <ele>418</ele>
        <time>2017-01-15T09:50:54.000Z</time>
      </trkpt>
      <trkpt lat="47.53783" lon="6.68075">
        <ele>418</ele>
        <time>2017-01-15T09:50:55.000Z</time>
      </trkpt>
      <trkpt lat="47.53789" lon="6.68076">
        <ele>418</ele>
        <time>2017-01-15T09:50:56.000Z</time>
      </trkpt>
      <trkpt lat="47.53793" lon="6.68077">
        <ele>418.1</ele>
        <time>2017-01-15T09:50:57.000Z</time>
      </trkpt>
      <trkpt lat="47.53797" lon="6.68078">
        <ele>418.3</ele>
        <time>2017-01-15T09:50:58.000Z</time>
      </trkpt>
      <trkpt lat="47.53801" lon="6.6808">
        <ele>418.4</ele>
        <time>2017-01-15T09:50:59.000Z</time>
      </trkpt>
      <trkpt lat="47.53803" lon="6.68082">
        <ele>418.5</ele>
        <time>2017-01-15T09:51:00.000Z</time>
      </trkpt>
      <trkpt lat="47.53805" lon="6.68083">
        <ele>418.7</ele>
        <time>2017-01-15T09:51:01.000Z</time>
      </trkpt>
      <trkpt lat="47.53807" lon="6.68085">
        <ele>418.7</ele>
        <time>2017-01-15T09:51:02.000Z</time>
      </trkpt>
      <trkpt lat="47.5381" lon="6.68088">
        <ele>418.8</ele>
        <time>2017-01-15T09:51:05.000Z</time>
      </trkpt>
      <trkpt lat="47.53813" lon="6.68089">
        <ele>418.8</ele>
        <time>2017-01-15T09:51:06.000Z</time>
      </trkpt>
      <trkpt lat="47.53816" lon="6.68088">
        <ele>418.9</ele>
        <time>2017-01-15T09:51:07.000Z</time>
      </trkpt>
      <trkpt lat="47.53818" lon="6.68088">
        <ele>419</ele>
        <time>2017-01-15T09:51:08.000Z</time>
      </trkpt>
      <trkpt lat="47.53822" lon="6.68089">
        <ele>419.3</ele>
        <time>2017-01-15T09:51:10.000Z</time>
      </trkpt>
      <trkpt lat="47.53824" lon="6.68089">
        <ele>419.4</ele>
        <time>2017-01-15T09:51:11.000Z</time>
      </trkpt>
      <trkpt lat="47.53828" lon="6.6809">
        <ele>419.6</ele>
        <time>2017-01-15T09:51:13.000Z</time>
      </trkpt>
      <trkpt lat="47.53831" lon="6.68089">
        <ele>419.8</ele>
        <time>2017-01-15T09:51:14.000Z</time>
      </trkpt>
      <trkpt lat="47.53833" lon="6.68089">
        <ele>419.9</ele>
        <time>2017-01-15T09:51:15.000Z</time>
      </trkpt>
      <trkpt lat="47.53836" lon="6.68088">
        <ele>420</ele>
        <time>2017-01-15T09:51:16.000Z</time>
      </trkpt>
      <trkpt lat="47.53839" lon="6.68088">
        <ele>420.1</ele>
        <time>2017-01-15T09:51:17.000Z</time>
      </trkpt>
      <trkpt lat="47.53842" lon="6.68088">
        <ele>420.3</ele>
        <time>2017-01-15T09:51:18.000Z</time>
      </trkpt>
      <trkpt lat="47.53845" lon="6.68089">
        <ele>420.4</ele>
        <time>2017-01-15T09:51:19.000Z</time>
      </trkpt>
      <trkpt lat="47.53847" lon="6.68088">
        <ele>420.5</ele>
        <time>2017-01-15T09:51:20.000Z</time>
      </trkpt>
      <trkpt lat="47.5385" lon="6.68087">
        <ele>420.6</ele>
        <time>2017-01-15T09:51:21.000Z</time>
      </trkpt>
      <trkpt lat="47.53853" lon="6.68084">
        <ele>420.7</ele>
        <time>2017-01-15T09:51:22.000Z</time>
      </trkpt>
      <trkpt lat="47.53857" lon="6.68081">
        <ele>420.9</ele>
        <time>2017-01-15T09:51:23.000Z</time>
      </trkpt>
      <trkpt lat="47.53861" lon="6.68078">
        <ele>421</ele>
        <time>2017-01-15T09:51:24.000Z</time>
      </trkpt>
      <trkpt lat="47.53864" lon="6.68074">
        <ele>421.1</ele>
        <time>2017-01-15T09:51:25.000Z</time>
      </trkpt>
      <trkpt lat="47.53868" lon="6.68072">
        <ele>421.3</ele>
        <time>2017-01-15T09:51:26.000Z</time>
      </trkpt>
      <trkpt lat="47.5387" lon="6.68069">
        <ele>421.3</ele>
        <time>2017-01-15T09:51:27.000Z</time>
      </trkpt>
      <trkpt lat="47.53873" lon="6.68068">
        <ele>421.4</ele>
        <time>2017-01-15T09:51:28.000Z</time>
      </trkpt>
      <trkpt lat="47.53876" lon="6.68066">
        <ele>421.4</ele>
        <time>2017-01-15T09:51:29.000Z</time>
      </trkpt>
      <trkpt lat="47.53878" lon="6.68065">
        <ele>421.5</ele>
        <time>2017-01-15T09:51:30.000Z</time>
      </trkpt>
      <trkpt lat="47.53881" lon="6.68061">
        <ele>421.5</ele>
        <time>2017-01-15T09:51:32.000Z</time>
      </trkpt>
      <trkpt lat="47.53883" lon="6.6806">
        <ele>421.6</ele>
        <time>2017-01-15T09:51:33.000Z</time>
      </trkpt>
      <trkpt lat="47.53886" lon="6.68056">
        <ele>421.5</ele>
        <time>2017-01-15T09:51:35.000Z</time>
      </trkpt>
      <trkpt lat="47.53887" lon="6.68054">
        <ele>421.5</ele>
        <time>2017-01-15T09:51:36.000Z</time>
      </trkpt>
      <trkpt lat="47.53888" lon="6.68048">
        <ele>421.5</ele>
        <time>2017-01-15T09:51:39.000Z</time>
      </trkpt>
      <trkpt lat="47.53887" lon="6.68043">
        <ele>421.6</ele>
        <time>2017-01-15T09:51:40.000Z</time>
      </trkpt>
      <trkpt lat="47.53887" lon="6.68038">
        <ele>421.6</ele>
        <time>2017-01-15T09:51:41.000Z</time>
      </trkpt>
      <trkpt lat="47.53886" lon="6.68033">
        <ele>421.6</ele>
        <time>2017-01-15T09:51:42.000Z</time>
      </trkpt>
      <trkpt lat="47.53884" lon="6.68029">
        <ele>421.5</ele>
        <time>2017-01-15T09:51:43.000Z</time>
      </trkpt>
      <trkpt lat="47.53881" lon="6.68024">
        <ele>421.5</ele>
        <time>2017-01-15T09:51:44.000Z</time>
      </trkpt>
      <trkpt lat="47.53878" lon="6.68018">
        <ele>421.7</ele>
        <time>2017-01-15T09:51:45.000Z</time>
      </trkpt>
      <trkpt lat="47.53875" lon="6.68012">
        <ele>421.8</ele>
        <time>2017-01-15T09:51:46.000Z</time>
      </trkpt>
      <trkpt lat="47.53871" lon="6.68005">
        <ele>421.6</ele>
        <time>2017-01-15T09:51:47.000Z</time>
      </trkpt>
      <trkpt lat="47.53866" lon="6.68">
        <ele>420.6</ele>
        <time>2017-01-15T09:51:48.000Z</time>
      </trkpt>
      <trkpt lat="47.53862" lon="6.67995">
        <ele>419.5</ele>
        <time>2017-01-15T09:51:49.000Z</time>
      </trkpt>
      <trkpt lat="47.53859" lon="6.6799">
        <ele>418.2</ele>
        <time>2017-01-15T09:51:50.000Z</time>
      </trkpt>
      <trkpt lat="47.53856" lon="6.67987">
        <ele>417</ele>
        <time>2017-01-15T09:51:51.000Z</time>
      </trkpt>
      <trkpt lat="47.53852" lon="6.67983">
        <ele>415.9</ele>
        <time>2017-01-15T09:51:52.000Z</time>
      </trkpt>
      <trkpt lat="47.53848" lon="6.67979">
        <ele>414.5</ele>
        <time>2017-01-15T09:51:53.000Z</time>
      </trkpt>
      <trkpt lat="47.53845" lon="6.67975">
        <ele>413.8</ele>
        <time>2017-01-15T09:51:54.000Z</time>
      </trkpt>
      <trkpt lat="47.53841" lon="6.6797">
        <ele>413.2</ele>
        <time>2017-01-15T09:51:55.000Z</time>
      </trkpt>
      <trkpt lat="47.53837" lon="6.67965">
        <ele>412.6</ele>
        <time>2017-01-15T09:51:56.000Z</time>
      </trkpt>
      <trkpt lat="47.53833" lon="6.6796">
        <ele>412.3</ele>
        <time>2017-01-15T09:51:57.000Z</time>
      </trkpt>
      <trkpt lat="47.53829" lon="6.67956">
        <ele>412.6</ele>
        <time>2017-01-15T09:51:58.000Z</time>
      </trkpt>
      <trkpt lat="47.53826" lon="6.67952">
        <ele>413.2</ele>
        <time>2017-01-15T09:51:59.000Z</time>
      </trkpt>
      <trkpt lat="47.53823" lon="6.67948">
        <ele>413.6</ele>
        <time>2017-01-15T09:52:00.000Z</time>
      </trkpt>
      <trkpt lat="47.5382" lon="6.67944">
        <ele>414.3</ele>
        <time>2017-01-15T09:52:01.000Z</time>
      </trkpt>
      <trkpt lat="47.53817" lon="6.67939">
        <ele>414.8</ele>
        <time>2017-01-15T09:52:02.000Z</time>
      </trkpt>
      <trkpt lat="47.53813" lon="6.67935">
        <ele>415.6</ele>
        <time>2017-01-15T09:52:03.000Z</time>
      </trkpt>
      <trkpt lat="47.5381" lon="6.67931">
        <ele>416.5</ele>
        <time>2017-01-15T09:52:04.000Z</time>
      </trkpt>
      <trkpt lat="47.53807" lon="6.67927">
        <ele>417</ele>
        <time>2017-01-15T09:52:05.000Z</time>
      </trkpt>
      <trkpt lat="47.53802" lon="6.67922">
        <ele>417.2</ele>
        <time>2017-01-15T09:52:06.000Z</time>
      </trkpt>
      <trkpt lat="47.53798" lon="6.67917">
        <ele>417.3</ele>
        <time>2017-01-15T09:52:07.000Z</time>
      </trkpt>
      <trkpt lat="47.53794" lon="6.67913">
        <ele>417.7</ele>
        <time>2017-01-15T09:52:08.000Z</time>
      </trkpt>
      <trkpt lat="47.5379" lon="6.67908">
        <ele>417.9</ele>
        <time>2017-01-15T09:52:09.000Z</time>
      </trkpt>
      <trkpt lat="47.53785" lon="6.67903">
        <ele>418.3</ele>
        <time>2017-01-15T09:52:10.000Z</time>
      </trkpt>
      <trkpt lat="47.53781" lon="6.67899">
        <ele>418.6</ele>
        <time>2017-01-15T09:52:11.000Z</time>
      </trkpt>
      <trkpt lat="47.53778" lon="6.67895">
        <ele>418.8</ele>
        <time>2017-01-15T09:52:12.000Z</time>
      </trkpt>
      <trkpt lat="47.53775" lon="6.67891">
        <ele>418.8</ele>
        <time>2017-01-15T09:52:13.000Z</time>
      </trkpt>
      <trkpt lat="47.53771" lon="6.67887">
        <ele>418.7</ele>
        <time>2017-01-15T09:52:14.000Z</time>
      </trkpt>
      <trkpt lat="47.53767" lon="6.67882">
        <ele>418.6</ele>
        <time>2017-01-15T09:52:15.000Z</time>
      </trkpt>
      <trkpt lat="47.53763" lon="6.67877">
        <ele>418.4</ele>
        <time>2017-01-15T09:52:16.000Z</time>
      </trkpt>
      <trkpt lat="47.53759" lon="6.67872">
        <ele>418.3</ele>
        <time>2017-01-15T09:52:17.000Z</time>
      </trkpt>
      <trkpt lat="47.53757" lon="6.67869">
        <ele>418.3</ele>
        <time>2017-01-15T09:52:18.000Z</time>
      </trkpt>
      <trkpt lat="47.53753" lon="6.67865">
        <ele>418.1</ele>
        <time>2017-01-15T09:52:19.000Z</time>
      </trkpt>
      <trkpt lat="47.5375" lon="6.67861">
        <ele>418.4</ele>
        <time>2017-01-15T09:52:20.000Z</time>
      </trkpt>
      <trkpt lat="47.53747" lon="6.67858">
        <ele>418</ele>
        <time>2017-01-15T09:52:21.000Z</time>
      </trkpt>
      <trkpt lat="47.53745" lon="6.67854">
        <ele>418</ele>
        <time>2017-01-15T09:52:22.000Z</time>
      </trkpt>
      <trkpt lat="47.53742" lon="6.67851">
        <ele>418.4</ele>
        <time>2017-01-15T09:52:23.000Z</time>
      </trkpt>
      <trkpt lat="47.53739" lon="6.67847">
        <ele>418.5</ele>
        <time>2017-01-15T09:52:24.000Z</time>
      </trkpt>
      <trkpt lat="47.53736" lon="6.67844">
        <ele>418.5</ele>
        <time>2017-01-15T09:52:25.000Z</time>
      </trkpt>
      <trkpt lat="47.53733" lon="6.6784">
        <ele>418.5</ele>
        <time>2017-01-15T09:52:26.000Z</time>
      </trkpt>
      <trkpt lat="47.5373" lon="6.67836">
        <ele>418.5</ele>
        <time>2017-01-15T09:52:27.000Z</time>
      </trkpt>
      <trkpt lat="47.53726" lon="6.67831">
        <ele>418.5</ele>
        <time>2017-01-15T09:52:28.000Z</time>
      </trkpt>
      <trkpt lat="47.53723" lon="6.67827">
        <ele>418.1</ele>
        <time>2017-01-15T09:52:29.000Z</time>
      </trkpt>
      <trkpt lat="47.5372" lon="6.67823">
        <ele>417.7</ele>
        <time>2017-01-15T09:52:30.000Z</time>
      </trkpt>
      <trkpt lat="47.53718" lon="6.6782">
        <ele>418</ele>
        <time>2017-01-15T09:52:31.000Z</time>
      </trkpt>
      <trkpt lat="47.53715" lon="6.67816">
        <ele>418.1</ele>
        <time>2017-01-15T09:52:32.000Z</time>
      </trkpt>
      <trkpt lat="47.53712" lon="6.67813">
        <ele>418.1</ele>
        <time>2017-01-15T09:52:33.000Z</time>
      </trkpt>
      <trkpt lat="47.53709" lon="6.67809">
        <ele>418.2</ele>
        <time>2017-01-15T09:52:34.000Z</time>
      </trkpt>
      <trkpt lat="47.53705" lon="6.67804">
        <ele>418.2</ele>
        <time>2017-01-15T09:52:35.000Z</time>
      </trkpt>
      <trkpt lat="47.53701" lon="6.678">
        <ele>418.3</ele>
        <time>2017-01-15T09:52:36.000Z</time>
      </trkpt>
      <trkpt lat="47.53698" lon="6.67795">
        <ele>418.3</ele>
        <time>2017-01-15T09:52:37.000Z</time>
      </trkpt>
      <trkpt lat="47.53694" lon="6.67791">
        <ele>418.3</ele>
        <time>2017-01-15T09:52:38.000Z</time>
      </trkpt>
      <trkpt lat="47.53692" lon="6.67788">
        <ele>418.1</ele>
        <time>2017-01-15T09:52:39.000Z</time>
      </trkpt>
      <trkpt lat="47.53689" lon="6.67784">
        <ele>417.9</ele>
        <time>2017-01-15T09:52:40.000Z</time>
      </trkpt>
      <trkpt lat="47.53687" lon="6.6778">
        <ele>417.8</ele>
        <time>2017-01-15T09:52:41.000Z</time>
      </trkpt>
      <trkpt lat="47.53684" lon="6.67777">
        <ele>417.7</ele>
        <time>2017-01-15T09:52:42.000Z</time>
      </trkpt>
      <trkpt lat="47.53682" lon="6.67773">
        <ele>417.6</ele>
        <time>2017-01-15T09:52:43.000Z</time>
      </trkpt>
      <trkpt lat="47.5368" lon="6.67771">
        <ele>417.5</ele>
        <time>2017-01-15T09:52:44.000Z</time>
      </trkpt>
      <trkpt lat="47.53677" lon="6.67767">
        <ele>417.4</ele>
        <time>2017-01-15T09:52:45.000Z</time>
      </trkpt>
      <trkpt lat="47.53674" lon="6.67765">
        <ele>417.3</ele>
        <time>2017-01-15T09:52:46.000Z</time>
      </trkpt>
      <trkpt lat="47.53671" lon="6.67762">
        <ele>417.2</ele>
        <time>2017-01-15T09:52:47.000Z</time>
      </trkpt>
      <trkpt lat="47.5367" lon="6.67758">
        <ele>417.1</ele>
        <time>2017-01-15T09:52:48.000Z</time>
      </trkpt>
      <trkpt lat="47.53669" lon="6.67754">
        <ele>417.1</ele>
        <time>2017-01-15T09:52:49.000Z</time>
      </trkpt>
      <trkpt lat="47.5367" lon="6.67752">
        <ele>417</ele>
        <time>2017-01-15T09:52:50.000Z</time>
      </trkpt>
      <trkpt lat="47.53673" lon="6.67748">
        <ele>417.1</ele>
        <time>2017-01-15T09:52:51.000Z</time>
      </trkpt>
      <trkpt lat="47.53675" lon="6.67747">
        <ele>417.1</ele>
        <time>2017-01-15T09:52:52.000Z</time>
      </trkpt>
      <trkpt lat="47.53678" lon="6.67747">
        <ele>417.2</ele>
        <time>2017-01-15T09:52:53.000Z</time>
      </trkpt>
      <trkpt lat="47.53681" lon="6.67747">
        <ele>417.2</ele>
        <time>2017-01-15T09:52:54.000Z</time>
      </trkpt>
      <trkpt lat="47.53684" lon="6.67747">
        <ele>417.3</ele>
        <time>2017-01-15T09:52:55.000Z</time>
      </trkpt>
      <trkpt lat="47.53687" lon="6.67747">
        <ele>417.3</ele>
        <time>2017-01-15T09:52:56.000Z</time>
      </trkpt>
      <trkpt lat="47.5369" lon="6.67747">
        <ele>417.4</ele>
        <time>2017-01-15T09:52:57.000Z</time>
      </trkpt>
      <trkpt lat="47.53692" lon="6.67747">
        <ele>417.5</ele>
        <time>2017-01-15T09:52:58.000Z</time>
      </trkpt>
      <trkpt lat="47.53696" lon="6.67747">
        <ele>417.6</ele>
        <time>2017-01-15T09:52:59.000Z</time>
      </trkpt>
      <trkpt lat="47.53699" lon="6.67747">
        <ele>417.6</ele>
        <time>2017-01-15T09:53:00.000Z</time>
      </trkpt>
      <trkpt lat="47.53702" lon="6.67746">
        <ele>417.6</ele>
        <time>2017-01-15T09:53:01.000Z</time>
      </trkpt>
      <trkpt lat="47.53705" lon="6.67745">
        <ele>417.7</ele>
        <time>2017-01-15T09:53:02.000Z</time>
      </trkpt>
      <trkpt lat="47.53708" lon="6.67745">
        <ele>417.8</ele>
        <time>2017-01-15T09:53:03.000Z</time>
      </trkpt>
      <trkpt lat="47.53711" lon="6.67744">
        <ele>418</ele>
        <time>2017-01-15T09:53:04.000Z</time>
      </trkpt>
      <trkpt lat="47.53713" lon="6.67744">
        <ele>418.1</ele>
        <time>2017-01-15T09:53:05.000Z</time>
      </trkpt>
      <trkpt lat="47.53716" lon="6.67743">
        <ele>418.2</ele>
        <time>2017-01-15T09:53:06.000Z</time>
      </trkpt>
      <trkpt lat="47.53719" lon="6.67742">
        <ele>418.4</ele>
        <time>2017-01-15T09:53:07.000Z</time>
      </trkpt>
      <trkpt lat="47.53721" lon="6.67742">
        <ele>418.5</ele>
        <time>2017-01-15T09:53:08.000Z</time>
      </trkpt>
      <trkpt lat="47.53724" lon="6.67742">
        <ele>418.6</ele>
        <time>2017-01-15T09:53:09.000Z</time>
      </trkpt>
      <trkpt lat="47.53727" lon="6.67742">
        <ele>418.7</ele>
        <time>2017-01-15T09:53:10.000Z</time>
      </trkpt>
      <trkpt lat="47.5373" lon="6.67741">
        <ele>418.9</ele>
        <time>2017-01-15T09:53:11.000Z</time>
      </trkpt>
      <trkpt lat="47.53733" lon="6.67741">
        <ele>419</ele>
        <time>2017-01-15T09:53:12.000Z</time>
      </trkpt>
      <trkpt lat="47.53735" lon="6.67741">
        <ele>419.2</ele>
        <time>2017-01-15T09:53:13.000Z</time>
      </trkpt>
      <trkpt lat="47.53737" lon="6.6774">
        <ele>419.3</ele>
        <time>2017-01-15T09:53:14.000Z</time>
      </trkpt>
      <trkpt lat="47.5374" lon="6.6774">
        <ele>419.4</ele>
        <time>2017-01-15T09:53:15.000Z</time>
      </trkpt>
      <trkpt lat="47.53743" lon="6.6774">
        <ele>419.5</ele>
        <time>2017-01-15T09:53:16.000Z</time>
      </trkpt>
      <trkpt lat="47.53746" lon="6.6774">
        <ele>419.5</ele>
        <time>2017-01-15T09:53:17.000Z</time>
      </trkpt>
      <trkpt lat="47.53749" lon="6.6774">
        <ele>419.5</ele>
        <time>2017-01-15T09:53:18.000Z</time>
      </trkpt>
      <trkpt lat="47.53753" lon="6.67741">
        <ele>419.5</ele>
        <time>2017-01-15T09:53:19.000Z</time>
      </trkpt>
      <trkpt lat="47.53756" lon="6.67741">
        <ele>419.6</ele>
        <time>2017-01-15T09:53:20.000Z</time>
      </trkpt>
      <trkpt lat="47.53759" lon="6.67742">
        <ele>419.6</ele>
        <time>2017-01-15T09:53:21.000Z</time>
      </trkpt>
      <trkpt lat="47.53762" lon="6.67741">
        <ele>419.6</ele>
        <time>2017-01-15T09:53:22.000Z</time>
      </trkpt>
      <trkpt lat="47.53766" lon="6.6774">
        <ele>419.6</ele>
        <time>2017-01-15T09:53:23.000Z</time>
      </trkpt>
      <trkpt lat="47.53769" lon="6.6774">
        <ele>419.7</ele>
        <time>2017-01-15T09:53:24.000Z</time>
      </trkpt>
      <trkpt lat="47.53772" lon="6.6774">
        <ele>419.9</ele>
        <time>2017-01-15T09:53:25.000Z</time>
      </trkpt>
      <trkpt lat="47.53775" lon="6.67741">
        <ele>420</ele>
        <time>2017-01-15T09:53:26.000Z</time>
      </trkpt>
      <trkpt lat="47.53778" lon="6.67742">
        <ele>420.2</ele>
        <time>2017-01-15T09:53:27.000Z</time>
      </trkpt>
      <trkpt lat="47.53782" lon="6.67742">
        <ele>420.4</ele>
        <time>2017-01-15T09:53:28.000Z</time>
      </trkpt>
      <trkpt lat="47.53786" lon="6.67744">
        <ele>420.5</ele>
        <time>2017-01-15T09:53:29.000Z</time>
      </trkpt>
      <trkpt lat="47.5379" lon="6.67745">
        <ele>420.7</ele>
        <time>2017-01-15T09:53:30.000Z</time>
      </trkpt>
      <trkpt lat="47.53794" lon="6.67746">
        <ele>420.8</ele>
        <time>2017-01-15T09:53:31.000Z</time>
      </trkpt>
      <trkpt lat="47.53798" lon="6.67747">
        <ele>421</ele>
        <time>2017-01-15T09:53:32.000Z</time>
      </trkpt>
      <trkpt lat="47.53802" lon="6.67749">
        <ele>421.1</ele>
        <time>2017-01-15T09:53:33.000Z</time>
      </trkpt>
      <trkpt lat="47.53806" lon="6.6775">
        <ele>421.2</ele>
        <time>2017-01-15T09:53:34.000Z</time>
      </trkpt>
      <trkpt lat="47.5381" lon="6.6775">
        <ele>421.2</ele>
        <time>2017-01-15T09:53:35.000Z</time>
      </trkpt>
      <trkpt lat="47.53813" lon="6.67751">
        <ele>421.1</ele>
        <time>2017-01-15T09:53:36.000Z</time>
      </trkpt>
      <trkpt lat="47.53817" lon="6.67752">
        <ele>421.1</ele>
        <time>2017-01-15T09:53:37.000Z</time>
      </trkpt>
      <trkpt lat="47.53819" lon="6.67752">
        <ele>421</ele>
        <time>2017-01-15T09:53:38.000Z</time>
      </trkpt>
      <trkpt lat="47.53822" lon="6.67753">
        <ele>421</ele>
        <time>2017-01-15T09:53:39.000Z</time>
      </trkpt>
      <trkpt lat="47.53825" lon="6.67754">
        <ele>421</ele>
        <time>2017-01-15T09:53:40.000Z</time>
      </trkpt>
      <trkpt lat="47.53827" lon="6.67754">
        <ele>420.9</ele>
        <time>2017-01-15T09:53:41.000Z</time>
      </trkpt>
      <trkpt lat="47.53829" lon="6.67754">
        <ele>420.8</ele>
        <time>2017-01-15T09:53:42.000Z</time>
      </trkpt>
      <trkpt lat="47.53832" lon="6.67753">
        <ele>420.8</ele>
        <time>2017-01-15T09:53:43.000Z</time>
      </trkpt>
      <trkpt lat="47.53835" lon="6.67753">
        <ele>420.7</ele>
        <time>2017-01-15T09:53:44.000Z</time>
      </trkpt>
      <trkpt lat="47.53838" lon="6.67752">
        <ele>420.7</ele>
        <time>2017-01-15T09:53:45.000Z</time>
      </trkpt>
      <trkpt lat="47.53841" lon="6.67752">
        <ele>420.7</ele>
        <time>2017-01-15T09:53:46.000Z</time>
      </trkpt>
      <trkpt lat="47.53845" lon="6.67751">
        <ele>420.8</ele>
        <time>2017-01-15T09:53:47.000Z</time>
      </trkpt>
      <trkpt lat="47.53849" lon="6.6775">
        <ele>420.8</ele>
        <time>2017-01-15T09:53:48.000Z</time>
      </trkpt>
      <trkpt lat="47.53854" lon="6.67749">
        <ele>420.8</ele>
        <time>2017-01-15T09:53:49.000Z</time>
      </trkpt>
      <trkpt lat="47.53858" lon="6.67748">
        <ele>420.8</ele>
        <time>2017-01-15T09:53:50.000Z</time>
      </trkpt>
      <trkpt lat="47.53861" lon="6.67745">
        <ele>421</ele>
        <time>2017-01-15T09:53:51.000Z</time>
      </trkpt>
      <trkpt lat="47.53866" lon="6.67742">
        <ele>422.4</ele>
        <time>2017-01-15T09:53:52.000Z</time>
      </trkpt>
      <trkpt lat="47.53871" lon="6.67738">
        <ele>422.9</ele>
        <time>2017-01-15T09:53:53.000Z</time>
      </trkpt>
      <trkpt lat="47.53877" lon="6.67733">
        <ele>423.1</ele>
        <time>2017-01-15T09:53:54.000Z</time>
      </trkpt>
      <trkpt lat="47.53882" lon="6.67729">
        <ele>422.3</ele>
        <time>2017-01-15T09:53:55.000Z</time>
      </trkpt>
      <trkpt lat="47.53886" lon="6.67726">
        <ele>422.1</ele>
        <time>2017-01-15T09:53:56.000Z</time>
      </trkpt>
      <trkpt lat="47.5389" lon="6.67723">
        <ele>422.1</ele>
        <time>2017-01-15T09:53:57.000Z</time>
      </trkpt>
      <trkpt lat="47.53895" lon="6.67719">
        <ele>421.4</ele>
        <time>2017-01-15T09:53:58.000Z</time>
      </trkpt>
      <trkpt lat="47.53899" lon="6.67717">
        <ele>420.9</ele>
        <time>2017-01-15T09:53:59.000Z</time>
      </trkpt>
      <trkpt lat="47.53904" lon="6.67713">
        <ele>420.6</ele>
        <time>2017-01-15T09:54:00.000Z</time>
      </trkpt>
      <trkpt lat="47.53908" lon="6.6771">
        <ele>420.1</ele>
        <time>2017-01-15T09:54:01.000Z</time>
      </trkpt>
      <trkpt lat="47.53912" lon="6.67708">
        <ele>419.8</ele>
        <time>2017-01-15T09:54:02.000Z</time>
      </trkpt>
      <trkpt lat="47.53915" lon="6.67706">
        <ele>418.6</ele>
        <time>2017-01-15T09:54:03.000Z</time>
      </trkpt>
      <trkpt lat="47.53919" lon="6.67704">
        <ele>417.5</ele>
        <time>2017-01-15T09:54:04.000Z</time>
      </trkpt>
      <trkpt lat="47.53923" lon="6.67702">
        <ele>416.8</ele>
        <time>2017-01-15T09:54:05.000Z</time>
      </trkpt>
      <trkpt lat="47.53927" lon="6.67701">
        <ele>416.8</ele>
        <time>2017-01-15T09:54:06.000Z</time>
      </trkpt>
      <trkpt lat="47.5393" lon="6.677">
        <ele>416.8</ele>
        <time>2017-01-15T09:54:07.000Z</time>
      </trkpt>
      <trkpt lat="47.53934" lon="6.67699">
        <ele>416.8</ele>
        <time>2017-01-15T09:54:08.000Z</time>
      </trkpt>
      <trkpt lat="47.53937" lon="6.67699">
        <ele>416.8</ele>
        <time>2017-01-15T09:54:09.000Z</time>
      </trkpt>
      <trkpt lat="47.53941" lon="6.67698">
        <ele>416.9</ele>
        <time>2017-01-15T09:54:10.000Z</time>
      </trkpt>
      <trkpt lat="47.53944" lon="6.67697">
        <ele>417</ele>
        <time>2017-01-15T09:54:11.000Z</time>
      </trkpt>
      <trkpt lat="47.53947" lon="6.67697">
        <ele>417.1</ele>
        <time>2017-01-15T09:54:12.000Z</time>
      </trkpt>
      <trkpt lat="47.5395" lon="6.67696">
        <ele>417.2</ele>
        <time>2017-01-15T09:54:13.000Z</time>
      </trkpt>
      <trkpt lat="47.53953" lon="6.67695">
        <ele>417.4</ele>
        <time>2017-01-15T09:54:14.000Z</time>
      </trkpt>
      <trkpt lat="47.53956" lon="6.67694">
        <ele>417.4</ele>
        <time>2017-01-15T09:54:15.000Z</time>
      </trkpt>
      <trkpt lat="47.53959" lon="6.67692">
        <ele>417.5</ele>
        <time>2017-01-15T09:54:16.000Z</time>
      </trkpt>
      <trkpt lat="47.53961" lon="6.67692">
        <ele>417.6</ele>
        <time>2017-01-15T09:54:17.000Z</time>
      </trkpt>
      <trkpt lat="47.53964" lon="6.67691">
        <ele>417.7</ele>
        <time>2017-01-15T09:54:18.000Z</time>
      </trkpt>
      <trkpt lat="47.53966" lon="6.6769">
        <ele>417.8</ele>
        <time>2017-01-15T09:54:19.000Z</time>
      </trkpt>
      <trkpt lat="47.53968" lon="6.6769">
        <ele>417.9</ele>
        <time>2017-01-15T09:54:20.000Z</time>
      </trkpt>
      <trkpt lat="47.53971" lon="6.67689">
        <ele>418</ele>
        <time>2017-01-15T09:54:21.000Z</time>
      </trkpt>
      <trkpt lat="47.53974" lon="6.67688">
        <ele>418.1</ele>
        <time>2017-01-15T09:54:22.000Z</time>
      </trkpt>
      <trkpt lat="47.53976" lon="6.67687">
        <ele>418.1</ele>
        <time>2017-01-15T09:54:23.000Z</time>
      </trkpt>
      <trkpt lat="47.53978" lon="6.67686">
        <ele>418.2</ele>
        <time>2017-01-15T09:54:24.000Z</time>
      </trkpt>
      <trkpt lat="47.53981" lon="6.67684">
        <ele>418.4</ele>
        <time>2017-01-15T09:54:25.000Z</time>
      </trkpt>
      <trkpt lat="47.53984" lon="6.67683">
        <ele>418.5</ele>
        <time>2017-01-15T09:54:26.000Z</time>
      </trkpt>
      <trkpt lat="47.53986" lon="6.67682">
        <ele>418.6</ele>
        <time>2017-01-15T09:54:27.000Z</time>
      </trkpt>
      <trkpt lat="47.53989" lon="6.67681">
        <ele>418.7</ele>
        <time>2017-01-15T09:54:28.000Z</time>
      </trkpt>
      <trkpt lat="47.53992" lon="6.6768">
        <ele>418.8</ele>
        <time>2017-01-15T09:54:29.000Z</time>
      </trkpt>
      <trkpt lat="47.53994" lon="6.67678">
        <ele>418.9</ele>
        <time>2017-01-15T09:54:30.000Z</time>
      </trkpt>
      <trkpt lat="47.53997" lon="6.67677">
        <ele>419</ele>
        <time>2017-01-15T09:54:31.000Z</time>
      </trkpt>
      <trkpt lat="47.54001" lon="6.67674">
        <ele>419.1</ele>
        <time>2017-01-15T09:54:32.000Z</time>
      </trkpt>
      <trkpt lat="47.54004" lon="6.67672">
        <ele>419.2</ele>
        <time>2017-01-15T09:54:33.000Z</time>
      </trkpt>
      <trkpt lat="47.54007" lon="6.6767">
        <ele>419.3</ele>
        <time>2017-01-15T09:54:34.000Z</time>
      </trkpt>
      <trkpt lat="47.5401" lon="6.67667">
        <ele>419.4</ele>
        <time>2017-01-15T09:54:35.000Z</time>
      </trkpt>
      <trkpt lat="47.54013" lon="6.67664">
        <ele>419.5</ele>
        <time>2017-01-15T09:54:36.000Z</time>
      </trkpt>
      <trkpt lat="47.54015" lon="6.67661">
        <ele>419.6</ele>
        <time>2017-01-15T09:54:37.000Z</time>
      </trkpt>
      <trkpt lat="47.54017" lon="6.67658">
        <ele>419.7</ele>
        <time>2017-01-15T09:54:38.000Z</time>
      </trkpt>
      <trkpt lat="47.5402" lon="6.67655">
        <ele>419.8</ele>
        <time>2017-01-15T09:54:39.000Z</time>
      </trkpt>
      <trkpt lat="47.54023" lon="6.67651">
        <ele>420.8</ele>
        <time>2017-01-15T09:54:40.000Z</time>
      </trkpt>
      <trkpt lat="47.54026" lon="6.67646">
        <ele>420.9</ele>
        <time>2017-01-15T09:54:41.000Z</time>
      </trkpt>
      <trkpt lat="47.54028" lon="6.67643">
        <ele>420.9</ele>
        <time>2017-01-15T09:54:42.000Z</time>
      </trkpt>
      <trkpt lat="47.54031" lon="6.67638">
        <ele>421</ele>
        <time>2017-01-15T09:54:43.000Z</time>
      </trkpt>
      <trkpt lat="47.54033" lon="6.67634">
        <ele>421.1</ele>
        <time>2017-01-15T09:54:44.000Z</time>
      </trkpt>
      <trkpt lat="47.54036" lon="6.67631">
        <ele>421.2</ele>
        <time>2017-01-15T09:54:45.000Z</time>
      </trkpt>
      <trkpt lat="47.54038" lon="6.67627">
        <ele>421.3</ele>
        <time>2017-01-15T09:54:46.000Z</time>
      </trkpt>
      <trkpt lat="47.54041" lon="6.67624">
        <ele>421.4</ele>
        <time>2017-01-15T09:54:47.000Z</time>
      </trkpt>
      <trkpt lat="47.54043" lon="6.67621">
        <ele>421.5</ele>
        <time>2017-01-15T09:54:48.000Z</time>
      </trkpt>
      <trkpt lat="47.54046" lon="6.67618">
        <ele>421.5</ele>
        <time>2017-01-15T09:54:49.000Z</time>
      </trkpt>
      <trkpt lat="47.54049" lon="6.67617">
        <ele>421.6</ele>
        <time>2017-01-15T09:54:50.000Z</time>
      </trkpt>
      <trkpt lat="47.54052" lon="6.67615">
        <ele>421.7</ele>
        <time>2017-01-15T09:54:51.000Z</time>
      </trkpt>
      <trkpt lat="47.54056" lon="6.67613">
        <ele>421.7</ele>
        <time>2017-01-15T09:54:52.000Z</time>
      </trkpt>
      <trkpt lat="47.54059" lon="6.67611">
        <ele>421.9</ele>
        <time>2017-01-15T09:54:53.000Z</time>
      </trkpt>
      <trkpt lat="47.54063" lon="6.67611">
        <ele>421.9</ele>
        <time>2017-01-15T09:54:54.000Z</time>
      </trkpt>
      <trkpt lat="47.54065" lon="6.67611">
        <ele>422</ele>
        <time>2017-01-15T09:54:55.000Z</time>
      </trkpt>
      <trkpt lat="47.54068" lon="6.67612">
        <ele>422</ele>
        <time>2017-01-15T09:54:56.000Z</time>
      </trkpt>
      <trkpt lat="47.54072" lon="6.67612">
        <ele>422</ele>
        <time>2017-01-15T09:54:57.000Z</time>
      </trkpt>
      <trkpt lat="47.54076" lon="6.67612">
        <ele>422</ele>
        <time>2017-01-15T09:54:58.000Z</time>
      </trkpt>
      <trkpt lat="47.54079" lon="6.67612">
        <ele>421.9</ele>
        <time>2017-01-15T09:54:59.000Z</time>
      </trkpt>
      <trkpt lat="47.54082" lon="6.67612">
        <ele>421.9</ele>
        <time>2017-01-15T09:55:00.000Z</time>
      </trkpt>
      <trkpt lat="47.54085" lon="6.67611">
        <ele>421.9</ele>
        <time>2017-01-15T09:55:01.000Z</time>
      </trkpt>
      <trkpt lat="47.54088" lon="6.67611">
        <ele>421.7</ele>
        <time>2017-01-15T09:55:02.000Z</time>
      </trkpt>
      <trkpt lat="47.54091" lon="6.6761">
        <ele>421.6</ele>
        <time>2017-01-15T09:55:03.000Z</time>
      </trkpt>
      <trkpt lat="47.54096" lon="6.6761">
        <ele>421.6</ele>
        <time>2017-01-15T09:55:05.000Z</time>
      </trkpt>
      <trkpt lat="47.54098" lon="6.67609">
        <ele>421.5</ele>
        <time>2017-01-15T09:55:06.000Z</time>
      </trkpt>
      <trkpt lat="47.54102" lon="6.67608">
        <ele>421.6</ele>
        <time>2017-01-15T09:55:07.000Z</time>
      </trkpt>
      <trkpt lat="47.54104" lon="6.67608">
        <ele>421.5</ele>
        <time>2017-01-15T09:55:08.000Z</time>
      </trkpt>
      <trkpt lat="47.54107" lon="6.67607">
        <ele>421.5</ele>
        <time>2017-01-15T09:55:09.000Z</time>
      </trkpt>
      <trkpt lat="47.54109" lon="6.67606">
        <ele>421.4</ele>
        <time>2017-01-15T09:55:10.000Z</time>
      </trkpt>
      <trkpt lat="47.54112" lon="6.67604">
        <ele>421.2</ele>
        <time>2017-01-15T09:55:12.000Z</time>
      </trkpt>
      <trkpt lat="47.54115" lon="6.67604">
        <ele>421.1</ele>
        <time>2017-01-15T09:55:13.000Z</time>
      </trkpt>
      <trkpt lat="47.54119" lon="6.67603">
        <ele>421.1</ele>
        <time>2017-01-15T09:55:14.000Z</time>
      </trkpt>
      <trkpt lat="47.54121" lon="6.67602">
        <ele>420.9</ele>
        <time>2017-01-15T09:55:15.000Z</time>
      </trkpt>
      <trkpt lat="47.54124" lon="6.67602">
        <ele>420.8</ele>
        <time>2017-01-15T09:55:16.000Z</time>
      </trkpt>
      <trkpt lat="47.54127" lon="6.67602">
        <ele>420.7</ele>
        <time>2017-01-15T09:55:17.000Z</time>
      </trkpt>
      <trkpt lat="47.54131" lon="6.67601">
        <ele>420.6</ele>
        <time>2017-01-15T09:55:18.000Z</time>
      </trkpt>
      <trkpt lat="47.54135" lon="6.67601">
        <ele>420.6</ele>
        <time>2017-01-15T09:55:19.000Z</time>
      </trkpt>
      <trkpt lat="47.54138" lon="6.676">
        <ele>420.6</ele>
        <time>2017-01-15T09:55:20.000Z</time>
      </trkpt>
      <trkpt lat="47.54141" lon="6.67599">
        <ele>420.5</ele>
        <time>2017-01-15T09:55:21.000Z</time>
      </trkpt>
      <trkpt lat="47.54143" lon="6.67598">
        <ele>420.5</ele>
        <time>2017-01-15T09:55:22.000Z</time>
      </trkpt>
      <trkpt lat="47.54146" lon="6.67598">
        <ele>420.3</ele>
        <time>2017-01-15T09:55:23.000Z</time>
      </trkpt>
      <trkpt lat="47.5415" lon="6.67597">
        <ele>420.2</ele>
        <time>2017-01-15T09:55:24.000Z</time>
      </trkpt>
      <trkpt lat="47.54154" lon="6.67596">
        <ele>420.1</ele>
        <time>2017-01-15T09:55:25.000Z</time>
      </trkpt>
      <trkpt lat="47.54158" lon="6.67597">
        <ele>420</ele>
        <time>2017-01-15T09:55:26.000Z</time>
      </trkpt>
      <trkpt lat="47.54162" lon="6.67597">
        <ele>420</ele>
        <time>2017-01-15T09:55:27.000Z</time>
      </trkpt>
      <trkpt lat="47.54167" lon="6.67597">
        <ele>420.1</ele>
        <time>2017-01-15T09:55:28.000Z</time>
      </trkpt>
      <trkpt lat="47.5417" lon="6.67597">
        <ele>420.1</ele>
        <time>2017-01-15T09:55:29.000Z</time>
      </trkpt>
      <trkpt lat="47.54173" lon="6.67598">
        <ele>420.1</ele>
        <time>2017-01-15T09:55:30.000Z</time>
      </trkpt>
      <trkpt lat="47.54177" lon="6.67597">
        <ele>420.1</ele>
        <time>2017-01-15T09:55:31.000Z</time>
      </trkpt>
      <trkpt lat="47.5418" lon="6.67595">
        <ele>420.1</ele>
        <time>2017-01-15T09:55:32.000Z</time>
      </trkpt>
      <trkpt lat="47.54183" lon="6.67595">
        <ele>420.1</ele>
        <time>2017-01-15T09:55:33.000Z</time>
      </trkpt>
      <trkpt lat="47.54187" lon="6.67595">
        <ele>420.1</ele>
        <time>2017-01-15T09:55:34.000Z</time>
      </trkpt>
      <trkpt lat="47.5419" lon="6.67594">
        <ele>420.1</ele>
        <time>2017-01-15T09:55:35.000Z</time>
      </trkpt>
      <trkpt lat="47.54192" lon="6.67592">
        <ele>420.3</ele>
        <time>2017-01-15T09:55:36.000Z</time>
      </trkpt>
      <trkpt lat="47.54195" lon="6.67592">
        <ele>420.4</ele>
        <time>2017-01-15T09:55:37.000Z</time>
      </trkpt>
      <trkpt lat="47.54198" lon="6.67592">
        <ele>420.5</ele>
        <time>2017-01-15T09:55:38.000Z</time>
      </trkpt>
      <trkpt lat="47.54201" lon="6.67591">
        <ele>420.6</ele>
        <time>2017-01-15T09:55:39.000Z</time>
      </trkpt>
      <trkpt lat="47.54204" lon="6.67591">
        <ele>420.7</ele>
        <time>2017-01-15T09:55:40.000Z</time>
      </trkpt>
      <trkpt lat="47.54206" lon="6.6759">
        <ele>420.7</ele>
        <time>2017-01-15T09:55:41.000Z</time>
      </trkpt>
      <trkpt lat="47.5421" lon="6.67589">
        <ele>420.7</ele>
        <time>2017-01-15T09:55:42.000Z</time>
      </trkpt>
      <trkpt lat="47.54214" lon="6.67589">
        <ele>420.8</ele>
        <time>2017-01-15T09:55:43.000Z</time>
      </trkpt>
      <trkpt lat="47.54216" lon="6.67587">
        <ele>420.9</ele>
        <time>2017-01-15T09:55:44.000Z</time>
      </trkpt>
      <trkpt lat="47.54218" lon="6.67585">
        <ele>421</ele>
        <time>2017-01-15T09:55:45.000Z</time>
      </trkpt>
      <trkpt lat="47.54221" lon="6.67585">
        <ele>421.1</ele>
        <time>2017-01-15T09:55:46.000Z</time>
      </trkpt>
      <trkpt lat="47.54224" lon="6.67586">
        <ele>421.3</ele>
        <time>2017-01-15T09:55:48.000Z</time>
      </trkpt>
      <trkpt lat="47.54227" lon="6.67586">
        <ele>421.5</ele>
        <time>2017-01-15T09:55:49.000Z</time>
      </trkpt>
      <trkpt lat="47.5423" lon="6.67589">
        <ele>421.7</ele>
        <time>2017-01-15T09:55:50.000Z</time>
      </trkpt>
      <trkpt lat="47.54234" lon="6.6759">
        <ele>421.7</ele>
        <time>2017-01-15T09:55:51.000Z</time>
      </trkpt>
      <trkpt lat="47.54238" lon="6.67592">
        <ele>421.8</ele>
        <time>2017-01-15T09:55:52.000Z</time>
      </trkpt>
      <trkpt lat="47.54241" lon="6.67592">
        <ele>421.8</ele>
        <time>2017-01-15T09:55:53.000Z</time>
      </trkpt>
      <trkpt lat="47.54244" lon="6.67592">
        <ele>421.9</ele>
        <time>2017-01-15T09:55:54.000Z</time>
      </trkpt>
      <trkpt lat="47.54248" lon="6.67592">
        <ele>421.9</ele>
        <time>2017-01-15T09:55:55.000Z</time>
      </trkpt>
      <trkpt lat="47.54251" lon="6.67591">
        <ele>421.9</ele>
        <time>2017-01-15T09:55:56.000Z</time>
      </trkpt>
      <trkpt lat="47.54254" lon="6.67591">
        <ele>421.9</ele>
        <time>2017-01-15T09:55:57.000Z</time>
      </trkpt>
      <trkpt lat="47.54258" lon="6.67589">
        <ele>422</ele>
        <time>2017-01-15T09:55:58.000Z</time>
      </trkpt>
      <trkpt lat="47.5426" lon="6.67589">
        <ele>422.1</ele>
        <time>2017-01-15T09:55:59.000Z</time>
      </trkpt>
      <trkpt lat="47.54264" lon="6.67589">
        <ele>422.3</ele>
        <time>2017-01-15T09:56:01.000Z</time>
      </trkpt>
      <trkpt lat="47.54266" lon="6.67588">
        <ele>422.3</ele>
        <time>2017-01-15T09:56:02.000Z</time>
      </trkpt>
      <trkpt lat="47.54269" lon="6.67587">
        <ele>422.4</ele>
        <time>2017-01-15T09:56:03.000Z</time>
      </trkpt>
      <trkpt lat="47.54272" lon="6.67587">
        <ele>422.4</ele>
        <time>2017-01-15T09:56:04.000Z</time>
      </trkpt>
      <trkpt lat="47.54276" lon="6.67586">
        <ele>422.5</ele>
        <time>2017-01-15T09:56:07.000Z</time>
      </trkpt>
      <trkpt lat="47.54278" lon="6.67586">
        <ele>422.5</ele>
        <time>2017-01-15T09:56:08.000Z</time>
      </trkpt>
      <trkpt lat="47.54281" lon="6.67585">
        <ele>422.4</ele>
        <time>2017-01-15T09:56:09.000Z</time>
      </trkpt>
      <trkpt lat="47.54284" lon="6.67584">
        <ele>422.3</ele>
        <time>2017-01-15T09:56:10.000Z</time>
      </trkpt>
      <trkpt lat="47.54287" lon="6.67582">
        <ele>422.2</ele>
        <time>2017-01-15T09:56:11.000Z</time>
      </trkpt>
      <trkpt lat="47.54289" lon="6.67581">
        <ele>422.1</ele>
        <time>2017-01-15T09:56:12.000Z</time>
      </trkpt>
      <trkpt lat="47.54291" lon="6.67579">
        <ele>422</ele>
        <time>2017-01-15T09:56:13.000Z</time>
      </trkpt>
      <trkpt lat="47.54295" lon="6.67577">
        <ele>422</ele>
        <time>2017-01-15T09:56:14.000Z</time>
      </trkpt>
      <trkpt lat="47.54298" lon="6.67575">
        <ele>422</ele>
        <time>2017-01-15T09:56:15.000Z</time>
      </trkpt>
      <trkpt lat="47.543" lon="6.67574">
        <ele>422</ele>
        <time>2017-01-15T09:56:16.000Z</time>
      </trkpt>
      <trkpt lat="47.54304" lon="6.67573">
        <ele>422.2</ele>
        <time>2017-01-15T09:56:17.000Z</time>
      </trkpt>
      <trkpt lat="47.54306" lon="6.67572">
        <ele>422.2</ele>
        <time>2017-01-15T09:56:18.000Z</time>
      </trkpt>
      <trkpt lat="47.54308" lon="6.67571">
        <ele>422.3</ele>
        <time>2017-01-15T09:56:19.000Z</time>
      </trkpt>
      <trkpt lat="47.54311" lon="6.6757">
        <ele>422.4</ele>
        <time>2017-01-15T09:56:20.000Z</time>
      </trkpt>
      <trkpt lat="47.54313" lon="6.6757">
        <ele>422.5</ele>
        <time>2017-01-15T09:56:21.000Z</time>
      </trkpt>
      <trkpt lat="47.54315" lon="6.67569">
        <ele>422.7</ele>
        <time>2017-01-15T09:56:22.000Z</time>
      </trkpt>
      <trkpt lat="47.54318" lon="6.67568">
        <ele>422.8</ele>
        <time>2017-01-15T09:56:23.000Z</time>
      </trkpt>
      <trkpt lat="47.54321" lon="6.67567">
        <ele>422.8</ele>
        <time>2017-01-15T09:56:24.000Z</time>
      </trkpt>
      <trkpt lat="47.54323" lon="6.67566">
        <ele>422.8</ele>
        <time>2017-01-15T09:56:25.000Z</time>
      </trkpt>
      <trkpt lat="47.54326" lon="6.67565">
        <ele>422.8</ele>
        <time>2017-01-15T09:56:26.000Z</time>
      </trkpt>
      <trkpt lat="47.54329" lon="6.67563">
        <ele>422.8</ele>
        <time>2017-01-15T09:56:27.000Z</time>
      </trkpt>
      <trkpt lat="47.54333" lon="6.67562">
        <ele>422.8</ele>
        <time>2017-01-15T09:56:28.000Z</time>
      </trkpt>
      <trkpt lat="47.54336" lon="6.6756">
        <ele>422.9</ele>
        <time>2017-01-15T09:56:29.000Z</time>
      </trkpt>
      <trkpt lat="47.54338" lon="6.67558">
        <ele>422.9</ele>
        <time>2017-01-15T09:56:30.000Z</time>
      </trkpt>
      <trkpt lat="47.54342" lon="6.67556">
        <ele>423</ele>
        <time>2017-01-15T09:56:31.000Z</time>
      </trkpt>
      <trkpt lat="47.54344" lon="6.67555">
        <ele>423</ele>
        <time>2017-01-15T09:56:32.000Z</time>
      </trkpt>
      <trkpt lat="47.54347" lon="6.67551">
        <ele>423</ele>
        <time>2017-01-15T09:56:34.000Z</time>
      </trkpt>
      <trkpt lat="47.5435" lon="6.6755">
        <ele>423</ele>
        <time>2017-01-15T09:56:35.000Z</time>
      </trkpt>
      <trkpt lat="47.54352" lon="6.67548">
        <ele>423</ele>
        <time>2017-01-15T09:56:36.000Z</time>
      </trkpt>
      <trkpt lat="47.54355" lon="6.67546">
        <ele>422.9</ele>
        <time>2017-01-15T09:56:37.000Z</time>
      </trkpt>
      <trkpt lat="47.54359" lon="6.67543">
        <ele>423</ele>
        <time>2017-01-15T09:56:38.000Z</time>
      </trkpt>
      <trkpt lat="47.54361" lon="6.6754">
        <ele>423</ele>
        <time>2017-01-15T09:56:39.000Z</time>
      </trkpt>
      <trkpt lat="47.54365" lon="6.67537">
        <ele>423.1</ele>
        <time>2017-01-15T09:56:41.000Z</time>
      </trkpt>
      <trkpt lat="47.54368" lon="6.67535">
        <ele>423.1</ele>
        <time>2017-01-15T09:56:42.000Z</time>
      </trkpt>
      <trkpt lat="47.54371" lon="6.67533">
        <ele>423.2</ele>
        <time>2017-01-15T09:56:43.000Z</time>
      </trkpt>
      <trkpt lat="47.54374" lon="6.67533">
        <ele>423.1</ele>
        <time>2017-01-15T09:56:44.000Z</time>
      </trkpt>
      <trkpt lat="47.54377" lon="6.67532">
        <ele>422.9</ele>
        <time>2017-01-15T09:56:45.000Z</time>
      </trkpt>
      <trkpt lat="47.54379" lon="6.67532">
        <ele>422.7</ele>
        <time>2017-01-15T09:56:46.000Z</time>
      </trkpt>
      <trkpt lat="47.54382" lon="6.67532">
        <ele>422.5</ele>
        <time>2017-01-15T09:56:47.000Z</time>
      </trkpt>
      <trkpt lat="47.54384" lon="6.67531">
        <ele>422.5</ele>
        <time>2017-01-15T09:56:48.000Z</time>
      </trkpt>
      <trkpt lat="47.54386" lon="6.6753">
        <ele>422.4</ele>
        <time>2017-01-15T09:56:49.000Z</time>
      </trkpt>
      <trkpt lat="47.54389" lon="6.67528">
        <ele>422.2</ele>
        <time>2017-01-15T09:56:50.000Z</time>
      </trkpt>
      <trkpt lat="47.54392" lon="6.67526">
        <ele>422.1</ele>
        <time>2017-01-15T09:56:51.000Z</time>
      </trkpt>
      <trkpt lat="47.54394" lon="6.67525">
        <ele>422</ele>
        <time>2017-01-15T09:56:52.000Z</time>
      </trkpt>
      <trkpt lat="47.54398" lon="6.67524">
        <ele>421.9</ele>
        <time>2017-01-15T09:56:54.000Z</time>
      </trkpt>
      <trkpt lat="47.544" lon="6.67523">
        <ele>421.8</ele>
        <time>2017-01-15T09:56:55.000Z</time>
      </trkpt>
      <trkpt lat="47.54403" lon="6.67522">
        <ele>421.7</ele>
        <time>2017-01-15T09:56:56.000Z</time>
      </trkpt>
      <trkpt lat="47.54406" lon="6.67521">
        <ele>421.6</ele>
        <time>2017-01-15T09:56:57.000Z</time>
      </trkpt>
      <trkpt lat="47.54409" lon="6.6752">
        <ele>421.6</ele>
        <time>2017-01-15T09:56:58.000Z</time>
      </trkpt>
      <trkpt lat="47.54412" lon="6.67518">
        <ele>421.5</ele>
        <time>2017-01-15T09:56:59.000Z</time>
      </trkpt>
      <trkpt lat="47.54414" lon="6.67518">
        <ele>421.5</ele>
        <time>2017-01-15T09:57:00.000Z</time>
      </trkpt>
      <trkpt lat="47.54417" lon="6.67517">
        <ele>421.5</ele>
        <time>2017-01-15T09:57:01.000Z</time>
      </trkpt>
      <trkpt lat="47.54419" lon="6.67517">
        <ele>421.4</ele>
        <time>2017-01-15T09:57:02.000Z</time>
      </trkpt>
      <trkpt lat="47.54421" lon="6.67515">
        <ele>421.3</ele>
        <time>2017-01-15T09:57:03.000Z</time>
      </trkpt>
      <trkpt lat="47.54425" lon="6.67515">
        <ele>421.1</ele>
        <time>2017-01-15T09:57:05.000Z</time>
      </trkpt>
      <trkpt lat="47.54427" lon="6.67514">
        <ele>421</ele>
        <time>2017-01-15T09:57:06.000Z</time>
      </trkpt>
      <trkpt lat="47.54429" lon="6.67512">
        <ele>420.9</ele>
        <time>2017-01-15T09:57:07.000Z</time>
      </trkpt>
      <trkpt lat="47.54432" lon="6.67511">
        <ele>420.7</ele>
        <time>2017-01-15T09:57:08.000Z</time>
      </trkpt>
      <trkpt lat="47.54434" lon="6.6751">
        <ele>420.7</ele>
        <time>2017-01-15T09:57:09.000Z</time>
      </trkpt>
      <trkpt lat="47.54437" lon="6.6751">
        <ele>420.5</ele>
        <time>2017-01-15T09:57:10.000Z</time>
      </trkpt>
      <trkpt lat="47.5444" lon="6.67509">
        <ele>420.3</ele>
        <time>2017-01-15T09:57:11.000Z</time>
      </trkpt>
      <trkpt lat="47.54443" lon="6.67508">
        <ele>420</ele>
        <time>2017-01-15T09:57:12.000Z</time>
      </trkpt>
      <trkpt lat="47.54445" lon="6.67507">
        <ele>419.8</ele>
        <time>2017-01-15T09:57:13.000Z</time>
      </trkpt>
      <trkpt lat="47.54448" lon="6.67507">
        <ele>419.7</ele>
        <time>2017-01-15T09:57:14.000Z</time>
      </trkpt>
      <trkpt lat="47.54451" lon="6.67506">
        <ele>419.5</ele>
        <time>2017-01-15T09:57:15.000Z</time>
      </trkpt>
      <trkpt lat="47.54456" lon="6.67507">
        <ele>419.4</ele>
        <time>2017-01-15T09:57:16.000Z</time>
      </trkpt>
      <trkpt lat="47.5446" lon="6.67506">
        <ele>418.3</ele>
        <time>2017-01-15T09:57:17.000Z</time>
      </trkpt>
      <trkpt lat="47.54463" lon="6.67506">
        <ele>418.2</ele>
        <time>2017-01-15T09:57:18.000Z</time>
      </trkpt>
      <trkpt lat="47.54466" lon="6.67507">
        <ele>418.1</ele>
        <time>2017-01-15T09:57:19.000Z</time>
      </trkpt>
      <trkpt lat="47.54469" lon="6.67506">
        <ele>418</ele>
        <time>2017-01-15T09:57:20.000Z</time>
      </trkpt>
      <trkpt lat="47.54472" lon="6.67505">
        <ele>417.8</ele>
        <time>2017-01-15T09:57:21.000Z</time>
      </trkpt>
      <trkpt lat="47.54474" lon="6.67505">
        <ele>417.6</ele>
        <time>2017-01-15T09:57:22.000Z</time>
      </trkpt>
      <trkpt lat="47.54478" lon="6.67505">
        <ele>417.5</ele>
        <time>2017-01-15T09:57:23.000Z</time>
      </trkpt>
      <trkpt lat="47.54481" lon="6.67505">
        <ele>417.2</ele>
        <time>2017-01-15T09:57:24.000Z</time>
      </trkpt>
      <trkpt lat="47.54485" lon="6.67505">
        <ele>417</ele>
        <time>2017-01-15T09:57:25.000Z</time>
      </trkpt>
      <trkpt lat="47.54488" lon="6.67505">
        <ele>417</ele>
        <time>2017-01-15T09:57:26.000Z</time>
      </trkpt>
      <trkpt lat="47.54492" lon="6.67505">
        <ele>416.9</ele>
        <time>2017-01-15T09:57:27.000Z</time>
      </trkpt>
      <trkpt lat="47.54496" lon="6.67504">
        <ele>416.9</ele>
        <time>2017-01-15T09:57:28.000Z</time>
      </trkpt>
      <trkpt lat="47.54503" lon="6.67505">
        <ele>416.9</ele>
        <time>2017-01-15T09:57:29.000Z</time>
      </trkpt>
      <trkpt lat="47.54509" lon="6.67505">
        <ele>416.9</ele>
        <time>2017-01-15T09:57:30.000Z</time>
      </trkpt>
      <trkpt lat="47.54513" lon="6.67505">
        <ele>417</ele>
        <time>2017-01-15T09:57:31.000Z</time>
      </trkpt>
      <trkpt lat="47.54517" lon="6.67504">
        <ele>417.1</ele>
        <time>2017-01-15T09:57:32.000Z</time>
      </trkpt>
      <trkpt lat="47.54521" lon="6.67503">
        <ele>417</ele>
        <time>2017-01-15T09:57:34.000Z</time>
      </trkpt>
      <trkpt lat="47.54523" lon="6.67503">
        <ele>417</ele>
        <time>2017-01-15T09:57:35.000Z</time>
      </trkpt>
      <trkpt lat="47.54525" lon="6.67502">
        <ele>417.1</ele>
        <time>2017-01-15T09:57:36.000Z</time>
      </trkpt>
      <trkpt lat="47.54528" lon="6.67501">
        <ele>417.1</ele>
        <time>2017-01-15T09:57:37.000Z</time>
      </trkpt>
      <trkpt lat="47.54531" lon="6.675">
        <ele>417.2</ele>
        <time>2017-01-15T09:57:38.000Z</time>
      </trkpt>
      <trkpt lat="47.54534" lon="6.67499">
        <ele>417.2</ele>
        <time>2017-01-15T09:57:39.000Z</time>
      </trkpt>
      <trkpt lat="47.54538" lon="6.67498">
        <ele>417.3</ele>
        <time>2017-01-15T09:57:41.000Z</time>
      </trkpt>
      <trkpt lat="47.5454" lon="6.67497">
        <ele>417.3</ele>
        <time>2017-01-15T09:57:42.000Z</time>
      </trkpt>
      <trkpt lat="47.54543" lon="6.67497">
        <ele>417.4</ele>
        <time>2017-01-15T09:57:43.000Z</time>
      </trkpt>
      <trkpt lat="47.54546" lon="6.67498">
        <ele>417.4</ele>
        <time>2017-01-15T09:57:44.000Z</time>
      </trkpt>
      <trkpt lat="47.54549" lon="6.67498">
        <ele>417.5</ele>
        <time>2017-01-15T09:57:45.000Z</time>
      </trkpt>
      <trkpt lat="47.54552" lon="6.67497">
        <ele>417.5</ele>
        <time>2017-01-15T09:57:46.000Z</time>
      </trkpt>
      <trkpt lat="47.54555" lon="6.67498">
        <ele>417.5</ele>
        <time>2017-01-15T09:57:47.000Z</time>
      </trkpt>
      <trkpt lat="47.54558" lon="6.67498">
        <ele>417.5</ele>
        <time>2017-01-15T09:57:48.000Z</time>
      </trkpt>
      <trkpt lat="47.5456" lon="6.67499">
        <ele>417.6</ele>
        <time>2017-01-15T09:57:49.000Z</time>
      </trkpt>
      <trkpt lat="47.54563" lon="6.675">
        <ele>417.6</ele>
        <time>2017-01-15T09:57:50.000Z</time>
      </trkpt>
      <trkpt lat="47.54566" lon="6.67499">
        <ele>417.6</ele>
        <time>2017-01-15T09:57:51.000Z</time>
      </trkpt>
      <trkpt lat="47.54572" lon="6.675">
        <ele>417.8</ele>
        <time>2017-01-15T09:57:52.000Z</time>
      </trkpt>
      <trkpt lat="47.54577" lon="6.67501">
        <ele>418</ele>
        <time>2017-01-15T09:57:53.000Z</time>
      </trkpt>
      <trkpt lat="47.54582" lon="6.67502">
        <ele>418.2</ele>
        <time>2017-01-15T09:57:54.000Z</time>
      </trkpt>
      <trkpt lat="47.54587" lon="6.67502">
        <ele>418.5</ele>
        <time>2017-01-15T09:57:55.000Z</time>
      </trkpt>
      <trkpt lat="47.54591" lon="6.67503">
        <ele>418.9</ele>
        <time>2017-01-15T09:57:56.000Z</time>
      </trkpt>
      <trkpt lat="47.54595" lon="6.67504">
        <ele>419.2</ele>
        <time>2017-01-15T09:57:57.000Z</time>
      </trkpt>
      <trkpt lat="47.54599" lon="6.67505">
        <ele>419.4</ele>
        <time>2017-01-15T09:57:58.000Z</time>
      </trkpt>
      <trkpt lat="47.54602" lon="6.67506">
        <ele>419.7</ele>
        <time>2017-01-15T09:57:59.000Z</time>
      </trkpt>
      <trkpt lat="47.54606" lon="6.67508">
        <ele>420.1</ele>
        <time>2017-01-15T09:58:00.000Z</time>
      </trkpt>
      <trkpt lat="47.5461" lon="6.67509">
        <ele>420.4</ele>
        <time>2017-01-15T09:58:01.000Z</time>
      </trkpt>
      <trkpt lat="47.54614" lon="6.67509">
        <ele>420.8</ele>
        <time>2017-01-15T09:58:02.000Z</time>
      </trkpt>
      <trkpt lat="47.5462" lon="6.67511">
        <ele>421.1</ele>
        <time>2017-01-15T09:58:03.000Z</time>
      </trkpt>
      <trkpt lat="47.54623" lon="6.67511">
        <ele>421.5</ele>
        <time>2017-01-15T09:58:04.000Z</time>
      </trkpt>
      <trkpt lat="47.54627" lon="6.67512">
        <ele>421.8</ele>
        <time>2017-01-15T09:58:05.000Z</time>
      </trkpt>
      <trkpt lat="47.54631" lon="6.67514">
        <ele>422.5</ele>
        <time>2017-01-15T09:58:07.000Z</time>
      </trkpt>
      <trkpt lat="47.54633" lon="6.67515">
        <ele>422.8</ele>
        <time>2017-01-15T09:58:08.000Z</time>
      </trkpt>
      <trkpt lat="47.54636" lon="6.67517">
        <ele>423.6</ele>
        <time>2017-01-15T09:58:11.000Z</time>
      </trkpt>
      <trkpt lat="47.54637" lon="6.67518">
        <ele>423.9</ele>
        <time>2017-01-15T09:58:12.000Z</time>
      </trkpt>
      <trkpt lat="47.54641" lon="6.6752">
        <ele>424.5</ele>
        <time>2017-01-15T09:58:14.000Z</time>
      </trkpt>
      <trkpt lat="47.54644" lon="6.6752">
        <ele>424.8</ele>
        <time>2017-01-15T09:58:15.000Z</time>
      </trkpt>
      <trkpt lat="47.54647" lon="6.67521">
        <ele>425.1</ele>
        <time>2017-01-15T09:58:16.000Z</time>
      </trkpt>
      <trkpt lat="47.5465" lon="6.67522">
        <ele>425.3</ele>
        <time>2017-01-15T09:58:17.000Z</time>
      </trkpt>
      <trkpt lat="47.54654" lon="6.67522">
        <ele>425.8</ele>
        <time>2017-01-15T09:58:19.000Z</time>
      </trkpt>
      <trkpt lat="47.54655" lon="6.67522">
        <ele>426</ele>
        <time>2017-01-15T09:58:20.000Z</time>
      </trkpt>
      <trkpt lat="47.54658" lon="6.67523">
        <ele>426.1</ele>
        <time>2017-01-15T09:58:21.000Z</time>
      </trkpt>
      <trkpt lat="47.5466" lon="6.67523">
        <ele>426.3</ele>
        <time>2017-01-15T09:58:22.000Z</time>
      </trkpt>
      <trkpt lat="47.54664" lon="6.67523">
        <ele>426.5</ele>
        <time>2017-01-15T09:58:24.000Z</time>
      </trkpt>
      <trkpt lat="47.54665" lon="6.67522">
        <ele>426.7</ele>
        <time>2017-01-15T09:58:25.000Z</time>
      </trkpt>
      <trkpt lat="47.54666" lon="6.67522">
        <ele>427</ele>
        <time>2017-01-15T09:58:27.000Z</time>
      </trkpt>
      <trkpt lat="47.54669" lon="6.67522">
        <ele>427.2</ele>
        <time>2017-01-15T09:58:28.000Z</time>
      </trkpt>
      <trkpt lat="47.54673" lon="6.67523">
        <ele>427.4</ele>
        <time>2017-01-15T09:58:30.000Z</time>
      </trkpt>
      <trkpt lat="47.54677" lon="6.67524">
        <ele>427.5</ele>
        <time>2017-01-15T09:58:31.000Z</time>
      </trkpt>
      <trkpt lat="47.5468" lon="6.67525">
        <ele>427.7</ele>
        <time>2017-01-15T09:58:32.000Z</time>
      </trkpt>
      <trkpt lat="47.54681" lon="6.67526">
        <ele>427.8</ele>
        <time>2017-01-15T09:58:33.000Z</time>
      </trkpt>
      <trkpt lat="47.54684" lon="6.67528">
        <ele>428</ele>
        <time>2017-01-15T09:58:34.000Z</time>
      </trkpt>
      <trkpt lat="47.54687" lon="6.6753">
        <ele>428.2</ele>
        <time>2017-01-15T09:58:35.000Z</time>
      </trkpt>
      <trkpt lat="47.5469" lon="6.67531">
        <ele>428.4</ele>
        <time>2017-01-15T09:58:36.000Z</time>
      </trkpt>
      <trkpt lat="47.54693" lon="6.67532">
        <ele>428.6</ele>
        <time>2017-01-15T09:58:37.000Z</time>
      </trkpt>
      <trkpt lat="47.54695" lon="6.67532">
        <ele>428.8</ele>
        <time>2017-01-15T09:58:38.000Z</time>
      </trkpt>
      <trkpt lat="47.54698" lon="6.67533">
        <ele>428.9</ele>
        <time>2017-01-15T09:58:39.000Z</time>
      </trkpt>
      <trkpt lat="47.54702" lon="6.67534">
        <ele>429.2</ele>
        <time>2017-01-15T09:58:41.000Z</time>
      </trkpt>
      <trkpt lat="47.54705" lon="6.67535">
        <ele>429.3</ele>
        <time>2017-01-15T09:58:42.000Z</time>
      </trkpt>
      <trkpt lat="47.54709" lon="6.67536">
        <ele>429.4</ele>
        <time>2017-01-15T09:58:43.000Z</time>
      </trkpt>
      <trkpt lat="47.54712" lon="6.67537">
        <ele>429.5</ele>
        <time>2017-01-15T09:58:44.000Z</time>
      </trkpt>
      <trkpt lat="47.54716" lon="6.67538">
        <ele>429.6</ele>
        <time>2017-01-15T09:58:45.000Z</time>
      </trkpt>
      <trkpt lat="47.54719" lon="6.67538">
        <ele>429.7</ele>
        <time>2017-01-15T09:58:46.000Z</time>
      </trkpt>
      <trkpt lat="47.54722" lon="6.67539">
        <ele>429.8</ele>
        <time>2017-01-15T09:58:47.000Z</time>
      </trkpt>
      <trkpt lat="47.54725" lon="6.6754">
        <ele>430</ele>
        <time>2017-01-15T09:58:48.000Z</time>
      </trkpt>
      <trkpt lat="47.54728" lon="6.6754">
        <ele>430.1</ele>
        <time>2017-01-15T09:58:49.000Z</time>
      </trkpt>
      <trkpt lat="47.5473" lon="6.6754">
        <ele>430.3</ele>
        <time>2017-01-15T09:58:50.000Z</time>
      </trkpt>
      <trkpt lat="47.54733" lon="6.67541">
        <ele>430.4</ele>
        <time>2017-01-15T09:58:51.000Z</time>
      </trkpt>
      <trkpt lat="47.54735" lon="6.67542">
        <ele>430.5</ele>
        <time>2017-01-15T09:58:52.000Z</time>
      </trkpt>
      <trkpt lat="47.54738" lon="6.67544">
        <ele>430.7</ele>
        <time>2017-01-15T09:58:54.000Z</time>
      </trkpt>
      <trkpt lat="47.5474" lon="6.67545">
        <ele>430.8</ele>
        <time>2017-01-15T09:58:55.000Z</time>
      </trkpt>
      <trkpt lat="47.54742" lon="6.67546">
        <ele>430.9</ele>
        <time>2017-01-15T09:58:56.000Z</time>
      </trkpt>
      <trkpt lat="47.54744" lon="6.67546">
        <ele>431</ele>
        <time>2017-01-15T09:58:57.000Z</time>
      </trkpt>
      <trkpt lat="47.54748" lon="6.67546">
        <ele>431.1</ele>
        <time>2017-01-15T09:58:59.000Z</time>
      </trkpt>
      <trkpt lat="47.5475" lon="6.67547">
        <ele>431</ele>
        <time>2017-01-15T09:59:00.000Z</time>
      </trkpt>
      <trkpt lat="47.54754" lon="6.67546">
        <ele>430.7</ele>
        <time>2017-01-15T09:59:02.000Z</time>
      </trkpt>
      <trkpt lat="47.54755" lon="6.67546">
        <ele>430.6</ele>
        <time>2017-01-15T09:59:03.000Z</time>
      </trkpt>
      <trkpt lat="47.54759" lon="6.67547">
        <ele>430.2</ele>
        <time>2017-01-15T09:59:05.000Z</time>
      </trkpt>
      <trkpt lat="47.5476" lon="6.67547">
        <ele>430</ele>
        <time>2017-01-15T09:59:06.000Z</time>
      </trkpt>
      <trkpt lat="47.54763" lon="6.67547">
        <ele>429.7</ele>
        <time>2017-01-15T09:59:08.000Z</time>
      </trkpt>
      <trkpt lat="47.54766" lon="6.67548">
        <ele>429.5</ele>
        <time>2017-01-15T09:59:09.000Z</time>
      </trkpt>
      <trkpt lat="47.5477" lon="6.67547">
        <ele>429.1</ele>
        <time>2017-01-15T09:59:11.000Z</time>
      </trkpt>
      <trkpt lat="47.54773" lon="6.67546">
        <ele>429</ele>
        <time>2017-01-15T09:59:12.000Z</time>
      </trkpt>
      <trkpt lat="47.54776" lon="6.67547">
        <ele>428.9</ele>
        <time>2017-01-15T09:59:13.000Z</time>
      </trkpt>
      <trkpt lat="47.54779" lon="6.67547">
        <ele>428.9</ele>
        <time>2017-01-15T09:59:14.000Z</time>
      </trkpt>
      <trkpt lat="47.54783" lon="6.67548">
        <ele>428.8</ele>
        <time>2017-01-15T09:59:15.000Z</time>
      </trkpt>
      <trkpt lat="47.54786" lon="6.67549">
        <ele>428.6</ele>
        <time>2017-01-15T09:59:16.000Z</time>
      </trkpt>
      <trkpt lat="47.5479" lon="6.6755">
        <ele>428.5</ele>
        <time>2017-01-15T09:59:17.000Z</time>
      </trkpt>
      <trkpt lat="47.54793" lon="6.67551">
        <ele>428.5</ele>
        <time>2017-01-15T09:59:18.000Z</time>
      </trkpt>
      <trkpt lat="47.54797" lon="6.67551">
        <ele>428.5</ele>
        <time>2017-01-15T09:59:19.000Z</time>
      </trkpt>
      <trkpt lat="47.548" lon="6.67552">
        <ele>428.4</ele>
        <time>2017-01-15T09:59:20.000Z</time>
      </trkpt>
      <trkpt lat="47.54803" lon="6.67551">
        <ele>428.4</ele>
        <time>2017-01-15T09:59:21.000Z</time>
      </trkpt>
      <trkpt lat="47.54805" lon="6.67551">
        <ele>428.4</ele>
        <time>2017-01-15T09:59:22.000Z</time>
      </trkpt>
      <trkpt lat="47.54807" lon="6.67551">
        <ele>428.3</ele>
        <time>2017-01-15T09:59:23.000Z</time>
      </trkpt>
      <trkpt lat="47.5481" lon="6.67551">
        <ele>428.4</ele>
        <time>2017-01-15T09:59:24.000Z</time>
      </trkpt>
      <trkpt lat="47.54814" lon="6.6755">
        <ele>428.5</ele>
        <time>2017-01-15T09:59:26.000Z</time>
      </trkpt>
      <trkpt lat="47.54815" lon="6.6755">
        <ele>428.5</ele>
        <time>2017-01-15T09:59:27.000Z</time>
      </trkpt>
      <trkpt lat="47.54819" lon="6.67551">
        <ele>428.7</ele>
        <time>2017-01-15T09:59:28.000Z</time>
      </trkpt>
      <trkpt lat="47.54821" lon="6.67551">
        <ele>428.8</ele>
        <time>2017-01-15T09:59:29.000Z</time>
      </trkpt>
      <trkpt lat="47.54824" lon="6.67552">
        <ele>429</ele>
        <time>2017-01-15T09:59:30.000Z</time>
      </trkpt>
      <trkpt lat="47.54828" lon="6.67551">
        <ele>429.2</ele>
        <time>2017-01-15T09:59:31.000Z</time>
      </trkpt>
      <trkpt lat="47.54831" lon="6.67551">
        <ele>429.3</ele>
        <time>2017-01-15T09:59:32.000Z</time>
      </trkpt>
      <trkpt lat="47.54835" lon="6.67551">
        <ele>429.5</ele>
        <time>2017-01-15T09:59:33.000Z</time>
      </trkpt>
      <trkpt lat="47.54838" lon="6.67551">
        <ele>429.7</ele>
        <time>2017-01-15T09:59:34.000Z</time>
      </trkpt>
      <trkpt lat="47.54841" lon="6.67552">
        <ele>429.9</ele>
        <time>2017-01-15T09:59:35.000Z</time>
      </trkpt>
      <trkpt lat="47.54844" lon="6.67552">
        <ele>430.3</ele>
        <time>2017-01-15T09:59:37.000Z</time>
      </trkpt>
      <trkpt lat="47.54845" lon="6.67552">
        <ele>430.5</ele>
        <time>2017-01-15T09:59:38.000Z</time>
      </trkpt>
      <trkpt lat="47.54849" lon="6.67552">
        <ele>431.1</ele>
        <time>2017-01-15T09:59:40.000Z</time>
      </trkpt>
      <trkpt lat="47.54851" lon="6.67553">
        <ele>431.4</ele>
        <time>2017-01-15T09:59:41.000Z</time>
      </trkpt>
      <trkpt lat="47.54855" lon="6.67552">
        <ele>433.5</ele>
        <time>2017-01-15T09:59:50.000Z</time>
      </trkpt>
      <trkpt lat="47.54855" lon="6.67552">
        <ele>433.8</ele>
        <time>2017-01-15T09:59:51.000Z</time>
      </trkpt>
      <trkpt lat="47.54859" lon="6.67553">
        <ele>434.6</ele>
        <time>2017-01-15T09:59:54.000Z</time>
      </trkpt>
      <trkpt lat="47.54861" lon="6.67552">
        <ele>435</ele>
        <time>2017-01-15T09:59:55.000Z</time>
      </trkpt>
      <trkpt lat="47.54864" lon="6.67551">
        <ele>435.6</ele>
        <time>2017-01-15T10:00:01.000Z</time>
      </trkpt>
      <trkpt lat="47.54866" lon="6.6755">
        <ele>435.5</ele>
        <time>2017-01-15T10:00:02.000Z</time>
      </trkpt>
      <trkpt lat="47.54868" lon="6.67553">
        <ele>437.3</ele>
        <time>2017-01-15T10:01:14.000Z</time>
      </trkpt>
      <trkpt lat="47.5487" lon="6.67553">
        <ele>437.9</ele>
        <time>2017-01-15T10:01:15.000Z</time>
      </trkpt>
      <trkpt lat="47.54874" lon="6.67554">
        <ele>438.8</ele>
        <time>2017-01-15T10:01:17.000Z</time>
      </trkpt>
      <trkpt lat="47.54875" lon="6.67554">
        <ele>439.3</ele>
        <time>2017-01-15T10:01:18.000Z</time>
      </trkpt>
      <trkpt lat="47.54878" lon="6.67555">
        <ele>440.1</ele>
        <time>2017-01-15T10:01:21.000Z</time>
      </trkpt>
      <trkpt lat="47.54879" lon="6.67555">
        <ele>440.3</ele>
        <time>2017-01-15T10:01:22.000Z</time>
      </trkpt>
      <trkpt lat="47.54883" lon="6.67556">
        <ele>440.8</ele>
        <time>2017-01-15T10:01:24.000Z</time>
      </trkpt>
      <trkpt lat="47.54885" lon="6.67556">
        <ele>441</ele>
        <time>2017-01-15T10:01:25.000Z</time>
      </trkpt>
      <trkpt lat="47.54887" lon="6.67556">
        <ele>441.3</ele>
        <time>2017-01-15T10:01:26.000Z</time>
      </trkpt>
      <trkpt lat="47.54889" lon="6.67555">
        <ele>441.5</ele>
        <time>2017-01-15T10:01:27.000Z</time>
      </trkpt>
      <trkpt lat="47.54894" lon="6.67556">
        <ele>442.1</ele>
        <time>2017-01-15T10:01:30.000Z</time>
      </trkpt>
      <trkpt lat="47.54897" lon="6.67556">
        <ele>442.3</ele>
        <time>2017-01-15T10:01:31.000Z</time>
      </trkpt>
      <trkpt lat="47.549" lon="6.67556">
        <ele>442.7</ele>
        <time>2017-01-15T10:01:33.000Z</time>
      </trkpt>
      <trkpt lat="47.54902" lon="6.67556">
        <ele>442.9</ele>
        <time>2017-01-15T10:01:34.000Z</time>
      </trkpt>
      <trkpt lat="47.54905" lon="6.67556">
        <ele>443.1</ele>
        <time>2017-01-15T10:01:35.000Z</time>
      </trkpt>
      <trkpt lat="47.54907" lon="6.67556">
        <ele>443.2</ele>
        <time>2017-01-15T10:01:36.000Z</time>
      </trkpt>
      <trkpt lat="47.5491" lon="6.67557">
        <ele>443.2</ele>
        <time>2017-01-15T10:01:37.000Z</time>
      </trkpt>
      <trkpt lat="47.54913" lon="6.67558">
        <ele>443.2</ele>
        <time>2017-01-15T10:01:38.000Z</time>
      </trkpt>
      <trkpt lat="47.54917" lon="6.67559">
        <ele>443.2</ele>
        <time>2017-01-15T10:01:39.000Z</time>
      </trkpt>
      <trkpt lat="47.5492" lon="6.67559">
        <ele>443.2</ele>
        <time>2017-01-15T10:01:40.000Z</time>
      </trkpt>
      <trkpt lat="47.54923" lon="6.6756">
        <ele>443.2</ele>
        <time>2017-01-15T10:01:41.000Z</time>
      </trkpt>
      <trkpt lat="47.54926" lon="6.6756">
        <ele>443.3</ele>
        <time>2017-01-15T10:01:42.000Z</time>
      </trkpt>
      <trkpt lat="47.54929" lon="6.67559">
        <ele>443.5</ele>
        <time>2017-01-15T10:01:44.000Z</time>
      </trkpt>
      <trkpt lat="47.54932" lon="6.67559">
        <ele>443.7</ele>
        <time>2017-01-15T10:01:45.000Z</time>
      </trkpt>
      <trkpt lat="47.54934" lon="6.67559">
        <ele>443.8</ele>
        <time>2017-01-15T10:01:46.000Z</time>
      </trkpt>
      <trkpt lat="47.54936" lon="6.6756">
        <ele>444</ele>
        <time>2017-01-15T10:01:47.000Z</time>
      </trkpt>
      <trkpt lat="47.5494" lon="6.6756">
        <ele>444.4</ele>
        <time>2017-01-15T10:01:49.000Z</time>
      </trkpt>
      <trkpt lat="47.54943" lon="6.67559">
        <ele>444.7</ele>
        <time>2017-01-15T10:01:50.000Z</time>
      </trkpt>
      <trkpt lat="47.54946" lon="6.67559">
        <ele>445.1</ele>
        <time>2017-01-15T10:01:51.000Z</time>
      </trkpt>
      <trkpt lat="47.54948" lon="6.6756">
        <ele>445.4</ele>
        <time>2017-01-15T10:01:52.000Z</time>
      </trkpt>
      <trkpt lat="47.54951" lon="6.6756">
        <ele>445.6</ele>
        <time>2017-01-15T10:01:53.000Z</time>
      </trkpt>
      <trkpt lat="47.54954" lon="6.6756">
        <ele>445.8</ele>
        <time>2017-01-15T10:01:54.000Z</time>
      </trkpt>
      <trkpt lat="47.54958" lon="6.6756">
        <ele>446.3</ele>
        <time>2017-01-15T10:01:56.000Z</time>
      </trkpt>
      <trkpt lat="47.54961" lon="6.67559">
        <ele>446.4</ele>
        <time>2017-01-15T10:01:57.000Z</time>
      </trkpt>
      <trkpt lat="47.54964" lon="6.67559">
        <ele>446.7</ele>
        <time>2017-01-15T10:01:58.000Z</time>
      </trkpt>
      <trkpt lat="47.54967" lon="6.67558">
        <ele>447</ele>
        <time>2017-01-15T10:01:59.000Z</time>
      </trkpt>
      <trkpt lat="47.54972" lon="6.67559">
        <ele>447.4</ele>
        <time>2017-01-15T10:02:01.000Z</time>
      </trkpt>
      <trkpt lat="47.54974" lon="6.67559">
        <ele>447.6</ele>
        <time>2017-01-15T10:02:02.000Z</time>
      </trkpt>
      <trkpt lat="47.54976" lon="6.6756">
        <ele>447.7</ele>
        <time>2017-01-15T10:02:03.000Z</time>
      </trkpt>
      <trkpt lat="47.54979" lon="6.6756">
        <ele>448</ele>
        <time>2017-01-15T10:02:04.000Z</time>
      </trkpt>
      <trkpt lat="47.54981" lon="6.6756">
        <ele>448.2</ele>
        <time>2017-01-15T10:02:05.000Z</time>
      </trkpt>
      <trkpt lat="47.54984" lon="6.67561">
        <ele>448.3</ele>
        <time>2017-01-15T10:02:06.000Z</time>
      </trkpt>
      <trkpt lat="47.54986" lon="6.67561">
        <ele>448.5</ele>
        <time>2017-01-15T10:02:07.000Z</time>
      </trkpt>
      <trkpt lat="47.54989" lon="6.67561">
        <ele>448.6</ele>
        <time>2017-01-15T10:02:08.000Z</time>
      </trkpt>
      <trkpt lat="47.54992" lon="6.67561">
        <ele>448.7</ele>
        <time>2017-01-15T10:02:09.000Z</time>
      </trkpt>
      <trkpt lat="47.54993" lon="6.67561">
        <ele>448.8</ele>
        <time>2017-01-15T10:02:10.000Z</time>
      </trkpt>
      <trkpt lat="47.54997" lon="6.6756">
        <ele>449.1</ele>
        <time>2017-01-15T10:02:12.000Z</time>
      </trkpt>
      <trkpt lat="47.54999" lon="6.6756">
        <ele>449.4</ele>
        <time>2017-01-15T10:02:13.000Z</time>
      </trkpt>
      <trkpt lat="47.55002" lon="6.6756">
        <ele>449.6</ele>
        <time>2017-01-15T10:02:14.000Z</time>
      </trkpt>
      <trkpt lat="47.55004" lon="6.6756">
        <ele>449.7</ele>
        <time>2017-01-15T10:02:15.000Z</time>
      </trkpt>
      <trkpt lat="47.55006" lon="6.6756">
        <ele>449.9</ele>
        <time>2017-01-15T10:02:16.000Z</time>
      </trkpt>
      <trkpt lat="47.55009" lon="6.67559">
        <ele>450</ele>
        <time>2017-01-15T10:02:17.000Z</time>
      </trkpt>
      <trkpt lat="47.55013" lon="6.67558">
        <ele>450.3</ele>
        <time>2017-01-15T10:02:19.000Z</time>
      </trkpt>
      <trkpt lat="47.55015" lon="6.67558">
        <ele>450.4</ele>
        <time>2017-01-15T10:02:20.000Z</time>
      </trkpt>
      <trkpt lat="47.55018" lon="6.67558">
        <ele>450.6</ele>
        <time>2017-01-15T10:02:21.000Z</time>
      </trkpt>
      <trkpt lat="47.55021" lon="6.67558">
        <ele>450.8</ele>
        <time>2017-01-15T10:02:22.000Z</time>
      </trkpt>
      <trkpt lat="47.55023" lon="6.67558">
        <ele>450.9</ele>
        <time>2017-01-15T10:02:23.000Z</time>
      </trkpt>
      <trkpt lat="47.55026" lon="6.67558">
        <ele>451.1</ele>
        <time>2017-01-15T10:02:24.000Z</time>
      </trkpt>
      <trkpt lat="47.55029" lon="6.67557">
        <ele>451.3</ele>
        <time>2017-01-15T10:02:25.000Z</time>
      </trkpt>
      <trkpt lat="47.55031" lon="6.67558">
        <ele>451.5</ele>
        <time>2017-01-15T10:02:26.000Z</time>
      </trkpt>
      <trkpt lat="47.55034" lon="6.67558">
        <ele>451.7</ele>
        <time>2017-01-15T10:02:27.000Z</time>
      </trkpt>
      <trkpt lat="47.55037" lon="6.67559">
        <ele>451.7</ele>
        <time>2017-01-15T10:02:28.000Z</time>
      </trkpt>
      <trkpt lat="47.55039" lon="6.67559">
        <ele>451.8</ele>
        <time>2017-01-15T10:02:29.000Z</time>
      </trkpt>
      <trkpt lat="47.55042" lon="6.67559">
        <ele>451.9</ele>
        <time>2017-01-15T10:02:30.000Z</time>
      </trkpt>
      <trkpt lat="47.55045" lon="6.67559">
        <ele>452</ele>
        <time>2017-01-15T10:02:31.000Z</time>
      </trkpt>
      <trkpt lat="47.55047" lon="6.67559">
        <ele>452.1</ele>
        <time>2017-01-15T10:02:32.000Z</time>
      </trkpt>
      <trkpt lat="47.55051" lon="6.67559">
        <ele>452.4</ele>
        <time>2017-01-15T10:02:34.000Z</time>
      </trkpt>
      <trkpt lat="47.55054" lon="6.67558">
        <ele>452.5</ele>
        <time>2017-01-15T10:02:35.000Z</time>
      </trkpt>
      <trkpt lat="47.55056" lon="6.67557">
        <ele>452.7</ele>
        <time>2017-01-15T10:02:36.000Z</time>
      </trkpt>
      <trkpt lat="47.55059" lon="6.67557">
        <ele>452.8</ele>
        <time>2017-01-15T10:02:37.000Z</time>
      </trkpt>
      <trkpt lat="47.55061" lon="6.67558">
        <ele>453</ele>
        <time>2017-01-15T10:02:38.000Z</time>
      </trkpt>
      <trkpt lat="47.55064" lon="6.67558">
        <ele>453.1</ele>
        <time>2017-01-15T10:02:39.000Z</time>
      </trkpt>
      <trkpt lat="47.55066" lon="6.67558">
        <ele>453.2</ele>
        <time>2017-01-15T10:02:40.000Z</time>
      </trkpt>
      <trkpt lat="47.55069" lon="6.67558">
        <ele>453.4</ele>
        <time>2017-01-15T10:02:41.000Z</time>
      </trkpt>
      <trkpt lat="47.55072" lon="6.67559">
        <ele>453.6</ele>
        <time>2017-01-15T10:02:42.000Z</time>
      </trkpt>
      <trkpt lat="47.55075" lon="6.67559">
        <ele>453.9</ele>
        <time>2017-01-15T10:02:43.000Z</time>
      </trkpt>
      <trkpt lat="47.55079" lon="6.6756">
        <ele>454.2</ele>
        <time>2017-01-15T10:02:45.000Z</time>
      </trkpt>
      <trkpt lat="47.55081" lon="6.6756">
        <ele>454.4</ele>
        <time>2017-01-15T10:02:46.000Z</time>
      </trkpt>
      <trkpt lat="47.55083" lon="6.6756">
        <ele>454.6</ele>
        <time>2017-01-15T10:02:47.000Z</time>
      </trkpt>
      <trkpt lat="47.55086" lon="6.6756">
        <ele>454.8</ele>
        <time>2017-01-15T10:02:48.000Z</time>
      </trkpt>
      <trkpt lat="47.5509" lon="6.6756">
        <ele>455.1</ele>
        <time>2017-01-15T10:02:50.000Z</time>
      </trkpt>
      <trkpt lat="47.55091" lon="6.6756">
        <ele>455.3</ele>
        <time>2017-01-15T10:02:51.000Z</time>
      </trkpt>
      <trkpt lat="47.55094" lon="6.67559">
        <ele>455.6</ele>
        <time>2017-01-15T10:02:52.000Z</time>
      </trkpt>
      <trkpt lat="47.55096" lon="6.67559">
        <ele>455.8</ele>
        <time>2017-01-15T10:02:53.000Z</time>
      </trkpt>
      <trkpt lat="47.55099" lon="6.67559">
        <ele>456</ele>
        <time>2017-01-15T10:02:54.000Z</time>
      </trkpt>
      <trkpt lat="47.55101" lon="6.6756">
        <ele>456.1</ele>
        <time>2017-01-15T10:02:55.000Z</time>
      </trkpt>
      <trkpt lat="47.55105" lon="6.6756">
        <ele>456.4</ele>
        <time>2017-01-15T10:02:57.000Z</time>
      </trkpt>
      <trkpt lat="47.55108" lon="6.67561">
        <ele>456.5</ele>
        <time>2017-01-15T10:02:58.000Z</time>
      </trkpt>
      <trkpt lat="47.5511" lon="6.67561">
        <ele>456.6</ele>
        <time>2017-01-15T10:02:59.000Z</time>
      </trkpt>
      <trkpt lat="47.55113" lon="6.67561">
        <ele>456.7</ele>
        <time>2017-01-15T10:03:00.000Z</time>
      </trkpt>
      <trkpt lat="47.55115" lon="6.67562">
        <ele>456.7</ele>
        <time>2017-01-15T10:03:01.000Z</time>
      </trkpt>
      <trkpt lat="47.55118" lon="6.67562">
        <ele>456.7</ele>
        <time>2017-01-15T10:03:02.000Z</time>
      </trkpt>
      <trkpt lat="47.55122" lon="6.67563">
        <ele>456.9</ele>
        <time>2017-01-15T10:03:04.000Z</time>
      </trkpt>
      <trkpt lat="47.55124" lon="6.67564">
        <ele>456.9</ele>
        <time>2017-01-15T10:03:05.000Z</time>
      </trkpt>
      <trkpt lat="47.55127" lon="6.67565">
        <ele>457</ele>
        <time>2017-01-15T10:03:06.000Z</time>
      </trkpt>
      <trkpt lat="47.5513" lon="6.67565">
        <ele>457.1</ele>
        <time>2017-01-15T10:03:07.000Z</time>
      </trkpt>
      <trkpt lat="47.55133" lon="6.67565">
        <ele>457.3</ele>
        <time>2017-01-15T10:03:08.000Z</time>
      </trkpt>
      <trkpt lat="47.55136" lon="6.67566">
        <ele>457.4</ele>
        <time>2017-01-15T10:03:09.000Z</time>
      </trkpt>
      <trkpt lat="47.55139" lon="6.67567">
        <ele>457.5</ele>
        <time>2017-01-15T10:03:10.000Z</time>
      </trkpt>
      <trkpt lat="47.55141" lon="6.67567">
        <ele>457.7</ele>
        <time>2017-01-15T10:03:11.000Z</time>
      </trkpt>
      <trkpt lat="47.55144" lon="6.67568">
        <ele>457.8</ele>
        <time>2017-01-15T10:03:12.000Z</time>
      </trkpt>
      <trkpt lat="47.55146" lon="6.67568">
        <ele>458</ele>
        <time>2017-01-15T10:03:13.000Z</time>
      </trkpt>
      <trkpt lat="47.55149" lon="6.67568">
        <ele>458.2</ele>
        <time>2017-01-15T10:03:14.000Z</time>
      </trkpt>
      <trkpt lat="47.55151" lon="6.67569">
        <ele>458.3</ele>
        <time>2017-01-15T10:03:15.000Z</time>
      </trkpt>
      <trkpt lat="47.55153" lon="6.67569">
        <ele>458.4</ele>
        <time>2017-01-15T10:03:16.000Z</time>
      </trkpt>
      <trkpt lat="47.55156" lon="6.6757">
        <ele>458.6</ele>
        <time>2017-01-15T10:03:17.000Z</time>
      </trkpt>
      <trkpt lat="47.5516" lon="6.6757">
        <ele>458.8</ele>
        <time>2017-01-15T10:03:19.000Z</time>
      </trkpt>
      <trkpt lat="47.55163" lon="6.67571">
        <ele>458.9</ele>
        <time>2017-01-15T10:03:20.000Z</time>
      </trkpt>
      <trkpt lat="47.55167" lon="6.67572">
        <ele>459</ele>
        <time>2017-01-15T10:03:21.000Z</time>
      </trkpt>
      <trkpt lat="47.55171" lon="6.67573">
        <ele>459.1</ele>
        <time>2017-01-15T10:03:22.000Z</time>
      </trkpt>
      <trkpt lat="47.55175" lon="6.67574">
        <ele>459.4</ele>
        <time>2017-01-15T10:03:24.000Z</time>
      </trkpt>
      <trkpt lat="47.55177" lon="6.67574">
        <ele>459.5</ele>
        <time>2017-01-15T10:03:25.000Z</time>
      </trkpt>
      <trkpt lat="47.55181" lon="6.67573">
        <ele>459.9</ele>
        <time>2017-01-15T10:03:27.000Z</time>
      </trkpt>
      <trkpt lat="47.55184" lon="6.67573">
        <ele>460.1</ele>
        <time>2017-01-15T10:03:28.000Z</time>
      </trkpt>
      <trkpt lat="47.55186" lon="6.67573">
        <ele>460.2</ele>
        <time>2017-01-15T10:03:29.000Z</time>
      </trkpt>
      <trkpt lat="47.55189" lon="6.67573">
        <ele>460.4</ele>
        <time>2017-01-15T10:03:30.000Z</time>
      </trkpt>
      <trkpt lat="47.55192" lon="6.67574">
        <ele>460.8</ele>
        <time>2017-01-15T10:03:32.000Z</time>
      </trkpt>
      <trkpt lat="47.55194" lon="6.67574">
        <ele>460.9</ele>
        <time>2017-01-15T10:03:33.000Z</time>
      </trkpt>
      <trkpt lat="47.55197" lon="6.67575">
        <ele>461.1</ele>
        <time>2017-01-15T10:03:34.000Z</time>
      </trkpt>
      <trkpt lat="47.55199" lon="6.67575">
        <ele>461.2</ele>
        <time>2017-01-15T10:03:35.000Z</time>
      </trkpt>
      <trkpt lat="47.55202" lon="6.67576">
        <ele>461.3</ele>
        <time>2017-01-15T10:03:36.000Z</time>
      </trkpt>
      <trkpt lat="47.55204" lon="6.67576">
        <ele>461.5</ele>
        <time>2017-01-15T10:03:37.000Z</time>
      </trkpt>
      <trkpt lat="47.55207" lon="6.67576">
        <ele>461.6</ele>
        <time>2017-01-15T10:03:38.000Z</time>
      </trkpt>
      <trkpt lat="47.55209" lon="6.67577">
        <ele>461.8</ele>
        <time>2017-01-15T10:03:39.000Z</time>
      </trkpt>
      <trkpt lat="47.55212" lon="6.67577">
        <ele>461.9</ele>
        <time>2017-01-15T10:03:40.000Z</time>
      </trkpt>
      <trkpt lat="47.55214" lon="6.67578">
        <ele>462</ele>
        <time>2017-01-15T10:03:41.000Z</time>
      </trkpt>
      <trkpt lat="47.55217" lon="6.67578">
        <ele>462.1</ele>
        <time>2017-01-15T10:03:42.000Z</time>
      </trkpt>
      <trkpt lat="47.55219" lon="6.67578">
        <ele>462.3</ele>
        <time>2017-01-15T10:03:43.000Z</time>
      </trkpt>
      <trkpt lat="47.55222" lon="6.67579">
        <ele>462.6</ele>
        <time>2017-01-15T10:03:44.000Z</time>
      </trkpt>
      <trkpt lat="47.55224" lon="6.67579">
        <ele>462.8</ele>
        <time>2017-01-15T10:03:45.000Z</time>
      </trkpt>
      <trkpt lat="47.55227" lon="6.6758">
        <ele>463</ele>
        <time>2017-01-15T10:03:46.000Z</time>
      </trkpt>
      <trkpt lat="47.55231" lon="6.6758">
        <ele>463.2</ele>
        <time>2017-01-15T10:03:47.000Z</time>
      </trkpt>
      <trkpt lat="47.55234" lon="6.67581">
        <ele>463.3</ele>
        <time>2017-01-15T10:03:48.000Z</time>
      </trkpt>
      <trkpt lat="47.55235" lon="6.67582">
        <ele>463.4</ele>
        <time>2017-01-15T10:03:49.000Z</time>
      </trkpt>
      <trkpt lat="47.55239" lon="6.67583">
        <ele>463.5</ele>
        <time>2017-01-15T10:03:51.000Z</time>
      </trkpt>
      <trkpt lat="47.55242" lon="6.67583">
        <ele>463.7</ele>
        <time>2017-01-15T10:03:52.000Z</time>
      </trkpt>
      <trkpt lat="47.55244" lon="6.67583">
        <ele>463.9</ele>
        <time>2017-01-15T10:03:53.000Z</time>
      </trkpt>
      <trkpt lat="47.55246" lon="6.67584">
        <ele>464</ele>
        <time>2017-01-15T10:03:54.000Z</time>
      </trkpt>
      <trkpt lat="47.5525" lon="6.67584">
        <ele>464.4</ele>
        <time>2017-01-15T10:03:56.000Z</time>
      </trkpt>
      <trkpt lat="47.55252" lon="6.67584">
        <ele>464.6</ele>
        <time>2017-01-15T10:03:57.000Z</time>
      </trkpt>
      <trkpt lat="47.55254" lon="6.67585">
        <ele>464.8</ele>
        <time>2017-01-15T10:03:58.000Z</time>
      </trkpt>
      <trkpt lat="47.55257" lon="6.67585">
        <ele>464.9</ele>
        <time>2017-01-15T10:03:59.000Z</time>
      </trkpt>
      <trkpt lat="47.55259" lon="6.67585">
        <ele>465.1</ele>
        <time>2017-01-15T10:04:00.000Z</time>
      </trkpt>
      <trkpt lat="47.55261" lon="6.67585">
        <ele>465.3</ele>
        <time>2017-01-15T10:04:01.000Z</time>
      </trkpt>
      <trkpt lat="47.55265" lon="6.67586">
        <ele>465.5</ele>
        <time>2017-01-15T10:04:03.000Z</time>
      </trkpt>
      <trkpt lat="47.55267" lon="6.67586">
        <ele>465.7</ele>
        <time>2017-01-15T10:04:04.000Z</time>
      </trkpt>
      <trkpt lat="47.5527" lon="6.67587">
        <ele>465.8</ele>
        <time>2017-01-15T10:04:05.000Z</time>
      </trkpt>
      <trkpt lat="47.55272" lon="6.67587">
        <ele>466.1</ele>
        <time>2017-01-15T10:04:06.000Z</time>
      </trkpt>
      <trkpt lat="47.55274" lon="6.67587">
        <ele>466.2</ele>
        <time>2017-01-15T10:04:07.000Z</time>
      </trkpt>
      <trkpt lat="47.55277" lon="6.67588">
        <ele>466.4</ele>
        <time>2017-01-15T10:04:08.000Z</time>
      </trkpt>
      <trkpt lat="47.55281" lon="6.67588">
        <ele>466.8</ele>
        <time>2017-01-15T10:04:10.000Z</time>
      </trkpt>
      <trkpt lat="47.55282" lon="6.67589">
        <ele>467</ele>
        <time>2017-01-15T10:04:11.000Z</time>
      </trkpt>
      <trkpt lat="47.55287" lon="6.6759">
        <ele>467.6</ele>
        <time>2017-01-15T10:04:13.000Z</time>
      </trkpt>
      <trkpt lat="47.55288" lon="6.6759">
        <ele>467.9</ele>
        <time>2017-01-15T10:04:14.000Z</time>
      </trkpt>
      <trkpt lat="47.55291" lon="6.67591">
        <ele>468.1</ele>
        <time>2017-01-15T10:04:15.000Z</time>
      </trkpt>
      <trkpt lat="47.55294" lon="6.67592">
        <ele>468.4</ele>
        <time>2017-01-15T10:04:16.000Z</time>
      </trkpt>
      <trkpt lat="47.55296" lon="6.67592">
        <ele>468.6</ele>
        <time>2017-01-15T10:04:17.000Z</time>
      </trkpt>
      <trkpt lat="47.55299" lon="6.67592">
        <ele>468.8</ele>
        <time>2017-01-15T10:04:18.000Z</time>
      </trkpt>
      <trkpt lat="47.55303" lon="6.67592">
        <ele>469.3</ele>
        <time>2017-01-15T10:04:20.000Z</time>
      </trkpt>
      <trkpt lat="47.55305" lon="6.67592">
        <ele>469.6</ele>
        <time>2017-01-15T10:04:21.000Z</time>
      </trkpt>
      <trkpt lat="47.55309" lon="6.67592">
        <ele>470</ele>
        <time>2017-01-15T10:04:23.000Z</time>
      </trkpt>
      <trkpt lat="47.55311" lon="6.67592">
        <ele>470.2</ele>
        <time>2017-01-15T10:04:24.000Z</time>
      </trkpt>
      <trkpt lat="47.55315" lon="6.67594">
        <ele>470.4</ele>
        <time>2017-01-15T10:04:26.000Z</time>
      </trkpt>
      <trkpt lat="47.55317" lon="6.67594">
        <ele>470.6</ele>
        <time>2017-01-15T10:04:27.000Z</time>
      </trkpt>
      <trkpt lat="47.5532" lon="6.67596">
        <ele>470.9</ele>
        <time>2017-01-15T10:04:29.000Z</time>
      </trkpt>
      <trkpt lat="47.55323" lon="6.67597">
        <ele>471.1</ele>
        <time>2017-01-15T10:04:30.000Z</time>
      </trkpt>
      <trkpt lat="47.55325" lon="6.67597">
        <ele>471.3</ele>
        <time>2017-01-15T10:04:31.000Z</time>
      </trkpt>
      <trkpt lat="47.55328" lon="6.67598">
        <ele>471.4</ele>
        <time>2017-01-15T10:04:32.000Z</time>
      </trkpt>
      <trkpt lat="47.55332" lon="6.67601">
        <ele>471.7</ele>
        <time>2017-01-15T10:04:34.000Z</time>
      </trkpt>
      <trkpt lat="47.55334" lon="6.67601">
        <ele>471.8</ele>
        <time>2017-01-15T10:04:35.000Z</time>
      </trkpt>
      <trkpt lat="47.55338" lon="6.67601">
        <ele>472</ele>
        <time>2017-01-15T10:04:37.000Z</time>
      </trkpt>
      <trkpt lat="47.55339" lon="6.67601">
        <ele>472.2</ele>
        <time>2017-01-15T10:04:38.000Z</time>
      </trkpt>
      <trkpt lat="47.55343" lon="6.67602">
        <ele>472.6</ele>
        <time>2017-01-15T10:04:40.000Z</time>
      </trkpt>
      <trkpt lat="47.55345" lon="6.67603">
        <ele>472.7</ele>
        <time>2017-01-15T10:04:41.000Z</time>
      </trkpt>
      <trkpt lat="47.55349" lon="6.67603">
        <ele>472.9</ele>
        <time>2017-01-15T10:04:43.000Z</time>
      </trkpt>
      <trkpt lat="47.5535" lon="6.67603">
        <ele>473</ele>
        <time>2017-01-15T10:04:44.000Z</time>
      </trkpt>
      <trkpt lat="47.55353" lon="6.67604">
        <ele>473.2</ele>
        <time>2017-01-15T10:04:46.000Z</time>
      </trkpt>
      <trkpt lat="47.55354" lon="6.67604">
        <ele>473.3</ele>
        <time>2017-01-15T10:04:47.000Z</time>
      </trkpt>
      <trkpt lat="47.55358" lon="6.67605">
        <ele>473.6</ele>
        <time>2017-01-15T10:04:49.000Z</time>
      </trkpt>
      <trkpt lat="47.55359" lon="6.67605">
        <ele>473.7</ele>
        <time>2017-01-15T10:04:50.000Z</time>
      </trkpt>
      <trkpt lat="47.55363" lon="6.67607">
        <ele>474</ele>
        <time>2017-01-15T10:04:52.000Z</time>
      </trkpt>
      <trkpt lat="47.55365" lon="6.67607">
        <ele>474.3</ele>
        <time>2017-01-15T10:04:53.000Z</time>
      </trkpt>
      <trkpt lat="47.55369" lon="6.67608">
        <ele>474.8</ele>
        <time>2017-01-15T10:04:55.000Z</time>
      </trkpt>
      <trkpt lat="47.55371" lon="6.67608">
        <ele>475</ele>
        <time>2017-01-15T10:04:56.000Z</time>
      </trkpt>
      <trkpt lat="47.55375" lon="6.67608">
        <ele>475.4</ele>
        <time>2017-01-15T10:04:58.000Z</time>
      </trkpt>
      <trkpt lat="47.55377" lon="6.67607">
        <ele>475.7</ele>
        <time>2017-01-15T10:04:59.000Z</time>
      </trkpt>
      <trkpt lat="47.5538" lon="6.67608">
        <ele>475.9</ele>
        <time>2017-01-15T10:05:00.000Z</time>
      </trkpt>
      <trkpt lat="47.55382" lon="6.67608">
        <ele>476</ele>
        <time>2017-01-15T10:05:01.000Z</time>
      </trkpt>
      <trkpt lat="47.55385" lon="6.67609">
        <ele>476.3</ele>
        <time>2017-01-15T10:05:03.000Z</time>
      </trkpt>
      <trkpt lat="47.55387" lon="6.6761">
        <ele>476.4</ele>
        <time>2017-01-15T10:05:04.000Z</time>
      </trkpt>
      <trkpt lat="47.5539" lon="6.6761">
        <ele>476.6</ele>
        <time>2017-01-15T10:05:06.000Z</time>
      </trkpt>
      <trkpt lat="47.55391" lon="6.67611">
        <ele>476.7</ele>
        <time>2017-01-15T10:05:07.000Z</time>
      </trkpt>
      <trkpt lat="47.55394" lon="6.67612">
        <ele>477</ele>
        <time>2017-01-15T10:05:10.000Z</time>
      </trkpt>
      <trkpt lat="47.55396" lon="6.67613">
        <ele>477.1</ele>
        <time>2017-01-15T10:05:11.000Z</time>
      </trkpt>
      <trkpt lat="47.55398" lon="6.67613">
        <ele>477.4</ele>
        <time>2017-01-15T10:05:13.000Z</time>
      </trkpt>
      <trkpt lat="47.55402" lon="6.67613">
        <ele>477.6</ele>
        <time>2017-01-15T10:05:14.000Z</time>
      </trkpt>
      <trkpt lat="47.55404" lon="6.67613">
        <ele>477.6</ele>
        <time>2017-01-15T10:05:15.000Z</time>
      </trkpt>
      <trkpt lat="47.55407" lon="6.67613">
        <ele>477.7</ele>
        <time>2017-01-15T10:05:16.000Z</time>
      </trkpt>
      <trkpt lat="47.55411" lon="6.67613">
        <ele>477.8</ele>
        <time>2017-01-15T10:05:17.000Z</time>
      </trkpt>
      <trkpt lat="47.55414" lon="6.67614">
        <ele>477.8</ele>
        <time>2017-01-15T10:05:18.000Z</time>
      </trkpt>
      <trkpt lat="47.55417" lon="6.67614">
        <ele>477.8</ele>
        <time>2017-01-15T10:05:19.000Z</time>
      </trkpt>
      <trkpt lat="47.55419" lon="6.67614">
        <ele>477.8</ele>
        <time>2017-01-15T10:05:20.000Z</time>
      </trkpt>
      <trkpt lat="47.55423" lon="6.67612">
        <ele>477.9</ele>
        <time>2017-01-15T10:05:21.000Z</time>
      </trkpt>
      <trkpt lat="47.55426" lon="6.67611">
        <ele>477.9</ele>
        <time>2017-01-15T10:05:22.000Z</time>
      </trkpt>
      <trkpt lat="47.55428" lon="6.6761">
        <ele>478</ele>
        <time>2017-01-15T10:05:23.000Z</time>
      </trkpt>
      <trkpt lat="47.5543" lon="6.67609">
        <ele>478</ele>
        <time>2017-01-15T10:05:24.000Z</time>
      </trkpt>
      <trkpt lat="47.55433" lon="6.67608">
        <ele>478</ele>
        <time>2017-01-15T10:05:25.000Z</time>
      </trkpt>
      <trkpt lat="47.55435" lon="6.67606">
        <ele>478</ele>
        <time>2017-01-15T10:05:26.000Z</time>
      </trkpt>
      <trkpt lat="47.55439" lon="6.67603">
        <ele>478.1</ele>
        <time>2017-01-15T10:05:28.000Z</time>
      </trkpt>
      <trkpt lat="47.55441" lon="6.67603">
        <ele>478.3</ele>
        <time>2017-01-15T10:05:29.000Z</time>
      </trkpt>
      <trkpt lat="47.55444" lon="6.67601">
        <ele>478.4</ele>
        <time>2017-01-15T10:05:30.000Z</time>
      </trkpt>
      <trkpt lat="47.55446" lon="6.676">
        <ele>478.5</ele>
        <time>2017-01-15T10:05:31.000Z</time>
      </trkpt>
      <trkpt lat="47.5545" lon="6.67597">
        <ele>478.8</ele>
        <time>2017-01-15T10:05:35.000Z</time>
      </trkpt>
      <trkpt lat="47.55451" lon="6.67597">
        <ele>478.8</ele>
        <time>2017-01-15T10:05:36.000Z</time>
      </trkpt>
      <trkpt lat="47.55455" lon="6.67597">
        <ele>478.8</ele>
        <time>2017-01-15T10:05:38.000Z</time>
      </trkpt>
      <trkpt lat="47.5546" lon="6.67595">
        <ele>478.8</ele>
        <time>2017-01-15T10:05:39.000Z</time>
      </trkpt>
      <trkpt lat="47.55464" lon="6.67595">
        <ele>478.8</ele>
        <time>2017-01-15T10:05:40.000Z</time>
      </trkpt>
      <trkpt lat="47.55468" lon="6.67593">
        <ele>478.9</ele>
        <time>2017-01-15T10:05:41.000Z</time>
      </trkpt>
      <trkpt lat="47.55472" lon="6.6759">
        <ele>479.6</ele>
        <time>2017-01-15T10:05:44.000Z</time>
      </trkpt>
      <trkpt lat="47.55474" lon="6.67589">
        <ele>479.9</ele>
        <time>2017-01-15T10:05:45.000Z</time>
      </trkpt>
      <trkpt lat="47.55478" lon="6.67587">
        <ele>481</ele>
        <time>2017-01-15T10:05:48.000Z</time>
      </trkpt>
      <trkpt lat="47.55478" lon="6.67587">
        <ele>481.4</ele>
        <time>2017-01-15T10:05:49.000Z</time>
      </trkpt>
      <trkpt lat="47.55482" lon="6.67586">
        <ele>482.5</ele>
        <time>2017-01-15T10:05:52.000Z</time>
      </trkpt>
      <trkpt lat="47.55483" lon="6.67587">
        <ele>482.9</ele>
        <time>2017-01-15T10:05:53.000Z</time>
      </trkpt>
      <trkpt lat="47.55487" lon="6.67587">
        <ele>483.2</ele>
        <time>2017-01-15T10:05:54.000Z</time>
      </trkpt>
      <trkpt lat="47.55489" lon="6.67586">
        <ele>483.6</ele>
        <time>2017-01-15T10:05:55.000Z</time>
      </trkpt>
      <trkpt lat="47.55493" lon="6.67584">
        <ele>484.4</ele>
        <time>2017-01-15T10:05:57.000Z</time>
      </trkpt>
      <trkpt lat="47.55494" lon="6.67584">
        <ele>484.4</ele>
        <time>2017-01-15T10:05:58.000Z</time>
      </trkpt>
      <trkpt lat="47.55497" lon="6.67583">
        <ele>485</ele>
        <time>2017-01-15T10:06:00.000Z</time>
      </trkpt>
      <trkpt lat="47.55499" lon="6.67581">
        <ele>485.3</ele>
        <time>2017-01-15T10:06:01.000Z</time>
      </trkpt>
      <trkpt lat="47.55503" lon="6.6758">
        <ele>485.9</ele>
        <time>2017-01-15T10:06:05.000Z</time>
      </trkpt>
      <trkpt lat="47.55504" lon="6.67581">
        <ele>486.1</ele>
        <time>2017-01-15T10:06:06.000Z</time>
      </trkpt>
      <trkpt lat="47.55508" lon="6.67578">
        <ele>487.2</ele>
        <time>2017-01-15T10:06:10.000Z</time>
      </trkpt>
      <trkpt lat="47.5551" lon="6.67575">
        <ele>487.5</ele>
        <time>2017-01-15T10:06:11.000Z</time>
      </trkpt>
      <trkpt lat="47.55512" lon="6.67573">
        <ele>487.9</ele>
        <time>2017-01-15T10:06:12.000Z</time>
      </trkpt>
      <trkpt lat="47.55514" lon="6.67571">
        <ele>488.3</ele>
        <time>2017-01-15T10:06:13.000Z</time>
      </trkpt>
      <trkpt lat="47.55516" lon="6.67568">
        <ele>488.7</ele>
        <time>2017-01-15T10:06:14.000Z</time>
      </trkpt>
      <trkpt lat="47.55518" lon="6.67565">
        <ele>489.2</ele>
        <time>2017-01-15T10:06:15.000Z</time>
      </trkpt>
      <trkpt lat="47.5552" lon="6.67559">
        <ele>490.6</ele>
        <time>2017-01-15T10:06:18.000Z</time>
      </trkpt>
      <trkpt lat="47.55521" lon="6.67557">
        <ele>491.1</ele>
        <time>2017-01-15T10:06:19.000Z</time>
      </trkpt>
      <trkpt lat="47.55522" lon="6.67551">
        <ele>493.8</ele>
        <time>2017-01-15T10:06:27.000Z</time>
      </trkpt>
      <trkpt lat="47.55523" lon="6.6755">
        <ele>494</ele>
        <time>2017-01-15T10:06:28.000Z</time>
      </trkpt>
      <trkpt lat="47.55524" lon="6.67544">
        <ele>495.1</ele>
        <time>2017-01-15T10:06:35.000Z</time>
      </trkpt>
      <trkpt lat="47.55524" lon="6.67543">
        <ele>495.2</ele>
        <time>2017-01-15T10:06:36.000Z</time>
      </trkpt>
      <trkpt lat="47.55525" lon="6.67538">
        <ele>495.8</ele>
        <time>2017-01-15T10:06:40.000Z</time>
      </trkpt>
      <trkpt lat="47.55526" lon="6.67534">
        <ele>495.9</ele>
        <time>2017-01-15T10:06:41.000Z</time>
      </trkpt>
      <trkpt lat="47.55529" lon="6.6753">
        <ele>496.6</ele>
        <time>2017-01-15T10:06:45.000Z</time>
      </trkpt>
      <trkpt lat="47.5553" lon="6.67528">
        <ele>496.8</ele>
        <time>2017-01-15T10:06:46.000Z</time>
      </trkpt>
      <trkpt lat="47.55532" lon="6.67525">
        <ele>497.5</ele>
        <time>2017-01-15T10:06:50.000Z</time>
      </trkpt>
      <trkpt lat="47.55533" lon="6.67522">
        <ele>497.7</ele>
        <time>2017-01-15T10:06:51.000Z</time>
      </trkpt>
      <trkpt lat="47.55535" lon="6.67516">
        <ele>498</ele>
        <time>2017-01-15T10:06:54.000Z</time>
      </trkpt>
      <trkpt lat="47.55536" lon="6.67515">
        <ele>498</ele>
        <time>2017-01-15T10:06:55.000Z</time>
      </trkpt>
      <trkpt lat="47.55538" lon="6.67511">
        <ele>498</ele>
        <time>2017-01-15T10:06:58.000Z</time>
      </trkpt>
      <trkpt lat="47.55538" lon="6.67509">
        <ele>498.1</ele>
        <time>2017-01-15T10:06:59.000Z</time>
      </trkpt>
      <trkpt lat="47.55542" lon="6.67505">
        <ele>498.8</ele>
        <time>2017-01-15T10:07:03.000Z</time>
      </trkpt>
      <trkpt lat="47.55542" lon="6.67503">
        <ele>498.9</ele>
        <time>2017-01-15T10:07:04.000Z</time>
      </trkpt>
      <trkpt lat="47.55543" lon="6.67498">
        <ele>499.2</ele>
        <time>2017-01-15T10:07:06.000Z</time>
      </trkpt>
      <trkpt lat="47.55543" lon="6.67496">
        <ele>499.3</ele>
        <time>2017-01-15T10:07:07.000Z</time>
      </trkpt>
      <trkpt lat="47.55544" lon="6.67491">
        <ele>499.7</ele>
        <time>2017-01-15T10:07:09.000Z</time>
      </trkpt>
      <trkpt lat="47.55545" lon="6.67487">
        <ele>499.9</ele>
        <time>2017-01-15T10:07:10.000Z</time>
      </trkpt>
      <trkpt lat="47.55546" lon="6.67481">
        <ele>500.5</ele>
        <time>2017-01-15T10:07:13.000Z</time>
      </trkpt>
      <trkpt lat="47.55546" lon="6.6748">
        <ele>500.7</ele>
        <time>2017-01-15T10:07:14.000Z</time>
      </trkpt>
      <trkpt lat="47.55547" lon="6.67475">
        <ele>501.1</ele>
        <time>2017-01-15T10:07:16.000Z</time>
      </trkpt>
      <trkpt lat="47.55547" lon="6.67472">
        <ele>501.2</ele>
        <time>2017-01-15T10:07:17.000Z</time>
      </trkpt>
      <trkpt lat="47.55547" lon="6.67467">
        <ele>501.6</ele>
        <time>2017-01-15T10:07:19.000Z</time>
      </trkpt>
      <trkpt lat="47.55547" lon="6.67465">
        <ele>501.8</ele>
        <time>2017-01-15T10:07:20.000Z</time>
      </trkpt>
      <trkpt lat="47.55547" lon="6.67459">
        <ele>502.1</ele>
        <time>2017-01-15T10:07:22.000Z</time>
      </trkpt>
      <trkpt lat="47.55547" lon="6.67457">
        <ele>502.3</ele>
        <time>2017-01-15T10:07:23.000Z</time>
      </trkpt>
      <trkpt lat="47.55547" lon="6.67451">
        <ele>502.9</ele>
        <time>2017-01-15T10:07:26.000Z</time>
      </trkpt>
      <trkpt lat="47.55547" lon="6.67449">
        <ele>503.1</ele>
        <time>2017-01-15T10:07:27.000Z</time>
      </trkpt>
      <trkpt lat="47.55547" lon="6.67444">
        <ele>503.4</ele>
        <time>2017-01-15T10:07:29.000Z</time>
      </trkpt>
      <trkpt lat="47.55548" lon="6.6744">
        <ele>503.6</ele>
        <time>2017-01-15T10:07:30.000Z</time>
      </trkpt>
      <trkpt lat="47.55548" lon="6.67434">
        <ele>504.1</ele>
        <time>2017-01-15T10:07:33.000Z</time>
      </trkpt>
      <trkpt lat="47.55548" lon="6.67433">
        <ele>504.2</ele>
        <time>2017-01-15T10:07:34.000Z</time>
      </trkpt>
      <trkpt lat="47.55549" lon="6.67427">
        <ele>504.5</ele>
        <time>2017-01-15T10:07:38.000Z</time>
      </trkpt>
      <trkpt lat="47.5555" lon="6.67425">
        <ele>504.5</ele>
        <time>2017-01-15T10:07:39.000Z</time>
      </trkpt>
      <trkpt lat="47.55546" lon="6.67429">
        <ele>504.8</ele>
        <time>2017-01-15T10:08:01.999Z</time>
      </trkpt>
      <trkpt lat="47.55546" lon="6.67429">
        <ele>504.8</ele>
        <time>2017-01-15T10:08:02.999Z</time>
      </trkpt>
      <trkpt lat="47.5555" lon="6.67431">
        <ele>504.8</ele>
        <time>2017-01-15T10:08:09.999Z</time>
      </trkpt>
      <trkpt lat="47.55551" lon="6.6743">
        <ele>504.8</ele>
        <time>2017-01-15T10:08:10.999Z</time>
      </trkpt>
      <trkpt lat="47.55554" lon="6.67429">
        <ele>504.8</ele>
        <time>2017-01-15T10:08:13.999Z</time>
      </trkpt>
      <trkpt lat="47.55555" lon="6.67429">
        <ele>504.8</ele>
        <time>2017-01-15T10:08:14.999Z</time>
      </trkpt>
      <trkpt lat="47.55552" lon="6.67425">
        <ele>508.6</ele>
        <time>2017-01-15T10:09:35.999Z</time>
      </trkpt>
      <trkpt lat="47.5555" lon="6.67425">
        <ele>508.9</ele>
        <time>2017-01-15T10:09:36.999Z</time>
      </trkpt>
      <trkpt lat="47.55554" lon="6.67422">
        <ele>509.4</ele>
        <time>2017-01-15T10:09:45.999Z</time>
      </trkpt>
      <trkpt lat="47.55555" lon="6.67422">
        <ele>509.5</ele>
        <time>2017-01-15T10:09:46.999Z</time>
      </trkpt>
      <trkpt lat="47.55558" lon="6.67418">
        <ele>509.7</ele>
        <time>2017-01-15T10:09:59.999Z</time>
      </trkpt>
      <trkpt lat="47.5556" lon="6.67417">
        <ele>509.7</ele>
        <time>2017-01-15T10:10:00.999Z</time>
      </trkpt>
      <trkpt lat="47.55561" lon="6.67416">
        <ele>509.9</ele>
        <time>2017-01-15T10:10:05.999Z</time>
      </trkpt>
      <trkpt lat="47.55564" lon="6.67412">
        <ele>510.1</ele>
        <time>2017-01-15T10:10:06.999Z</time>
      </trkpt>
      <trkpt lat="47.55566" lon="6.67408">
        <ele>510.8</ele>
        <time>2017-01-15T10:10:08.999Z</time>
      </trkpt>
      <trkpt lat="47.55568" lon="6.67406">
        <ele>511.2</ele>
        <time>2017-01-15T10:10:09.999Z</time>
      </trkpt>
      <trkpt lat="47.5557" lon="6.67401">
        <ele>511.7</ele>
        <time>2017-01-15T10:10:11.999Z</time>
      </trkpt>
      <trkpt lat="47.5557" lon="6.67399">
        <ele>512</ele>
        <time>2017-01-15T10:10:12.999Z</time>
      </trkpt>
      <trkpt lat="47.55572" lon="6.67394">
        <ele>512.6</ele>
        <time>2017-01-15T10:10:15.999Z</time>
      </trkpt>
      <trkpt lat="47.55573" lon="6.67392">
        <ele>512.7</ele>
        <time>2017-01-15T10:10:16.999Z</time>
      </trkpt>
      <trkpt lat="47.55576" lon="6.67387">
        <ele>512.8</ele>
        <time>2017-01-15T10:10:17.999Z</time>
      </trkpt>
      <trkpt lat="47.55579" lon="6.67382">
        <ele>512.9</ele>
        <time>2017-01-15T10:10:20.999Z</time>
      </trkpt>
      <trkpt lat="47.5558" lon="6.67381">
        <ele>513</ele>
        <time>2017-01-15T10:10:21.999Z</time>
      </trkpt>
      <trkpt lat="47.55583" lon="6.67379">
        <ele>513.2</ele>
        <time>2017-01-15T10:10:24.999Z</time>
      </trkpt>
      <trkpt lat="47.55584" lon="6.67378">
        <ele>513.3</ele>
        <time>2017-01-15T10:10:25.999Z</time>
      </trkpt>
      <trkpt lat="47.55587" lon="6.67375">
        <ele>513.4</ele>
        <time>2017-01-15T10:10:27.999Z</time>
      </trkpt>
      <trkpt lat="47.55588" lon="6.67374">
        <ele>513.5</ele>
        <time>2017-01-15T10:10:28.999Z</time>
      </trkpt>
      <trkpt lat="47.55591" lon="6.67369">
        <ele>515</ele>
        <time>2017-01-15T10:10:39.999Z</time>
      </trkpt>
      <trkpt lat="47.55591" lon="6.67369">
        <ele>515.2</ele>
        <time>2017-01-15T10:10:40.999Z</time>
      </trkpt>
      <trkpt lat="47.55593" lon="6.67364">
        <ele>515.8</ele>
        <time>2017-01-15T10:10:45.999Z</time>
      </trkpt>
      <trkpt lat="47.55593" lon="6.67362">
        <ele>515.9</ele>
        <time>2017-01-15T10:10:46.999Z</time>
      </trkpt>
      <trkpt lat="47.55596" lon="6.67357">
        <ele>516.9</ele>
        <time>2017-01-15T10:10:55.999Z</time>
      </trkpt>
      <trkpt lat="47.55596" lon="6.67356">
        <ele>517</ele>
        <time>2017-01-15T10:10:56.999Z</time>
      </trkpt>
      <trkpt lat="47.55599" lon="6.67352">
        <ele>516.9</ele>
        <time>2017-01-15T10:11:00.999Z</time>
      </trkpt>
      <trkpt lat="47.55599" lon="6.6735">
        <ele>516.9</ele>
        <time>2017-01-15T10:11:01.999Z</time>
      </trkpt>
      <trkpt lat="47.55603" lon="6.67347">
        <ele>516.7</ele>
        <time>2017-01-15T10:11:07.999Z</time>
      </trkpt>
      <trkpt lat="47.55604" lon="6.67346">
        <ele>516.6</ele>
        <time>2017-01-15T10:11:08.999Z</time>
      </trkpt>
      <trkpt lat="47.55605" lon="6.67341">
        <ele>516.5</ele>
        <time>2017-01-15T10:11:12.999Z</time>
      </trkpt>
      <trkpt lat="47.55606" lon="6.6734">
        <ele>516.6</ele>
        <time>2017-01-15T10:11:13.999Z</time>
      </trkpt>
      <trkpt lat="47.55608" lon="6.67336">
        <ele>517</ele>
        <time>2017-01-15T10:11:17.999Z</time>
      </trkpt>
      <trkpt lat="47.55609" lon="6.67335">
        <ele>517.1</ele>
        <time>2017-01-15T10:11:18.999Z</time>
      </trkpt>
      <trkpt lat="47.55611" lon="6.6733">
        <ele>517.3</ele>
        <time>2017-01-15T10:11:21.999Z</time>
      </trkpt>
      <trkpt lat="47.55612" lon="6.67328">
        <ele>517.4</ele>
        <time>2017-01-15T10:11:22.999Z</time>
      </trkpt>
      <trkpt lat="47.55614" lon="6.67324">
        <ele>517.4</ele>
        <time>2017-01-15T10:11:24.999Z</time>
      </trkpt>
      <trkpt lat="47.55615" lon="6.67322">
        <ele>517.4</ele>
        <time>2017-01-15T10:11:25.999Z</time>
      </trkpt>
      <trkpt lat="47.55617" lon="6.67318">
        <ele>517.7</ele>
        <time>2017-01-15T10:11:29.999Z</time>
      </trkpt>
      <trkpt lat="47.55618" lon="6.67316">
        <ele>517.9</ele>
        <time>2017-01-15T10:11:30.999Z</time>
      </trkpt>
      <trkpt lat="47.55621" lon="6.67311">
        <ele>519.2</ele>
        <time>2017-01-15T10:11:37.999Z</time>
      </trkpt>
      <trkpt lat="47.55621" lon="6.67311">
        <ele>519.4</ele>
        <time>2017-01-15T10:11:38.999Z</time>
      </trkpt>
      <trkpt lat="47.55623" lon="6.67306">
        <ele>520.2</ele>
        <time>2017-01-15T10:11:42.999Z</time>
      </trkpt>
      <trkpt lat="47.55623" lon="6.67305">
        <ele>520.3</ele>
        <time>2017-01-15T10:11:43.999Z</time>
      </trkpt>
      <trkpt lat="47.55624" lon="6.67298">
        <ele>521.1</ele>
        <time>2017-01-15T10:11:48.999Z</time>
      </trkpt>
      <trkpt lat="47.55624" lon="6.67297">
        <ele>521.2</ele>
        <time>2017-01-15T10:11:49.999Z</time>
      </trkpt>
      <trkpt lat="47.55624" lon="6.67291">
        <ele>521.9</ele>
        <time>2017-01-15T10:11:53.999Z</time>
      </trkpt>
      <trkpt lat="47.55625" lon="6.67288">
        <ele>522.1</ele>
        <time>2017-01-15T10:11:54.999Z</time>
      </trkpt>
      <trkpt lat="47.55626" lon="6.67282">
        <ele>522.9</ele>
        <time>2017-01-15T10:12:01.999Z</time>
      </trkpt>
      <trkpt lat="47.55627" lon="6.67281">
        <ele>523</ele>
        <time>2017-01-15T10:12:02.999Z</time>
      </trkpt>
      <trkpt lat="47.5563" lon="6.67279">
        <ele>523.7</ele>
        <time>2017-01-15T10:12:07.999Z</time>
      </trkpt>
      <trkpt lat="47.55631" lon="6.67278">
        <ele>523.9</ele>
        <time>2017-01-15T10:12:08.999Z</time>
      </trkpt>
      <trkpt lat="47.55635" lon="6.67275">
        <ele>525.1</ele>
        <time>2017-01-15T10:12:13.999Z</time>
      </trkpt>
      <trkpt lat="47.55635" lon="6.67275">
        <ele>525.3</ele>
        <time>2017-01-15T10:12:14.999Z</time>
      </trkpt>
      <trkpt lat="47.55639" lon="6.67275">
        <ele>526.3</ele>
        <time>2017-01-15T10:12:20.999Z</time>
      </trkpt>
      <trkpt lat="47.5564" lon="6.67275">
        <ele>526.4</ele>
        <time>2017-01-15T10:12:21.999Z</time>
      </trkpt>
      <trkpt lat="47.55645" lon="6.67275">
        <ele>527.2</ele>
        <time>2017-01-15T10:12:26.999Z</time>
      </trkpt>
      <trkpt lat="47.55645" lon="6.67275">
        <ele>527.2</ele>
        <time>2017-01-15T10:12:27.999Z</time>
      </trkpt>
      <trkpt lat="47.55649" lon="6.67274">
        <ele>529.3</ele>
        <time>2017-01-15T10:12:34.999Z</time>
      </trkpt>
      <trkpt lat="47.5565" lon="6.67274">
        <ele>529.6</ele>
        <time>2017-01-15T10:12:35.999Z</time>
      </trkpt>
      <trkpt lat="47.55652" lon="6.67271">
        <ele>530.3</ele>
        <time>2017-01-15T10:12:38.999Z</time>
      </trkpt>
      <trkpt lat="47.55654" lon="6.6727">
        <ele>530.5</ele>
        <time>2017-01-15T10:12:39.999Z</time>
      </trkpt>
      <trkpt lat="47.55658" lon="6.67268">
        <ele>530.9</ele>
        <time>2017-01-15T10:12:43.999Z</time>
      </trkpt>
      <trkpt lat="47.55659" lon="6.67267">
        <ele>531</ele>
        <time>2017-01-15T10:12:44.999Z</time>
      </trkpt>
      <trkpt lat="47.55662" lon="6.67265">
        <ele>530.9</ele>
        <time>2017-01-15T10:12:49.999Z</time>
      </trkpt>
      <trkpt lat="47.55663" lon="6.67265">
        <ele>530.9</ele>
        <time>2017-01-15T10:12:50.999Z</time>
      </trkpt>
      <trkpt lat="47.55667" lon="6.67266">
        <ele>530.9</ele>
        <time>2017-01-15T10:12:53.999Z</time>
      </trkpt>
      <trkpt lat="47.55668" lon="6.67266">
        <ele>530.9</ele>
        <time>2017-01-15T10:12:54.999Z</time>
      </trkpt>
      <trkpt lat="47.55672" lon="6.67264">
        <ele>530.9</ele>
        <time>2017-01-15T10:12:57.999Z</time>
      </trkpt>
      <trkpt lat="47.55673" lon="6.67264">
        <ele>531</ele>
        <time>2017-01-15T10:12:58.999Z</time>
      </trkpt>
      <trkpt lat="47.55677" lon="6.67262">
        <ele>531</ele>
        <time>2017-01-15T10:13:02.999Z</time>
      </trkpt>
      <trkpt lat="47.55678" lon="6.67261">
        <ele>531.1</ele>
        <time>2017-01-15T10:13:03.999Z</time>
      </trkpt>
      <trkpt lat="47.55681" lon="6.67258">
        <ele>530.9</ele>
        <time>2017-01-15T10:13:06.999Z</time>
      </trkpt>
      <trkpt lat="47.55682" lon="6.67256">
        <ele>530.7</ele>
        <time>2017-01-15T10:13:07.999Z</time>
      </trkpt>
      <trkpt lat="47.55685" lon="6.67254">
        <ele>530.4</ele>
        <time>2017-01-15T10:13:10.999Z</time>
      </trkpt>
      <trkpt lat="47.55686" lon="6.67253">
        <ele>530.5</ele>
        <time>2017-01-15T10:13:11.999Z</time>
      </trkpt>
      <trkpt lat="47.5569" lon="6.6725">
        <ele>530.3</ele>
        <time>2017-01-15T10:13:14.999Z</time>
      </trkpt>
      <trkpt lat="47.5569" lon="6.67249">
        <ele>530.3</ele>
        <time>2017-01-15T10:13:15.999Z</time>
      </trkpt>
      <trkpt lat="47.55694" lon="6.67246">
        <ele>530.4</ele>
        <time>2017-01-15T10:13:23.999Z</time>
      </trkpt>
      <trkpt lat="47.55695" lon="6.67245">
        <ele>530.4</ele>
        <time>2017-01-15T10:13:24.999Z</time>
      </trkpt>
      <trkpt lat="47.55698" lon="6.67242">
        <ele>530.5</ele>
        <time>2017-01-15T10:13:26.999Z</time>
      </trkpt>
      <trkpt lat="47.55699" lon="6.67241">
        <ele>530.6</ele>
        <time>2017-01-15T10:13:27.999Z</time>
      </trkpt>
      <trkpt lat="47.55702" lon="6.6724">
        <ele>531</ele>
        <time>2017-01-15T10:13:29.999Z</time>
      </trkpt>
      <trkpt lat="47.55704" lon="6.67239">
        <ele>531.1</ele>
        <time>2017-01-15T10:13:30.999Z</time>
      </trkpt>
      <trkpt lat="47.55707" lon="6.67237">
        <ele>531.5</ele>
        <time>2017-01-15T10:13:32.999Z</time>
      </trkpt>
      <trkpt lat="47.55709" lon="6.67236">
        <ele>531.7</ele>
        <time>2017-01-15T10:13:33.999Z</time>
      </trkpt>
      <trkpt lat="47.55713" lon="6.67233">
        <ele>532.7</ele>
        <time>2017-01-15T10:13:37.999Z</time>
      </trkpt>
      <trkpt lat="47.55715" lon="6.67232">
        <ele>533</ele>
        <time>2017-01-15T10:13:38.999Z</time>
      </trkpt>
      <trkpt lat="47.55717" lon="6.67227">
        <ele>534.4</ele>
        <time>2017-01-15T10:13:42.999Z</time>
      </trkpt>
      <trkpt lat="47.55718" lon="6.67226">
        <ele>534.6</ele>
        <time>2017-01-15T10:13:43.999Z</time>
      </trkpt>
      <trkpt lat="47.55721" lon="6.67223">
        <ele>536.5</ele>
        <time>2017-01-15T10:13:49.999Z</time>
      </trkpt>
      <trkpt lat="47.55722" lon="6.67222">
        <ele>536.7</ele>
        <time>2017-01-15T10:13:50.999Z</time>
      </trkpt>
      <trkpt lat="47.55724" lon="6.67218">
        <ele>538.5</ele>
        <time>2017-01-15T10:14:01.999Z</time>
      </trkpt>
      <trkpt lat="47.55725" lon="6.67217">
        <ele>538.7</ele>
        <time>2017-01-15T10:14:02.999Z</time>
      </trkpt>
      <trkpt lat="47.55729" lon="6.67214">
        <ele>539.3</ele>
        <time>2017-01-15T10:14:07.999Z</time>
      </trkpt>
      <trkpt lat="47.55729" lon="6.67214">
        <ele>539.4</ele>
        <time>2017-01-15T10:14:08.999Z</time>
      </trkpt>
      <trkpt lat="47.55729" lon="6.67208">
        <ele>540</ele>
        <time>2017-01-15T10:14:20.999Z</time>
      </trkpt>
      <trkpt lat="47.55729" lon="6.67207">
        <ele>540.3</ele>
        <time>2017-01-15T10:14:21.999Z</time>
      </trkpt>
      <trkpt lat="47.55733" lon="6.67206">
        <ele>540.6</ele>
        <time>2017-01-15T10:14:40.999Z</time>
      </trkpt>
      <trkpt lat="47.55734" lon="6.67205">
        <ele>540.6</ele>
        <time>2017-01-15T10:14:41.999Z</time>
      </trkpt>
      <trkpt lat="47.55735" lon="6.672">
        <ele>540.5</ele>
        <time>2017-01-15T10:14:46.999Z</time>
      </trkpt>
      <trkpt lat="47.55735" lon="6.67198">
        <ele>540.5</ele>
        <time>2017-01-15T10:14:47.999Z</time>
      </trkpt>
      <trkpt lat="47.55735" lon="6.67193">
        <ele>540.3</ele>
        <time>2017-01-15T10:14:50.999Z</time>
      </trkpt>
      <trkpt lat="47.55734" lon="6.6719">
        <ele>540.3</ele>
        <time>2017-01-15T10:14:51.999Z</time>
      </trkpt>
      <trkpt lat="47.55734" lon="6.67184">
        <ele>540.7</ele>
        <time>2017-01-15T10:14:54.999Z</time>
      </trkpt>
      <trkpt lat="47.55733" lon="6.67182">
        <ele>540.7</ele>
        <time>2017-01-15T10:14:55.999Z</time>
      </trkpt>
      <trkpt lat="47.55732" lon="6.67177">
        <ele>541</ele>
        <time>2017-01-15T10:14:58.999Z</time>
      </trkpt>
      <trkpt lat="47.55732" lon="6.67175">
        <ele>541.1</ele>
        <time>2017-01-15T10:14:59.999Z</time>
      </trkpt>
      <trkpt lat="47.55732" lon="6.67172">
        <ele>541.2</ele>
        <time>2017-01-15T10:15:01.999Z</time>
      </trkpt>
      <trkpt lat="47.55731" lon="6.67167">
        <ele>541.1</ele>
        <time>2017-01-15T10:15:02.999Z</time>
      </trkpt>
      <trkpt lat="47.55732" lon="6.67163">
        <ele>541.1</ele>
        <time>2017-01-15T10:15:03.999Z</time>
      </trkpt>
      <trkpt lat="47.55733" lon="6.6716">
        <ele>541</ele>
        <time>2017-01-15T10:15:04.999Z</time>
      </trkpt>
      <trkpt lat="47.55735" lon="6.67158">
        <ele>541</ele>
        <time>2017-01-15T10:15:05.999Z</time>
      </trkpt>
      <trkpt lat="47.55737" lon="6.67157">
        <ele>541.1</ele>
        <time>2017-01-15T10:15:06.999Z</time>
      </trkpt>
      <trkpt lat="47.5574" lon="6.67153">
        <ele>541.5</ele>
        <time>2017-01-15T10:15:09.999Z</time>
      </trkpt>
      <trkpt lat="47.55741" lon="6.67152">
        <ele>541.7</ele>
        <time>2017-01-15T10:15:10.999Z</time>
      </trkpt>
      <trkpt lat="47.55743" lon="6.67147">
        <ele>541.9</ele>
        <time>2017-01-15T10:15:12.999Z</time>
      </trkpt>
      <trkpt lat="47.55744" lon="6.67145">
        <ele>542.1</ele>
        <time>2017-01-15T10:15:13.999Z</time>
      </trkpt>
      <trkpt lat="47.55748" lon="6.67142">
        <ele>542.4</ele>
        <time>2017-01-15T10:15:15.999Z</time>
      </trkpt>
      <trkpt lat="47.55748" lon="6.67141">
        <ele>542.5</ele>
        <time>2017-01-15T10:15:16.999Z</time>
      </trkpt>
      <trkpt lat="47.55751" lon="6.67137">
        <ele>542.7</ele>
        <time>2017-01-15T10:15:19.999Z</time>
      </trkpt>
      <trkpt lat="47.55752" lon="6.67136">
        <ele>542.7</ele>
        <time>2017-01-15T10:15:20.999Z</time>
      </trkpt>
      <trkpt lat="47.55756" lon="6.67134">
        <ele>543.4</ele>
        <time>2017-01-15T10:15:25.999Z</time>
      </trkpt>
      <trkpt lat="47.55756" lon="6.67134">
        <ele>543.4</ele>
        <time>2017-01-15T10:15:26.999Z</time>
      </trkpt>
      <trkpt lat="47.55759" lon="6.6713">
        <ele>543.9</ele>
        <time>2017-01-15T10:15:29.999Z</time>
      </trkpt>
      <trkpt lat="47.5576" lon="6.67129">
        <ele>544.1</ele>
        <time>2017-01-15T10:15:30.999Z</time>
      </trkpt>
      <trkpt lat="47.55763" lon="6.67124">
        <ele>544.5</ele>
        <time>2017-01-15T10:15:32.999Z</time>
      </trkpt>
      <trkpt lat="47.55765" lon="6.67122">
        <ele>544.5</ele>
        <time>2017-01-15T10:15:33.999Z</time>
      </trkpt>
      <trkpt lat="47.55767" lon="6.6712">
        <ele>544.6</ele>
        <time>2017-01-15T10:15:34.999Z</time>
      </trkpt>
      <trkpt lat="47.55769" lon="6.67118">
        <ele>544.6</ele>
        <time>2017-01-15T10:15:35.999Z</time>
      </trkpt>
      <trkpt lat="47.55771" lon="6.67114">
        <ele>544.9</ele>
        <time>2017-01-15T10:15:38.999Z</time>
      </trkpt>
      <trkpt lat="47.55772" lon="6.67112">
        <ele>545</ele>
        <time>2017-01-15T10:15:39.999Z</time>
      </trkpt>
      <trkpt lat="47.55774" lon="6.67107">
        <ele>545.4</ele>
        <time>2017-01-15T10:15:42.999Z</time>
      </trkpt>
      <trkpt lat="47.55775" lon="6.67106">
        <ele>545.4</ele>
        <time>2017-01-15T10:15:43.999Z</time>
      </trkpt>
      <trkpt lat="47.55777" lon="6.67103">
        <ele>545.6</ele>
        <time>2017-01-15T10:15:46.999Z</time>
      </trkpt>
      <trkpt lat="47.55778" lon="6.67102">
        <ele>545.6</ele>
        <time>2017-01-15T10:15:47.999Z</time>
      </trkpt>
      <trkpt lat="47.5578" lon="6.67096">
        <ele>545.8</ele>
        <time>2017-01-15T10:15:51.999Z</time>
      </trkpt>
      <trkpt lat="47.55781" lon="6.67095">
        <ele>545.8</ele>
        <time>2017-01-15T10:15:52.999Z</time>
      </trkpt>
      <trkpt lat="47.55784" lon="6.67092">
        <ele>545.9</ele>
        <time>2017-01-15T10:15:56.999Z</time>
      </trkpt>
      <trkpt lat="47.55785" lon="6.67091">
        <ele>545.9</ele>
        <time>2017-01-15T10:15:57.999Z</time>
      </trkpt>
      <trkpt lat="47.55788" lon="6.67086">
        <ele>544.9</ele>
        <time>2017-01-15T10:16:05.999Z</time>
      </trkpt>
      <trkpt lat="47.55789" lon="6.67086">
        <ele>544.7</ele>
        <time>2017-01-15T10:16:06.999Z</time>
      </trkpt>
      <trkpt lat="47.55792" lon="6.67084">
        <ele>544.5</ele>
        <time>2017-01-15T10:16:15.999Z</time>
      </trkpt>
      <trkpt lat="47.55793" lon="6.67084">
        <ele>544.6</ele>
        <time>2017-01-15T10:16:16.999Z</time>
      </trkpt>
      <trkpt lat="47.55794" lon="6.67079">
        <ele>544.6</ele>
        <time>2017-01-15T10:16:24.999Z</time>
      </trkpt>
      <trkpt lat="47.55795" lon="6.67075">
        <ele>544.7</ele>
        <time>2017-01-15T10:16:25.999Z</time>
      </trkpt>
      <trkpt lat="47.55796" lon="6.6707">
        <ele>544.8</ele>
        <time>2017-01-15T10:16:27.999Z</time>
      </trkpt>
      <trkpt lat="47.55797" lon="6.67067">
        <ele>544.9</ele>
        <time>2017-01-15T10:16:28.999Z</time>
      </trkpt>
      <trkpt lat="47.55797" lon="6.67061">
        <ele>545.4</ele>
        <time>2017-01-15T10:16:32.999Z</time>
      </trkpt>
      <trkpt lat="47.55798" lon="6.67059">
        <ele>545.5</ele>
        <time>2017-01-15T10:16:33.999Z</time>
      </trkpt>
      <trkpt lat="47.55797" lon="6.67054">
        <ele>546.2</ele>
        <time>2017-01-15T10:16:37.999Z</time>
      </trkpt>
      <trkpt lat="47.55797" lon="6.67053">
        <ele>546.4</ele>
        <time>2017-01-15T10:16:38.999Z</time>
      </trkpt>
      <trkpt lat="47.55793" lon="6.67053">
        <ele>547.3</ele>
        <time>2017-01-15T10:16:43.999Z</time>
      </trkpt>
      <trkpt lat="47.55792" lon="6.67053">
        <ele>547.6</ele>
        <time>2017-01-15T10:16:44.999Z</time>
      </trkpt>
      <trkpt lat="47.55788" lon="6.6705">
        <ele>548.4</ele>
        <time>2017-01-15T10:16:48.999Z</time>
      </trkpt>
      <trkpt lat="47.55787" lon="6.67049">
        <ele>548.5</ele>
        <time>2017-01-15T10:16:49.999Z</time>
      </trkpt>
      <trkpt lat="47.55784" lon="6.67046">
        <ele>549.1</ele>
        <time>2017-01-15T10:16:52.999Z</time>
      </trkpt>
      <trkpt lat="47.55783" lon="6.67045">
        <ele>549.3</ele>
        <time>2017-01-15T10:16:53.999Z</time>
      </trkpt>
      <trkpt lat="47.55781" lon="6.67043">
        <ele>549.6</ele>
        <time>2017-01-15T10:16:55.999Z</time>
      </trkpt>
      <trkpt lat="47.55779" lon="6.67042">
        <ele>549.7</ele>
        <time>2017-01-15T10:16:56.999Z</time>
      </trkpt>
      <trkpt lat="47.55777" lon="6.67038">
        <ele>550</ele>
        <time>2017-01-15T10:16:58.999Z</time>
      </trkpt>
      <trkpt lat="47.55776" lon="6.67037">
        <ele>550.2</ele>
        <time>2017-01-15T10:16:59.999Z</time>
      </trkpt>
      <trkpt lat="47.55772" lon="6.67033">
        <ele>550.5</ele>
        <time>2017-01-15T10:17:02.999Z</time>
      </trkpt>
      <trkpt lat="47.55771" lon="6.67032">
        <ele>550.5</ele>
        <time>2017-01-15T10:17:03.999Z</time>
      </trkpt>
      <trkpt lat="47.55767" lon="6.6703">
        <ele>550.8</ele>
        <time>2017-01-15T10:17:07.999Z</time>
      </trkpt>
      <trkpt lat="47.55766" lon="6.67029">
        <ele>550.8</ele>
        <time>2017-01-15T10:17:08.999Z</time>
      </trkpt>
      <trkpt lat="47.55762" lon="6.67028">
        <ele>550.8</ele>
        <time>2017-01-15T10:17:10.999Z</time>
      </trkpt>
      <trkpt lat="47.55761" lon="6.67027">
        <ele>550.9</ele>
        <time>2017-01-15T10:17:11.999Z</time>
      </trkpt>
      <trkpt lat="47.55758" lon="6.67025">
        <ele>551.1</ele>
        <time>2017-01-15T10:17:12.999Z</time>
      </trkpt>
      <trkpt lat="47.55755" lon="6.67023">
        <ele>551.3</ele>
        <time>2017-01-15T10:17:13.999Z</time>
      </trkpt>
      <trkpt lat="47.55751" lon="6.67022">
        <ele>551.5</ele>
        <time>2017-01-15T10:17:15.999Z</time>
      </trkpt>
      <trkpt lat="47.5575" lon="6.67021">
        <ele>551.6</ele>
        <time>2017-01-15T10:17:16.999Z</time>
      </trkpt>
      <trkpt lat="47.55747" lon="6.67018">
        <ele>551.9</ele>
        <time>2017-01-15T10:17:18.999Z</time>
      </trkpt>
      <trkpt lat="47.55746" lon="6.67017">
        <ele>552</ele>
        <time>2017-01-15T10:17:19.999Z</time>
      </trkpt>
      <trkpt lat="47.55743" lon="6.67015">
        <ele>552.3</ele>
        <time>2017-01-15T10:17:21.999Z</time>
      </trkpt>
      <trkpt lat="47.55742" lon="6.67014">
        <ele>552.5</ele>
        <time>2017-01-15T10:17:22.999Z</time>
      </trkpt>
      <trkpt lat="47.55738" lon="6.67011">
        <ele>553</ele>
        <time>2017-01-15T10:17:26.999Z</time>
      </trkpt>
      <trkpt lat="47.55737" lon="6.67009">
        <ele>553.1</ele>
        <time>2017-01-15T10:17:27.999Z</time>
      </trkpt>
      <trkpt lat="47.55734" lon="6.67007">
        <ele>553.3</ele>
        <time>2017-01-15T10:17:29.999Z</time>
      </trkpt>
      <trkpt lat="47.55733" lon="6.67005">
        <ele>553.3</ele>
        <time>2017-01-15T10:17:30.999Z</time>
      </trkpt>
      <trkpt lat="47.55729" lon="6.67004">
        <ele>553.4</ele>
        <time>2017-01-15T10:17:32.999Z</time>
      </trkpt>
      <trkpt lat="47.55728" lon="6.67004">
        <ele>553.4</ele>
        <time>2017-01-15T10:17:33.999Z</time>
      </trkpt>
      <trkpt lat="47.55724" lon="6.67002">
        <ele>553.7</ele>
        <time>2017-01-15T10:17:35.999Z</time>
      </trkpt>
      <trkpt lat="47.55722" lon="6.67001">
        <ele>553.6</ele>
        <time>2017-01-15T10:17:36.999Z</time>
      </trkpt>
      <trkpt lat="47.5572" lon="6.66997">
        <ele>553.7</ele>
        <time>2017-01-15T10:17:39.999Z</time>
      </trkpt>
      <trkpt lat="47.55719" lon="6.66995">
        <ele>553.8</ele>
        <time>2017-01-15T10:17:40.999Z</time>
      </trkpt>
      <trkpt lat="47.5572" lon="6.6699">
        <ele>553.8</ele>
        <time>2017-01-15T10:17:43.999Z</time>
      </trkpt>
      <trkpt lat="47.5572" lon="6.66988">
        <ele>553.9</ele>
        <time>2017-01-15T10:17:44.999Z</time>
      </trkpt>
      <trkpt lat="47.55723" lon="6.66984">
        <ele>553.6</ele>
        <time>2017-01-15T10:17:49.999Z</time>
      </trkpt>
      <trkpt lat="47.55723" lon="6.66983">
        <ele>553.6</ele>
        <time>2017-01-15T10:17:50.999Z</time>
      </trkpt>
      <trkpt lat="47.55724" lon="6.66976">
        <ele>553.7</ele>
        <time>2017-01-15T10:17:59.999Z</time>
      </trkpt>
      <trkpt lat="47.55724" lon="6.66975">
        <ele>553.7</ele>
        <time>2017-01-15T10:18:00.999Z</time>
      </trkpt>
      <trkpt lat="47.5572" lon="6.66976">
        <ele>556.6</ele>
        <time>2017-01-15T10:18:30.999Z</time>
      </trkpt>
      <trkpt lat="47.55719" lon="6.66976">
        <ele>556.7</ele>
        <time>2017-01-15T10:18:31.999Z</time>
      </trkpt>
      <trkpt lat="47.55723" lon="6.66971">
        <ele>556.8</ele>
        <time>2017-01-15T10:18:50.999Z</time>
      </trkpt>
      <trkpt lat="47.55723" lon="6.66971">
        <ele>556.7</ele>
        <time>2017-01-15T10:18:51.999Z</time>
      </trkpt>
      <trkpt lat="47.55723" lon="6.66978">
        <ele>557</ele>
        <time>2017-01-15T10:19:08.999Z</time>
      </trkpt>
      <trkpt lat="47.55723" lon="6.66978">
        <ele>557</ele>
        <time>2017-01-15T10:19:09.999Z</time>
      </trkpt>
      <trkpt lat="47.55726" lon="6.66974">
        <ele>555.2</ele>
        <time>2017-01-15T10:20:07.999Z</time>
      </trkpt>
      <trkpt lat="47.55726" lon="6.66973">
        <ele>555</ele>
        <time>2017-01-15T10:20:08.999Z</time>
      </trkpt>
      <trkpt lat="47.55723" lon="6.66977">
        <ele>554.5</ele>
        <time>2017-01-15T10:20:18.999Z</time>
      </trkpt>
      <trkpt lat="47.55723" lon="6.66978">
        <ele>554.4</ele>
        <time>2017-01-15T10:20:19.999Z</time>
      </trkpt>
      <trkpt lat="47.55721" lon="6.66973">
        <ele>551.7</ele>
        <time>2017-01-15T10:21:06.999Z</time>
      </trkpt>
      <trkpt lat="47.5572" lon="6.66973">
        <ele>551.5</ele>
        <time>2017-01-15T10:21:07.999Z</time>
      </trkpt>
      <trkpt lat="47.55716" lon="6.66974">
        <ele>550.9</ele>
        <time>2017-01-15T10:21:11.999Z</time>
      </trkpt>
      <trkpt lat="47.55715" lon="6.66974">
        <ele>550.7</ele>
        <time>2017-01-15T10:21:12.999Z</time>
      </trkpt>
      <trkpt lat="47.55711" lon="6.66974">
        <ele>550.7</ele>
        <time>2017-01-15T10:21:13.999Z</time>
      </trkpt>
      <trkpt lat="47.5571" lon="6.66974">
        <ele>550.6</ele>
        <time>2017-01-15T10:21:14.999Z</time>
      </trkpt>
      <trkpt lat="47.55706" lon="6.66973">
        <ele>550.5</ele>
        <time>2017-01-15T10:21:16.999Z</time>
      </trkpt>
      <trkpt lat="47.55705" lon="6.66973">
        <ele>550.5</ele>
        <time>2017-01-15T10:21:17.999Z</time>
      </trkpt>
      <trkpt lat="47.55702" lon="6.6697">
        <ele>550.6</ele>
        <time>2017-01-15T10:21:19.999Z</time>
      </trkpt>
      <trkpt lat="47.557" lon="6.66969">
        <ele>550.7</ele>
        <time>2017-01-15T10:21:20.999Z</time>
      </trkpt>
      <trkpt lat="47.55696" lon="6.66968">
        <ele>550.9</ele>
        <time>2017-01-15T10:21:22.999Z</time>
      </trkpt>
      <trkpt lat="47.55693" lon="6.66967">
        <ele>550.9</ele>
        <time>2017-01-15T10:21:23.999Z</time>
      </trkpt>
      <trkpt lat="47.55689" lon="6.66964">
        <ele>551</ele>
        <time>2017-01-15T10:21:25.999Z</time>
      </trkpt>
      <trkpt lat="47.55688" lon="6.66963">
        <ele>551</ele>
        <time>2017-01-15T10:21:26.999Z</time>
      </trkpt>
      <trkpt lat="47.55684" lon="6.6696">
        <ele>551</ele>
        <time>2017-01-15T10:21:28.999Z</time>
      </trkpt>
      <trkpt lat="47.55682" lon="6.66957">
        <ele>551</ele>
        <time>2017-01-15T10:21:29.999Z</time>
      </trkpt>
      <trkpt lat="47.55679" lon="6.66955">
        <ele>551</ele>
        <time>2017-01-15T10:21:31.999Z</time>
      </trkpt>
      <trkpt lat="47.55677" lon="6.66954">
        <ele>551</ele>
        <time>2017-01-15T10:21:32.999Z</time>
      </trkpt>
      <trkpt lat="47.55672" lon="6.66953">
        <ele>550.9</ele>
        <time>2017-01-15T10:21:35.999Z</time>
      </trkpt>
      <trkpt lat="47.5567" lon="6.66952">
        <ele>550.8</ele>
        <time>2017-01-15T10:21:36.999Z</time>
      </trkpt>
      <trkpt lat="47.55667" lon="6.6695">
        <ele>550.8</ele>
        <time>2017-01-15T10:21:38.999Z</time>
      </trkpt>
      <trkpt lat="47.55666" lon="6.6695">
        <ele>550.7</ele>
        <time>2017-01-15T10:21:39.999Z</time>
      </trkpt>
      <trkpt lat="47.55663" lon="6.66949">
        <ele>550.7</ele>
        <time>2017-01-15T10:21:40.999Z</time>
      </trkpt>
      <trkpt lat="47.55661" lon="6.66947">
        <ele>550.6</ele>
        <time>2017-01-15T10:21:41.999Z</time>
      </trkpt>
      <trkpt lat="47.55659" lon="6.66945">
        <ele>550.6</ele>
        <time>2017-01-15T10:21:42.999Z</time>
      </trkpt>
      <trkpt lat="47.55657" lon="6.66944">
        <ele>550.6</ele>
        <time>2017-01-15T10:21:43.999Z</time>
      </trkpt>
      <trkpt lat="47.55654" lon="6.66944">
        <ele>550.6</ele>
        <time>2017-01-15T10:21:44.999Z</time>
      </trkpt>
      <trkpt lat="47.55652" lon="6.66944">
        <ele>550.5</ele>
        <time>2017-01-15T10:21:45.999Z</time>
      </trkpt>
      <trkpt lat="47.55648" lon="6.66943">
        <ele>550.3</ele>
        <time>2017-01-15T10:21:47.999Z</time>
      </trkpt>
      <trkpt lat="47.55646" lon="6.6694">
        <ele>550.3</ele>
        <time>2017-01-15T10:21:48.999Z</time>
      </trkpt>
      <trkpt lat="47.55642" lon="6.66938">
        <ele>550.1</ele>
        <time>2017-01-15T10:21:50.999Z</time>
      </trkpt>
      <trkpt lat="47.5564" lon="6.66936">
        <ele>550</ele>
        <time>2017-01-15T10:21:51.999Z</time>
      </trkpt>
      <trkpt lat="47.55638" lon="6.66933">
        <ele>550</ele>
        <time>2017-01-15T10:21:52.999Z</time>
      </trkpt>
      <trkpt lat="47.55636" lon="6.66932">
        <ele>550</ele>
        <time>2017-01-15T10:21:53.999Z</time>
      </trkpt>
      <trkpt lat="47.55633" lon="6.66928">
        <ele>549.9</ele>
        <time>2017-01-15T10:21:55.999Z</time>
      </trkpt>
      <trkpt lat="47.5563" lon="6.66927">
        <ele>549.8</ele>
        <time>2017-01-15T10:21:56.999Z</time>
      </trkpt>
      <trkpt lat="47.55626" lon="6.66926">
        <ele>549.6</ele>
        <time>2017-01-15T10:21:57.999Z</time>
      </trkpt>
      <trkpt lat="47.5562" lon="6.66925">
        <ele>547.6</ele>
        <time>2017-01-15T10:21:58.999Z</time>
      </trkpt>
      <trkpt lat="47.55616" lon="6.66923">
        <ele>546</ele>
        <time>2017-01-15T10:21:59.999Z</time>
      </trkpt>
      <trkpt lat="47.55611" lon="6.6692">
        <ele>544.9</ele>
        <time>2017-01-15T10:22:00.999Z</time>
      </trkpt>
      <trkpt lat="47.55608" lon="6.66918">
        <ele>544.8</ele>
        <time>2017-01-15T10:22:01.999Z</time>
      </trkpt>
      <trkpt lat="47.55604" lon="6.66916">
        <ele>544.7</ele>
        <time>2017-01-15T10:22:02.999Z</time>
      </trkpt>
      <trkpt lat="47.55599" lon="6.66914">
        <ele>544.4</ele>
        <time>2017-01-15T10:22:03.999Z</time>
      </trkpt>
      <trkpt lat="47.55594" lon="6.6691">
        <ele>544.4</ele>
        <time>2017-01-15T10:22:04.999Z</time>
      </trkpt>
      <trkpt lat="47.55589" lon="6.66906">
        <ele>543.6</ele>
        <time>2017-01-15T10:22:05.999Z</time>
      </trkpt>
      <trkpt lat="47.55586" lon="6.66903">
        <ele>543.6</ele>
        <time>2017-01-15T10:22:06.999Z</time>
      </trkpt>
      <trkpt lat="47.55583" lon="6.66898">
        <ele>543.5</ele>
        <time>2017-01-15T10:22:07.999Z</time>
      </trkpt>
      <trkpt lat="47.5558" lon="6.66895">
        <ele>543.4</ele>
        <time>2017-01-15T10:22:08.999Z</time>
      </trkpt>
      <trkpt lat="47.55577" lon="6.66893">
        <ele>543.4</ele>
        <time>2017-01-15T10:22:09.999Z</time>
      </trkpt>
      <trkpt lat="47.55574" lon="6.66888">
        <ele>543.2</ele>
        <time>2017-01-15T10:22:10.999Z</time>
      </trkpt>
      <trkpt lat="47.55572" lon="6.66886">
        <ele>543</ele>
        <time>2017-01-15T10:22:11.999Z</time>
      </trkpt>
      <trkpt lat="47.5557" lon="6.66883">
        <ele>542.8</ele>
        <time>2017-01-15T10:22:12.999Z</time>
      </trkpt>
      <trkpt lat="47.55566" lon="6.66881">
        <ele>542.7</ele>
        <time>2017-01-15T10:22:13.999Z</time>
      </trkpt>
      <trkpt lat="47.55562" lon="6.66877">
        <ele>542.6</ele>
        <time>2017-01-15T10:22:14.999Z</time>
      </trkpt>
      <trkpt lat="47.55559" lon="6.66874">
        <ele>542.4</ele>
        <time>2017-01-15T10:22:15.999Z</time>
      </trkpt>
      <trkpt lat="47.55556" lon="6.66871">
        <ele>542.2</ele>
        <time>2017-01-15T10:22:16.999Z</time>
      </trkpt>
      <trkpt lat="47.55552" lon="6.66867">
        <ele>542</ele>
        <time>2017-01-15T10:22:17.999Z</time>
      </trkpt>
      <trkpt lat="47.55548" lon="6.66863">
        <ele>541.9</ele>
        <time>2017-01-15T10:22:18.999Z</time>
      </trkpt>
      <trkpt lat="47.55545" lon="6.66859">
        <ele>541.8</ele>
        <time>2017-01-15T10:22:19.999Z</time>
      </trkpt>
      <trkpt lat="47.55542" lon="6.66855">
        <ele>541.7</ele>
        <time>2017-01-15T10:22:20.999Z</time>
      </trkpt>
      <trkpt lat="47.55538" lon="6.66848">
        <ele>541.5</ele>
        <time>2017-01-15T10:22:21.999Z</time>
      </trkpt>
      <trkpt lat="47.55534" lon="6.66843">
        <ele>541.4</ele>
        <time>2017-01-15T10:22:22.999Z</time>
      </trkpt>
      <trkpt lat="47.55531" lon="6.66838">
        <ele>541.3</ele>
        <time>2017-01-15T10:22:23.999Z</time>
      </trkpt>
      <trkpt lat="47.55528" lon="6.66832">
        <ele>541.2</ele>
        <time>2017-01-15T10:22:24.999Z</time>
      </trkpt>
      <trkpt lat="47.55524" lon="6.66827">
        <ele>541.1</ele>
        <time>2017-01-15T10:22:25.999Z</time>
      </trkpt>
      <trkpt lat="47.55522" lon="6.66823">
        <ele>541.1</ele>
        <time>2017-01-15T10:22:26.999Z</time>
      </trkpt>
      <trkpt lat="47.55519" lon="6.66816">
        <ele>541.1</ele>
        <time>2017-01-15T10:22:27.999Z</time>
      </trkpt>
      <trkpt lat="47.55516" lon="6.66812">
        <ele>541.1</ele>
        <time>2017-01-15T10:22:28.999Z</time>
      </trkpt>
      <trkpt lat="47.55515" lon="6.66808">
        <ele>541.1</ele>
        <time>2017-01-15T10:22:29.999Z</time>
      </trkpt>
      <trkpt lat="47.55512" lon="6.66804">
        <ele>541.2</ele>
        <time>2017-01-15T10:22:30.999Z</time>
      </trkpt>
      <trkpt lat="47.5551" lon="6.66798">
        <ele>541.3</ele>
        <time>2017-01-15T10:22:31.999Z</time>
      </trkpt>
      <trkpt lat="47.55508" lon="6.66794">
        <ele>541.5</ele>
        <time>2017-01-15T10:22:32.999Z</time>
      </trkpt>
      <trkpt lat="47.55506" lon="6.66791">
        <ele>541.7</ele>
        <time>2017-01-15T10:22:33.999Z</time>
      </trkpt>
      <trkpt lat="47.55504" lon="6.66788">
        <ele>541.9</ele>
        <time>2017-01-15T10:22:34.999Z</time>
      </trkpt>
      <trkpt lat="47.55502" lon="6.66785">
        <ele>542</ele>
        <time>2017-01-15T10:22:35.999Z</time>
      </trkpt>
      <trkpt lat="47.555" lon="6.66783">
        <ele>542.2</ele>
        <time>2017-01-15T10:22:36.999Z</time>
      </trkpt>
      <trkpt lat="47.55499" lon="6.6678">
        <ele>542.4</ele>
        <time>2017-01-15T10:22:37.999Z</time>
      </trkpt>
      <trkpt lat="47.55497" lon="6.66777">
        <ele>542.6</ele>
        <time>2017-01-15T10:22:38.999Z</time>
      </trkpt>
      <trkpt lat="47.55496" lon="6.66775">
        <ele>542.7</ele>
        <time>2017-01-15T10:22:39.999Z</time>
      </trkpt>
      <trkpt lat="47.55494" lon="6.66771">
        <ele>542.7</ele>
        <time>2017-01-15T10:22:40.999Z</time>
      </trkpt>
      <trkpt lat="47.55493" lon="6.66767">
        <ele>542.8</ele>
        <time>2017-01-15T10:22:41.999Z</time>
      </trkpt>
      <trkpt lat="47.5549" lon="6.66762">
        <ele>542.8</ele>
        <time>2017-01-15T10:22:43.999Z</time>
      </trkpt>
      <trkpt lat="47.55488" lon="6.66759">
        <ele>542.8</ele>
        <time>2017-01-15T10:22:44.999Z</time>
      </trkpt>
      <trkpt lat="47.55487" lon="6.66757">
        <ele>542.7</ele>
        <time>2017-01-15T10:22:45.999Z</time>
      </trkpt>
      <trkpt lat="47.55485" lon="6.66755">
        <ele>542.8</ele>
        <time>2017-01-15T10:22:46.999Z</time>
      </trkpt>
      <trkpt lat="47.55483" lon="6.66752">
        <ele>542.8</ele>
        <time>2017-01-15T10:22:47.999Z</time>
      </trkpt>
      <trkpt lat="47.55481" lon="6.6675">
        <ele>542.8</ele>
        <time>2017-01-15T10:22:48.999Z</time>
      </trkpt>
      <trkpt lat="47.55479" lon="6.66747">
        <ele>542.8</ele>
        <time>2017-01-15T10:22:49.999Z</time>
      </trkpt>
      <trkpt lat="47.55478" lon="6.66744">
        <ele>542.8</ele>
        <time>2017-01-15T10:22:50.999Z</time>
      </trkpt>
      <trkpt lat="47.55476" lon="6.66742">
        <ele>542.8</ele>
        <time>2017-01-15T10:22:51.999Z</time>
      </trkpt>
      <trkpt lat="47.55474" lon="6.66739">
        <ele>542.7</ele>
        <time>2017-01-15T10:22:52.999Z</time>
      </trkpt>
      <trkpt lat="47.55472" lon="6.66736">
        <ele>542.7</ele>
        <time>2017-01-15T10:22:53.999Z</time>
      </trkpt>
      <trkpt lat="47.55471" lon="6.66733">
        <ele>542.6</ele>
        <time>2017-01-15T10:22:54.999Z</time>
      </trkpt>
      <trkpt lat="47.55469" lon="6.66729">
        <ele>542.6</ele>
        <time>2017-01-15T10:22:55.999Z</time>
      </trkpt>
      <trkpt lat="47.55467" lon="6.66727">
        <ele>542.6</ele>
        <time>2017-01-15T10:22:56.999Z</time>
      </trkpt>
      <trkpt lat="47.55465" lon="6.66723">
        <ele>542.6</ele>
        <time>2017-01-15T10:22:57.999Z</time>
      </trkpt>
      <trkpt lat="47.55463" lon="6.6672">
        <ele>542.6</ele>
        <time>2017-01-15T10:22:58.999Z</time>
      </trkpt>
      <trkpt lat="47.55461" lon="6.66717">
        <ele>542.7</ele>
        <time>2017-01-15T10:22:59.999Z</time>
      </trkpt>
      <trkpt lat="47.55458" lon="6.66713">
        <ele>542.7</ele>
        <time>2017-01-15T10:23:00.999Z</time>
      </trkpt>
      <trkpt lat="47.55455" lon="6.66709">
        <ele>542.8</ele>
        <time>2017-01-15T10:23:01.999Z</time>
      </trkpt>
      <trkpt lat="47.55453" lon="6.66704">
        <ele>542.7</ele>
        <time>2017-01-15T10:23:02.999Z</time>
      </trkpt>
      <trkpt lat="47.5545" lon="6.66701">
        <ele>542.8</ele>
        <time>2017-01-15T10:23:03.999Z</time>
      </trkpt>
      <trkpt lat="47.55448" lon="6.66697">
        <ele>542.8</ele>
        <time>2017-01-15T10:23:04.999Z</time>
      </trkpt>
      <trkpt lat="47.55446" lon="6.66693">
        <ele>542.7</ele>
        <time>2017-01-15T10:23:05.999Z</time>
      </trkpt>
      <trkpt lat="47.55444" lon="6.66689">
        <ele>542.6</ele>
        <time>2017-01-15T10:23:06.999Z</time>
      </trkpt>
      <trkpt lat="47.55441" lon="6.66685">
        <ele>542.5</ele>
        <time>2017-01-15T10:23:07.999Z</time>
      </trkpt>
      <trkpt lat="47.55439" lon="6.66682">
        <ele>542.4</ele>
        <time>2017-01-15T10:23:08.999Z</time>
      </trkpt>
      <trkpt lat="47.55436" lon="6.66679">
        <ele>542.3</ele>
        <time>2017-01-15T10:23:09.999Z</time>
      </trkpt>
      <trkpt lat="47.55434" lon="6.66677">
        <ele>542.2</ele>
        <time>2017-01-15T10:23:10.999Z</time>
      </trkpt>
      <trkpt lat="47.55433" lon="6.66674">
        <ele>542.1</ele>
        <time>2017-01-15T10:23:11.999Z</time>
      </trkpt>
      <trkpt lat="47.55431" lon="6.66671">
        <ele>542.1</ele>
        <time>2017-01-15T10:23:12.999Z</time>
      </trkpt>
      <trkpt lat="47.55429" lon="6.66669">
        <ele>542</ele>
        <time>2017-01-15T10:23:13.999Z</time>
      </trkpt>
      <trkpt lat="47.55427" lon="6.66667">
        <ele>542</ele>
        <time>2017-01-15T10:23:14.999Z</time>
      </trkpt>
      <trkpt lat="47.55424" lon="6.66664">
        <ele>542</ele>
        <time>2017-01-15T10:23:15.999Z</time>
      </trkpt>
      <trkpt lat="47.55421" lon="6.6666">
        <ele>542</ele>
        <time>2017-01-15T10:23:16.999Z</time>
      </trkpt>
      <trkpt lat="47.55418" lon="6.66657">
        <ele>541.9</ele>
        <time>2017-01-15T10:23:17.999Z</time>
      </trkpt>
      <trkpt lat="47.55415" lon="6.66653">
        <ele>541.8</ele>
        <time>2017-01-15T10:23:18.999Z</time>
      </trkpt>
      <trkpt lat="47.55412" lon="6.66649">
        <ele>541.7</ele>
        <time>2017-01-15T10:23:19.999Z</time>
      </trkpt>
      <trkpt lat="47.5541" lon="6.66647">
        <ele>541.6</ele>
        <time>2017-01-15T10:23:20.999Z</time>
      </trkpt>
      <trkpt lat="47.55408" lon="6.66642">
        <ele>541.4</ele>
        <time>2017-01-15T10:23:22.999Z</time>
      </trkpt>
      <trkpt lat="47.55407" lon="6.6664">
        <ele>541.4</ele>
        <time>2017-01-15T10:23:23.999Z</time>
      </trkpt>
      <trkpt lat="47.55403" lon="6.66637">
        <ele>541</ele>
        <time>2017-01-15T10:23:25.999Z</time>
      </trkpt>
      <trkpt lat="47.55401" lon="6.66635">
        <ele>540.8</ele>
        <time>2017-01-15T10:23:26.999Z</time>
      </trkpt>
      <trkpt lat="47.55399" lon="6.66631">
        <ele>540.6</ele>
        <time>2017-01-15T10:23:27.999Z</time>
      </trkpt>
      <trkpt lat="47.55398" lon="6.66629">
        <ele>540.4</ele>
        <time>2017-01-15T10:23:28.999Z</time>
      </trkpt>
      <trkpt lat="47.55396" lon="6.66626">
        <ele>540.2</ele>
        <time>2017-01-15T10:23:29.999Z</time>
      </trkpt>
      <trkpt lat="47.55395" lon="6.66623">
        <ele>540</ele>
        <time>2017-01-15T10:23:30.999Z</time>
      </trkpt>
      <trkpt lat="47.55393" lon="6.66621">
        <ele>539.8</ele>
        <time>2017-01-15T10:23:31.999Z</time>
      </trkpt>
      <trkpt lat="47.55392" lon="6.66618">
        <ele>539.7</ele>
        <time>2017-01-15T10:23:32.999Z</time>
      </trkpt>
      <trkpt lat="47.5539" lon="6.66613">
        <ele>539.4</ele>
        <time>2017-01-15T10:23:34.999Z</time>
      </trkpt>
      <trkpt lat="47.55389" lon="6.66611">
        <ele>539.2</ele>
        <time>2017-01-15T10:23:35.999Z</time>
      </trkpt>
      <trkpt lat="47.55387" lon="6.66606">
        <ele>538.8</ele>
        <time>2017-01-15T10:23:37.999Z</time>
      </trkpt>
      <trkpt lat="47.55385" lon="6.66603">
        <ele>538.5</ele>
        <time>2017-01-15T10:23:38.999Z</time>
      </trkpt>
      <trkpt lat="47.55384" lon="6.666">
        <ele>538.3</ele>
        <time>2017-01-15T10:23:39.999Z</time>
      </trkpt>
      <trkpt lat="47.55383" lon="6.66597">
        <ele>538.2</ele>
        <time>2017-01-15T10:23:40.999Z</time>
      </trkpt>
      <trkpt lat="47.5538" lon="6.66591">
        <ele>537.8</ele>
        <time>2017-01-15T10:23:42.999Z</time>
      </trkpt>
      <trkpt lat="47.55379" lon="6.66589">
        <ele>537.7</ele>
        <time>2017-01-15T10:23:43.999Z</time>
      </trkpt>
      <trkpt lat="47.55376" lon="6.66584">
        <ele>537.5</ele>
        <time>2017-01-15T10:23:45.999Z</time>
      </trkpt>
      <trkpt lat="47.55375" lon="6.66583">
        <ele>537.4</ele>
        <time>2017-01-15T10:23:46.999Z</time>
      </trkpt>
      <trkpt lat="47.55371" lon="6.6658">
        <ele>537.1</ele>
        <time>2017-01-15T10:23:48.999Z</time>
      </trkpt>
      <trkpt lat="47.5537" lon="6.66578">
        <ele>537</ele>
        <time>2017-01-15T10:23:49.999Z</time>
      </trkpt>
      <trkpt lat="47.55367" lon="6.66576">
        <ele>536.9</ele>
        <time>2017-01-15T10:23:51.999Z</time>
      </trkpt>
      <trkpt lat="47.55365" lon="6.66574">
        <ele>536.8</ele>
        <time>2017-01-15T10:23:52.999Z</time>
      </trkpt>
      <trkpt lat="47.55364" lon="6.66572">
        <ele>536.8</ele>
        <time>2017-01-15T10:23:53.999Z</time>
      </trkpt>
      <trkpt lat="47.55362" lon="6.66569">
        <ele>536.8</ele>
        <time>2017-01-15T10:23:54.999Z</time>
      </trkpt>
      <trkpt lat="47.5536" lon="6.66567">
        <ele>536.7</ele>
        <time>2017-01-15T10:23:55.999Z</time>
      </trkpt>
      <trkpt lat="47.55357" lon="6.66562">
        <ele>536.7</ele>
        <time>2017-01-15T10:23:56.999Z</time>
      </trkpt>
      <trkpt lat="47.55353" lon="6.66555">
        <ele>536.7</ele>
        <time>2017-01-15T10:23:57.999Z</time>
      </trkpt>
      <trkpt lat="47.55351" lon="6.66549">
        <ele>536.8</ele>
        <time>2017-01-15T10:23:58.999Z</time>
      </trkpt>
      <trkpt lat="47.55349" lon="6.66544">
        <ele>537</ele>
        <time>2017-01-15T10:23:59.999Z</time>
      </trkpt>
      <trkpt lat="47.55347" lon="6.66539">
        <ele>537.1</ele>
        <time>2017-01-15T10:24:00.999Z</time>
      </trkpt>
      <trkpt lat="47.55346" lon="6.66535">
        <ele>537.3</ele>
        <time>2017-01-15T10:24:01.999Z</time>
      </trkpt>
      <trkpt lat="47.55345" lon="6.66532">
        <ele>537.5</ele>
        <time>2017-01-15T10:24:02.999Z</time>
      </trkpt>
      <trkpt lat="47.55344" lon="6.66529">
        <ele>537.6</ele>
        <time>2017-01-15T10:24:03.999Z</time>
      </trkpt>
      <trkpt lat="47.55343" lon="6.66525">
        <ele>537.7</ele>
        <time>2017-01-15T10:24:04.999Z</time>
      </trkpt>
      <trkpt lat="47.55341" lon="6.66522">
        <ele>537.9</ele>
        <time>2017-01-15T10:24:05.999Z</time>
      </trkpt>
      <trkpt lat="47.5534" lon="6.66518">
        <ele>538.1</ele>
        <time>2017-01-15T10:24:06.999Z</time>
      </trkpt>
      <trkpt lat="47.55339" lon="6.66515">
        <ele>538.2</ele>
        <time>2017-01-15T10:24:07.999Z</time>
      </trkpt>
      <trkpt lat="47.55338" lon="6.66512">
        <ele>538.5</ele>
        <time>2017-01-15T10:24:08.999Z</time>
      </trkpt>
      <trkpt lat="47.55337" lon="6.66507">
        <ele>538.7</ele>
        <time>2017-01-15T10:24:09.999Z</time>
      </trkpt>
      <trkpt lat="47.55337" lon="6.66504">
        <ele>538.9</ele>
        <time>2017-01-15T10:24:10.999Z</time>
      </trkpt>
      <trkpt lat="47.55336" lon="6.66501">
        <ele>539.2</ele>
        <time>2017-01-15T10:24:11.999Z</time>
      </trkpt>
      <trkpt lat="47.55334" lon="6.66499">
        <ele>539.4</ele>
        <time>2017-01-15T10:24:12.999Z</time>
      </trkpt>
      <trkpt lat="47.55332" lon="6.66496">
        <ele>539.8</ele>
        <time>2017-01-15T10:24:14.999Z</time>
      </trkpt>
      <trkpt lat="47.55331" lon="6.66494">
        <ele>540</ele>
        <time>2017-01-15T10:24:15.999Z</time>
      </trkpt>
      <trkpt lat="47.55329" lon="6.66489">
        <ele>540.5</ele>
        <time>2017-01-15T10:24:17.999Z</time>
      </trkpt>
      <trkpt lat="47.55328" lon="6.66487">
        <ele>540.7</ele>
        <time>2017-01-15T10:24:18.999Z</time>
      </trkpt>
      <trkpt lat="47.55325" lon="6.66482">
        <ele>541.3</ele>
        <time>2017-01-15T10:24:21.999Z</time>
      </trkpt>
      <trkpt lat="47.55324" lon="6.6648">
        <ele>541.6</ele>
        <time>2017-01-15T10:24:22.999Z</time>
      </trkpt>
      <trkpt lat="47.55321" lon="6.66477">
        <ele>542.2</ele>
        <time>2017-01-15T10:24:24.999Z</time>
      </trkpt>
      <trkpt lat="47.5532" lon="6.66474">
        <ele>542.4</ele>
        <time>2017-01-15T10:24:25.999Z</time>
      </trkpt>
      <trkpt lat="47.55318" lon="6.66469">
        <ele>543.1</ele>
        <time>2017-01-15T10:24:28.999Z</time>
      </trkpt>
      <trkpt lat="47.55317" lon="6.66468">
        <ele>543.3</ele>
        <time>2017-01-15T10:24:29.999Z</time>
      </trkpt>
      <trkpt lat="47.55315" lon="6.66463">
        <ele>544.1</ele>
        <time>2017-01-15T10:24:32.999Z</time>
      </trkpt>
      <trkpt lat="47.55314" lon="6.66461">
        <ele>544.2</ele>
        <time>2017-01-15T10:24:33.999Z</time>
      </trkpt>
      <trkpt lat="47.55311" lon="6.66457">
        <ele>545.1</ele>
        <time>2017-01-15T10:24:37.999Z</time>
      </trkpt>
      <trkpt lat="47.5531" lon="6.66456">
        <ele>545.4</ele>
        <time>2017-01-15T10:24:38.999Z</time>
      </trkpt>
      <trkpt lat="47.55309" lon="6.66451">
        <ele>546.2</ele>
        <time>2017-01-15T10:24:41.999Z</time>
      </trkpt>
      <trkpt lat="47.55307" lon="6.6645">
        <ele>546.4</ele>
        <time>2017-01-15T10:24:42.999Z</time>
      </trkpt>
      <trkpt lat="47.55304" lon="6.66445">
        <ele>546.7</ele>
        <time>2017-01-15T10:24:45.999Z</time>
      </trkpt>
      <trkpt lat="47.55303" lon="6.66444">
        <ele>546.8</ele>
        <time>2017-01-15T10:24:46.999Z</time>
      </trkpt>
      <trkpt lat="47.553" lon="6.6644">
        <ele>546.8</ele>
        <time>2017-01-15T10:24:48.999Z</time>
      </trkpt>
      <trkpt lat="47.55299" lon="6.66439">
        <ele>546.9</ele>
        <time>2017-01-15T10:24:49.999Z</time>
      </trkpt>
      <trkpt lat="47.55298" lon="6.66434">
        <ele>547</ele>
        <time>2017-01-15T10:24:51.999Z</time>
      </trkpt>
      <trkpt lat="47.55297" lon="6.66431">
        <ele>547</ele>
        <time>2017-01-15T10:24:52.999Z</time>
      </trkpt>
      <trkpt lat="47.55298" lon="6.66427">
        <ele>547.1</ele>
        <time>2017-01-15T10:24:54.999Z</time>
      </trkpt>
      <trkpt lat="47.55299" lon="6.66422">
        <ele>547.2</ele>
        <time>2017-01-15T10:24:55.999Z</time>
      </trkpt>
      <trkpt lat="47.553" lon="6.66417">
        <ele>547.2</ele>
        <time>2017-01-15T10:24:57.999Z</time>
      </trkpt>
      <trkpt lat="47.55299" lon="6.66416">
        <ele>547.3</ele>
        <time>2017-01-15T10:24:58.999Z</time>
      </trkpt>
      <trkpt lat="47.55298" lon="6.66409">
        <ele>548</ele>
        <time>2017-01-15T10:25:05.999Z</time>
      </trkpt>
      <trkpt lat="47.55297" lon="6.66408">
        <ele>548</ele>
        <time>2017-01-15T10:25:06.999Z</time>
      </trkpt>
      <trkpt lat="47.55296" lon="6.66402">
        <ele>548.5</ele>
        <time>2017-01-15T10:25:11.999Z</time>
      </trkpt>
      <trkpt lat="47.55296" lon="6.66401">
        <ele>548.5</ele>
        <time>2017-01-15T10:25:12.999Z</time>
      </trkpt>
      <trkpt lat="47.55294" lon="6.66396">
        <ele>548</ele>
        <time>2017-01-15T10:25:21.999Z</time>
      </trkpt>
      <trkpt lat="47.55293" lon="6.66395">
        <ele>548</ele>
        <time>2017-01-15T10:25:22.999Z</time>
      </trkpt>
      <trkpt lat="47.55291" lon="6.66391">
        <ele>548.6</ele>
        <time>2017-01-15T10:25:28.999Z</time>
      </trkpt>
      <trkpt lat="47.55291" lon="6.6639">
        <ele>548.7</ele>
        <time>2017-01-15T10:25:29.999Z</time>
      </trkpt>
      <trkpt lat="47.55289" lon="6.66385">
        <ele>548.9</ele>
        <time>2017-01-15T10:25:33.999Z</time>
      </trkpt>
      <trkpt lat="47.55289" lon="6.66383">
        <ele>549.1</ele>
        <time>2017-01-15T10:25:34.999Z</time>
      </trkpt>
      <trkpt lat="47.55287" lon="6.66379">
        <ele>549.2</ele>
        <time>2017-01-15T10:25:36.999Z</time>
      </trkpt>
      <trkpt lat="47.55286" lon="6.66378">
        <ele>549.3</ele>
        <time>2017-01-15T10:25:37.999Z</time>
      </trkpt>
      <trkpt lat="47.55284" lon="6.66373">
        <ele>549.6</ele>
        <time>2017-01-15T10:25:40.999Z</time>
      </trkpt>
      <trkpt lat="47.55283" lon="6.66373">
        <ele>549.7</ele>
        <time>2017-01-15T10:25:41.999Z</time>
      </trkpt>
      <trkpt lat="47.55279" lon="6.66372">
        <ele>549.9</ele>
        <time>2017-01-15T10:25:44.999Z</time>
      </trkpt>
      <trkpt lat="47.55278" lon="6.66371">
        <ele>550</ele>
        <time>2017-01-15T10:25:45.999Z</time>
      </trkpt>
      <trkpt lat="47.55276" lon="6.66365">
        <ele>549.8</ele>
        <time>2017-01-15T10:25:51.999Z</time>
      </trkpt>
      <trkpt lat="47.55276" lon="6.66364">
        <ele>549.8</ele>
        <time>2017-01-15T10:25:52.999Z</time>
      </trkpt>
      <trkpt lat="47.55274" lon="6.6636">
        <ele>549.8</ele>
        <time>2017-01-15T10:25:54.999Z</time>
      </trkpt>
      <trkpt lat="47.55273" lon="6.66359">
        <ele>549.9</ele>
        <time>2017-01-15T10:25:55.999Z</time>
      </trkpt>
      <trkpt lat="47.55271" lon="6.66354">
        <ele>550.3</ele>
        <time>2017-01-15T10:25:58.999Z</time>
      </trkpt>
      <trkpt lat="47.5527" lon="6.66353">
        <ele>550.6</ele>
        <time>2017-01-15T10:25:59.999Z</time>
      </trkpt>
      <trkpt lat="47.55268" lon="6.66348">
        <ele>551</ele>
        <time>2017-01-15T10:26:04.999Z</time>
      </trkpt>
      <trkpt lat="47.55267" lon="6.66346">
        <ele>551</ele>
        <time>2017-01-15T10:26:05.999Z</time>
      </trkpt>
      <trkpt lat="47.55264" lon="6.66342">
        <ele>551</ele>
        <time>2017-01-15T10:26:08.999Z</time>
      </trkpt>
      <trkpt lat="47.55263" lon="6.6634">
        <ele>551.1</ele>
        <time>2017-01-15T10:26:09.999Z</time>
      </trkpt>
      <trkpt lat="47.5526" lon="6.66336">
        <ele>551.5</ele>
        <time>2017-01-15T10:26:13.999Z</time>
      </trkpt>
      <trkpt lat="47.55259" lon="6.66335">
        <ele>551.5</ele>
        <time>2017-01-15T10:26:14.999Z</time>
      </trkpt>
      <trkpt lat="47.55257" lon="6.66334">
        <ele>551.8</ele>
        <time>2017-01-15T10:26:16.999Z</time>
      </trkpt>
      <trkpt lat="47.55255" lon="6.66333">
        <ele>551.8</ele>
        <time>2017-01-15T10:26:17.999Z</time>
      </trkpt>
      <trkpt lat="47.55253" lon="6.66331">
        <ele>551.8</ele>
        <time>2017-01-15T10:26:18.999Z</time>
      </trkpt>
      <trkpt lat="47.55251" lon="6.6633">
        <ele>551.9</ele>
        <time>2017-01-15T10:26:19.999Z</time>
      </trkpt>
      <trkpt lat="47.55247" lon="6.66327">
        <ele>552.1</ele>
        <time>2017-01-15T10:26:21.999Z</time>
      </trkpt>
      <trkpt lat="47.55245" lon="6.66325">
        <ele>552.1</ele>
        <time>2017-01-15T10:26:22.999Z</time>
      </trkpt>
      <trkpt lat="47.55243" lon="6.66322">
        <ele>552.1</ele>
        <time>2017-01-15T10:26:23.999Z</time>
      </trkpt>
      <trkpt lat="47.55241" lon="6.66318">
        <ele>552.2</ele>
        <time>2017-01-15T10:26:24.999Z</time>
      </trkpt>
      <trkpt lat="47.55239" lon="6.66315">
        <ele>552.1</ele>
        <time>2017-01-15T10:26:25.999Z</time>
      </trkpt>
      <trkpt lat="47.55237" lon="6.66312">
        <ele>552</ele>
        <time>2017-01-15T10:26:26.999Z</time>
      </trkpt>
      <trkpt lat="47.55235" lon="6.66308">
        <ele>551.6</ele>
        <time>2017-01-15T10:26:29.999Z</time>
      </trkpt>
      <trkpt lat="47.55234" lon="6.66306">
        <ele>551.6</ele>
        <time>2017-01-15T10:26:30.999Z</time>
      </trkpt>
      <trkpt lat="47.55232" lon="6.66302">
        <ele>551.5</ele>
        <time>2017-01-15T10:26:32.999Z</time>
      </trkpt>
      <trkpt lat="47.55231" lon="6.66299">
        <ele>551.5</ele>
        <time>2017-01-15T10:26:33.999Z</time>
      </trkpt>
      <trkpt lat="47.55231" lon="6.66296">
        <ele>551.5</ele>
        <time>2017-01-15T10:26:36.999Z</time>
      </trkpt>
      <trkpt lat="47.5523" lon="6.66292">
        <ele>551.5</ele>
        <time>2017-01-15T10:26:37.999Z</time>
      </trkpt>
      <trkpt lat="47.55228" lon="6.66289">
        <ele>551.4</ele>
        <time>2017-01-15T10:26:38.999Z</time>
      </trkpt>
      <trkpt lat="47.55226" lon="6.66286">
        <ele>551.4</ele>
        <time>2017-01-15T10:26:39.999Z</time>
      </trkpt>
      <trkpt lat="47.55221" lon="6.66283">
        <ele>551.3</ele>
        <time>2017-01-15T10:26:40.999Z</time>
      </trkpt>
      <trkpt lat="47.55217" lon="6.66279">
        <ele>551.2</ele>
        <time>2017-01-15T10:26:41.999Z</time>
      </trkpt>
      <trkpt lat="47.55214" lon="6.66275">
        <ele>551.2</ele>
        <time>2017-01-15T10:26:42.999Z</time>
      </trkpt>
      <trkpt lat="47.55212" lon="6.66271">
        <ele>551.2</ele>
        <time>2017-01-15T10:26:43.999Z</time>
      </trkpt>
      <trkpt lat="47.55211" lon="6.66266">
        <ele>551.1</ele>
        <time>2017-01-15T10:26:44.999Z</time>
      </trkpt>
      <trkpt lat="47.5521" lon="6.66264">
        <ele>551</ele>
        <time>2017-01-15T10:26:45.999Z</time>
      </trkpt>
      <trkpt lat="47.55208" lon="6.66259">
        <ele>550.8</ele>
        <time>2017-01-15T10:26:47.999Z</time>
      </trkpt>
      <trkpt lat="47.55208" lon="6.66258">
        <ele>550.7</ele>
        <time>2017-01-15T10:26:48.999Z</time>
      </trkpt>
      <trkpt lat="47.55206" lon="6.66255">
        <ele>550.7</ele>
        <time>2017-01-15T10:26:49.999Z</time>
      </trkpt>
      <trkpt lat="47.55205" lon="6.66252">
        <ele>550.7</ele>
        <time>2017-01-15T10:26:50.999Z</time>
      </trkpt>
      <trkpt lat="47.55201" lon="6.66249">
        <ele>550.6</ele>
        <time>2017-01-15T10:26:52.999Z</time>
      </trkpt>
      <trkpt lat="47.552" lon="6.66247">
        <ele>550.5</ele>
        <time>2017-01-15T10:26:53.999Z</time>
      </trkpt>
      <trkpt lat="47.55197" lon="6.66243">
        <ele>550.4</ele>
        <time>2017-01-15T10:26:55.999Z</time>
      </trkpt>
      <trkpt lat="47.55195" lon="6.66241">
        <ele>550.4</ele>
        <time>2017-01-15T10:26:56.999Z</time>
      </trkpt>
      <trkpt lat="47.55191" lon="6.66238">
        <ele>550.3</ele>
        <time>2017-01-15T10:26:58.999Z</time>
      </trkpt>
      <trkpt lat="47.5519" lon="6.66236">
        <ele>550.3</ele>
        <time>2017-01-15T10:26:59.999Z</time>
      </trkpt>
      <trkpt lat="47.55187" lon="6.66233">
        <ele>550</ele>
        <time>2017-01-15T10:27:01.999Z</time>
      </trkpt>
      <trkpt lat="47.55185" lon="6.66231">
        <ele>549.9</ele>
        <time>2017-01-15T10:27:02.999Z</time>
      </trkpt>
      <trkpt lat="47.55183" lon="6.66229">
        <ele>549.7</ele>
        <time>2017-01-15T10:27:03.999Z</time>
      </trkpt>
      <trkpt lat="47.55181" lon="6.66227">
        <ele>549.6</ele>
        <time>2017-01-15T10:27:04.999Z</time>
      </trkpt>
      <trkpt lat="47.55178" lon="6.66224">
        <ele>549.6</ele>
        <time>2017-01-15T10:27:06.999Z</time>
      </trkpt>
      <trkpt lat="47.55177" lon="6.66223">
        <ele>549.7</ele>
        <time>2017-01-15T10:27:07.999Z</time>
      </trkpt>
      <trkpt lat="47.55173" lon="6.66222">
        <ele>549.6</ele>
        <time>2017-01-15T10:27:09.999Z</time>
      </trkpt>
      <trkpt lat="47.55171" lon="6.66221">
        <ele>549.5</ele>
        <time>2017-01-15T10:27:10.999Z</time>
      </trkpt>
      <trkpt lat="47.55168" lon="6.6622">
        <ele>549.5</ele>
        <time>2017-01-15T10:27:13.999Z</time>
      </trkpt>
      <trkpt lat="47.55166" lon="6.66221">
        <ele>549.5</ele>
        <time>2017-01-15T10:27:14.999Z</time>
      </trkpt>
      <trkpt lat="47.55161" lon="6.66222">
        <ele>549.2</ele>
        <time>2017-01-15T10:27:16.999Z</time>
      </trkpt>
      <trkpt lat="47.55159" lon="6.66221">
        <ele>549.1</ele>
        <time>2017-01-15T10:27:17.999Z</time>
      </trkpt>
      <trkpt lat="47.55156" lon="6.66218">
        <ele>548.9</ele>
        <time>2017-01-15T10:27:19.999Z</time>
      </trkpt>
      <trkpt lat="47.55154" lon="6.66216">
        <ele>548.9</ele>
        <time>2017-01-15T10:27:20.999Z</time>
      </trkpt>
      <trkpt lat="47.55151" lon="6.66214">
        <ele>548.8</ele>
        <time>2017-01-15T10:27:22.999Z</time>
      </trkpt>
      <trkpt lat="47.55149" lon="6.66214">
        <ele>548.7</ele>
        <time>2017-01-15T10:27:23.999Z</time>
      </trkpt>
      <trkpt lat="47.55147" lon="6.66214">
        <ele>548.4</ele>
        <time>2017-01-15T10:27:26.999Z</time>
      </trkpt>
      <trkpt lat="47.55142" lon="6.66214">
        <ele>548.4</ele>
        <time>2017-01-15T10:27:27.999Z</time>
      </trkpt>
      <trkpt lat="47.55141" lon="6.66216">
        <ele>548.3</ele>
        <time>2017-01-15T10:27:28.999Z</time>
      </trkpt>
      <trkpt lat="47.55137" lon="6.66215">
        <ele>548.2</ele>
        <time>2017-01-15T10:27:29.999Z</time>
      </trkpt>
      <trkpt lat="47.55134" lon="6.66214">
        <ele>548.1</ele>
        <time>2017-01-15T10:27:30.999Z</time>
      </trkpt>
      <trkpt lat="47.55132" lon="6.66212">
        <ele>548</ele>
        <time>2017-01-15T10:27:31.999Z</time>
      </trkpt>
      <trkpt lat="47.5513" lon="6.66211">
        <ele>548</ele>
        <time>2017-01-15T10:27:32.999Z</time>
      </trkpt>
      <trkpt lat="47.55128" lon="6.66209">
        <ele>548</ele>
        <time>2017-01-15T10:27:33.999Z</time>
      </trkpt>
      <trkpt lat="47.55126" lon="6.66208">
        <ele>547.9</ele>
        <time>2017-01-15T10:27:34.999Z</time>
      </trkpt>
      <trkpt lat="47.55123" lon="6.66207">
        <ele>547.9</ele>
        <time>2017-01-15T10:27:35.999Z</time>
      </trkpt>
      <trkpt lat="47.5512" lon="6.66206">
        <ele>547.9</ele>
        <time>2017-01-15T10:27:36.999Z</time>
      </trkpt>
      <trkpt lat="47.55117" lon="6.66205">
        <ele>547.7</ele>
        <time>2017-01-15T10:27:37.999Z</time>
      </trkpt>
      <trkpt lat="47.55114" lon="6.66205">
        <ele>547.5</ele>
        <time>2017-01-15T10:27:38.999Z</time>
      </trkpt>
      <trkpt lat="47.55112" lon="6.66205">
        <ele>547.3</ele>
        <time>2017-01-15T10:27:39.999Z</time>
      </trkpt>
      <trkpt lat="47.5511" lon="6.66205">
        <ele>547.2</ele>
        <time>2017-01-15T10:27:40.999Z</time>
      </trkpt>
      <trkpt lat="47.55107" lon="6.66206">
        <ele>547.1</ele>
        <time>2017-01-15T10:27:41.999Z</time>
      </trkpt>
      <trkpt lat="47.55104" lon="6.66206">
        <ele>546.6</ele>
        <time>2017-01-15T10:27:43.999Z</time>
      </trkpt>
      <trkpt lat="47.55101" lon="6.66205">
        <ele>546.4</ele>
        <time>2017-01-15T10:27:44.999Z</time>
      </trkpt>
      <trkpt lat="47.55099" lon="6.66205">
        <ele>546.2</ele>
        <time>2017-01-15T10:27:45.999Z</time>
      </trkpt>
      <trkpt lat="47.55096" lon="6.66205">
        <ele>545.9</ele>
        <time>2017-01-15T10:27:46.999Z</time>
      </trkpt>
      <trkpt lat="47.55093" lon="6.66205">
        <ele>545.7</ele>
        <time>2017-01-15T10:27:47.999Z</time>
      </trkpt>
      <trkpt lat="47.5509" lon="6.66205">
        <ele>545.5</ele>
        <time>2017-01-15T10:27:48.999Z</time>
      </trkpt>
      <trkpt lat="47.55087" lon="6.66204">
        <ele>545.3</ele>
        <time>2017-01-15T10:27:50.999Z</time>
      </trkpt>
      <trkpt lat="47.55084" lon="6.66203">
        <ele>545.4</ele>
        <time>2017-01-15T10:27:51.999Z</time>
      </trkpt>
      <trkpt lat="47.5508" lon="6.662">
        <ele>545.3</ele>
        <time>2017-01-15T10:27:53.999Z</time>
      </trkpt>
      <trkpt lat="47.55078" lon="6.662">
        <ele>545.2</ele>
        <time>2017-01-15T10:27:54.999Z</time>
      </trkpt>
      <trkpt lat="47.55076" lon="6.66197">
        <ele>545.1</ele>
        <time>2017-01-15T10:27:58.999Z</time>
      </trkpt>
      <trkpt lat="47.55075" lon="6.66196">
        <ele>544.8</ele>
        <time>2017-01-15T10:27:59.999Z</time>
      </trkpt>
      <trkpt lat="47.55073" lon="6.66194">
        <ele>544.5</ele>
        <time>2017-01-15T10:28:00.999Z</time>
      </trkpt>
      <trkpt lat="47.5507" lon="6.66192">
        <ele>544.4</ele>
        <time>2017-01-15T10:28:01.999Z</time>
      </trkpt>
      <trkpt lat="47.55065" lon="6.66187">
        <ele>544.3</ele>
        <time>2017-01-15T10:28:02.999Z</time>
      </trkpt>
      <trkpt lat="47.55061" lon="6.66183">
        <ele>544.2</ele>
        <time>2017-01-15T10:28:03.999Z</time>
      </trkpt>
      <trkpt lat="47.55058" lon="6.66181">
        <ele>544.2</ele>
        <time>2017-01-15T10:28:04.999Z</time>
      </trkpt>
      <trkpt lat="47.55055" lon="6.66178">
        <ele>544.1</ele>
        <time>2017-01-15T10:28:05.999Z</time>
      </trkpt>
      <trkpt lat="47.55053" lon="6.66177">
        <ele>544.1</ele>
        <time>2017-01-15T10:28:06.999Z</time>
      </trkpt>
      <trkpt lat="47.55049" lon="6.66175">
        <ele>544.2</ele>
        <time>2017-01-15T10:28:08.999Z</time>
      </trkpt>
      <trkpt lat="47.55047" lon="6.66174">
        <ele>544.2</ele>
        <time>2017-01-15T10:28:09.999Z</time>
      </trkpt>
      <trkpt lat="47.55044" lon="6.66171">
        <ele>544</ele>
        <time>2017-01-15T10:28:11.999Z</time>
      </trkpt>
      <trkpt lat="47.55042" lon="6.6617">
        <ele>543.9</ele>
        <time>2017-01-15T10:28:12.999Z</time>
      </trkpt>
      <trkpt lat="47.5504" lon="6.66168">
        <ele>543.9</ele>
        <time>2017-01-15T10:28:13.999Z</time>
      </trkpt>
      <trkpt lat="47.55038" lon="6.66167">
        <ele>543.8</ele>
        <time>2017-01-15T10:28:14.999Z</time>
      </trkpt>
      <trkpt lat="47.55035" lon="6.66166">
        <ele>543.7</ele>
        <time>2017-01-15T10:28:15.999Z</time>
      </trkpt>
      <trkpt lat="47.55033" lon="6.66165">
        <ele>543.6</ele>
        <time>2017-01-15T10:28:16.999Z</time>
      </trkpt>
      <trkpt lat="47.55029" lon="6.66165">
        <ele>542.7</ele>
        <time>2017-01-15T10:28:20.999Z</time>
      </trkpt>
      <trkpt lat="47.55027" lon="6.66165">
        <ele>542.4</ele>
        <time>2017-01-15T10:28:21.999Z</time>
      </trkpt>
      <trkpt lat="47.55023" lon="6.66165">
        <ele>542.2</ele>
        <time>2017-01-15T10:28:22.999Z</time>
      </trkpt>
      <trkpt lat="47.55021" lon="6.66165">
        <ele>542.1</ele>
        <time>2017-01-15T10:28:23.999Z</time>
      </trkpt>
      <trkpt lat="47.55018" lon="6.66164">
        <ele>541.8</ele>
        <time>2017-01-15T10:28:24.999Z</time>
      </trkpt>
      <trkpt lat="47.55015" lon="6.66162">
        <ele>541.7</ele>
        <time>2017-01-15T10:28:25.999Z</time>
      </trkpt>
      <trkpt lat="47.55012" lon="6.6616">
        <ele>541.7</ele>
        <time>2017-01-15T10:28:26.999Z</time>
      </trkpt>
      <trkpt lat="47.55009" lon="6.66158">
        <ele>541.6</ele>
        <time>2017-01-15T10:28:27.999Z</time>
      </trkpt>
      <trkpt lat="47.55007" lon="6.66154">
        <ele>541.7</ele>
        <time>2017-01-15T10:28:28.999Z</time>
      </trkpt>
      <trkpt lat="47.55004" lon="6.66148">
        <ele>541.8</ele>
        <time>2017-01-15T10:28:29.999Z</time>
      </trkpt>
      <trkpt lat="47.55001" lon="6.66143">
        <ele>541.9</ele>
        <time>2017-01-15T10:28:30.999Z</time>
      </trkpt>
      <trkpt lat="47.54998" lon="6.66137">
        <ele>542.1</ele>
        <time>2017-01-15T10:28:31.999Z</time>
      </trkpt>
      <trkpt lat="47.54991" lon="6.6613">
        <ele>542.3</ele>
        <time>2017-01-15T10:28:32.999Z</time>
      </trkpt>
      <trkpt lat="47.54986" lon="6.66126">
        <ele>542.5</ele>
        <time>2017-01-15T10:28:33.999Z</time>
      </trkpt>
      <trkpt lat="47.54982" lon="6.66123">
        <ele>542.7</ele>
        <time>2017-01-15T10:28:34.999Z</time>
      </trkpt>
      <trkpt lat="47.54979" lon="6.66122">
        <ele>542.9</ele>
        <time>2017-01-15T10:28:35.999Z</time>
      </trkpt>
      <trkpt lat="47.54976" lon="6.66121">
        <ele>543</ele>
        <time>2017-01-15T10:28:36.999Z</time>
      </trkpt>
      <trkpt lat="47.54974" lon="6.6612">
        <ele>543</ele>
        <time>2017-01-15T10:28:37.999Z</time>
      </trkpt>
      <trkpt lat="47.5497" lon="6.66116">
        <ele>543.2</ele>
        <time>2017-01-15T10:28:40.999Z</time>
      </trkpt>
      <trkpt lat="47.54969" lon="6.66114">
        <ele>543.3</ele>
        <time>2017-01-15T10:28:41.999Z</time>
      </trkpt>
      <trkpt lat="47.54966" lon="6.6611">
        <ele>543.7</ele>
        <time>2017-01-15T10:28:44.999Z</time>
      </trkpt>
      <trkpt lat="47.54964" lon="6.66108">
        <ele>543.7</ele>
        <time>2017-01-15T10:28:45.999Z</time>
      </trkpt>
      <trkpt lat="47.54962" lon="6.66104">
        <ele>544</ele>
        <time>2017-01-15T10:28:47.999Z</time>
      </trkpt>
      <trkpt lat="47.5496" lon="6.66102">
        <ele>544.1</ele>
        <time>2017-01-15T10:28:48.999Z</time>
      </trkpt>
      <trkpt lat="47.54956" lon="6.66099">
        <ele>544.3</ele>
        <time>2017-01-15T10:28:50.999Z</time>
      </trkpt>
      <trkpt lat="47.54955" lon="6.66098">
        <ele>544.3</ele>
        <time>2017-01-15T10:28:51.999Z</time>
      </trkpt>
      <trkpt lat="47.54951" lon="6.66095">
        <ele>544.4</ele>
        <time>2017-01-15T10:28:53.999Z</time>
      </trkpt>
      <trkpt lat="47.54949" lon="6.66094">
        <ele>544.5</ele>
        <time>2017-01-15T10:28:54.999Z</time>
      </trkpt>
      <trkpt lat="47.54945" lon="6.66092">
        <ele>544.9</ele>
        <time>2017-01-15T10:28:56.999Z</time>
      </trkpt>
      <trkpt lat="47.54944" lon="6.66091">
        <ele>545.1</ele>
        <time>2017-01-15T10:28:57.999Z</time>
      </trkpt>
      <trkpt lat="47.54941" lon="6.66087">
        <ele>545.9</ele>
        <time>2017-01-15T10:29:01.999Z</time>
      </trkpt>
      <trkpt lat="47.5494" lon="6.66086">
        <ele>546</ele>
        <time>2017-01-15T10:29:02.999Z</time>
      </trkpt>
      <trkpt lat="47.54936" lon="6.66082">
        <ele>546.4</ele>
        <time>2017-01-15T10:29:05.999Z</time>
      </trkpt>
      <trkpt lat="47.54935" lon="6.66081">
        <ele>546.4</ele>
        <time>2017-01-15T10:29:06.999Z</time>
      </trkpt>
      <trkpt lat="47.54933" lon="6.66079">
        <ele>546.5</ele>
        <time>2017-01-15T10:29:07.999Z</time>
      </trkpt>
      <trkpt lat="47.54929" lon="6.66077">
        <ele>546.5</ele>
        <time>2017-01-15T10:29:08.999Z</time>
      </trkpt>
      <trkpt lat="47.54927" lon="6.66074">
        <ele>546.4</ele>
        <time>2017-01-15T10:29:09.999Z</time>
      </trkpt>
      <trkpt lat="47.54924" lon="6.66071">
        <ele>546.5</ele>
        <time>2017-01-15T10:29:10.999Z</time>
      </trkpt>
      <trkpt lat="47.54922" lon="6.66069">
        <ele>546.5</ele>
        <time>2017-01-15T10:29:11.999Z</time>
      </trkpt>
      <trkpt lat="47.54919" lon="6.66068">
        <ele>546.5</ele>
        <time>2017-01-15T10:29:12.999Z</time>
      </trkpt>
      <trkpt lat="47.54917" lon="6.66065">
        <ele>546.4</ele>
        <time>2017-01-15T10:29:14.999Z</time>
      </trkpt>
      <trkpt lat="47.54914" lon="6.66063">
        <ele>546.3</ele>
        <time>2017-01-15T10:29:15.999Z</time>
      </trkpt>
      <trkpt lat="47.54911" lon="6.66062">
        <ele>546.3</ele>
        <time>2017-01-15T10:29:16.999Z</time>
      </trkpt>
      <trkpt lat="47.54908" lon="6.66059">
        <ele>546.2</ele>
        <time>2017-01-15T10:29:17.999Z</time>
      </trkpt>
      <trkpt lat="47.54905" lon="6.66056">
        <ele>546.1</ele>
        <time>2017-01-15T10:29:18.999Z</time>
      </trkpt>
      <trkpt lat="47.54903" lon="6.66051">
        <ele>545.9</ele>
        <time>2017-01-15T10:29:19.999Z</time>
      </trkpt>
      <trkpt lat="47.549" lon="6.66048">
        <ele>545.9</ele>
        <time>2017-01-15T10:29:20.999Z</time>
      </trkpt>
      <trkpt lat="47.54896" lon="6.66044">
        <ele>545.9</ele>
        <time>2017-01-15T10:29:21.999Z</time>
      </trkpt>
      <trkpt lat="47.54894" lon="6.66039">
        <ele>546</ele>
        <time>2017-01-15T10:29:22.999Z</time>
      </trkpt>
      <trkpt lat="47.54891" lon="6.66035">
        <ele>546</ele>
        <time>2017-01-15T10:29:23.999Z</time>
      </trkpt>
      <trkpt lat="47.54887" lon="6.6603">
        <ele>545.9</ele>
        <time>2017-01-15T10:29:24.999Z</time>
      </trkpt>
      <trkpt lat="47.54883" lon="6.66026">
        <ele>545.8</ele>
        <time>2017-01-15T10:29:25.999Z</time>
      </trkpt>
      <trkpt lat="47.5488" lon="6.66024">
        <ele>545.6</ele>
        <time>2017-01-15T10:29:26.999Z</time>
      </trkpt>
      <trkpt lat="47.54877" lon="6.66022">
        <ele>545.4</ele>
        <time>2017-01-15T10:29:27.999Z</time>
      </trkpt>
      <trkpt lat="47.54875" lon="6.66019">
        <ele>545.3</ele>
        <time>2017-01-15T10:29:28.999Z</time>
      </trkpt>
      <trkpt lat="47.54872" lon="6.66015">
        <ele>545.1</ele>
        <time>2017-01-15T10:29:29.999Z</time>
      </trkpt>
      <trkpt lat="47.54867" lon="6.66008">
        <ele>545</ele>
        <time>2017-01-15T10:29:30.999Z</time>
      </trkpt>
      <trkpt lat="47.54863" lon="6.66004">
        <ele>544.9</ele>
        <time>2017-01-15T10:29:31.999Z</time>
      </trkpt>
      <trkpt lat="47.54859" lon="6.66001">
        <ele>544.7</ele>
        <time>2017-01-15T10:29:33.999Z</time>
      </trkpt>
      <trkpt lat="47.54857" lon="6.66">
        <ele>544.5</ele>
        <time>2017-01-15T10:29:34.999Z</time>
      </trkpt>
      <trkpt lat="47.54854" lon="6.66">
        <ele>544</ele>
        <time>2017-01-15T10:29:36.999Z</time>
      </trkpt>
      <trkpt lat="47.54851" lon="6.65999">
        <ele>543.8</ele>
        <time>2017-01-15T10:29:37.999Z</time>
      </trkpt>
      <trkpt lat="47.54849" lon="6.65999">
        <ele>543.7</ele>
        <time>2017-01-15T10:29:38.999Z</time>
      </trkpt>
      <trkpt lat="47.54846" lon="6.65999">
        <ele>543.6</ele>
        <time>2017-01-15T10:29:39.999Z</time>
      </trkpt>
      <trkpt lat="47.54841" lon="6.65999">
        <ele>543.5</ele>
        <time>2017-01-15T10:29:41.999Z</time>
      </trkpt>
      <trkpt lat="47.54839" lon="6.65999">
        <ele>543.4</ele>
        <time>2017-01-15T10:29:42.999Z</time>
      </trkpt>
      <trkpt lat="47.54835" lon="6.65999">
        <ele>543.2</ele>
        <time>2017-01-15T10:29:44.999Z</time>
      </trkpt>
      <trkpt lat="47.54833" lon="6.65999">
        <ele>543.2</ele>
        <time>2017-01-15T10:29:45.999Z</time>
      </trkpt>
      <trkpt lat="47.5483" lon="6.66">
        <ele>543.2</ele>
        <time>2017-01-15T10:29:47.999Z</time>
      </trkpt>
      <trkpt lat="47.54828" lon="6.65999">
        <ele>543.1</ele>
        <time>2017-01-15T10:29:48.999Z</time>
      </trkpt>
      <trkpt lat="47.54825" lon="6.65999">
        <ele>543.1</ele>
        <time>2017-01-15T10:29:49.999Z</time>
      </trkpt>
      <trkpt lat="47.54822" lon="6.65997">
        <ele>543.1</ele>
        <time>2017-01-15T10:29:50.999Z</time>
      </trkpt>
      <trkpt lat="47.54819" lon="6.65995">
        <ele>543.1</ele>
        <time>2017-01-15T10:29:51.999Z</time>
      </trkpt>
      <trkpt lat="47.54817" lon="6.65994">
        <ele>543.2</ele>
        <time>2017-01-15T10:29:52.999Z</time>
      </trkpt>
      <trkpt lat="47.54814" lon="6.65993">
        <ele>543.3</ele>
        <time>2017-01-15T10:29:53.999Z</time>
      </trkpt>
      <trkpt lat="47.54812" lon="6.6599">
        <ele>543.5</ele>
        <time>2017-01-15T10:29:54.999Z</time>
      </trkpt>
      <trkpt lat="47.54809" lon="6.65988">
        <ele>543.6</ele>
        <time>2017-01-15T10:29:55.999Z</time>
      </trkpt>
      <trkpt lat="47.54806" lon="6.65987">
        <ele>543.6</ele>
        <time>2017-01-15T10:29:56.999Z</time>
      </trkpt>
      <trkpt lat="47.54804" lon="6.65985">
        <ele>543.7</ele>
        <time>2017-01-15T10:29:57.999Z</time>
      </trkpt>
      <trkpt lat="47.54801" lon="6.65984">
        <ele>543.8</ele>
        <time>2017-01-15T10:29:58.999Z</time>
      </trkpt>
      <trkpt lat="47.54798" lon="6.65982">
        <ele>543.8</ele>
        <time>2017-01-15T10:29:59.999Z</time>
      </trkpt>
      <trkpt lat="47.54795" lon="6.6598">
        <ele>543.8</ele>
        <time>2017-01-15T10:30:00.999Z</time>
      </trkpt>
      <trkpt lat="47.54793" lon="6.65978">
        <ele>543.8</ele>
        <time>2017-01-15T10:30:01.999Z</time>
      </trkpt>
      <trkpt lat="47.54791" lon="6.65977">
        <ele>543.9</ele>
        <time>2017-01-15T10:30:02.999Z</time>
      </trkpt>
      <trkpt lat="47.54787" lon="6.65976">
        <ele>543.9</ele>
        <time>2017-01-15T10:30:03.999Z</time>
      </trkpt>
      <trkpt lat="47.54785" lon="6.65976">
        <ele>544</ele>
        <time>2017-01-15T10:30:04.999Z</time>
      </trkpt>
      <trkpt lat="47.54782" lon="6.65975">
        <ele>544</ele>
        <time>2017-01-15T10:30:05.999Z</time>
      </trkpt>
      <trkpt lat="47.54779" lon="6.65973">
        <ele>544</ele>
        <time>2017-01-15T10:30:06.999Z</time>
      </trkpt>
      <trkpt lat="47.54775" lon="6.65972">
        <ele>543.9</ele>
        <time>2017-01-15T10:30:07.999Z</time>
      </trkpt>
      <trkpt lat="47.54773" lon="6.6597">
        <ele>543.9</ele>
        <time>2017-01-15T10:30:08.999Z</time>
      </trkpt>
      <trkpt lat="47.54769" lon="6.65969">
        <ele>543.9</ele>
        <time>2017-01-15T10:30:09.999Z</time>
      </trkpt>
      <trkpt lat="47.54766" lon="6.65969">
        <ele>543.9</ele>
        <time>2017-01-15T10:30:10.999Z</time>
      </trkpt>
      <trkpt lat="47.54764" lon="6.65968">
        <ele>543.8</ele>
        <time>2017-01-15T10:30:11.999Z</time>
      </trkpt>
      <trkpt lat="47.54762" lon="6.65965">
        <ele>543.7</ele>
        <time>2017-01-15T10:30:12.999Z</time>
      </trkpt>
      <trkpt lat="47.54758" lon="6.65962">
        <ele>543.7</ele>
        <time>2017-01-15T10:30:13.999Z</time>
      </trkpt>
      <trkpt lat="47.54754" lon="6.65962">
        <ele>543.7</ele>
        <time>2017-01-15T10:30:14.999Z</time>
      </trkpt>
      <trkpt lat="47.54751" lon="6.65962">
        <ele>543.7</ele>
        <time>2017-01-15T10:30:15.999Z</time>
      </trkpt>
      <trkpt lat="47.54748" lon="6.65962">
        <ele>542.6</ele>
        <time>2017-01-15T10:30:16.999Z</time>
      </trkpt>
      <trkpt lat="47.54745" lon="6.65963">
        <ele>542.5</ele>
        <time>2017-01-15T10:30:17.999Z</time>
      </trkpt>
      <trkpt lat="47.54742" lon="6.65964">
        <ele>542.4</ele>
        <time>2017-01-15T10:30:18.999Z</time>
      </trkpt>
      <trkpt lat="47.54739" lon="6.65964">
        <ele>542.3</ele>
        <time>2017-01-15T10:30:19.999Z</time>
      </trkpt>
      <trkpt lat="47.54736" lon="6.65964">
        <ele>542.2</ele>
        <time>2017-01-15T10:30:20.999Z</time>
      </trkpt>
      <trkpt lat="47.54733" lon="6.65964">
        <ele>542.1</ele>
        <time>2017-01-15T10:30:21.999Z</time>
      </trkpt>
      <trkpt lat="47.54731" lon="6.65962">
        <ele>542</ele>
        <time>2017-01-15T10:30:22.999Z</time>
      </trkpt>
      <trkpt lat="47.54729" lon="6.6596">
        <ele>542</ele>
        <time>2017-01-15T10:30:23.999Z</time>
      </trkpt>
      <trkpt lat="47.54727" lon="6.65957">
        <ele>542</ele>
        <time>2017-01-15T10:30:24.999Z</time>
      </trkpt>
      <trkpt lat="47.54725" lon="6.65956">
        <ele>542</ele>
        <time>2017-01-15T10:30:25.999Z</time>
      </trkpt>
      <trkpt lat="47.54723" lon="6.65954">
        <ele>541.9</ele>
        <time>2017-01-15T10:30:26.999Z</time>
      </trkpt>
      <trkpt lat="47.54721" lon="6.65952">
        <ele>541.9</ele>
        <time>2017-01-15T10:30:27.999Z</time>
      </trkpt>
      <trkpt lat="47.54718" lon="6.65951">
        <ele>541.9</ele>
        <time>2017-01-15T10:30:28.999Z</time>
      </trkpt>
      <trkpt lat="47.54716" lon="6.6595">
        <ele>541.8</ele>
        <time>2017-01-15T10:30:29.999Z</time>
      </trkpt>
      <trkpt lat="47.54711" lon="6.65948">
        <ele>541.7</ele>
        <time>2017-01-15T10:30:31.999Z</time>
      </trkpt>
      <trkpt lat="47.54709" lon="6.65946">
        <ele>541.7</ele>
        <time>2017-01-15T10:30:32.999Z</time>
      </trkpt>
      <trkpt lat="47.54706" lon="6.65944">
        <ele>541.7</ele>
        <time>2017-01-15T10:30:33.999Z</time>
      </trkpt>
      <trkpt lat="47.54703" lon="6.65944">
        <ele>541.7</ele>
        <time>2017-01-15T10:30:34.999Z</time>
      </trkpt>
      <trkpt lat="47.54701" lon="6.65942">
        <ele>541.7</ele>
        <time>2017-01-15T10:30:35.999Z</time>
      </trkpt>
      <trkpt lat="47.54699" lon="6.65941">
        <ele>541.7</ele>
        <time>2017-01-15T10:30:37.999Z</time>
      </trkpt>
      <trkpt lat="47.54696" lon="6.6594">
        <ele>541.7</ele>
        <time>2017-01-15T10:30:38.999Z</time>
      </trkpt>
      <trkpt lat="47.54693" lon="6.6594">
        <ele>541.7</ele>
        <time>2017-01-15T10:30:39.999Z</time>
      </trkpt>
      <trkpt lat="47.54691" lon="6.65938">
        <ele>541.8</ele>
        <time>2017-01-15T10:30:40.999Z</time>
      </trkpt>
      <trkpt lat="47.54689" lon="6.65937">
        <ele>541.9</ele>
        <time>2017-01-15T10:30:41.999Z</time>
      </trkpt>
      <trkpt lat="47.54686" lon="6.65936">
        <ele>542</ele>
        <time>2017-01-15T10:30:42.999Z</time>
      </trkpt>
      <trkpt lat="47.54683" lon="6.65933">
        <ele>542</ele>
        <time>2017-01-15T10:30:43.999Z</time>
      </trkpt>
      <trkpt lat="47.54679" lon="6.65929">
        <ele>542</ele>
        <time>2017-01-15T10:30:44.999Z</time>
      </trkpt>
      <trkpt lat="47.54676" lon="6.65925">
        <ele>542.1</ele>
        <time>2017-01-15T10:30:45.999Z</time>
      </trkpt>
      <trkpt lat="47.54672" lon="6.65922">
        <ele>542</ele>
        <time>2017-01-15T10:30:46.999Z</time>
      </trkpt>
      <trkpt lat="47.54668" lon="6.6592">
        <ele>541.9</ele>
        <time>2017-01-15T10:30:47.999Z</time>
      </trkpt>
      <trkpt lat="47.54666" lon="6.65918">
        <ele>541.8</ele>
        <time>2017-01-15T10:30:48.999Z</time>
      </trkpt>
      <trkpt lat="47.54663" lon="6.65916">
        <ele>541.6</ele>
        <time>2017-01-15T10:30:49.999Z</time>
      </trkpt>
      <trkpt lat="47.5466" lon="6.65915">
        <ele>541.4</ele>
        <time>2017-01-15T10:30:50.999Z</time>
      </trkpt>
      <trkpt lat="47.54658" lon="6.65913">
        <ele>541.2</ele>
        <time>2017-01-15T10:30:51.999Z</time>
      </trkpt>
      <trkpt lat="47.54655" lon="6.65912">
        <ele>541.1</ele>
        <time>2017-01-15T10:30:52.999Z</time>
      </trkpt>
      <trkpt lat="47.54654" lon="6.65911">
        <ele>541</ele>
        <time>2017-01-15T10:30:53.999Z</time>
      </trkpt>
      <trkpt lat="47.54651" lon="6.65909">
        <ele>540.8</ele>
        <time>2017-01-15T10:30:54.999Z</time>
      </trkpt>
      <trkpt lat="47.54647" lon="6.65906">
        <ele>540.6</ele>
        <time>2017-01-15T10:30:55.999Z</time>
      </trkpt>
      <trkpt lat="47.54643" lon="6.65902">
        <ele>540.4</ele>
        <time>2017-01-15T10:30:56.999Z</time>
      </trkpt>
      <trkpt lat="47.5464" lon="6.65901">
        <ele>540.2</ele>
        <time>2017-01-15T10:30:57.999Z</time>
      </trkpt>
      <trkpt lat="47.54636" lon="6.65898">
        <ele>540</ele>
        <time>2017-01-15T10:30:58.999Z</time>
      </trkpt>
      <trkpt lat="47.54633" lon="6.65895">
        <ele>539.8</ele>
        <time>2017-01-15T10:30:59.999Z</time>
      </trkpt>
      <trkpt lat="47.54626" lon="6.65892">
        <ele>539.8</ele>
        <time>2017-01-15T10:31:00.999Z</time>
      </trkpt>
      <trkpt lat="47.5462" lon="6.65889">
        <ele>539.7</ele>
        <time>2017-01-15T10:31:01.999Z</time>
      </trkpt>
      <trkpt lat="47.54616" lon="6.65888">
        <ele>539.6</ele>
        <time>2017-01-15T10:31:02.999Z</time>
      </trkpt>
      <trkpt lat="47.54612" lon="6.65886">
        <ele>539.5</ele>
        <time>2017-01-15T10:31:03.999Z</time>
      </trkpt>
      <trkpt lat="47.54609" lon="6.65885">
        <ele>539.4</ele>
        <time>2017-01-15T10:31:04.999Z</time>
      </trkpt>
      <trkpt lat="47.54607" lon="6.65884">
        <ele>539.4</ele>
        <time>2017-01-15T10:31:05.999Z</time>
      </trkpt>
      <trkpt lat="47.54604" lon="6.65882">
        <ele>539.4</ele>
        <time>2017-01-15T10:31:06.999Z</time>
      </trkpt>
      <trkpt lat="47.54602" lon="6.65882">
        <ele>539.3</ele>
        <time>2017-01-15T10:31:07.999Z</time>
      </trkpt>
      <trkpt lat="47.546" lon="6.6588">
        <ele>539.3</ele>
        <time>2017-01-15T10:31:08.999Z</time>
      </trkpt>
      <trkpt lat="47.54598" lon="6.65878">
        <ele>539.3</ele>
        <time>2017-01-15T10:31:09.999Z</time>
      </trkpt>
      <trkpt lat="47.54595" lon="6.65877">
        <ele>539.2</ele>
        <time>2017-01-15T10:31:10.999Z</time>
      </trkpt>
      <trkpt lat="47.54592" lon="6.65876">
        <ele>539.1</ele>
        <time>2017-01-15T10:31:12.999Z</time>
      </trkpt>
      <trkpt lat="47.5459" lon="6.65874">
        <ele>539</ele>
        <time>2017-01-15T10:31:13.999Z</time>
      </trkpt>
      <trkpt lat="47.54588" lon="6.65873">
        <ele>539.1</ele>
        <time>2017-01-15T10:31:14.999Z</time>
      </trkpt>
      <trkpt lat="47.54586" lon="6.65871">
        <ele>539.1</ele>
        <time>2017-01-15T10:31:15.999Z</time>
      </trkpt>
      <trkpt lat="47.54582" lon="6.65868">
        <ele>539.2</ele>
        <time>2017-01-15T10:31:17.999Z</time>
      </trkpt>
      <trkpt lat="47.54581" lon="6.65867">
        <ele>539.2</ele>
        <time>2017-01-15T10:31:18.999Z</time>
      </trkpt>
      <trkpt lat="47.54577" lon="6.65865">
        <ele>538.9</ele>
        <time>2017-01-15T10:31:20.999Z</time>
      </trkpt>
      <trkpt lat="47.54575" lon="6.65865">
        <ele>538.8</ele>
        <time>2017-01-15T10:31:21.999Z</time>
      </trkpt>
      <trkpt lat="47.54572" lon="6.65861">
        <ele>538.5</ele>
        <time>2017-01-15T10:31:23.999Z</time>
      </trkpt>
      <trkpt lat="47.5457" lon="6.65858">
        <ele>538.4</ele>
        <time>2017-01-15T10:31:24.999Z</time>
      </trkpt>
      <trkpt lat="47.54568" lon="6.65856">
        <ele>538.4</ele>
        <time>2017-01-15T10:31:25.999Z</time>
      </trkpt>
      <trkpt lat="47.54566" lon="6.65854">
        <ele>538.3</ele>
        <time>2017-01-15T10:31:26.999Z</time>
      </trkpt>
      <trkpt lat="47.54563" lon="6.65852">
        <ele>538.2</ele>
        <time>2017-01-15T10:31:28.999Z</time>
      </trkpt>
      <trkpt lat="47.5456" lon="6.65851">
        <ele>538.1</ele>
        <time>2017-01-15T10:31:29.999Z</time>
      </trkpt>
      <trkpt lat="47.54557" lon="6.65849">
        <ele>538.1</ele>
        <time>2017-01-15T10:31:30.999Z</time>
      </trkpt>
      <trkpt lat="47.54555" lon="6.65847">
        <ele>538.1</ele>
        <time>2017-01-15T10:31:31.999Z</time>
      </trkpt>
      <trkpt lat="47.54553" lon="6.65844">
        <ele>538.1</ele>
        <time>2017-01-15T10:31:32.999Z</time>
      </trkpt>
      <trkpt lat="47.54551" lon="6.65842">
        <ele>538</ele>
        <time>2017-01-15T10:31:33.999Z</time>
      </trkpt>
      <trkpt lat="47.54549" lon="6.6584">
        <ele>537.9</ele>
        <time>2017-01-15T10:31:34.999Z</time>
      </trkpt>
      <trkpt lat="47.54546" lon="6.65837">
        <ele>537.9</ele>
        <time>2017-01-15T10:31:35.999Z</time>
      </trkpt>
      <trkpt lat="47.54543" lon="6.65833">
        <ele>537.7</ele>
        <time>2017-01-15T10:31:37.999Z</time>
      </trkpt>
      <trkpt lat="47.54541" lon="6.6583">
        <ele>537.6</ele>
        <time>2017-01-15T10:31:38.999Z</time>
      </trkpt>
      <trkpt lat="47.54539" lon="6.65826">
        <ele>537.6</ele>
        <time>2017-01-15T10:31:39.999Z</time>
      </trkpt>
      <trkpt lat="47.54537" lon="6.65821">
        <ele>537.5</ele>
        <time>2017-01-15T10:31:40.999Z</time>
      </trkpt>
      <trkpt lat="47.54534" lon="6.65816">
        <ele>537.4</ele>
        <time>2017-01-15T10:31:41.999Z</time>
      </trkpt>
      <trkpt lat="47.54531" lon="6.65811">
        <ele>537.4</ele>
        <time>2017-01-15T10:31:42.999Z</time>
      </trkpt>
      <trkpt lat="47.54528" lon="6.65807">
        <ele>537.4</ele>
        <time>2017-01-15T10:31:43.999Z</time>
      </trkpt>
      <trkpt lat="47.54525" lon="6.65803">
        <ele>537.3</ele>
        <time>2017-01-15T10:31:44.999Z</time>
      </trkpt>
      <trkpt lat="47.54522" lon="6.65799">
        <ele>537.3</ele>
        <time>2017-01-15T10:31:45.999Z</time>
      </trkpt>
      <trkpt lat="47.54519" lon="6.65795">
        <ele>537.3</ele>
        <time>2017-01-15T10:31:46.999Z</time>
      </trkpt>
      <trkpt lat="47.54515" lon="6.6579">
        <ele>537.4</ele>
        <time>2017-01-15T10:31:47.999Z</time>
      </trkpt>
      <trkpt lat="47.54512" lon="6.65785">
        <ele>537.6</ele>
        <time>2017-01-15T10:31:48.999Z</time>
      </trkpt>
      <trkpt lat="47.54508" lon="6.65783">
        <ele>537.8</ele>
        <time>2017-01-15T10:31:49.999Z</time>
      </trkpt>
      <trkpt lat="47.54505" lon="6.65781">
        <ele>537.9</ele>
        <time>2017-01-15T10:31:50.999Z</time>
      </trkpt>
      <trkpt lat="47.54503" lon="6.65779">
        <ele>538</ele>
        <time>2017-01-15T10:31:51.999Z</time>
      </trkpt>
      <trkpt lat="47.54501" lon="6.65776">
        <ele>538.1</ele>
        <time>2017-01-15T10:31:52.999Z</time>
      </trkpt>
      <trkpt lat="47.54498" lon="6.65773">
        <ele>538.1</ele>
        <time>2017-01-15T10:31:53.999Z</time>
      </trkpt>
      <trkpt lat="47.54495" lon="6.65771">
        <ele>538.1</ele>
        <time>2017-01-15T10:31:54.999Z</time>
      </trkpt>
      <trkpt lat="47.54493" lon="6.65769">
        <ele>538.1</ele>
        <time>2017-01-15T10:31:55.999Z</time>
      </trkpt>
      <trkpt lat="47.54491" lon="6.65767">
        <ele>538.1</ele>
        <time>2017-01-15T10:31:56.999Z</time>
      </trkpt>
      <trkpt lat="47.54489" lon="6.65764">
        <ele>537.9</ele>
        <time>2017-01-15T10:31:57.999Z</time>
      </trkpt>
      <trkpt lat="47.54485" lon="6.65762">
        <ele>537.9</ele>
        <time>2017-01-15T10:31:58.999Z</time>
      </trkpt>
      <trkpt lat="47.54481" lon="6.65758">
        <ele>538</ele>
        <time>2017-01-15T10:31:59.999Z</time>
      </trkpt>
      <trkpt lat="47.54479" lon="6.65755">
        <ele>538.1</ele>
        <time>2017-01-15T10:32:00.999Z</time>
      </trkpt>
      <trkpt lat="47.54475" lon="6.65752">
        <ele>538.3</ele>
        <time>2017-01-15T10:32:01.999Z</time>
      </trkpt>
      <trkpt lat="47.54473" lon="6.65749">
        <ele>538.3</ele>
        <time>2017-01-15T10:32:02.999Z</time>
      </trkpt>
      <trkpt lat="47.5447" lon="6.65744">
        <ele>538.3</ele>
        <time>2017-01-15T10:32:04.999Z</time>
      </trkpt>
      <trkpt lat="47.54467" lon="6.65741">
        <ele>538.4</ele>
        <time>2017-01-15T10:32:05.999Z</time>
      </trkpt>
      <trkpt lat="47.54465" lon="6.65739">
        <ele>538.4</ele>
        <time>2017-01-15T10:32:06.999Z</time>
      </trkpt>
      <trkpt lat="47.54462" lon="6.65737">
        <ele>538.6</ele>
        <time>2017-01-15T10:32:07.999Z</time>
      </trkpt>
      <trkpt lat="47.54459" lon="6.65736">
        <ele>538.6</ele>
        <time>2017-01-15T10:32:08.999Z</time>
      </trkpt>
      <trkpt lat="47.54458" lon="6.65734">
        <ele>538.7</ele>
        <time>2017-01-15T10:32:09.999Z</time>
      </trkpt>
      <trkpt lat="47.54456" lon="6.65731">
        <ele>538.8</ele>
        <time>2017-01-15T10:32:10.999Z</time>
      </trkpt>
      <trkpt lat="47.54454" lon="6.65727">
        <ele>538.9</ele>
        <time>2017-01-15T10:32:11.999Z</time>
      </trkpt>
      <trkpt lat="47.54452" lon="6.65725">
        <ele>539</ele>
        <time>2017-01-15T10:32:12.999Z</time>
      </trkpt>
      <trkpt lat="47.54449" lon="6.65721">
        <ele>539.1</ele>
        <time>2017-01-15T10:32:13.999Z</time>
      </trkpt>
      <trkpt lat="47.54446" lon="6.65719">
        <ele>539.1</ele>
        <time>2017-01-15T10:32:14.999Z</time>
      </trkpt>
      <trkpt lat="47.54443" lon="6.65717">
        <ele>539.2</ele>
        <time>2017-01-15T10:32:15.999Z</time>
      </trkpt>
      <trkpt lat="47.5444" lon="6.65714">
        <ele>539.2</ele>
        <time>2017-01-15T10:32:16.999Z</time>
      </trkpt>
      <trkpt lat="47.54438" lon="6.65711">
        <ele>539.2</ele>
        <time>2017-01-15T10:32:17.999Z</time>
      </trkpt>
      <trkpt lat="47.54435" lon="6.65709">
        <ele>539.2</ele>
        <time>2017-01-15T10:32:18.999Z</time>
      </trkpt>
      <trkpt lat="47.54432" lon="6.65708">
        <ele>539.1</ele>
        <time>2017-01-15T10:32:19.999Z</time>
      </trkpt>
      <trkpt lat="47.5443" lon="6.65706">
        <ele>539</ele>
        <time>2017-01-15T10:32:20.999Z</time>
      </trkpt>
      <trkpt lat="47.54427" lon="6.65705">
        <ele>538.9</ele>
        <time>2017-01-15T10:32:21.999Z</time>
      </trkpt>
      <trkpt lat="47.54425" lon="6.65704">
        <ele>538.8</ele>
        <time>2017-01-15T10:32:22.999Z</time>
      </trkpt>
      <trkpt lat="47.54423" lon="6.65702">
        <ele>538.8</ele>
        <time>2017-01-15T10:32:23.999Z</time>
      </trkpt>
      <trkpt lat="47.54421" lon="6.65701">
        <ele>538.7</ele>
        <time>2017-01-15T10:32:24.999Z</time>
      </trkpt>
      <trkpt lat="47.54418" lon="6.657">
        <ele>538.6</ele>
        <time>2017-01-15T10:32:25.999Z</time>
      </trkpt>
      <trkpt lat="47.54416" lon="6.65698">
        <ele>538.4</ele>
        <time>2017-01-15T10:32:26.999Z</time>
      </trkpt>
      <trkpt lat="47.54413" lon="6.65697">
        <ele>538.1</ele>
        <time>2017-01-15T10:32:27.999Z</time>
      </trkpt>
      <trkpt lat="47.54411" lon="6.65695">
        <ele>537.9</ele>
        <time>2017-01-15T10:32:28.999Z</time>
      </trkpt>
      <trkpt lat="47.54408" lon="6.65694">
        <ele>537.7</ele>
        <time>2017-01-15T10:32:29.999Z</time>
      </trkpt>
      <trkpt lat="47.54406" lon="6.65692">
        <ele>537.5</ele>
        <time>2017-01-15T10:32:30.999Z</time>
      </trkpt>
      <trkpt lat="47.54404" lon="6.65689">
        <ele>537.1</ele>
        <time>2017-01-15T10:32:31.999Z</time>
      </trkpt>
      <trkpt lat="47.54402" lon="6.65688">
        <ele>536.8</ele>
        <time>2017-01-15T10:32:32.999Z</time>
      </trkpt>
      <trkpt lat="47.544" lon="6.65684">
        <ele>536.4</ele>
        <time>2017-01-15T10:32:33.999Z</time>
      </trkpt>
      <trkpt lat="47.54398" lon="6.6568">
        <ele>536</ele>
        <time>2017-01-15T10:32:34.999Z</time>
      </trkpt>
      <trkpt lat="47.54395" lon="6.65673">
        <ele>535.7</ele>
        <time>2017-01-15T10:32:35.999Z</time>
      </trkpt>
      <trkpt lat="47.54391" lon="6.65667">
        <ele>535.4</ele>
        <time>2017-01-15T10:32:36.999Z</time>
      </trkpt>
      <trkpt lat="47.54388" lon="6.65662">
        <ele>535.1</ele>
        <time>2017-01-15T10:32:37.999Z</time>
      </trkpt>
      <trkpt lat="47.54384" lon="6.65658">
        <ele>534.9</ele>
        <time>2017-01-15T10:32:38.999Z</time>
      </trkpt>
      <trkpt lat="47.54383" lon="6.65656">
        <ele>534.7</ele>
        <time>2017-01-15T10:32:39.999Z</time>
      </trkpt>
      <trkpt lat="47.54381" lon="6.65654">
        <ele>534.4</ele>
        <time>2017-01-15T10:32:40.999Z</time>
      </trkpt>
      <trkpt lat="47.54379" lon="6.6565">
        <ele>534.3</ele>
        <time>2017-01-15T10:32:41.999Z</time>
      </trkpt>
      <trkpt lat="47.54376" lon="6.65646">
        <ele>534.1</ele>
        <time>2017-01-15T10:32:42.999Z</time>
      </trkpt>
      <trkpt lat="47.54372" lon="6.65641">
        <ele>534</ele>
        <time>2017-01-15T10:32:43.999Z</time>
      </trkpt>
      <trkpt lat="47.54369" lon="6.65637">
        <ele>534</ele>
        <time>2017-01-15T10:32:44.999Z</time>
      </trkpt>
      <trkpt lat="47.54366" lon="6.65633">
        <ele>534</ele>
        <time>2017-01-15T10:32:45.999Z</time>
      </trkpt>
      <trkpt lat="47.54363" lon="6.65629">
        <ele>534</ele>
        <time>2017-01-15T10:32:46.999Z</time>
      </trkpt>
      <trkpt lat="47.54358" lon="6.65626">
        <ele>534.1</ele>
        <time>2017-01-15T10:32:47.999Z</time>
      </trkpt>
      <trkpt lat="47.54354" lon="6.65623">
        <ele>534</ele>
        <time>2017-01-15T10:32:48.999Z</time>
      </trkpt>
      <trkpt lat="47.5435" lon="6.6562">
        <ele>534</ele>
        <time>2017-01-15T10:32:49.999Z</time>
      </trkpt>
      <trkpt lat="47.54346" lon="6.65616">
        <ele>534</ele>
        <time>2017-01-15T10:32:50.999Z</time>
      </trkpt>
      <trkpt lat="47.54343" lon="6.65613">
        <ele>534.1</ele>
        <time>2017-01-15T10:32:51.999Z</time>
      </trkpt>
      <trkpt lat="47.54339" lon="6.65609">
        <ele>534.4</ele>
        <time>2017-01-15T10:32:52.999Z</time>
      </trkpt>
      <trkpt lat="47.54336" lon="6.65604">
        <ele>534.6</ele>
        <time>2017-01-15T10:32:53.999Z</time>
      </trkpt>
      <trkpt lat="47.54332" lon="6.656">
        <ele>534.8</ele>
        <time>2017-01-15T10:32:54.999Z</time>
      </trkpt>
      <trkpt lat="47.54328" lon="6.65595">
        <ele>534.9</ele>
        <time>2017-01-15T10:32:55.999Z</time>
      </trkpt>
      <trkpt lat="47.54325" lon="6.65591">
        <ele>535</ele>
        <time>2017-01-15T10:32:56.999Z</time>
      </trkpt>
      <trkpt lat="47.54322" lon="6.65587">
        <ele>535.1</ele>
        <time>2017-01-15T10:32:57.999Z</time>
      </trkpt>
      <trkpt lat="47.54318" lon="6.65583">
        <ele>535.1</ele>
        <time>2017-01-15T10:32:58.999Z</time>
      </trkpt>
      <trkpt lat="47.54315" lon="6.6558">
        <ele>535.2</ele>
        <time>2017-01-15T10:32:59.999Z</time>
      </trkpt>
      <trkpt lat="47.54311" lon="6.65578">
        <ele>535.3</ele>
        <time>2017-01-15T10:33:00.999Z</time>
      </trkpt>
      <trkpt lat="47.5431" lon="6.65574">
        <ele>535.3</ele>
        <time>2017-01-15T10:33:01.999Z</time>
      </trkpt>
      <trkpt lat="47.54307" lon="6.65572">
        <ele>535.5</ele>
        <time>2017-01-15T10:33:02.999Z</time>
      </trkpt>
      <trkpt lat="47.54305" lon="6.65569">
        <ele>535.7</ele>
        <time>2017-01-15T10:33:03.999Z</time>
      </trkpt>
      <trkpt lat="47.54303" lon="6.65566">
        <ele>535.8</ele>
        <time>2017-01-15T10:33:04.999Z</time>
      </trkpt>
      <trkpt lat="47.543" lon="6.65563">
        <ele>535.9</ele>
        <time>2017-01-15T10:33:05.999Z</time>
      </trkpt>
      <trkpt lat="47.54297" lon="6.65559">
        <ele>535.9</ele>
        <time>2017-01-15T10:33:06.999Z</time>
      </trkpt>
      <trkpt lat="47.54294" lon="6.65554">
        <ele>535.9</ele>
        <time>2017-01-15T10:33:07.999Z</time>
      </trkpt>
      <trkpt lat="47.54291" lon="6.65551">
        <ele>535.9</ele>
        <time>2017-01-15T10:33:08.999Z</time>
      </trkpt>
      <trkpt lat="47.54288" lon="6.65548">
        <ele>536</ele>
        <time>2017-01-15T10:33:09.999Z</time>
      </trkpt>
      <trkpt lat="47.54286" lon="6.65544">
        <ele>536.1</ele>
        <time>2017-01-15T10:33:10.999Z</time>
      </trkpt>
      <trkpt lat="47.54283" lon="6.65541">
        <ele>536.1</ele>
        <time>2017-01-15T10:33:11.999Z</time>
      </trkpt>
      <trkpt lat="47.54279" lon="6.65538">
        <ele>536.3</ele>
        <time>2017-01-15T10:33:12.999Z</time>
      </trkpt>
      <trkpt lat="47.54276" lon="6.65534">
        <ele>537.6</ele>
        <time>2017-01-15T10:33:18.999Z</time>
      </trkpt>
      <trkpt lat="47.54274" lon="6.65532">
        <ele>537.7</ele>
        <time>2017-01-15T10:33:19.999Z</time>
      </trkpt>
      <trkpt lat="47.54272" lon="6.6553">
        <ele>537.8</ele>
        <time>2017-01-15T10:33:21.999Z</time>
      </trkpt>
      <trkpt lat="47.5427" lon="6.65529">
        <ele>537.8</ele>
        <time>2017-01-15T10:33:22.999Z</time>
      </trkpt>
      <trkpt lat="47.54266" lon="6.65525">
        <ele>538</ele>
        <time>2017-01-15T10:33:25.999Z</time>
      </trkpt>
      <trkpt lat="47.54265" lon="6.65524">
        <ele>538.1</ele>
        <time>2017-01-15T10:33:26.999Z</time>
      </trkpt>
      <trkpt lat="47.54261" lon="6.65524">
        <ele>537.8</ele>
        <time>2017-01-15T10:33:30.999Z</time>
      </trkpt>
      <trkpt lat="47.54259" lon="6.65522">
        <ele>537.6</ele>
        <time>2017-01-15T10:33:31.999Z</time>
      </trkpt>
      <trkpt lat="47.54256" lon="6.6552">
        <ele>537.2</ele>
        <time>2017-01-15T10:33:33.999Z</time>
      </trkpt>
      <trkpt lat="47.54252" lon="6.6552">
        <ele>536.9</ele>
        <time>2017-01-15T10:33:34.999Z</time>
      </trkpt>
      <trkpt lat="47.5425" lon="6.6552">
        <ele>536.7</ele>
        <time>2017-01-15T10:33:35.999Z</time>
      </trkpt>
      <trkpt lat="47.54247" lon="6.65518">
        <ele>536.5</ele>
        <time>2017-01-15T10:33:36.999Z</time>
      </trkpt>
      <trkpt lat="47.54245" lon="6.65515">
        <ele>536.3</ele>
        <time>2017-01-15T10:33:37.999Z</time>
      </trkpt>
      <trkpt lat="47.54243" lon="6.65511">
        <ele>536.2</ele>
        <time>2017-01-15T10:33:38.999Z</time>
      </trkpt>
      <trkpt lat="47.5424" lon="6.65507">
        <ele>536.2</ele>
        <time>2017-01-15T10:33:39.999Z</time>
      </trkpt>
      <trkpt lat="47.54237" lon="6.65501">
        <ele>536</ele>
        <time>2017-01-15T10:33:40.999Z</time>
      </trkpt>
      <trkpt lat="47.54234" lon="6.65495">
        <ele>535.9</ele>
        <time>2017-01-15T10:33:41.999Z</time>
      </trkpt>
      <trkpt lat="47.54231" lon="6.6549">
        <ele>535.9</ele>
        <time>2017-01-15T10:33:42.999Z</time>
      </trkpt>
      <trkpt lat="47.54229" lon="6.65486">
        <ele>535.8</ele>
        <time>2017-01-15T10:33:43.999Z</time>
      </trkpt>
      <trkpt lat="47.54226" lon="6.65482">
        <ele>535.9</ele>
        <time>2017-01-15T10:33:44.999Z</time>
      </trkpt>
      <trkpt lat="47.54223" lon="6.6548">
        <ele>535.9</ele>
        <time>2017-01-15T10:33:45.999Z</time>
      </trkpt>
      <trkpt lat="47.54221" lon="6.65476">
        <ele>535.9</ele>
        <time>2017-01-15T10:33:46.999Z</time>
      </trkpt>
      <trkpt lat="47.54218" lon="6.65475">
        <ele>536</ele>
        <time>2017-01-15T10:33:47.999Z</time>
      </trkpt>
      <trkpt lat="47.54215" lon="6.65473">
        <ele>536</ele>
        <time>2017-01-15T10:33:48.999Z</time>
      </trkpt>
      <trkpt lat="47.54213" lon="6.6547">
        <ele>536</ele>
        <time>2017-01-15T10:33:49.999Z</time>
      </trkpt>
      <trkpt lat="47.54211" lon="6.65469">
        <ele>536.1</ele>
        <time>2017-01-15T10:33:50.999Z</time>
      </trkpt>
      <trkpt lat="47.54208" lon="6.65466">
        <ele>536.2</ele>
        <time>2017-01-15T10:33:51.999Z</time>
      </trkpt>
      <trkpt lat="47.54205" lon="6.65463">
        <ele>536.2</ele>
        <time>2017-01-15T10:33:52.999Z</time>
      </trkpt>
      <trkpt lat="47.54203" lon="6.65461">
        <ele>536.2</ele>
        <time>2017-01-15T10:33:53.999Z</time>
      </trkpt>
      <trkpt lat="47.542" lon="6.65459">
        <ele>536.3</ele>
        <time>2017-01-15T10:33:54.999Z</time>
      </trkpt>
      <trkpt lat="47.54198" lon="6.65457">
        <ele>536.3</ele>
        <time>2017-01-15T10:33:55.999Z</time>
      </trkpt>
      <trkpt lat="47.54196" lon="6.65455">
        <ele>536.3</ele>
        <time>2017-01-15T10:33:56.999Z</time>
      </trkpt>
      <trkpt lat="47.54193" lon="6.65452">
        <ele>536.2</ele>
        <time>2017-01-15T10:33:57.999Z</time>
      </trkpt>
      <trkpt lat="47.54191" lon="6.6545">
        <ele>536.2</ele>
        <time>2017-01-15T10:33:58.999Z</time>
      </trkpt>
      <trkpt lat="47.54188" lon="6.65447">
        <ele>536.2</ele>
        <time>2017-01-15T10:33:59.999Z</time>
      </trkpt>
      <trkpt lat="47.54185" lon="6.65445">
        <ele>536.4</ele>
        <time>2017-01-15T10:34:00.999Z</time>
      </trkpt>
      <trkpt lat="47.54183" lon="6.65442">
        <ele>536.4</ele>
        <time>2017-01-15T10:34:01.999Z</time>
      </trkpt>
      <trkpt lat="47.5418" lon="6.65438">
        <ele>536.4</ele>
        <time>2017-01-15T10:34:03.999Z</time>
      </trkpt>
      <trkpt lat="47.54178" lon="6.65434">
        <ele>536.4</ele>
        <time>2017-01-15T10:34:04.999Z</time>
      </trkpt>
      <trkpt lat="47.54175" lon="6.65431">
        <ele>536.4</ele>
        <time>2017-01-15T10:34:05.999Z</time>
      </trkpt>
      <trkpt lat="47.54173" lon="6.65428">
        <ele>536.4</ele>
        <time>2017-01-15T10:34:06.999Z</time>
      </trkpt>
      <trkpt lat="47.5417" lon="6.65422">
        <ele>536.5</ele>
        <time>2017-01-15T10:34:07.999Z</time>
      </trkpt>
      <trkpt lat="47.54167" lon="6.65418">
        <ele>536.4</ele>
        <time>2017-01-15T10:34:08.999Z</time>
      </trkpt>
      <trkpt lat="47.54163" lon="6.65411">
        <ele>536.4</ele>
        <time>2017-01-15T10:34:09.999Z</time>
      </trkpt>
      <trkpt lat="47.54159" lon="6.65404">
        <ele>536.4</ele>
        <time>2017-01-15T10:34:10.999Z</time>
      </trkpt>
      <trkpt lat="47.54156" lon="6.65399">
        <ele>536.3</ele>
        <time>2017-01-15T10:34:11.999Z</time>
      </trkpt>
      <trkpt lat="47.54154" lon="6.65395">
        <ele>536.3</ele>
        <time>2017-01-15T10:34:12.999Z</time>
      </trkpt>
      <trkpt lat="47.54151" lon="6.65392">
        <ele>536.3</ele>
        <time>2017-01-15T10:34:13.999Z</time>
      </trkpt>
      <trkpt lat="47.54149" lon="6.65389">
        <ele>536.3</ele>
        <time>2017-01-15T10:34:14.999Z</time>
      </trkpt>
      <trkpt lat="47.54146" lon="6.65385">
        <ele>536.2</ele>
        <time>2017-01-15T10:34:15.999Z</time>
      </trkpt>
      <trkpt lat="47.54144" lon="6.65381">
        <ele>536.1</ele>
        <time>2017-01-15T10:34:16.999Z</time>
      </trkpt>
      <trkpt lat="47.54142" lon="6.65379">
        <ele>536</ele>
        <time>2017-01-15T10:34:17.999Z</time>
      </trkpt>
      <trkpt lat="47.5414" lon="6.65376">
        <ele>536</ele>
        <time>2017-01-15T10:34:18.999Z</time>
      </trkpt>
      <trkpt lat="47.54139" lon="6.65373">
        <ele>535.9</ele>
        <time>2017-01-15T10:34:19.999Z</time>
      </trkpt>
      <trkpt lat="47.54138" lon="6.6537">
        <ele>535.8</ele>
        <time>2017-01-15T10:34:20.999Z</time>
      </trkpt>
      <trkpt lat="47.54137" lon="6.65366">
        <ele>535.3</ele>
        <time>2017-01-15T10:34:23.999Z</time>
      </trkpt>
      <trkpt lat="47.54135" lon="6.65365">
        <ele>535.1</ele>
        <time>2017-01-15T10:34:24.999Z</time>
      </trkpt>
      <trkpt lat="47.54133" lon="6.65369">
        <ele>533</ele>
        <time>2017-01-15T10:34:35.999Z</time>
      </trkpt>
      <trkpt lat="47.54132" lon="6.65371">
        <ele>533</ele>
        <time>2017-01-15T10:34:36.999Z</time>
      </trkpt>
      <trkpt lat="47.5413" lon="6.65376">
        <ele>532.8</ele>
        <time>2017-01-15T10:34:39.999Z</time>
      </trkpt>
      <trkpt lat="47.5413" lon="6.65377">
        <ele>532.7</ele>
        <time>2017-01-15T10:34:40.999Z</time>
      </trkpt>
      <trkpt lat="47.54131" lon="6.65371">
        <ele>532.7</ele>
        <time>2017-01-15T10:35:59.999Z</time>
      </trkpt>
      <trkpt lat="47.5413" lon="6.65367">
        <ele>532.4</ele>
        <time>2017-01-15T10:36:00.999Z</time>
      </trkpt>
      <trkpt lat="47.54129" lon="6.65363">
        <ele>531.2</ele>
        <time>2017-01-15T10:36:11.999Z</time>
      </trkpt>
      <trkpt lat="47.54129" lon="6.65359">
        <ele>531.2</ele>
        <time>2017-01-15T10:36:12.999Z</time>
      </trkpt>
      <trkpt lat="47.5413" lon="6.65353">
        <ele>533.1</ele>
        <time>2017-01-15T10:36:28.999Z</time>
      </trkpt>
      <trkpt lat="47.54131" lon="6.6535">
        <ele>533.5</ele>
        <time>2017-01-15T10:36:29.999Z</time>
      </trkpt>
      <trkpt lat="47.5413" lon="6.65346">
        <ele>534.9</ele>
        <time>2017-01-15T10:36:54.999Z</time>
      </trkpt>
      <trkpt lat="47.54128" lon="6.65344">
        <ele>534.9</ele>
        <time>2017-01-15T10:36:55.999Z</time>
      </trkpt>
      <trkpt lat="47.54126" lon="6.6534">
        <ele>535.1</ele>
        <time>2017-01-15T10:36:57.999Z</time>
      </trkpt>
      <trkpt lat="47.54125" lon="6.65337">
        <ele>535.1</ele>
        <time>2017-01-15T10:36:58.999Z</time>
      </trkpt>
      <trkpt lat="47.54122" lon="6.65335">
        <ele>535.1</ele>
        <time>2017-01-15T10:36:59.999Z</time>
      </trkpt>
      <trkpt lat="47.5412" lon="6.65332">
        <ele>535.1</ele>
        <time>2017-01-15T10:37:00.999Z</time>
      </trkpt>
      <trkpt lat="47.54118" lon="6.65328">
        <ele>535.1</ele>
        <time>2017-01-15T10:37:01.999Z</time>
      </trkpt>
      <trkpt lat="47.54115" lon="6.65325">
        <ele>535.1</ele>
        <time>2017-01-15T10:37:02.999Z</time>
      </trkpt>
      <trkpt lat="47.54111" lon="6.65322">
        <ele>535</ele>
        <time>2017-01-15T10:37:03.999Z</time>
      </trkpt>
      <trkpt lat="47.54108" lon="6.6532">
        <ele>535</ele>
        <time>2017-01-15T10:37:04.999Z</time>
      </trkpt>
      <trkpt lat="47.54106" lon="6.65317">
        <ele>534.9</ele>
        <time>2017-01-15T10:37:05.999Z</time>
      </trkpt>
      <trkpt lat="47.54103" lon="6.65313">
        <ele>534.9</ele>
        <time>2017-01-15T10:37:06.999Z</time>
      </trkpt>
      <trkpt lat="47.541" lon="6.6531">
        <ele>534.9</ele>
        <time>2017-01-15T10:37:07.999Z</time>
      </trkpt>
      <trkpt lat="47.54097" lon="6.65306">
        <ele>534.9</ele>
        <time>2017-01-15T10:37:08.999Z</time>
      </trkpt>
      <trkpt lat="47.54094" lon="6.65303">
        <ele>534.8</ele>
        <time>2017-01-15T10:37:09.999Z</time>
      </trkpt>
      <trkpt lat="47.54091" lon="6.65299">
        <ele>534.7</ele>
        <time>2017-01-15T10:37:10.999Z</time>
      </trkpt>
      <trkpt lat="47.54088" lon="6.65295">
        <ele>534.5</ele>
        <time>2017-01-15T10:37:11.999Z</time>
      </trkpt>
      <trkpt lat="47.54085" lon="6.65293">
        <ele>534.4</ele>
        <time>2017-01-15T10:37:12.999Z</time>
      </trkpt>
      <trkpt lat="47.54083" lon="6.65288">
        <ele>534.1</ele>
        <time>2017-01-15T10:37:14.999Z</time>
      </trkpt>
      <trkpt lat="47.54081" lon="6.65285">
        <ele>534</ele>
        <time>2017-01-15T10:37:15.999Z</time>
      </trkpt>
      <trkpt lat="47.54079" lon="6.65283">
        <ele>533.9</ele>
        <time>2017-01-15T10:37:16.999Z</time>
      </trkpt>
      <trkpt lat="47.54077" lon="6.6528">
        <ele>533.8</ele>
        <time>2017-01-15T10:37:17.999Z</time>
      </trkpt>
      <trkpt lat="47.54075" lon="6.65277">
        <ele>533.7</ele>
        <time>2017-01-15T10:37:18.999Z</time>
      </trkpt>
      <trkpt lat="47.54072" lon="6.65275">
        <ele>533.7</ele>
        <time>2017-01-15T10:37:19.999Z</time>
      </trkpt>
      <trkpt lat="47.54069" lon="6.65273">
        <ele>533.6</ele>
        <time>2017-01-15T10:37:20.999Z</time>
      </trkpt>
      <trkpt lat="47.54067" lon="6.65269">
        <ele>533.5</ele>
        <time>2017-01-15T10:37:21.999Z</time>
      </trkpt>
      <trkpt lat="47.54065" lon="6.65266">
        <ele>533.4</ele>
        <time>2017-01-15T10:37:22.999Z</time>
      </trkpt>
      <trkpt lat="47.54062" lon="6.65263">
        <ele>533.3</ele>
        <time>2017-01-15T10:37:23.999Z</time>
      </trkpt>
      <trkpt lat="47.54059" lon="6.6526">
        <ele>533.1</ele>
        <time>2017-01-15T10:37:24.999Z</time>
      </trkpt>
      <trkpt lat="47.54056" lon="6.65257">
        <ele>532.9</ele>
        <time>2017-01-15T10:37:25.999Z</time>
      </trkpt>
      <trkpt lat="47.54053" lon="6.65254">
        <ele>532.7</ele>
        <time>2017-01-15T10:37:26.999Z</time>
      </trkpt>
      <trkpt lat="47.54051" lon="6.6525">
        <ele>532.4</ele>
        <time>2017-01-15T10:37:27.999Z</time>
      </trkpt>
      <trkpt lat="47.54049" lon="6.65246">
        <ele>532.2</ele>
        <time>2017-01-15T10:37:28.999Z</time>
      </trkpt>
      <trkpt lat="47.54046" lon="6.65243">
        <ele>531.9</ele>
        <time>2017-01-15T10:37:29.999Z</time>
      </trkpt>
      <trkpt lat="47.54043" lon="6.65241">
        <ele>531.7</ele>
        <time>2017-01-15T10:37:30.999Z</time>
      </trkpt>
      <trkpt lat="47.5404" lon="6.65237">
        <ele>531.5</ele>
        <time>2017-01-15T10:37:31.999Z</time>
      </trkpt>
      <trkpt lat="47.54038" lon="6.65233">
        <ele>531.3</ele>
        <time>2017-01-15T10:37:32.999Z</time>
      </trkpt>
      <trkpt lat="47.54035" lon="6.65228">
        <ele>531.1</ele>
        <time>2017-01-15T10:37:33.999Z</time>
      </trkpt>
      <trkpt lat="47.54033" lon="6.65224">
        <ele>531</ele>
        <time>2017-01-15T10:37:34.999Z</time>
      </trkpt>
      <trkpt lat="47.5403" lon="6.65221">
        <ele>530.8</ele>
        <time>2017-01-15T10:37:35.999Z</time>
      </trkpt>
      <trkpt lat="47.54027" lon="6.65217">
        <ele>530.6</ele>
        <time>2017-01-15T10:37:36.999Z</time>
      </trkpt>
      <trkpt lat="47.54024" lon="6.65211">
        <ele>528.9</ele>
        <time>2017-01-15T10:37:37.999Z</time>
      </trkpt>
      <trkpt lat="47.54022" lon="6.65207">
        <ele>528.7</ele>
        <time>2017-01-15T10:37:38.999Z</time>
      </trkpt>
      <trkpt lat="47.5402" lon="6.65203">
        <ele>528.6</ele>
        <time>2017-01-15T10:37:39.999Z</time>
      </trkpt>
      <trkpt lat="47.54017" lon="6.65199">
        <ele>528.3</ele>
        <time>2017-01-15T10:37:40.999Z</time>
      </trkpt>
      <trkpt lat="47.54015" lon="6.65195">
        <ele>528.2</ele>
        <time>2017-01-15T10:37:41.999Z</time>
      </trkpt>
      <trkpt lat="47.54012" lon="6.65192">
        <ele>528</ele>
        <time>2017-01-15T10:37:42.999Z</time>
      </trkpt>
      <trkpt lat="47.5401" lon="6.65189">
        <ele>527.9</ele>
        <time>2017-01-15T10:37:43.999Z</time>
      </trkpt>
      <trkpt lat="47.54007" lon="6.65185">
        <ele>527.7</ele>
        <time>2017-01-15T10:37:44.999Z</time>
      </trkpt>
      <trkpt lat="47.54005" lon="6.6518">
        <ele>527.6</ele>
        <time>2017-01-15T10:37:45.999Z</time>
      </trkpt>
      <trkpt lat="47.54002" lon="6.65177">
        <ele>527.4</ele>
        <time>2017-01-15T10:37:46.999Z</time>
      </trkpt>
      <trkpt lat="47.54" lon="6.65173">
        <ele>527.2</ele>
        <time>2017-01-15T10:37:47.999Z</time>
      </trkpt>
      <trkpt lat="47.53998" lon="6.65169">
        <ele>526.9</ele>
        <time>2017-01-15T10:37:48.999Z</time>
      </trkpt>
      <trkpt lat="47.53994" lon="6.65166">
        <ele>526.6</ele>
        <time>2017-01-15T10:37:49.999Z</time>
      </trkpt>
      <trkpt lat="47.53992" lon="6.65163">
        <ele>526.4</ele>
        <time>2017-01-15T10:37:50.999Z</time>
      </trkpt>
      <trkpt lat="47.53989" lon="6.65161">
        <ele>526.2</ele>
        <time>2017-01-15T10:37:51.999Z</time>
      </trkpt>
      <trkpt lat="47.53987" lon="6.65158">
        <ele>526</ele>
        <time>2017-01-15T10:37:52.999Z</time>
      </trkpt>
      <trkpt lat="47.53985" lon="6.65154">
        <ele>525.7</ele>
        <time>2017-01-15T10:37:53.999Z</time>
      </trkpt>
      <trkpt lat="47.53983" lon="6.65151">
        <ele>525.5</ele>
        <time>2017-01-15T10:37:54.999Z</time>
      </trkpt>
      <trkpt lat="47.53982" lon="6.65146">
        <ele>525.2</ele>
        <time>2017-01-15T10:37:55.999Z</time>
      </trkpt>
      <trkpt lat="47.5398" lon="6.65142">
        <ele>524.9</ele>
        <time>2017-01-15T10:37:56.999Z</time>
      </trkpt>
      <trkpt lat="47.53979" lon="6.65138">
        <ele>524.8</ele>
        <time>2017-01-15T10:37:57.999Z</time>
      </trkpt>
      <trkpt lat="47.53977" lon="6.65135">
        <ele>524.6</ele>
        <time>2017-01-15T10:37:58.999Z</time>
      </trkpt>
      <trkpt lat="47.53975" lon="6.65132">
        <ele>524.4</ele>
        <time>2017-01-15T10:37:59.999Z</time>
      </trkpt>
      <trkpt lat="47.53973" lon="6.65129">
        <ele>524.3</ele>
        <time>2017-01-15T10:38:00.999Z</time>
      </trkpt>
      <trkpt lat="47.53972" lon="6.65127">
        <ele>524</ele>
        <time>2017-01-15T10:38:01.999Z</time>
      </trkpt>
      <trkpt lat="47.53969" lon="6.65122">
        <ele>523.5</ele>
        <time>2017-01-15T10:38:03.999Z</time>
      </trkpt>
      <trkpt lat="47.53967" lon="6.65119">
        <ele>523.3</ele>
        <time>2017-01-15T10:38:04.999Z</time>
      </trkpt>
      <trkpt lat="47.53965" lon="6.65115">
        <ele>523</ele>
        <time>2017-01-15T10:38:06.999Z</time>
      </trkpt>
      <trkpt lat="47.53963" lon="6.65112">
        <ele>522.8</ele>
        <time>2017-01-15T10:38:07.999Z</time>
      </trkpt>
      <trkpt lat="47.53959" lon="6.65111">
        <ele>522.1</ele>
        <time>2017-01-15T10:38:11.999Z</time>
      </trkpt>
      <trkpt lat="47.53957" lon="6.65108">
        <ele>522</ele>
        <time>2017-01-15T10:38:12.999Z</time>
      </trkpt>
      <trkpt lat="47.53953" lon="6.65106">
        <ele>521.5</ele>
        <time>2017-01-15T10:38:17.999Z</time>
      </trkpt>
      <trkpt lat="47.53952" lon="6.65106">
        <ele>521.4</ele>
        <time>2017-01-15T10:38:18.999Z</time>
      </trkpt>
      <trkpt lat="47.5395" lon="6.651">
        <ele>521.1</ele>
        <time>2017-01-15T10:38:22.999Z</time>
      </trkpt>
      <trkpt lat="47.53949" lon="6.65099">
        <ele>520.9</ele>
        <time>2017-01-15T10:38:23.999Z</time>
      </trkpt>
      <trkpt lat="47.53946" lon="6.65095">
        <ele>520.2</ele>
        <time>2017-01-15T10:38:27.999Z</time>
      </trkpt>
      <trkpt lat="47.53945" lon="6.65094">
        <ele>520</ele>
        <time>2017-01-15T10:38:28.999Z</time>
      </trkpt>
      <trkpt lat="47.53942" lon="6.65091">
        <ele>519.7</ele>
        <time>2017-01-15T10:38:30.999Z</time>
      </trkpt>
      <trkpt lat="47.5394" lon="6.6509">
        <ele>519.5</ele>
        <time>2017-01-15T10:38:31.999Z</time>
      </trkpt>
      <trkpt lat="47.53937" lon="6.65087">
        <ele>519.2</ele>
        <time>2017-01-15T10:38:34.999Z</time>
      </trkpt>
      <trkpt lat="47.53936" lon="6.65086">
        <ele>519</ele>
        <time>2017-01-15T10:38:35.999Z</time>
      </trkpt>
      <trkpt lat="47.53932" lon="6.65085">
        <ele>518.5</ele>
        <time>2017-01-15T10:38:38.999Z</time>
      </trkpt>
      <trkpt lat="47.53931" lon="6.65085">
        <ele>518.4</ele>
        <time>2017-01-15T10:38:39.999Z</time>
      </trkpt>
      <trkpt lat="47.53927" lon="6.65083">
        <ele>517.8</ele>
        <time>2017-01-15T10:38:44.999Z</time>
      </trkpt>
      <trkpt lat="47.53925" lon="6.65082">
        <ele>517.6</ele>
        <time>2017-01-15T10:38:45.999Z</time>
      </trkpt>
      <trkpt lat="47.53922" lon="6.6508">
        <ele>517.4</ele>
        <time>2017-01-15T10:38:47.999Z</time>
      </trkpt>
      <trkpt lat="47.5392" lon="6.65079">
        <ele>517.4</ele>
        <time>2017-01-15T10:38:48.999Z</time>
      </trkpt>
      <trkpt lat="47.53918" lon="6.65077">
        <ele>517.2</ele>
        <time>2017-01-15T10:38:49.999Z</time>
      </trkpt>
      <trkpt lat="47.53915" lon="6.65075">
        <ele>517.1</ele>
        <time>2017-01-15T10:38:50.999Z</time>
      </trkpt>
      <trkpt lat="47.53913" lon="6.65074">
        <ele>517</ele>
        <time>2017-01-15T10:38:51.999Z</time>
      </trkpt>
      <trkpt lat="47.53911" lon="6.65072">
        <ele>516.8</ele>
        <time>2017-01-15T10:38:52.999Z</time>
      </trkpt>
      <trkpt lat="47.53907" lon="6.65071">
        <ele>516.1</ele>
        <time>2017-01-15T10:38:55.999Z</time>
      </trkpt>
      <trkpt lat="47.53905" lon="6.6507">
        <ele>516</ele>
        <time>2017-01-15T10:38:56.999Z</time>
      </trkpt>
      <trkpt lat="47.53902" lon="6.65068">
        <ele>515.9</ele>
        <time>2017-01-15T10:38:57.999Z</time>
      </trkpt>
      <trkpt lat="47.539" lon="6.65067">
        <ele>515.7</ele>
        <time>2017-01-15T10:38:58.999Z</time>
      </trkpt>
      <trkpt lat="47.53897" lon="6.65064">
        <ele>515.4</ele>
        <time>2017-01-15T10:39:02.999Z</time>
      </trkpt>
      <trkpt lat="47.53896" lon="6.65063">
        <ele>515.4</ele>
        <time>2017-01-15T10:39:03.999Z</time>
      </trkpt>
      <trkpt lat="47.53894" lon="6.65059">
        <ele>515.3</ele>
        <time>2017-01-15T10:39:04.999Z</time>
      </trkpt>
      <trkpt lat="47.5389" lon="6.65056">
        <ele>515.2</ele>
        <time>2017-01-15T10:39:05.999Z</time>
      </trkpt>
      <trkpt lat="47.53886" lon="6.65055">
        <ele>515.1</ele>
        <time>2017-01-15T10:39:06.999Z</time>
      </trkpt>
      <trkpt lat="47.53884" lon="6.65054">
        <ele>514.9</ele>
        <time>2017-01-15T10:39:07.999Z</time>
      </trkpt>
      <trkpt lat="47.53881" lon="6.65052">
        <ele>514.7</ele>
        <time>2017-01-15T10:39:08.999Z</time>
      </trkpt>
      <trkpt lat="47.53878" lon="6.65049">
        <ele>514.4</ele>
        <time>2017-01-15T10:39:09.999Z</time>
      </trkpt>
      <trkpt lat="47.53873" lon="6.65047">
        <ele>514.1</ele>
        <time>2017-01-15T10:39:10.999Z</time>
      </trkpt>
      <trkpt lat="47.53869" lon="6.65043">
        <ele>513.8</ele>
        <time>2017-01-15T10:39:11.999Z</time>
      </trkpt>
      <trkpt lat="47.53864" lon="6.65039">
        <ele>513.5</ele>
        <time>2017-01-15T10:39:12.999Z</time>
      </trkpt>
      <trkpt lat="47.53859" lon="6.65034">
        <ele>513.2</ele>
        <time>2017-01-15T10:39:13.999Z</time>
      </trkpt>
      <trkpt lat="47.53855" lon="6.65033">
        <ele>512.4</ele>
        <time>2017-01-15T10:39:16.999Z</time>
      </trkpt>
      <trkpt lat="47.53852" lon="6.65032">
        <ele>512.3</ele>
        <time>2017-01-15T10:39:17.999Z</time>
      </trkpt>
      <trkpt lat="47.53849" lon="6.65028">
        <ele>511.8</ele>
        <time>2017-01-15T10:39:19.999Z</time>
      </trkpt>
      <trkpt lat="47.53846" lon="6.65026">
        <ele>511.6</ele>
        <time>2017-01-15T10:39:20.999Z</time>
      </trkpt>
      <trkpt lat="47.53843" lon="6.65023">
        <ele>511.4</ele>
        <time>2017-01-15T10:39:21.999Z</time>
      </trkpt>
      <trkpt lat="47.53842" lon="6.65021">
        <ele>511.2</ele>
        <time>2017-01-15T10:39:22.999Z</time>
      </trkpt>
      <trkpt lat="47.53839" lon="6.65019">
        <ele>511.1</ele>
        <time>2017-01-15T10:39:23.999Z</time>
      </trkpt>
      <trkpt lat="47.53835" lon="6.65016">
        <ele>510.9</ele>
        <time>2017-01-15T10:39:24.999Z</time>
      </trkpt>
      <trkpt lat="47.53832" lon="6.65011">
        <ele>510.9</ele>
        <time>2017-01-15T10:39:25.999Z</time>
      </trkpt>
      <trkpt lat="47.53829" lon="6.65007">
        <ele>510.8</ele>
        <time>2017-01-15T10:39:26.999Z</time>
      </trkpt>
      <trkpt lat="47.53826" lon="6.65003">
        <ele>510.8</ele>
        <time>2017-01-15T10:39:27.999Z</time>
      </trkpt>
      <trkpt lat="47.53823" lon="6.64999">
        <ele>510.7</ele>
        <time>2017-01-15T10:39:28.999Z</time>
      </trkpt>
      <trkpt lat="47.53819" lon="6.64995">
        <ele>510.6</ele>
        <time>2017-01-15T10:39:29.999Z</time>
      </trkpt>
      <trkpt lat="47.53816" lon="6.64992">
        <ele>510.5</ele>
        <time>2017-01-15T10:39:30.999Z</time>
      </trkpt>
      <trkpt lat="47.53812" lon="6.64989">
        <ele>510.6</ele>
        <time>2017-01-15T10:39:51.999Z</time>
      </trkpt>
      <trkpt lat="47.5381" lon="6.64987">
        <ele>510.7</ele>
        <time>2017-01-15T10:39:52.999Z</time>
      </trkpt>
      <trkpt lat="47.53809" lon="6.64987">
        <ele>510.8</ele>
        <time>2017-01-15T10:39:54.999Z</time>
      </trkpt>
      <trkpt lat="47.53806" lon="6.64985">
        <ele>511</ele>
        <time>2017-01-15T10:39:55.999Z</time>
      </trkpt>
      <trkpt lat="47.53803" lon="6.64985">
        <ele>511.7</ele>
        <time>2017-01-15T10:39:58.999Z</time>
      </trkpt>
      <trkpt lat="47.53801" lon="6.64987">
        <ele>511.9</ele>
        <time>2017-01-15T10:39:59.999Z</time>
      </trkpt>
      <trkpt lat="47.53798" lon="6.64991">
        <ele>512.3</ele>
        <time>2017-01-15T10:40:02.999Z</time>
      </trkpt>
      <trkpt lat="47.53797" lon="6.64992">
        <ele>512.3</ele>
        <time>2017-01-15T10:40:03.999Z</time>
      </trkpt>
      <trkpt lat="47.53794" lon="6.64994">
        <ele>512.5</ele>
        <time>2017-01-15T10:40:06.999Z</time>
      </trkpt>
      <trkpt lat="47.53792" lon="6.64995">
        <ele>512.6</ele>
        <time>2017-01-15T10:40:07.999Z</time>
      </trkpt>
      <trkpt lat="47.53788" lon="6.64992">
        <ele>512.5</ele>
        <time>2017-01-15T10:40:10.999Z</time>
      </trkpt>
      <trkpt lat="47.53787" lon="6.6499">
        <ele>512.5</ele>
        <time>2017-01-15T10:40:11.999Z</time>
      </trkpt>
      <trkpt lat="47.53786" lon="6.64987">
        <ele>512.5</ele>
        <time>2017-01-15T10:40:12.999Z</time>
      </trkpt>
      <trkpt lat="47.53784" lon="6.64984">
        <ele>512.5</ele>
        <time>2017-01-15T10:40:13.999Z</time>
      </trkpt>
      <trkpt lat="47.53782" lon="6.64983">
        <ele>512.5</ele>
        <time>2017-01-15T10:40:14.999Z</time>
      </trkpt>
      <trkpt lat="47.53779" lon="6.64982">
        <ele>512.3</ele>
        <time>2017-01-15T10:40:15.999Z</time>
      </trkpt>
      <trkpt lat="47.53776" lon="6.64981">
        <ele>512.2</ele>
        <time>2017-01-15T10:40:16.999Z</time>
      </trkpt>
      <trkpt lat="47.53773" lon="6.64978">
        <ele>512.2</ele>
        <time>2017-01-15T10:40:17.999Z</time>
      </trkpt>
      <trkpt lat="47.53771" lon="6.64975">
        <ele>512.2</ele>
        <time>2017-01-15T10:40:18.999Z</time>
      </trkpt>
      <trkpt lat="47.53768" lon="6.64974">
        <ele>512.1</ele>
        <time>2017-01-15T10:40:19.999Z</time>
      </trkpt>
      <trkpt lat="47.53765" lon="6.64972">
        <ele>512.2</ele>
        <time>2017-01-15T10:40:20.999Z</time>
      </trkpt>
      <trkpt lat="47.53762" lon="6.6497">
        <ele>512.1</ele>
        <time>2017-01-15T10:40:21.999Z</time>
      </trkpt>
      <trkpt lat="47.5376" lon="6.64969">
        <ele>512.1</ele>
        <time>2017-01-15T10:40:22.999Z</time>
      </trkpt>
      <trkpt lat="47.53758" lon="6.64968">
        <ele>512.1</ele>
        <time>2017-01-15T10:40:23.999Z</time>
      </trkpt>
      <trkpt lat="47.53754" lon="6.64965">
        <ele>512.1</ele>
        <time>2017-01-15T10:40:24.999Z</time>
      </trkpt>
      <trkpt lat="47.53751" lon="6.64965">
        <ele>512.1</ele>
        <time>2017-01-15T10:40:25.999Z</time>
      </trkpt>
      <trkpt lat="47.53749" lon="6.64964">
        <ele>512.1</ele>
        <time>2017-01-15T10:40:26.999Z</time>
      </trkpt>
      <trkpt lat="47.53747" lon="6.64962">
        <ele>512.1</ele>
        <time>2017-01-15T10:40:27.999Z</time>
      </trkpt>
      <trkpt lat="47.53744" lon="6.64962">
        <ele>512.1</ele>
        <time>2017-01-15T10:40:28.999Z</time>
      </trkpt>
      <trkpt lat="47.53742" lon="6.64961">
        <ele>512.1</ele>
        <time>2017-01-15T10:40:29.999Z</time>
      </trkpt>
      <trkpt lat="47.5374" lon="6.6496">
        <ele>512.1</ele>
        <time>2017-01-15T10:40:30.999Z</time>
      </trkpt>
      <trkpt lat="47.53737" lon="6.6496">
        <ele>512.1</ele>
        <time>2017-01-15T10:40:31.999Z</time>
      </trkpt>
      <trkpt lat="47.53734" lon="6.64959">
        <ele>512.1</ele>
        <time>2017-01-15T10:40:32.999Z</time>
      </trkpt>
      <trkpt lat="47.5373" lon="6.64958">
        <ele>512</ele>
        <time>2017-01-15T10:40:33.999Z</time>
      </trkpt>
      <trkpt lat="47.53728" lon="6.64958">
        <ele>511.9</ele>
        <time>2017-01-15T10:40:34.999Z</time>
      </trkpt>
      <trkpt lat="47.53725" lon="6.64957">
        <ele>511.6</ele>
        <time>2017-01-15T10:40:35.999Z</time>
      </trkpt>
      <trkpt lat="47.53722" lon="6.64957">
        <ele>511.5</ele>
        <time>2017-01-15T10:40:36.999Z</time>
      </trkpt>
      <trkpt lat="47.53719" lon="6.64956">
        <ele>511.4</ele>
        <time>2017-01-15T10:40:37.999Z</time>
      </trkpt>
      <trkpt lat="47.53715" lon="6.64957">
        <ele>511</ele>
        <time>2017-01-15T10:40:39.999Z</time>
      </trkpt>
      <trkpt lat="47.53713" lon="6.64957">
        <ele>510.8</ele>
        <time>2017-01-15T10:40:40.999Z</time>
      </trkpt>
      <trkpt lat="47.5371" lon="6.64957">
        <ele>510.7</ele>
        <time>2017-01-15T10:40:41.999Z</time>
      </trkpt>
      <trkpt lat="47.53708" lon="6.64957">
        <ele>510.5</ele>
        <time>2017-01-15T10:40:42.999Z</time>
      </trkpt>
      <trkpt lat="47.53704" lon="6.64961">
        <ele>510.2</ele>
        <time>2017-01-15T10:40:44.999Z</time>
      </trkpt>
      <trkpt lat="47.53703" lon="6.64961">
        <ele>510.2</ele>
        <time>2017-01-15T10:40:45.999Z</time>
      </trkpt>
      <trkpt lat="47.53699" lon="6.64964">
        <ele>510.3</ele>
        <time>2017-01-15T10:40:56.999Z</time>
      </trkpt>
      <trkpt lat="47.53699" lon="6.64965">
        <ele>510.3</ele>
        <time>2017-01-15T10:40:57.999Z</time>
      </trkpt>
      <trkpt lat="47.53696" lon="6.6497">
        <ele>509.9</ele>
        <time>2017-01-15T10:41:03.999Z</time>
      </trkpt>
      <trkpt lat="47.53696" lon="6.64972">
        <ele>509.9</ele>
        <time>2017-01-15T10:41:04.999Z</time>
      </trkpt>
      <trkpt lat="47.53693" lon="6.64976">
        <ele>509.5</ele>
        <time>2017-01-15T10:41:08.999Z</time>
      </trkpt>
      <trkpt lat="47.53692" lon="6.64976">
        <ele>509.4</ele>
        <time>2017-01-15T10:41:09.999Z</time>
      </trkpt>
      <trkpt lat="47.53689" lon="6.64977">
        <ele>508.9</ele>
        <time>2017-01-15T10:41:15.999Z</time>
      </trkpt>
      <trkpt lat="47.53688" lon="6.64979">
        <ele>508.8</ele>
        <time>2017-01-15T10:41:16.999Z</time>
      </trkpt>
      <trkpt lat="47.53686" lon="6.64983">
        <ele>508.7</ele>
        <time>2017-01-15T10:41:18.999Z</time>
      </trkpt>
      <trkpt lat="47.53686" lon="6.64985">
        <ele>508.6</ele>
        <time>2017-01-15T10:41:19.999Z</time>
      </trkpt>
      <trkpt lat="47.53684" lon="6.64991">
        <ele>508.6</ele>
        <time>2017-01-15T10:41:21.999Z</time>
      </trkpt>
      <trkpt lat="47.53683" lon="6.64994">
        <ele>508.6</ele>
        <time>2017-01-15T10:41:22.999Z</time>
      </trkpt>
      <trkpt lat="47.53681" lon="6.64999">
        <ele>508.5</ele>
        <time>2017-01-15T10:41:24.999Z</time>
      </trkpt>
      <trkpt lat="47.53679" lon="6.65001">
        <ele>508.5</ele>
        <time>2017-01-15T10:41:25.999Z</time>
      </trkpt>
      <trkpt lat="47.53675" lon="6.65004">
        <ele>508.3</ele>
        <time>2017-01-15T10:41:27.999Z</time>
      </trkpt>
      <trkpt lat="47.53674" lon="6.65006">
        <ele>508.3</ele>
        <time>2017-01-15T10:41:28.999Z</time>
      </trkpt>
      <trkpt lat="47.53671" lon="6.65008">
        <ele>508.1</ele>
        <time>2017-01-15T10:41:30.999Z</time>
      </trkpt>
      <trkpt lat="47.53669" lon="6.6501">
        <ele>508.1</ele>
        <time>2017-01-15T10:41:31.999Z</time>
      </trkpt>
      <trkpt lat="47.53666" lon="6.65012">
        <ele>508.1</ele>
        <time>2017-01-15T10:41:33.999Z</time>
      </trkpt>
      <trkpt lat="47.53665" lon="6.65013">
        <ele>508.1</ele>
        <time>2017-01-15T10:41:34.999Z</time>
      </trkpt>
      <trkpt lat="47.53662" lon="6.65015">
        <ele>507.8</ele>
        <time>2017-01-15T10:41:36.999Z</time>
      </trkpt>
      <trkpt lat="47.5366" lon="6.65016">
        <ele>507.7</ele>
        <time>2017-01-15T10:41:37.999Z</time>
      </trkpt>
      <trkpt lat="47.53658" lon="6.65019">
        <ele>507.5</ele>
        <time>2017-01-15T10:41:39.999Z</time>
      </trkpt>
      <trkpt lat="47.53657" lon="6.65021">
        <ele>507.5</ele>
        <time>2017-01-15T10:41:40.999Z</time>
      </trkpt>
      <trkpt lat="47.53655" lon="6.65024">
        <ele>507.4</ele>
        <time>2017-01-15T10:41:42.999Z</time>
      </trkpt>
      <trkpt lat="47.53653" lon="6.65026">
        <ele>507.5</ele>
        <time>2017-01-15T10:41:43.999Z</time>
      </trkpt>
      <trkpt lat="47.53649" lon="6.65029">
        <ele>507.4</ele>
        <time>2017-01-15T10:41:46.999Z</time>
      </trkpt>
      <trkpt lat="47.53647" lon="6.6503">
        <ele>507.3</ele>
        <time>2017-01-15T10:41:47.999Z</time>
      </trkpt>
      <trkpt lat="47.53643" lon="6.65033">
        <ele>507.3</ele>
        <time>2017-01-15T10:41:49.999Z</time>
      </trkpt>
      <trkpt lat="47.53641" lon="6.65034">
        <ele>507.2</ele>
        <time>2017-01-15T10:41:50.999Z</time>
      </trkpt>
      <trkpt lat="47.53638" lon="6.65036">
        <ele>507.1</ele>
        <time>2017-01-15T10:41:51.999Z</time>
      </trkpt>
      <trkpt lat="47.53636" lon="6.65037">
        <ele>507.1</ele>
        <time>2017-01-15T10:41:52.999Z</time>
      </trkpt>
      <trkpt lat="47.53632" lon="6.6504">
        <ele>507</ele>
        <time>2017-01-15T10:41:54.999Z</time>
      </trkpt>
      <trkpt lat="47.53631" lon="6.65041">
        <ele>507</ele>
        <time>2017-01-15T10:41:55.999Z</time>
      </trkpt>
      <trkpt lat="47.53627" lon="6.65044">
        <ele>506.9</ele>
        <time>2017-01-15T10:41:57.999Z</time>
      </trkpt>
      <trkpt lat="47.53625" lon="6.65046">
        <ele>506.9</ele>
        <time>2017-01-15T10:41:58.999Z</time>
      </trkpt>
      <trkpt lat="47.53622" lon="6.65049">
        <ele>506.9</ele>
        <time>2017-01-15T10:42:00.999Z</time>
      </trkpt>
      <trkpt lat="47.5362" lon="6.6505">
        <ele>506.9</ele>
        <time>2017-01-15T10:42:01.999Z</time>
      </trkpt>
      <trkpt lat="47.53618" lon="6.65052">
        <ele>506.8</ele>
        <time>2017-01-15T10:42:02.999Z</time>
      </trkpt>
      <trkpt lat="47.53615" lon="6.65053">
        <ele>506.8</ele>
        <time>2017-01-15T10:42:03.999Z</time>
      </trkpt>
      <trkpt lat="47.53611" lon="6.65055">
        <ele>506.7</ele>
        <time>2017-01-15T10:42:05.999Z</time>
      </trkpt>
      <trkpt lat="47.53609" lon="6.65056">
        <ele>506.7</ele>
        <time>2017-01-15T10:42:06.999Z</time>
      </trkpt>
      <trkpt lat="47.53607" lon="6.65057">
        <ele>506.7</ele>
        <time>2017-01-15T10:42:07.999Z</time>
      </trkpt>
      <trkpt lat="47.53604" lon="6.65058">
        <ele>506.7</ele>
        <time>2017-01-15T10:42:08.999Z</time>
      </trkpt>
      <trkpt lat="47.53601" lon="6.6506">
        <ele>506.7</ele>
        <time>2017-01-15T10:42:09.999Z</time>
      </trkpt>
      <trkpt lat="47.53599" lon="6.65062">
        <ele>506.6</ele>
        <time>2017-01-15T10:42:10.999Z</time>
      </trkpt>
      <trkpt lat="47.53597" lon="6.65064">
        <ele>506.6</ele>
        <time>2017-01-15T10:42:11.999Z</time>
      </trkpt>
      <trkpt lat="47.53595" lon="6.65067">
        <ele>506.6</ele>
        <time>2017-01-15T10:42:12.999Z</time>
      </trkpt>
      <trkpt lat="47.53593" lon="6.65071">
        <ele>506.5</ele>
        <time>2017-01-15T10:42:14.999Z</time>
      </trkpt>
      <trkpt lat="47.53591" lon="6.65073">
        <ele>506.4</ele>
        <time>2017-01-15T10:42:15.999Z</time>
      </trkpt>
      <trkpt lat="47.5359" lon="6.65076">
        <ele>506.3</ele>
        <time>2017-01-15T10:42:16.999Z</time>
      </trkpt>
      <trkpt lat="47.53588" lon="6.65079">
        <ele>506.2</ele>
        <time>2017-01-15T10:42:17.999Z</time>
      </trkpt>
      <trkpt lat="47.53586" lon="6.65082">
        <ele>506.1</ele>
        <time>2017-01-15T10:42:18.999Z</time>
      </trkpt>
      <trkpt lat="47.53583" lon="6.65084">
        <ele>506</ele>
        <time>2017-01-15T10:42:19.999Z</time>
      </trkpt>
      <trkpt lat="47.53581" lon="6.65088">
        <ele>505.9</ele>
        <time>2017-01-15T10:42:20.999Z</time>
      </trkpt>
      <trkpt lat="47.53578" lon="6.65089">
        <ele>505.8</ele>
        <time>2017-01-15T10:42:21.999Z</time>
      </trkpt>
      <trkpt lat="47.53575" lon="6.6509">
        <ele>505.6</ele>
        <time>2017-01-15T10:42:22.999Z</time>
      </trkpt>
      <trkpt lat="47.53573" lon="6.6509">
        <ele>505.4</ele>
        <time>2017-01-15T10:42:23.999Z</time>
      </trkpt>
      <trkpt lat="47.53569" lon="6.65092">
        <ele>505.1</ele>
        <time>2017-01-15T10:42:25.999Z</time>
      </trkpt>
      <trkpt lat="47.53568" lon="6.65093">
        <ele>505.1</ele>
        <time>2017-01-15T10:42:26.999Z</time>
      </trkpt>
      <trkpt lat="47.53565" lon="6.65094">
        <ele>505</ele>
        <time>2017-01-15T10:42:28.999Z</time>
      </trkpt>
      <trkpt lat="47.53563" lon="6.65095">
        <ele>504.9</ele>
        <time>2017-01-15T10:42:29.999Z</time>
      </trkpt>
      <trkpt lat="47.53559" lon="6.65096">
        <ele>504.7</ele>
        <time>2017-01-15T10:42:31.999Z</time>
      </trkpt>
      <trkpt lat="47.53557" lon="6.65098">
        <ele>504.6</ele>
        <time>2017-01-15T10:42:32.999Z</time>
      </trkpt>
      <trkpt lat="47.53554" lon="6.65099">
        <ele>504.4</ele>
        <time>2017-01-15T10:42:33.999Z</time>
      </trkpt>
      <trkpt lat="47.53551" lon="6.651">
        <ele>504.4</ele>
        <time>2017-01-15T10:42:34.999Z</time>
      </trkpt>
      <trkpt lat="47.53547" lon="6.65102">
        <ele>504.2</ele>
        <time>2017-01-15T10:42:35.999Z</time>
      </trkpt>
      <trkpt lat="47.53542" lon="6.65105">
        <ele>504</ele>
        <time>2017-01-15T10:42:36.999Z</time>
      </trkpt>
      <trkpt lat="47.53538" lon="6.65107">
        <ele>503.9</ele>
        <time>2017-01-15T10:42:37.999Z</time>
      </trkpt>
      <trkpt lat="47.53534" lon="6.65108">
        <ele>503.9</ele>
        <time>2017-01-15T10:42:38.999Z</time>
      </trkpt>
      <trkpt lat="47.5353" lon="6.65111">
        <ele>503.8</ele>
        <time>2017-01-15T10:42:39.999Z</time>
      </trkpt>
      <trkpt lat="47.53528" lon="6.65114">
        <ele>503.7</ele>
        <time>2017-01-15T10:42:40.999Z</time>
      </trkpt>
      <trkpt lat="47.53526" lon="6.65115">
        <ele>503.7</ele>
        <time>2017-01-15T10:42:41.999Z</time>
      </trkpt>
      <trkpt lat="47.53523" lon="6.65117">
        <ele>503.7</ele>
        <time>2017-01-15T10:42:42.999Z</time>
      </trkpt>
      <trkpt lat="47.5352" lon="6.65121">
        <ele>503.7</ele>
        <time>2017-01-15T10:42:43.999Z</time>
      </trkpt>
      <trkpt lat="47.53518" lon="6.65123">
        <ele>503.7</ele>
        <time>2017-01-15T10:42:44.999Z</time>
      </trkpt>
      <trkpt lat="47.53515" lon="6.65127">
        <ele>503.8</ele>
        <time>2017-01-15T10:42:45.999Z</time>
      </trkpt>
      <trkpt lat="47.53512" lon="6.65132">
        <ele>503.8</ele>
        <time>2017-01-15T10:42:47.999Z</time>
      </trkpt>
      <trkpt lat="47.53511" lon="6.65134">
        <ele>503.9</ele>
        <time>2017-01-15T10:42:48.999Z</time>
      </trkpt>
      <trkpt lat="47.5351" lon="6.65137">
        <ele>503.9</ele>
        <time>2017-01-15T10:42:49.999Z</time>
      </trkpt>
      <trkpt lat="47.53508" lon="6.65139">
        <ele>503.9</ele>
        <time>2017-01-15T10:42:50.999Z</time>
      </trkpt>
      <trkpt lat="47.53505" lon="6.65144">
        <ele>503.7</ele>
        <time>2017-01-15T10:42:52.999Z</time>
      </trkpt>
      <trkpt lat="47.53504" lon="6.65146">
        <ele>503.6</ele>
        <time>2017-01-15T10:42:53.999Z</time>
      </trkpt>
      <trkpt lat="47.53501" lon="6.65149">
        <ele>503.5</ele>
        <time>2017-01-15T10:42:54.999Z</time>
      </trkpt>
      <trkpt lat="47.535" lon="6.6515">
        <ele>503.5</ele>
        <time>2017-01-15T10:42:55.999Z</time>
      </trkpt>
      <trkpt lat="47.53498" lon="6.65153">
        <ele>503.5</ele>
        <time>2017-01-15T10:42:56.999Z</time>
      </trkpt>
      <trkpt lat="47.53496" lon="6.65157">
        <ele>503.5</ele>
        <time>2017-01-15T10:42:57.999Z</time>
      </trkpt>
      <trkpt lat="47.53494" lon="6.65161">
        <ele>503.5</ele>
        <time>2017-01-15T10:42:58.999Z</time>
      </trkpt>
      <trkpt lat="47.53491" lon="6.65165">
        <ele>503.5</ele>
        <time>2017-01-15T10:42:59.999Z</time>
      </trkpt>
      <trkpt lat="47.53489" lon="6.6517">
        <ele>503.4</ele>
        <time>2017-01-15T10:43:01.999Z</time>
      </trkpt>
      <trkpt lat="47.53487" lon="6.65172">
        <ele>503.4</ele>
        <time>2017-01-15T10:43:02.999Z</time>
      </trkpt>
      <trkpt lat="47.53485" lon="6.65175">
        <ele>503.3</ele>
        <time>2017-01-15T10:43:03.999Z</time>
      </trkpt>
      <trkpt lat="47.53484" lon="6.65179">
        <ele>503.3</ele>
        <time>2017-01-15T10:43:04.999Z</time>
      </trkpt>
      <trkpt lat="47.53482" lon="6.65183">
        <ele>503.1</ele>
        <time>2017-01-15T10:43:06.999Z</time>
      </trkpt>
      <trkpt lat="47.5348" lon="6.65186">
        <ele>503.1</ele>
        <time>2017-01-15T10:43:07.999Z</time>
      </trkpt>
      <trkpt lat="47.53478" lon="6.65189">
        <ele>503</ele>
        <time>2017-01-15T10:43:08.999Z</time>
      </trkpt>
      <trkpt lat="47.53477" lon="6.65192">
        <ele>502.9</ele>
        <time>2017-01-15T10:43:09.999Z</time>
      </trkpt>
      <trkpt lat="47.53475" lon="6.65197">
        <ele>502.8</ele>
        <time>2017-01-15T10:43:10.999Z</time>
      </trkpt>
      <trkpt lat="47.53473" lon="6.65203">
        <ele>502.8</ele>
        <time>2017-01-15T10:43:11.999Z</time>
      </trkpt>
      <trkpt lat="47.53471" lon="6.65206">
        <ele>502.7</ele>
        <time>2017-01-15T10:43:12.999Z</time>
      </trkpt>
      <trkpt lat="47.53469" lon="6.6521">
        <ele>502.7</ele>
        <time>2017-01-15T10:43:13.999Z</time>
      </trkpt>
      <trkpt lat="47.53466" lon="6.65214">
        <ele>502.6</ele>
        <time>2017-01-15T10:43:14.999Z</time>
      </trkpt>
      <trkpt lat="47.53465" lon="6.65215">
        <ele>502.5</ele>
        <time>2017-01-15T10:43:15.999Z</time>
      </trkpt>
      <trkpt lat="47.53462" lon="6.65218">
        <ele>502.4</ele>
        <time>2017-01-15T10:43:17.999Z</time>
      </trkpt>
      <trkpt lat="47.53461" lon="6.6522">
        <ele>502.3</ele>
        <time>2017-01-15T10:43:18.999Z</time>
      </trkpt>
      <trkpt lat="47.53459" lon="6.65223">
        <ele>502.1</ele>
        <time>2017-01-15T10:43:20.999Z</time>
      </trkpt>
      <trkpt lat="47.53456" lon="6.65226">
        <ele>502</ele>
        <time>2017-01-15T10:43:21.999Z</time>
      </trkpt>
      <trkpt lat="47.53454" lon="6.65227">
        <ele>501.9</ele>
        <time>2017-01-15T10:43:22.999Z</time>
      </trkpt>
      <trkpt lat="47.53452" lon="6.65229">
        <ele>501.9</ele>
        <time>2017-01-15T10:43:23.999Z</time>
      </trkpt>
      <trkpt lat="47.53449" lon="6.65231">
        <ele>501.9</ele>
        <time>2017-01-15T10:43:24.999Z</time>
      </trkpt>
      <trkpt lat="47.53446" lon="6.65233">
        <ele>501.9</ele>
        <time>2017-01-15T10:43:25.999Z</time>
      </trkpt>
      <trkpt lat="47.53442" lon="6.65234">
        <ele>501.8</ele>
        <time>2017-01-15T10:43:27.999Z</time>
      </trkpt>
      <trkpt lat="47.5344" lon="6.65233">
        <ele>501.7</ele>
        <time>2017-01-15T10:43:28.999Z</time>
      </trkpt>
      <trkpt lat="47.53437" lon="6.65227">
        <ele>501.6</ele>
        <time>2017-01-15T10:43:30.999Z</time>
      </trkpt>
      <trkpt lat="47.53436" lon="6.65225">
        <ele>501.6</ele>
        <time>2017-01-15T10:43:31.999Z</time>
      </trkpt>
      <trkpt lat="47.53434" lon="6.65222">
        <ele>501.6</ele>
        <time>2017-01-15T10:43:32.999Z</time>
      </trkpt>
      <trkpt lat="47.5343" lon="6.65219">
        <ele>501.6</ele>
        <time>2017-01-15T10:43:33.999Z</time>
      </trkpt>
      <trkpt lat="47.53428" lon="6.65217">
        <ele>501.7</ele>
        <time>2017-01-15T10:43:34.999Z</time>
      </trkpt>
      <trkpt lat="47.53426" lon="6.65215">
        <ele>501.7</ele>
        <time>2017-01-15T10:43:35.999Z</time>
      </trkpt>
      <trkpt lat="47.53423" lon="6.65212">
        <ele>501.6</ele>
        <time>2017-01-15T10:43:36.999Z</time>
      </trkpt>
      <trkpt lat="47.5342" lon="6.65208">
        <ele>501.5</ele>
        <time>2017-01-15T10:43:37.999Z</time>
      </trkpt>
      <trkpt lat="47.53417" lon="6.65204">
        <ele>501.4</ele>
        <time>2017-01-15T10:43:38.999Z</time>
      </trkpt>
      <trkpt lat="47.53414" lon="6.652">
        <ele>501.3</ele>
        <time>2017-01-15T10:43:39.999Z</time>
      </trkpt>
      <trkpt lat="47.53411" lon="6.65197">
        <ele>501.2</ele>
        <time>2017-01-15T10:43:40.999Z</time>
      </trkpt>
      <trkpt lat="47.53409" lon="6.65194">
        <ele>501.1</ele>
        <time>2017-01-15T10:43:41.999Z</time>
      </trkpt>
      <trkpt lat="47.53406" lon="6.65191">
        <ele>501.1</ele>
        <time>2017-01-15T10:43:42.999Z</time>
      </trkpt>
      <trkpt lat="47.53404" lon="6.65189">
        <ele>501</ele>
        <time>2017-01-15T10:43:43.999Z</time>
      </trkpt>
      <trkpt lat="47.53401" lon="6.65187">
        <ele>501</ele>
        <time>2017-01-15T10:43:44.999Z</time>
      </trkpt>
      <trkpt lat="47.53398" lon="6.65185">
        <ele>501.1</ele>
        <time>2017-01-15T10:43:45.999Z</time>
      </trkpt>
      <trkpt lat="47.53395" lon="6.6518">
        <ele>501</ele>
        <time>2017-01-15T10:43:46.999Z</time>
      </trkpt>
      <trkpt lat="47.53393" lon="6.65176">
        <ele>501</ele>
        <time>2017-01-15T10:43:47.999Z</time>
      </trkpt>
      <trkpt lat="47.5339" lon="6.65172">
        <ele>500.9</ele>
        <time>2017-01-15T10:43:48.999Z</time>
      </trkpt>
      <trkpt lat="47.53387" lon="6.65169">
        <ele>500.9</ele>
        <time>2017-01-15T10:43:49.999Z</time>
      </trkpt>
      <trkpt lat="47.53385" lon="6.65166">
        <ele>500.9</ele>
        <time>2017-01-15T10:43:50.999Z</time>
      </trkpt>
      <trkpt lat="47.53383" lon="6.65165">
        <ele>500.8</ele>
        <time>2017-01-15T10:43:51.999Z</time>
      </trkpt>
      <trkpt lat="47.5338" lon="6.65162">
        <ele>500.7</ele>
        <time>2017-01-15T10:43:52.999Z</time>
      </trkpt>
      <trkpt lat="47.53376" lon="6.65157">
        <ele>500.5</ele>
        <time>2017-01-15T10:43:53.999Z</time>
      </trkpt>
      <trkpt lat="47.53373" lon="6.65154">
        <ele>500.4</ele>
        <time>2017-01-15T10:43:54.999Z</time>
      </trkpt>
      <trkpt lat="47.5337" lon="6.6515">
        <ele>500.2</ele>
        <time>2017-01-15T10:43:55.999Z</time>
      </trkpt>
      <trkpt lat="47.53367" lon="6.65146">
        <ele>500</ele>
        <time>2017-01-15T10:43:56.999Z</time>
      </trkpt>
      <trkpt lat="47.53363" lon="6.65142">
        <ele>499.8</ele>
        <time>2017-01-15T10:43:57.999Z</time>
      </trkpt>
      <trkpt lat="47.53361" lon="6.65139">
        <ele>499.6</ele>
        <time>2017-01-15T10:43:58.999Z</time>
      </trkpt>
      <trkpt lat="47.53359" lon="6.65137">
        <ele>499.3</ele>
        <time>2017-01-15T10:43:59.999Z</time>
      </trkpt>
      <trkpt lat="47.53356" lon="6.65134">
        <ele>499.1</ele>
        <time>2017-01-15T10:44:00.999Z</time>
      </trkpt>
      <trkpt lat="47.53353" lon="6.65131">
        <ele>498.8</ele>
        <time>2017-01-15T10:44:01.999Z</time>
      </trkpt>
      <trkpt lat="47.5335" lon="6.65126">
        <ele>498.6</ele>
        <time>2017-01-15T10:44:02.999Z</time>
      </trkpt>
      <trkpt lat="47.53347" lon="6.65122">
        <ele>498.3</ele>
        <time>2017-01-15T10:44:03.999Z</time>
      </trkpt>
      <trkpt lat="47.53344" lon="6.65119">
        <ele>498.1</ele>
        <time>2017-01-15T10:44:04.999Z</time>
      </trkpt>
      <trkpt lat="47.53341" lon="6.65115">
        <ele>497.9</ele>
        <time>2017-01-15T10:44:05.999Z</time>
      </trkpt>
      <trkpt lat="47.53338" lon="6.65111">
        <ele>497.7</ele>
        <time>2017-01-15T10:44:06.999Z</time>
      </trkpt>
      <trkpt lat="47.53334" lon="6.65107">
        <ele>495.4</ele>
        <time>2017-01-15T10:44:07.999Z</time>
      </trkpt>
      <trkpt lat="47.5333" lon="6.65102">
        <ele>492.6</ele>
        <time>2017-01-15T10:44:08.999Z</time>
      </trkpt>
      <trkpt lat="47.53327" lon="6.65097">
        <ele>491.2</ele>
        <time>2017-01-15T10:44:09.999Z</time>
      </trkpt>
      <trkpt lat="47.53323" lon="6.65091">
        <ele>490.5</ele>
        <time>2017-01-15T10:44:10.999Z</time>
      </trkpt>
      <trkpt lat="47.53319" lon="6.65087">
        <ele>489.5</ele>
        <time>2017-01-15T10:44:11.999Z</time>
      </trkpt>
      <trkpt lat="47.53316" lon="6.65084">
        <ele>489.4</ele>
        <time>2017-01-15T10:44:12.999Z</time>
      </trkpt>
      <trkpt lat="47.53313" lon="6.65079">
        <ele>489.9</ele>
        <time>2017-01-15T10:44:13.999Z</time>
      </trkpt>
      <trkpt lat="47.5331" lon="6.65076">
        <ele>490</ele>
        <time>2017-01-15T10:44:14.999Z</time>
      </trkpt>
      <trkpt lat="47.53307" lon="6.65072">
        <ele>490</ele>
        <time>2017-01-15T10:44:15.999Z</time>
      </trkpt>
      <trkpt lat="47.53303" lon="6.65066">
        <ele>490</ele>
        <time>2017-01-15T10:44:16.999Z</time>
      </trkpt>
      <trkpt lat="47.53298" lon="6.6506">
        <ele>489.7</ele>
        <time>2017-01-15T10:44:17.999Z</time>
      </trkpt>
      <trkpt lat="47.53293" lon="6.65054">
        <ele>489</ele>
        <time>2017-01-15T10:44:18.999Z</time>
      </trkpt>
      <trkpt lat="47.53289" lon="6.6505">
        <ele>488.9</ele>
        <time>2017-01-15T10:44:19.999Z</time>
      </trkpt>
      <trkpt lat="47.53285" lon="6.65045">
        <ele>487.7</ele>
        <time>2017-01-15T10:44:20.999Z</time>
      </trkpt>
      <trkpt lat="47.53282" lon="6.6504">
        <ele>487.6</ele>
        <time>2017-01-15T10:44:21.999Z</time>
      </trkpt>
      <trkpt lat="47.53279" lon="6.65036">
        <ele>487.4</ele>
        <time>2017-01-15T10:44:22.999Z</time>
      </trkpt>
      <trkpt lat="47.53275" lon="6.6503">
        <ele>485</ele>
        <time>2017-01-15T10:44:23.999Z</time>
      </trkpt>
      <trkpt lat="47.5327" lon="6.65025">
        <ele>482.9</ele>
        <time>2017-01-15T10:44:24.999Z</time>
      </trkpt>
      <trkpt lat="47.53267" lon="6.65022">
        <ele>481.3</ele>
        <time>2017-01-15T10:44:25.999Z</time>
      </trkpt>
      <trkpt lat="47.53263" lon="6.65022">
        <ele>481.2</ele>
        <time>2017-01-15T10:44:26.999Z</time>
      </trkpt>
      <trkpt lat="47.53259" lon="6.65023">
        <ele>481.1</ele>
        <time>2017-01-15T10:44:27.999Z</time>
      </trkpt>
      <trkpt lat="47.53254" lon="6.65022">
        <ele>480.9</ele>
        <time>2017-01-15T10:44:28.999Z</time>
      </trkpt>
      <trkpt lat="47.53248" lon="6.65021">
        <ele>480.6</ele>
        <time>2017-01-15T10:44:29.999Z</time>
      </trkpt>
      <trkpt lat="47.53245" lon="6.65021">
        <ele>479.6</ele>
        <time>2017-01-15T10:44:33.999Z</time>
      </trkpt>
      <trkpt lat="47.53243" lon="6.65021">
        <ele>479.6</ele>
        <time>2017-01-15T10:44:34.999Z</time>
      </trkpt>
      <trkpt lat="47.53239" lon="6.65019">
        <ele>479.9</ele>
        <time>2017-01-15T10:44:42.999Z</time>
      </trkpt>
      <trkpt lat="47.53238" lon="6.65018">
        <ele>479.9</ele>
        <time>2017-01-15T10:44:43.999Z</time>
      </trkpt>
      <trkpt lat="47.53235" lon="6.65018">
        <ele>479.8</ele>
        <time>2017-01-15T10:44:45.999Z</time>
      </trkpt>
      <trkpt lat="47.53233" lon="6.65018">
        <ele>479.8</ele>
        <time>2017-01-15T10:44:46.999Z</time>
      </trkpt>
      <trkpt lat="47.5323" lon="6.65018">
        <ele>479.8</ele>
        <time>2017-01-15T10:44:47.999Z</time>
      </trkpt>
      <trkpt lat="47.53227" lon="6.65018">
        <ele>479.7</ele>
        <time>2017-01-15T10:44:48.999Z</time>
      </trkpt>
      <trkpt lat="47.53223" lon="6.65018">
        <ele>479.6</ele>
        <time>2017-01-15T10:44:49.999Z</time>
      </trkpt>
      <trkpt lat="47.53221" lon="6.65018">
        <ele>479.6</ele>
        <time>2017-01-15T10:44:50.999Z</time>
      </trkpt>
      <trkpt lat="47.53218" lon="6.65018">
        <ele>479.4</ele>
        <time>2017-01-15T10:44:51.999Z</time>
      </trkpt>
      <trkpt lat="47.53214" lon="6.65017">
        <ele>479.3</ele>
        <time>2017-01-15T10:44:52.999Z</time>
      </trkpt>
      <trkpt lat="47.5321" lon="6.65015">
        <ele>479.2</ele>
        <time>2017-01-15T10:44:53.999Z</time>
      </trkpt>
      <trkpt lat="47.53207" lon="6.65014">
        <ele>479.1</ele>
        <time>2017-01-15T10:44:54.999Z</time>
      </trkpt>
      <trkpt lat="47.53202" lon="6.65012">
        <ele>477.5</ele>
        <time>2017-01-15T10:44:55.999Z</time>
      </trkpt>
      <trkpt lat="47.53198" lon="6.65011">
        <ele>477.3</ele>
        <time>2017-01-15T10:44:56.999Z</time>
      </trkpt>
      <trkpt lat="47.53193" lon="6.65008">
        <ele>475</ele>
        <time>2017-01-15T10:44:57.999Z</time>
      </trkpt>
      <trkpt lat="47.5319" lon="6.65006">
        <ele>474.8</ele>
        <time>2017-01-15T10:44:58.999Z</time>
      </trkpt>
      <trkpt lat="47.53186" lon="6.65004">
        <ele>474.6</ele>
        <time>2017-01-15T10:44:59.999Z</time>
      </trkpt>
      <trkpt lat="47.53182" lon="6.65006">
        <ele>474.5</ele>
        <time>2017-01-15T10:45:01.999Z</time>
      </trkpt>
      <trkpt lat="47.53179" lon="6.65005">
        <ele>474.3</ele>
        <time>2017-01-15T10:45:02.999Z</time>
      </trkpt>
      <trkpt lat="47.53176" lon="6.65003">
        <ele>474.2</ele>
        <time>2017-01-15T10:45:03.999Z</time>
      </trkpt>
      <trkpt lat="47.53174" lon="6.65002">
        <ele>474</ele>
        <time>2017-01-15T10:45:04.999Z</time>
      </trkpt>
      <trkpt lat="47.5317" lon="6.65003">
        <ele>473.6</ele>
        <time>2017-01-15T10:45:06.999Z</time>
      </trkpt>
      <trkpt lat="47.53169" lon="6.65005">
        <ele>473.3</ele>
        <time>2017-01-15T10:45:07.999Z</time>
      </trkpt>
      <trkpt lat="47.53169" lon="6.65008">
        <ele>473</ele>
        <time>2017-01-15T10:45:08.999Z</time>
      </trkpt>
      <trkpt lat="47.53168" lon="6.65012">
        <ele>472.8</ele>
        <time>2017-01-15T10:45:09.999Z</time>
      </trkpt>
      <trkpt lat="47.53167" lon="6.65018">
        <ele>472.2</ele>
        <time>2017-01-15T10:45:11.999Z</time>
      </trkpt>
      <trkpt lat="47.53166" lon="6.65022">
        <ele>471.9</ele>
        <time>2017-01-15T10:45:12.999Z</time>
      </trkpt>
      <trkpt lat="47.53164" lon="6.65027">
        <ele>471.6</ele>
        <time>2017-01-15T10:45:13.999Z</time>
      </trkpt>
      <trkpt lat="47.53163" lon="6.65029">
        <ele>471.3</ele>
        <time>2017-01-15T10:45:14.999Z</time>
      </trkpt>
      <trkpt lat="47.53162" lon="6.65031">
        <ele>471</ele>
        <time>2017-01-15T10:45:15.999Z</time>
      </trkpt>
      <trkpt lat="47.53158" lon="6.65032">
        <ele>470.7</ele>
        <time>2017-01-15T10:45:16.999Z</time>
      </trkpt>
      <trkpt lat="47.53155" lon="6.65033">
        <ele>470.3</ele>
        <time>2017-01-15T10:45:17.999Z</time>
      </trkpt>
      <trkpt lat="47.53153" lon="6.65033">
        <ele>469.9</ele>
        <time>2017-01-15T10:45:18.999Z</time>
      </trkpt>
      <trkpt lat="47.5315" lon="6.65035">
        <ele>469.5</ele>
        <time>2017-01-15T10:45:19.999Z</time>
      </trkpt>
      <trkpt lat="47.53146" lon="6.65035">
        <ele>469.1</ele>
        <time>2017-01-15T10:45:20.999Z</time>
      </trkpt>
      <trkpt lat="47.53143" lon="6.65036">
        <ele>468.8</ele>
        <time>2017-01-15T10:45:21.999Z</time>
      </trkpt>
      <trkpt lat="47.53139" lon="6.65034">
        <ele>468.4</ele>
        <time>2017-01-15T10:45:22.999Z</time>
      </trkpt>
      <trkpt lat="47.53136" lon="6.65034">
        <ele>468.1</ele>
        <time>2017-01-15T10:45:23.999Z</time>
      </trkpt>
      <trkpt lat="47.53132" lon="6.65034">
        <ele>467.8</ele>
        <time>2017-01-15T10:45:24.999Z</time>
      </trkpt>
      <trkpt lat="47.53127" lon="6.65033">
        <ele>467.6</ele>
        <time>2017-01-15T10:45:25.999Z</time>
      </trkpt>
      <trkpt lat="47.53123" lon="6.65032">
        <ele>467.4</ele>
        <time>2017-01-15T10:45:26.999Z</time>
      </trkpt>
      <trkpt lat="47.5312" lon="6.65033">
        <ele>467.3</ele>
        <time>2017-01-15T10:45:27.999Z</time>
      </trkpt>
      <trkpt lat="47.53118" lon="6.65035">
        <ele>467.1</ele>
        <time>2017-01-15T10:45:28.999Z</time>
      </trkpt>
      <trkpt lat="47.53115" lon="6.65036">
        <ele>466.9</ele>
        <time>2017-01-15T10:45:29.999Z</time>
      </trkpt>
      <trkpt lat="47.53111" lon="6.65035">
        <ele>466.7</ele>
        <time>2017-01-15T10:45:30.999Z</time>
      </trkpt>
      <trkpt lat="47.53106" lon="6.65036">
        <ele>466.4</ele>
        <time>2017-01-15T10:45:31.999Z</time>
      </trkpt>
      <trkpt lat="47.53103" lon="6.65036">
        <ele>466.2</ele>
        <time>2017-01-15T10:45:32.999Z</time>
      </trkpt>
      <trkpt lat="47.53099" lon="6.65038">
        <ele>465.9</ele>
        <time>2017-01-15T10:45:33.999Z</time>
      </trkpt>
      <trkpt lat="47.53096" lon="6.65041">
        <ele>465.7</ele>
        <time>2017-01-15T10:45:34.999Z</time>
      </trkpt>
      <trkpt lat="47.53092" lon="6.65044">
        <ele>465.6</ele>
        <time>2017-01-15T10:45:35.999Z</time>
      </trkpt>
      <trkpt lat="47.53089" lon="6.65047">
        <ele>465.3</ele>
        <time>2017-01-15T10:45:36.999Z</time>
      </trkpt>
      <trkpt lat="47.53085" lon="6.65051">
        <ele>465.1</ele>
        <time>2017-01-15T10:45:37.999Z</time>
      </trkpt>
      <trkpt lat="47.53081" lon="6.65052">
        <ele>464.8</ele>
        <time>2017-01-15T10:45:38.999Z</time>
      </trkpt>
      <trkpt lat="47.53078" lon="6.65054">
        <ele>464.5</ele>
        <time>2017-01-15T10:45:39.999Z</time>
      </trkpt>
      <trkpt lat="47.53074" lon="6.65056">
        <ele>464.3</ele>
        <time>2017-01-15T10:45:40.999Z</time>
      </trkpt>
      <trkpt lat="47.53069" lon="6.65058">
        <ele>464</ele>
        <time>2017-01-15T10:45:41.999Z</time>
      </trkpt>
      <trkpt lat="47.53064" lon="6.65059">
        <ele>463.7</ele>
        <time>2017-01-15T10:45:42.999Z</time>
      </trkpt>
      <trkpt lat="47.53059" lon="6.65061">
        <ele>463.3</ele>
        <time>2017-01-15T10:45:43.999Z</time>
      </trkpt>
      <trkpt lat="47.53054" lon="6.65063">
        <ele>463</ele>
        <time>2017-01-15T10:45:44.999Z</time>
      </trkpt>
      <trkpt lat="47.53047" lon="6.65067">
        <ele>462.6</ele>
        <time>2017-01-15T10:45:45.999Z</time>
      </trkpt>
      <trkpt lat="47.53041" lon="6.65073">
        <ele>458.5</ele>
        <time>2017-01-15T10:45:46.999Z</time>
      </trkpt>
      <trkpt lat="47.53036" lon="6.65079">
        <ele>455.9</ele>
        <time>2017-01-15T10:45:47.999Z</time>
      </trkpt>
      <trkpt lat="47.53029" lon="6.65084">
        <ele>455.7</ele>
        <time>2017-01-15T10:45:48.999Z</time>
      </trkpt>
      <trkpt lat="47.53025" lon="6.65087">
        <ele>455.6</ele>
        <time>2017-01-15T10:45:49.999Z</time>
      </trkpt>
      <trkpt lat="47.53016" lon="6.65094">
        <ele>455.5</ele>
        <time>2017-01-15T10:45:50.999Z</time>
      </trkpt>
      <trkpt lat="47.53011" lon="6.65099">
        <ele>453.7</ele>
        <time>2017-01-15T10:45:51.999Z</time>
      </trkpt>
      <trkpt lat="47.53006" lon="6.65103">
        <ele>453.7</ele>
        <time>2017-01-15T10:45:52.999Z</time>
      </trkpt>
      <trkpt lat="47.53" lon="6.65105">
        <ele>453.3</ele>
        <time>2017-01-15T10:45:53.999Z</time>
      </trkpt>
      <trkpt lat="47.5299" lon="6.65109">
        <ele>453.2</ele>
        <time>2017-01-15T10:45:54.999Z</time>
      </trkpt>
      <trkpt lat="47.52984" lon="6.65108">
        <ele>452.6</ele>
        <time>2017-01-15T10:45:55.999Z</time>
      </trkpt>
      <trkpt lat="47.52975" lon="6.6511">
        <ele>452.2</ele>
        <time>2017-01-15T10:45:56.999Z</time>
      </trkpt>
      <trkpt lat="47.5297" lon="6.65109">
        <ele>452.2</ele>
        <time>2017-01-15T10:45:57.999Z</time>
      </trkpt>
      <trkpt lat="47.52963" lon="6.65111">
        <ele>452.1</ele>
        <time>2017-01-15T10:45:58.999Z</time>
      </trkpt>
      <trkpt lat="47.52955" lon="6.65113">
        <ele>452.1</ele>
        <time>2017-01-15T10:45:59.999Z</time>
      </trkpt>
      <trkpt lat="47.52949" lon="6.65117">
        <ele>452.1</ele>
        <time>2017-01-15T10:46:00.999Z</time>
      </trkpt>
      <trkpt lat="47.52941" lon="6.6512">
        <ele>451.9</ele>
        <time>2017-01-15T10:46:01.999Z</time>
      </trkpt>
      <trkpt lat="47.52934" lon="6.65124">
        <ele>452.2</ele>
        <time>2017-01-15T10:46:02.999Z</time>
      </trkpt>
      <trkpt lat="47.52929" lon="6.65127">
        <ele>451.8</ele>
        <time>2017-01-15T10:46:03.999Z</time>
      </trkpt>
      <trkpt lat="47.52924" lon="6.65129">
        <ele>451.9</ele>
        <time>2017-01-15T10:46:04.999Z</time>
      </trkpt>
      <trkpt lat="47.52916" lon="6.65131">
        <ele>452.2</ele>
        <time>2017-01-15T10:46:05.999Z</time>
      </trkpt>
      <trkpt lat="47.52909" lon="6.65132">
        <ele>452.2</ele>
        <time>2017-01-15T10:46:06.999Z</time>
      </trkpt>
      <trkpt lat="47.52903" lon="6.65131">
        <ele>451.9</ele>
        <time>2017-01-15T10:46:07.999Z</time>
      </trkpt>
      <trkpt lat="47.52895" lon="6.65135">
        <ele>450.8</ele>
        <time>2017-01-15T10:46:08.999Z</time>
      </trkpt>
      <trkpt lat="47.5289" lon="6.65136">
        <ele>450.7</ele>
        <time>2017-01-15T10:46:09.999Z</time>
      </trkpt>
      <trkpt lat="47.52884" lon="6.65136">
        <ele>450.6</ele>
        <time>2017-01-15T10:46:10.999Z</time>
      </trkpt>
      <trkpt lat="47.52881" lon="6.6514">
        <ele>449.1</ele>
        <time>2017-01-15T10:46:11.999Z</time>
      </trkpt>
      <trkpt lat="47.52876" lon="6.65145">
        <ele>447.2</ele>
        <time>2017-01-15T10:46:12.999Z</time>
      </trkpt>
      <trkpt lat="47.5287" lon="6.6515">
        <ele>445.2</ele>
        <time>2017-01-15T10:46:13.999Z</time>
      </trkpt>
      <trkpt lat="47.52865" lon="6.65154">
        <ele>443.6</ele>
        <time>2017-01-15T10:46:14.999Z</time>
      </trkpt>
      <trkpt lat="47.52859" lon="6.65159">
        <ele>442.1</ele>
        <time>2017-01-15T10:46:15.999Z</time>
      </trkpt>
      <trkpt lat="47.52852" lon="6.65163">
        <ele>441.2</ele>
        <time>2017-01-15T10:46:16.999Z</time>
      </trkpt>
      <trkpt lat="47.52847" lon="6.65167">
        <ele>440</ele>
        <time>2017-01-15T10:46:17.999Z</time>
      </trkpt>
      <trkpt lat="47.52843" lon="6.65169">
        <ele>439.9</ele>
        <time>2017-01-15T10:46:18.999Z</time>
      </trkpt>
      <trkpt lat="47.52838" lon="6.65171">
        <ele>439.8</ele>
        <time>2017-01-15T10:46:19.999Z</time>
      </trkpt>
      <trkpt lat="47.52834" lon="6.65174">
        <ele>437.5</ele>
        <time>2017-01-15T10:46:20.999Z</time>
      </trkpt>
      <trkpt lat="47.52829" lon="6.65177">
        <ele>437.2</ele>
        <time>2017-01-15T10:46:21.999Z</time>
      </trkpt>
      <trkpt lat="47.52824" lon="6.65181">
        <ele>437</ele>
        <time>2017-01-15T10:46:22.999Z</time>
      </trkpt>
      <trkpt lat="47.52819" lon="6.65185">
        <ele>434.2</ele>
        <time>2017-01-15T10:46:23.999Z</time>
      </trkpt>
      <trkpt lat="47.52814" lon="6.6519">
        <ele>431.9</ele>
        <time>2017-01-15T10:46:24.999Z</time>
      </trkpt>
      <trkpt lat="47.52809" lon="6.65197">
        <ele>430.2</ele>
        <time>2017-01-15T10:46:25.999Z</time>
      </trkpt>
      <trkpt lat="47.52804" lon="6.65203">
        <ele>428.9</ele>
        <time>2017-01-15T10:46:26.999Z</time>
      </trkpt>
      <trkpt lat="47.52799" lon="6.65209">
        <ele>428.8</ele>
        <time>2017-01-15T10:46:27.999Z</time>
      </trkpt>
      <trkpt lat="47.52793" lon="6.65214">
        <ele>428.7</ele>
        <time>2017-01-15T10:46:28.999Z</time>
      </trkpt>
      <trkpt lat="47.52784" lon="6.65219">
        <ele>428.7</ele>
        <time>2017-01-15T10:46:29.999Z</time>
      </trkpt>
      <trkpt lat="47.52778" lon="6.6522">
        <ele>428.8</ele>
        <time>2017-01-15T10:46:30.999Z</time>
      </trkpt>
      <trkpt lat="47.52771" lon="6.6522">
        <ele>428.9</ele>
        <time>2017-01-15T10:46:31.999Z</time>
      </trkpt>
      <trkpt lat="47.52763" lon="6.65218">
        <ele>429.1</ele>
        <time>2017-01-15T10:46:32.999Z</time>
      </trkpt>
      <trkpt lat="47.5276" lon="6.65212">
        <ele>429.2</ele>
        <time>2017-01-15T10:46:33.999Z</time>
      </trkpt>
      <trkpt lat="47.52757" lon="6.65207">
        <ele>429.4</ele>
        <time>2017-01-15T10:46:34.999Z</time>
      </trkpt>
      <trkpt lat="47.52754" lon="6.65204">
        <ele>429.5</ele>
        <time>2017-01-15T10:46:35.999Z</time>
      </trkpt>
      <trkpt lat="47.52751" lon="6.652">
        <ele>429.7</ele>
        <time>2017-01-15T10:46:36.999Z</time>
      </trkpt>
      <trkpt lat="47.52748" lon="6.65196">
        <ele>429.9</ele>
        <time>2017-01-15T10:46:37.999Z</time>
      </trkpt>
      <trkpt lat="47.52746" lon="6.65196">
        <ele>430.1</ele>
        <time>2017-01-15T10:46:38.999Z</time>
      </trkpt>
      <trkpt lat="47.52743" lon="6.65197">
        <ele>430.3</ele>
        <time>2017-01-15T10:46:39.999Z</time>
      </trkpt>
      <trkpt lat="47.52741" lon="6.65198">
        <ele>430.5</ele>
        <time>2017-01-15T10:46:40.999Z</time>
      </trkpt>
      <trkpt lat="47.52739" lon="6.652">
        <ele>430.7</ele>
        <time>2017-01-15T10:46:41.999Z</time>
      </trkpt>
      <trkpt lat="47.52737" lon="6.65203">
        <ele>431</ele>
        <time>2017-01-15T10:46:42.999Z</time>
      </trkpt>
      <trkpt lat="47.52734" lon="6.65205">
        <ele>431.2</ele>
        <time>2017-01-15T10:46:43.999Z</time>
      </trkpt>
      <trkpt lat="47.52732" lon="6.65207">
        <ele>431.4</ele>
        <time>2017-01-15T10:46:44.999Z</time>
      </trkpt>
      <trkpt lat="47.5273" lon="6.65209">
        <ele>431.6</ele>
        <time>2017-01-15T10:46:45.999Z</time>
      </trkpt>
      <trkpt lat="47.52728" lon="6.65212">
        <ele>431.7</ele>
        <time>2017-01-15T10:46:46.999Z</time>
      </trkpt>
      <trkpt lat="47.52725" lon="6.65217">
        <ele>431.9</ele>
        <time>2017-01-15T10:46:48.999Z</time>
      </trkpt>
      <trkpt lat="47.52725" lon="6.65218">
        <ele>432</ele>
        <time>2017-01-15T10:46:49.999Z</time>
      </trkpt>
      <trkpt lat="47.52721" lon="6.65219">
        <ele>432.8</ele>
        <time>2017-01-15T10:47:00.999Z</time>
      </trkpt>
      <trkpt lat="47.5272" lon="6.65219">
        <ele>433</ele>
        <time>2017-01-15T10:47:01.999Z</time>
      </trkpt>
      <trkpt lat="47.52717" lon="6.65222">
        <ele>433.2</ele>
        <time>2017-01-15T10:47:03.999Z</time>
      </trkpt>
      <trkpt lat="47.52716" lon="6.65224">
        <ele>433.3</ele>
        <time>2017-01-15T10:47:04.999Z</time>
      </trkpt>
      <trkpt lat="47.52713" lon="6.65227">
        <ele>433.4</ele>
        <time>2017-01-15T10:47:05.999Z</time>
      </trkpt>
      <trkpt lat="47.5271" lon="6.65231">
        <ele>433.5</ele>
        <time>2017-01-15T10:47:06.999Z</time>
      </trkpt>
      <trkpt lat="47.52708" lon="6.65234">
        <ele>433.5</ele>
        <time>2017-01-15T10:47:07.999Z</time>
      </trkpt>
      <trkpt lat="47.52706" lon="6.65237">
        <ele>433.6</ele>
        <time>2017-01-15T10:47:08.999Z</time>
      </trkpt>
      <trkpt lat="47.52705" lon="6.6524">
        <ele>433.6</ele>
        <time>2017-01-15T10:47:09.999Z</time>
      </trkpt>
      <trkpt lat="47.52703" lon="6.65242">
        <ele>433.7</ele>
        <time>2017-01-15T10:47:10.999Z</time>
      </trkpt>
      <trkpt lat="47.52701" lon="6.65245">
        <ele>433.8</ele>
        <time>2017-01-15T10:47:11.999Z</time>
      </trkpt>
      <trkpt lat="47.52699" lon="6.65248">
        <ele>433.9</ele>
        <time>2017-01-15T10:47:12.999Z</time>
      </trkpt>
      <trkpt lat="47.52697" lon="6.65251">
        <ele>434</ele>
        <time>2017-01-15T10:47:13.999Z</time>
      </trkpt>
      <trkpt lat="47.52696" lon="6.65254">
        <ele>434</ele>
        <time>2017-01-15T10:47:14.999Z</time>
      </trkpt>
      <trkpt lat="47.52694" lon="6.65257">
        <ele>434.1</ele>
        <time>2017-01-15T10:47:15.999Z</time>
      </trkpt>
      <trkpt lat="47.52693" lon="6.65259">
        <ele>434.1</ele>
        <time>2017-01-15T10:47:16.999Z</time>
      </trkpt>
      <trkpt lat="47.52692" lon="6.65262">
        <ele>434.2</ele>
        <time>2017-01-15T10:47:17.999Z</time>
      </trkpt>
      <trkpt lat="47.5269" lon="6.65264">
        <ele>434.2</ele>
        <time>2017-01-15T10:47:18.999Z</time>
      </trkpt>
      <trkpt lat="47.52688" lon="6.65267">
        <ele>434.2</ele>
        <time>2017-01-15T10:47:19.999Z</time>
      </trkpt>
      <trkpt lat="47.52687" lon="6.65269">
        <ele>434.2</ele>
        <time>2017-01-15T10:47:20.999Z</time>
      </trkpt>
      <trkpt lat="47.52685" lon="6.65273">
        <ele>434.2</ele>
        <time>2017-01-15T10:47:21.999Z</time>
      </trkpt>
      <trkpt lat="47.52682" lon="6.65276">
        <ele>434.2</ele>
        <time>2017-01-15T10:47:22.999Z</time>
      </trkpt>
      <trkpt lat="47.5268" lon="6.65279">
        <ele>434.2</ele>
        <time>2017-01-15T10:47:23.999Z</time>
      </trkpt>
      <trkpt lat="47.52678" lon="6.65281">
        <ele>434.3</ele>
        <time>2017-01-15T10:47:24.999Z</time>
      </trkpt>
      <trkpt lat="47.52676" lon="6.65284">
        <ele>434.3</ele>
        <time>2017-01-15T10:47:25.999Z</time>
      </trkpt>
      <trkpt lat="47.52672" lon="6.65288">
        <ele>434.4</ele>
        <time>2017-01-15T10:47:26.999Z</time>
      </trkpt>
      <trkpt lat="47.52668" lon="6.65291">
        <ele>434.4</ele>
        <time>2017-01-15T10:47:27.999Z</time>
      </trkpt>
      <trkpt lat="47.52665" lon="6.65293">
        <ele>434.1</ele>
        <time>2017-01-15T10:47:28.999Z</time>
      </trkpt>
      <trkpt lat="47.5266" lon="6.65297">
        <ele>433.6</ele>
        <time>2017-01-15T10:47:29.999Z</time>
      </trkpt>
      <trkpt lat="47.52655" lon="6.653">
        <ele>433.3</ele>
        <time>2017-01-15T10:47:30.999Z</time>
      </trkpt>
      <trkpt lat="47.52651" lon="6.65304">
        <ele>432.6</ele>
        <time>2017-01-15T10:47:31.999Z</time>
      </trkpt>
      <trkpt lat="47.52647" lon="6.65307">
        <ele>432.2</ele>
        <time>2017-01-15T10:47:32.999Z</time>
      </trkpt>
      <trkpt lat="47.52643" lon="6.65309">
        <ele>431.5</ele>
        <time>2017-01-15T10:47:33.999Z</time>
      </trkpt>
      <trkpt lat="47.52638" lon="6.65313">
        <ele>430.7</ele>
        <time>2017-01-15T10:47:34.999Z</time>
      </trkpt>
      <trkpt lat="47.52633" lon="6.65318">
        <ele>430.1</ele>
        <time>2017-01-15T10:47:35.999Z</time>
      </trkpt>
      <trkpt lat="47.52628" lon="6.65323">
        <ele>429.3</ele>
        <time>2017-01-15T10:47:36.999Z</time>
      </trkpt>
      <trkpt lat="47.52624" lon="6.65328">
        <ele>428.4</ele>
        <time>2017-01-15T10:47:37.999Z</time>
      </trkpt>
      <trkpt lat="47.52619" lon="6.65334">
        <ele>427.8</ele>
        <time>2017-01-15T10:47:38.999Z</time>
      </trkpt>
      <trkpt lat="47.52614" lon="6.6534">
        <ele>427.2</ele>
        <time>2017-01-15T10:47:39.999Z</time>
      </trkpt>
      <trkpt lat="47.52608" lon="6.65348">
        <ele>427.1</ele>
        <time>2017-01-15T10:47:40.999Z</time>
      </trkpt>
      <trkpt lat="47.52603" lon="6.65356">
        <ele>427.7</ele>
        <time>2017-01-15T10:47:41.999Z</time>
      </trkpt>
      <trkpt lat="47.52597" lon="6.65364">
        <ele>428</ele>
        <time>2017-01-15T10:47:42.999Z</time>
      </trkpt>
      <trkpt lat="47.52593" lon="6.65372">
        <ele>428.6</ele>
        <time>2017-01-15T10:47:43.999Z</time>
      </trkpt>
      <trkpt lat="47.52589" lon="6.6538">
        <ele>428.7</ele>
        <time>2017-01-15T10:47:44.999Z</time>
      </trkpt>
      <trkpt lat="47.52585" lon="6.65388">
        <ele>428.7</ele>
        <time>2017-01-15T10:47:45.999Z</time>
      </trkpt>
      <trkpt lat="47.52582" lon="6.65397">
        <ele>428.9</ele>
        <time>2017-01-15T10:47:46.999Z</time>
      </trkpt>
      <trkpt lat="47.52578" lon="6.65406">
        <ele>429</ele>
        <time>2017-01-15T10:47:47.999Z</time>
      </trkpt>
      <trkpt lat="47.52573" lon="6.65416">
        <ele>428.8</ele>
        <time>2017-01-15T10:47:48.999Z</time>
      </trkpt>
      <trkpt lat="47.52569" lon="6.65426">
        <ele>428.8</ele>
        <time>2017-01-15T10:47:49.999Z</time>
      </trkpt>
      <trkpt lat="47.52565" lon="6.65435">
        <ele>429.3</ele>
        <time>2017-01-15T10:47:50.999Z</time>
      </trkpt>
      <trkpt lat="47.52562" lon="6.65445">
        <ele>428.8</ele>
        <time>2017-01-15T10:47:51.999Z</time>
      </trkpt>
      <trkpt lat="47.52558" lon="6.65454">
        <ele>428.3</ele>
        <time>2017-01-15T10:47:52.999Z</time>
      </trkpt>
      <trkpt lat="47.52555" lon="6.65464">
        <ele>427.9</ele>
        <time>2017-01-15T10:47:53.999Z</time>
      </trkpt>
      <trkpt lat="47.52552" lon="6.65473">
        <ele>427.5</ele>
        <time>2017-01-15T10:47:54.999Z</time>
      </trkpt>
      <trkpt lat="47.5255" lon="6.65482">
        <ele>427.2</ele>
        <time>2017-01-15T10:47:55.999Z</time>
      </trkpt>
      <trkpt lat="47.52547" lon="6.65491">
        <ele>426.5</ele>
        <time>2017-01-15T10:47:56.999Z</time>
      </trkpt>
      <trkpt lat="47.52545" lon="6.65499">
        <ele>426.4</ele>
        <time>2017-01-15T10:47:57.999Z</time>
      </trkpt>
      <trkpt lat="47.52543" lon="6.65506">
        <ele>426.5</ele>
        <time>2017-01-15T10:47:58.999Z</time>
      </trkpt>
      <trkpt lat="47.52541" lon="6.65514">
        <ele>426</ele>
        <time>2017-01-15T10:47:59.999Z</time>
      </trkpt>
      <trkpt lat="47.52538" lon="6.65522">
        <ele>425.2</ele>
        <time>2017-01-15T10:48:00.999Z</time>
      </trkpt>
      <trkpt lat="47.52536" lon="6.65529">
        <ele>424.5</ele>
        <time>2017-01-15T10:48:01.999Z</time>
      </trkpt>
      <trkpt lat="47.52533" lon="6.65537">
        <ele>424.6</ele>
        <time>2017-01-15T10:48:02.999Z</time>
      </trkpt>
      <trkpt lat="47.5253" lon="6.65545">
        <ele>424.6</ele>
        <time>2017-01-15T10:48:03.999Z</time>
      </trkpt>
      <trkpt lat="47.52526" lon="6.65553">
        <ele>424.2</ele>
        <time>2017-01-15T10:48:04.999Z</time>
      </trkpt>
      <trkpt lat="47.52522" lon="6.65562">
        <ele>424.2</ele>
        <time>2017-01-15T10:48:05.999Z</time>
      </trkpt>
      <trkpt lat="47.52519" lon="6.6557">
        <ele>424.3</ele>
        <time>2017-01-15T10:48:06.999Z</time>
      </trkpt>
      <trkpt lat="47.52515" lon="6.65577">
        <ele>424.9</ele>
        <time>2017-01-15T10:48:07.999Z</time>
      </trkpt>
      <trkpt lat="47.52512" lon="6.65584">
        <ele>425.6</ele>
        <time>2017-01-15T10:48:08.999Z</time>
      </trkpt>
      <trkpt lat="47.52508" lon="6.65592">
        <ele>426.1</ele>
        <time>2017-01-15T10:48:09.999Z</time>
      </trkpt>
      <trkpt lat="47.52505" lon="6.65599">
        <ele>426.2</ele>
        <time>2017-01-15T10:48:10.999Z</time>
      </trkpt>
      <trkpt lat="47.52502" lon="6.65606">
        <ele>426.2</ele>
        <time>2017-01-15T10:48:11.999Z</time>
      </trkpt>
      <trkpt lat="47.52498" lon="6.65613">
        <ele>425.9</ele>
        <time>2017-01-15T10:48:12.999Z</time>
      </trkpt>
      <trkpt lat="47.52495" lon="6.65619">
        <ele>425.5</ele>
        <time>2017-01-15T10:48:13.999Z</time>
      </trkpt>
      <trkpt lat="47.52492" lon="6.65625">
        <ele>424.9</ele>
        <time>2017-01-15T10:48:14.999Z</time>
      </trkpt>
      <trkpt lat="47.52488" lon="6.65632">
        <ele>424.7</ele>
        <time>2017-01-15T10:48:15.999Z</time>
      </trkpt>
      <trkpt lat="47.52485" lon="6.65639">
        <ele>424.3</ele>
        <time>2017-01-15T10:48:16.999Z</time>
      </trkpt>
      <trkpt lat="47.52482" lon="6.65645">
        <ele>423.3</ele>
        <time>2017-01-15T10:48:17.999Z</time>
      </trkpt>
      <trkpt lat="47.52479" lon="6.65652">
        <ele>422.9</ele>
        <time>2017-01-15T10:48:18.999Z</time>
      </trkpt>
      <trkpt lat="47.52476" lon="6.65658">
        <ele>422.4</ele>
        <time>2017-01-15T10:48:19.999Z</time>
      </trkpt>
      <trkpt lat="47.52472" lon="6.65664">
        <ele>422.3</ele>
        <time>2017-01-15T10:48:20.999Z</time>
      </trkpt>
      <trkpt lat="47.52469" lon="6.65671">
        <ele>422.1</ele>
        <time>2017-01-15T10:48:21.999Z</time>
      </trkpt>
      <trkpt lat="47.52466" lon="6.65677">
        <ele>421.5</ele>
        <time>2017-01-15T10:48:22.999Z</time>
      </trkpt>
      <trkpt lat="47.52463" lon="6.65683">
        <ele>421.5</ele>
        <time>2017-01-15T10:48:23.999Z</time>
      </trkpt>
      <trkpt lat="47.52459" lon="6.65689">
        <ele>421</ele>
        <time>2017-01-15T10:48:24.999Z</time>
      </trkpt>
      <trkpt lat="47.52457" lon="6.65695">
        <ele>421</ele>
        <time>2017-01-15T10:48:25.999Z</time>
      </trkpt>
      <trkpt lat="47.52454" lon="6.65701">
        <ele>421.1</ele>
        <time>2017-01-15T10:48:26.999Z</time>
      </trkpt>
      <trkpt lat="47.52452" lon="6.65707">
        <ele>421.3</ele>
        <time>2017-01-15T10:48:27.999Z</time>
      </trkpt>
      <trkpt lat="47.52449" lon="6.65713">
        <ele>421.6</ele>
        <time>2017-01-15T10:48:28.999Z</time>
      </trkpt>
      <trkpt lat="47.52447" lon="6.65719">
        <ele>421.9</ele>
        <time>2017-01-15T10:48:29.999Z</time>
      </trkpt>
      <trkpt lat="47.52444" lon="6.65724">
        <ele>422.3</ele>
        <time>2017-01-15T10:48:30.999Z</time>
      </trkpt>
      <trkpt lat="47.52442" lon="6.65728">
        <ele>422.3</ele>
        <time>2017-01-15T10:48:31.999Z</time>
      </trkpt>
      <trkpt lat="47.5244" lon="6.65733">
        <ele>422.3</ele>
        <time>2017-01-15T10:48:32.999Z</time>
      </trkpt>
      <trkpt lat="47.52438" lon="6.65738">
        <ele>422.3</ele>
        <time>2017-01-15T10:48:33.999Z</time>
      </trkpt>
      <trkpt lat="47.52436" lon="6.65742">
        <ele>422.5</ele>
        <time>2017-01-15T10:48:34.999Z</time>
      </trkpt>
      <trkpt lat="47.52433" lon="6.65748">
        <ele>422.3</ele>
        <time>2017-01-15T10:48:35.999Z</time>
      </trkpt>
      <trkpt lat="47.52431" lon="6.65753">
        <ele>422.9</ele>
        <time>2017-01-15T10:48:36.999Z</time>
      </trkpt>
      <trkpt lat="47.52429" lon="6.65758">
        <ele>423.2</ele>
        <time>2017-01-15T10:48:37.999Z</time>
      </trkpt>
      <trkpt lat="47.52426" lon="6.65763">
        <ele>423</ele>
        <time>2017-01-15T10:48:38.999Z</time>
      </trkpt>
      <trkpt lat="47.52424" lon="6.65767">
        <ele>422.9</ele>
        <time>2017-01-15T10:48:39.999Z</time>
      </trkpt>
      <trkpt lat="47.52422" lon="6.6577">
        <ele>422.8</ele>
        <time>2017-01-15T10:48:40.999Z</time>
      </trkpt>
      <trkpt lat="47.5242" lon="6.65774">
        <ele>422.7</ele>
        <time>2017-01-15T10:48:41.999Z</time>
      </trkpt>
      <trkpt lat="47.52419" lon="6.65778">
        <ele>422.6</ele>
        <time>2017-01-15T10:48:42.999Z</time>
      </trkpt>
      <trkpt lat="47.52417" lon="6.65783">
        <ele>422.6</ele>
        <time>2017-01-15T10:48:43.999Z</time>
      </trkpt>
      <trkpt lat="47.52415" lon="6.65788">
        <ele>422.6</ele>
        <time>2017-01-15T10:48:44.999Z</time>
      </trkpt>
      <trkpt lat="47.52412" lon="6.65793">
        <ele>422.5</ele>
        <time>2017-01-15T10:48:45.999Z</time>
      </trkpt>
      <trkpt lat="47.5241" lon="6.65798">
        <ele>422.6</ele>
        <time>2017-01-15T10:48:46.999Z</time>
      </trkpt>
      <trkpt lat="47.52408" lon="6.65802">
        <ele>422.6</ele>
        <time>2017-01-15T10:48:47.999Z</time>
      </trkpt>
      <trkpt lat="47.52406" lon="6.65807">
        <ele>422.5</ele>
        <time>2017-01-15T10:48:48.999Z</time>
      </trkpt>
      <trkpt lat="47.52404" lon="6.65811">
        <ele>422.4</ele>
        <time>2017-01-15T10:48:49.999Z</time>
      </trkpt>
      <trkpt lat="47.52402" lon="6.65815">
        <ele>422.4</ele>
        <time>2017-01-15T10:48:50.999Z</time>
      </trkpt>
      <trkpt lat="47.524" lon="6.65819">
        <ele>422.3</ele>
        <time>2017-01-15T10:48:51.999Z</time>
      </trkpt>
      <trkpt lat="47.52397" lon="6.65823">
        <ele>422.3</ele>
        <time>2017-01-15T10:48:52.999Z</time>
      </trkpt>
      <trkpt lat="47.52394" lon="6.65828">
        <ele>422.3</ele>
        <time>2017-01-15T10:48:53.999Z</time>
      </trkpt>
      <trkpt lat="47.52392" lon="6.65833">
        <ele>422.2</ele>
        <time>2017-01-15T10:48:54.999Z</time>
      </trkpt>
      <trkpt lat="47.52389" lon="6.65838">
        <ele>422.2</ele>
        <time>2017-01-15T10:48:55.999Z</time>
      </trkpt>
      <trkpt lat="47.52387" lon="6.65844">
        <ele>422.5</ele>
        <time>2017-01-15T10:48:56.999Z</time>
      </trkpt>
      <trkpt lat="47.52384" lon="6.65849">
        <ele>422.3</ele>
        <time>2017-01-15T10:48:57.999Z</time>
      </trkpt>
      <trkpt lat="47.52382" lon="6.65852">
        <ele>421.7</ele>
        <time>2017-01-15T10:48:58.999Z</time>
      </trkpt>
      <trkpt lat="47.5238" lon="6.65856">
        <ele>421.7</ele>
        <time>2017-01-15T10:48:59.999Z</time>
      </trkpt>
      <trkpt lat="47.52378" lon="6.6586">
        <ele>421.6</ele>
        <time>2017-01-15T10:49:00.999Z</time>
      </trkpt>
      <trkpt lat="47.52375" lon="6.65864">
        <ele>421.6</ele>
        <time>2017-01-15T10:49:01.999Z</time>
      </trkpt>
      <trkpt lat="47.52373" lon="6.65868">
        <ele>421.9</ele>
        <time>2017-01-15T10:49:02.999Z</time>
      </trkpt>
      <trkpt lat="47.52371" lon="6.65874">
        <ele>422</ele>
        <time>2017-01-15T10:49:03.999Z</time>
      </trkpt>
      <trkpt lat="47.52369" lon="6.65879">
        <ele>421.6</ele>
        <time>2017-01-15T10:49:04.999Z</time>
      </trkpt>
      <trkpt lat="47.52366" lon="6.65883">
        <ele>421.3</ele>
        <time>2017-01-15T10:49:05.999Z</time>
      </trkpt>
      <trkpt lat="47.52363" lon="6.65889">
        <ele>421.4</ele>
        <time>2017-01-15T10:49:06.999Z</time>
      </trkpt>
      <trkpt lat="47.5236" lon="6.65893">
        <ele>420.5</ele>
        <time>2017-01-15T10:49:07.999Z</time>
      </trkpt>
      <trkpt lat="47.52357" lon="6.65899">
        <ele>420.5</ele>
        <time>2017-01-15T10:49:08.999Z</time>
      </trkpt>
      <trkpt lat="47.52354" lon="6.65904">
        <ele>421</ele>
        <time>2017-01-15T10:49:09.999Z</time>
      </trkpt>
      <trkpt lat="47.52352" lon="6.65909">
        <ele>421.8</ele>
        <time>2017-01-15T10:49:10.999Z</time>
      </trkpt>
      <trkpt lat="47.52349" lon="6.65913">
        <ele>422</ele>
        <time>2017-01-15T10:49:11.999Z</time>
      </trkpt>
      <trkpt lat="47.52346" lon="6.65917">
        <ele>422.4</ele>
        <time>2017-01-15T10:49:12.999Z</time>
      </trkpt>
      <trkpt lat="47.52343" lon="6.65923">
        <ele>422.6</ele>
        <time>2017-01-15T10:49:13.999Z</time>
      </trkpt>
      <trkpt lat="47.5234" lon="6.65927">
        <ele>422.7</ele>
        <time>2017-01-15T10:49:14.999Z</time>
      </trkpt>
      <trkpt lat="47.52337" lon="6.65932">
        <ele>422.9</ele>
        <time>2017-01-15T10:49:15.999Z</time>
      </trkpt>
      <trkpt lat="47.52335" lon="6.65936">
        <ele>422.4</ele>
        <time>2017-01-15T10:49:16.999Z</time>
      </trkpt>
      <trkpt lat="47.52333" lon="6.65939">
        <ele>421.8</ele>
        <time>2017-01-15T10:49:17.999Z</time>
      </trkpt>
      <trkpt lat="47.52331" lon="6.65942">
        <ele>421.7</ele>
        <time>2017-01-15T10:49:18.999Z</time>
      </trkpt>
      <trkpt lat="47.52329" lon="6.65946">
        <ele>419.5</ele>
        <time>2017-01-15T10:49:19.999Z</time>
      </trkpt>
      <trkpt lat="47.52326" lon="6.65951">
        <ele>418.6</ele>
        <time>2017-01-15T10:49:20.999Z</time>
      </trkpt>
      <trkpt lat="47.52323" lon="6.65956">
        <ele>417.8</ele>
        <time>2017-01-15T10:49:21.999Z</time>
      </trkpt>
      <trkpt lat="47.52321" lon="6.65961">
        <ele>417.3</ele>
        <time>2017-01-15T10:49:22.999Z</time>
      </trkpt>
      <trkpt lat="47.52318" lon="6.65965">
        <ele>417.2</ele>
        <time>2017-01-15T10:49:23.999Z</time>
      </trkpt>
      <trkpt lat="47.52316" lon="6.6597">
        <ele>417.2</ele>
        <time>2017-01-15T10:49:24.999Z</time>
      </trkpt>
      <trkpt lat="47.52314" lon="6.65975">
        <ele>416.4</ele>
        <time>2017-01-15T10:49:25.999Z</time>
      </trkpt>
      <trkpt lat="47.52312" lon="6.6598">
        <ele>416.2</ele>
        <time>2017-01-15T10:49:26.999Z</time>
      </trkpt>
      <trkpt lat="47.52309" lon="6.65984">
        <ele>416.1</ele>
        <time>2017-01-15T10:49:27.999Z</time>
      </trkpt>
      <trkpt lat="47.52308" lon="6.65989">
        <ele>416.1</ele>
        <time>2017-01-15T10:49:28.999Z</time>
      </trkpt>
      <trkpt lat="47.52306" lon="6.65995">
        <ele>416.1</ele>
        <time>2017-01-15T10:49:29.999Z</time>
      </trkpt>
      <trkpt lat="47.52303" lon="6.66001">
        <ele>416.4</ele>
        <time>2017-01-15T10:49:30.999Z</time>
      </trkpt>
      <trkpt lat="47.523" lon="6.66006">
        <ele>416.4</ele>
        <time>2017-01-15T10:49:31.999Z</time>
      </trkpt>
      <trkpt lat="47.52298" lon="6.66011">
        <ele>416</ele>
        <time>2017-01-15T10:49:32.999Z</time>
      </trkpt>
      <trkpt lat="47.52295" lon="6.66016">
        <ele>416</ele>
        <time>2017-01-15T10:49:33.999Z</time>
      </trkpt>
      <trkpt lat="47.52293" lon="6.66022">
        <ele>416.6</ele>
        <time>2017-01-15T10:49:34.999Z</time>
      </trkpt>
      <trkpt lat="47.5229" lon="6.66027">
        <ele>417.8</ele>
        <time>2017-01-15T10:49:35.999Z</time>
      </trkpt>
      <trkpt lat="47.52288" lon="6.66033">
        <ele>418.7</ele>
        <time>2017-01-15T10:49:36.999Z</time>
      </trkpt>
      <trkpt lat="47.52285" lon="6.66037">
        <ele>419.5</ele>
        <time>2017-01-15T10:49:37.999Z</time>
      </trkpt>
      <trkpt lat="47.52283" lon="6.66041">
        <ele>419.6</ele>
        <time>2017-01-15T10:49:38.999Z</time>
      </trkpt>
      <trkpt lat="47.5228" lon="6.66045">
        <ele>420.4</ele>
        <time>2017-01-15T10:49:39.999Z</time>
      </trkpt>
      <trkpt lat="47.52277" lon="6.66049">
        <ele>420.5</ele>
        <time>2017-01-15T10:49:40.999Z</time>
      </trkpt>
      <trkpt lat="47.52275" lon="6.66053">
        <ele>420.6</ele>
        <time>2017-01-15T10:49:41.999Z</time>
      </trkpt>
      <trkpt lat="47.52273" lon="6.66056">
        <ele>420.7</ele>
        <time>2017-01-15T10:49:42.999Z</time>
      </trkpt>
      <trkpt lat="47.52271" lon="6.66058">
        <ele>420.7</ele>
        <time>2017-01-15T10:49:43.999Z</time>
      </trkpt>
      <trkpt lat="47.52269" lon="6.66061">
        <ele>420.8</ele>
        <time>2017-01-15T10:49:44.999Z</time>
      </trkpt>
      <trkpt lat="47.52267" lon="6.66064">
        <ele>420.8</ele>
        <time>2017-01-15T10:49:45.999Z</time>
      </trkpt>
      <trkpt lat="47.52265" lon="6.66067">
        <ele>420.7</ele>
        <time>2017-01-15T10:49:46.999Z</time>
      </trkpt>
      <trkpt lat="47.52262" lon="6.66071">
        <ele>420.5</ele>
        <time>2017-01-15T10:49:48.999Z</time>
      </trkpt>
      <trkpt lat="47.5226" lon="6.66072">
        <ele>420.3</ele>
        <time>2017-01-15T10:49:49.999Z</time>
      </trkpt>
      <trkpt lat="47.52258" lon="6.66076">
        <ele>420.1</ele>
        <time>2017-01-15T10:49:50.999Z</time>
      </trkpt>
      <trkpt lat="47.52257" lon="6.66078">
        <ele>419.9</ele>
        <time>2017-01-15T10:49:51.999Z</time>
      </trkpt>
      <trkpt lat="47.52255" lon="6.66082">
        <ele>419.8</ele>
        <time>2017-01-15T10:49:52.999Z</time>
      </trkpt>
      <trkpt lat="47.52253" lon="6.66085">
        <ele>419.6</ele>
        <time>2017-01-15T10:49:53.999Z</time>
      </trkpt>
      <trkpt lat="47.52253" lon="6.66088">
        <ele>419.6</ele>
        <time>2017-01-15T10:49:54.999Z</time>
      </trkpt>
      <trkpt lat="47.52253" lon="6.66093">
        <ele>419.6</ele>
        <time>2017-01-15T10:49:55.999Z</time>
      </trkpt>
      <trkpt lat="47.52253" lon="6.66097">
        <ele>419.6</ele>
        <time>2017-01-15T10:49:56.999Z</time>
      </trkpt>
      <trkpt lat="47.52253" lon="6.66101">
        <ele>419.6</ele>
        <time>2017-01-15T10:49:57.999Z</time>
      </trkpt>
      <trkpt lat="47.52252" lon="6.66106">
        <ele>419.7</ele>
        <time>2017-01-15T10:49:59.999Z</time>
      </trkpt>
      <trkpt lat="47.52251" lon="6.66109">
        <ele>419.6</ele>
        <time>2017-01-15T10:50:00.999Z</time>
      </trkpt>
      <trkpt lat="47.52249" lon="6.66113">
        <ele>419.7</ele>
        <time>2017-01-15T10:50:01.999Z</time>
      </trkpt>
      <trkpt lat="47.52249" lon="6.66115">
        <ele>419.7</ele>
        <time>2017-01-15T10:50:02.999Z</time>
      </trkpt>
      <trkpt lat="47.52246" lon="6.66119">
        <ele>419.5</ele>
        <time>2017-01-15T10:50:04.999Z</time>
      </trkpt>
      <trkpt lat="47.52244" lon="6.66122">
        <ele>419.4</ele>
        <time>2017-01-15T10:50:05.999Z</time>
      </trkpt>
      <trkpt lat="47.52242" lon="6.66127">
        <ele>419.3</ele>
        <time>2017-01-15T10:50:07.999Z</time>
      </trkpt>
      <trkpt lat="47.52239" lon="6.66129">
        <ele>419.3</ele>
        <time>2017-01-15T10:50:08.999Z</time>
      </trkpt>
      <trkpt lat="47.52237" lon="6.66132">
        <ele>419.3</ele>
        <time>2017-01-15T10:50:09.999Z</time>
      </trkpt>
      <trkpt lat="47.52235" lon="6.66135">
        <ele>419.3</ele>
        <time>2017-01-15T10:50:10.999Z</time>
      </trkpt>
      <trkpt lat="47.52233" lon="6.66137">
        <ele>419.3</ele>
        <time>2017-01-15T10:50:11.999Z</time>
      </trkpt>
      <trkpt lat="47.5223" lon="6.66141">
        <ele>419.3</ele>
        <time>2017-01-15T10:50:12.999Z</time>
      </trkpt>
      <trkpt lat="47.52228" lon="6.66145">
        <ele>419.4</ele>
        <time>2017-01-15T10:50:13.999Z</time>
      </trkpt>
      <trkpt lat="47.52225" lon="6.66147">
        <ele>419.4</ele>
        <time>2017-01-15T10:50:14.999Z</time>
      </trkpt>
      <trkpt lat="47.52223" lon="6.66149">
        <ele>419.5</ele>
        <time>2017-01-15T10:50:15.999Z</time>
      </trkpt>
      <trkpt lat="47.52221" lon="6.66151">
        <ele>419.6</ele>
        <time>2017-01-15T10:50:16.999Z</time>
      </trkpt>
      <trkpt lat="47.52219" lon="6.66154">
        <ele>419.6</ele>
        <time>2017-01-15T10:50:17.999Z</time>
      </trkpt>
      <trkpt lat="47.52216" lon="6.66157">
        <ele>419.8</ele>
        <time>2017-01-15T10:50:18.999Z</time>
      </trkpt>
      <trkpt lat="47.52213" lon="6.6616">
        <ele>419.9</ele>
        <time>2017-01-15T10:50:19.999Z</time>
      </trkpt>
      <trkpt lat="47.52211" lon="6.66162">
        <ele>420</ele>
        <time>2017-01-15T10:50:20.999Z</time>
      </trkpt>
      <trkpt lat="47.52208" lon="6.66166">
        <ele>420.2</ele>
        <time>2017-01-15T10:50:22.999Z</time>
      </trkpt>
      <trkpt lat="47.52206" lon="6.66168">
        <ele>420.3</ele>
        <time>2017-01-15T10:50:23.999Z</time>
      </trkpt>
      <trkpt lat="47.52204" lon="6.6617">
        <ele>420.4</ele>
        <time>2017-01-15T10:50:24.999Z</time>
      </trkpt>
      <trkpt lat="47.52202" lon="6.66172">
        <ele>420.5</ele>
        <time>2017-01-15T10:50:25.999Z</time>
      </trkpt>
      <trkpt lat="47.522" lon="6.66175">
        <ele>420.6</ele>
        <time>2017-01-15T10:50:26.999Z</time>
      </trkpt>
      <trkpt lat="47.52199" lon="6.66177">
        <ele>420.6</ele>
        <time>2017-01-15T10:50:27.999Z</time>
      </trkpt>
      <trkpt lat="47.52197" lon="6.66179">
        <ele>420.6</ele>
        <time>2017-01-15T10:50:28.999Z</time>
      </trkpt>
      <trkpt lat="47.52195" lon="6.66182">
        <ele>420.7</ele>
        <time>2017-01-15T10:50:29.999Z</time>
      </trkpt>
      <trkpt lat="47.52193" lon="6.66185">
        <ele>420.8</ele>
        <time>2017-01-15T10:50:30.999Z</time>
      </trkpt>
      <trkpt lat="47.52191" lon="6.66189">
        <ele>420.8</ele>
        <time>2017-01-15T10:50:31.999Z</time>
      </trkpt>
      <trkpt lat="47.5219" lon="6.66191">
        <ele>420.9</ele>
        <time>2017-01-15T10:50:32.999Z</time>
      </trkpt>
      <trkpt lat="47.52188" lon="6.66194">
        <ele>420.9</ele>
        <time>2017-01-15T10:50:33.999Z</time>
      </trkpt>
      <trkpt lat="47.52186" lon="6.66198">
        <ele>421</ele>
        <time>2017-01-15T10:50:34.999Z</time>
      </trkpt>
      <trkpt lat="47.52184" lon="6.66201">
        <ele>421.1</ele>
        <time>2017-01-15T10:50:35.999Z</time>
      </trkpt>
      <trkpt lat="47.52182" lon="6.66205">
        <ele>421.2</ele>
        <time>2017-01-15T10:50:37.999Z</time>
      </trkpt>
      <trkpt lat="47.52181" lon="6.66207">
        <ele>421.3</ele>
        <time>2017-01-15T10:50:38.999Z</time>
      </trkpt>
      <trkpt lat="47.52179" lon="6.6621">
        <ele>421.4</ele>
        <time>2017-01-15T10:50:39.999Z</time>
      </trkpt>
      <trkpt lat="47.52177" lon="6.66214">
        <ele>421.4</ele>
        <time>2017-01-15T10:50:40.999Z</time>
      </trkpt>
      <trkpt lat="47.52175" lon="6.66217">
        <ele>421.5</ele>
        <time>2017-01-15T10:50:41.999Z</time>
      </trkpt>
      <trkpt lat="47.52172" lon="6.66221">
        <ele>421.6</ele>
        <time>2017-01-15T10:50:42.999Z</time>
      </trkpt>
      <trkpt lat="47.5217" lon="6.66225">
        <ele>421.7</ele>
        <time>2017-01-15T10:50:43.999Z</time>
      </trkpt>
      <trkpt lat="47.52168" lon="6.66228">
        <ele>421.9</ele>
        <time>2017-01-15T10:50:44.999Z</time>
      </trkpt>
      <trkpt lat="47.52166" lon="6.66231">
        <ele>422</ele>
        <time>2017-01-15T10:50:45.999Z</time>
      </trkpt>
      <trkpt lat="47.52164" lon="6.66234">
        <ele>422.2</ele>
        <time>2017-01-15T10:50:46.999Z</time>
      </trkpt>
      <trkpt lat="47.52162" lon="6.66236">
        <ele>422.4</ele>
        <time>2017-01-15T10:50:47.999Z</time>
      </trkpt>
      <trkpt lat="47.52161" lon="6.66239">
        <ele>422.6</ele>
        <time>2017-01-15T10:50:48.999Z</time>
      </trkpt>
      <trkpt lat="47.52159" lon="6.66241">
        <ele>422.7</ele>
        <time>2017-01-15T10:50:49.999Z</time>
      </trkpt>
      <trkpt lat="47.52157" lon="6.66244">
        <ele>422.8</ele>
        <time>2017-01-15T10:50:50.999Z</time>
      </trkpt>
      <trkpt lat="47.52155" lon="6.66246">
        <ele>422.9</ele>
        <time>2017-01-15T10:50:51.999Z</time>
      </trkpt>
      <trkpt lat="47.52153" lon="6.66249">
        <ele>423</ele>
        <time>2017-01-15T10:50:52.999Z</time>
      </trkpt>
      <trkpt lat="47.52151" lon="6.66251">
        <ele>423.1</ele>
        <time>2017-01-15T10:50:53.999Z</time>
      </trkpt>
      <trkpt lat="47.52148" lon="6.66254">
        <ele>423.1</ele>
        <time>2017-01-15T10:50:54.999Z</time>
      </trkpt>
      <trkpt lat="47.52145" lon="6.66256">
        <ele>423.1</ele>
        <time>2017-01-15T10:50:55.999Z</time>
      </trkpt>
      <trkpt lat="47.52142" lon="6.66259">
        <ele>423.1</ele>
        <time>2017-01-15T10:50:56.999Z</time>
      </trkpt>
      <trkpt lat="47.5214" lon="6.66261">
        <ele>423.1</ele>
        <time>2017-01-15T10:50:57.999Z</time>
      </trkpt>
      <trkpt lat="47.52137" lon="6.66265">
        <ele>423.5</ele>
        <time>2017-01-15T10:50:58.999Z</time>
      </trkpt>
      <trkpt lat="47.52135" lon="6.66269">
        <ele>423.6</ele>
        <time>2017-01-15T10:50:59.999Z</time>
      </trkpt>
      <trkpt lat="47.52133" lon="6.66273">
        <ele>423.7</ele>
        <time>2017-01-15T10:51:00.999Z</time>
      </trkpt>
      <trkpt lat="47.5213" lon="6.66279">
        <ele>423.8</ele>
        <time>2017-01-15T10:51:01.999Z</time>
      </trkpt>
      <trkpt lat="47.52127" lon="6.66284">
        <ele>423.9</ele>
        <time>2017-01-15T10:51:02.999Z</time>
      </trkpt>
      <trkpt lat="47.52125" lon="6.66288">
        <ele>424.1</ele>
        <time>2017-01-15T10:51:03.999Z</time>
      </trkpt>
      <trkpt lat="47.52123" lon="6.66291">
        <ele>424.2</ele>
        <time>2017-01-15T10:51:04.999Z</time>
      </trkpt>
      <trkpt lat="47.52121" lon="6.66294">
        <ele>424.4</ele>
        <time>2017-01-15T10:51:05.999Z</time>
      </trkpt>
      <trkpt lat="47.52119" lon="6.66297">
        <ele>424.6</ele>
        <time>2017-01-15T10:51:06.999Z</time>
      </trkpt>
      <trkpt lat="47.52117" lon="6.66299">
        <ele>424.7</ele>
        <time>2017-01-15T10:51:07.999Z</time>
      </trkpt>
      <trkpt lat="47.52114" lon="6.66303">
        <ele>424.8</ele>
        <time>2017-01-15T10:51:08.999Z</time>
      </trkpt>
      <trkpt lat="47.52112" lon="6.66305">
        <ele>424.9</ele>
        <time>2017-01-15T10:51:09.999Z</time>
      </trkpt>
      <trkpt lat="47.52109" lon="6.6631">
        <ele>425</ele>
        <time>2017-01-15T10:51:10.999Z</time>
      </trkpt>
      <trkpt lat="47.52107" lon="6.66313">
        <ele>425</ele>
        <time>2017-01-15T10:51:11.999Z</time>
      </trkpt>
      <trkpt lat="47.52105" lon="6.66317">
        <ele>425.1</ele>
        <time>2017-01-15T10:51:12.999Z</time>
      </trkpt>
      <trkpt lat="47.52104" lon="6.66321">
        <ele>425.2</ele>
        <time>2017-01-15T10:51:13.999Z</time>
      </trkpt>
      <trkpt lat="47.52103" lon="6.66325">
        <ele>425.3</ele>
        <time>2017-01-15T10:51:14.999Z</time>
      </trkpt>
      <trkpt lat="47.52103" lon="6.6633">
        <ele>425.4</ele>
        <time>2017-01-15T10:51:15.999Z</time>
      </trkpt>
      <trkpt lat="47.52103" lon="6.66335">
        <ele>425.5</ele>
        <time>2017-01-15T10:51:16.999Z</time>
      </trkpt>
      <trkpt lat="47.52103" lon="6.66341">
        <ele>425.5</ele>
        <time>2017-01-15T10:51:17.999Z</time>
      </trkpt>
      <trkpt lat="47.52103" lon="6.66345">
        <ele>425.5</ele>
        <time>2017-01-15T10:51:18.999Z</time>
      </trkpt>
      <trkpt lat="47.52103" lon="6.6635">
        <ele>425.6</ele>
        <time>2017-01-15T10:51:19.999Z</time>
      </trkpt>
      <trkpt lat="47.52104" lon="6.66356">
        <ele>425.6</ele>
        <time>2017-01-15T10:51:20.999Z</time>
      </trkpt>
      <trkpt lat="47.52104" lon="6.66361">
        <ele>425.7</ele>
        <time>2017-01-15T10:51:21.999Z</time>
      </trkpt>
      <trkpt lat="47.52104" lon="6.66366">
        <ele>425.8</ele>
        <time>2017-01-15T10:51:22.999Z</time>
      </trkpt>
      <trkpt lat="47.52105" lon="6.66371">
        <ele>425.8</ele>
        <time>2017-01-15T10:51:23.999Z</time>
      </trkpt>
      <trkpt lat="47.52106" lon="6.66376">
        <ele>425.9</ele>
        <time>2017-01-15T10:51:24.999Z</time>
      </trkpt>
      <trkpt lat="47.52107" lon="6.66381">
        <ele>425.9</ele>
        <time>2017-01-15T10:51:25.999Z</time>
      </trkpt>
      <trkpt lat="47.52108" lon="6.66386">
        <ele>425.9</ele>
        <time>2017-01-15T10:51:26.999Z</time>
      </trkpt>
      <trkpt lat="47.52109" lon="6.66392">
        <ele>425.9</ele>
        <time>2017-01-15T10:51:27.999Z</time>
      </trkpt>
      <trkpt lat="47.52109" lon="6.66396">
        <ele>425.9</ele>
        <time>2017-01-15T10:51:28.999Z</time>
      </trkpt>
      <trkpt lat="47.5211" lon="6.66402">
        <ele>425.9</ele>
        <time>2017-01-15T10:51:29.999Z</time>
      </trkpt>
      <trkpt lat="47.52111" lon="6.66408">
        <ele>425.9</ele>
        <time>2017-01-15T10:51:30.999Z</time>
      </trkpt>
      <trkpt lat="47.52112" lon="6.66414">
        <ele>425.9</ele>
        <time>2017-01-15T10:51:31.999Z</time>
      </trkpt>
      <trkpt lat="47.52113" lon="6.66419">
        <ele>425.9</ele>
        <time>2017-01-15T10:51:32.999Z</time>
      </trkpt>
      <trkpt lat="47.52113" lon="6.66423">
        <ele>425.8</ele>
        <time>2017-01-15T10:51:33.999Z</time>
      </trkpt>
      <trkpt lat="47.52114" lon="6.66429">
        <ele>425.9</ele>
        <time>2017-01-15T10:51:34.999Z</time>
      </trkpt>
      <trkpt lat="47.52114" lon="6.66435">
        <ele>425.8</ele>
        <time>2017-01-15T10:51:35.999Z</time>
      </trkpt>
      <trkpt lat="47.52115" lon="6.6644">
        <ele>425.8</ele>
        <time>2017-01-15T10:51:36.999Z</time>
      </trkpt>
      <trkpt lat="47.52115" lon="6.66445">
        <ele>425.8</ele>
        <time>2017-01-15T10:51:38.000Z</time>
      </trkpt>
      <trkpt lat="47.52116" lon="6.6645">
        <ele>425.7</ele>
        <time>2017-01-15T10:51:38.999Z</time>
      </trkpt>
      <trkpt lat="47.52116" lon="6.66455">
        <ele>425.7</ele>
        <time>2017-01-15T10:51:39.999Z</time>
      </trkpt>
      <trkpt lat="47.52115" lon="6.6646">
        <ele>425.7</ele>
        <time>2017-01-15T10:51:41.000Z</time>
      </trkpt>
      <trkpt lat="47.52115" lon="6.66466">
        <ele>425.6</ele>
        <time>2017-01-15T10:51:42.000Z</time>
      </trkpt>
      <trkpt lat="47.52115" lon="6.66471">
        <ele>425.7</ele>
        <time>2017-01-15T10:51:43.000Z</time>
      </trkpt>
      <trkpt lat="47.52115" lon="6.66477">
        <ele>425.7</ele>
        <time>2017-01-15T10:51:44.000Z</time>
      </trkpt>
      <trkpt lat="47.52115" lon="6.66482">
        <ele>425.8</ele>
        <time>2017-01-15T10:51:45.000Z</time>
      </trkpt>
      <trkpt lat="47.52114" lon="6.66487">
        <ele>425.8</ele>
        <time>2017-01-15T10:51:46.000Z</time>
      </trkpt>
      <trkpt lat="47.52114" lon="6.66494">
        <ele>425.9</ele>
        <time>2017-01-15T10:51:47.000Z</time>
      </trkpt>
      <trkpt lat="47.52114" lon="6.66499">
        <ele>425.9</ele>
        <time>2017-01-15T10:51:48.000Z</time>
      </trkpt>
      <trkpt lat="47.52114" lon="6.66504">
        <ele>426</ele>
        <time>2017-01-15T10:51:49.000Z</time>
      </trkpt>
      <trkpt lat="47.52113" lon="6.66509">
        <ele>426</ele>
        <time>2017-01-15T10:51:50.000Z</time>
      </trkpt>
      <trkpt lat="47.52113" lon="6.66513">
        <ele>426.1</ele>
        <time>2017-01-15T10:51:51.000Z</time>
      </trkpt>
      <trkpt lat="47.52112" lon="6.66519">
        <ele>426.2</ele>
        <time>2017-01-15T10:51:52.000Z</time>
      </trkpt>
      <trkpt lat="47.52112" lon="6.66524">
        <ele>426.3</ele>
        <time>2017-01-15T10:51:53.000Z</time>
      </trkpt>
      <trkpt lat="47.52111" lon="6.66528">
        <ele>426.4</ele>
        <time>2017-01-15T10:51:54.000Z</time>
      </trkpt>
      <trkpt lat="47.52111" lon="6.66533">
        <ele>426.4</ele>
        <time>2017-01-15T10:51:55.000Z</time>
      </trkpt>
      <trkpt lat="47.52111" lon="6.66538">
        <ele>426.6</ele>
        <time>2017-01-15T10:51:56.000Z</time>
      </trkpt>
      <trkpt lat="47.52111" lon="6.66543">
        <ele>426.6</ele>
        <time>2017-01-15T10:51:57.000Z</time>
      </trkpt>
      <trkpt lat="47.5211" lon="6.66547">
        <ele>426.7</ele>
        <time>2017-01-15T10:51:58.000Z</time>
      </trkpt>
      <trkpt lat="47.5211" lon="6.66552">
        <ele>426.7</ele>
        <time>2017-01-15T10:51:59.000Z</time>
      </trkpt>
      <trkpt lat="47.52109" lon="6.66555">
        <ele>426.8</ele>
        <time>2017-01-15T10:52:00.000Z</time>
      </trkpt>
      <trkpt lat="47.52109" lon="6.66559">
        <ele>426.9</ele>
        <time>2017-01-15T10:52:01.000Z</time>
      </trkpt>
      <trkpt lat="47.52109" lon="6.66565">
        <ele>427</ele>
        <time>2017-01-15T10:52:03.000Z</time>
      </trkpt>
      <trkpt lat="47.52109" lon="6.66569">
        <ele>427.1</ele>
        <time>2017-01-15T10:52:04.000Z</time>
      </trkpt>
      <trkpt lat="47.52109" lon="6.66574">
        <ele>427.2</ele>
        <time>2017-01-15T10:52:05.000Z</time>
      </trkpt>
      <trkpt lat="47.52108" lon="6.66578">
        <ele>427.3</ele>
        <time>2017-01-15T10:52:06.000Z</time>
      </trkpt>
      <trkpt lat="47.52108" lon="6.66583">
        <ele>427.3</ele>
        <time>2017-01-15T10:52:07.000Z</time>
      </trkpt>
      <trkpt lat="47.52107" lon="6.66587">
        <ele>427.4</ele>
        <time>2017-01-15T10:52:08.000Z</time>
      </trkpt>
      <trkpt lat="47.52107" lon="6.66594">
        <ele>427.5</ele>
        <time>2017-01-15T10:52:09.000Z</time>
      </trkpt>
      <trkpt lat="47.52107" lon="6.66599">
        <ele>427.5</ele>
        <time>2017-01-15T10:52:10.000Z</time>
      </trkpt>
      <trkpt lat="47.52107" lon="6.66603">
        <ele>427.6</ele>
        <time>2017-01-15T10:52:11.000Z</time>
      </trkpt>
      <trkpt lat="47.52107" lon="6.66607">
        <ele>427.7</ele>
        <time>2017-01-15T10:52:12.000Z</time>
      </trkpt>
      <trkpt lat="47.52107" lon="6.66612">
        <ele>427.7</ele>
        <time>2017-01-15T10:52:13.000Z</time>
      </trkpt>
      <trkpt lat="47.52107" lon="6.66616">
        <ele>427.7</ele>
        <time>2017-01-15T10:52:14.000Z</time>
      </trkpt>
      <trkpt lat="47.52107" lon="6.66621">
        <ele>427.7</ele>
        <time>2017-01-15T10:52:15.000Z</time>
      </trkpt>
      <trkpt lat="47.52107" lon="6.66627">
        <ele>427.7</ele>
        <time>2017-01-15T10:52:16.000Z</time>
      </trkpt>
      <trkpt lat="47.52107" lon="6.66632">
        <ele>427.8</ele>
        <time>2017-01-15T10:52:17.000Z</time>
      </trkpt>
      <trkpt lat="47.52107" lon="6.66638">
        <ele>427.5</ele>
        <time>2017-01-15T10:52:18.000Z</time>
      </trkpt>
      <trkpt lat="47.52108" lon="6.66644">
        <ele>427.7</ele>
        <time>2017-01-15T10:52:19.000Z</time>
      </trkpt>
      <trkpt lat="47.52108" lon="6.66649">
        <ele>428</ele>
        <time>2017-01-15T10:52:20.000Z</time>
      </trkpt>
      <trkpt lat="47.52108" lon="6.66655">
        <ele>427.8</ele>
        <time>2017-01-15T10:52:21.000Z</time>
      </trkpt>
      <trkpt lat="47.52108" lon="6.6666">
        <ele>427.8</ele>
        <time>2017-01-15T10:52:22.000Z</time>
      </trkpt>
      <trkpt lat="47.52108" lon="6.66667">
        <ele>428.3</ele>
        <time>2017-01-15T10:52:23.000Z</time>
      </trkpt>
      <trkpt lat="47.52108" lon="6.66673">
        <ele>428.8</ele>
        <time>2017-01-15T10:52:24.000Z</time>
      </trkpt>
      <trkpt lat="47.52109" lon="6.66678">
        <ele>429</ele>
        <time>2017-01-15T10:52:25.000Z</time>
      </trkpt>
      <trkpt lat="47.52109" lon="6.66684">
        <ele>428.6</ele>
        <time>2017-01-15T10:52:26.000Z</time>
      </trkpt>
      <trkpt lat="47.52109" lon="6.66691">
        <ele>428.3</ele>
        <time>2017-01-15T10:52:27.000Z</time>
      </trkpt>
      <trkpt lat="47.52109" lon="6.66698">
        <ele>428.5</ele>
        <time>2017-01-15T10:52:28.000Z</time>
      </trkpt>
      <trkpt lat="47.52109" lon="6.66704">
        <ele>428.5</ele>
        <time>2017-01-15T10:52:29.000Z</time>
      </trkpt>
      <trkpt lat="47.52109" lon="6.66711">
        <ele>428.2</ele>
        <time>2017-01-15T10:52:30.000Z</time>
      </trkpt>
      <trkpt lat="47.52109" lon="6.66717">
        <ele>427.9</ele>
        <time>2017-01-15T10:52:31.000Z</time>
      </trkpt>
      <trkpt lat="47.52109" lon="6.66722">
        <ele>427.9</ele>
        <time>2017-01-15T10:52:32.000Z</time>
      </trkpt>
      <trkpt lat="47.52109" lon="6.66727">
        <ele>427.6</ele>
        <time>2017-01-15T10:52:33.000Z</time>
      </trkpt>
      <trkpt lat="47.52108" lon="6.66733">
        <ele>427.3</ele>
        <time>2017-01-15T10:52:34.000Z</time>
      </trkpt>
      <trkpt lat="47.52108" lon="6.66739">
        <ele>427</ele>
        <time>2017-01-15T10:52:35.000Z</time>
      </trkpt>
      <trkpt lat="47.52107" lon="6.66745">
        <ele>427.1</ele>
        <time>2017-01-15T10:52:36.000Z</time>
      </trkpt>
      <trkpt lat="47.52107" lon="6.66751">
        <ele>426.9</ele>
        <time>2017-01-15T10:52:37.000Z</time>
      </trkpt>
      <trkpt lat="47.52106" lon="6.66758">
        <ele>426.9</ele>
        <time>2017-01-15T10:52:38.000Z</time>
      </trkpt>
      <trkpt lat="47.52106" lon="6.66766">
        <ele>426.7</ele>
        <time>2017-01-15T10:52:39.000Z</time>
      </trkpt>
      <trkpt lat="47.52106" lon="6.66772">
        <ele>426.8</ele>
        <time>2017-01-15T10:52:40.000Z</time>
      </trkpt>
      <trkpt lat="47.52105" lon="6.66779">
        <ele>426.8</ele>
        <time>2017-01-15T10:52:41.000Z</time>
      </trkpt>
      <trkpt lat="47.52105" lon="6.66788">
        <ele>426.9</ele>
        <time>2017-01-15T10:52:42.000Z</time>
      </trkpt>
      <trkpt lat="47.52105" lon="6.66796">
        <ele>427.3</ele>
        <time>2017-01-15T10:52:43.000Z</time>
      </trkpt>
      <trkpt lat="47.52105" lon="6.66803">
        <ele>427.2</ele>
        <time>2017-01-15T10:52:44.000Z</time>
      </trkpt>
      <trkpt lat="47.52105" lon="6.6681">
        <ele>426.9</ele>
        <time>2017-01-15T10:52:45.000Z</time>
      </trkpt>
      <trkpt lat="47.52105" lon="6.66818">
        <ele>426.7</ele>
        <time>2017-01-15T10:52:46.000Z</time>
      </trkpt>
      <trkpt lat="47.52106" lon="6.66824">
        <ele>426.4</ele>
        <time>2017-01-15T10:52:47.000Z</time>
      </trkpt>
      <trkpt lat="47.52106" lon="6.66831">
        <ele>426</ele>
        <time>2017-01-15T10:52:48.000Z</time>
      </trkpt>
      <trkpt lat="47.52107" lon="6.66839">
        <ele>425.6</ele>
        <time>2017-01-15T10:52:49.000Z</time>
      </trkpt>
      <trkpt lat="47.52107" lon="6.66846">
        <ele>425.1</ele>
        <time>2017-01-15T10:52:50.000Z</time>
      </trkpt>
      <trkpt lat="47.52108" lon="6.66854">
        <ele>424.8</ele>
        <time>2017-01-15T10:52:51.000Z</time>
      </trkpt>
      <trkpt lat="47.52108" lon="6.66862">
        <ele>424.6</ele>
        <time>2017-01-15T10:52:52.000Z</time>
      </trkpt>
      <trkpt lat="47.52108" lon="6.66871">
        <ele>424.3</ele>
        <time>2017-01-15T10:52:53.000Z</time>
      </trkpt>
      <trkpt lat="47.52109" lon="6.66879">
        <ele>424</ele>
        <time>2017-01-15T10:52:54.000Z</time>
      </trkpt>
      <trkpt lat="47.52109" lon="6.66885">
        <ele>423.4</ele>
        <time>2017-01-15T10:52:55.000Z</time>
      </trkpt>
      <trkpt lat="47.52109" lon="6.66893">
        <ele>423.4</ele>
        <time>2017-01-15T10:52:56.000Z</time>
      </trkpt>
      <trkpt lat="47.5211" lon="6.66901">
        <ele>423.6</ele>
        <time>2017-01-15T10:52:57.000Z</time>
      </trkpt>
      <trkpt lat="47.5211" lon="6.66908">
        <ele>424.1</ele>
        <time>2017-01-15T10:52:58.000Z</time>
      </trkpt>
      <trkpt lat="47.5211" lon="6.66914">
        <ele>423.7</ele>
        <time>2017-01-15T10:52:59.000Z</time>
      </trkpt>
      <trkpt lat="47.5211" lon="6.66921">
        <ele>423.6</ele>
        <time>2017-01-15T10:53:00.000Z</time>
      </trkpt>
      <trkpt lat="47.5211" lon="6.66928">
        <ele>423.6</ele>
        <time>2017-01-15T10:53:01.000Z</time>
      </trkpt>
      <trkpt lat="47.5211" lon="6.66936">
        <ele>424</ele>
        <time>2017-01-15T10:53:02.000Z</time>
      </trkpt>
      <trkpt lat="47.52111" lon="6.66944">
        <ele>424.2</ele>
        <time>2017-01-15T10:53:03.000Z</time>
      </trkpt>
      <trkpt lat="47.52111" lon="6.6695">
        <ele>424.8</ele>
        <time>2017-01-15T10:53:04.000Z</time>
      </trkpt>
      <trkpt lat="47.52111" lon="6.66959">
        <ele>425.2</ele>
        <time>2017-01-15T10:53:05.000Z</time>
      </trkpt>
      <trkpt lat="47.52112" lon="6.66966">
        <ele>425.5</ele>
        <time>2017-01-15T10:53:06.000Z</time>
      </trkpt>
      <trkpt lat="47.52112" lon="6.66973">
        <ele>425.7</ele>
        <time>2017-01-15T10:53:07.000Z</time>
      </trkpt>
      <trkpt lat="47.52113" lon="6.6698">
        <ele>425.3</ele>
        <time>2017-01-15T10:53:08.000Z</time>
      </trkpt>
      <trkpt lat="47.52114" lon="6.66987">
        <ele>424.5</ele>
        <time>2017-01-15T10:53:09.000Z</time>
      </trkpt>
      <trkpt lat="47.52115" lon="6.66995">
        <ele>424.5</ele>
        <time>2017-01-15T10:53:10.000Z</time>
      </trkpt>
      <trkpt lat="47.52116" lon="6.67003">
        <ele>423.8</ele>
        <time>2017-01-15T10:53:11.000Z</time>
      </trkpt>
      <trkpt lat="47.52117" lon="6.67009">
        <ele>423.6</ele>
        <time>2017-01-15T10:53:12.000Z</time>
      </trkpt>
      <trkpt lat="47.52118" lon="6.67016">
        <ele>423.7</ele>
        <time>2017-01-15T10:53:13.000Z</time>
      </trkpt>
      <trkpt lat="47.5212" lon="6.67022">
        <ele>423.5</ele>
        <time>2017-01-15T10:53:14.000Z</time>
      </trkpt>
      <trkpt lat="47.52121" lon="6.67029">
        <ele>423.5</ele>
        <time>2017-01-15T10:53:15.000Z</time>
      </trkpt>
      <trkpt lat="47.52123" lon="6.67037">
        <ele>423.1</ele>
        <time>2017-01-15T10:53:16.000Z</time>
      </trkpt>
      <trkpt lat="47.52124" lon="6.67044">
        <ele>422.7</ele>
        <time>2017-01-15T10:53:17.000Z</time>
      </trkpt>
      <trkpt lat="47.52126" lon="6.67052">
        <ele>422.7</ele>
        <time>2017-01-15T10:53:18.000Z</time>
      </trkpt>
      <trkpt lat="47.52127" lon="6.67058">
        <ele>422.5</ele>
        <time>2017-01-15T10:53:19.000Z</time>
      </trkpt>
      <trkpt lat="47.52129" lon="6.67066">
        <ele>422.4</ele>
        <time>2017-01-15T10:53:20.000Z</time>
      </trkpt>
      <trkpt lat="47.5213" lon="6.67072">
        <ele>422.6</ele>
        <time>2017-01-15T10:53:21.000Z</time>
      </trkpt>
      <trkpt lat="47.52131" lon="6.67079">
        <ele>422.9</ele>
        <time>2017-01-15T10:53:22.000Z</time>
      </trkpt>
      <trkpt lat="47.52133" lon="6.67087">
        <ele>422.9</ele>
        <time>2017-01-15T10:53:23.000Z</time>
      </trkpt>
      <trkpt lat="47.52135" lon="6.67094">
        <ele>423</ele>
        <time>2017-01-15T10:53:24.000Z</time>
      </trkpt>
      <trkpt lat="47.52136" lon="6.67101">
        <ele>423</ele>
        <time>2017-01-15T10:53:25.000Z</time>
      </trkpt>
      <trkpt lat="47.52138" lon="6.67108">
        <ele>423.3</ele>
        <time>2017-01-15T10:53:26.000Z</time>
      </trkpt>
      <trkpt lat="47.52139" lon="6.67116">
        <ele>423.7</ele>
        <time>2017-01-15T10:53:27.000Z</time>
      </trkpt>
      <trkpt lat="47.5214" lon="6.67123">
        <ele>423.8</ele>
        <time>2017-01-15T10:53:28.000Z</time>
      </trkpt>
      <trkpt lat="47.52142" lon="6.67129">
        <ele>423.7</ele>
        <time>2017-01-15T10:53:29.000Z</time>
      </trkpt>
      <trkpt lat="47.52143" lon="6.67136">
        <ele>423.9</ele>
        <time>2017-01-15T10:53:30.000Z</time>
      </trkpt>
      <trkpt lat="47.52144" lon="6.67144">
        <ele>424.1</ele>
        <time>2017-01-15T10:53:31.000Z</time>
      </trkpt>
      <trkpt lat="47.52145" lon="6.67151">
        <ele>424.1</ele>
        <time>2017-01-15T10:53:32.000Z</time>
      </trkpt>
      <trkpt lat="47.52146" lon="6.67157">
        <ele>424.4</ele>
        <time>2017-01-15T10:53:33.000Z</time>
      </trkpt>
      <trkpt lat="47.52148" lon="6.67163">
        <ele>424.2</ele>
        <time>2017-01-15T10:53:34.000Z</time>
      </trkpt>
      <trkpt lat="47.52149" lon="6.6717">
        <ele>423.9</ele>
        <time>2017-01-15T10:53:35.000Z</time>
      </trkpt>
      <trkpt lat="47.5215" lon="6.67176">
        <ele>423.8</ele>
        <time>2017-01-15T10:53:36.000Z</time>
      </trkpt>
      <trkpt lat="47.52151" lon="6.67182">
        <ele>423.2</ele>
        <time>2017-01-15T10:53:37.000Z</time>
      </trkpt>
      <trkpt lat="47.52153" lon="6.67189">
        <ele>423.4</ele>
        <time>2017-01-15T10:53:38.000Z</time>
      </trkpt>
      <trkpt lat="47.52154" lon="6.67197">
        <ele>423.6</ele>
        <time>2017-01-15T10:53:39.000Z</time>
      </trkpt>
      <trkpt lat="47.52155" lon="6.67203">
        <ele>423.6</ele>
        <time>2017-01-15T10:53:40.000Z</time>
      </trkpt>
      <trkpt lat="47.52157" lon="6.6721">
        <ele>423.2</ele>
        <time>2017-01-15T10:53:41.000Z</time>
      </trkpt>
      <trkpt lat="47.52158" lon="6.67215">
        <ele>423</ele>
        <time>2017-01-15T10:53:42.000Z</time>
      </trkpt>
      <trkpt lat="47.52159" lon="6.6722">
        <ele>423</ele>
        <time>2017-01-15T10:53:43.000Z</time>
      </trkpt>
      <trkpt lat="47.5216" lon="6.67225">
        <ele>423.2</ele>
        <time>2017-01-15T10:53:44.000Z</time>
      </trkpt>
      <trkpt lat="47.52161" lon="6.67232">
        <ele>422.8</ele>
        <time>2017-01-15T10:53:45.000Z</time>
      </trkpt>
      <trkpt lat="47.52162" lon="6.67239">
        <ele>422.2</ele>
        <time>2017-01-15T10:53:46.000Z</time>
      </trkpt>
      <trkpt lat="47.52164" lon="6.67245">
        <ele>421.9</ele>
        <time>2017-01-15T10:53:47.000Z</time>
      </trkpt>
      <trkpt lat="47.52165" lon="6.67251">
        <ele>421.7</ele>
        <time>2017-01-15T10:53:48.000Z</time>
      </trkpt>
      <trkpt lat="47.52166" lon="6.67257">
        <ele>421.5</ele>
        <time>2017-01-15T10:53:49.000Z</time>
      </trkpt>
      <trkpt lat="47.52167" lon="6.67263">
        <ele>421.7</ele>
        <time>2017-01-15T10:53:50.000Z</time>
      </trkpt>
      <trkpt lat="47.52168" lon="6.67269">
        <ele>421.8</ele>
        <time>2017-01-15T10:53:51.000Z</time>
      </trkpt>
      <trkpt lat="47.52168" lon="6.67274">
        <ele>421.8</ele>
        <time>2017-01-15T10:53:52.000Z</time>
      </trkpt>
      <trkpt lat="47.52169" lon="6.6728">
        <ele>421.8</ele>
        <time>2017-01-15T10:53:53.000Z</time>
      </trkpt>
      <trkpt lat="47.52169" lon="6.67287">
        <ele>421.8</ele>
        <time>2017-01-15T10:53:54.000Z</time>
      </trkpt>
      <trkpt lat="47.5217" lon="6.67295">
        <ele>422.2</ele>
        <time>2017-01-15T10:53:55.000Z</time>
      </trkpt>
      <trkpt lat="47.5217" lon="6.67301">
        <ele>422.5</ele>
        <time>2017-01-15T10:53:56.000Z</time>
      </trkpt>
      <trkpt lat="47.5217" lon="6.67309">
        <ele>422.6</ele>
        <time>2017-01-15T10:53:57.000Z</time>
      </trkpt>
      <trkpt lat="47.52171" lon="6.67317">
        <ele>422.7</ele>
        <time>2017-01-15T10:53:58.000Z</time>
      </trkpt>
      <trkpt lat="47.52171" lon="6.67325">
        <ele>422.8</ele>
        <time>2017-01-15T10:53:59.000Z</time>
      </trkpt>
      <trkpt lat="47.52172" lon="6.67333">
        <ele>423</ele>
        <time>2017-01-15T10:54:00.000Z</time>
      </trkpt>
      <trkpt lat="47.52172" lon="6.6734">
        <ele>422.8</ele>
        <time>2017-01-15T10:54:01.000Z</time>
      </trkpt>
      <trkpt lat="47.52173" lon="6.67347">
        <ele>422.9</ele>
        <time>2017-01-15T10:54:02.000Z</time>
      </trkpt>
      <trkpt lat="47.52174" lon="6.67356">
        <ele>423.1</ele>
        <time>2017-01-15T10:54:03.000Z</time>
      </trkpt>
      <trkpt lat="47.52175" lon="6.67364">
        <ele>423</ele>
        <time>2017-01-15T10:54:04.000Z</time>
      </trkpt>
      <trkpt lat="47.52176" lon="6.67372">
        <ele>423</ele>
        <time>2017-01-15T10:54:05.000Z</time>
      </trkpt>
      <trkpt lat="47.52178" lon="6.67379">
        <ele>422.7</ele>
        <time>2017-01-15T10:54:06.000Z</time>
      </trkpt>
      <trkpt lat="47.52179" lon="6.67385">
        <ele>422.1</ele>
        <time>2017-01-15T10:54:07.000Z</time>
      </trkpt>
      <trkpt lat="47.52181" lon="6.67392">
        <ele>421.5</ele>
        <time>2017-01-15T10:54:08.000Z</time>
      </trkpt>
      <trkpt lat="47.52183" lon="6.67397">
        <ele>420.4</ele>
        <time>2017-01-15T10:54:09.000Z</time>
      </trkpt>
      <trkpt lat="47.52185" lon="6.67402">
        <ele>420.4</ele>
        <time>2017-01-15T10:54:10.000Z</time>
      </trkpt>
      <trkpt lat="47.52187" lon="6.67405">
        <ele>420.4</ele>
        <time>2017-01-15T10:54:11.000Z</time>
      </trkpt>
      <trkpt lat="47.52188" lon="6.6741">
        <ele>420.3</ele>
        <time>2017-01-15T10:54:12.000Z</time>
      </trkpt>
      <trkpt lat="47.5219" lon="6.67415">
        <ele>420.2</ele>
        <time>2017-01-15T10:54:13.000Z</time>
      </trkpt>
      <trkpt lat="47.52192" lon="6.6742">
        <ele>420.2</ele>
        <time>2017-01-15T10:54:14.000Z</time>
      </trkpt>
      <trkpt lat="47.52194" lon="6.67425">
        <ele>420.1</ele>
        <time>2017-01-15T10:54:15.000Z</time>
      </trkpt>
      <trkpt lat="47.52196" lon="6.6743">
        <ele>420.1</ele>
        <time>2017-01-15T10:54:16.000Z</time>
      </trkpt>
      <trkpt lat="47.52197" lon="6.67435">
        <ele>420.1</ele>
        <time>2017-01-15T10:54:17.000Z</time>
      </trkpt>
      <trkpt lat="47.52199" lon="6.67441">
        <ele>420.1</ele>
        <time>2017-01-15T10:54:18.000Z</time>
      </trkpt>
      <trkpt lat="47.522" lon="6.67447">
        <ele>420.1</ele>
        <time>2017-01-15T10:54:19.000Z</time>
      </trkpt>
      <trkpt lat="47.52201" lon="6.67452">
        <ele>420.1</ele>
        <time>2017-01-15T10:54:20.000Z</time>
      </trkpt>
      <trkpt lat="47.52202" lon="6.67456">
        <ele>420.1</ele>
        <time>2017-01-15T10:54:21.000Z</time>
      </trkpt>
      <trkpt lat="47.52204" lon="6.67462">
        <ele>420.1</ele>
        <time>2017-01-15T10:54:22.000Z</time>
      </trkpt>
      <trkpt lat="47.52206" lon="6.67469">
        <ele>420.2</ele>
        <time>2017-01-15T10:54:23.000Z</time>
      </trkpt>
      <trkpt lat="47.52206" lon="6.67475">
        <ele>420.2</ele>
        <time>2017-01-15T10:54:24.000Z</time>
      </trkpt>
      <trkpt lat="47.52207" lon="6.67481">
        <ele>420.3</ele>
        <time>2017-01-15T10:54:25.000Z</time>
      </trkpt>
      <trkpt lat="47.52208" lon="6.67488">
        <ele>421.1</ele>
        <time>2017-01-15T10:54:26.000Z</time>
      </trkpt>
      <trkpt lat="47.52208" lon="6.67493">
        <ele>421.9</ele>
        <time>2017-01-15T10:54:27.000Z</time>
      </trkpt>
      <trkpt lat="47.52207" lon="6.67498">
        <ele>423</ele>
        <time>2017-01-15T10:54:28.000Z</time>
      </trkpt>
      <trkpt lat="47.52207" lon="6.67502">
        <ele>423.6</ele>
        <time>2017-01-15T10:54:29.000Z</time>
      </trkpt>
      <trkpt lat="47.52207" lon="6.67508">
        <ele>423.9</ele>
        <time>2017-01-15T10:54:30.000Z</time>
      </trkpt>
      <trkpt lat="47.52207" lon="6.67513">
        <ele>423.9</ele>
        <time>2017-01-15T10:54:31.000Z</time>
      </trkpt>
      <trkpt lat="47.52206" lon="6.6752">
        <ele>424.6</ele>
        <time>2017-01-15T10:54:32.000Z</time>
      </trkpt>
      <trkpt lat="47.52206" lon="6.67527">
        <ele>424.9</ele>
        <time>2017-01-15T10:54:33.000Z</time>
      </trkpt>
      <trkpt lat="47.52206" lon="6.67534">
        <ele>425</ele>
        <time>2017-01-15T10:54:34.000Z</time>
      </trkpt>
      <trkpt lat="47.52206" lon="6.6754">
        <ele>425.3</ele>
        <time>2017-01-15T10:54:35.000Z</time>
      </trkpt>
      <trkpt lat="47.52205" lon="6.67547">
        <ele>425.8</ele>
        <time>2017-01-15T10:54:36.000Z</time>
      </trkpt>
      <trkpt lat="47.52205" lon="6.67554">
        <ele>426.2</ele>
        <time>2017-01-15T10:54:37.000Z</time>
      </trkpt>
      <trkpt lat="47.52205" lon="6.6756">
        <ele>425.9</ele>
        <time>2017-01-15T10:54:38.000Z</time>
      </trkpt>
      <trkpt lat="47.52204" lon="6.67566">
        <ele>425.9</ele>
        <time>2017-01-15T10:54:39.000Z</time>
      </trkpt>
      <trkpt lat="47.52204" lon="6.67573">
        <ele>425.7</ele>
        <time>2017-01-15T10:54:40.000Z</time>
      </trkpt>
      <trkpt lat="47.52204" lon="6.67581">
        <ele>425.9</ele>
        <time>2017-01-15T10:54:41.000Z</time>
      </trkpt>
      <trkpt lat="47.52204" lon="6.67588">
        <ele>426</ele>
        <time>2017-01-15T10:54:42.000Z</time>
      </trkpt>
      <trkpt lat="47.52203" lon="6.67595">
        <ele>426.1</ele>
        <time>2017-01-15T10:54:43.000Z</time>
      </trkpt>
      <trkpt lat="47.52203" lon="6.67602">
        <ele>425.9</ele>
        <time>2017-01-15T10:54:44.000Z</time>
      </trkpt>
      <trkpt lat="47.52203" lon="6.67609">
        <ele>425.6</ele>
        <time>2017-01-15T10:54:45.000Z</time>
      </trkpt>
      <trkpt lat="47.52203" lon="6.67615">
        <ele>425.6</ele>
        <time>2017-01-15T10:54:46.000Z</time>
      </trkpt>
      <trkpt lat="47.52202" lon="6.67621">
        <ele>425</ele>
        <time>2017-01-15T10:54:47.000Z</time>
      </trkpt>
      <trkpt lat="47.52202" lon="6.67628">
        <ele>424.6</ele>
        <time>2017-01-15T10:54:48.000Z</time>
      </trkpt>
      <trkpt lat="47.52202" lon="6.67635">
        <ele>424.1</ele>
        <time>2017-01-15T10:54:49.000Z</time>
      </trkpt>
      <trkpt lat="47.52201" lon="6.67642">
        <ele>423.8</ele>
        <time>2017-01-15T10:54:50.000Z</time>
      </trkpt>
      <trkpt lat="47.52201" lon="6.67648">
        <ele>423.5</ele>
        <time>2017-01-15T10:54:51.000Z</time>
      </trkpt>
      <trkpt lat="47.522" lon="6.67656">
        <ele>423.4</ele>
        <time>2017-01-15T10:54:52.000Z</time>
      </trkpt>
      <trkpt lat="47.522" lon="6.67664">
        <ele>422.9</ele>
        <time>2017-01-15T10:54:53.000Z</time>
      </trkpt>
      <trkpt lat="47.522" lon="6.67671">
        <ele>422.4</ele>
        <time>2017-01-15T10:54:54.000Z</time>
      </trkpt>
      <trkpt lat="47.522" lon="6.6768">
        <ele>421.8</ele>
        <time>2017-01-15T10:54:55.000Z</time>
      </trkpt>
      <trkpt lat="47.522" lon="6.67689">
        <ele>420.8</ele>
        <time>2017-01-15T10:54:56.000Z</time>
      </trkpt>
      <trkpt lat="47.52199" lon="6.67698">
        <ele>420.5</ele>
        <time>2017-01-15T10:54:57.000Z</time>
      </trkpt>
      <trkpt lat="47.52199" lon="6.67706">
        <ele>420.7</ele>
        <time>2017-01-15T10:54:58.000Z</time>
      </trkpt>
      <trkpt lat="47.52199" lon="6.67714">
        <ele>420.8</ele>
        <time>2017-01-15T10:54:59.000Z</time>
      </trkpt>
      <trkpt lat="47.52198" lon="6.67722">
        <ele>420.3</ele>
        <time>2017-01-15T10:55:00.000Z</time>
      </trkpt>
      <trkpt lat="47.52198" lon="6.6773">
        <ele>419.8</ele>
        <time>2017-01-15T10:55:01.000Z</time>
      </trkpt>
      <trkpt lat="47.52198" lon="6.67737">
        <ele>419.8</ele>
        <time>2017-01-15T10:55:02.000Z</time>
      </trkpt>
      <trkpt lat="47.52197" lon="6.67744">
        <ele>419.7</ele>
        <time>2017-01-15T10:55:03.000Z</time>
      </trkpt>
      <trkpt lat="47.52197" lon="6.67752">
        <ele>419.4</ele>
        <time>2017-01-15T10:55:04.000Z</time>
      </trkpt>
      <trkpt lat="47.52197" lon="6.67758">
        <ele>419.1</ele>
        <time>2017-01-15T10:55:05.000Z</time>
      </trkpt>
      <trkpt lat="47.52196" lon="6.67765">
        <ele>418.8</ele>
        <time>2017-01-15T10:55:06.000Z</time>
      </trkpt>
      <trkpt lat="47.52196" lon="6.67772">
        <ele>418.5</ele>
        <time>2017-01-15T10:55:07.000Z</time>
      </trkpt>
      <trkpt lat="47.52195" lon="6.6778">
        <ele>417.5</ele>
        <time>2017-01-15T10:55:08.000Z</time>
      </trkpt>
      <trkpt lat="47.52195" lon="6.67787">
        <ele>416.6</ele>
        <time>2017-01-15T10:55:09.000Z</time>
      </trkpt>
      <trkpt lat="47.52194" lon="6.67794">
        <ele>416</ele>
        <time>2017-01-15T10:55:10.000Z</time>
      </trkpt>
      <trkpt lat="47.52194" lon="6.67802">
        <ele>415.6</ele>
        <time>2017-01-15T10:55:11.000Z</time>
      </trkpt>
      <trkpt lat="47.52194" lon="6.67809">
        <ele>415.4</ele>
        <time>2017-01-15T10:55:12.000Z</time>
      </trkpt>
      <trkpt lat="47.52193" lon="6.67817">
        <ele>415.5</ele>
        <time>2017-01-15T10:55:13.000Z</time>
      </trkpt>
      <trkpt lat="47.52193" lon="6.67825">
        <ele>415.3</ele>
        <time>2017-01-15T10:55:14.000Z</time>
      </trkpt>
      <trkpt lat="47.52192" lon="6.67832">
        <ele>415.1</ele>
        <time>2017-01-15T10:55:15.000Z</time>
      </trkpt>
      <trkpt lat="47.52192" lon="6.67838">
        <ele>415.2</ele>
        <time>2017-01-15T10:55:16.000Z</time>
      </trkpt>
      <trkpt lat="47.52191" lon="6.67845">
        <ele>415.2</ele>
        <time>2017-01-15T10:55:17.000Z</time>
      </trkpt>
      <trkpt lat="47.52191" lon="6.67851">
        <ele>415.2</ele>
        <time>2017-01-15T10:55:18.000Z</time>
      </trkpt>
      <trkpt lat="47.5219" lon="6.67859">
        <ele>415</ele>
        <time>2017-01-15T10:55:19.000Z</time>
      </trkpt>
      <trkpt lat="47.52189" lon="6.67865">
        <ele>414.5</ele>
        <time>2017-01-15T10:55:20.000Z</time>
      </trkpt>
      <trkpt lat="47.52189" lon="6.67872">
        <ele>413.9</ele>
        <time>2017-01-15T10:55:21.000Z</time>
      </trkpt>
      <trkpt lat="47.52189" lon="6.67878">
        <ele>413.2</ele>
        <time>2017-01-15T10:55:22.000Z</time>
      </trkpt>
      <trkpt lat="47.52188" lon="6.67885">
        <ele>412.9</ele>
        <time>2017-01-15T10:55:23.000Z</time>
      </trkpt>
      <trkpt lat="47.52187" lon="6.67892">
        <ele>412.6</ele>
        <time>2017-01-15T10:55:24.000Z</time>
      </trkpt>
      <trkpt lat="47.52187" lon="6.67899">
        <ele>412.3</ele>
        <time>2017-01-15T10:55:25.000Z</time>
      </trkpt>
      <trkpt lat="47.52187" lon="6.67906">
        <ele>412.5</ele>
        <time>2017-01-15T10:55:26.000Z</time>
      </trkpt>
      <trkpt lat="47.52186" lon="6.67913">
        <ele>412.4</ele>
        <time>2017-01-15T10:55:27.000Z</time>
      </trkpt>
      <trkpt lat="47.52185" lon="6.67921">
        <ele>412.6</ele>
        <time>2017-01-15T10:55:28.000Z</time>
      </trkpt>
      <trkpt lat="47.52185" lon="6.67928">
        <ele>412.9</ele>
        <time>2017-01-15T10:55:29.000Z</time>
      </trkpt>
      <trkpt lat="47.52184" lon="6.67936">
        <ele>413.1</ele>
        <time>2017-01-15T10:55:30.000Z</time>
      </trkpt>
      <trkpt lat="47.52183" lon="6.67944">
        <ele>413.1</ele>
        <time>2017-01-15T10:55:31.000Z</time>
      </trkpt>
      <trkpt lat="47.52183" lon="6.67951">
        <ele>413.2</ele>
        <time>2017-01-15T10:55:32.000Z</time>
      </trkpt>
      <trkpt lat="47.52182" lon="6.67957">
        <ele>412.9</ele>
        <time>2017-01-15T10:55:33.000Z</time>
      </trkpt>
      <trkpt lat="47.52182" lon="6.67964">
        <ele>412.7</ele>
        <time>2017-01-15T10:55:34.000Z</time>
      </trkpt>
      <trkpt lat="47.52181" lon="6.6797">
        <ele>412.8</ele>
        <time>2017-01-15T10:55:35.000Z</time>
      </trkpt>
      <trkpt lat="47.52181" lon="6.67978">
        <ele>412.7</ele>
        <time>2017-01-15T10:55:36.000Z</time>
      </trkpt>
      <trkpt lat="47.5218" lon="6.67985">
        <ele>412.7</ele>
        <time>2017-01-15T10:55:37.000Z</time>
      </trkpt>
      <trkpt lat="47.52179" lon="6.67993">
        <ele>412.3</ele>
        <time>2017-01-15T10:55:38.000Z</time>
      </trkpt>
      <trkpt lat="47.52178" lon="6.68001">
        <ele>412.3</ele>
        <time>2017-01-15T10:55:39.000Z</time>
      </trkpt>
      <trkpt lat="47.52178" lon="6.68009">
        <ele>412.4</ele>
        <time>2017-01-15T10:55:40.000Z</time>
      </trkpt>
      <trkpt lat="47.52177" lon="6.68016">
        <ele>412.6</ele>
        <time>2017-01-15T10:55:41.000Z</time>
      </trkpt>
      <trkpt lat="47.52176" lon="6.68024">
        <ele>412.8</ele>
        <time>2017-01-15T10:55:42.000Z</time>
      </trkpt>
      <trkpt lat="47.52176" lon="6.68033">
        <ele>413.2</ele>
        <time>2017-01-15T10:55:43.000Z</time>
      </trkpt>
      <trkpt lat="47.52175" lon="6.68039">
        <ele>413.4</ele>
        <time>2017-01-15T10:55:44.000Z</time>
      </trkpt>
      <trkpt lat="47.52175" lon="6.68045">
        <ele>413.5</ele>
        <time>2017-01-15T10:55:45.000Z</time>
      </trkpt>
      <trkpt lat="47.52174" lon="6.68051">
        <ele>413.4</ele>
        <time>2017-01-15T10:55:46.000Z</time>
      </trkpt>
      <trkpt lat="47.52174" lon="6.68057">
        <ele>413.3</ele>
        <time>2017-01-15T10:55:47.000Z</time>
      </trkpt>
      <trkpt lat="47.52173" lon="6.68063">
        <ele>413.3</ele>
        <time>2017-01-15T10:55:48.000Z</time>
      </trkpt>
      <trkpt lat="47.52173" lon="6.68069">
        <ele>413.4</ele>
        <time>2017-01-15T10:55:49.000Z</time>
      </trkpt>
      <trkpt lat="47.52172" lon="6.68075">
        <ele>413.6</ele>
        <time>2017-01-15T10:55:50.000Z</time>
      </trkpt>
      <trkpt lat="47.52171" lon="6.68082">
        <ele>413.5</ele>
        <time>2017-01-15T10:55:51.000Z</time>
      </trkpt>
      <trkpt lat="47.5217" lon="6.68089">
        <ele>413.6</ele>
        <time>2017-01-15T10:55:52.000Z</time>
      </trkpt>
      <trkpt lat="47.5217" lon="6.68093">
        <ele>413.6</ele>
        <time>2017-01-15T10:55:53.000Z</time>
      </trkpt>
      <trkpt lat="47.52169" lon="6.68098">
        <ele>413.7</ele>
        <time>2017-01-15T10:55:54.000Z</time>
      </trkpt>
      <trkpt lat="47.52168" lon="6.68103">
        <ele>413.7</ele>
        <time>2017-01-15T10:55:55.000Z</time>
      </trkpt>
      <trkpt lat="47.52168" lon="6.68108">
        <ele>413.8</ele>
        <time>2017-01-15T10:55:56.000Z</time>
      </trkpt>
      <trkpt lat="47.52167" lon="6.68111">
        <ele>413.9</ele>
        <time>2017-01-15T10:55:57.000Z</time>
      </trkpt>
      <trkpt lat="47.52167" lon="6.68117">
        <ele>414.1</ele>
        <time>2017-01-15T10:55:59.000Z</time>
      </trkpt>
      <trkpt lat="47.52166" lon="6.6812">
        <ele>414.3</ele>
        <time>2017-01-15T10:56:00.000Z</time>
      </trkpt>
      <trkpt lat="47.52165" lon="6.68126">
        <ele>414.5</ele>
        <time>2017-01-15T10:56:02.000Z</time>
      </trkpt>
      <trkpt lat="47.52164" lon="6.68128">
        <ele>414.6</ele>
        <time>2017-01-15T10:56:03.000Z</time>
      </trkpt>
      <trkpt lat="47.52163" lon="6.68133">
        <ele>414.8</ele>
        <time>2017-01-15T10:56:05.000Z</time>
      </trkpt>
      <trkpt lat="47.52162" lon="6.68134">
        <ele>415</ele>
        <time>2017-01-15T10:56:06.000Z</time>
      </trkpt>
      <trkpt lat="47.52158" lon="6.68136">
        <ele>415.9</ele>
        <time>2017-01-15T10:56:17.000Z</time>
      </trkpt>
      <trkpt lat="47.52157" lon="6.68136">
        <ele>415.9</ele>
        <time>2017-01-15T10:56:18.000Z</time>
      </trkpt>
      <trkpt lat="47.5216" lon="6.6813">
        <ele>414.4</ele>
        <time>2017-01-15T10:57:03.000Z</time>
      </trkpt>
      <trkpt lat="47.5216" lon="6.6813">
        <ele>414.4</ele>
        <time>2017-01-15T10:57:04.000Z</time>
      </trkpt>
      <trkpt lat="47.52157" lon="6.68134">
        <ele>411.7</ele>
        <time>2017-01-15T10:57:29.000Z</time>
      </trkpt>
      <trkpt lat="47.52157" lon="6.68138">
        <ele>411.6</ele>
        <time>2017-01-15T10:57:30.000Z</time>
      </trkpt>
      <trkpt lat="47.52157" lon="6.68141">
        <ele>411.6</ele>
        <time>2017-01-15T10:57:31.000Z</time>
      </trkpt>
      <trkpt lat="47.52157" lon="6.68146">
        <ele>411.5</ele>
        <time>2017-01-15T10:57:32.000Z</time>
      </trkpt>
      <trkpt lat="47.52158" lon="6.68151">
        <ele>411.5</ele>
        <time>2017-01-15T10:57:33.000Z</time>
      </trkpt>
      <trkpt lat="47.52158" lon="6.68156">
        <ele>411.5</ele>
        <time>2017-01-15T10:57:34.000Z</time>
      </trkpt>
      <trkpt lat="47.52158" lon="6.68161">
        <ele>411.5</ele>
        <time>2017-01-15T10:57:35.000Z</time>
      </trkpt>
      <trkpt lat="47.52158" lon="6.68165">
        <ele>411.4</ele>
        <time>2017-01-15T10:57:36.000Z</time>
      </trkpt>
      <trkpt lat="47.52158" lon="6.68169">
        <ele>411.4</ele>
        <time>2017-01-15T10:57:37.000Z</time>
      </trkpt>
      <trkpt lat="47.52158" lon="6.68174">
        <ele>411.3</ele>
        <time>2017-01-15T10:57:38.000Z</time>
      </trkpt>
      <trkpt lat="47.52159" lon="6.68179">
        <ele>411.3</ele>
        <time>2017-01-15T10:57:39.000Z</time>
      </trkpt>
      <trkpt lat="47.52159" lon="6.68185">
        <ele>411.4</ele>
        <time>2017-01-15T10:57:40.000Z</time>
      </trkpt>
      <trkpt lat="47.52159" lon="6.6819">
        <ele>411.4</ele>
        <time>2017-01-15T10:57:41.000Z</time>
      </trkpt>
      <trkpt lat="47.52159" lon="6.68195">
        <ele>411.4</ele>
        <time>2017-01-15T10:57:42.000Z</time>
      </trkpt>
      <trkpt lat="47.5216" lon="6.68201">
        <ele>411.3</ele>
        <time>2017-01-15T10:57:43.000Z</time>
      </trkpt>
      <trkpt lat="47.5216" lon="6.68207">
        <ele>411.3</ele>
        <time>2017-01-15T10:57:44.000Z</time>
      </trkpt>
      <trkpt lat="47.52161" lon="6.68212">
        <ele>410.9</ele>
        <time>2017-01-15T10:57:45.000Z</time>
      </trkpt>
      <trkpt lat="47.52162" lon="6.68218">
        <ele>410.9</ele>
        <time>2017-01-15T10:57:46.000Z</time>
      </trkpt>
      <trkpt lat="47.52163" lon="6.68225">
        <ele>411</ele>
        <time>2017-01-15T10:57:47.000Z</time>
      </trkpt>
      <trkpt lat="47.52165" lon="6.68233">
        <ele>411.2</ele>
        <time>2017-01-15T10:57:48.000Z</time>
      </trkpt>
      <trkpt lat="47.52167" lon="6.6824">
        <ele>411.1</ele>
        <time>2017-01-15T10:57:49.000Z</time>
      </trkpt>
      <trkpt lat="47.52169" lon="6.68246">
        <ele>411</ele>
        <time>2017-01-15T10:57:50.000Z</time>
      </trkpt>
      <trkpt lat="47.5217" lon="6.68253">
        <ele>410.9</ele>
        <time>2017-01-15T10:57:51.000Z</time>
      </trkpt>
      <trkpt lat="47.52172" lon="6.68259">
        <ele>410.4</ele>
        <time>2017-01-15T10:57:52.000Z</time>
      </trkpt>
      <trkpt lat="47.52173" lon="6.68265">
        <ele>410</ele>
        <time>2017-01-15T10:57:53.000Z</time>
      </trkpt>
      <trkpt lat="47.52175" lon="6.6827">
        <ele>409.7</ele>
        <time>2017-01-15T10:57:54.000Z</time>
      </trkpt>
      <trkpt lat="47.52175" lon="6.68275">
        <ele>409.4</ele>
        <time>2017-01-15T10:57:55.000Z</time>
      </trkpt>
      <trkpt lat="47.52176" lon="6.6828">
        <ele>409.2</ele>
        <time>2017-01-15T10:57:56.000Z</time>
      </trkpt>
      <trkpt lat="47.52178" lon="6.68286">
        <ele>408.8</ele>
        <time>2017-01-15T10:57:57.000Z</time>
      </trkpt>
      <trkpt lat="47.52179" lon="6.68292">
        <ele>408.1</ele>
        <time>2017-01-15T10:57:58.000Z</time>
      </trkpt>
      <trkpt lat="47.5218" lon="6.68299">
        <ele>407.6</ele>
        <time>2017-01-15T10:57:59.000Z</time>
      </trkpt>
      <trkpt lat="47.52182" lon="6.68305">
        <ele>406.7</ele>
        <time>2017-01-15T10:58:00.000Z</time>
      </trkpt>
      <trkpt lat="47.52184" lon="6.68311">
        <ele>405.5</ele>
        <time>2017-01-15T10:58:01.000Z</time>
      </trkpt>
      <trkpt lat="47.52185" lon="6.68315">
        <ele>405.5</ele>
        <time>2017-01-15T10:58:02.000Z</time>
      </trkpt>
      <trkpt lat="47.52186" lon="6.68319">
        <ele>405.4</ele>
        <time>2017-01-15T10:58:03.000Z</time>
      </trkpt>
      <trkpt lat="47.52187" lon="6.68324">
        <ele>405.4</ele>
        <time>2017-01-15T10:58:04.000Z</time>
      </trkpt>
      <trkpt lat="47.52188" lon="6.68329">
        <ele>405.5</ele>
        <time>2017-01-15T10:58:05.000Z</time>
      </trkpt>
      <trkpt lat="47.52189" lon="6.68334">
        <ele>405.5</ele>
        <time>2017-01-15T10:58:06.000Z</time>
      </trkpt>
      <trkpt lat="47.5219" lon="6.68339">
        <ele>405.5</ele>
        <time>2017-01-15T10:58:07.000Z</time>
      </trkpt>
      <trkpt lat="47.5219" lon="6.68342">
        <ele>405.5</ele>
        <time>2017-01-15T10:58:08.000Z</time>
      </trkpt>
      <trkpt lat="47.52191" lon="6.68347">
        <ele>405.5</ele>
        <time>2017-01-15T10:58:09.000Z</time>
      </trkpt>
      <trkpt lat="47.52192" lon="6.68352">
        <ele>405.5</ele>
        <time>2017-01-15T10:58:10.000Z</time>
      </trkpt>
      <trkpt lat="47.52193" lon="6.68358">
        <ele>405.5</ele>
        <time>2017-01-15T10:58:11.000Z</time>
      </trkpt>
      <trkpt lat="47.52194" lon="6.68363">
        <ele>405.5</ele>
        <time>2017-01-15T10:58:12.000Z</time>
      </trkpt>
      <trkpt lat="47.52195" lon="6.68368">
        <ele>405.6</ele>
        <time>2017-01-15T10:58:13.000Z</time>
      </trkpt>
      <trkpt lat="47.52195" lon="6.68372">
        <ele>405.6</ele>
        <time>2017-01-15T10:58:14.000Z</time>
      </trkpt>
      <trkpt lat="47.52196" lon="6.68376">
        <ele>405.6</ele>
        <time>2017-01-15T10:58:15.000Z</time>
      </trkpt>
      <trkpt lat="47.52196" lon="6.68381">
        <ele>405.6</ele>
        <time>2017-01-15T10:58:16.000Z</time>
      </trkpt>
      <trkpt lat="47.52197" lon="6.68386">
        <ele>405.7</ele>
        <time>2017-01-15T10:58:17.000Z</time>
      </trkpt>
      <trkpt lat="47.52198" lon="6.6839">
        <ele>405.8</ele>
        <time>2017-01-15T10:58:18.000Z</time>
      </trkpt>
      <trkpt lat="47.52198" lon="6.68395">
        <ele>405.8</ele>
        <time>2017-01-15T10:58:19.000Z</time>
      </trkpt>
      <trkpt lat="47.52199" lon="6.684">
        <ele>405.8</ele>
        <time>2017-01-15T10:58:20.000Z</time>
      </trkpt>
      <trkpt lat="47.52201" lon="6.68406">
        <ele>405.8</ele>
        <time>2017-01-15T10:58:21.000Z</time>
      </trkpt>
      <trkpt lat="47.52202" lon="6.68411">
        <ele>405.8</ele>
        <time>2017-01-15T10:58:22.000Z</time>
      </trkpt>
      <trkpt lat="47.52203" lon="6.68416">
        <ele>405.8</ele>
        <time>2017-01-15T10:58:23.000Z</time>
      </trkpt>
      <trkpt lat="47.52203" lon="6.6842">
        <ele>405.8</ele>
        <time>2017-01-15T10:58:24.000Z</time>
      </trkpt>
      <trkpt lat="47.52204" lon="6.68425">
        <ele>405.9</ele>
        <time>2017-01-15T10:58:25.000Z</time>
      </trkpt>
      <trkpt lat="47.52205" lon="6.68429">
        <ele>405.9</ele>
        <time>2017-01-15T10:58:26.000Z</time>
      </trkpt>
      <trkpt lat="47.52207" lon="6.68435">
        <ele>405.9</ele>
        <time>2017-01-15T10:58:27.000Z</time>
      </trkpt>
      <trkpt lat="47.52208" lon="6.6844">
        <ele>405.9</ele>
        <time>2017-01-15T10:58:28.000Z</time>
      </trkpt>
      <trkpt lat="47.52209" lon="6.68445">
        <ele>405.9</ele>
        <time>2017-01-15T10:58:29.000Z</time>
      </trkpt>
      <trkpt lat="47.5221" lon="6.6845">
        <ele>405.9</ele>
        <time>2017-01-15T10:58:30.000Z</time>
      </trkpt>
      <trkpt lat="47.52211" lon="6.68456">
        <ele>405.9</ele>
        <time>2017-01-15T10:58:31.000Z</time>
      </trkpt>
      <trkpt lat="47.52212" lon="6.68461">
        <ele>405.8</ele>
        <time>2017-01-15T10:58:32.000Z</time>
      </trkpt>
      <trkpt lat="47.52213" lon="6.68467">
        <ele>405.7</ele>
        <time>2017-01-15T10:58:33.000Z</time>
      </trkpt>
      <trkpt lat="47.52214" lon="6.68471">
        <ele>405.8</ele>
        <time>2017-01-15T10:58:34.000Z</time>
      </trkpt>
      <trkpt lat="47.52215" lon="6.68475">
        <ele>405.8</ele>
        <time>2017-01-15T10:58:35.000Z</time>
      </trkpt>
      <trkpt lat="47.52216" lon="6.68481">
        <ele>405.7</ele>
        <time>2017-01-15T10:58:36.000Z</time>
      </trkpt>
      <trkpt lat="47.52217" lon="6.68485">
        <ele>405.7</ele>
        <time>2017-01-15T10:58:37.000Z</time>
      </trkpt>
      <trkpt lat="47.52218" lon="6.68489">
        <ele>405.7</ele>
        <time>2017-01-15T10:58:38.000Z</time>
      </trkpt>
      <trkpt lat="47.52218" lon="6.68491">
        <ele>405.7</ele>
        <time>2017-01-15T10:58:39.000Z</time>
      </trkpt>
      <trkpt lat="47.52219" lon="6.68494">
        <ele>405.7</ele>
        <time>2017-01-15T10:58:40.000Z</time>
      </trkpt>
      <trkpt lat="47.52221" lon="6.68497">
        <ele>405.7</ele>
        <time>2017-01-15T10:58:41.000Z</time>
      </trkpt>
      <trkpt lat="47.52222" lon="6.68501">
        <ele>405.8</ele>
        <time>2017-01-15T10:58:42.000Z</time>
      </trkpt>
      <trkpt lat="47.52223" lon="6.68504">
        <ele>405.8</ele>
        <time>2017-01-15T10:58:43.000Z</time>
      </trkpt>
      <trkpt lat="47.52224" lon="6.68508">
        <ele>405.8</ele>
        <time>2017-01-15T10:58:44.000Z</time>
      </trkpt>
      <trkpt lat="47.52225" lon="6.68512">
        <ele>405.7</ele>
        <time>2017-01-15T10:58:45.000Z</time>
      </trkpt>
      <trkpt lat="47.52225" lon="6.68515">
        <ele>405.8</ele>
        <time>2017-01-15T10:58:46.000Z</time>
      </trkpt>
      <trkpt lat="47.52226" lon="6.68519">
        <ele>405.8</ele>
        <time>2017-01-15T10:58:47.000Z</time>
      </trkpt>
      <trkpt lat="47.52227" lon="6.68523">
        <ele>405.8</ele>
        <time>2017-01-15T10:58:48.000Z</time>
      </trkpt>
      <trkpt lat="47.52229" lon="6.68526">
        <ele>405.8</ele>
        <time>2017-01-15T10:58:49.000Z</time>
      </trkpt>
      <trkpt lat="47.5223" lon="6.68529">
        <ele>405.7</ele>
        <time>2017-01-15T10:58:50.000Z</time>
      </trkpt>
      <trkpt lat="47.52232" lon="6.68533">
        <ele>405.7</ele>
        <time>2017-01-15T10:58:51.000Z</time>
      </trkpt>
      <trkpt lat="47.52233" lon="6.68536">
        <ele>405.7</ele>
        <time>2017-01-15T10:58:52.000Z</time>
      </trkpt>
      <trkpt lat="47.52235" lon="6.68539">
        <ele>405.7</ele>
        <time>2017-01-15T10:58:53.000Z</time>
      </trkpt>
      <trkpt lat="47.52236" lon="6.68542">
        <ele>405.6</ele>
        <time>2017-01-15T10:58:54.000Z</time>
      </trkpt>
      <trkpt lat="47.52238" lon="6.68546">
        <ele>405.6</ele>
        <time>2017-01-15T10:58:55.000Z</time>
      </trkpt>
      <trkpt lat="47.52239" lon="6.68549">
        <ele>405.6</ele>
        <time>2017-01-15T10:58:56.000Z</time>
      </trkpt>
      <trkpt lat="47.52241" lon="6.68552">
        <ele>405.6</ele>
        <time>2017-01-15T10:58:57.000Z</time>
      </trkpt>
      <trkpt lat="47.52243" lon="6.68555">
        <ele>405.5</ele>
        <time>2017-01-15T10:58:58.000Z</time>
      </trkpt>
      <trkpt lat="47.52244" lon="6.68557">
        <ele>405.5</ele>
        <time>2017-01-15T10:58:59.000Z</time>
      </trkpt>
      <trkpt lat="47.52246" lon="6.68559">
        <ele>405.6</ele>
        <time>2017-01-15T10:59:00.000Z</time>
      </trkpt>
      <trkpt lat="47.52248" lon="6.68561">
        <ele>405.6</ele>
        <time>2017-01-15T10:59:01.000Z</time>
      </trkpt>
      <trkpt lat="47.5225" lon="6.68563">
        <ele>405.6</ele>
        <time>2017-01-15T10:59:02.000Z</time>
      </trkpt>
      <trkpt lat="47.52253" lon="6.68564">
        <ele>405.6</ele>
        <time>2017-01-15T10:59:03.000Z</time>
      </trkpt>
      <trkpt lat="47.52255" lon="6.68566">
        <ele>405.6</ele>
        <time>2017-01-15T10:59:04.000Z</time>
      </trkpt>
      <trkpt lat="47.52257" lon="6.68568">
        <ele>405.6</ele>
        <time>2017-01-15T10:59:05.000Z</time>
      </trkpt>
      <trkpt lat="47.52261" lon="6.68571">
        <ele>405.5</ele>
        <time>2017-01-15T10:59:07.000Z</time>
      </trkpt>
      <trkpt lat="47.52262" lon="6.68571">
        <ele>405.5</ele>
        <time>2017-01-15T10:59:08.000Z</time>
      </trkpt>
      <trkpt lat="47.52265" lon="6.68573">
        <ele>405.5</ele>
        <time>2017-01-15T10:59:10.000Z</time>
      </trkpt>
      <trkpt lat="47.52267" lon="6.68574">
        <ele>405.5</ele>
        <time>2017-01-15T10:59:11.000Z</time>
      </trkpt>
      <trkpt lat="47.5227" lon="6.68575">
        <ele>405.4</ele>
        <time>2017-01-15T10:59:13.000Z</time>
      </trkpt>
      <trkpt lat="47.52272" lon="6.68575">
        <ele>405.4</ele>
        <time>2017-01-15T10:59:14.000Z</time>
      </trkpt>
      <trkpt lat="47.52275" lon="6.68575">
        <ele>405.4</ele>
        <time>2017-01-15T10:59:16.000Z</time>
      </trkpt>
      <trkpt lat="47.52278" lon="6.68575">
        <ele>405.4</ele>
        <time>2017-01-15T10:59:17.000Z</time>
      </trkpt>
      <trkpt lat="47.52281" lon="6.68574">
        <ele>405.4</ele>
        <time>2017-01-15T10:59:18.000Z</time>
      </trkpt>
      <trkpt lat="47.52283" lon="6.68573">
        <ele>405.5</ele>
        <time>2017-01-15T10:59:19.000Z</time>
      </trkpt>
      <trkpt lat="47.52285" lon="6.68573">
        <ele>405.6</ele>
        <time>2017-01-15T10:59:21.000Z</time>
      </trkpt>
      <trkpt lat="47.52287" lon="6.68572">
        <ele>405.7</ele>
        <time>2017-01-15T10:59:22.000Z</time>
      </trkpt>
      <trkpt lat="47.52291" lon="6.68571">
        <ele>405.6</ele>
        <time>2017-01-15T10:59:24.000Z</time>
      </trkpt>
      <trkpt lat="47.52293" lon="6.68571">
        <ele>405.6</ele>
        <time>2017-01-15T10:59:25.000Z</time>
      </trkpt>
      <trkpt lat="47.52296" lon="6.68569">
        <ele>405.6</ele>
        <time>2017-01-15T10:59:28.000Z</time>
      </trkpt>
      <trkpt lat="47.52298" lon="6.68568">
        <ele>405.6</ele>
        <time>2017-01-15T10:59:29.000Z</time>
      </trkpt>
      <trkpt lat="47.52301" lon="6.68565">
        <ele>405.9</ele>
        <time>2017-01-15T10:59:33.000Z</time>
      </trkpt>
      <trkpt lat="47.52303" lon="6.68564">
        <ele>405.9</ele>
        <time>2017-01-15T10:59:34.000Z</time>
      </trkpt>
      <trkpt lat="47.52306" lon="6.68563">
        <ele>405.9</ele>
        <time>2017-01-15T10:59:35.000Z</time>
      </trkpt>
      <trkpt lat="47.5231" lon="6.68562">
        <ele>406</ele>
        <time>2017-01-15T10:59:36.000Z</time>
      </trkpt>
      <trkpt lat="47.52314" lon="6.68561">
        <ele>406.1</ele>
        <time>2017-01-15T10:59:38.000Z</time>
      </trkpt>
      <trkpt lat="47.52316" lon="6.68561">
        <ele>406.2</ele>
        <time>2017-01-15T10:59:39.000Z</time>
      </trkpt>
      <trkpt lat="47.5232" lon="6.6856">
        <ele>406.3</ele>
        <time>2017-01-15T10:59:42.000Z</time>
      </trkpt>
      <trkpt lat="47.52321" lon="6.68559">
        <ele>406.2</ele>
        <time>2017-01-15T10:59:43.000Z</time>
      </trkpt>
      <trkpt lat="47.52324" lon="6.68557">
        <ele>406.3</ele>
        <time>2017-01-15T10:59:47.000Z</time>
      </trkpt>
      <trkpt lat="47.52325" lon="6.68557">
        <ele>406.4</ele>
        <time>2017-01-15T10:59:48.000Z</time>
      </trkpt>
      <trkpt lat="47.52328" lon="6.68554">
        <ele>406.3</ele>
        <time>2017-01-15T10:59:51.000Z</time>
      </trkpt>
      <trkpt lat="47.5233" lon="6.68554">
        <ele>406.2</ele>
        <time>2017-01-15T10:59:52.000Z</time>
      </trkpt>
      <trkpt lat="47.52334" lon="6.68551">
        <ele>405.9</ele>
        <time>2017-01-15T10:59:58.000Z</time>
      </trkpt>
      <trkpt lat="47.52334" lon="6.6855">
        <ele>405.8</ele>
        <time>2017-01-15T10:59:59.000Z</time>
      </trkpt>
      <trkpt lat="47.52338" lon="6.6855">
        <ele>405.6</ele>
        <time>2017-01-15T11:00:02.000Z</time>
      </trkpt>
      <trkpt lat="47.5234" lon="6.6855">
        <ele>405.5</ele>
        <time>2017-01-15T11:00:03.000Z</time>
      </trkpt>
      <trkpt lat="47.52343" lon="6.68551">
        <ele>405.3</ele>
        <time>2017-01-15T11:00:05.000Z</time>
      </trkpt>
      <trkpt lat="47.52344" lon="6.68552">
        <ele>405.2</ele>
        <time>2017-01-15T11:00:06.000Z</time>
      </trkpt>
      <trkpt lat="47.52346" lon="6.68555">
        <ele>405.2</ele>
        <time>2017-01-15T11:00:07.000Z</time>
      </trkpt>
      <trkpt lat="47.52348" lon="6.68557">
        <ele>405.1</ele>
        <time>2017-01-15T11:00:08.000Z</time>
      </trkpt>
      <trkpt lat="47.52349" lon="6.6856">
        <ele>405</ele>
        <time>2017-01-15T11:00:09.000Z</time>
      </trkpt>
      <trkpt lat="47.52351" lon="6.68563">
        <ele>405</ele>
        <time>2017-01-15T11:00:10.000Z</time>
      </trkpt>
      <trkpt lat="47.52353" lon="6.68567">
        <ele>404.9</ele>
        <time>2017-01-15T11:00:12.000Z</time>
      </trkpt>
      <trkpt lat="47.52354" lon="6.68571">
        <ele>404.9</ele>
        <time>2017-01-15T11:00:13.000Z</time>
      </trkpt>
      <trkpt lat="47.52354" lon="6.68577">
        <ele>404.8</ele>
        <time>2017-01-15T11:00:15.000Z</time>
      </trkpt>
      <trkpt lat="47.52355" lon="6.6858">
        <ele>404.7</ele>
        <time>2017-01-15T11:00:16.000Z</time>
      </trkpt>
      <trkpt lat="47.52355" lon="6.68585">
        <ele>404.4</ele>
        <time>2017-01-15T11:00:18.000Z</time>
      </trkpt>
      <trkpt lat="47.52356" lon="6.68587">
        <ele>404.3</ele>
        <time>2017-01-15T11:00:19.000Z</time>
      </trkpt>
      <trkpt lat="47.52355" lon="6.68593">
        <ele>404.2</ele>
        <time>2017-01-15T11:00:22.000Z</time>
      </trkpt>
      <trkpt lat="47.52355" lon="6.68595">
        <ele>404.2</ele>
        <time>2017-01-15T11:00:23.000Z</time>
      </trkpt>
      <trkpt lat="47.52358" lon="6.68596">
        <ele>404.4</ele>
        <time>2017-01-15T11:00:26.000Z</time>
      </trkpt>
      <trkpt lat="47.52359" lon="6.68597">
        <ele>404.5</ele>
        <time>2017-01-15T11:00:27.000Z</time>
      </trkpt>
      <trkpt lat="47.5236" lon="6.68603">
        <ele>405</ele>
        <time>2017-01-15T11:00:29.000Z</time>
      </trkpt>
      <trkpt lat="47.5236" lon="6.68606">
        <ele>405.2</ele>
        <time>2017-01-15T11:00:30.000Z</time>
      </trkpt>
      <trkpt lat="47.52359" lon="6.68612">
        <ele>405.8</ele>
        <time>2017-01-15T11:00:32.000Z</time>
      </trkpt>
      <trkpt lat="47.52359" lon="6.68615">
        <ele>406.1</ele>
        <time>2017-01-15T11:00:33.000Z</time>
      </trkpt>
      <trkpt lat="47.52357" lon="6.6862">
        <ele>406.8</ele>
        <time>2017-01-15T11:00:35.000Z</time>
      </trkpt>
      <trkpt lat="47.52356" lon="6.68623">
        <ele>407.1</ele>
        <time>2017-01-15T11:00:36.000Z</time>
      </trkpt>
      <trkpt lat="47.52355" lon="6.68626">
        <ele>407.3</ele>
        <time>2017-01-15T11:00:37.000Z</time>
      </trkpt>
      <trkpt lat="47.52355" lon="6.6863">
        <ele>407.6</ele>
        <time>2017-01-15T11:00:38.000Z</time>
      </trkpt>
      <trkpt lat="47.52354" lon="6.68634">
        <ele>408</ele>
        <time>2017-01-15T11:00:40.000Z</time>
      </trkpt>
      <trkpt lat="47.52353" lon="6.68636">
        <ele>408.2</ele>
        <time>2017-01-15T11:00:41.000Z</time>
      </trkpt>
      <trkpt lat="47.52352" lon="6.68641">
        <ele>408.5</ele>
        <time>2017-01-15T11:00:43.000Z</time>
      </trkpt>
      <trkpt lat="47.52351" lon="6.68644">
        <ele>408.7</ele>
        <time>2017-01-15T11:00:44.000Z</time>
      </trkpt>
      <trkpt lat="47.5235" lon="6.68649">
        <ele>409</ele>
        <time>2017-01-15T11:00:46.000Z</time>
      </trkpt>
      <trkpt lat="47.52349" lon="6.68651">
        <ele>409.2</ele>
        <time>2017-01-15T11:00:47.000Z</time>
      </trkpt>
      <trkpt lat="47.52348" lon="6.68655">
        <ele>409.4</ele>
        <time>2017-01-15T11:00:48.000Z</time>
      </trkpt>
      <trkpt lat="47.52347" lon="6.68659">
        <ele>409.5</ele>
        <time>2017-01-15T11:00:49.000Z</time>
      </trkpt>
      <trkpt lat="47.52345" lon="6.68665">
        <ele>409.9</ele>
        <time>2017-01-15T11:00:51.000Z</time>
      </trkpt>
      <trkpt lat="47.52344" lon="6.68668">
        <ele>410.1</ele>
        <time>2017-01-15T11:00:52.000Z</time>
      </trkpt>
      <trkpt lat="47.52344" lon="6.68672">
        <ele>410.3</ele>
        <time>2017-01-15T11:00:53.000Z</time>
      </trkpt>
      <trkpt lat="47.52343" lon="6.68675">
        <ele>410.4</ele>
        <time>2017-01-15T11:00:54.000Z</time>
      </trkpt>
      <trkpt lat="47.52343" lon="6.68679">
        <ele>410.6</ele>
        <time>2017-01-15T11:00:55.000Z</time>
      </trkpt>
      <trkpt lat="47.52343" lon="6.68682">
        <ele>410.7</ele>
        <time>2017-01-15T11:00:56.000Z</time>
      </trkpt>
      <trkpt lat="47.52344" lon="6.68685">
        <ele>410.8</ele>
        <time>2017-01-15T11:00:57.000Z</time>
      </trkpt>
      <trkpt lat="47.52345" lon="6.68688">
        <ele>411</ele>
        <time>2017-01-15T11:00:58.000Z</time>
      </trkpt>
      <trkpt lat="47.52345" lon="6.68692">
        <ele>411.1</ele>
        <time>2017-01-15T11:00:59.000Z</time>
      </trkpt>
      <trkpt lat="47.52346" lon="6.68696">
        <ele>411.3</ele>
        <time>2017-01-15T11:01:00.000Z</time>
      </trkpt>
      <trkpt lat="47.52348" lon="6.687">
        <ele>411.4</ele>
        <time>2017-01-15T11:01:01.000Z</time>
      </trkpt>
      <trkpt lat="47.52349" lon="6.68703">
        <ele>411.6</ele>
        <time>2017-01-15T11:01:02.000Z</time>
      </trkpt>
      <trkpt lat="47.5235" lon="6.68706">
        <ele>411.7</ele>
        <time>2017-01-15T11:01:03.000Z</time>
      </trkpt>
      <trkpt lat="47.52351" lon="6.68709">
        <ele>411.9</ele>
        <time>2017-01-15T11:01:04.000Z</time>
      </trkpt>
      <trkpt lat="47.52353" lon="6.68715">
        <ele>412.2</ele>
        <time>2017-01-15T11:01:06.000Z</time>
      </trkpt>
      <trkpt lat="47.52354" lon="6.68718">
        <ele>412.4</ele>
        <time>2017-01-15T11:01:07.000Z</time>
      </trkpt>
      <trkpt lat="47.52355" lon="6.68721">
        <ele>412.6</ele>
        <time>2017-01-15T11:01:08.000Z</time>
      </trkpt>
      <trkpt lat="47.52356" lon="6.68725">
        <ele>412.7</ele>
        <time>2017-01-15T11:01:09.000Z</time>
      </trkpt>
      <trkpt lat="47.52358" lon="6.68731">
        <ele>413</ele>
        <time>2017-01-15T11:01:11.000Z</time>
      </trkpt>
      <trkpt lat="47.52359" lon="6.68733">
        <ele>413.1</ele>
        <time>2017-01-15T11:01:12.000Z</time>
      </trkpt>
      <trkpt lat="47.5236" lon="6.68738">
        <ele>413.2</ele>
        <time>2017-01-15T11:01:14.000Z</time>
      </trkpt>
      <trkpt lat="47.52361" lon="6.68742">
        <ele>413.2</ele>
        <time>2017-01-15T11:01:15.000Z</time>
      </trkpt>
      <trkpt lat="47.52362" lon="6.68745">
        <ele>413.4</ele>
        <time>2017-01-15T11:01:16.000Z</time>
      </trkpt>
      <trkpt lat="47.52363" lon="6.68748">
        <ele>413.5</ele>
        <time>2017-01-15T11:01:17.000Z</time>
      </trkpt>
      <trkpt lat="47.52364" lon="6.68752">
        <ele>413.5</ele>
        <time>2017-01-15T11:01:18.000Z</time>
      </trkpt>
      <trkpt lat="47.52366" lon="6.68755">
        <ele>413.6</ele>
        <time>2017-01-15T11:01:19.000Z</time>
      </trkpt>
      <trkpt lat="47.52367" lon="6.68759">
        <ele>413.6</ele>
        <time>2017-01-15T11:01:20.000Z</time>
      </trkpt>
      <trkpt lat="47.52367" lon="6.68764">
        <ele>413.7</ele>
        <time>2017-01-15T11:01:21.000Z</time>
      </trkpt>
      <trkpt lat="47.52369" lon="6.68768">
        <ele>413.8</ele>
        <time>2017-01-15T11:01:22.000Z</time>
      </trkpt>
      <trkpt lat="47.5237" lon="6.68772">
        <ele>413.9</ele>
        <time>2017-01-15T11:01:23.000Z</time>
      </trkpt>
      <trkpt lat="47.52371" lon="6.68775">
        <ele>413.9</ele>
        <time>2017-01-15T11:01:24.000Z</time>
      </trkpt>
      <trkpt lat="47.52373" lon="6.6878">
        <ele>414</ele>
        <time>2017-01-15T11:01:25.000Z</time>
      </trkpt>
      <trkpt lat="47.52375" lon="6.68784">
        <ele>414</ele>
        <time>2017-01-15T11:01:26.000Z</time>
      </trkpt>
      <trkpt lat="47.52377" lon="6.68789">
        <ele>414.1</ele>
        <time>2017-01-15T11:01:27.000Z</time>
      </trkpt>
      <trkpt lat="47.52378" lon="6.68792">
        <ele>414.2</ele>
        <time>2017-01-15T11:01:28.000Z</time>
      </trkpt>
      <trkpt lat="47.5238" lon="6.68795">
        <ele>414.3</ele>
        <time>2017-01-15T11:01:29.000Z</time>
      </trkpt>
      <trkpt lat="47.52381" lon="6.68799">
        <ele>414.3</ele>
        <time>2017-01-15T11:01:30.000Z</time>
      </trkpt>
      <trkpt lat="47.52383" lon="6.68804">
        <ele>414.4</ele>
        <time>2017-01-15T11:01:31.000Z</time>
      </trkpt>
      <trkpt lat="47.52385" lon="6.68808">
        <ele>414.4</ele>
        <time>2017-01-15T11:01:32.000Z</time>
      </trkpt>
      <trkpt lat="47.52387" lon="6.68813">
        <ele>414.4</ele>
        <time>2017-01-15T11:01:33.000Z</time>
      </trkpt>
      <trkpt lat="47.5239" lon="6.68818">
        <ele>414.4</ele>
        <time>2017-01-15T11:01:34.000Z</time>
      </trkpt>
      <trkpt lat="47.52392" lon="6.68821">
        <ele>414.4</ele>
        <time>2017-01-15T11:01:35.000Z</time>
      </trkpt>
      <trkpt lat="47.52394" lon="6.68827">
        <ele>414.6</ele>
        <time>2017-01-15T11:01:38.000Z</time>
      </trkpt>
      <trkpt lat="47.52394" lon="6.68828">
        <ele>414.7</ele>
        <time>2017-01-15T11:01:39.000Z</time>
      </trkpt>
      <trkpt lat="47.52396" lon="6.68832">
        <ele>414.9</ele>
        <time>2017-01-15T11:01:41.000Z</time>
      </trkpt>
      <trkpt lat="47.52397" lon="6.68834">
        <ele>414.9</ele>
        <time>2017-01-15T11:01:42.000Z</time>
      </trkpt>
      <trkpt lat="47.52399" lon="6.68837">
        <ele>415</ele>
        <time>2017-01-15T11:01:43.000Z</time>
      </trkpt>
      <trkpt lat="47.52401" lon="6.68839">
        <ele>415.1</ele>
        <time>2017-01-15T11:01:44.000Z</time>
      </trkpt>
      <trkpt lat="47.52402" lon="6.68842">
        <ele>415.2</ele>
        <time>2017-01-15T11:01:45.000Z</time>
      </trkpt>
      <trkpt lat="47.52404" lon="6.68846">
        <ele>415.3</ele>
        <time>2017-01-15T11:01:46.000Z</time>
      </trkpt>
      <trkpt lat="47.52406" lon="6.68849">
        <ele>415.4</ele>
        <time>2017-01-15T11:01:47.000Z</time>
      </trkpt>
      <trkpt lat="47.52408" lon="6.68851">
        <ele>415.4</ele>
        <time>2017-01-15T11:01:48.000Z</time>
      </trkpt>
      <trkpt lat="47.52409" lon="6.68853">
        <ele>415.4</ele>
        <time>2017-01-15T11:01:49.000Z</time>
      </trkpt>
      <trkpt lat="47.52411" lon="6.68857">
        <ele>415.3</ele>
        <time>2017-01-15T11:01:50.000Z</time>
      </trkpt>
      <trkpt lat="47.52412" lon="6.68861">
        <ele>415.3</ele>
        <time>2017-01-15T11:01:51.000Z</time>
      </trkpt>
      <trkpt lat="47.52414" lon="6.68864">
        <ele>415.2</ele>
        <time>2017-01-15T11:01:52.000Z</time>
      </trkpt>
      <trkpt lat="47.52416" lon="6.68869">
        <ele>415</ele>
        <time>2017-01-15T11:01:55.000Z</time>
      </trkpt>
      <trkpt lat="47.52417" lon="6.68871">
        <ele>415</ele>
        <time>2017-01-15T11:01:56.000Z</time>
      </trkpt>
      <trkpt lat="47.5242" lon="6.68873">
        <ele>415</ele>
        <time>2017-01-15T11:02:00.000Z</time>
      </trkpt>
      <trkpt lat="47.52421" lon="6.68873">
        <ele>415</ele>
        <time>2017-01-15T11:02:01.000Z</time>
      </trkpt>
      <trkpt lat="47.5242" lon="6.68879">
        <ele>415.7</ele>
        <time>2017-01-15T11:02:19.000Z</time>
      </trkpt>
      <trkpt lat="47.52422" lon="6.68883">
        <ele>415.7</ele>
        <time>2017-01-15T11:02:20.000Z</time>
      </trkpt>
      <trkpt lat="47.52424" lon="6.68886">
        <ele>415.8</ele>
        <time>2017-01-15T11:02:21.000Z</time>
      </trkpt>
      <trkpt lat="47.52426" lon="6.6889">
        <ele>415.8</ele>
        <time>2017-01-15T11:02:22.000Z</time>
      </trkpt>
      <trkpt lat="47.52429" lon="6.68893">
        <ele>415.8</ele>
        <time>2017-01-15T11:02:23.000Z</time>
      </trkpt>
      <trkpt lat="47.52431" lon="6.68897">
        <ele>415.8</ele>
        <time>2017-01-15T11:02:24.000Z</time>
      </trkpt>
      <trkpt lat="47.52434" lon="6.68901">
        <ele>415.8</ele>
        <time>2017-01-15T11:02:25.000Z</time>
      </trkpt>
      <trkpt lat="47.52436" lon="6.68904">
        <ele>415.8</ele>
        <time>2017-01-15T11:02:26.000Z</time>
      </trkpt>
      <trkpt lat="47.52438" lon="6.68907">
        <ele>415.9</ele>
        <time>2017-01-15T11:02:27.000Z</time>
      </trkpt>
      <trkpt lat="47.5244" lon="6.68911">
        <ele>415.9</ele>
        <time>2017-01-15T11:02:28.000Z</time>
      </trkpt>
      <trkpt lat="47.52442" lon="6.68914">
        <ele>415.9</ele>
        <time>2017-01-15T11:02:29.000Z</time>
      </trkpt>
      <trkpt lat="47.52445" lon="6.68917">
        <ele>415.9</ele>
        <time>2017-01-15T11:02:30.000Z</time>
      </trkpt>
      <trkpt lat="47.52447" lon="6.6892">
        <ele>415.9</ele>
        <time>2017-01-15T11:02:31.000Z</time>
      </trkpt>
      <trkpt lat="47.52449" lon="6.68923">
        <ele>415.9</ele>
        <time>2017-01-15T11:02:32.000Z</time>
      </trkpt>
      <trkpt lat="47.52451" lon="6.68926">
        <ele>415.8</ele>
        <time>2017-01-15T11:02:33.000Z</time>
      </trkpt>
      <trkpt lat="47.52454" lon="6.6893">
        <ele>415.8</ele>
        <time>2017-01-15T11:02:34.000Z</time>
      </trkpt>
      <trkpt lat="47.52457" lon="6.68935">
        <ele>415.8</ele>
        <time>2017-01-15T11:02:35.000Z</time>
      </trkpt>
      <trkpt lat="47.5246" lon="6.68939">
        <ele>415.8</ele>
        <time>2017-01-15T11:02:36.000Z</time>
      </trkpt>
      <trkpt lat="47.52463" lon="6.68944">
        <ele>415.8</ele>
        <time>2017-01-15T11:02:37.000Z</time>
      </trkpt>
      <trkpt lat="47.52466" lon="6.68948">
        <ele>415.7</ele>
        <time>2017-01-15T11:02:38.000Z</time>
      </trkpt>
      <trkpt lat="47.52468" lon="6.68952">
        <ele>415.4</ele>
        <time>2017-01-15T11:02:39.000Z</time>
      </trkpt>
      <trkpt lat="47.52471" lon="6.68957">
        <ele>414.8</ele>
        <time>2017-01-15T11:02:40.000Z</time>
      </trkpt>
      <trkpt lat="47.52475" lon="6.68962">
        <ele>414.1</ele>
        <time>2017-01-15T11:02:41.000Z</time>
      </trkpt>
      <trkpt lat="47.52477" lon="6.68966">
        <ele>414.2</ele>
        <time>2017-01-15T11:02:42.000Z</time>
      </trkpt>
      <trkpt lat="47.5248" lon="6.68969">
        <ele>414.2</ele>
        <time>2017-01-15T11:02:43.000Z</time>
      </trkpt>
      <trkpt lat="47.52482" lon="6.68972">
        <ele>414</ele>
        <time>2017-01-15T11:02:44.000Z</time>
      </trkpt>
      <trkpt lat="47.52484" lon="6.68976">
        <ele>413.6</ele>
        <time>2017-01-15T11:02:45.000Z</time>
      </trkpt>
      <trkpt lat="47.52486" lon="6.6898">
        <ele>413.5</ele>
        <time>2017-01-15T11:02:46.000Z</time>
      </trkpt>
      <trkpt lat="47.52489" lon="6.68985">
        <ele>413.4</ele>
        <time>2017-01-15T11:02:47.000Z</time>
      </trkpt>
      <trkpt lat="47.52492" lon="6.68989">
        <ele>413.3</ele>
        <time>2017-01-15T11:02:48.000Z</time>
      </trkpt>
      <trkpt lat="47.52496" lon="6.68993">
        <ele>413.2</ele>
        <time>2017-01-15T11:02:49.000Z</time>
      </trkpt>
      <trkpt lat="47.52498" lon="6.68996">
        <ele>413.3</ele>
        <time>2017-01-15T11:02:50.000Z</time>
      </trkpt>
      <trkpt lat="47.52501" lon="6.69">
        <ele>413.3</ele>
        <time>2017-01-15T11:02:51.000Z</time>
      </trkpt>
      <trkpt lat="47.52503" lon="6.69002">
        <ele>413.3</ele>
        <time>2017-01-15T11:02:52.000Z</time>
      </trkpt>
      <trkpt lat="47.52505" lon="6.69004">
        <ele>413.3</ele>
        <time>2017-01-15T11:02:53.000Z</time>
      </trkpt>
      <trkpt lat="47.52508" lon="6.69007">
        <ele>413.3</ele>
        <time>2017-01-15T11:02:54.000Z</time>
      </trkpt>
      <trkpt lat="47.52511" lon="6.69011">
        <ele>413.3</ele>
        <time>2017-01-15T11:02:55.000Z</time>
      </trkpt>
      <trkpt lat="47.52514" lon="6.69014">
        <ele>413.3</ele>
        <time>2017-01-15T11:02:56.000Z</time>
      </trkpt>
      <trkpt lat="47.52517" lon="6.69017">
        <ele>413.2</ele>
        <time>2017-01-15T11:02:57.000Z</time>
      </trkpt>
      <trkpt lat="47.5252" lon="6.69021">
        <ele>413</ele>
        <time>2017-01-15T11:02:58.000Z</time>
      </trkpt>
      <trkpt lat="47.52524" lon="6.69025">
        <ele>412.4</ele>
        <time>2017-01-15T11:02:59.000Z</time>
      </trkpt>
      <trkpt lat="47.52527" lon="6.69029">
        <ele>412</ele>
        <time>2017-01-15T11:03:00.000Z</time>
      </trkpt>
      <trkpt lat="47.52531" lon="6.69034">
        <ele>412.1</ele>
        <time>2017-01-15T11:03:01.000Z</time>
      </trkpt>
      <trkpt lat="47.52534" lon="6.69039">
        <ele>411.9</ele>
        <time>2017-01-15T11:03:02.000Z</time>
      </trkpt>
      <trkpt lat="47.52537" lon="6.69044">
        <ele>411.9</ele>
        <time>2017-01-15T11:03:03.000Z</time>
      </trkpt>
      <trkpt lat="47.5254" lon="6.69048">
        <ele>411.6</ele>
        <time>2017-01-15T11:03:04.000Z</time>
      </trkpt>
      <trkpt lat="47.52543" lon="6.69052">
        <ele>411.3</ele>
        <time>2017-01-15T11:03:05.000Z</time>
      </trkpt>
      <trkpt lat="47.52547" lon="6.69057">
        <ele>411</ele>
        <time>2017-01-15T11:03:06.000Z</time>
      </trkpt>
      <trkpt lat="47.52549" lon="6.69062">
        <ele>411</ele>
        <time>2017-01-15T11:03:07.000Z</time>
      </trkpt>
      <trkpt lat="47.52552" lon="6.69067">
        <ele>410.7</ele>
        <time>2017-01-15T11:03:08.000Z</time>
      </trkpt>
      <trkpt lat="47.52554" lon="6.69073">
        <ele>410.3</ele>
        <time>2017-01-15T11:03:09.000Z</time>
      </trkpt>
      <trkpt lat="47.52557" lon="6.69078">
        <ele>409.9</ele>
        <time>2017-01-15T11:03:10.000Z</time>
      </trkpt>
      <trkpt lat="47.5256" lon="6.69084">
        <ele>409.2</ele>
        <time>2017-01-15T11:03:11.000Z</time>
      </trkpt>
      <trkpt lat="47.52562" lon="6.6909">
        <ele>408.8</ele>
        <time>2017-01-15T11:03:12.000Z</time>
      </trkpt>
      <trkpt lat="47.52566" lon="6.69097">
        <ele>408.4</ele>
        <time>2017-01-15T11:03:13.000Z</time>
      </trkpt>
      <trkpt lat="47.52568" lon="6.69104">
        <ele>408.1</ele>
        <time>2017-01-15T11:03:14.000Z</time>
      </trkpt>
      <trkpt lat="47.52571" lon="6.6911">
        <ele>407.8</ele>
        <time>2017-01-15T11:03:15.000Z</time>
      </trkpt>
      <trkpt lat="47.52573" lon="6.69116">
        <ele>407.6</ele>
        <time>2017-01-15T11:03:16.000Z</time>
      </trkpt>
      <trkpt lat="47.52575" lon="6.69121">
        <ele>407.6</ele>
        <time>2017-01-15T11:03:17.000Z</time>
      </trkpt>
      <trkpt lat="47.52577" lon="6.69123">
        <ele>407.5</ele>
        <time>2017-01-15T11:03:18.000Z</time>
      </trkpt>
      <trkpt lat="47.52579" lon="6.69128">
        <ele>407.4</ele>
        <time>2017-01-15T11:03:19.000Z</time>
      </trkpt>
      <trkpt lat="47.52579" lon="6.69134">
        <ele>406.7</ele>
        <time>2017-01-15T11:03:20.000Z</time>
      </trkpt>
      <trkpt lat="47.5258" lon="6.69138">
        <ele>406.7</ele>
        <time>2017-01-15T11:03:21.000Z</time>
      </trkpt>
      <trkpt lat="47.52582" lon="6.69145">
        <ele>406.4</ele>
        <time>2017-01-15T11:03:22.000Z</time>
      </trkpt>
      <trkpt lat="47.52582" lon="6.6915">
        <ele>406.4</ele>
        <time>2017-01-15T11:03:23.000Z</time>
      </trkpt>
      <trkpt lat="47.52583" lon="6.69156">
        <ele>406.1</ele>
        <time>2017-01-15T11:03:24.000Z</time>
      </trkpt>
      <trkpt lat="47.52584" lon="6.69162">
        <ele>406</ele>
        <time>2017-01-15T11:03:25.000Z</time>
      </trkpt>
      <trkpt lat="47.52584" lon="6.69169">
        <ele>405.7</ele>
        <time>2017-01-15T11:03:26.000Z</time>
      </trkpt>
      <trkpt lat="47.52585" lon="6.69176">
        <ele>405.4</ele>
        <time>2017-01-15T11:03:27.000Z</time>
      </trkpt>
      <trkpt lat="47.52586" lon="6.69183">
        <ele>404.9</ele>
        <time>2017-01-15T11:03:28.000Z</time>
      </trkpt>
      <trkpt lat="47.52587" lon="6.69189">
        <ele>404.5</ele>
        <time>2017-01-15T11:03:29.000Z</time>
      </trkpt>
      <trkpt lat="47.52588" lon="6.69196">
        <ele>404.1</ele>
        <time>2017-01-15T11:03:30.000Z</time>
      </trkpt>
      <trkpt lat="47.52588" lon="6.69202">
        <ele>403.3</ele>
        <time>2017-01-15T11:03:31.000Z</time>
      </trkpt>
      <trkpt lat="47.52589" lon="6.69208">
        <ele>402.5</ele>
        <time>2017-01-15T11:03:32.000Z</time>
      </trkpt>
      <trkpt lat="47.52589" lon="6.69214">
        <ele>401.3</ele>
        <time>2017-01-15T11:03:33.000Z</time>
      </trkpt>
      <trkpt lat="47.5259" lon="6.69221">
        <ele>400.6</ele>
        <time>2017-01-15T11:03:34.000Z</time>
      </trkpt>
      <trkpt lat="47.5259" lon="6.69226">
        <ele>399.9</ele>
        <time>2017-01-15T11:03:35.000Z</time>
      </trkpt>
      <trkpt lat="47.52591" lon="6.69233">
        <ele>399.3</ele>
        <time>2017-01-15T11:03:36.000Z</time>
      </trkpt>
      <trkpt lat="47.52592" lon="6.69239">
        <ele>399.2</ele>
        <time>2017-01-15T11:03:37.000Z</time>
      </trkpt>
      <trkpt lat="47.52593" lon="6.69246">
        <ele>398.8</ele>
        <time>2017-01-15T11:03:38.000Z</time>
      </trkpt>
      <trkpt lat="47.52593" lon="6.69252">
        <ele>398.5</ele>
        <time>2017-01-15T11:03:39.000Z</time>
      </trkpt>
      <trkpt lat="47.52594" lon="6.69259">
        <ele>398</ele>
        <time>2017-01-15T11:03:40.000Z</time>
      </trkpt>
      <trkpt lat="47.52595" lon="6.69266">
        <ele>397.3</ele>
        <time>2017-01-15T11:03:41.000Z</time>
      </trkpt>
      <trkpt lat="47.52597" lon="6.69273">
        <ele>396.7</ele>
        <time>2017-01-15T11:03:42.000Z</time>
      </trkpt>
      <trkpt lat="47.52597" lon="6.69281">
        <ele>396.6</ele>
        <time>2017-01-15T11:03:43.000Z</time>
      </trkpt>
      <trkpt lat="47.52597" lon="6.69287">
        <ele>395.8</ele>
        <time>2017-01-15T11:03:44.000Z</time>
      </trkpt>
      <trkpt lat="47.52597" lon="6.69294">
        <ele>395</ele>
        <time>2017-01-15T11:03:45.000Z</time>
      </trkpt>
      <trkpt lat="47.52597" lon="6.69302">
        <ele>394.8</ele>
        <time>2017-01-15T11:03:46.000Z</time>
      </trkpt>
      <trkpt lat="47.52597" lon="6.6931">
        <ele>394.8</ele>
        <time>2017-01-15T11:03:47.000Z</time>
      </trkpt>
      <trkpt lat="47.52597" lon="6.69317">
        <ele>394.5</ele>
        <time>2017-01-15T11:03:48.000Z</time>
      </trkpt>
      <trkpt lat="47.52596" lon="6.69324">
        <ele>394.7</ele>
        <time>2017-01-15T11:03:49.000Z</time>
      </trkpt>
      <trkpt lat="47.52596" lon="6.69332">
        <ele>395.3</ele>
        <time>2017-01-15T11:03:50.000Z</time>
      </trkpt>
      <trkpt lat="47.52595" lon="6.69339">
        <ele>396</ele>
        <time>2017-01-15T11:03:51.000Z</time>
      </trkpt>
      <trkpt lat="47.52594" lon="6.69346">
        <ele>396.5</ele>
        <time>2017-01-15T11:03:52.000Z</time>
      </trkpt>
      <trkpt lat="47.52593" lon="6.69354">
        <ele>396.7</ele>
        <time>2017-01-15T11:03:53.000Z</time>
      </trkpt>
      <trkpt lat="47.52591" lon="6.69361">
        <ele>396.8</ele>
        <time>2017-01-15T11:03:54.000Z</time>
      </trkpt>
      <trkpt lat="47.5259" lon="6.69368">
        <ele>396.9</ele>
        <time>2017-01-15T11:03:55.000Z</time>
      </trkpt>
      <trkpt lat="47.52591" lon="6.69375">
        <ele>396.6</ele>
        <time>2017-01-15T11:03:56.000Z</time>
      </trkpt>
      <trkpt lat="47.52592" lon="6.69381">
        <ele>396.6</ele>
        <time>2017-01-15T11:03:57.000Z</time>
      </trkpt>
      <trkpt lat="47.52591" lon="6.69389">
        <ele>395.7</ele>
        <time>2017-01-15T11:03:58.000Z</time>
      </trkpt>
      <trkpt lat="47.52591" lon="6.69396">
        <ele>394.6</ele>
        <time>2017-01-15T11:03:59.000Z</time>
      </trkpt>
      <trkpt lat="47.52592" lon="6.69404">
        <ele>393.7</ele>
        <time>2017-01-15T11:04:00.000Z</time>
      </trkpt>
      <trkpt lat="47.52593" lon="6.6941">
        <ele>393.4</ele>
        <time>2017-01-15T11:04:01.000Z</time>
      </trkpt>
      <trkpt lat="47.52595" lon="6.69415">
        <ele>393.1</ele>
        <time>2017-01-15T11:04:02.000Z</time>
      </trkpt>
      <trkpt lat="47.52595" lon="6.69422">
        <ele>393.1</ele>
        <time>2017-01-15T11:04:03.000Z</time>
      </trkpt>
      <trkpt lat="47.52595" lon="6.6943">
        <ele>393</ele>
        <time>2017-01-15T11:04:04.000Z</time>
      </trkpt>
      <trkpt lat="47.52596" lon="6.69437">
        <ele>393.4</ele>
        <time>2017-01-15T11:04:05.000Z</time>
      </trkpt>
      <trkpt lat="47.52596" lon="6.69444">
        <ele>393.7</ele>
        <time>2017-01-15T11:04:06.000Z</time>
      </trkpt>
      <trkpt lat="47.52596" lon="6.6945">
        <ele>393.7</ele>
        <time>2017-01-15T11:04:07.000Z</time>
      </trkpt>
      <trkpt lat="47.52596" lon="6.69457">
        <ele>393.6</ele>
        <time>2017-01-15T11:04:08.000Z</time>
      </trkpt>
      <trkpt lat="47.52595" lon="6.69464">
        <ele>393.6</ele>
        <time>2017-01-15T11:04:09.000Z</time>
      </trkpt>
      <trkpt lat="47.52597" lon="6.6947">
        <ele>393.5</ele>
        <time>2017-01-15T11:04:10.000Z</time>
      </trkpt>
      <trkpt lat="47.526" lon="6.69472">
        <ele>393.4</ele>
        <time>2017-01-15T11:04:11.000Z</time>
      </trkpt>
      <trkpt lat="47.52602" lon="6.69475">
        <ele>393.3</ele>
        <time>2017-01-15T11:04:12.000Z</time>
      </trkpt>
      <trkpt lat="47.52604" lon="6.69477">
        <ele>393.2</ele>
        <time>2017-01-15T11:04:13.000Z</time>
      </trkpt>
      <trkpt lat="47.52607" lon="6.69478">
        <ele>393.1</ele>
        <time>2017-01-15T11:04:14.000Z</time>
      </trkpt>
      <trkpt lat="47.5261" lon="6.6948">
        <ele>392.6</ele>
        <time>2017-01-15T11:04:15.000Z</time>
      </trkpt>
      <trkpt lat="47.52613" lon="6.69481">
        <ele>392.1</ele>
        <time>2017-01-15T11:04:16.000Z</time>
      </trkpt>
      <trkpt lat="47.52617" lon="6.69482">
        <ele>391.7</ele>
        <time>2017-01-15T11:04:17.000Z</time>
      </trkpt>
      <trkpt lat="47.5262" lon="6.69483">
        <ele>391.7</ele>
        <time>2017-01-15T11:04:18.000Z</time>
      </trkpt>
      <trkpt lat="47.52622" lon="6.69487">
        <ele>391.7</ele>
        <time>2017-01-15T11:04:19.000Z</time>
      </trkpt>
      <trkpt lat="47.52623" lon="6.69493">
        <ele>391.6</ele>
        <time>2017-01-15T11:04:20.000Z</time>
      </trkpt>
      <trkpt lat="47.52623" lon="6.69497">
        <ele>391.6</ele>
        <time>2017-01-15T11:04:21.000Z</time>
      </trkpt>
      <trkpt lat="47.52623" lon="6.695">
        <ele>391.6</ele>
        <time>2017-01-15T11:04:22.000Z</time>
      </trkpt>
      <trkpt lat="47.52623" lon="6.69504">
        <ele>391.6</ele>
        <time>2017-01-15T11:04:23.000Z</time>
      </trkpt>
      <trkpt lat="47.52622" lon="6.69508">
        <ele>391.6</ele>
        <time>2017-01-15T11:04:24.000Z</time>
      </trkpt>
      <trkpt lat="47.52622" lon="6.69515">
        <ele>391.6</ele>
        <time>2017-01-15T11:04:25.000Z</time>
      </trkpt>
      <trkpt lat="47.52622" lon="6.69521">
        <ele>391.7</ele>
        <time>2017-01-15T11:04:26.000Z</time>
      </trkpt>
      <trkpt lat="47.52623" lon="6.69525">
        <ele>391.7</ele>
        <time>2017-01-15T11:04:27.000Z</time>
      </trkpt>
      <trkpt lat="47.52624" lon="6.69529">
        <ele>391.9</ele>
        <time>2017-01-15T11:04:28.000Z</time>
      </trkpt>
      <trkpt lat="47.52624" lon="6.69533">
        <ele>391.9</ele>
        <time>2017-01-15T11:04:29.000Z</time>
      </trkpt>
      <trkpt lat="47.52625" lon="6.69538">
        <ele>392</ele>
        <time>2017-01-15T11:04:30.000Z</time>
      </trkpt>
      <trkpt lat="47.52625" lon="6.69542">
        <ele>392</ele>
        <time>2017-01-15T11:04:31.000Z</time>
      </trkpt>
      <trkpt lat="47.52625" lon="6.69546">
        <ele>391.9</ele>
        <time>2017-01-15T11:04:32.000Z</time>
      </trkpt>
      <trkpt lat="47.52624" lon="6.6955">
        <ele>391.9</ele>
        <time>2017-01-15T11:04:33.000Z</time>
      </trkpt>
      <trkpt lat="47.52624" lon="6.69554">
        <ele>391.7</ele>
        <time>2017-01-15T11:04:34.000Z</time>
      </trkpt>
      <trkpt lat="47.52622" lon="6.69559">
        <ele>391.4</ele>
        <time>2017-01-15T11:04:36.000Z</time>
      </trkpt>
      <trkpt lat="47.52621" lon="6.69562">
        <ele>391.3</ele>
        <time>2017-01-15T11:04:37.000Z</time>
      </trkpt>
      <trkpt lat="47.52621" lon="6.69567">
        <ele>391.1</ele>
        <time>2017-01-15T11:04:38.000Z</time>
      </trkpt>
      <trkpt lat="47.5262" lon="6.6957">
        <ele>391</ele>
        <time>2017-01-15T11:04:39.000Z</time>
      </trkpt>
      <trkpt lat="47.52619" lon="6.69574">
        <ele>391</ele>
        <time>2017-01-15T11:04:40.000Z</time>
      </trkpt>
      <trkpt lat="47.52619" lon="6.69578">
        <ele>390.9</ele>
        <time>2017-01-15T11:04:41.000Z</time>
      </trkpt>
      <trkpt lat="47.52618" lon="6.69582">
        <ele>390.8</ele>
        <time>2017-01-15T11:04:42.000Z</time>
      </trkpt>
      <trkpt lat="47.52617" lon="6.69586">
        <ele>390.7</ele>
        <time>2017-01-15T11:04:43.000Z</time>
      </trkpt>
      <trkpt lat="47.52617" lon="6.69589">
        <ele>390.7</ele>
        <time>2017-01-15T11:04:44.000Z</time>
      </trkpt>
      <trkpt lat="47.52617" lon="6.69593">
        <ele>390.6</ele>
        <time>2017-01-15T11:04:45.000Z</time>
      </trkpt>
      <trkpt lat="47.52617" lon="6.69597">
        <ele>390.6</ele>
        <time>2017-01-15T11:04:46.000Z</time>
      </trkpt>
      <trkpt lat="47.52617" lon="6.696">
        <ele>390.6</ele>
        <time>2017-01-15T11:04:47.000Z</time>
      </trkpt>
      <trkpt lat="47.52617" lon="6.69604">
        <ele>390.6</ele>
        <time>2017-01-15T11:04:49.000Z</time>
      </trkpt>
      <trkpt lat="47.52618" lon="6.69609">
        <ele>390.7</ele>
        <time>2017-01-15T11:04:50.000Z</time>
      </trkpt>
      <trkpt lat="47.52618" lon="6.69613">
        <ele>390.7</ele>
        <time>2017-01-15T11:04:51.000Z</time>
      </trkpt>
      <trkpt lat="47.52618" lon="6.69617">
        <ele>390.7</ele>
        <time>2017-01-15T11:04:52.000Z</time>
      </trkpt>
      <trkpt lat="47.52619" lon="6.69623">
        <ele>390.7</ele>
        <time>2017-01-15T11:04:54.000Z</time>
      </trkpt>
      <trkpt lat="47.5262" lon="6.69627">
        <ele>390.7</ele>
        <time>2017-01-15T11:04:55.000Z</time>
      </trkpt>
      <trkpt lat="47.52621" lon="6.69632">
        <ele>390.7</ele>
        <time>2017-01-15T11:04:57.000Z</time>
      </trkpt>
      <trkpt lat="47.52623" lon="6.69634">
        <ele>390.7</ele>
        <time>2017-01-15T11:04:58.000Z</time>
      </trkpt>
      <trkpt lat="47.52623" lon="6.69637">
        <ele>390.8</ele>
        <time>2017-01-15T11:04:59.000Z</time>
      </trkpt>
      <trkpt lat="47.52623" lon="6.69641">
        <ele>390.8</ele>
        <time>2017-01-15T11:05:00.000Z</time>
      </trkpt>
      <trkpt lat="47.52623" lon="6.69646">
        <ele>390.8</ele>
        <time>2017-01-15T11:05:01.000Z</time>
      </trkpt>
      <trkpt lat="47.52623" lon="6.69649">
        <ele>390.9</ele>
        <time>2017-01-15T11:05:02.000Z</time>
      </trkpt>
      <trkpt lat="47.52623" lon="6.69653">
        <ele>391</ele>
        <time>2017-01-15T11:05:03.000Z</time>
      </trkpt>
      <trkpt lat="47.52623" lon="6.69656">
        <ele>391.1</ele>
        <time>2017-01-15T11:05:04.000Z</time>
      </trkpt>
      <trkpt lat="47.52623" lon="6.6966">
        <ele>391.2</ele>
        <time>2017-01-15T11:05:05.000Z</time>
      </trkpt>
      <trkpt lat="47.52622" lon="6.69664">
        <ele>391.3</ele>
        <time>2017-01-15T11:05:06.000Z</time>
      </trkpt>
      <trkpt lat="47.52622" lon="6.69669">
        <ele>391.3</ele>
        <time>2017-01-15T11:05:07.000Z</time>
      </trkpt>
      <trkpt lat="47.52621" lon="6.69673">
        <ele>391.3</ele>
        <time>2017-01-15T11:05:08.000Z</time>
      </trkpt>
      <trkpt lat="47.5262" lon="6.69677">
        <ele>391.3</ele>
        <time>2017-01-15T11:05:09.000Z</time>
      </trkpt>
      <trkpt lat="47.52619" lon="6.69681">
        <ele>391.2</ele>
        <time>2017-01-15T11:05:10.000Z</time>
      </trkpt>
      <trkpt lat="47.52618" lon="6.69686">
        <ele>391.2</ele>
        <time>2017-01-15T11:05:11.000Z</time>
      </trkpt>
      <trkpt lat="47.52617" lon="6.6969">
        <ele>391.2</ele>
        <time>2017-01-15T11:05:12.000Z</time>
      </trkpt>
      <trkpt lat="47.52615" lon="6.69695">
        <ele>391.2</ele>
        <time>2017-01-15T11:05:13.000Z</time>
      </trkpt>
      <trkpt lat="47.52614" lon="6.69699">
        <ele>391.2</ele>
        <time>2017-01-15T11:05:14.000Z</time>
      </trkpt>
      <trkpt lat="47.52612" lon="6.69702">
        <ele>391.2</ele>
        <time>2017-01-15T11:05:15.000Z</time>
      </trkpt>
      <trkpt lat="47.5261" lon="6.69705">
        <ele>391.2</ele>
        <time>2017-01-15T11:05:16.000Z</time>
      </trkpt>
      <trkpt lat="47.52608" lon="6.69709">
        <ele>391.2</ele>
        <time>2017-01-15T11:05:17.000Z</time>
      </trkpt>
      <trkpt lat="47.52605" lon="6.69712">
        <ele>391.3</ele>
        <time>2017-01-15T11:05:18.000Z</time>
      </trkpt>
      <trkpt lat="47.52603" lon="6.69714">
        <ele>391.4</ele>
        <time>2017-01-15T11:05:19.000Z</time>
      </trkpt>
      <trkpt lat="47.526" lon="6.69716">
        <ele>391.5</ele>
        <time>2017-01-15T11:05:20.000Z</time>
      </trkpt>
      <trkpt lat="47.52596" lon="6.69717">
        <ele>391.6</ele>
        <time>2017-01-15T11:05:21.000Z</time>
      </trkpt>
      <trkpt lat="47.52593" lon="6.69719">
        <ele>391.6</ele>
        <time>2017-01-15T11:05:22.000Z</time>
      </trkpt>
      <trkpt lat="47.52591" lon="6.69719">
        <ele>391.5</ele>
        <time>2017-01-15T11:05:23.000Z</time>
      </trkpt>
      <trkpt lat="47.52588" lon="6.69719">
        <ele>391.4</ele>
        <time>2017-01-15T11:05:24.000Z</time>
      </trkpt>
      <trkpt lat="47.52586" lon="6.69719">
        <ele>391.4</ele>
        <time>2017-01-15T11:05:25.000Z</time>
      </trkpt>
      <trkpt lat="47.52583" lon="6.69719">
        <ele>391.3</ele>
        <time>2017-01-15T11:05:26.000Z</time>
      </trkpt>
      <trkpt lat="47.52581" lon="6.69719">
        <ele>391.3</ele>
        <time>2017-01-15T11:05:27.000Z</time>
      </trkpt>
      <trkpt lat="47.52578" lon="6.69718">
        <ele>391.2</ele>
        <time>2017-01-15T11:05:28.000Z</time>
      </trkpt>
      <trkpt lat="47.52576" lon="6.69717">
        <ele>391.3</ele>
        <time>2017-01-15T11:05:29.000Z</time>
      </trkpt>
      <trkpt lat="47.52573" lon="6.69716">
        <ele>391.3</ele>
        <time>2017-01-15T11:05:30.000Z</time>
      </trkpt>
      <trkpt lat="47.5257" lon="6.69715">
        <ele>391.3</ele>
        <time>2017-01-15T11:05:31.000Z</time>
      </trkpt>
      <trkpt lat="47.52568" lon="6.69714">
        <ele>391.3</ele>
        <time>2017-01-15T11:05:32.000Z</time>
      </trkpt>
      <trkpt lat="47.52565" lon="6.69714">
        <ele>391.4</ele>
        <time>2017-01-15T11:05:33.000Z</time>
      </trkpt>
      <trkpt lat="47.52563" lon="6.69713">
        <ele>391.4</ele>
        <time>2017-01-15T11:05:34.000Z</time>
      </trkpt>
      <trkpt lat="47.5256" lon="6.69712">
        <ele>391.5</ele>
        <time>2017-01-15T11:05:35.000Z</time>
      </trkpt>
      <trkpt lat="47.52556" lon="6.69711">
        <ele>391.5</ele>
        <time>2017-01-15T11:05:36.000Z</time>
      </trkpt>
      <trkpt lat="47.52553" lon="6.69709">
        <ele>391.6</ele>
        <time>2017-01-15T11:05:37.000Z</time>
      </trkpt>
      <trkpt lat="47.5255" lon="6.69708">
        <ele>391.6</ele>
        <time>2017-01-15T11:05:38.000Z</time>
      </trkpt>
      <trkpt lat="47.52546" lon="6.69707">
        <ele>391.6</ele>
        <time>2017-01-15T11:05:39.000Z</time>
      </trkpt>
      <trkpt lat="47.52542" lon="6.69705">
        <ele>391.6</ele>
        <time>2017-01-15T11:05:40.000Z</time>
      </trkpt>
      <trkpt lat="47.52539" lon="6.69703">
        <ele>391.6</ele>
        <time>2017-01-15T11:05:41.000Z</time>
      </trkpt>
      <trkpt lat="47.52535" lon="6.69702">
        <ele>391.7</ele>
        <time>2017-01-15T11:05:42.000Z</time>
      </trkpt>
      <trkpt lat="47.52531" lon="6.69701">
        <ele>391.8</ele>
        <time>2017-01-15T11:05:43.000Z</time>
      </trkpt>
      <trkpt lat="47.52528" lon="6.69701">
        <ele>391.8</ele>
        <time>2017-01-15T11:05:44.000Z</time>
      </trkpt>
      <trkpt lat="47.52525" lon="6.697">
        <ele>392.4</ele>
        <time>2017-01-15T11:05:45.000Z</time>
      </trkpt>
      <trkpt lat="47.52522" lon="6.69698">
        <ele>392.5</ele>
        <time>2017-01-15T11:05:46.000Z</time>
      </trkpt>
      <trkpt lat="47.52518" lon="6.69697">
        <ele>392.5</ele>
        <time>2017-01-15T11:05:47.000Z</time>
      </trkpt>
      <trkpt lat="47.52515" lon="6.69697">
        <ele>392.5</ele>
        <time>2017-01-15T11:05:48.000Z</time>
      </trkpt>
      <trkpt lat="47.52512" lon="6.69696">
        <ele>392.5</ele>
        <time>2017-01-15T11:05:49.000Z</time>
      </trkpt>
      <trkpt lat="47.52509" lon="6.69696">
        <ele>392.6</ele>
        <time>2017-01-15T11:05:50.000Z</time>
      </trkpt>
      <trkpt lat="47.52506" lon="6.69695">
        <ele>392.5</ele>
        <time>2017-01-15T11:05:51.000Z</time>
      </trkpt>
      <trkpt lat="47.52503" lon="6.69695">
        <ele>392.6</ele>
        <time>2017-01-15T11:05:52.000Z</time>
      </trkpt>
      <trkpt lat="47.52498" lon="6.69696">
        <ele>392.5</ele>
        <time>2017-01-15T11:05:53.000Z</time>
      </trkpt>
      <trkpt lat="47.52495" lon="6.69696">
        <ele>392.5</ele>
        <time>2017-01-15T11:05:54.000Z</time>
      </trkpt>
      <trkpt lat="47.52491" lon="6.69696">
        <ele>392.5</ele>
        <time>2017-01-15T11:05:55.000Z</time>
      </trkpt>
      <trkpt lat="47.52487" lon="6.69696">
        <ele>392.4</ele>
        <time>2017-01-15T11:05:56.000Z</time>
      </trkpt>
      <trkpt lat="47.52483" lon="6.69696">
        <ele>392.3</ele>
        <time>2017-01-15T11:05:57.000Z</time>
      </trkpt>
      <trkpt lat="47.52478" lon="6.69697">
        <ele>392.2</ele>
        <time>2017-01-15T11:05:58.000Z</time>
      </trkpt>
      <trkpt lat="47.52474" lon="6.69697">
        <ele>392.2</ele>
        <time>2017-01-15T11:05:59.000Z</time>
      </trkpt>
      <trkpt lat="47.52469" lon="6.69697">
        <ele>392.4</ele>
        <time>2017-01-15T11:06:00.000Z</time>
      </trkpt>
      <trkpt lat="47.52464" lon="6.69697">
        <ele>392.7</ele>
        <time>2017-01-15T11:06:01.000Z</time>
      </trkpt>
      <trkpt lat="47.52459" lon="6.69698">
        <ele>393</ele>
        <time>2017-01-15T11:06:02.000Z</time>
      </trkpt>
      <trkpt lat="47.52455" lon="6.69698">
        <ele>392.9</ele>
        <time>2017-01-15T11:06:03.000Z</time>
      </trkpt>
      <trkpt lat="47.52451" lon="6.69698">
        <ele>392.8</ele>
        <time>2017-01-15T11:06:04.000Z</time>
      </trkpt>
      <trkpt lat="47.52446" lon="6.69699">
        <ele>392.9</ele>
        <time>2017-01-15T11:06:05.000Z</time>
      </trkpt>
      <trkpt lat="47.52442" lon="6.69699">
        <ele>393.1</ele>
        <time>2017-01-15T11:06:06.000Z</time>
      </trkpt>
      <trkpt lat="47.52438" lon="6.69699">
        <ele>392.6</ele>
        <time>2017-01-15T11:06:07.000Z</time>
      </trkpt>
      <trkpt lat="47.52434" lon="6.697">
        <ele>392.6</ele>
        <time>2017-01-15T11:06:08.000Z</time>
      </trkpt>
      <trkpt lat="47.5243" lon="6.69701">
        <ele>392.3</ele>
        <time>2017-01-15T11:06:09.000Z</time>
      </trkpt>
      <trkpt lat="47.52427" lon="6.69702">
        <ele>392.4</ele>
        <time>2017-01-15T11:06:10.000Z</time>
      </trkpt>
      <trkpt lat="47.52423" lon="6.69702">
        <ele>392.6</ele>
        <time>2017-01-15T11:06:11.000Z</time>
      </trkpt>
      <trkpt lat="47.52418" lon="6.69703">
        <ele>392.2</ele>
        <time>2017-01-15T11:06:12.000Z</time>
      </trkpt>
      <trkpt lat="47.52415" lon="6.69704">
        <ele>391.7</ele>
        <time>2017-01-15T11:06:13.000Z</time>
      </trkpt>
      <trkpt lat="47.52411" lon="6.69705">
        <ele>391</ele>
        <time>2017-01-15T11:06:14.000Z</time>
      </trkpt>
      <trkpt lat="47.52406" lon="6.69706">
        <ele>390.9</ele>
        <time>2017-01-15T11:06:15.000Z</time>
      </trkpt>
      <trkpt lat="47.52402" lon="6.69708">
        <ele>390.9</ele>
        <time>2017-01-15T11:06:16.000Z</time>
      </trkpt>
      <trkpt lat="47.52398" lon="6.6971">
        <ele>391</ele>
        <time>2017-01-15T11:06:17.000Z</time>
      </trkpt>
      <trkpt lat="47.52395" lon="6.69711">
        <ele>391</ele>
        <time>2017-01-15T11:06:18.000Z</time>
      </trkpt>
      <trkpt lat="47.52391" lon="6.69713">
        <ele>391</ele>
        <time>2017-01-15T11:06:19.000Z</time>
      </trkpt>
      <trkpt lat="47.52388" lon="6.69715">
        <ele>391</ele>
        <time>2017-01-15T11:06:20.000Z</time>
      </trkpt>
      <trkpt lat="47.52385" lon="6.69718">
        <ele>391.1</ele>
        <time>2017-01-15T11:06:21.000Z</time>
      </trkpt>
      <trkpt lat="47.52382" lon="6.6972">
        <ele>391.1</ele>
        <time>2017-01-15T11:06:22.000Z</time>
      </trkpt>
      <trkpt lat="47.52379" lon="6.69723">
        <ele>391</ele>
        <time>2017-01-15T11:06:23.000Z</time>
      </trkpt>
      <trkpt lat="47.52375" lon="6.69726">
        <ele>391</ele>
        <time>2017-01-15T11:06:24.000Z</time>
      </trkpt>
      <trkpt lat="47.52371" lon="6.69729">
        <ele>391</ele>
        <time>2017-01-15T11:06:25.000Z</time>
      </trkpt>
      <trkpt lat="47.52368" lon="6.69732">
        <ele>390.9</ele>
        <time>2017-01-15T11:06:26.000Z</time>
      </trkpt>
      <trkpt lat="47.52364" lon="6.69736">
        <ele>390.9</ele>
        <time>2017-01-15T11:06:27.000Z</time>
      </trkpt>
      <trkpt lat="47.52361" lon="6.69738">
        <ele>390.9</ele>
        <time>2017-01-15T11:06:28.000Z</time>
      </trkpt>
      <trkpt lat="47.52359" lon="6.69741">
        <ele>390.9</ele>
        <time>2017-01-15T11:06:29.000Z</time>
      </trkpt>
      <trkpt lat="47.52356" lon="6.69744">
        <ele>390.9</ele>
        <time>2017-01-15T11:06:30.000Z</time>
      </trkpt>
      <trkpt lat="47.52353" lon="6.69748">
        <ele>391</ele>
        <time>2017-01-15T11:06:31.000Z</time>
      </trkpt>
      <trkpt lat="47.5235" lon="6.69753">
        <ele>391</ele>
        <time>2017-01-15T11:06:32.000Z</time>
      </trkpt>
      <trkpt lat="47.52348" lon="6.69757">
        <ele>391.1</ele>
        <time>2017-01-15T11:06:33.000Z</time>
      </trkpt>
      <trkpt lat="47.52346" lon="6.69761">
        <ele>391.1</ele>
        <time>2017-01-15T11:06:34.000Z</time>
      </trkpt>
      <trkpt lat="47.52344" lon="6.69765">
        <ele>391.2</ele>
        <time>2017-01-15T11:06:35.000Z</time>
      </trkpt>
      <trkpt lat="47.52342" lon="6.69768">
        <ele>391.4</ele>
        <time>2017-01-15T11:06:36.000Z</time>
      </trkpt>
      <trkpt lat="47.5234" lon="6.69772">
        <ele>391.4</ele>
        <time>2017-01-15T11:06:37.000Z</time>
      </trkpt>
      <trkpt lat="47.52337" lon="6.69776">
        <ele>391.5</ele>
        <time>2017-01-15T11:06:38.000Z</time>
      </trkpt>
      <trkpt lat="47.52335" lon="6.6978">
        <ele>391.6</ele>
        <time>2017-01-15T11:06:39.000Z</time>
      </trkpt>
      <trkpt lat="47.52332" lon="6.69783">
        <ele>391.7</ele>
        <time>2017-01-15T11:06:40.000Z</time>
      </trkpt>
      <trkpt lat="47.5233" lon="6.69787">
        <ele>391.7</ele>
        <time>2017-01-15T11:06:41.000Z</time>
      </trkpt>
      <trkpt lat="47.52327" lon="6.69792">
        <ele>392.6</ele>
        <time>2017-01-15T11:06:42.000Z</time>
      </trkpt>
      <trkpt lat="47.52324" lon="6.69797">
        <ele>393.2</ele>
        <time>2017-01-15T11:06:43.000Z</time>
      </trkpt>
      <trkpt lat="47.52322" lon="6.69802">
        <ele>393.3</ele>
        <time>2017-01-15T11:06:44.000Z</time>
      </trkpt>
      <trkpt lat="47.52319" lon="6.69807">
        <ele>393.4</ele>
        <time>2017-01-15T11:06:45.000Z</time>
      </trkpt>
      <trkpt lat="47.52316" lon="6.69813">
        <ele>393.6</ele>
        <time>2017-01-15T11:06:46.000Z</time>
      </trkpt>
      <trkpt lat="47.52313" lon="6.6982">
        <ele>394.9</ele>
        <time>2017-01-15T11:06:47.000Z</time>
      </trkpt>
      <trkpt lat="47.52309" lon="6.69826">
        <ele>395</ele>
        <time>2017-01-15T11:06:48.000Z</time>
      </trkpt>
      <trkpt lat="47.52305" lon="6.69832">
        <ele>396.3</ele>
        <time>2017-01-15T11:06:49.000Z</time>
      </trkpt>
      <trkpt lat="47.52302" lon="6.69838">
        <ele>397.4</ele>
        <time>2017-01-15T11:06:50.000Z</time>
      </trkpt>
      <trkpt lat="47.52299" lon="6.69845">
        <ele>397.8</ele>
        <time>2017-01-15T11:06:51.000Z</time>
      </trkpt>
      <trkpt lat="47.52296" lon="6.69851">
        <ele>399.1</ele>
        <time>2017-01-15T11:06:52.000Z</time>
      </trkpt>
      <trkpt lat="47.52293" lon="6.69858">
        <ele>400.8</ele>
        <time>2017-01-15T11:06:53.000Z</time>
      </trkpt>
      <trkpt lat="47.5229" lon="6.69864">
        <ele>402.2</ele>
        <time>2017-01-15T11:06:54.000Z</time>
      </trkpt>
      <trkpt lat="47.52288" lon="6.6987">
        <ele>403.1</ele>
        <time>2017-01-15T11:06:55.000Z</time>
      </trkpt>
      <trkpt lat="47.52285" lon="6.69876">
        <ele>403.9</ele>
        <time>2017-01-15T11:06:56.000Z</time>
      </trkpt>
      <trkpt lat="47.52282" lon="6.69883">
        <ele>404.4</ele>
        <time>2017-01-15T11:06:57.000Z</time>
      </trkpt>
      <trkpt lat="47.5228" lon="6.6989">
        <ele>404.5</ele>
        <time>2017-01-15T11:06:58.000Z</time>
      </trkpt>
      <trkpt lat="47.52278" lon="6.69898">
        <ele>404.5</ele>
        <time>2017-01-15T11:06:59.000Z</time>
      </trkpt>
      <trkpt lat="47.52275" lon="6.69904">
        <ele>404.2</ele>
        <time>2017-01-15T11:07:00.000Z</time>
      </trkpt>
      <trkpt lat="47.52272" lon="6.69912">
        <ele>404</ele>
        <time>2017-01-15T11:07:01.000Z</time>
      </trkpt>
      <trkpt lat="47.5227" lon="6.69919">
        <ele>404.2</ele>
        <time>2017-01-15T11:07:02.000Z</time>
      </trkpt>
      <trkpt lat="47.52267" lon="6.69926">
        <ele>404</ele>
        <time>2017-01-15T11:07:03.000Z</time>
      </trkpt>
      <trkpt lat="47.52264" lon="6.69933">
        <ele>403.7</ele>
        <time>2017-01-15T11:07:04.000Z</time>
      </trkpt>
      <trkpt lat="47.52261" lon="6.6994">
        <ele>403.2</ele>
        <time>2017-01-15T11:07:05.000Z</time>
      </trkpt>
      <trkpt lat="47.52259" lon="6.69948">
        <ele>402.4</ele>
        <time>2017-01-15T11:07:06.000Z</time>
      </trkpt>
      <trkpt lat="47.52257" lon="6.69954">
        <ele>401.6</ele>
        <time>2017-01-15T11:07:07.000Z</time>
      </trkpt>
      <trkpt lat="47.52254" lon="6.6996">
        <ele>401</ele>
        <time>2017-01-15T11:07:08.000Z</time>
      </trkpt>
      <trkpt lat="47.52251" lon="6.69967">
        <ele>400</ele>
        <time>2017-01-15T11:07:09.000Z</time>
      </trkpt>
      <trkpt lat="47.52248" lon="6.69973">
        <ele>399.9</ele>
        <time>2017-01-15T11:07:10.000Z</time>
      </trkpt>
      <trkpt lat="47.52246" lon="6.69979">
        <ele>399.6</ele>
        <time>2017-01-15T11:07:11.000Z</time>
      </trkpt>
      <trkpt lat="47.52244" lon="6.69985">
        <ele>399.2</ele>
        <time>2017-01-15T11:07:12.000Z</time>
      </trkpt>
      <trkpt lat="47.52242" lon="6.69992">
        <ele>398.3</ele>
        <time>2017-01-15T11:07:13.000Z</time>
      </trkpt>
      <trkpt lat="47.52239" lon="6.69999">
        <ele>397.1</ele>
        <time>2017-01-15T11:07:14.000Z</time>
      </trkpt>
      <trkpt lat="47.52237" lon="6.70006">
        <ele>395.7</ele>
        <time>2017-01-15T11:07:15.000Z</time>
      </trkpt>
      <trkpt lat="47.52234" lon="6.70014">
        <ele>394.8</ele>
        <time>2017-01-15T11:07:16.000Z</time>
      </trkpt>
      <trkpt lat="47.52232" lon="6.70021">
        <ele>394.5</ele>
        <time>2017-01-15T11:07:17.000Z</time>
      </trkpt>
      <trkpt lat="47.52229" lon="6.70029">
        <ele>393.9</ele>
        <time>2017-01-15T11:07:18.000Z</time>
      </trkpt>
      <trkpt lat="47.52227" lon="6.70036">
        <ele>393.9</ele>
        <time>2017-01-15T11:07:19.000Z</time>
      </trkpt>
      <trkpt lat="47.52225" lon="6.70043">
        <ele>394.1</ele>
        <time>2017-01-15T11:07:20.000Z</time>
      </trkpt>
      <trkpt lat="47.52223" lon="6.70051">
        <ele>393.8</ele>
        <time>2017-01-15T11:07:21.000Z</time>
      </trkpt>
      <trkpt lat="47.5222" lon="6.70059">
        <ele>393.6</ele>
        <time>2017-01-15T11:07:22.000Z</time>
      </trkpt>
      <trkpt lat="47.52218" lon="6.70068">
        <ele>393.4</ele>
        <time>2017-01-15T11:07:23.000Z</time>
      </trkpt>
      <trkpt lat="47.52216" lon="6.70076">
        <ele>393.6</ele>
        <time>2017-01-15T11:07:24.000Z</time>
      </trkpt>
      <trkpt lat="47.52214" lon="6.70084">
        <ele>393.3</ele>
        <time>2017-01-15T11:07:25.000Z</time>
      </trkpt>
      <trkpt lat="47.52212" lon="6.70092">
        <ele>392.7</ele>
        <time>2017-01-15T11:07:26.000Z</time>
      </trkpt>
      <trkpt lat="47.5221" lon="6.70099">
        <ele>392.1</ele>
        <time>2017-01-15T11:07:27.000Z</time>
      </trkpt>
      <trkpt lat="47.52208" lon="6.70106">
        <ele>391.6</ele>
        <time>2017-01-15T11:07:28.000Z</time>
      </trkpt>
      <trkpt lat="47.52206" lon="6.70114">
        <ele>391.5</ele>
        <time>2017-01-15T11:07:29.000Z</time>
      </trkpt>
      <trkpt lat="47.52204" lon="6.7012">
        <ele>391.4</ele>
        <time>2017-01-15T11:07:30.000Z</time>
      </trkpt>
      <trkpt lat="47.52202" lon="6.70125">
        <ele>391.2</ele>
        <time>2017-01-15T11:07:31.000Z</time>
      </trkpt>
      <trkpt lat="47.522" lon="6.70131">
        <ele>390.8</ele>
        <time>2017-01-15T11:07:32.000Z</time>
      </trkpt>
      <trkpt lat="47.52198" lon="6.70137">
        <ele>391.1</ele>
        <time>2017-01-15T11:07:33.000Z</time>
      </trkpt>
      <trkpt lat="47.52195" lon="6.70142">
        <ele>391.1</ele>
        <time>2017-01-15T11:07:34.000Z</time>
      </trkpt>
      <trkpt lat="47.52193" lon="6.70148">
        <ele>390.5</ele>
        <time>2017-01-15T11:07:35.000Z</time>
      </trkpt>
      <trkpt lat="47.52192" lon="6.70155">
        <ele>390.8</ele>
        <time>2017-01-15T11:07:36.000Z</time>
      </trkpt>
      <trkpt lat="47.5219" lon="6.7016">
        <ele>391.1</ele>
        <time>2017-01-15T11:07:37.000Z</time>
      </trkpt>
      <trkpt lat="47.52189" lon="6.70166">
        <ele>390.7</ele>
        <time>2017-01-15T11:07:38.000Z</time>
      </trkpt>
      <trkpt lat="47.52187" lon="6.70173">
        <ele>390.5</ele>
        <time>2017-01-15T11:07:39.000Z</time>
      </trkpt>
      <trkpt lat="47.52186" lon="6.70178">
        <ele>389.9</ele>
        <time>2017-01-15T11:07:40.000Z</time>
      </trkpt>
      <trkpt lat="47.52184" lon="6.70184">
        <ele>388.6</ele>
        <time>2017-01-15T11:07:41.000Z</time>
      </trkpt>
      <trkpt lat="47.52183" lon="6.7019">
        <ele>388.5</ele>
        <time>2017-01-15T11:07:42.000Z</time>
      </trkpt>
      <trkpt lat="47.52182" lon="6.70194">
        <ele>388.4</ele>
        <time>2017-01-15T11:07:43.000Z</time>
      </trkpt>
      <trkpt lat="47.5218" lon="6.70199">
        <ele>388.3</ele>
        <time>2017-01-15T11:07:44.000Z</time>
      </trkpt>
      <trkpt lat="47.52179" lon="6.70203">
        <ele>388.3</ele>
        <time>2017-01-15T11:07:45.000Z</time>
      </trkpt>
      <trkpt lat="47.52177" lon="6.70207">
        <ele>388.2</ele>
        <time>2017-01-15T11:07:46.000Z</time>
      </trkpt>
      <trkpt lat="47.52175" lon="6.70213">
        <ele>388.1</ele>
        <time>2017-01-15T11:07:47.000Z</time>
      </trkpt>
      <trkpt lat="47.52174" lon="6.70218">
        <ele>388</ele>
        <time>2017-01-15T11:07:48.000Z</time>
      </trkpt>
      <trkpt lat="47.52173" lon="6.70223">
        <ele>387.9</ele>
        <time>2017-01-15T11:07:49.000Z</time>
      </trkpt>
      <trkpt lat="47.52171" lon="6.70227">
        <ele>387.8</ele>
        <time>2017-01-15T11:07:50.000Z</time>
      </trkpt>
      <trkpt lat="47.52169" lon="6.70234">
        <ele>387.9</ele>
        <time>2017-01-15T11:07:51.000Z</time>
      </trkpt>
      <trkpt lat="47.52167" lon="6.70239">
        <ele>387.9</ele>
        <time>2017-01-15T11:07:52.000Z</time>
      </trkpt>
      <trkpt lat="47.52166" lon="6.70243">
        <ele>387.9</ele>
        <time>2017-01-15T11:07:53.000Z</time>
      </trkpt>
      <trkpt lat="47.52164" lon="6.70249">
        <ele>388</ele>
        <time>2017-01-15T11:07:54.000Z</time>
      </trkpt>
      <trkpt lat="47.52162" lon="6.70255">
        <ele>388</ele>
        <time>2017-01-15T11:07:55.000Z</time>
      </trkpt>
      <trkpt lat="47.52161" lon="6.7026">
        <ele>388</ele>
        <time>2017-01-15T11:07:56.000Z</time>
      </trkpt>
      <trkpt lat="47.52159" lon="6.70264">
        <ele>388.2</ele>
        <time>2017-01-15T11:07:57.000Z</time>
      </trkpt>
      <trkpt lat="47.52158" lon="6.70268">
        <ele>388.3</ele>
        <time>2017-01-15T11:07:58.000Z</time>
      </trkpt>
      <trkpt lat="47.52157" lon="6.70272">
        <ele>388.5</ele>
        <time>2017-01-15T11:07:59.000Z</time>
      </trkpt>
      <trkpt lat="47.52155" lon="6.70276">
        <ele>388.6</ele>
        <time>2017-01-15T11:08:00.000Z</time>
      </trkpt>
      <trkpt lat="47.52153" lon="6.70281">
        <ele>388.9</ele>
        <time>2017-01-15T11:08:01.000Z</time>
      </trkpt>
      <trkpt lat="47.52152" lon="6.70285">
        <ele>389.1</ele>
        <time>2017-01-15T11:08:02.000Z</time>
      </trkpt>
      <trkpt lat="47.52151" lon="6.70289">
        <ele>389.3</ele>
        <time>2017-01-15T11:08:03.000Z</time>
      </trkpt>
      <trkpt lat="47.5215" lon="6.70292">
        <ele>389.6</ele>
        <time>2017-01-15T11:08:04.000Z</time>
      </trkpt>
      <trkpt lat="47.52148" lon="6.70296">
        <ele>389.8</ele>
        <time>2017-01-15T11:08:05.000Z</time>
      </trkpt>
      <trkpt lat="47.52147" lon="6.703">
        <ele>390.1</ele>
        <time>2017-01-15T11:08:06.000Z</time>
      </trkpt>
      <trkpt lat="47.52147" lon="6.70304">
        <ele>390.3</ele>
        <time>2017-01-15T11:08:07.000Z</time>
      </trkpt>
      <trkpt lat="47.52146" lon="6.70307">
        <ele>390.5</ele>
        <time>2017-01-15T11:08:08.000Z</time>
      </trkpt>
      <trkpt lat="47.52145" lon="6.70311">
        <ele>390.8</ele>
        <time>2017-01-15T11:08:09.000Z</time>
      </trkpt>
      <trkpt lat="47.52143" lon="6.70315">
        <ele>391</ele>
        <time>2017-01-15T11:08:10.000Z</time>
      </trkpt>
      <trkpt lat="47.52142" lon="6.7032">
        <ele>391.3</ele>
        <time>2017-01-15T11:08:11.000Z</time>
      </trkpt>
      <trkpt lat="47.5214" lon="6.70324">
        <ele>391.5</ele>
        <time>2017-01-15T11:08:12.000Z</time>
      </trkpt>
      <trkpt lat="47.52139" lon="6.70329">
        <ele>391.6</ele>
        <time>2017-01-15T11:08:13.000Z</time>
      </trkpt>
      <trkpt lat="47.52138" lon="6.70333">
        <ele>391.8</ele>
        <time>2017-01-15T11:08:14.000Z</time>
      </trkpt>
      <trkpt lat="47.52137" lon="6.70337">
        <ele>391.9</ele>
        <time>2017-01-15T11:08:15.000Z</time>
      </trkpt>
      <trkpt lat="47.52136" lon="6.70341">
        <ele>392</ele>
        <time>2017-01-15T11:08:16.000Z</time>
      </trkpt>
      <trkpt lat="47.52135" lon="6.70345">
        <ele>392</ele>
        <time>2017-01-15T11:08:17.000Z</time>
      </trkpt>
      <trkpt lat="47.52133" lon="6.70349">
        <ele>392</ele>
        <time>2017-01-15T11:08:18.000Z</time>
      </trkpt>
      <trkpt lat="47.52132" lon="6.70352">
        <ele>392</ele>
        <time>2017-01-15T11:08:19.000Z</time>
      </trkpt>
      <trkpt lat="47.52131" lon="6.70357">
        <ele>392</ele>
        <time>2017-01-15T11:08:20.000Z</time>
      </trkpt>
      <trkpt lat="47.52129" lon="6.70362">
        <ele>392</ele>
        <time>2017-01-15T11:08:21.000Z</time>
      </trkpt>
      <trkpt lat="47.52128" lon="6.70367">
        <ele>391.9</ele>
        <time>2017-01-15T11:08:22.000Z</time>
      </trkpt>
      <trkpt lat="47.52127" lon="6.70372">
        <ele>391.9</ele>
        <time>2017-01-15T11:08:23.000Z</time>
      </trkpt>
      <trkpt lat="47.52125" lon="6.70376">
        <ele>391.9</ele>
        <time>2017-01-15T11:08:24.000Z</time>
      </trkpt>
      <trkpt lat="47.52124" lon="6.7038">
        <ele>391.8</ele>
        <time>2017-01-15T11:08:25.000Z</time>
      </trkpt>
      <trkpt lat="47.52123" lon="6.70385">
        <ele>391.8</ele>
        <time>2017-01-15T11:08:26.000Z</time>
      </trkpt>
      <trkpt lat="47.52122" lon="6.7039">
        <ele>391.8</ele>
        <time>2017-01-15T11:08:27.000Z</time>
      </trkpt>
      <trkpt lat="47.5212" lon="6.70394">
        <ele>391.7</ele>
        <time>2017-01-15T11:08:28.000Z</time>
      </trkpt>
      <trkpt lat="47.52119" lon="6.704">
        <ele>391.7</ele>
        <time>2017-01-15T11:08:29.000Z</time>
      </trkpt>
      <trkpt lat="47.52117" lon="6.70405">
        <ele>391.6</ele>
        <time>2017-01-15T11:08:30.000Z</time>
      </trkpt>
      <trkpt lat="47.52116" lon="6.70411">
        <ele>391.4</ele>
        <time>2017-01-15T11:08:31.000Z</time>
      </trkpt>
      <trkpt lat="47.52115" lon="6.70416">
        <ele>391.4</ele>
        <time>2017-01-15T11:08:32.000Z</time>
      </trkpt>
      <trkpt lat="47.52113" lon="6.70421">
        <ele>391.4</ele>
        <time>2017-01-15T11:08:33.000Z</time>
      </trkpt>
      <trkpt lat="47.52112" lon="6.70427">
        <ele>391.4</ele>
        <time>2017-01-15T11:08:34.000Z</time>
      </trkpt>
      <trkpt lat="47.5211" lon="6.70432">
        <ele>391.3</ele>
        <time>2017-01-15T11:08:35.000Z</time>
      </trkpt>
      <trkpt lat="47.52108" lon="6.70438">
        <ele>391.1</ele>
        <time>2017-01-15T11:08:36.000Z</time>
      </trkpt>
      <trkpt lat="47.52106" lon="6.70443">
        <ele>391</ele>
        <time>2017-01-15T11:08:37.000Z</time>
      </trkpt>
      <trkpt lat="47.52104" lon="6.70449">
        <ele>391</ele>
        <time>2017-01-15T11:08:38.000Z</time>
      </trkpt>
      <trkpt lat="47.52102" lon="6.70454">
        <ele>391</ele>
        <time>2017-01-15T11:08:39.000Z</time>
      </trkpt>
      <trkpt lat="47.52101" lon="6.70459">
        <ele>390.9</ele>
        <time>2017-01-15T11:08:40.000Z</time>
      </trkpt>
      <trkpt lat="47.521" lon="6.70464">
        <ele>390.8</ele>
        <time>2017-01-15T11:08:41.000Z</time>
      </trkpt>
      <trkpt lat="47.52098" lon="6.70469">
        <ele>390.7</ele>
        <time>2017-01-15T11:08:42.000Z</time>
      </trkpt>
      <trkpt lat="47.52097" lon="6.70475">
        <ele>390.7</ele>
        <time>2017-01-15T11:08:43.000Z</time>
      </trkpt>
      <trkpt lat="47.52094" lon="6.70479">
        <ele>390.7</ele>
        <time>2017-01-15T11:08:44.000Z</time>
      </trkpt>
      <trkpt lat="47.52093" lon="6.70484">
        <ele>390.8</ele>
        <time>2017-01-15T11:08:45.000Z</time>
      </trkpt>
      <trkpt lat="47.52091" lon="6.70489">
        <ele>390.7</ele>
        <time>2017-01-15T11:08:46.000Z</time>
      </trkpt>
      <trkpt lat="47.5209" lon="6.70493">
        <ele>390.8</ele>
        <time>2017-01-15T11:08:47.000Z</time>
      </trkpt>
      <trkpt lat="47.52089" lon="6.70498">
        <ele>390.7</ele>
        <time>2017-01-15T11:08:48.000Z</time>
      </trkpt>
      <trkpt lat="47.52087" lon="6.70503">
        <ele>390.7</ele>
        <time>2017-01-15T11:08:49.000Z</time>
      </trkpt>
      <trkpt lat="47.52085" lon="6.70508">
        <ele>390.7</ele>
        <time>2017-01-15T11:08:50.000Z</time>
      </trkpt>
      <trkpt lat="47.52083" lon="6.70513">
        <ele>390.7</ele>
        <time>2017-01-15T11:08:51.000Z</time>
      </trkpt>
      <trkpt lat="47.52082" lon="6.70517">
        <ele>390.7</ele>
        <time>2017-01-15T11:08:52.000Z</time>
      </trkpt>
      <trkpt lat="47.5208" lon="6.70522">
        <ele>390.7</ele>
        <time>2017-01-15T11:08:53.000Z</time>
      </trkpt>
      <trkpt lat="47.52079" lon="6.70526">
        <ele>390.6</ele>
        <time>2017-01-15T11:08:54.000Z</time>
      </trkpt>
      <trkpt lat="47.52078" lon="6.7053">
        <ele>390.6</ele>
        <time>2017-01-15T11:08:55.000Z</time>
      </trkpt>
      <trkpt lat="47.52077" lon="6.70535">
        <ele>390.4</ele>
        <time>2017-01-15T11:08:56.000Z</time>
      </trkpt>
      <trkpt lat="47.52076" lon="6.7054">
        <ele>390.4</ele>
        <time>2017-01-15T11:08:57.000Z</time>
      </trkpt>
      <trkpt lat="47.52074" lon="6.70545">
        <ele>390.3</ele>
        <time>2017-01-15T11:08:58.000Z</time>
      </trkpt>
      <trkpt lat="47.52072" lon="6.7055">
        <ele>390.3</ele>
        <time>2017-01-15T11:08:59.000Z</time>
      </trkpt>
      <trkpt lat="47.52071" lon="6.70555">
        <ele>390.3</ele>
        <time>2017-01-15T11:09:00.000Z</time>
      </trkpt>
      <trkpt lat="47.52069" lon="6.70559">
        <ele>390.3</ele>
        <time>2017-01-15T11:09:01.000Z</time>
      </trkpt>
      <trkpt lat="47.52067" lon="6.70564">
        <ele>390.3</ele>
        <time>2017-01-15T11:09:02.000Z</time>
      </trkpt>
      <trkpt lat="47.52065" lon="6.70569">
        <ele>390.2</ele>
        <time>2017-01-15T11:09:03.000Z</time>
      </trkpt>
      <trkpt lat="47.52063" lon="6.70574">
        <ele>390.1</ele>
        <time>2017-01-15T11:09:04.000Z</time>
      </trkpt>
      <trkpt lat="47.52061" lon="6.7058">
        <ele>390.1</ele>
        <time>2017-01-15T11:09:05.000Z</time>
      </trkpt>
      <trkpt lat="47.52059" lon="6.70585">
        <ele>390</ele>
        <time>2017-01-15T11:09:06.000Z</time>
      </trkpt>
      <trkpt lat="47.52058" lon="6.70592">
        <ele>390</ele>
        <time>2017-01-15T11:09:07.000Z</time>
      </trkpt>
      <trkpt lat="47.52057" lon="6.70597">
        <ele>390</ele>
        <time>2017-01-15T11:09:08.000Z</time>
      </trkpt>
      <trkpt lat="47.52055" lon="6.70603">
        <ele>390</ele>
        <time>2017-01-15T11:09:09.000Z</time>
      </trkpt>
      <trkpt lat="47.52053" lon="6.70608">
        <ele>390</ele>
        <time>2017-01-15T11:09:10.000Z</time>
      </trkpt>
      <trkpt lat="47.52052" lon="6.70613">
        <ele>390.1</ele>
        <time>2017-01-15T11:09:11.000Z</time>
      </trkpt>
      <trkpt lat="47.52051" lon="6.70617">
        <ele>390.2</ele>
        <time>2017-01-15T11:09:12.000Z</time>
      </trkpt>
      <trkpt lat="47.52049" lon="6.70622">
        <ele>390.4</ele>
        <time>2017-01-15T11:09:13.000Z</time>
      </trkpt>
      <trkpt lat="47.52048" lon="6.70626">
        <ele>390.6</ele>
        <time>2017-01-15T11:09:14.000Z</time>
      </trkpt>
      <trkpt lat="47.52047" lon="6.7063">
        <ele>390.8</ele>
        <time>2017-01-15T11:09:15.000Z</time>
      </trkpt>
      <trkpt lat="47.52046" lon="6.70635">
        <ele>390.9</ele>
        <time>2017-01-15T11:09:16.000Z</time>
      </trkpt>
      <trkpt lat="47.52045" lon="6.7064">
        <ele>391</ele>
        <time>2017-01-15T11:09:17.000Z</time>
      </trkpt>
      <trkpt lat="47.52044" lon="6.70646">
        <ele>391.2</ele>
        <time>2017-01-15T11:09:18.000Z</time>
      </trkpt>
      <trkpt lat="47.52042" lon="6.70651">
        <ele>391.4</ele>
        <time>2017-01-15T11:09:19.000Z</time>
      </trkpt>
      <trkpt lat="47.5204" lon="6.70656">
        <ele>391.6</ele>
        <time>2017-01-15T11:09:20.000Z</time>
      </trkpt>
      <trkpt lat="47.52039" lon="6.70661">
        <ele>391.8</ele>
        <time>2017-01-15T11:09:21.000Z</time>
      </trkpt>
      <trkpt lat="47.52038" lon="6.70666">
        <ele>392</ele>
        <time>2017-01-15T11:09:22.000Z</time>
      </trkpt>
      <trkpt lat="47.52036" lon="6.70671">
        <ele>392.3</ele>
        <time>2017-01-15T11:09:23.000Z</time>
      </trkpt>
      <trkpt lat="47.52034" lon="6.70676">
        <ele>392.6</ele>
        <time>2017-01-15T11:09:24.000Z</time>
      </trkpt>
      <trkpt lat="47.52033" lon="6.70681">
        <ele>392.8</ele>
        <time>2017-01-15T11:09:25.000Z</time>
      </trkpt>
      <trkpt lat="47.52031" lon="6.70686">
        <ele>393.1</ele>
        <time>2017-01-15T11:09:26.000Z</time>
      </trkpt>
      <trkpt lat="47.5203" lon="6.70692">
        <ele>393.3</ele>
        <time>2017-01-15T11:09:27.000Z</time>
      </trkpt>
      <trkpt lat="47.52029" lon="6.70696">
        <ele>393.6</ele>
        <time>2017-01-15T11:09:28.000Z</time>
      </trkpt>
      <trkpt lat="47.52028" lon="6.707">
        <ele>393.9</ele>
        <time>2017-01-15T11:09:29.000Z</time>
      </trkpt>
      <trkpt lat="47.52027" lon="6.70704">
        <ele>394.2</ele>
        <time>2017-01-15T11:09:30.000Z</time>
      </trkpt>
      <trkpt lat="47.52026" lon="6.70708">
        <ele>394.4</ele>
        <time>2017-01-15T11:09:31.000Z</time>
      </trkpt>
      <trkpt lat="47.52025" lon="6.70711">
        <ele>394.7</ele>
        <time>2017-01-15T11:09:32.000Z</time>
      </trkpt>
      <trkpt lat="47.52024" lon="6.70717">
        <ele>395.3</ele>
        <time>2017-01-15T11:09:34.000Z</time>
      </trkpt>
      <trkpt lat="47.52024" lon="6.70722">
        <ele>395.5</ele>
        <time>2017-01-15T11:09:35.000Z</time>
      </trkpt>
      <trkpt lat="47.52022" lon="6.70727">
        <ele>395.8</ele>
        <time>2017-01-15T11:09:36.000Z</time>
      </trkpt>
      <trkpt lat="47.52021" lon="6.70731">
        <ele>396.1</ele>
        <time>2017-01-15T11:09:37.000Z</time>
      </trkpt>
      <trkpt lat="47.5202" lon="6.70737">
        <ele>396.3</ele>
        <time>2017-01-15T11:09:38.000Z</time>
      </trkpt>
      <trkpt lat="47.52018" lon="6.70743">
        <ele>396.5</ele>
        <time>2017-01-15T11:09:39.000Z</time>
      </trkpt>
      <trkpt lat="47.52016" lon="6.70748">
        <ele>396.8</ele>
        <time>2017-01-15T11:09:40.000Z</time>
      </trkpt>
      <trkpt lat="47.52015" lon="6.70751">
        <ele>397</ele>
        <time>2017-01-15T11:09:41.000Z</time>
      </trkpt>
      <trkpt lat="47.52014" lon="6.70755">
        <ele>397.3</ele>
        <time>2017-01-15T11:09:42.000Z</time>
      </trkpt>
      <trkpt lat="47.52012" lon="6.7076">
        <ele>397.5</ele>
        <time>2017-01-15T11:09:43.000Z</time>
      </trkpt>
      <trkpt lat="47.5201" lon="6.70765">
        <ele>397.7</ele>
        <time>2017-01-15T11:09:44.000Z</time>
      </trkpt>
      <trkpt lat="47.52008" lon="6.70768">
        <ele>398</ele>
        <time>2017-01-15T11:09:45.000Z</time>
      </trkpt>
      <trkpt lat="47.52006" lon="6.70771">
        <ele>398.3</ele>
        <time>2017-01-15T11:09:46.000Z</time>
      </trkpt>
      <trkpt lat="47.52005" lon="6.70775">
        <ele>398.6</ele>
        <time>2017-01-15T11:09:47.000Z</time>
      </trkpt>
      <trkpt lat="47.52003" lon="6.7078">
        <ele>398.9</ele>
        <time>2017-01-15T11:09:48.000Z</time>
      </trkpt>
      <trkpt lat="47.52002" lon="6.70784">
        <ele>399.1</ele>
        <time>2017-01-15T11:09:49.000Z</time>
      </trkpt>
      <trkpt lat="47.52001" lon="6.70787">
        <ele>399.4</ele>
        <time>2017-01-15T11:09:50.000Z</time>
      </trkpt>
      <trkpt lat="47.52" lon="6.70791">
        <ele>399.7</ele>
        <time>2017-01-15T11:09:51.000Z</time>
      </trkpt>
      <trkpt lat="47.51999" lon="6.70795">
        <ele>399.9</ele>
        <time>2017-01-15T11:09:52.000Z</time>
      </trkpt>
      <trkpt lat="47.51998" lon="6.708">
        <ele>400.1</ele>
        <time>2017-01-15T11:09:53.000Z</time>
      </trkpt>
      <trkpt lat="47.51997" lon="6.70804">
        <ele>400.4</ele>
        <time>2017-01-15T11:09:54.000Z</time>
      </trkpt>
      <trkpt lat="47.51996" lon="6.70808">
        <ele>400.6</ele>
        <time>2017-01-15T11:09:55.000Z</time>
      </trkpt>
      <trkpt lat="47.51995" lon="6.70813">
        <ele>400.8</ele>
        <time>2017-01-15T11:09:56.000Z</time>
      </trkpt>
      <trkpt lat="47.51993" lon="6.70818">
        <ele>401</ele>
        <time>2017-01-15T11:09:57.000Z</time>
      </trkpt>
      <trkpt lat="47.51993" lon="6.70822">
        <ele>401.2</ele>
        <time>2017-01-15T11:09:58.000Z</time>
      </trkpt>
      <trkpt lat="47.51991" lon="6.70825">
        <ele>401.3</ele>
        <time>2017-01-15T11:09:59.000Z</time>
      </trkpt>
      <trkpt lat="47.5199" lon="6.70831">
        <ele>401.7</ele>
        <time>2017-01-15T11:10:01.000Z</time>
      </trkpt>
      <trkpt lat="47.51989" lon="6.70834">
        <ele>401.9</ele>
        <time>2017-01-15T11:10:02.000Z</time>
      </trkpt>
      <trkpt lat="47.51988" lon="6.70837">
        <ele>402</ele>
        <time>2017-01-15T11:10:03.000Z</time>
      </trkpt>
      <trkpt lat="47.51986" lon="6.70842">
        <ele>402.2</ele>
        <time>2017-01-15T11:10:04.000Z</time>
      </trkpt>
      <trkpt lat="47.51985" lon="6.70846">
        <ele>402.3</ele>
        <time>2017-01-15T11:10:05.000Z</time>
      </trkpt>
      <trkpt lat="47.51984" lon="6.7085">
        <ele>402.5</ele>
        <time>2017-01-15T11:10:06.000Z</time>
      </trkpt>
      <trkpt lat="47.51982" lon="6.70854">
        <ele>402.5</ele>
        <time>2017-01-15T11:10:07.000Z</time>
      </trkpt>
      <trkpt lat="47.51981" lon="6.70858">
        <ele>402.6</ele>
        <time>2017-01-15T11:10:08.000Z</time>
      </trkpt>
      <trkpt lat="47.5198" lon="6.70862">
        <ele>402.7</ele>
        <time>2017-01-15T11:10:10.000Z</time>
      </trkpt>
      <trkpt lat="47.51979" lon="6.70865">
        <ele>402.8</ele>
        <time>2017-01-15T11:10:11.000Z</time>
      </trkpt>
      <trkpt lat="47.51976" lon="6.7087">
        <ele>403</ele>
        <time>2017-01-15T11:10:13.000Z</time>
      </trkpt>
      <trkpt lat="47.51976" lon="6.70871">
        <ele>403.1</ele>
        <time>2017-01-15T11:10:14.000Z</time>
      </trkpt>
      <trkpt lat="47.51975" lon="6.70875">
        <ele>403.6</ele>
        <time>2017-01-15T11:10:17.000Z</time>
      </trkpt>
      <trkpt lat="47.51974" lon="6.70878">
        <ele>403.7</ele>
        <time>2017-01-15T11:10:18.000Z</time>
      </trkpt>
      <trkpt lat="47.51974" lon="6.70883">
        <ele>404.1</ele>
        <time>2017-01-15T11:10:20.000Z</time>
      </trkpt>
      <trkpt lat="47.51974" lon="6.70885">
        <ele>404.3</ele>
        <time>2017-01-15T11:10:21.000Z</time>
      </trkpt>
      <trkpt lat="47.51978" lon="6.70882">
        <ele>405.5</ele>
        <time>2017-01-15T11:10:40.000Z</time>
      </trkpt>
      <trkpt lat="47.51978" lon="6.70882">
        <ele>405.5</ele>
        <time>2017-01-15T11:10:41.000Z</time>
      </trkpt>
      <trkpt lat="47.51975" lon="6.70879">
        <ele>405.3</ele>
        <time>2017-01-15T11:10:46.000Z</time>
      </trkpt>
      <trkpt lat="47.51974" lon="6.70878">
        <ele>405.3</ele>
        <time>2017-01-15T11:10:47.000Z</time>
      </trkpt>
      <trkpt lat="47.51971" lon="6.70876">
        <ele>405.2</ele>
        <time>2017-01-15T11:10:50.000Z</time>
      </trkpt>
      <trkpt lat="47.51969" lon="6.70876">
        <ele>405.1</ele>
        <time>2017-01-15T11:10:51.000Z</time>
      </trkpt>
      <trkpt lat="47.51968" lon="6.70881">
        <ele>405.9</ele>
        <time>2017-01-15T11:11:34.000Z</time>
      </trkpt>
      <trkpt lat="47.51967" lon="6.70882">
        <ele>406.1</ele>
        <time>2017-01-15T11:11:35.000Z</time>
      </trkpt>
      <trkpt lat="47.51964" lon="6.70886">
        <ele>406.3</ele>
        <time>2017-01-15T11:11:38.000Z</time>
      </trkpt>
      <trkpt lat="47.51963" lon="6.70887">
        <ele>406.3</ele>
        <time>2017-01-15T11:11:39.000Z</time>
      </trkpt>
      <trkpt lat="47.5196" lon="6.70889">
        <ele>406.5</ele>
        <time>2017-01-15T11:11:42.000Z</time>
      </trkpt>
      <trkpt lat="47.51958" lon="6.70889">
        <ele>406.6</ele>
        <time>2017-01-15T11:11:43.000Z</time>
      </trkpt>
      <trkpt lat="47.51954" lon="6.70888">
        <ele>406.7</ele>
        <time>2017-01-15T11:11:45.000Z</time>
      </trkpt>
      <trkpt lat="47.51952" lon="6.70888">
        <ele>406.8</ele>
        <time>2017-01-15T11:11:46.000Z</time>
      </trkpt>
      <trkpt lat="47.51949" lon="6.70887">
        <ele>406.8</ele>
        <time>2017-01-15T11:11:47.000Z</time>
      </trkpt>
      <trkpt lat="47.51947" lon="6.70886">
        <ele>406.9</ele>
        <time>2017-01-15T11:11:48.000Z</time>
      </trkpt>
      <trkpt lat="47.51944" lon="6.70885">
        <ele>407</ele>
        <time>2017-01-15T11:11:49.000Z</time>
      </trkpt>
      <trkpt lat="47.51941" lon="6.70884">
        <ele>407.1</ele>
        <time>2017-01-15T11:11:50.000Z</time>
      </trkpt>
      <trkpt lat="47.51938" lon="6.70883">
        <ele>407.3</ele>
        <time>2017-01-15T11:11:51.000Z</time>
      </trkpt>
      <trkpt lat="47.51935" lon="6.70881">
        <ele>407.4</ele>
        <time>2017-01-15T11:11:52.000Z</time>
      </trkpt>
      <trkpt lat="47.51932" lon="6.70879">
        <ele>407.5</ele>
        <time>2017-01-15T11:11:53.000Z</time>
      </trkpt>
      <trkpt lat="47.51929" lon="6.70876">
        <ele>407.6</ele>
        <time>2017-01-15T11:11:54.000Z</time>
      </trkpt>
      <trkpt lat="47.51925" lon="6.70874">
        <ele>407.7</ele>
        <time>2017-01-15T11:11:55.000Z</time>
      </trkpt>
      <trkpt lat="47.51922" lon="6.70872">
        <ele>407.8</ele>
        <time>2017-01-15T11:11:56.000Z</time>
      </trkpt>
      <trkpt lat="47.51919" lon="6.70869">
        <ele>407.9</ele>
        <time>2017-01-15T11:11:57.000Z</time>
      </trkpt>
      <trkpt lat="47.51915" lon="6.70867">
        <ele>408</ele>
        <time>2017-01-15T11:11:58.000Z</time>
      </trkpt>
      <trkpt lat="47.51912" lon="6.70865">
        <ele>408.1</ele>
        <time>2017-01-15T11:11:59.000Z</time>
      </trkpt>
      <trkpt lat="47.51909" lon="6.70863">
        <ele>408.1</ele>
        <time>2017-01-15T11:12:00.000Z</time>
      </trkpt>
      <trkpt lat="47.51905" lon="6.70861">
        <ele>408.2</ele>
        <time>2017-01-15T11:12:01.000Z</time>
      </trkpt>
      <trkpt lat="47.51902" lon="6.70858">
        <ele>408.8</ele>
        <time>2017-01-15T11:12:02.000Z</time>
      </trkpt>
      <trkpt lat="47.51898" lon="6.70856">
        <ele>409.3</ele>
        <time>2017-01-15T11:12:03.000Z</time>
      </trkpt>
      <trkpt lat="47.51893" lon="6.70853">
        <ele>409.8</ele>
        <time>2017-01-15T11:12:04.000Z</time>
      </trkpt>
      <trkpt lat="47.51889" lon="6.7085">
        <ele>409.9</ele>
        <time>2017-01-15T11:12:05.000Z</time>
      </trkpt>
      <trkpt lat="47.51885" lon="6.70848">
        <ele>410.8</ele>
        <time>2017-01-15T11:12:06.000Z</time>
      </trkpt>
      <trkpt lat="47.51882" lon="6.70845">
        <ele>411.2</ele>
        <time>2017-01-15T11:12:07.000Z</time>
      </trkpt>
      <trkpt lat="47.51879" lon="6.70843">
        <ele>411.4</ele>
        <time>2017-01-15T11:12:08.000Z</time>
      </trkpt>
      <trkpt lat="47.51876" lon="6.7084">
        <ele>411.5</ele>
        <time>2017-01-15T11:12:09.000Z</time>
      </trkpt>
      <trkpt lat="47.51872" lon="6.70837">
        <ele>411.8</ele>
        <time>2017-01-15T11:12:10.000Z</time>
      </trkpt>
      <trkpt lat="47.51868" lon="6.70835">
        <ele>412</ele>
        <time>2017-01-15T11:12:11.000Z</time>
      </trkpt>
      <trkpt lat="47.51865" lon="6.70832">
        <ele>412</ele>
        <time>2017-01-15T11:12:12.000Z</time>
      </trkpt>
      <trkpt lat="47.51861" lon="6.70829">
        <ele>412.2</ele>
        <time>2017-01-15T11:12:13.000Z</time>
      </trkpt>
      <trkpt lat="47.51858" lon="6.70825">
        <ele>412.1</ele>
        <time>2017-01-15T11:12:14.000Z</time>
      </trkpt>
      <trkpt lat="47.51854" lon="6.70822">
        <ele>411.9</ele>
        <time>2017-01-15T11:12:15.000Z</time>
      </trkpt>
      <trkpt lat="47.51851" lon="6.70819">
        <ele>411.6</ele>
        <time>2017-01-15T11:12:16.000Z</time>
      </trkpt>
      <trkpt lat="47.51848" lon="6.70815">
        <ele>411.2</ele>
        <time>2017-01-15T11:12:17.000Z</time>
      </trkpt>
      <trkpt lat="47.51844" lon="6.70811">
        <ele>410.9</ele>
        <time>2017-01-15T11:12:18.000Z</time>
      </trkpt>
      <trkpt lat="47.5184" lon="6.70807">
        <ele>410.7</ele>
        <time>2017-01-15T11:12:19.000Z</time>
      </trkpt>
      <trkpt lat="47.51836" lon="6.70804">
        <ele>410.7</ele>
        <time>2017-01-15T11:12:20.000Z</time>
      </trkpt>
      <trkpt lat="47.51833" lon="6.708">
        <ele>410.9</ele>
        <time>2017-01-15T11:12:21.000Z</time>
      </trkpt>
      <trkpt lat="47.51829" lon="6.70797">
        <ele>410.9</ele>
        <time>2017-01-15T11:12:22.000Z</time>
      </trkpt>
      <trkpt lat="47.51825" lon="6.70793">
        <ele>410.9</ele>
        <time>2017-01-15T11:12:23.000Z</time>
      </trkpt>
      <trkpt lat="47.51821" lon="6.70789">
        <ele>411.4</ele>
        <time>2017-01-15T11:12:24.000Z</time>
      </trkpt>
      <trkpt lat="47.51817" lon="6.70786">
        <ele>411.9</ele>
        <time>2017-01-15T11:12:25.000Z</time>
      </trkpt>
      <trkpt lat="47.51813" lon="6.70782">
        <ele>412.6</ele>
        <time>2017-01-15T11:12:26.000Z</time>
      </trkpt>
      <trkpt lat="47.51809" lon="6.70779">
        <ele>412.7</ele>
        <time>2017-01-15T11:12:27.000Z</time>
      </trkpt>
      <trkpt lat="47.51806" lon="6.70775">
        <ele>412.5</ele>
        <time>2017-01-15T11:12:28.000Z</time>
      </trkpt>
      <trkpt lat="47.51802" lon="6.70772">
        <ele>412.2</ele>
        <time>2017-01-15T11:12:29.000Z</time>
      </trkpt>
      <trkpt lat="47.51799" lon="6.70769">
        <ele>412.2</ele>
        <time>2017-01-15T11:12:30.000Z</time>
      </trkpt>
      <trkpt lat="47.51796" lon="6.70766">
        <ele>411.9</ele>
        <time>2017-01-15T11:12:31.000Z</time>
      </trkpt>
      <trkpt lat="47.51793" lon="6.70764">
        <ele>411.2</ele>
        <time>2017-01-15T11:12:32.000Z</time>
      </trkpt>
      <trkpt lat="47.5179" lon="6.70761">
        <ele>411.2</ele>
        <time>2017-01-15T11:12:33.000Z</time>
      </trkpt>
      <trkpt lat="47.51786" lon="6.70756">
        <ele>411.1</ele>
        <time>2017-01-15T11:12:34.000Z</time>
      </trkpt>
      <trkpt lat="47.51782" lon="6.70753">
        <ele>411.5</ele>
        <time>2017-01-15T11:12:35.000Z</time>
      </trkpt>
      <trkpt lat="47.51778" lon="6.70749">
        <ele>411.9</ele>
        <time>2017-01-15T11:12:36.000Z</time>
      </trkpt>
      <trkpt lat="47.51774" lon="6.70746">
        <ele>411.8</ele>
        <time>2017-01-15T11:12:37.000Z</time>
      </trkpt>
      <trkpt lat="47.51771" lon="6.70743">
        <ele>411.8</ele>
        <time>2017-01-15T11:12:38.000Z</time>
      </trkpt>
      <trkpt lat="47.51768" lon="6.7074">
        <ele>411.4</ele>
        <time>2017-01-15T11:12:39.000Z</time>
      </trkpt>
      <trkpt lat="47.51765" lon="6.70737">
        <ele>411</ele>
        <time>2017-01-15T11:12:40.000Z</time>
      </trkpt>
      <trkpt lat="47.51761" lon="6.70733">
        <ele>410.7</ele>
        <time>2017-01-15T11:12:41.000Z</time>
      </trkpt>
      <trkpt lat="47.51757" lon="6.70729">
        <ele>410.4</ele>
        <time>2017-01-15T11:12:42.000Z</time>
      </trkpt>
      <trkpt lat="47.51753" lon="6.70725">
        <ele>410.4</ele>
        <time>2017-01-15T11:12:43.000Z</time>
      </trkpt>
      <trkpt lat="47.5175" lon="6.70722">
        <ele>410.6</ele>
        <time>2017-01-15T11:12:44.000Z</time>
      </trkpt>
      <trkpt lat="47.51746" lon="6.7072">
        <ele>410.7</ele>
        <time>2017-01-15T11:12:45.000Z</time>
      </trkpt>
      <trkpt lat="47.51744" lon="6.70718">
        <ele>410.8</ele>
        <time>2017-01-15T11:12:46.000Z</time>
      </trkpt>
      <trkpt lat="47.51742" lon="6.70715">
        <ele>411</ele>
        <time>2017-01-15T11:12:47.000Z</time>
      </trkpt>
      <trkpt lat="47.51739" lon="6.70712">
        <ele>411</ele>
        <time>2017-01-15T11:12:48.000Z</time>
      </trkpt>
      <trkpt lat="47.51736" lon="6.70709">
        <ele>411</ele>
        <time>2017-01-15T11:12:49.000Z</time>
      </trkpt>
      <trkpt lat="47.51733" lon="6.70705">
        <ele>410.9</ele>
        <time>2017-01-15T11:12:50.000Z</time>
      </trkpt>
      <trkpt lat="47.51729" lon="6.70701">
        <ele>410.9</ele>
        <time>2017-01-15T11:12:51.000Z</time>
      </trkpt>
      <trkpt lat="47.51726" lon="6.70698">
        <ele>410.9</ele>
        <time>2017-01-15T11:12:52.000Z</time>
      </trkpt>
      <trkpt lat="47.51724" lon="6.70694">
        <ele>410.9</ele>
        <time>2017-01-15T11:12:53.000Z</time>
      </trkpt>
      <trkpt lat="47.5172" lon="6.70689">
        <ele>410.9</ele>
        <time>2017-01-15T11:12:54.000Z</time>
      </trkpt>
      <trkpt lat="47.51717" lon="6.70685">
        <ele>411</ele>
        <time>2017-01-15T11:12:55.000Z</time>
      </trkpt>
      <trkpt lat="47.51714" lon="6.70682">
        <ele>411</ele>
        <time>2017-01-15T11:12:56.000Z</time>
      </trkpt>
      <trkpt lat="47.51711" lon="6.70678">
        <ele>411</ele>
        <time>2017-01-15T11:12:57.000Z</time>
      </trkpt>
      <trkpt lat="47.51708" lon="6.70675">
        <ele>411.1</ele>
        <time>2017-01-15T11:12:58.000Z</time>
      </trkpt>
      <trkpt lat="47.51705" lon="6.70672">
        <ele>411.2</ele>
        <time>2017-01-15T11:12:59.000Z</time>
      </trkpt>
      <trkpt lat="47.51702" lon="6.70668">
        <ele>412.1</ele>
        <time>2017-01-15T11:13:00.000Z</time>
      </trkpt>
      <trkpt lat="47.51699" lon="6.70664">
        <ele>412.2</ele>
        <time>2017-01-15T11:13:01.000Z</time>
      </trkpt>
      <trkpt lat="47.51696" lon="6.70661">
        <ele>412.3</ele>
        <time>2017-01-15T11:13:02.000Z</time>
      </trkpt>
      <trkpt lat="47.51693" lon="6.70657">
        <ele>412.4</ele>
        <time>2017-01-15T11:13:03.000Z</time>
      </trkpt>
      <trkpt lat="47.5169" lon="6.70655">
        <ele>412.5</ele>
        <time>2017-01-15T11:13:04.000Z</time>
      </trkpt>
      <trkpt lat="47.51688" lon="6.70653">
        <ele>412.6</ele>
        <time>2017-01-15T11:13:05.000Z</time>
      </trkpt>
      <trkpt lat="47.51685" lon="6.70651">
        <ele>412.6</ele>
        <time>2017-01-15T11:13:06.000Z</time>
      </trkpt>
      <trkpt lat="47.51682" lon="6.70646">
        <ele>412.5</ele>
        <time>2017-01-15T11:13:08.000Z</time>
      </trkpt>
      <trkpt lat="47.51681" lon="6.70644">
        <ele>412.5</ele>
        <time>2017-01-15T11:13:09.000Z</time>
      </trkpt>
      <trkpt lat="47.51679" lon="6.7064">
        <ele>412.5</ele>
        <time>2017-01-15T11:13:10.000Z</time>
      </trkpt>
      <trkpt lat="47.51677" lon="6.70636">
        <ele>412.6</ele>
        <time>2017-01-15T11:13:11.000Z</time>
      </trkpt>
      <trkpt lat="47.51675" lon="6.70632">
        <ele>412.7</ele>
        <time>2017-01-15T11:13:12.000Z</time>
      </trkpt>
      <trkpt lat="47.51672" lon="6.70628">
        <ele>412.8</ele>
        <time>2017-01-15T11:13:13.000Z</time>
      </trkpt>
      <trkpt lat="47.51669" lon="6.70625">
        <ele>412.9</ele>
        <time>2017-01-15T11:13:14.000Z</time>
      </trkpt>
      <trkpt lat="47.51667" lon="6.70622">
        <ele>412.9</ele>
        <time>2017-01-15T11:13:15.000Z</time>
      </trkpt>
      <trkpt lat="47.51666" lon="6.70619">
        <ele>412.9</ele>
        <time>2017-01-15T11:13:16.000Z</time>
      </trkpt>
      <trkpt lat="47.51663" lon="6.70615">
        <ele>412.9</ele>
        <time>2017-01-15T11:13:17.000Z</time>
      </trkpt>
      <trkpt lat="47.51662" lon="6.70612">
        <ele>412.9</ele>
        <time>2017-01-15T11:13:18.000Z</time>
      </trkpt>
      <trkpt lat="47.51659" lon="6.70608">
        <ele>413</ele>
        <time>2017-01-15T11:13:19.000Z</time>
      </trkpt>
      <trkpt lat="47.51657" lon="6.70604">
        <ele>413.1</ele>
        <time>2017-01-15T11:13:20.000Z</time>
      </trkpt>
      <trkpt lat="47.51656" lon="6.70601">
        <ele>413.2</ele>
        <time>2017-01-15T11:13:21.000Z</time>
      </trkpt>
      <trkpt lat="47.51655" lon="6.70598">
        <ele>413.2</ele>
        <time>2017-01-15T11:13:22.000Z</time>
      </trkpt>
      <trkpt lat="47.51652" lon="6.70594">
        <ele>413.3</ele>
        <time>2017-01-15T11:13:23.000Z</time>
      </trkpt>
      <trkpt lat="47.51649" lon="6.70589">
        <ele>413.6</ele>
        <time>2017-01-15T11:13:25.000Z</time>
      </trkpt>
      <trkpt lat="47.51648" lon="6.70586">
        <ele>413.8</ele>
        <time>2017-01-15T11:13:26.000Z</time>
      </trkpt>
      <trkpt lat="47.51646" lon="6.70582">
        <ele>413.9</ele>
        <time>2017-01-15T11:13:27.000Z</time>
      </trkpt>
      <trkpt lat="47.51644" lon="6.70577">
        <ele>414.2</ele>
        <time>2017-01-15T11:13:28.000Z</time>
      </trkpt>
      <trkpt lat="47.51643" lon="6.70573">
        <ele>414.4</ele>
        <time>2017-01-15T11:13:29.000Z</time>
      </trkpt>
      <trkpt lat="47.51642" lon="6.70568">
        <ele>414.5</ele>
        <time>2017-01-15T11:13:30.000Z</time>
      </trkpt>
      <trkpt lat="47.51641" lon="6.70563">
        <ele>414.7</ele>
        <time>2017-01-15T11:13:31.000Z</time>
      </trkpt>
      <trkpt lat="47.5164" lon="6.70558">
        <ele>414.8</ele>
        <time>2017-01-15T11:13:32.000Z</time>
      </trkpt>
      <trkpt lat="47.51639" lon="6.70552">
        <ele>414.8</ele>
        <time>2017-01-15T11:13:33.000Z</time>
      </trkpt>
      <trkpt lat="47.51639" lon="6.70546">
        <ele>414.9</ele>
        <time>2017-01-15T11:13:34.000Z</time>
      </trkpt>
      <trkpt lat="47.51638" lon="6.70539">
        <ele>414.9</ele>
        <time>2017-01-15T11:13:35.000Z</time>
      </trkpt>
      <trkpt lat="47.51638" lon="6.70534">
        <ele>414.9</ele>
        <time>2017-01-15T11:13:36.000Z</time>
      </trkpt>
      <trkpt lat="47.51637" lon="6.70527">
        <ele>414.8</ele>
        <time>2017-01-15T11:13:37.000Z</time>
      </trkpt>
      <trkpt lat="47.51637" lon="6.70521">
        <ele>414.9</ele>
        <time>2017-01-15T11:13:38.000Z</time>
      </trkpt>
      <trkpt lat="47.51636" lon="6.70516">
        <ele>414.9</ele>
        <time>2017-01-15T11:13:39.000Z</time>
      </trkpt>
      <trkpt lat="47.51636" lon="6.70511">
        <ele>414.9</ele>
        <time>2017-01-15T11:13:40.000Z</time>
      </trkpt>
      <trkpt lat="47.51635" lon="6.70506">
        <ele>414.9</ele>
        <time>2017-01-15T11:13:41.000Z</time>
      </trkpt>
      <trkpt lat="47.51634" lon="6.70502">
        <ele>415</ele>
        <time>2017-01-15T11:13:42.000Z</time>
      </trkpt>
      <trkpt lat="47.51633" lon="6.70498">
        <ele>415.1</ele>
        <time>2017-01-15T11:13:43.000Z</time>
      </trkpt>
      <trkpt lat="47.51632" lon="6.70495">
        <ele>415.2</ele>
        <time>2017-01-15T11:13:44.000Z</time>
      </trkpt>
      <trkpt lat="47.51632" lon="6.70491">
        <ele>415.2</ele>
        <time>2017-01-15T11:13:45.000Z</time>
      </trkpt>
      <trkpt lat="47.5163" lon="6.70487">
        <ele>415.1</ele>
        <time>2017-01-15T11:13:46.000Z</time>
      </trkpt>
      <trkpt lat="47.51629" lon="6.70483">
        <ele>415.1</ele>
        <time>2017-01-15T11:13:47.000Z</time>
      </trkpt>
      <trkpt lat="47.51627" lon="6.70478">
        <ele>415.1</ele>
        <time>2017-01-15T11:13:48.000Z</time>
      </trkpt>
      <trkpt lat="47.51625" lon="6.70474">
        <ele>415</ele>
        <time>2017-01-15T11:13:49.000Z</time>
      </trkpt>
      <trkpt lat="47.51624" lon="6.70473">
        <ele>415</ele>
        <time>2017-01-15T11:13:50.000Z</time>
      </trkpt>
      <trkpt lat="47.51622" lon="6.7047">
        <ele>415</ele>
        <time>2017-01-15T11:13:51.000Z</time>
      </trkpt>
      <trkpt lat="47.51619" lon="6.70466">
        <ele>414.9</ele>
        <time>2017-01-15T11:13:52.000Z</time>
      </trkpt>
      <trkpt lat="47.51617" lon="6.70463">
        <ele>414.8</ele>
        <time>2017-01-15T11:13:53.000Z</time>
      </trkpt>
      <trkpt lat="47.51615" lon="6.70461">
        <ele>414.8</ele>
        <time>2017-01-15T11:13:54.000Z</time>
      </trkpt>
      <trkpt lat="47.51612" lon="6.7046">
        <ele>414.7</ele>
        <time>2017-01-15T11:13:55.000Z</time>
      </trkpt>
      <trkpt lat="47.5161" lon="6.70459">
        <ele>414.6</ele>
        <time>2017-01-15T11:13:56.000Z</time>
      </trkpt>
      <trkpt lat="47.51607" lon="6.70457">
        <ele>414.5</ele>
        <time>2017-01-15T11:13:57.000Z</time>
      </trkpt>
      <trkpt lat="47.51604" lon="6.70455">
        <ele>414.5</ele>
        <time>2017-01-15T11:13:58.000Z</time>
      </trkpt>
      <trkpt lat="47.51601" lon="6.70453">
        <ele>414.5</ele>
        <time>2017-01-15T11:13:59.000Z</time>
      </trkpt>
      <trkpt lat="47.51598" lon="6.70451">
        <ele>414.5</ele>
        <time>2017-01-15T11:14:00.000Z</time>
      </trkpt>
      <trkpt lat="47.51597" lon="6.7045">
        <ele>414.4</ele>
        <time>2017-01-15T11:14:01.000Z</time>
      </trkpt>
      <trkpt lat="47.51594" lon="6.70449">
        <ele>414.4</ele>
        <time>2017-01-15T11:14:02.000Z</time>
      </trkpt>
      <trkpt lat="47.51591" lon="6.70448">
        <ele>414.3</ele>
        <time>2017-01-15T11:14:03.000Z</time>
      </trkpt>
      <trkpt lat="47.51588" lon="6.70446">
        <ele>414.3</ele>
        <time>2017-01-15T11:14:04.000Z</time>
      </trkpt>
      <trkpt lat="47.51585" lon="6.70444">
        <ele>414.3</ele>
        <time>2017-01-15T11:14:05.000Z</time>
      </trkpt>
      <trkpt lat="47.51582" lon="6.70442">
        <ele>414.2</ele>
        <time>2017-01-15T11:14:06.000Z</time>
      </trkpt>
      <trkpt lat="47.51579" lon="6.70441">
        <ele>414.1</ele>
        <time>2017-01-15T11:14:07.000Z</time>
      </trkpt>
      <trkpt lat="47.51577" lon="6.70439">
        <ele>413.9</ele>
        <time>2017-01-15T11:14:08.000Z</time>
      </trkpt>
      <trkpt lat="47.51574" lon="6.70437">
        <ele>413.6</ele>
        <time>2017-01-15T11:14:09.000Z</time>
      </trkpt>
      <trkpt lat="47.51571" lon="6.70436">
        <ele>413.4</ele>
        <time>2017-01-15T11:14:10.000Z</time>
      </trkpt>
      <trkpt lat="47.51567" lon="6.70434">
        <ele>411.7</ele>
        <time>2017-01-15T11:14:11.000Z</time>
      </trkpt>
      <trkpt lat="47.51564" lon="6.70432">
        <ele>411.6</ele>
        <time>2017-01-15T11:14:12.000Z</time>
      </trkpt>
      <trkpt lat="47.5156" lon="6.7043">
        <ele>411.3</ele>
        <time>2017-01-15T11:14:13.000Z</time>
      </trkpt>
      <trkpt lat="47.51557" lon="6.70429">
        <ele>411</ele>
        <time>2017-01-15T11:14:14.000Z</time>
      </trkpt>
      <trkpt lat="47.51553" lon="6.70427">
        <ele>410.8</ele>
        <time>2017-01-15T11:14:15.000Z</time>
      </trkpt>
      <trkpt lat="47.51549" lon="6.70424">
        <ele>410.6</ele>
        <time>2017-01-15T11:14:16.000Z</time>
      </trkpt>
      <trkpt lat="47.51544" lon="6.70422">
        <ele>410.4</ele>
        <time>2017-01-15T11:14:17.000Z</time>
      </trkpt>
      <trkpt lat="47.5154" lon="6.70419">
        <ele>410.2</ele>
        <time>2017-01-15T11:14:18.000Z</time>
      </trkpt>
      <trkpt lat="47.51536" lon="6.70416">
        <ele>410</ele>
        <time>2017-01-15T11:14:19.000Z</time>
      </trkpt>
      <trkpt lat="47.51532" lon="6.70414">
        <ele>410</ele>
        <time>2017-01-15T11:14:20.000Z</time>
      </trkpt>
      <trkpt lat="47.51529" lon="6.70412">
        <ele>409.8</ele>
        <time>2017-01-15T11:14:21.000Z</time>
      </trkpt>
      <trkpt lat="47.51526" lon="6.7041">
        <ele>409.6</ele>
        <time>2017-01-15T11:14:22.000Z</time>
      </trkpt>
      <trkpt lat="47.51523" lon="6.70408">
        <ele>409.4</ele>
        <time>2017-01-15T11:14:23.000Z</time>
      </trkpt>
      <trkpt lat="47.5152" lon="6.70407">
        <ele>409.1</ele>
        <time>2017-01-15T11:14:24.000Z</time>
      </trkpt>
      <trkpt lat="47.51517" lon="6.70406">
        <ele>408.9</ele>
        <time>2017-01-15T11:14:25.000Z</time>
      </trkpt>
      <trkpt lat="47.51514" lon="6.70404">
        <ele>408.7</ele>
        <time>2017-01-15T11:14:26.000Z</time>
      </trkpt>
      <trkpt lat="47.51511" lon="6.70403">
        <ele>408.4</ele>
        <time>2017-01-15T11:14:27.000Z</time>
      </trkpt>
      <trkpt lat="47.51508" lon="6.70401">
        <ele>408.1</ele>
        <time>2017-01-15T11:14:28.000Z</time>
      </trkpt>
      <trkpt lat="47.51506" lon="6.70399">
        <ele>407.9</ele>
        <time>2017-01-15T11:14:29.000Z</time>
      </trkpt>
      <trkpt lat="47.51502" lon="6.70397">
        <ele>407.6</ele>
        <time>2017-01-15T11:14:30.000Z</time>
      </trkpt>
      <trkpt lat="47.51499" lon="6.70396">
        <ele>407.4</ele>
        <time>2017-01-15T11:14:31.000Z</time>
      </trkpt>
      <trkpt lat="47.51495" lon="6.70394">
        <ele>407.3</ele>
        <time>2017-01-15T11:14:32.000Z</time>
      </trkpt>
      <trkpt lat="47.51491" lon="6.70391">
        <ele>407</ele>
        <time>2017-01-15T11:14:33.000Z</time>
      </trkpt>
      <trkpt lat="47.51487" lon="6.70389">
        <ele>406.8</ele>
        <time>2017-01-15T11:14:34.000Z</time>
      </trkpt>
      <trkpt lat="47.51483" lon="6.70388">
        <ele>406.5</ele>
        <time>2017-01-15T11:14:35.000Z</time>
      </trkpt>
      <trkpt lat="47.5148" lon="6.70386">
        <ele>406.4</ele>
        <time>2017-01-15T11:14:36.000Z</time>
      </trkpt>
      <trkpt lat="47.51478" lon="6.70384">
        <ele>406.2</ele>
        <time>2017-01-15T11:14:37.000Z</time>
      </trkpt>
      <trkpt lat="47.51474" lon="6.70381">
        <ele>406.1</ele>
        <time>2017-01-15T11:14:38.000Z</time>
      </trkpt>
      <trkpt lat="47.51471" lon="6.70378">
        <ele>406</ele>
        <time>2017-01-15T11:14:39.000Z</time>
      </trkpt>
      <trkpt lat="47.51468" lon="6.70376">
        <ele>405.8</ele>
        <time>2017-01-15T11:14:40.000Z</time>
      </trkpt>
      <trkpt lat="47.51464" lon="6.70374">
        <ele>405.7</ele>
        <time>2017-01-15T11:14:41.000Z</time>
      </trkpt>
      <trkpt lat="47.51461" lon="6.70372">
        <ele>405.5</ele>
        <time>2017-01-15T11:14:42.000Z</time>
      </trkpt>
      <trkpt lat="47.51458" lon="6.7037">
        <ele>405.3</ele>
        <time>2017-01-15T11:14:43.000Z</time>
      </trkpt>
      <trkpt lat="47.51455" lon="6.70369">
        <ele>405.2</ele>
        <time>2017-01-15T11:14:44.000Z</time>
      </trkpt>
      <trkpt lat="47.51452" lon="6.70367">
        <ele>405</ele>
        <time>2017-01-15T11:14:45.000Z</time>
      </trkpt>
      <trkpt lat="47.51449" lon="6.70365">
        <ele>404.9</ele>
        <time>2017-01-15T11:14:46.000Z</time>
      </trkpt>
      <trkpt lat="47.51445" lon="6.70363">
        <ele>404.7</ele>
        <time>2017-01-15T11:14:47.000Z</time>
      </trkpt>
      <trkpt lat="47.51442" lon="6.70359">
        <ele>404.6</ele>
        <time>2017-01-15T11:14:48.000Z</time>
      </trkpt>
      <trkpt lat="47.51438" lon="6.70357">
        <ele>404.4</ele>
        <time>2017-01-15T11:14:49.000Z</time>
      </trkpt>
      <trkpt lat="47.51433" lon="6.70354">
        <ele>404.2</ele>
        <time>2017-01-15T11:14:50.000Z</time>
      </trkpt>
      <trkpt lat="47.51429" lon="6.70351">
        <ele>404.1</ele>
        <time>2017-01-15T11:14:51.000Z</time>
      </trkpt>
      <trkpt lat="47.51425" lon="6.70348">
        <ele>404</ele>
        <time>2017-01-15T11:14:52.000Z</time>
      </trkpt>
      <trkpt lat="47.51421" lon="6.70344">
        <ele>404</ele>
        <time>2017-01-15T11:14:53.000Z</time>
      </trkpt>
      <trkpt lat="47.51417" lon="6.7034">
        <ele>404</ele>
        <time>2017-01-15T11:14:54.000Z</time>
      </trkpt>
      <trkpt lat="47.51409" lon="6.70332">
        <ele>404.1</ele>
        <time>2017-01-15T11:14:55.000Z</time>
      </trkpt>
      <trkpt lat="47.51403" lon="6.70327">
        <ele>404.3</ele>
        <time>2017-01-15T11:14:56.000Z</time>
      </trkpt>
      <trkpt lat="47.51399" lon="6.70324">
        <ele>404.5</ele>
        <time>2017-01-15T11:14:57.000Z</time>
      </trkpt>
      <trkpt lat="47.51396" lon="6.70321">
        <ele>404.7</ele>
        <time>2017-01-15T11:14:58.000Z</time>
      </trkpt>
      <trkpt lat="47.51392" lon="6.70319">
        <ele>405</ele>
        <time>2017-01-15T11:14:59.000Z</time>
      </trkpt>
      <trkpt lat="47.5139" lon="6.70316">
        <ele>405.2</ele>
        <time>2017-01-15T11:15:00.000Z</time>
      </trkpt>
      <trkpt lat="47.51387" lon="6.70313">
        <ele>405.4</ele>
        <time>2017-01-15T11:15:01.000Z</time>
      </trkpt>
      <trkpt lat="47.51385" lon="6.70311">
        <ele>405.6</ele>
        <time>2017-01-15T11:15:02.000Z</time>
      </trkpt>
      <trkpt lat="47.51382" lon="6.70308">
        <ele>405.8</ele>
        <time>2017-01-15T11:15:03.000Z</time>
      </trkpt>
      <trkpt lat="47.51379" lon="6.70305">
        <ele>406</ele>
        <time>2017-01-15T11:15:04.000Z</time>
      </trkpt>
      <trkpt lat="47.51377" lon="6.70303">
        <ele>406.2</ele>
        <time>2017-01-15T11:15:05.000Z</time>
      </trkpt>
      <trkpt lat="47.51375" lon="6.70299">
        <ele>406.4</ele>
        <time>2017-01-15T11:15:06.000Z</time>
      </trkpt>
      <trkpt lat="47.51373" lon="6.70296">
        <ele>406.6</ele>
        <time>2017-01-15T11:15:07.000Z</time>
      </trkpt>
      <trkpt lat="47.51371" lon="6.70292">
        <ele>407.1</ele>
        <time>2017-01-15T11:15:09.000Z</time>
      </trkpt>
      <trkpt lat="47.51368" lon="6.70291">
        <ele>407.2</ele>
        <time>2017-01-15T11:15:10.000Z</time>
      </trkpt>
      <trkpt lat="47.51365" lon="6.70292">
        <ele>407.5</ele>
        <time>2017-01-15T11:15:12.000Z</time>
      </trkpt>
      <trkpt lat="47.51363" lon="6.70296">
        <ele>407.5</ele>
        <time>2017-01-15T11:15:13.000Z</time>
      </trkpt>
      <trkpt lat="47.51362" lon="6.70299">
        <ele>407.6</ele>
        <time>2017-01-15T11:15:14.000Z</time>
      </trkpt>
      <trkpt lat="47.51361" lon="6.70303">
        <ele>407.5</ele>
        <time>2017-01-15T11:15:15.000Z</time>
      </trkpt>
      <trkpt lat="47.51359" lon="6.70307">
        <ele>407.6</ele>
        <time>2017-01-15T11:15:17.000Z</time>
      </trkpt>
      <trkpt lat="47.51356" lon="6.70307">
        <ele>407.7</ele>
        <time>2017-01-15T11:15:18.000Z</time>
      </trkpt>
      <trkpt lat="47.51353" lon="6.7031">
        <ele>407.9</ele>
        <time>2017-01-15T11:15:20.000Z</time>
      </trkpt>
      <trkpt lat="47.51352" lon="6.70311">
        <ele>408.1</ele>
        <time>2017-01-15T11:15:21.000Z</time>
      </trkpt>
      <trkpt lat="47.51348" lon="6.70313">
        <ele>408.3</ele>
        <time>2017-01-15T11:15:24.000Z</time>
      </trkpt>
      <trkpt lat="47.51347" lon="6.70314">
        <ele>408.4</ele>
        <time>2017-01-15T11:15:25.000Z</time>
      </trkpt>
      <trkpt lat="47.51344" lon="6.70317">
        <ele>409</ele>
        <time>2017-01-15T11:15:28.000Z</time>
      </trkpt>
      <trkpt lat="47.51342" lon="6.70318">
        <ele>409.1</ele>
        <time>2017-01-15T11:15:29.000Z</time>
      </trkpt>
      <trkpt lat="47.51339" lon="6.70321">
        <ele>409.2</ele>
        <time>2017-01-15T11:15:30.000Z</time>
      </trkpt>
      <trkpt lat="47.51338" lon="6.70323">
        <ele>409.3</ele>
        <time>2017-01-15T11:15:31.000Z</time>
      </trkpt>
      <trkpt lat="47.51335" lon="6.70324">
        <ele>409.6</ele>
        <time>2017-01-15T11:15:33.000Z</time>
      </trkpt>
      <trkpt lat="47.51332" lon="6.70326">
        <ele>409.8</ele>
        <time>2017-01-15T11:15:34.000Z</time>
      </trkpt>
      <trkpt lat="47.51328" lon="6.70328">
        <ele>410</ele>
        <time>2017-01-15T11:15:36.000Z</time>
      </trkpt>
      <trkpt lat="47.51326" lon="6.70329">
        <ele>410.1</ele>
        <time>2017-01-15T11:15:37.000Z</time>
      </trkpt>
      <trkpt lat="47.51323" lon="6.7033">
        <ele>410.2</ele>
        <time>2017-01-15T11:15:38.000Z</time>
      </trkpt>
      <trkpt lat="47.51321" lon="6.70331">
        <ele>410.3</ele>
        <time>2017-01-15T11:15:39.000Z</time>
      </trkpt>
      <trkpt lat="47.51318" lon="6.70331">
        <ele>410.3</ele>
        <time>2017-01-15T11:15:40.000Z</time>
      </trkpt>
      <trkpt lat="47.51316" lon="6.70331">
        <ele>410.3</ele>
        <time>2017-01-15T11:15:41.000Z</time>
      </trkpt>
      <trkpt lat="47.51312" lon="6.70333">
        <ele>410.4</ele>
        <time>2017-01-15T11:15:43.000Z</time>
      </trkpt>
      <trkpt lat="47.5131" lon="6.70333">
        <ele>410.4</ele>
        <time>2017-01-15T11:15:44.000Z</time>
      </trkpt>
      <trkpt lat="47.51306" lon="6.70335">
        <ele>410.4</ele>
        <time>2017-01-15T11:15:48.000Z</time>
      </trkpt>
      <trkpt lat="47.51305" lon="6.70336">
        <ele>410.5</ele>
        <time>2017-01-15T11:15:49.000Z</time>
      </trkpt>
      <trkpt lat="47.51301" lon="6.70337">
        <ele>410.7</ele>
        <time>2017-01-15T11:15:53.000Z</time>
      </trkpt>
      <trkpt lat="47.51299" lon="6.70338">
        <ele>410.8</ele>
        <time>2017-01-15T11:15:54.000Z</time>
      </trkpt>
      <trkpt lat="47.51295" lon="6.70341">
        <ele>410.8</ele>
        <time>2017-01-15T11:15:56.000Z</time>
      </trkpt>
      <trkpt lat="47.51293" lon="6.70342">
        <ele>410.8</ele>
        <time>2017-01-15T11:15:57.000Z</time>
      </trkpt>
      <trkpt lat="47.5129" lon="6.70345">
        <ele>410.8</ele>
        <time>2017-01-15T11:16:00.000Z</time>
      </trkpt>
      <trkpt lat="47.51289" lon="6.70346">
        <ele>410.8</ele>
        <time>2017-01-15T11:16:01.000Z</time>
      </trkpt>
      <trkpt lat="47.51287" lon="6.70348">
        <ele>410.5</ele>
        <time>2017-01-15T11:16:03.000Z</time>
      </trkpt>
      <trkpt lat="47.51285" lon="6.70349">
        <ele>410.4</ele>
        <time>2017-01-15T11:16:04.000Z</time>
      </trkpt>
      <trkpt lat="47.51281" lon="6.70353">
        <ele>410.3</ele>
        <time>2017-01-15T11:16:06.000Z</time>
      </trkpt>
      <trkpt lat="47.5128" lon="6.70355">
        <ele>410.2</ele>
        <time>2017-01-15T11:16:07.000Z</time>
      </trkpt>
      <trkpt lat="47.51279" lon="6.70358">
        <ele>410</ele>
        <time>2017-01-15T11:16:10.000Z</time>
      </trkpt>
      <trkpt lat="47.51277" lon="6.7036">
        <ele>409.9</ele>
        <time>2017-01-15T11:16:11.000Z</time>
      </trkpt>
      <trkpt lat="47.51274" lon="6.70363">
        <ele>409.7</ele>
        <time>2017-01-15T11:16:13.000Z</time>
      </trkpt>
      <trkpt lat="47.51273" lon="6.70365">
        <ele>409.7</ele>
        <time>2017-01-15T11:16:14.000Z</time>
      </trkpt>
      <trkpt lat="47.51271" lon="6.70368">
        <ele>409.6</ele>
        <time>2017-01-15T11:16:16.000Z</time>
      </trkpt>
      <trkpt lat="47.51269" lon="6.70371">
        <ele>409.5</ele>
        <time>2017-01-15T11:16:17.000Z</time>
      </trkpt>
      <trkpt lat="47.51266" lon="6.70372">
        <ele>409.5</ele>
        <time>2017-01-15T11:16:18.000Z</time>
      </trkpt>
      <trkpt lat="47.51265" lon="6.70374">
        <ele>409.5</ele>
        <time>2017-01-15T11:16:19.000Z</time>
      </trkpt>
      <trkpt lat="47.51262" lon="6.70375">
        <ele>409.6</ele>
        <time>2017-01-15T11:16:21.000Z</time>
      </trkpt>
      <trkpt lat="47.5126" lon="6.70374">
        <ele>409.6</ele>
        <time>2017-01-15T11:16:22.000Z</time>
      </trkpt>
      <trkpt lat="47.51256" lon="6.70375">
        <ele>409.7</ele>
        <time>2017-01-15T11:16:25.000Z</time>
      </trkpt>
      <trkpt lat="47.51253" lon="6.70377">
        <ele>409.8</ele>
        <time>2017-01-15T11:16:26.000Z</time>
      </trkpt>
      <trkpt lat="47.51249" lon="6.70379">
        <ele>410</ele>
        <time>2017-01-15T11:16:29.000Z</time>
      </trkpt>
      <trkpt lat="47.51247" lon="6.7038">
        <ele>410.2</ele>
        <time>2017-01-15T11:16:30.000Z</time>
      </trkpt>
      <trkpt lat="47.51243" lon="6.70379">
        <ele>410.4</ele>
        <time>2017-01-15T11:16:32.000Z</time>
      </trkpt>
      <trkpt lat="47.51241" lon="6.70379">
        <ele>410.6</ele>
        <time>2017-01-15T11:16:33.000Z</time>
      </trkpt>
      <trkpt lat="47.51238" lon="6.70377">
        <ele>411</ele>
        <time>2017-01-15T11:16:35.000Z</time>
      </trkpt>
      <trkpt lat="47.51236" lon="6.70376">
        <ele>411.1</ele>
        <time>2017-01-15T11:16:36.000Z</time>
      </trkpt>
      <trkpt lat="47.51233" lon="6.7038">
        <ele>412.5</ele>
        <time>2017-01-15T11:16:42.000Z</time>
      </trkpt>
      <trkpt lat="47.51232" lon="6.70381">
        <ele>412.8</ele>
        <time>2017-01-15T11:16:43.000Z</time>
      </trkpt>
      <trkpt lat="47.51229" lon="6.70382">
        <ele>413.4</ele>
        <time>2017-01-15T11:16:45.000Z</time>
      </trkpt>
      <trkpt lat="47.51227" lon="6.70383">
        <ele>413.5</ele>
        <time>2017-01-15T11:16:46.000Z</time>
      </trkpt>
      <trkpt lat="47.51225" lon="6.70385">
        <ele>414.1</ele>
        <time>2017-01-15T11:16:49.000Z</time>
      </trkpt>
      <trkpt lat="47.51223" lon="6.70386">
        <ele>414.4</ele>
        <time>2017-01-15T11:16:50.000Z</time>
      </trkpt>
      <trkpt lat="47.51219" lon="6.70387">
        <ele>415.8</ele>
        <time>2017-01-15T11:17:01.000Z</time>
      </trkpt>
      <trkpt lat="47.51218" lon="6.70387">
        <ele>416.1</ele>
        <time>2017-01-15T11:17:02.000Z</time>
      </trkpt>
      <trkpt lat="47.51214" lon="6.7039">
        <ele>417</ele>
        <time>2017-01-15T11:17:06.000Z</time>
      </trkpt>
      <trkpt lat="47.51213" lon="6.70392">
        <ele>417.3</ele>
        <time>2017-01-15T11:17:07.000Z</time>
      </trkpt>
      <trkpt lat="47.51211" lon="6.70393">
        <ele>417.6</ele>
        <time>2017-01-15T11:17:08.000Z</time>
      </trkpt>
      <trkpt lat="47.51209" lon="6.70396">
        <ele>417.9</ele>
        <time>2017-01-15T11:17:09.000Z</time>
      </trkpt>
      <trkpt lat="47.51204" lon="6.70397">
        <ele>419.4</ele>
        <time>2017-01-15T11:17:14.000Z</time>
      </trkpt>
      <trkpt lat="47.51204" lon="6.70398">
        <ele>419.7</ele>
        <time>2017-01-15T11:17:15.000Z</time>
      </trkpt>
      <trkpt lat="47.512" lon="6.70401">
        <ele>420.1</ele>
        <time>2017-01-15T11:17:18.000Z</time>
      </trkpt>
      <trkpt lat="47.51198" lon="6.70402">
        <ele>420.3</ele>
        <time>2017-01-15T11:17:19.000Z</time>
      </trkpt>
      <trkpt lat="47.51195" lon="6.70403">
        <ele>420.7</ele>
        <time>2017-01-15T11:17:21.000Z</time>
      </trkpt>
      <trkpt lat="47.51194" lon="6.70404">
        <ele>420.9</ele>
        <time>2017-01-15T11:17:22.000Z</time>
      </trkpt>
      <trkpt lat="47.5119" lon="6.70408">
        <ele>421.4</ele>
        <time>2017-01-15T11:17:25.000Z</time>
      </trkpt>
      <trkpt lat="47.51188" lon="6.70408">
        <ele>421.5</ele>
        <time>2017-01-15T11:17:26.000Z</time>
      </trkpt>
      <trkpt lat="47.51185" lon="6.7041">
        <ele>421.7</ele>
        <time>2017-01-15T11:17:28.000Z</time>
      </trkpt>
      <trkpt lat="47.51184" lon="6.70412">
        <ele>421.8</ele>
        <time>2017-01-15T11:17:29.000Z</time>
      </trkpt>
      <trkpt lat="47.51181" lon="6.70415">
        <ele>421.8</ele>
        <time>2017-01-15T11:17:31.000Z</time>
      </trkpt>
      <trkpt lat="47.51179" lon="6.70418">
        <ele>421.8</ele>
        <time>2017-01-15T11:17:32.000Z</time>
      </trkpt>
      <trkpt lat="47.51177" lon="6.7042">
        <ele>421.8</ele>
        <time>2017-01-15T11:17:33.000Z</time>
      </trkpt>
      <trkpt lat="47.51175" lon="6.70423">
        <ele>421.9</ele>
        <time>2017-01-15T11:17:34.000Z</time>
      </trkpt>
      <trkpt lat="47.51173" lon="6.70426">
        <ele>422.1</ele>
        <time>2017-01-15T11:17:36.000Z</time>
      </trkpt>
      <trkpt lat="47.51172" lon="6.70427">
        <ele>422.2</ele>
        <time>2017-01-15T11:17:37.000Z</time>
      </trkpt>
      <trkpt lat="47.51169" lon="6.7043">
        <ele>422.5</ele>
        <time>2017-01-15T11:17:39.000Z</time>
      </trkpt>
      <trkpt lat="47.51167" lon="6.70431">
        <ele>422.7</ele>
        <time>2017-01-15T11:17:40.000Z</time>
      </trkpt>
      <trkpt lat="47.51164" lon="6.70434">
        <ele>423</ele>
        <time>2017-01-15T11:17:42.000Z</time>
      </trkpt>
      <trkpt lat="47.51163" lon="6.70435">
        <ele>423.2</ele>
        <time>2017-01-15T11:17:43.000Z</time>
      </trkpt>
      <trkpt lat="47.51159" lon="6.70436">
        <ele>423.3</ele>
        <time>2017-01-15T11:17:46.000Z</time>
      </trkpt>
      <trkpt lat="47.51158" lon="6.70437">
        <ele>423.1</ele>
        <time>2017-01-15T11:17:47.000Z</time>
      </trkpt>
      <trkpt lat="47.51154" lon="6.70439">
        <ele>422.7</ele>
        <time>2017-01-15T11:17:49.000Z</time>
      </trkpt>
      <trkpt lat="47.51152" lon="6.7044">
        <ele>422.6</ele>
        <time>2017-01-15T11:17:50.000Z</time>
      </trkpt>
      <trkpt lat="47.51148" lon="6.70442">
        <ele>422.2</ele>
        <time>2017-01-15T11:17:53.000Z</time>
      </trkpt>
      <trkpt lat="47.51146" lon="6.70442">
        <ele>422.1</ele>
        <time>2017-01-15T11:17:54.000Z</time>
      </trkpt>
      <trkpt lat="47.51142" lon="6.70444">
        <ele>422.1</ele>
        <time>2017-01-15T11:18:00.000Z</time>
      </trkpt>
      <trkpt lat="47.5114" lon="6.70444">
        <ele>422</ele>
        <time>2017-01-15T11:18:01.000Z</time>
      </trkpt>
      <trkpt lat="47.51137" lon="6.70442">
        <ele>422</ele>
        <time>2017-01-15T11:18:03.000Z</time>
      </trkpt>
      <trkpt lat="47.51136" lon="6.70442">
        <ele>421.9</ele>
        <time>2017-01-15T11:18:04.000Z</time>
      </trkpt>
      <trkpt lat="47.51132" lon="6.70441">
        <ele>421.9</ele>
        <time>2017-01-15T11:18:06.000Z</time>
      </trkpt>
      <trkpt lat="47.51129" lon="6.70442">
        <ele>421.9</ele>
        <time>2017-01-15T11:18:07.000Z</time>
      </trkpt>
      <trkpt lat="47.51125" lon="6.70444">
        <ele>422</ele>
        <time>2017-01-15T11:18:09.000Z</time>
      </trkpt>
      <trkpt lat="47.51123" lon="6.70447">
        <ele>422</ele>
        <time>2017-01-15T11:18:10.000Z</time>
      </trkpt>
      <trkpt lat="47.51121" lon="6.7045">
        <ele>421.9</ele>
        <time>2017-01-15T11:18:12.000Z</time>
      </trkpt>
      <trkpt lat="47.5112" lon="6.70451">
        <ele>421.7</ele>
        <time>2017-01-15T11:18:13.000Z</time>
      </trkpt>
      <trkpt lat="47.51118" lon="6.70456">
        <ele>421.4</ele>
        <time>2017-01-15T11:18:16.000Z</time>
      </trkpt>
      <trkpt lat="47.51117" lon="6.70459">
        <ele>421.3</ele>
        <time>2017-01-15T11:18:17.000Z</time>
      </trkpt>
      <trkpt lat="47.51113" lon="6.70462">
        <ele>420.9</ele>
        <time>2017-01-15T11:18:20.000Z</time>
      </trkpt>
      <trkpt lat="47.51112" lon="6.70464">
        <ele>420.7</ele>
        <time>2017-01-15T11:18:21.000Z</time>
      </trkpt>
      <trkpt lat="47.51109" lon="6.70467">
        <ele>420.4</ele>
        <time>2017-01-15T11:18:23.000Z</time>
      </trkpt>
      <trkpt lat="47.51108" lon="6.70467">
        <ele>420.2</ele>
        <time>2017-01-15T11:18:24.000Z</time>
      </trkpt>
      <trkpt lat="47.51106" lon="6.70468">
        <ele>420</ele>
        <time>2017-01-15T11:18:25.000Z</time>
      </trkpt>
      <trkpt lat="47.51104" lon="6.7047">
        <ele>419.8</ele>
        <time>2017-01-15T11:18:26.000Z</time>
      </trkpt>
      <trkpt lat="47.511" lon="6.70471">
        <ele>419.4</ele>
        <time>2017-01-15T11:18:29.000Z</time>
      </trkpt>
      <trkpt lat="47.51097" lon="6.7047">
        <ele>419.2</ele>
        <time>2017-01-15T11:18:30.000Z</time>
      </trkpt>
      <trkpt lat="47.51093" lon="6.7047">
        <ele>419</ele>
        <time>2017-01-15T11:18:32.000Z</time>
      </trkpt>
      <trkpt lat="47.5109" lon="6.70469">
        <ele>419.1</ele>
        <time>2017-01-15T11:18:33.000Z</time>
      </trkpt>
      <trkpt lat="47.51088" lon="6.7047">
        <ele>419.1</ele>
        <time>2017-01-15T11:18:34.000Z</time>
      </trkpt>
      <trkpt lat="47.51085" lon="6.70471">
        <ele>419</ele>
        <time>2017-01-15T11:18:35.000Z</time>
      </trkpt>
      <trkpt lat="47.51081" lon="6.70472">
        <ele>418.8</ele>
        <time>2017-01-15T11:18:37.000Z</time>
      </trkpt>
      <trkpt lat="47.51079" lon="6.70473">
        <ele>418.5</ele>
        <time>2017-01-15T11:18:38.000Z</time>
      </trkpt>
      <trkpt lat="47.51077" lon="6.70474">
        <ele>418.3</ele>
        <time>2017-01-15T11:18:39.000Z</time>
      </trkpt>
      <trkpt lat="47.51075" lon="6.70477">
        <ele>418.2</ele>
        <time>2017-01-15T11:18:40.000Z</time>
      </trkpt>
      <trkpt lat="47.51072" lon="6.70483">
        <ele>417.6</ele>
        <time>2017-01-15T11:18:43.000Z</time>
      </trkpt>
      <trkpt lat="47.51072" lon="6.70484">
        <ele>417.4</ele>
        <time>2017-01-15T11:18:44.000Z</time>
      </trkpt>
      <trkpt lat="47.51069" lon="6.70488">
        <ele>417.1</ele>
        <time>2017-01-15T11:18:51.000Z</time>
      </trkpt>
      <trkpt lat="47.51068" lon="6.70488">
        <ele>417.1</ele>
        <time>2017-01-15T11:18:52.000Z</time>
      </trkpt>
      <trkpt lat="47.51066" lon="6.70494">
        <ele>418.4</ele>
        <time>2017-01-15T11:19:13.000Z</time>
      </trkpt>
      <trkpt lat="47.51066" lon="6.70497">
        <ele>418.7</ele>
        <time>2017-01-15T11:19:14.000Z</time>
      </trkpt>
      <trkpt lat="47.51063" lon="6.70501">
        <ele>419.3</ele>
        <time>2017-01-15T11:19:17.000Z</time>
      </trkpt>
      <trkpt lat="47.51063" lon="6.70502">
        <ele>419.4</ele>
        <time>2017-01-15T11:19:18.000Z</time>
      </trkpt>
      <trkpt lat="47.5106" lon="6.70507">
        <ele>419.8</ele>
        <time>2017-01-15T11:19:21.000Z</time>
      </trkpt>
      <trkpt lat="47.5106" lon="6.70509">
        <ele>420</ele>
        <time>2017-01-15T11:19:22.000Z</time>
      </trkpt>
      <trkpt lat="47.51057" lon="6.70513">
        <ele>420.4</ele>
        <time>2017-01-15T11:19:24.000Z</time>
      </trkpt>
      <trkpt lat="47.51056" lon="6.70516">
        <ele>420.6</ele>
        <time>2017-01-15T11:19:25.000Z</time>
      </trkpt>
      <trkpt lat="47.51054" lon="6.70518">
        <ele>420.8</ele>
        <time>2017-01-15T11:19:26.000Z</time>
      </trkpt>
      <trkpt lat="47.51053" lon="6.70521">
        <ele>420.9</ele>
        <time>2017-01-15T11:19:27.000Z</time>
      </trkpt>
      <trkpt lat="47.51051" lon="6.70525">
        <ele>420.9</ele>
        <time>2017-01-15T11:19:29.000Z</time>
      </trkpt>
      <trkpt lat="47.5105" lon="6.70527">
        <ele>420.8</ele>
        <time>2017-01-15T11:19:30.000Z</time>
      </trkpt>
      <trkpt lat="47.51049" lon="6.70529">
        <ele>420.8</ele>
        <time>2017-01-15T11:19:31.000Z</time>
      </trkpt>
      <trkpt lat="47.51047" lon="6.70533">
        <ele>420.9</ele>
        <time>2017-01-15T11:19:32.000Z</time>
      </trkpt>
      <trkpt lat="47.51045" lon="6.70538">
        <ele>421.2</ele>
        <time>2017-01-15T11:19:34.000Z</time>
      </trkpt>
      <trkpt lat="47.51044" lon="6.70539">
        <ele>421.2</ele>
        <time>2017-01-15T11:19:35.000Z</time>
      </trkpt>
      <trkpt lat="47.51043" lon="6.70544">
        <ele>421.6</ele>
        <time>2017-01-15T11:19:38.000Z</time>
      </trkpt>
      <trkpt lat="47.51042" lon="6.70546">
        <ele>421.7</ele>
        <time>2017-01-15T11:19:39.000Z</time>
      </trkpt>
      <trkpt lat="47.51041" lon="6.70552">
        <ele>421.9</ele>
        <time>2017-01-15T11:19:41.000Z</time>
      </trkpt>
      <trkpt lat="47.51041" lon="6.70554">
        <ele>422.1</ele>
        <time>2017-01-15T11:19:42.000Z</time>
      </trkpt>
      <trkpt lat="47.51042" lon="6.7056">
        <ele>422.5</ele>
        <time>2017-01-15T11:19:46.000Z</time>
      </trkpt>
      <trkpt lat="47.51041" lon="6.70561">
        <ele>422.6</ele>
        <time>2017-01-15T11:19:47.000Z</time>
      </trkpt>
      <trkpt lat="47.5104" lon="6.70567">
        <ele>422.7</ele>
        <time>2017-01-15T11:19:51.000Z</time>
      </trkpt>
      <trkpt lat="47.51039" lon="6.70569">
        <ele>422.7</ele>
        <time>2017-01-15T11:19:52.000Z</time>
      </trkpt>
      <trkpt lat="47.51038" lon="6.70574">
        <ele>422.8</ele>
        <time>2017-01-15T11:19:53.000Z</time>
      </trkpt>
      <trkpt lat="47.51038" lon="6.70578">
        <ele>422.9</ele>
        <time>2017-01-15T11:19:54.000Z</time>
      </trkpt>
      <trkpt lat="47.51037" lon="6.70584">
        <ele>423.1</ele>
        <time>2017-01-15T11:19:56.000Z</time>
      </trkpt>
      <trkpt lat="47.51036" lon="6.70587">
        <ele>423.2</ele>
        <time>2017-01-15T11:19:57.000Z</time>
      </trkpt>
      <trkpt lat="47.51034" lon="6.70593">
        <ele>423.3</ele>
        <time>2017-01-15T11:20:02.000Z</time>
      </trkpt>
      <trkpt lat="47.51034" lon="6.70594">
        <ele>423.4</ele>
        <time>2017-01-15T11:20:03.000Z</time>
      </trkpt>
      <trkpt lat="47.5103" lon="6.70597">
        <ele>423.9</ele>
        <time>2017-01-15T11:20:11.000Z</time>
      </trkpt>
      <trkpt lat="47.5103" lon="6.70598">
        <ele>424</ele>
        <time>2017-01-15T11:20:12.000Z</time>
      </trkpt>
      <trkpt lat="47.51031" lon="6.70603">
        <ele>424.3</ele>
        <time>2017-01-15T11:20:17.000Z</time>
      </trkpt>
      <trkpt lat="47.51031" lon="6.70605">
        <ele>424.4</ele>
        <time>2017-01-15T11:20:18.000Z</time>
      </trkpt>
      <trkpt lat="47.51032" lon="6.70608">
        <ele>424.3</ele>
        <time>2017-01-15T11:20:19.000Z</time>
      </trkpt>
      <trkpt lat="47.51032" lon="6.70612">
        <ele>424.4</ele>
        <time>2017-01-15T11:20:20.000Z</time>
      </trkpt>
      <trkpt lat="47.5103" lon="6.70614">
        <ele>424.6</ele>
        <time>2017-01-15T11:20:22.000Z</time>
      </trkpt>
      <trkpt lat="47.51029" lon="6.70618">
        <ele>424.8</ele>
        <time>2017-01-15T11:20:23.000Z</time>
      </trkpt>
      <trkpt lat="47.51027" lon="6.70619">
        <ele>425</ele>
        <time>2017-01-15T11:20:24.000Z</time>
      </trkpt>
      <trkpt lat="47.51025" lon="6.70622">
        <ele>425.2</ele>
        <time>2017-01-15T11:20:25.000Z</time>
      </trkpt>
      <trkpt lat="47.51022" lon="6.70625">
        <ele>425.5</ele>
        <time>2017-01-15T11:20:26.000Z</time>
      </trkpt>
      <trkpt lat="47.5102" lon="6.70627">
        <ele>425.8</ele>
        <time>2017-01-15T11:20:27.000Z</time>
      </trkpt>
      <trkpt lat="47.51017" lon="6.70631">
        <ele>426.2</ele>
        <time>2017-01-15T11:20:30.000Z</time>
      </trkpt>
      <trkpt lat="47.51015" lon="6.70633">
        <ele>426.4</ele>
        <time>2017-01-15T11:20:31.000Z</time>
      </trkpt>
      <trkpt lat="47.51013" lon="6.70637">
        <ele>426.7</ele>
        <time>2017-01-15T11:20:32.000Z</time>
      </trkpt>
      <trkpt lat="47.51011" lon="6.70639">
        <ele>427</ele>
        <time>2017-01-15T11:20:33.000Z</time>
      </trkpt>
      <trkpt lat="47.51007" lon="6.70641">
        <ele>427.2</ele>
        <time>2017-01-15T11:20:34.000Z</time>
      </trkpt>
      <trkpt lat="47.51005" lon="6.70642">
        <ele>427.5</ele>
        <time>2017-01-15T11:20:35.000Z</time>
      </trkpt>
      <trkpt lat="47.51004" lon="6.70643">
        <ele>427.7</ele>
        <time>2017-01-15T11:20:36.000Z</time>
      </trkpt>
      <trkpt lat="47.51001" lon="6.70646">
        <ele>427.9</ele>
        <time>2017-01-15T11:20:37.000Z</time>
      </trkpt>
      <trkpt lat="47.50998" lon="6.70648">
        <ele>428.1</ele>
        <time>2017-01-15T11:20:38.000Z</time>
      </trkpt>
      <trkpt lat="47.50994" lon="6.7065">
        <ele>428.3</ele>
        <time>2017-01-15T11:20:39.000Z</time>
      </trkpt>
      <trkpt lat="47.50988" lon="6.70654">
        <ele>428.3</ele>
        <time>2017-01-15T11:20:40.000Z</time>
      </trkpt>
      <trkpt lat="47.50984" lon="6.70657">
        <ele>428.3</ele>
        <time>2017-01-15T11:20:41.000Z</time>
      </trkpt>
      <trkpt lat="47.50981" lon="6.7066">
        <ele>428.2</ele>
        <time>2017-01-15T11:20:42.000Z</time>
      </trkpt>
      <trkpt lat="47.50977" lon="6.70662">
        <ele>428.1</ele>
        <time>2017-01-15T11:20:43.000Z</time>
      </trkpt>
      <trkpt lat="47.50974" lon="6.70665">
        <ele>428.1</ele>
        <time>2017-01-15T11:20:44.000Z</time>
      </trkpt>
      <trkpt lat="47.50971" lon="6.70668">
        <ele>428</ele>
        <time>2017-01-15T11:20:45.000Z</time>
      </trkpt>
      <trkpt lat="47.50968" lon="6.7067">
        <ele>427.9</ele>
        <time>2017-01-15T11:20:46.000Z</time>
      </trkpt>
      <trkpt lat="47.50965" lon="6.70671">
        <ele>427.7</ele>
        <time>2017-01-15T11:20:47.000Z</time>
      </trkpt>
      <trkpt lat="47.50962" lon="6.70673">
        <ele>427.5</ele>
        <time>2017-01-15T11:20:48.000Z</time>
      </trkpt>
      <trkpt lat="47.50959" lon="6.70674">
        <ele>427.3</ele>
        <time>2017-01-15T11:20:49.000Z</time>
      </trkpt>
      <trkpt lat="47.50957" lon="6.70676">
        <ele>427.1</ele>
        <time>2017-01-15T11:20:50.000Z</time>
      </trkpt>
      <trkpt lat="47.50955" lon="6.70679">
        <ele>427</ele>
        <time>2017-01-15T11:20:51.000Z</time>
      </trkpt>
      <trkpt lat="47.50952" lon="6.70683">
        <ele>426.8</ele>
        <time>2017-01-15T11:20:53.000Z</time>
      </trkpt>
      <trkpt lat="47.5095" lon="6.70684">
        <ele>426.6</ele>
        <time>2017-01-15T11:20:54.000Z</time>
      </trkpt>
      <trkpt lat="47.50948" lon="6.70686">
        <ele>426.5</ele>
        <time>2017-01-15T11:20:55.000Z</time>
      </trkpt>
      <trkpt lat="47.50946" lon="6.70688">
        <ele>426.4</ele>
        <time>2017-01-15T11:20:56.000Z</time>
      </trkpt>
      <trkpt lat="47.50943" lon="6.7069">
        <ele>426.3</ele>
        <time>2017-01-15T11:20:58.000Z</time>
      </trkpt>
      <trkpt lat="47.50941" lon="6.7069">
        <ele>426.3</ele>
        <time>2017-01-15T11:20:59.000Z</time>
      </trkpt>
      <trkpt lat="47.50938" lon="6.70689">
        <ele>426.2</ele>
        <time>2017-01-15T11:21:00.000Z</time>
      </trkpt>
      <trkpt lat="47.50936" lon="6.70689">
        <ele>426.1</ele>
        <time>2017-01-15T11:21:01.000Z</time>
      </trkpt>
      <trkpt lat="47.50933" lon="6.70689">
        <ele>426</ele>
        <time>2017-01-15T11:21:02.000Z</time>
      </trkpt>
      <trkpt lat="47.5093" lon="6.70689">
        <ele>425.9</ele>
        <time>2017-01-15T11:21:03.000Z</time>
      </trkpt>
      <trkpt lat="47.50927" lon="6.70688">
        <ele>425.8</ele>
        <time>2017-01-15T11:21:04.000Z</time>
      </trkpt>
      <trkpt lat="47.50925" lon="6.70689">
        <ele>425.7</ele>
        <time>2017-01-15T11:21:05.000Z</time>
      </trkpt>
      <trkpt lat="47.50921" lon="6.70691">
        <ele>425.3</ele>
        <time>2017-01-15T11:21:07.000Z</time>
      </trkpt>
      <trkpt lat="47.5092" lon="6.70692">
        <ele>425.2</ele>
        <time>2017-01-15T11:21:08.000Z</time>
      </trkpt>
      <trkpt lat="47.50921" lon="6.70697">
        <ele>424.5</ele>
        <time>2017-01-15T11:21:14.000Z</time>
      </trkpt>
      <trkpt lat="47.50921" lon="6.70699">
        <ele>424.4</ele>
        <time>2017-01-15T11:21:15.000Z</time>
      </trkpt>
      <trkpt lat="47.5092" lon="6.70704">
        <ele>423.5</ele>
        <time>2017-01-15T11:21:25.000Z</time>
      </trkpt>
      <trkpt lat="47.50919" lon="6.70707">
        <ele>423.6</ele>
        <time>2017-01-15T11:21:26.000Z</time>
      </trkpt>
      <trkpt lat="47.50919" lon="6.70711">
        <ele>423.6</ele>
        <time>2017-01-15T11:21:27.000Z</time>
      </trkpt>
      <trkpt lat="47.50918" lon="6.70714">
        <ele>423.6</ele>
        <time>2017-01-15T11:21:28.000Z</time>
      </trkpt>
      <trkpt lat="47.50917" lon="6.70717">
        <ele>423.7</ele>
        <time>2017-01-15T11:21:29.000Z</time>
      </trkpt>
      <trkpt lat="47.50915" lon="6.70727">
        <ele>423.7</ele>
        <time>2017-01-15T11:21:30.000Z</time>
      </trkpt>
      <trkpt lat="47.50914" lon="6.70732">
        <ele>423.7</ele>
        <time>2017-01-15T11:21:31.000Z</time>
      </trkpt>
      <trkpt lat="47.50913" lon="6.70735">
        <ele>423.5</ele>
        <time>2017-01-15T11:21:32.000Z</time>
      </trkpt>
      <trkpt lat="47.50912" lon="6.70739">
        <ele>423.4</ele>
        <time>2017-01-15T11:21:34.000Z</time>
      </trkpt>
      <trkpt lat="47.50912" lon="6.70742">
        <ele>423.3</ele>
        <time>2017-01-15T11:21:35.000Z</time>
      </trkpt>
      <trkpt lat="47.50911" lon="6.70746">
        <ele>423.2</ele>
        <time>2017-01-15T11:21:36.000Z</time>
      </trkpt>
      <trkpt lat="47.50911" lon="6.70749">
        <ele>423.1</ele>
        <time>2017-01-15T11:21:37.000Z</time>
      </trkpt>
      <trkpt lat="47.5091" lon="6.70753">
        <ele>423</ele>
        <time>2017-01-15T11:21:39.000Z</time>
      </trkpt>
      <trkpt lat="47.5091" lon="6.70756">
        <ele>422.9</ele>
        <time>2017-01-15T11:21:40.000Z</time>
      </trkpt>
      <trkpt lat="47.5091" lon="6.70763">
        <ele>422.8</ele>
        <time>2017-01-15T11:21:42.000Z</time>
      </trkpt>
      <trkpt lat="47.50911" lon="6.70765">
        <ele>422.7</ele>
        <time>2017-01-15T11:21:43.000Z</time>
      </trkpt>
      <trkpt lat="47.50911" lon="6.70769">
        <ele>422.5</ele>
        <time>2017-01-15T11:21:44.000Z</time>
      </trkpt>
      <trkpt lat="47.5091" lon="6.70773">
        <ele>422.3</ele>
        <time>2017-01-15T11:21:45.000Z</time>
      </trkpt>
      <trkpt lat="47.5091" lon="6.70776">
        <ele>422</ele>
        <time>2017-01-15T11:21:46.000Z</time>
      </trkpt>
      <trkpt lat="47.5091" lon="6.70779">
        <ele>421.8</ele>
        <time>2017-01-15T11:21:47.000Z</time>
      </trkpt>
      <trkpt lat="47.5091" lon="6.70783">
        <ele>421.7</ele>
        <time>2017-01-15T11:21:48.000Z</time>
      </trkpt>
      <trkpt lat="47.5091" lon="6.70787">
        <ele>421.6</ele>
        <time>2017-01-15T11:21:49.000Z</time>
      </trkpt>
      <trkpt lat="47.50911" lon="6.7079">
        <ele>421.4</ele>
        <time>2017-01-15T11:21:50.000Z</time>
      </trkpt>
      <trkpt lat="47.50912" lon="6.70794">
        <ele>421.2</ele>
        <time>2017-01-15T11:21:51.000Z</time>
      </trkpt>
      <trkpt lat="47.50913" lon="6.708">
        <ele>420.8</ele>
        <time>2017-01-15T11:21:53.000Z</time>
      </trkpt>
      <trkpt lat="47.50913" lon="6.70804">
        <ele>420.6</ele>
        <time>2017-01-15T11:21:54.000Z</time>
      </trkpt>
      <trkpt lat="47.50913" lon="6.70808">
        <ele>420.5</ele>
        <time>2017-01-15T11:21:55.000Z</time>
      </trkpt>
      <trkpt lat="47.50912" lon="6.70813">
        <ele>420.4</ele>
        <time>2017-01-15T11:21:56.000Z</time>
      </trkpt>
      <trkpt lat="47.50912" lon="6.70817">
        <ele>420.2</ele>
        <time>2017-01-15T11:21:57.000Z</time>
      </trkpt>
      <trkpt lat="47.50913" lon="6.70822">
        <ele>419.9</ele>
        <time>2017-01-15T11:21:58.000Z</time>
      </trkpt>
      <trkpt lat="47.50913" lon="6.70828">
        <ele>419.4</ele>
        <time>2017-01-15T11:22:00.000Z</time>
      </trkpt>
      <trkpt lat="47.50914" lon="6.70831">
        <ele>419.2</ele>
        <time>2017-01-15T11:22:01.000Z</time>
      </trkpt>
      <trkpt lat="47.50915" lon="6.70837">
        <ele>418.9</ele>
        <time>2017-01-15T11:22:03.000Z</time>
      </trkpt>
      <trkpt lat="47.50916" lon="6.70838">
        <ele>418.7</ele>
        <time>2017-01-15T11:22:04.000Z</time>
      </trkpt>
      <trkpt lat="47.50917" lon="6.70842">
        <ele>418.4</ele>
        <time>2017-01-15T11:22:06.000Z</time>
      </trkpt>
      <trkpt lat="47.50917" lon="6.70845">
        <ele>418.3</ele>
        <time>2017-01-15T11:22:07.000Z</time>
      </trkpt>
      <trkpt lat="47.50916" lon="6.70851">
        <ele>417.9</ele>
        <time>2017-01-15T11:22:10.000Z</time>
      </trkpt>
      <trkpt lat="47.50916" lon="6.70853">
        <ele>417.8</ele>
        <time>2017-01-15T11:22:11.000Z</time>
      </trkpt>
      <trkpt lat="47.50915" lon="6.70859">
        <ele>417.7</ele>
        <time>2017-01-15T11:22:14.000Z</time>
      </trkpt>
      <trkpt lat="47.50916" lon="6.70861">
        <ele>417.6</ele>
        <time>2017-01-15T11:22:15.000Z</time>
      </trkpt>
      <trkpt lat="47.50918" lon="6.7087">
        <ele>417.4</ele>
        <time>2017-01-15T11:22:16.000Z</time>
      </trkpt>
      <trkpt lat="47.50918" lon="6.70873">
        <ele>417.3</ele>
        <time>2017-01-15T11:22:17.000Z</time>
      </trkpt>
      <trkpt lat="47.50917" lon="6.70879">
        <ele>417.1</ele>
        <time>2017-01-15T11:22:18.000Z</time>
      </trkpt>
      <trkpt lat="47.50917" lon="6.70883">
        <ele>417</ele>
        <time>2017-01-15T11:22:20.000Z</time>
      </trkpt>
      <trkpt lat="47.50917" lon="6.70885">
        <ele>416.9</ele>
        <time>2017-01-15T11:22:21.000Z</time>
      </trkpt>
      <trkpt lat="47.50916" lon="6.7089">
        <ele>416.6</ele>
        <time>2017-01-15T11:22:23.000Z</time>
      </trkpt>
      <trkpt lat="47.50916" lon="6.70893">
        <ele>416.4</ele>
        <time>2017-01-15T11:22:24.000Z</time>
      </trkpt>
      <trkpt lat="47.50917" lon="6.70899">
        <ele>416.1</ele>
        <time>2017-01-15T11:22:26.000Z</time>
      </trkpt>
      <trkpt lat="47.50917" lon="6.709">
        <ele>415.9</ele>
        <time>2017-01-15T11:22:27.000Z</time>
      </trkpt>
      <trkpt lat="47.5092" lon="6.70904">
        <ele>415.4</ele>
        <time>2017-01-15T11:22:30.000Z</time>
      </trkpt>
      <trkpt lat="47.5092" lon="6.70906">
        <ele>415.2</ele>
        <time>2017-01-15T11:22:31.000Z</time>
      </trkpt>
      <trkpt lat="47.50921" lon="6.70912">
        <ele>414.7</ele>
        <time>2017-01-15T11:22:34.000Z</time>
      </trkpt>
      <trkpt lat="47.50922" lon="6.70914">
        <ele>414.6</ele>
        <time>2017-01-15T11:22:35.000Z</time>
      </trkpt>
      <trkpt lat="47.50925" lon="6.70918">
        <ele>414.4</ele>
        <time>2017-01-15T11:22:44.000Z</time>
      </trkpt>
      <trkpt lat="47.50924" lon="6.7092">
        <ele>414.4</ele>
        <time>2017-01-15T11:22:45.000Z</time>
      </trkpt>
      <trkpt lat="47.50926" lon="6.70925">
        <ele>414.8</ele>
        <time>2017-01-15T11:22:53.000Z</time>
      </trkpt>
      <trkpt lat="47.50927" lon="6.70929">
        <ele>414.7</ele>
        <time>2017-01-15T11:22:54.000Z</time>
      </trkpt>
      <trkpt lat="47.50929" lon="6.70934">
        <ele>414.5</ele>
        <time>2017-01-15T11:22:57.000Z</time>
      </trkpt>
      <trkpt lat="47.50929" lon="6.70937">
        <ele>414.4</ele>
        <time>2017-01-15T11:22:58.000Z</time>
      </trkpt>
      <trkpt lat="47.5093" lon="6.70942">
        <ele>414.4</ele>
        <time>2017-01-15T11:23:01.000Z</time>
      </trkpt>
      <trkpt lat="47.50931" lon="6.70946">
        <ele>414.2</ele>
        <time>2017-01-15T11:23:02.000Z</time>
      </trkpt>
      <trkpt lat="47.50932" lon="6.70951">
        <ele>414.2</ele>
        <time>2017-01-15T11:23:04.000Z</time>
      </trkpt>
      <trkpt lat="47.50933" lon="6.70952">
        <ele>414.1</ele>
        <time>2017-01-15T11:23:05.000Z</time>
      </trkpt>
      <trkpt lat="47.50934" lon="6.70957">
        <ele>413.6</ele>
        <time>2017-01-15T11:23:08.000Z</time>
      </trkpt>
      <trkpt lat="47.50934" lon="6.7096">
        <ele>413.4</ele>
        <time>2017-01-15T11:23:09.000Z</time>
      </trkpt>
      <trkpt lat="47.50933" lon="6.70964">
        <ele>413.3</ele>
        <time>2017-01-15T11:23:10.000Z</time>
      </trkpt>
      <trkpt lat="47.50932" lon="6.70967">
        <ele>413.2</ele>
        <time>2017-01-15T11:23:11.000Z</time>
      </trkpt>
      <trkpt lat="47.50932" lon="6.70971">
        <ele>413.1</ele>
        <time>2017-01-15T11:23:12.000Z</time>
      </trkpt>
      <trkpt lat="47.50931" lon="6.70977">
        <ele>413</ele>
        <time>2017-01-15T11:23:13.000Z</time>
      </trkpt>
      <trkpt lat="47.50931" lon="6.70982">
        <ele>412.8</ele>
        <time>2017-01-15T11:23:14.000Z</time>
      </trkpt>
      <trkpt lat="47.50931" lon="6.70986">
        <ele>412.9</ele>
        <time>2017-01-15T11:23:15.000Z</time>
      </trkpt>
      <trkpt lat="47.5093" lon="6.70991">
        <ele>412.8</ele>
        <time>2017-01-15T11:23:16.000Z</time>
      </trkpt>
      <trkpt lat="47.5093" lon="6.70994">
        <ele>412.8</ele>
        <time>2017-01-15T11:23:17.000Z</time>
      </trkpt>
      <trkpt lat="47.50929" lon="6.70999">
        <ele>412.7</ele>
        <time>2017-01-15T11:23:19.000Z</time>
      </trkpt>
      <trkpt lat="47.50928" lon="6.71002">
        <ele>412.8</ele>
        <time>2017-01-15T11:23:20.000Z</time>
      </trkpt>
      <trkpt lat="47.50927" lon="6.71008">
        <ele>412.8</ele>
        <time>2017-01-15T11:23:22.000Z</time>
      </trkpt>
      <trkpt lat="47.50928" lon="6.71011">
        <ele>412.8</ele>
        <time>2017-01-15T11:23:23.000Z</time>
      </trkpt>
      <trkpt lat="47.50928" lon="6.71016">
        <ele>412.8</ele>
        <time>2017-01-15T11:23:25.000Z</time>
      </trkpt>
      <trkpt lat="47.50928" lon="6.71018">
        <ele>412.9</ele>
        <time>2017-01-15T11:23:26.000Z</time>
      </trkpt>
      <trkpt lat="47.50928" lon="6.71024">
        <ele>412.5</ele>
        <time>2017-01-15T11:23:32.000Z</time>
      </trkpt>
      <trkpt lat="47.50928" lon="6.71025">
        <ele>412.6</ele>
        <time>2017-01-15T11:23:33.000Z</time>
      </trkpt>
      <trkpt lat="47.50932" lon="6.71029">
        <ele>413.1</ele>
        <time>2017-01-15T11:23:41.000Z</time>
      </trkpt>
      <trkpt lat="47.50932" lon="6.71029">
        <ele>413.2</ele>
        <time>2017-01-15T11:23:42.000Z</time>
      </trkpt>
      <trkpt lat="47.5093" lon="6.7103">
        <ele>413.3</ele>
        <time>2017-01-15T11:23:47.000Z</time>
      </trkpt>
      <trkpt lat="47.50928" lon="6.71031">
        <ele>413.3</ele>
        <time>2017-01-15T11:23:48.000Z</time>
      </trkpt>
      <trkpt lat="47.50924" lon="6.71035">
        <ele>413.2</ele>
        <time>2017-01-15T11:23:52.000Z</time>
      </trkpt>
      <trkpt lat="47.50924" lon="6.71036">
        <ele>413.2</ele>
        <time>2017-01-15T11:23:53.000Z</time>
      </trkpt>
      <trkpt lat="47.5092" lon="6.71038">
        <ele>413.3</ele>
        <time>2017-01-15T11:23:58.000Z</time>
      </trkpt>
      <trkpt lat="47.50919" lon="6.71039">
        <ele>413.3</ele>
        <time>2017-01-15T11:23:59.000Z</time>
      </trkpt>
      <trkpt lat="47.50923" lon="6.71038">
        <ele>415.9</ele>
        <time>2017-01-15T11:24:16.000Z</time>
      </trkpt>
      <trkpt lat="47.50924" lon="6.71037">
        <ele>416</ele>
        <time>2017-01-15T11:24:17.000Z</time>
      </trkpt>
      <trkpt lat="47.50928" lon="6.71038">
        <ele>416.5</ele>
        <time>2017-01-15T11:24:22.000Z</time>
      </trkpt>
      <trkpt lat="47.50929" lon="6.71038">
        <ele>416.7</ele>
        <time>2017-01-15T11:24:23.000Z</time>
      </trkpt>
      <trkpt lat="47.50932" lon="6.7104">
        <ele>417.2</ele>
        <time>2017-01-15T11:24:26.000Z</time>
      </trkpt>
      <trkpt lat="47.50933" lon="6.71041">
        <ele>417.3</ele>
        <time>2017-01-15T11:24:27.000Z</time>
      </trkpt>
      <trkpt lat="47.50935" lon="6.71046">
        <ele>417.9</ele>
        <time>2017-01-15T11:24:31.000Z</time>
      </trkpt>
      <trkpt lat="47.50936" lon="6.71047">
        <ele>418</ele>
        <time>2017-01-15T11:24:32.000Z</time>
      </trkpt>
      <trkpt lat="47.50939" lon="6.71052">
        <ele>418.5</ele>
        <time>2017-01-15T11:24:36.000Z</time>
      </trkpt>
      <trkpt lat="47.50939" lon="6.71052">
        <ele>418.7</ele>
        <time>2017-01-15T11:24:37.000Z</time>
      </trkpt>
      <trkpt lat="47.50941" lon="6.71058">
        <ele>419.3</ele>
        <time>2017-01-15T11:24:41.000Z</time>
      </trkpt>
      <trkpt lat="47.50941" lon="6.71059">
        <ele>419.4</ele>
        <time>2017-01-15T11:24:42.000Z</time>
      </trkpt>
      <trkpt lat="47.50942" lon="6.71065">
        <ele>420.2</ele>
        <time>2017-01-15T11:24:46.000Z</time>
      </trkpt>
      <trkpt lat="47.50942" lon="6.71066">
        <ele>420.6</ele>
        <time>2017-01-15T11:24:47.000Z</time>
      </trkpt>
      <trkpt lat="47.50943" lon="6.71072">
        <ele>421.8</ele>
        <time>2017-01-15T11:24:51.000Z</time>
      </trkpt>
      <trkpt lat="47.50943" lon="6.71074">
        <ele>422.1</ele>
        <time>2017-01-15T11:24:52.000Z</time>
      </trkpt>
      <trkpt lat="47.50943" lon="6.71079">
        <ele>423.4</ele>
        <time>2017-01-15T11:24:56.000Z</time>
      </trkpt>
      <trkpt lat="47.50943" lon="6.71084">
        <ele>423.7</ele>
        <time>2017-01-15T11:24:57.000Z</time>
      </trkpt>
      <trkpt lat="47.50944" lon="6.71089">
        <ele>424</ele>
        <time>2017-01-15T11:24:59.000Z</time>
      </trkpt>
      <trkpt lat="47.50944" lon="6.71092">
        <ele>424.2</ele>
        <time>2017-01-15T11:25:00.000Z</time>
      </trkpt>
      <trkpt lat="47.50945" lon="6.71098">
        <ele>424.4</ele>
        <time>2017-01-15T11:25:03.000Z</time>
      </trkpt>
      <trkpt lat="47.50945" lon="6.711">
        <ele>424.4</ele>
        <time>2017-01-15T11:25:04.000Z</time>
      </trkpt>
      <trkpt lat="47.50943" lon="6.71105">
        <ele>424.4</ele>
        <time>2017-01-15T11:25:06.000Z</time>
      </trkpt>
      <trkpt lat="47.50943" lon="6.71109">
        <ele>424.3</ele>
        <time>2017-01-15T11:25:07.000Z</time>
      </trkpt>
      <trkpt lat="47.50943" lon="6.71112">
        <ele>424.2</ele>
        <time>2017-01-15T11:25:08.000Z</time>
      </trkpt>
      <trkpt lat="47.50942" lon="6.71115">
        <ele>424</ele>
        <time>2017-01-15T11:25:09.000Z</time>
      </trkpt>
      <trkpt lat="47.50942" lon="6.71119">
        <ele>423.8</ele>
        <time>2017-01-15T11:25:10.000Z</time>
      </trkpt>
      <trkpt lat="47.50942" lon="6.71123">
        <ele>423.7</ele>
        <time>2017-01-15T11:25:11.000Z</time>
      </trkpt>
      <trkpt lat="47.50945" lon="6.71128">
        <ele>423.3</ele>
        <time>2017-01-15T11:25:13.000Z</time>
      </trkpt>
      <trkpt lat="47.50945" lon="6.71129">
        <ele>423</ele>
        <time>2017-01-15T11:25:14.000Z</time>
      </trkpt>
      <trkpt lat="47.50948" lon="6.71132">
        <ele>422.6</ele>
        <time>2017-01-15T11:25:18.000Z</time>
      </trkpt>
      <trkpt lat="47.50949" lon="6.71137">
        <ele>422.4</ele>
        <time>2017-01-15T11:25:19.000Z</time>
      </trkpt>
      <trkpt lat="47.5095" lon="6.7114">
        <ele>422.3</ele>
        <time>2017-01-15T11:25:20.000Z</time>
      </trkpt>
      <trkpt lat="47.50949" lon="6.71144">
        <ele>422.2</ele>
        <time>2017-01-15T11:25:21.000Z</time>
      </trkpt>
      <trkpt lat="47.5095" lon="6.71147">
        <ele>422.1</ele>
        <time>2017-01-15T11:25:22.000Z</time>
      </trkpt>
      <trkpt lat="47.50951" lon="6.71151">
        <ele>422</ele>
        <time>2017-01-15T11:25:23.000Z</time>
      </trkpt>
      <trkpt lat="47.50952" lon="6.71155">
        <ele>421.7</ele>
        <time>2017-01-15T11:25:25.000Z</time>
      </trkpt>
      <trkpt lat="47.50952" lon="6.71158">
        <ele>421.4</ele>
        <time>2017-01-15T11:25:26.000Z</time>
      </trkpt>
      <trkpt lat="47.50953" lon="6.71165">
        <ele>420.7</ele>
        <time>2017-01-15T11:25:28.000Z</time>
      </trkpt>
      <trkpt lat="47.50953" lon="6.71167">
        <ele>420.3</ele>
        <time>2017-01-15T11:25:29.000Z</time>
      </trkpt>
      <trkpt lat="47.50953" lon="6.7117">
        <ele>420</ele>
        <time>2017-01-15T11:25:30.000Z</time>
      </trkpt>
      <trkpt lat="47.50951" lon="6.71174">
        <ele>419.7</ele>
        <time>2017-01-15T11:25:31.000Z</time>
      </trkpt>
      <trkpt lat="47.50949" lon="6.71178">
        <ele>419.3</ele>
        <time>2017-01-15T11:25:33.000Z</time>
      </trkpt>
      <trkpt lat="47.50944" lon="6.71181">
        <ele>419</ele>
        <time>2017-01-15T11:25:34.000Z</time>
      </trkpt>
      <trkpt lat="47.5094" lon="6.71182">
        <ele>418.9</ele>
        <time>2017-01-15T11:25:35.000Z</time>
      </trkpt>
      <trkpt lat="47.50936" lon="6.71183">
        <ele>418.7</ele>
        <time>2017-01-15T11:25:36.000Z</time>
      </trkpt>
      <trkpt lat="47.50931" lon="6.71182">
        <ele>418.6</ele>
        <time>2017-01-15T11:25:37.000Z</time>
      </trkpt>
      <trkpt lat="47.50926" lon="6.71182">
        <ele>418.5</ele>
        <time>2017-01-15T11:25:38.000Z</time>
      </trkpt>
      <trkpt lat="47.50922" lon="6.71183">
        <ele>418.5</ele>
        <time>2017-01-15T11:25:39.000Z</time>
      </trkpt>
      <trkpt lat="47.50919" lon="6.71182">
        <ele>418.4</ele>
        <time>2017-01-15T11:25:40.000Z</time>
      </trkpt>
      <trkpt lat="47.50915" lon="6.7118">
        <ele>418.3</ele>
        <time>2017-01-15T11:25:42.000Z</time>
      </trkpt>
      <trkpt lat="47.50914" lon="6.7118">
        <ele>418.3</ele>
        <time>2017-01-15T11:25:43.000Z</time>
      </trkpt>
      <trkpt lat="47.5091" lon="6.71181">
        <ele>418.4</ele>
        <time>2017-01-15T11:25:45.000Z</time>
      </trkpt>
      <trkpt lat="47.50909" lon="6.71183">
        <ele>418.5</ele>
        <time>2017-01-15T11:25:46.000Z</time>
      </trkpt>
      <trkpt lat="47.50906" lon="6.71188">
        <ele>418.7</ele>
        <time>2017-01-15T11:25:48.000Z</time>
      </trkpt>
      <trkpt lat="47.50906" lon="6.7119">
        <ele>418.9</ele>
        <time>2017-01-15T11:25:49.000Z</time>
      </trkpt>
      <trkpt lat="47.50904" lon="6.71193">
        <ele>418.9</ele>
        <time>2017-01-15T11:25:50.000Z</time>
      </trkpt>
      <trkpt lat="47.50903" lon="6.71197">
        <ele>419</ele>
        <time>2017-01-15T11:25:51.000Z</time>
      </trkpt>
      <trkpt lat="47.50901" lon="6.71199">
        <ele>419.2</ele>
        <time>2017-01-15T11:25:52.000Z</time>
      </trkpt>
      <trkpt lat="47.509" lon="6.71202">
        <ele>419.2</ele>
        <time>2017-01-15T11:25:53.000Z</time>
      </trkpt>
      <trkpt lat="47.50899" lon="6.71204">
        <ele>419.3</ele>
        <time>2017-01-15T11:25:54.000Z</time>
      </trkpt>
      <trkpt lat="47.50897" lon="6.7121">
        <ele>419.2</ele>
        <time>2017-01-15T11:25:55.000Z</time>
      </trkpt>
      <trkpt lat="47.50895" lon="6.71215">
        <ele>419.1</ele>
        <time>2017-01-15T11:25:56.000Z</time>
      </trkpt>
      <trkpt lat="47.50894" lon="6.71218">
        <ele>419.1</ele>
        <time>2017-01-15T11:25:57.000Z</time>
      </trkpt>
      <trkpt lat="47.50893" lon="6.71221">
        <ele>419</ele>
        <time>2017-01-15T11:25:58.000Z</time>
      </trkpt>
      <trkpt lat="47.50893" lon="6.71225">
        <ele>418.9</ele>
        <time>2017-01-15T11:25:59.000Z</time>
      </trkpt>
      <trkpt lat="47.50892" lon="6.7123">
        <ele>418.8</ele>
        <time>2017-01-15T11:26:00.000Z</time>
      </trkpt>
      <trkpt lat="47.50892" lon="6.71234">
        <ele>418.7</ele>
        <time>2017-01-15T11:26:01.000Z</time>
      </trkpt>
      <trkpt lat="47.50891" lon="6.71236">
        <ele>418.7</ele>
        <time>2017-01-15T11:26:02.000Z</time>
      </trkpt>
      <trkpt lat="47.5089" lon="6.7124">
        <ele>418.7</ele>
        <time>2017-01-15T11:26:03.000Z</time>
      </trkpt>
      <trkpt lat="47.50889" lon="6.71245">
        <ele>418.6</ele>
        <time>2017-01-15T11:26:04.000Z</time>
      </trkpt>
      <trkpt lat="47.50888" lon="6.71248">
        <ele>418.6</ele>
        <time>2017-01-15T11:26:05.000Z</time>
      </trkpt>
      <trkpt lat="47.50887" lon="6.71254">
        <ele>418.6</ele>
        <time>2017-01-15T11:26:07.000Z</time>
      </trkpt>
      <trkpt lat="47.50886" lon="6.71258">
        <ele>418.6</ele>
        <time>2017-01-15T11:26:08.000Z</time>
      </trkpt>
      <trkpt lat="47.50885" lon="6.71263">
        <ele>418.4</ele>
        <time>2017-01-15T11:26:09.000Z</time>
      </trkpt>
      <trkpt lat="47.50884" lon="6.71267">
        <ele>418.3</ele>
        <time>2017-01-15T11:26:10.000Z</time>
      </trkpt>
      <trkpt lat="47.50882" lon="6.71273">
        <ele>418.1</ele>
        <time>2017-01-15T11:26:11.000Z</time>
      </trkpt>
      <trkpt lat="47.50881" lon="6.71277">
        <ele>417.9</ele>
        <time>2017-01-15T11:26:12.000Z</time>
      </trkpt>
      <trkpt lat="47.50879" lon="6.71282">
        <ele>417.8</ele>
        <time>2017-01-15T11:26:13.000Z</time>
      </trkpt>
      <trkpt lat="47.50877" lon="6.71288">
        <ele>417.6</ele>
        <time>2017-01-15T11:26:14.000Z</time>
      </trkpt>
      <trkpt lat="47.50876" lon="6.71293">
        <ele>417.4</ele>
        <time>2017-01-15T11:26:15.000Z</time>
      </trkpt>
      <trkpt lat="47.50875" lon="6.71298">
        <ele>417.1</ele>
        <time>2017-01-15T11:26:16.000Z</time>
      </trkpt>
      <trkpt lat="47.50874" lon="6.71303">
        <ele>416.9</ele>
        <time>2017-01-15T11:26:17.000Z</time>
      </trkpt>
      <trkpt lat="47.50874" lon="6.71308">
        <ele>416.8</ele>
        <time>2017-01-15T11:26:18.000Z</time>
      </trkpt>
      <trkpt lat="47.50873" lon="6.71311">
        <ele>416.6</ele>
        <time>2017-01-15T11:26:19.000Z</time>
      </trkpt>
      <trkpt lat="47.50872" lon="6.71315">
        <ele>416.5</ele>
        <time>2017-01-15T11:26:20.000Z</time>
      </trkpt>
      <trkpt lat="47.50871" lon="6.7132">
        <ele>416.4</ele>
        <time>2017-01-15T11:26:21.000Z</time>
      </trkpt>
      <trkpt lat="47.50871" lon="6.71324">
        <ele>416.4</ele>
        <time>2017-01-15T11:26:22.000Z</time>
      </trkpt>
      <trkpt lat="47.50871" lon="6.71327">
        <ele>416.2</ele>
        <time>2017-01-15T11:26:23.000Z</time>
      </trkpt>
      <trkpt lat="47.5087" lon="6.71332">
        <ele>416.2</ele>
        <time>2017-01-15T11:26:24.000Z</time>
      </trkpt>
      <trkpt lat="47.50869" lon="6.71337">
        <ele>416.1</ele>
        <time>2017-01-15T11:26:25.000Z</time>
      </trkpt>
      <trkpt lat="47.50868" lon="6.71341">
        <ele>415.9</ele>
        <time>2017-01-15T11:26:26.000Z</time>
      </trkpt>
      <trkpt lat="47.50867" lon="6.71344">
        <ele>415.8</ele>
        <time>2017-01-15T11:26:27.000Z</time>
      </trkpt>
      <trkpt lat="47.50866" lon="6.71348">
        <ele>415.6</ele>
        <time>2017-01-15T11:26:28.000Z</time>
      </trkpt>
      <trkpt lat="47.50865" lon="6.71352">
        <ele>415.4</ele>
        <time>2017-01-15T11:26:29.000Z</time>
      </trkpt>
      <trkpt lat="47.50864" lon="6.71354">
        <ele>415.1</ele>
        <time>2017-01-15T11:26:30.000Z</time>
      </trkpt>
      <trkpt lat="47.50863" lon="6.7136">
        <ele>414.6</ele>
        <time>2017-01-15T11:26:32.000Z</time>
      </trkpt>
      <trkpt lat="47.50862" lon="6.71363">
        <ele>414.4</ele>
        <time>2017-01-15T11:26:33.000Z</time>
      </trkpt>
      <trkpt lat="47.50861" lon="6.71369">
        <ele>413.3</ele>
        <time>2017-01-15T11:26:37.000Z</time>
      </trkpt>
      <trkpt lat="47.50861" lon="6.71374">
        <ele>413.1</ele>
        <time>2017-01-15T11:26:38.000Z</time>
      </trkpt>
      <trkpt lat="47.50861" lon="6.71378">
        <ele>412.8</ele>
        <time>2017-01-15T11:26:39.000Z</time>
      </trkpt>
      <trkpt lat="47.5086" lon="6.71382">
        <ele>412.5</ele>
        <time>2017-01-15T11:26:40.000Z</time>
      </trkpt>
      <trkpt lat="47.5086" lon="6.71385">
        <ele>412.2</ele>
        <time>2017-01-15T11:26:41.000Z</time>
      </trkpt>
      <trkpt lat="47.50859" lon="6.71389">
        <ele>411.8</ele>
        <time>2017-01-15T11:26:42.000Z</time>
      </trkpt>
      <trkpt lat="47.50858" lon="6.71392">
        <ele>411.5</ele>
        <time>2017-01-15T11:26:43.000Z</time>
      </trkpt>
      <trkpt lat="47.50857" lon="6.71396">
        <ele>411.2</ele>
        <time>2017-01-15T11:26:44.000Z</time>
      </trkpt>
      <trkpt lat="47.50857" lon="6.71401">
        <ele>410.2</ele>
        <time>2017-01-15T11:26:47.000Z</time>
      </trkpt>
      <trkpt lat="47.50857" lon="6.71403">
        <ele>409.8</ele>
        <time>2017-01-15T11:26:48.000Z</time>
      </trkpt>
      <trkpt lat="47.50857" lon="6.71407">
        <ele>409.4</ele>
        <time>2017-01-15T11:26:49.000Z</time>
      </trkpt>
      <trkpt lat="47.50857" lon="6.7141">
        <ele>409.1</ele>
        <time>2017-01-15T11:26:50.000Z</time>
      </trkpt>
      <trkpt lat="47.50857" lon="6.71414">
        <ele>408.7</ele>
        <time>2017-01-15T11:26:52.000Z</time>
      </trkpt>
      <trkpt lat="47.50856" lon="6.71418">
        <ele>408.5</ele>
        <time>2017-01-15T11:26:53.000Z</time>
      </trkpt>
      <trkpt lat="47.50856" lon="6.71424">
        <ele>408.3</ele>
        <time>2017-01-15T11:26:56.000Z</time>
      </trkpt>
      <trkpt lat="47.50855" lon="6.71427">
        <ele>408.3</ele>
        <time>2017-01-15T11:26:57.000Z</time>
      </trkpt>
      <trkpt lat="47.50855" lon="6.71429">
        <ele>408.3</ele>
        <time>2017-01-15T11:26:58.000Z</time>
      </trkpt>
      <trkpt lat="47.50852" lon="6.71434">
        <ele>408</ele>
        <time>2017-01-15T11:26:59.000Z</time>
      </trkpt>
      <trkpt lat="47.50852" lon="6.71439">
        <ele>407.7</ele>
        <time>2017-01-15T11:27:05.000Z</time>
      </trkpt>
      <trkpt lat="47.50852" lon="6.71442">
        <ele>407.7</ele>
        <time>2017-01-15T11:27:06.000Z</time>
      </trkpt>
      <trkpt lat="47.5085" lon="6.71446">
        <ele>407.3</ele>
        <time>2017-01-15T11:27:08.000Z</time>
      </trkpt>
      <trkpt lat="47.5085" lon="6.71448">
        <ele>407.2</ele>
        <time>2017-01-15T11:27:09.000Z</time>
      </trkpt>
      <trkpt lat="47.50849" lon="6.71452">
        <ele>407</ele>
        <time>2017-01-15T11:27:10.000Z</time>
      </trkpt>
      <trkpt lat="47.50847" lon="6.71457">
        <ele>406.9</ele>
        <time>2017-01-15T11:27:11.000Z</time>
      </trkpt>
      <trkpt lat="47.50846" lon="6.7146">
        <ele>406.8</ele>
        <time>2017-01-15T11:27:12.000Z</time>
      </trkpt>
      <trkpt lat="47.50844" lon="6.71464">
        <ele>406.8</ele>
        <time>2017-01-15T11:27:13.000Z</time>
      </trkpt>
      <trkpt lat="47.50843" lon="6.71468">
        <ele>406.8</ele>
        <time>2017-01-15T11:27:14.000Z</time>
      </trkpt>
      <trkpt lat="47.50842" lon="6.71471">
        <ele>406.8</ele>
        <time>2017-01-15T11:27:15.000Z</time>
      </trkpt>
      <trkpt lat="47.5084" lon="6.71475">
        <ele>406.8</ele>
        <time>2017-01-15T11:27:16.000Z</time>
      </trkpt>
      <trkpt lat="47.50838" lon="6.7148">
        <ele>406.8</ele>
        <time>2017-01-15T11:27:17.000Z</time>
      </trkpt>
      <trkpt lat="47.50838" lon="6.71484">
        <ele>406.7</ele>
        <time>2017-01-15T11:27:19.000Z</time>
      </trkpt>
      <trkpt lat="47.50837" lon="6.71489">
        <ele>406.6</ele>
        <time>2017-01-15T11:27:20.000Z</time>
      </trkpt>
      <trkpt lat="47.50836" lon="6.71492">
        <ele>406.5</ele>
        <time>2017-01-15T11:27:21.000Z</time>
      </trkpt>
      <trkpt lat="47.50836" lon="6.71496">
        <ele>406.5</ele>
        <time>2017-01-15T11:27:22.000Z</time>
      </trkpt>
      <trkpt lat="47.50835" lon="6.71501">
        <ele>406.5</ele>
        <time>2017-01-15T11:27:23.000Z</time>
      </trkpt>
      <trkpt lat="47.50835" lon="6.71505">
        <ele>406.5</ele>
        <time>2017-01-15T11:27:24.000Z</time>
      </trkpt>
      <trkpt lat="47.50834" lon="6.71509">
        <ele>406.4</ele>
        <time>2017-01-15T11:27:25.000Z</time>
      </trkpt>
      <trkpt lat="47.50834" lon="6.71513">
        <ele>406.4</ele>
        <time>2017-01-15T11:27:26.000Z</time>
      </trkpt>
      <trkpt lat="47.50833" lon="6.71518">
        <ele>406.4</ele>
        <time>2017-01-15T11:27:27.000Z</time>
      </trkpt>
      <trkpt lat="47.50833" lon="6.71526">
        <ele>406.3</ele>
        <time>2017-01-15T11:27:28.000Z</time>
      </trkpt>
      <trkpt lat="47.50831" lon="6.71532">
        <ele>406.3</ele>
        <time>2017-01-15T11:27:29.000Z</time>
      </trkpt>
      <trkpt lat="47.5083" lon="6.71536">
        <ele>406.2</ele>
        <time>2017-01-15T11:27:30.000Z</time>
      </trkpt>
      <trkpt lat="47.50829" lon="6.71539">
        <ele>406.2</ele>
        <time>2017-01-15T11:27:31.000Z</time>
      </trkpt>
      <trkpt lat="47.50829" lon="6.71542">
        <ele>406.1</ele>
        <time>2017-01-15T11:27:32.000Z</time>
      </trkpt>
      <trkpt lat="47.50828" lon="6.71549">
        <ele>406</ele>
        <time>2017-01-15T11:27:34.000Z</time>
      </trkpt>
      <trkpt lat="47.50827" lon="6.71552">
        <ele>405.9</ele>
        <time>2017-01-15T11:27:35.000Z</time>
      </trkpt>
      <trkpt lat="47.50827" lon="6.71555">
        <ele>405.8</ele>
        <time>2017-01-15T11:27:36.000Z</time>
      </trkpt>
      <trkpt lat="47.50826" lon="6.71559">
        <ele>405.7</ele>
        <time>2017-01-15T11:27:37.000Z</time>
      </trkpt>
      <trkpt lat="47.50826" lon="6.71565">
        <ele>405.2</ele>
        <time>2017-01-15T11:27:39.000Z</time>
      </trkpt>
      <trkpt lat="47.50826" lon="6.71568">
        <ele>405</ele>
        <time>2017-01-15T11:27:40.000Z</time>
      </trkpt>
      <trkpt lat="47.50826" lon="6.71572">
        <ele>404.8</ele>
        <time>2017-01-15T11:27:41.000Z</time>
      </trkpt>
      <trkpt lat="47.50826" lon="6.71575">
        <ele>404.7</ele>
        <time>2017-01-15T11:27:42.000Z</time>
      </trkpt>
      <trkpt lat="47.50826" lon="6.7158">
        <ele>404.4</ele>
        <time>2017-01-15T11:27:44.000Z</time>
      </trkpt>
      <trkpt lat="47.50826" lon="6.71584">
        <ele>404.3</ele>
        <time>2017-01-15T11:27:45.000Z</time>
      </trkpt>
      <trkpt lat="47.50825" lon="6.71588">
        <ele>404.2</ele>
        <time>2017-01-15T11:27:46.000Z</time>
      </trkpt>
      <trkpt lat="47.50824" lon="6.71591">
        <ele>404.1</ele>
        <time>2017-01-15T11:27:47.000Z</time>
      </trkpt>
      <trkpt lat="47.50824" lon="6.71595">
        <ele>404.1</ele>
        <time>2017-01-15T11:27:48.000Z</time>
      </trkpt>
      <trkpt lat="47.50824" lon="6.71599">
        <ele>404</ele>
        <time>2017-01-15T11:27:49.000Z</time>
      </trkpt>
      <trkpt lat="47.50824" lon="6.71603">
        <ele>403.9</ele>
        <time>2017-01-15T11:27:50.000Z</time>
      </trkpt>
      <trkpt lat="47.50823" lon="6.71607">
        <ele>403.8</ele>
        <time>2017-01-15T11:27:51.000Z</time>
      </trkpt>
      <trkpt lat="47.50824" lon="6.7161">
        <ele>403.7</ele>
        <time>2017-01-15T11:27:52.000Z</time>
      </trkpt>
      <trkpt lat="47.50824" lon="6.71614">
        <ele>403.6</ele>
        <time>2017-01-15T11:27:53.000Z</time>
      </trkpt>
      <trkpt lat="47.50824" lon="6.71618">
        <ele>403.5</ele>
        <time>2017-01-15T11:27:54.000Z</time>
      </trkpt>
      <trkpt lat="47.50823" lon="6.71622">
        <ele>403.4</ele>
        <time>2017-01-15T11:27:55.000Z</time>
      </trkpt>
      <trkpt lat="47.50823" lon="6.71626">
        <ele>403.1</ele>
        <time>2017-01-15T11:27:56.000Z</time>
      </trkpt>
      <trkpt lat="47.50822" lon="6.71631">
        <ele>402.9</ele>
        <time>2017-01-15T11:27:57.000Z</time>
      </trkpt>
      <trkpt lat="47.50822" lon="6.71634">
        <ele>402.7</ele>
        <time>2017-01-15T11:27:58.000Z</time>
      </trkpt>
      <trkpt lat="47.50822" lon="6.71638">
        <ele>402.5</ele>
        <time>2017-01-15T11:27:59.000Z</time>
      </trkpt>
      <trkpt lat="47.50822" lon="6.71642">
        <ele>402.2</ele>
        <time>2017-01-15T11:28:00.000Z</time>
      </trkpt>
      <trkpt lat="47.50822" lon="6.71645">
        <ele>401.9</ele>
        <time>2017-01-15T11:28:01.000Z</time>
      </trkpt>
      <trkpt lat="47.50823" lon="6.7165">
        <ele>401.1</ele>
        <time>2017-01-15T11:28:04.000Z</time>
      </trkpt>
      <trkpt lat="47.50822" lon="6.71652">
        <ele>401.1</ele>
        <time>2017-01-15T11:28:05.000Z</time>
      </trkpt>
      <trkpt lat="47.5082" lon="6.71655">
        <ele>401</ele>
        <time>2017-01-15T11:28:06.000Z</time>
      </trkpt>
      <trkpt lat="47.50817" lon="6.71659">
        <ele>400.9</ele>
        <time>2017-01-15T11:28:07.000Z</time>
      </trkpt>
      <trkpt lat="47.50815" lon="6.71662">
        <ele>400.8</ele>
        <time>2017-01-15T11:28:08.000Z</time>
      </trkpt>
      <trkpt lat="47.50811" lon="6.71664">
        <ele>400.8</ele>
        <time>2017-01-15T11:28:09.000Z</time>
      </trkpt>
      <trkpt lat="47.50806" lon="6.71666">
        <ele>400.8</ele>
        <time>2017-01-15T11:28:10.000Z</time>
      </trkpt>
      <trkpt lat="47.50803" lon="6.71667">
        <ele>400.8</ele>
        <time>2017-01-15T11:28:11.000Z</time>
      </trkpt>
      <trkpt lat="47.50797" lon="6.71667">
        <ele>400.8</ele>
        <time>2017-01-15T11:28:12.000Z</time>
      </trkpt>
      <trkpt lat="47.50791" lon="6.71668">
        <ele>400.8</ele>
        <time>2017-01-15T11:28:13.000Z</time>
      </trkpt>
      <trkpt lat="47.50787" lon="6.71669">
        <ele>401</ele>
        <time>2017-01-15T11:28:15.000Z</time>
      </trkpt>
      <trkpt lat="47.50786" lon="6.7167">
        <ele>401.1</ele>
        <time>2017-01-15T11:28:16.000Z</time>
      </trkpt>
      <trkpt lat="47.50783" lon="6.71671">
        <ele>401.3</ele>
        <time>2017-01-15T11:28:18.000Z</time>
      </trkpt>
      <trkpt lat="47.5078" lon="6.71674">
        <ele>401.4</ele>
        <time>2017-01-15T11:28:19.000Z</time>
      </trkpt>
      <trkpt lat="47.50778" lon="6.71675">
        <ele>401.5</ele>
        <time>2017-01-15T11:28:20.000Z</time>
      </trkpt>
      <trkpt lat="47.50776" lon="6.71676">
        <ele>401.5</ele>
        <time>2017-01-15T11:28:21.000Z</time>
      </trkpt>
      <trkpt lat="47.50772" lon="6.71677">
        <ele>401.5</ele>
        <time>2017-01-15T11:28:23.000Z</time>
      </trkpt>
      <trkpt lat="47.5077" lon="6.71678">
        <ele>401.5</ele>
        <time>2017-01-15T11:28:24.000Z</time>
      </trkpt>
      <trkpt lat="47.50767" lon="6.71677">
        <ele>401.5</ele>
        <time>2017-01-15T11:28:26.000Z</time>
      </trkpt>
      <trkpt lat="47.50764" lon="6.71676">
        <ele>401.5</ele>
        <time>2017-01-15T11:28:27.000Z</time>
      </trkpt>
      <trkpt lat="47.50762" lon="6.71676">
        <ele>401.6</ele>
        <time>2017-01-15T11:28:28.000Z</time>
      </trkpt>
      <trkpt lat="47.5076" lon="6.71675">
        <ele>401.7</ele>
        <time>2017-01-15T11:28:29.000Z</time>
      </trkpt>
      <trkpt lat="47.50757" lon="6.71674">
        <ele>401.8</ele>
        <time>2017-01-15T11:28:30.000Z</time>
      </trkpt>
      <trkpt lat="47.50754" lon="6.71672">
        <ele>401.8</ele>
        <time>2017-01-15T11:28:31.000Z</time>
      </trkpt>
      <trkpt lat="47.50752" lon="6.71671">
        <ele>401.9</ele>
        <time>2017-01-15T11:28:32.000Z</time>
      </trkpt>
      <trkpt lat="47.50746" lon="6.71669">
        <ele>402</ele>
        <time>2017-01-15T11:28:34.000Z</time>
      </trkpt>
      <trkpt lat="47.50743" lon="6.71668">
        <ele>402.1</ele>
        <time>2017-01-15T11:28:35.000Z</time>
      </trkpt>
      <trkpt lat="47.50741" lon="6.71667">
        <ele>402.2</ele>
        <time>2017-01-15T11:28:36.000Z</time>
      </trkpt>
      <trkpt lat="47.50736" lon="6.71667">
        <ele>402.1</ele>
        <time>2017-01-15T11:28:38.000Z</time>
      </trkpt>
      <trkpt lat="47.50734" lon="6.71666">
        <ele>402</ele>
        <time>2017-01-15T11:28:39.000Z</time>
      </trkpt>
      <trkpt lat="47.5073" lon="6.71664">
        <ele>402</ele>
        <time>2017-01-15T11:28:41.000Z</time>
      </trkpt>
      <trkpt lat="47.50727" lon="6.71663">
        <ele>402</ele>
        <time>2017-01-15T11:28:42.000Z</time>
      </trkpt>
      <trkpt lat="47.50725" lon="6.71662">
        <ele>402</ele>
        <time>2017-01-15T11:28:43.000Z</time>
      </trkpt>
      <trkpt lat="47.50722" lon="6.71661">
        <ele>402</ele>
        <time>2017-01-15T11:28:44.000Z</time>
      </trkpt>
      <trkpt lat="47.50719" lon="6.71659">
        <ele>401.9</ele>
        <time>2017-01-15T11:28:45.000Z</time>
      </trkpt>
      <trkpt lat="47.50716" lon="6.71658">
        <ele>401.9</ele>
        <time>2017-01-15T11:28:46.000Z</time>
      </trkpt>
      <trkpt lat="47.50713" lon="6.71657">
        <ele>401.8</ele>
        <time>2017-01-15T11:28:47.000Z</time>
      </trkpt>
      <trkpt lat="47.5071" lon="6.71657">
        <ele>401.8</ele>
        <time>2017-01-15T11:28:48.000Z</time>
      </trkpt>
      <trkpt lat="47.50707" lon="6.71656">
        <ele>401.6</ele>
        <time>2017-01-15T11:28:49.000Z</time>
      </trkpt>
      <trkpt lat="47.50705" lon="6.71655">
        <ele>401.5</ele>
        <time>2017-01-15T11:28:50.000Z</time>
      </trkpt>
      <trkpt lat="47.50702" lon="6.71654">
        <ele>401.4</ele>
        <time>2017-01-15T11:28:51.000Z</time>
      </trkpt>
      <trkpt lat="47.50699" lon="6.71653">
        <ele>401.3</ele>
        <time>2017-01-15T11:28:52.000Z</time>
      </trkpt>
      <trkpt lat="47.50697" lon="6.71652">
        <ele>401.2</ele>
        <time>2017-01-15T11:28:53.000Z</time>
      </trkpt>
      <trkpt lat="47.50694" lon="6.71652">
        <ele>401.1</ele>
        <time>2017-01-15T11:28:54.000Z</time>
      </trkpt>
      <trkpt lat="47.50692" lon="6.71651">
        <ele>401</ele>
        <time>2017-01-15T11:28:55.000Z</time>
      </trkpt>
      <trkpt lat="47.50689" lon="6.7165">
        <ele>400.8</ele>
        <time>2017-01-15T11:28:56.000Z</time>
      </trkpt>
      <trkpt lat="47.50686" lon="6.7165">
        <ele>400.7</ele>
        <time>2017-01-15T11:28:57.000Z</time>
      </trkpt>
      <trkpt lat="47.50684" lon="6.71649">
        <ele>400.6</ele>
        <time>2017-01-15T11:28:58.000Z</time>
      </trkpt>
      <trkpt lat="47.50681" lon="6.71649">
        <ele>400.6</ele>
        <time>2017-01-15T11:28:59.000Z</time>
      </trkpt>
      <trkpt lat="47.50679" lon="6.71648">
        <ele>400.5</ele>
        <time>2017-01-15T11:29:00.000Z</time>
      </trkpt>
      <trkpt lat="47.50676" lon="6.71647">
        <ele>400.5</ele>
        <time>2017-01-15T11:29:01.000Z</time>
      </trkpt>
      <trkpt lat="47.50674" lon="6.71646">
        <ele>400.5</ele>
        <time>2017-01-15T11:29:02.000Z</time>
      </trkpt>
      <trkpt lat="47.50671" lon="6.71645">
        <ele>400.5</ele>
        <time>2017-01-15T11:29:03.000Z</time>
      </trkpt>
      <trkpt lat="47.50669" lon="6.71644">
        <ele>400.5</ele>
        <time>2017-01-15T11:29:04.000Z</time>
      </trkpt>
      <trkpt lat="47.50667" lon="6.71643">
        <ele>400.5</ele>
        <time>2017-01-15T11:29:05.000Z</time>
      </trkpt>
      <trkpt lat="47.50664" lon="6.71642">
        <ele>400.5</ele>
        <time>2017-01-15T11:29:06.000Z</time>
      </trkpt>
      <trkpt lat="47.50662" lon="6.71641">
        <ele>400.5</ele>
        <time>2017-01-15T11:29:07.000Z</time>
      </trkpt>
      <trkpt lat="47.50659" lon="6.7164">
        <ele>400.3</ele>
        <time>2017-01-15T11:29:08.000Z</time>
      </trkpt>
      <trkpt lat="47.50655" lon="6.71639">
        <ele>400.1</ele>
        <time>2017-01-15T11:29:10.000Z</time>
      </trkpt>
      <trkpt lat="47.50653" lon="6.71638">
        <ele>400</ele>
        <time>2017-01-15T11:29:11.000Z</time>
      </trkpt>
      <trkpt lat="47.50649" lon="6.71639">
        <ele>399.8</ele>
        <time>2017-01-15T11:29:13.000Z</time>
      </trkpt>
      <trkpt lat="47.50647" lon="6.7164">
        <ele>399.7</ele>
        <time>2017-01-15T11:29:14.000Z</time>
      </trkpt>
      <trkpt lat="47.50644" lon="6.71645">
        <ele>399.6</ele>
        <time>2017-01-15T11:29:16.000Z</time>
      </trkpt>
      <trkpt lat="47.50643" lon="6.71648">
        <ele>399.6</ele>
        <time>2017-01-15T11:29:17.000Z</time>
      </trkpt>
      <trkpt lat="47.50642" lon="6.71652">
        <ele>399.6</ele>
        <time>2017-01-15T11:29:18.000Z</time>
      </trkpt>
      <trkpt lat="47.50641" lon="6.71656">
        <ele>399.7</ele>
        <time>2017-01-15T11:29:19.000Z</time>
      </trkpt>
      <trkpt lat="47.5064" lon="6.7166">
        <ele>399.7</ele>
        <time>2017-01-15T11:29:20.000Z</time>
      </trkpt>
      <trkpt lat="47.50639" lon="6.71665">
        <ele>399.8</ele>
        <time>2017-01-15T11:29:21.000Z</time>
      </trkpt>
      <trkpt lat="47.50639" lon="6.71668">
        <ele>399.9</ele>
        <time>2017-01-15T11:29:22.000Z</time>
      </trkpt>
      <trkpt lat="47.50638" lon="6.71673">
        <ele>399.9</ele>
        <time>2017-01-15T11:29:23.000Z</time>
      </trkpt>
      <trkpt lat="47.50637" lon="6.71676">
        <ele>400</ele>
        <time>2017-01-15T11:29:24.000Z</time>
      </trkpt>
      <trkpt lat="47.50636" lon="6.71681">
        <ele>400</ele>
        <time>2017-01-15T11:29:25.000Z</time>
      </trkpt>
      <trkpt lat="47.50635" lon="6.71684">
        <ele>400.1</ele>
        <time>2017-01-15T11:29:26.000Z</time>
      </trkpt>
      <trkpt lat="47.50634" lon="6.71689">
        <ele>400.2</ele>
        <time>2017-01-15T11:29:27.000Z</time>
      </trkpt>
      <trkpt lat="47.50634" lon="6.71693">
        <ele>400.3</ele>
        <time>2017-01-15T11:29:28.000Z</time>
      </trkpt>
      <trkpt lat="47.50633" lon="6.71697">
        <ele>400.4</ele>
        <time>2017-01-15T11:29:29.000Z</time>
      </trkpt>
      <trkpt lat="47.50632" lon="6.71701">
        <ele>400.4</ele>
        <time>2017-01-15T11:29:30.000Z</time>
      </trkpt>
      <trkpt lat="47.50631" lon="6.71706">
        <ele>400.5</ele>
        <time>2017-01-15T11:29:31.000Z</time>
      </trkpt>
      <trkpt lat="47.5063" lon="6.71709">
        <ele>400.5</ele>
        <time>2017-01-15T11:29:32.000Z</time>
      </trkpt>
      <trkpt lat="47.50629" lon="6.71713">
        <ele>400.6</ele>
        <time>2017-01-15T11:29:33.000Z</time>
      </trkpt>
      <trkpt lat="47.50628" lon="6.71716">
        <ele>400.7</ele>
        <time>2017-01-15T11:29:34.000Z</time>
      </trkpt>
      <trkpt lat="47.50627" lon="6.71719">
        <ele>400.7</ele>
        <time>2017-01-15T11:29:35.000Z</time>
      </trkpt>
      <trkpt lat="47.50626" lon="6.71722">
        <ele>400.8</ele>
        <time>2017-01-15T11:29:36.000Z</time>
      </trkpt>
      <trkpt lat="47.50625" lon="6.71726">
        <ele>400.9</ele>
        <time>2017-01-15T11:29:37.000Z</time>
      </trkpt>
      <trkpt lat="47.50623" lon="6.71731">
        <ele>400.9</ele>
        <time>2017-01-15T11:29:38.000Z</time>
      </trkpt>
      <trkpt lat="47.50622" lon="6.71735">
        <ele>401</ele>
        <time>2017-01-15T11:29:39.000Z</time>
      </trkpt>
      <trkpt lat="47.50621" lon="6.7174">
        <ele>401</ele>
        <time>2017-01-15T11:29:40.000Z</time>
      </trkpt>
      <trkpt lat="47.5062" lon="6.71745">
        <ele>401.1</ele>
        <time>2017-01-15T11:29:41.000Z</time>
      </trkpt>
      <trkpt lat="47.50619" lon="6.71751">
        <ele>401</ele>
        <time>2017-01-15T11:29:42.000Z</time>
      </trkpt>
      <trkpt lat="47.50618" lon="6.71754">
        <ele>401</ele>
        <time>2017-01-15T11:29:43.000Z</time>
      </trkpt>
      <trkpt lat="47.50617" lon="6.71758">
        <ele>401</ele>
        <time>2017-01-15T11:29:44.000Z</time>
      </trkpt>
      <trkpt lat="47.50616" lon="6.71763">
        <ele>401</ele>
        <time>2017-01-15T11:29:45.000Z</time>
      </trkpt>
      <trkpt lat="47.50615" lon="6.71767">
        <ele>401</ele>
        <time>2017-01-15T11:29:46.000Z</time>
      </trkpt>
      <trkpt lat="47.50614" lon="6.71771">
        <ele>401.1</ele>
        <time>2017-01-15T11:29:47.000Z</time>
      </trkpt>
      <trkpt lat="47.50614" lon="6.71774">
        <ele>401.2</ele>
        <time>2017-01-15T11:29:48.000Z</time>
      </trkpt>
      <trkpt lat="47.50613" lon="6.71779">
        <ele>401.2</ele>
        <time>2017-01-15T11:29:49.000Z</time>
      </trkpt>
      <trkpt lat="47.50612" lon="6.71783">
        <ele>401.2</ele>
        <time>2017-01-15T11:29:50.000Z</time>
      </trkpt>
      <trkpt lat="47.50611" lon="6.71787">
        <ele>401.3</ele>
        <time>2017-01-15T11:29:51.000Z</time>
      </trkpt>
      <trkpt lat="47.50611" lon="6.71791">
        <ele>401.4</ele>
        <time>2017-01-15T11:29:52.000Z</time>
      </trkpt>
      <trkpt lat="47.5061" lon="6.71794">
        <ele>401.5</ele>
        <time>2017-01-15T11:29:53.000Z</time>
      </trkpt>
      <trkpt lat="47.50609" lon="6.71798">
        <ele>401.6</ele>
        <time>2017-01-15T11:29:54.000Z</time>
      </trkpt>
      <trkpt lat="47.50608" lon="6.71802">
        <ele>401.6</ele>
        <time>2017-01-15T11:29:55.000Z</time>
      </trkpt>
      <trkpt lat="47.50607" lon="6.71808">
        <ele>401.6</ele>
        <time>2017-01-15T11:29:56.000Z</time>
      </trkpt>
      <trkpt lat="47.50606" lon="6.71813">
        <ele>401.7</ele>
        <time>2017-01-15T11:29:57.000Z</time>
      </trkpt>
      <trkpt lat="47.50605" lon="6.71817">
        <ele>401.7</ele>
        <time>2017-01-15T11:29:58.000Z</time>
      </trkpt>
      <trkpt lat="47.50604" lon="6.7182">
        <ele>401.8</ele>
        <time>2017-01-15T11:29:59.000Z</time>
      </trkpt>
      <trkpt lat="47.50603" lon="6.71824">
        <ele>401.9</ele>
        <time>2017-01-15T11:30:00.000Z</time>
      </trkpt>
      <trkpt lat="47.50601" lon="6.7183">
        <ele>401.9</ele>
        <time>2017-01-15T11:30:01.000Z</time>
      </trkpt>
      <trkpt lat="47.50601" lon="6.71834">
        <ele>402</ele>
        <time>2017-01-15T11:30:02.000Z</time>
      </trkpt>
      <trkpt lat="47.506" lon="6.71838">
        <ele>402</ele>
        <time>2017-01-15T11:30:03.000Z</time>
      </trkpt>
      <trkpt lat="47.506" lon="6.71841">
        <ele>402.1</ele>
        <time>2017-01-15T11:30:04.000Z</time>
      </trkpt>
      <trkpt lat="47.50599" lon="6.71845">
        <ele>402.2</ele>
        <time>2017-01-15T11:30:05.000Z</time>
      </trkpt>
      <trkpt lat="47.50598" lon="6.71849">
        <ele>402.2</ele>
        <time>2017-01-15T11:30:06.000Z</time>
      </trkpt>
      <trkpt lat="47.50597" lon="6.71852">
        <ele>402.2</ele>
        <time>2017-01-15T11:30:07.000Z</time>
      </trkpt>
      <trkpt lat="47.50597" lon="6.71855">
        <ele>402.3</ele>
        <time>2017-01-15T11:30:08.000Z</time>
      </trkpt>
      <trkpt lat="47.50596" lon="6.71858">
        <ele>402.3</ele>
        <time>2017-01-15T11:30:09.000Z</time>
      </trkpt>
      <trkpt lat="47.50594" lon="6.71863">
        <ele>402.3</ele>
        <time>2017-01-15T11:30:10.000Z</time>
      </trkpt>
      <trkpt lat="47.50593" lon="6.71868">
        <ele>402.4</ele>
        <time>2017-01-15T11:30:11.000Z</time>
      </trkpt>
      <trkpt lat="47.50592" lon="6.7187">
        <ele>402.4</ele>
        <time>2017-01-15T11:30:12.000Z</time>
      </trkpt>
      <trkpt lat="47.5059" lon="6.71875">
        <ele>402.3</ele>
        <time>2017-01-15T11:30:13.000Z</time>
      </trkpt>
      <trkpt lat="47.50589" lon="6.71879">
        <ele>402.3</ele>
        <time>2017-01-15T11:30:14.000Z</time>
      </trkpt>
      <trkpt lat="47.50588" lon="6.71882">
        <ele>402.3</ele>
        <time>2017-01-15T11:30:15.000Z</time>
      </trkpt>
      <trkpt lat="47.50586" lon="6.71887">
        <ele>402.1</ele>
        <time>2017-01-15T11:30:16.000Z</time>
      </trkpt>
      <trkpt lat="47.50585" lon="6.71891">
        <ele>402</ele>
        <time>2017-01-15T11:30:17.000Z</time>
      </trkpt>
      <trkpt lat="47.50583" lon="6.71897">
        <ele>401.8</ele>
        <time>2017-01-15T11:30:19.000Z</time>
      </trkpt>
      <trkpt lat="47.50582" lon="6.719">
        <ele>401.7</ele>
        <time>2017-01-15T11:30:20.000Z</time>
      </trkpt>
      <trkpt lat="47.50581" lon="6.71904">
        <ele>401.7</ele>
        <time>2017-01-15T11:30:21.000Z</time>
      </trkpt>
      <trkpt lat="47.5058" lon="6.71907">
        <ele>401.7</ele>
        <time>2017-01-15T11:30:22.000Z</time>
      </trkpt>
      <trkpt lat="47.50578" lon="6.71911">
        <ele>401.6</ele>
        <time>2017-01-15T11:30:23.000Z</time>
      </trkpt>
      <trkpt lat="47.50577" lon="6.71914">
        <ele>401.7</ele>
        <time>2017-01-15T11:30:24.000Z</time>
      </trkpt>
      <trkpt lat="47.50576" lon="6.71919">
        <ele>401.6</ele>
        <time>2017-01-15T11:30:25.000Z</time>
      </trkpt>
      <trkpt lat="47.50575" lon="6.71923">
        <ele>401.7</ele>
        <time>2017-01-15T11:30:26.000Z</time>
      </trkpt>
      <trkpt lat="47.50574" lon="6.71927">
        <ele>401.7</ele>
        <time>2017-01-15T11:30:27.000Z</time>
      </trkpt>
      <trkpt lat="47.50574" lon="6.7193">
        <ele>401.7</ele>
        <time>2017-01-15T11:30:28.000Z</time>
      </trkpt>
      <trkpt lat="47.50573" lon="6.71933">
        <ele>401.6</ele>
        <time>2017-01-15T11:30:29.000Z</time>
      </trkpt>
      <trkpt lat="47.50572" lon="6.71937">
        <ele>401.5</ele>
        <time>2017-01-15T11:30:30.000Z</time>
      </trkpt>
      <trkpt lat="47.50571" lon="6.71941">
        <ele>401.3</ele>
        <time>2017-01-15T11:30:32.000Z</time>
      </trkpt>
      <trkpt lat="47.5057" lon="6.71944">
        <ele>401.1</ele>
        <time>2017-01-15T11:30:33.000Z</time>
      </trkpt>
      <trkpt lat="47.50569" lon="6.71948">
        <ele>400.8</ele>
        <time>2017-01-15T11:30:35.000Z</time>
      </trkpt>
      <trkpt lat="47.50568" lon="6.71951">
        <ele>400.8</ele>
        <time>2017-01-15T11:30:36.000Z</time>
      </trkpt>
      <trkpt lat="47.50567" lon="6.71954">
        <ele>400.7</ele>
        <time>2017-01-15T11:30:37.000Z</time>
      </trkpt>
      <trkpt lat="47.50566" lon="6.71957">
        <ele>400.7</ele>
        <time>2017-01-15T11:30:38.000Z</time>
      </trkpt>
      <trkpt lat="47.50563" lon="6.71962">
        <ele>400.5</ele>
        <time>2017-01-15T11:30:40.000Z</time>
      </trkpt>
      <trkpt lat="47.50562" lon="6.71964">
        <ele>400.3</ele>
        <time>2017-01-15T11:30:41.000Z</time>
      </trkpt>
      <trkpt lat="47.5056" lon="6.71967">
        <ele>400.1</ele>
        <time>2017-01-15T11:30:43.000Z</time>
      </trkpt>
      <trkpt lat="47.50559" lon="6.7197">
        <ele>400</ele>
        <time>2017-01-15T11:30:44.000Z</time>
      </trkpt>
      <trkpt lat="47.50557" lon="6.71975">
        <ele>399.7</ele>
        <time>2017-01-15T11:30:46.000Z</time>
      </trkpt>
      <trkpt lat="47.50556" lon="6.71978">
        <ele>399.6</ele>
        <time>2017-01-15T11:30:47.000Z</time>
      </trkpt>
      <trkpt lat="47.50554" lon="6.71982">
        <ele>399.3</ele>
        <time>2017-01-15T11:30:49.000Z</time>
      </trkpt>
      <trkpt lat="47.50553" lon="6.71985">
        <ele>399.2</ele>
        <time>2017-01-15T11:30:50.000Z</time>
      </trkpt>
      <trkpt lat="47.50551" lon="6.71988">
        <ele>399.1</ele>
        <time>2017-01-15T11:30:51.000Z</time>
      </trkpt>
      <trkpt lat="47.5055" lon="6.71991">
        <ele>399</ele>
        <time>2017-01-15T11:30:52.000Z</time>
      </trkpt>
      <trkpt lat="47.50548" lon="6.71996">
        <ele>398.8</ele>
        <time>2017-01-15T11:30:54.000Z</time>
      </trkpt>
      <trkpt lat="47.50546" lon="6.71999">
        <ele>398.8</ele>
        <time>2017-01-15T11:30:55.000Z</time>
      </trkpt>
      <trkpt lat="47.50544" lon="6.72004">
        <ele>398.6</ele>
        <time>2017-01-15T11:30:57.000Z</time>
      </trkpt>
      <trkpt lat="47.50544" lon="6.72007">
        <ele>398.5</ele>
        <time>2017-01-15T11:30:58.000Z</time>
      </trkpt>
      <trkpt lat="47.50542" lon="6.72013">
        <ele>398.2</ele>
        <time>2017-01-15T11:31:00.000Z</time>
      </trkpt>
      <trkpt lat="47.5054" lon="6.72016">
        <ele>398.1</ele>
        <time>2017-01-15T11:31:01.000Z</time>
      </trkpt>
      <trkpt lat="47.50539" lon="6.72019">
        <ele>398</ele>
        <time>2017-01-15T11:31:02.000Z</time>
      </trkpt>
      <trkpt lat="47.50538" lon="6.72022">
        <ele>397.9</ele>
        <time>2017-01-15T11:31:03.000Z</time>
      </trkpt>
      <trkpt lat="47.50537" lon="6.72025">
        <ele>397.9</ele>
        <time>2017-01-15T11:31:04.000Z</time>
      </trkpt>
      <trkpt lat="47.50535" lon="6.72029">
        <ele>397.9</ele>
        <time>2017-01-15T11:31:05.000Z</time>
      </trkpt>
      <trkpt lat="47.50534" lon="6.72032">
        <ele>397.8</ele>
        <time>2017-01-15T11:31:06.000Z</time>
      </trkpt>
      <trkpt lat="47.50533" lon="6.72035">
        <ele>397.8</ele>
        <time>2017-01-15T11:31:07.000Z</time>
      </trkpt>
      <trkpt lat="47.50532" lon="6.72038">
        <ele>397.7</ele>
        <time>2017-01-15T11:31:08.000Z</time>
      </trkpt>
      <trkpt lat="47.5053" lon="6.72042">
        <ele>397.6</ele>
        <time>2017-01-15T11:31:09.000Z</time>
      </trkpt>
      <trkpt lat="47.50529" lon="6.72046">
        <ele>397.4</ele>
        <time>2017-01-15T11:31:10.000Z</time>
      </trkpt>
      <trkpt lat="47.50527" lon="6.72049">
        <ele>397.3</ele>
        <time>2017-01-15T11:31:11.000Z</time>
      </trkpt>
      <trkpt lat="47.50526" lon="6.72052">
        <ele>397.2</ele>
        <time>2017-01-15T11:31:12.000Z</time>
      </trkpt>
      <trkpt lat="47.50525" lon="6.72055">
        <ele>397.2</ele>
        <time>2017-01-15T11:31:13.000Z</time>
      </trkpt>
      <trkpt lat="47.50524" lon="6.72058">
        <ele>397.2</ele>
        <time>2017-01-15T11:31:14.000Z</time>
      </trkpt>
      <trkpt lat="47.50523" lon="6.72062">
        <ele>397.2</ele>
        <time>2017-01-15T11:31:15.000Z</time>
      </trkpt>
      <trkpt lat="47.50521" lon="6.72067">
        <ele>397.2</ele>
        <time>2017-01-15T11:31:16.000Z</time>
      </trkpt>
      <trkpt lat="47.5052" lon="6.7207">
        <ele>397.2</ele>
        <time>2017-01-15T11:31:17.000Z</time>
      </trkpt>
      <trkpt lat="47.50518" lon="6.72076">
        <ele>397</ele>
        <time>2017-01-15T11:31:19.000Z</time>
      </trkpt>
      <trkpt lat="47.50517" lon="6.72079">
        <ele>397</ele>
        <time>2017-01-15T11:31:20.000Z</time>
      </trkpt>
      <trkpt lat="47.50516" lon="6.72082">
        <ele>397</ele>
        <time>2017-01-15T11:31:21.000Z</time>
      </trkpt>
      <trkpt lat="47.50515" lon="6.72085">
        <ele>396.9</ele>
        <time>2017-01-15T11:31:22.000Z</time>
      </trkpt>
      <trkpt lat="47.50514" lon="6.72088">
        <ele>396.9</ele>
        <time>2017-01-15T11:31:23.000Z</time>
      </trkpt>
      <trkpt lat="47.50513" lon="6.72091">
        <ele>396.9</ele>
        <time>2017-01-15T11:31:24.000Z</time>
      </trkpt>
      <trkpt lat="47.50512" lon="6.72095">
        <ele>396.9</ele>
        <time>2017-01-15T11:31:25.000Z</time>
      </trkpt>
      <trkpt lat="47.50511" lon="6.72098">
        <ele>396.9</ele>
        <time>2017-01-15T11:31:26.000Z</time>
      </trkpt>
      <trkpt lat="47.5051" lon="6.72102">
        <ele>396.8</ele>
        <time>2017-01-15T11:31:27.000Z</time>
      </trkpt>
      <trkpt lat="47.50509" lon="6.72104">
        <ele>396.7</ele>
        <time>2017-01-15T11:31:28.000Z</time>
      </trkpt>
      <trkpt lat="47.50508" lon="6.7211">
        <ele>396.5</ele>
        <time>2017-01-15T11:31:30.000Z</time>
      </trkpt>
      <trkpt lat="47.50507" lon="6.72114">
        <ele>396.4</ele>
        <time>2017-01-15T11:31:31.000Z</time>
      </trkpt>
      <trkpt lat="47.50507" lon="6.72117">
        <ele>396.4</ele>
        <time>2017-01-15T11:31:32.000Z</time>
      </trkpt>
      <trkpt lat="47.50506" lon="6.72121">
        <ele>396.3</ele>
        <time>2017-01-15T11:31:33.000Z</time>
      </trkpt>
      <trkpt lat="47.50505" lon="6.72126">
        <ele>396.2</ele>
        <time>2017-01-15T11:31:34.000Z</time>
      </trkpt>
      <trkpt lat="47.50505" lon="6.72129">
        <ele>396.1</ele>
        <time>2017-01-15T11:31:35.000Z</time>
      </trkpt>
      <trkpt lat="47.50504" lon="6.72133">
        <ele>396</ele>
        <time>2017-01-15T11:31:36.000Z</time>
      </trkpt>
      <trkpt lat="47.50503" lon="6.72136">
        <ele>395.9</ele>
        <time>2017-01-15T11:31:37.000Z</time>
      </trkpt>
      <trkpt lat="47.50503" lon="6.7214">
        <ele>395.8</ele>
        <time>2017-01-15T11:31:38.000Z</time>
      </trkpt>
      <trkpt lat="47.50503" lon="6.72145">
        <ele>395.7</ele>
        <time>2017-01-15T11:31:39.000Z</time>
      </trkpt>
      <trkpt lat="47.50502" lon="6.72148">
        <ele>395.6</ele>
        <time>2017-01-15T11:31:40.000Z</time>
      </trkpt>
      <trkpt lat="47.50502" lon="6.72152">
        <ele>395.5</ele>
        <time>2017-01-15T11:31:41.000Z</time>
      </trkpt>
      <trkpt lat="47.50502" lon="6.72156">
        <ele>395.4</ele>
        <time>2017-01-15T11:31:42.000Z</time>
      </trkpt>
      <trkpt lat="47.50502" lon="6.72159">
        <ele>395.3</ele>
        <time>2017-01-15T11:31:43.000Z</time>
      </trkpt>
      <trkpt lat="47.50502" lon="6.72162">
        <ele>395.2</ele>
        <time>2017-01-15T11:31:44.000Z</time>
      </trkpt>
      <trkpt lat="47.50501" lon="6.72165">
        <ele>395.1</ele>
        <time>2017-01-15T11:31:45.000Z</time>
      </trkpt>
      <trkpt lat="47.50501" lon="6.72169">
        <ele>395.1</ele>
        <time>2017-01-15T11:31:46.000Z</time>
      </trkpt>
      <trkpt lat="47.50501" lon="6.72173">
        <ele>395.1</ele>
        <time>2017-01-15T11:31:47.000Z</time>
      </trkpt>
      <trkpt lat="47.505" lon="6.72177">
        <ele>395.1</ele>
        <time>2017-01-15T11:31:48.000Z</time>
      </trkpt>
      <trkpt lat="47.505" lon="6.7218">
        <ele>395</ele>
        <time>2017-01-15T11:31:49.000Z</time>
      </trkpt>
      <trkpt lat="47.50499" lon="6.72183">
        <ele>395</ele>
        <time>2017-01-15T11:31:50.000Z</time>
      </trkpt>
      <trkpt lat="47.50499" lon="6.72187">
        <ele>394.9</ele>
        <time>2017-01-15T11:31:51.000Z</time>
      </trkpt>
      <trkpt lat="47.50498" lon="6.72192">
        <ele>394.7</ele>
        <time>2017-01-15T11:31:53.000Z</time>
      </trkpt>
      <trkpt lat="47.50497" lon="6.72196">
        <ele>394.6</ele>
        <time>2017-01-15T11:31:54.000Z</time>
      </trkpt>
      <trkpt lat="47.50496" lon="6.72199">
        <ele>394.5</ele>
        <time>2017-01-15T11:31:55.000Z</time>
      </trkpt>
      <trkpt lat="47.50496" lon="6.72203">
        <ele>394.4</ele>
        <time>2017-01-15T11:31:56.000Z</time>
      </trkpt>
      <trkpt lat="47.50495" lon="6.72206">
        <ele>394.3</ele>
        <time>2017-01-15T11:31:57.000Z</time>
      </trkpt>
      <trkpt lat="47.50494" lon="6.7221">
        <ele>394.3</ele>
        <time>2017-01-15T11:31:58.000Z</time>
      </trkpt>
      <trkpt lat="47.50493" lon="6.72214">
        <ele>394.2</ele>
        <time>2017-01-15T11:31:59.000Z</time>
      </trkpt>
      <trkpt lat="47.50492" lon="6.72218">
        <ele>394.1</ele>
        <time>2017-01-15T11:32:00.000Z</time>
      </trkpt>
      <trkpt lat="47.50491" lon="6.72221">
        <ele>394.1</ele>
        <time>2017-01-15T11:32:01.000Z</time>
      </trkpt>
      <trkpt lat="47.50489" lon="6.72224">
        <ele>394</ele>
        <time>2017-01-15T11:32:02.000Z</time>
      </trkpt>
      <trkpt lat="47.50487" lon="6.72228">
        <ele>394</ele>
        <time>2017-01-15T11:32:03.000Z</time>
      </trkpt>
      <trkpt lat="47.50486" lon="6.72231">
        <ele>394</ele>
        <time>2017-01-15T11:32:04.000Z</time>
      </trkpt>
      <trkpt lat="47.50483" lon="6.72234">
        <ele>393.9</ele>
        <time>2017-01-15T11:32:06.000Z</time>
      </trkpt>
      <trkpt lat="47.50481" lon="6.72236">
        <ele>393.9</ele>
        <time>2017-01-15T11:32:07.000Z</time>
      </trkpt>
      <trkpt lat="47.50477" lon="6.7224">
        <ele>393.9</ele>
        <time>2017-01-15T11:32:09.000Z</time>
      </trkpt>
      <trkpt lat="47.50476" lon="6.72241">
        <ele>393.9</ele>
        <time>2017-01-15T11:32:10.000Z</time>
      </trkpt>
      <trkpt lat="47.50473" lon="6.72243">
        <ele>393.9</ele>
        <time>2017-01-15T11:32:11.000Z</time>
      </trkpt>
      <trkpt lat="47.50471" lon="6.72245">
        <ele>393.8</ele>
        <time>2017-01-15T11:32:12.000Z</time>
      </trkpt>
      <trkpt lat="47.50468" lon="6.72247">
        <ele>393.8</ele>
        <time>2017-01-15T11:32:13.000Z</time>
      </trkpt>
      <trkpt lat="47.50465" lon="6.7225">
        <ele>393.7</ele>
        <time>2017-01-15T11:32:14.000Z</time>
      </trkpt>
      <trkpt lat="47.50462" lon="6.72252">
        <ele>393.6</ele>
        <time>2017-01-15T11:32:15.000Z</time>
      </trkpt>
      <trkpt lat="47.5046" lon="6.72254">
        <ele>393.5</ele>
        <time>2017-01-15T11:32:16.000Z</time>
      </trkpt>
      <trkpt lat="47.50458" lon="6.72256">
        <ele>393.5</ele>
        <time>2017-01-15T11:32:17.000Z</time>
      </trkpt>
      <trkpt lat="47.50455" lon="6.72258">
        <ele>393.4</ele>
        <time>2017-01-15T11:32:18.000Z</time>
      </trkpt>
      <trkpt lat="47.50453" lon="6.72259">
        <ele>393.3</ele>
        <time>2017-01-15T11:32:19.000Z</time>
      </trkpt>
      <trkpt lat="47.50449" lon="6.72261">
        <ele>393.2</ele>
        <time>2017-01-15T11:32:20.000Z</time>
      </trkpt>
      <trkpt lat="47.50447" lon="6.72263">
        <ele>393.2</ele>
        <time>2017-01-15T11:32:21.000Z</time>
      </trkpt>
      <trkpt lat="47.50444" lon="6.72265">
        <ele>393.1</ele>
        <time>2017-01-15T11:32:22.000Z</time>
      </trkpt>
      <trkpt lat="47.50442" lon="6.72267">
        <ele>393</ele>
        <time>2017-01-15T11:32:23.000Z</time>
      </trkpt>
      <trkpt lat="47.50439" lon="6.72269">
        <ele>393</ele>
        <time>2017-01-15T11:32:24.000Z</time>
      </trkpt>
      <trkpt lat="47.50436" lon="6.72271">
        <ele>392.9</ele>
        <time>2017-01-15T11:32:25.000Z</time>
      </trkpt>
      <trkpt lat="47.50433" lon="6.72273">
        <ele>392.9</ele>
        <time>2017-01-15T11:32:26.000Z</time>
      </trkpt>
      <trkpt lat="47.50429" lon="6.72276">
        <ele>392.8</ele>
        <time>2017-01-15T11:32:27.000Z</time>
      </trkpt>
      <trkpt lat="47.50426" lon="6.72278">
        <ele>392.7</ele>
        <time>2017-01-15T11:32:28.000Z</time>
      </trkpt>
      <trkpt lat="47.50423" lon="6.72281">
        <ele>392.6</ele>
        <time>2017-01-15T11:32:29.000Z</time>
      </trkpt>
      <trkpt lat="47.5042" lon="6.72283">
        <ele>392.6</ele>
        <time>2017-01-15T11:32:30.000Z</time>
      </trkpt>
      <trkpt lat="47.50417" lon="6.72285">
        <ele>392.5</ele>
        <time>2017-01-15T11:32:31.000Z</time>
      </trkpt>
      <trkpt lat="47.50415" lon="6.72288">
        <ele>392.4</ele>
        <time>2017-01-15T11:32:32.000Z</time>
      </trkpt>
      <trkpt lat="47.50412" lon="6.72289">
        <ele>392.3</ele>
        <time>2017-01-15T11:32:33.000Z</time>
      </trkpt>
      <trkpt lat="47.50409" lon="6.72291">
        <ele>392.2</ele>
        <time>2017-01-15T11:32:34.000Z</time>
      </trkpt>
      <trkpt lat="47.50406" lon="6.72293">
        <ele>392.1</ele>
        <time>2017-01-15T11:32:35.000Z</time>
      </trkpt>
      <trkpt lat="47.50403" lon="6.72295">
        <ele>392</ele>
        <time>2017-01-15T11:32:36.000Z</time>
      </trkpt>
      <trkpt lat="47.504" lon="6.72297">
        <ele>391.9</ele>
        <time>2017-01-15T11:32:37.000Z</time>
      </trkpt>
      <trkpt lat="47.50398" lon="6.72299">
        <ele>391.9</ele>
        <time>2017-01-15T11:32:38.000Z</time>
      </trkpt>
      <trkpt lat="47.50395" lon="6.723">
        <ele>391.8</ele>
        <time>2017-01-15T11:32:39.000Z</time>
      </trkpt>
      <trkpt lat="47.50392" lon="6.72302">
        <ele>391.8</ele>
        <time>2017-01-15T11:32:40.000Z</time>
      </trkpt>
      <trkpt lat="47.50389" lon="6.72303">
        <ele>391.8</ele>
        <time>2017-01-15T11:32:41.000Z</time>
      </trkpt>
      <trkpt lat="47.50387" lon="6.72304">
        <ele>391.7</ele>
        <time>2017-01-15T11:32:42.000Z</time>
      </trkpt>
      <trkpt lat="47.50384" lon="6.72306">
        <ele>391.7</ele>
        <time>2017-01-15T11:32:43.000Z</time>
      </trkpt>
      <trkpt lat="47.50381" lon="6.72308">
        <ele>391.7</ele>
        <time>2017-01-15T11:32:44.000Z</time>
      </trkpt>
      <trkpt lat="47.50378" lon="6.72309">
        <ele>391.6</ele>
        <time>2017-01-15T11:32:45.000Z</time>
      </trkpt>
      <trkpt lat="47.50375" lon="6.72311">
        <ele>391.6</ele>
        <time>2017-01-15T11:32:46.000Z</time>
      </trkpt>
      <trkpt lat="47.50372" lon="6.72313">
        <ele>391.5</ele>
        <time>2017-01-15T11:32:47.000Z</time>
      </trkpt>
      <trkpt lat="47.50369" lon="6.72314">
        <ele>391.5</ele>
        <time>2017-01-15T11:32:48.000Z</time>
      </trkpt>
      <trkpt lat="47.50367" lon="6.72316">
        <ele>391.4</ele>
        <time>2017-01-15T11:32:49.000Z</time>
      </trkpt>
      <trkpt lat="47.50364" lon="6.72317">
        <ele>391.4</ele>
        <time>2017-01-15T11:32:50.000Z</time>
      </trkpt>
      <trkpt lat="47.50361" lon="6.72319">
        <ele>391.3</ele>
        <time>2017-01-15T11:32:51.000Z</time>
      </trkpt>
      <trkpt lat="47.50358" lon="6.7232">
        <ele>391.3</ele>
        <time>2017-01-15T11:32:52.000Z</time>
      </trkpt>
      <trkpt lat="47.50354" lon="6.72322">
        <ele>391.3</ele>
        <time>2017-01-15T11:32:53.000Z</time>
      </trkpt>
      <trkpt lat="47.50351" lon="6.72323">
        <ele>391.3</ele>
        <time>2017-01-15T11:32:54.000Z</time>
      </trkpt>
      <trkpt lat="47.50349" lon="6.72324">
        <ele>391.3</ele>
        <time>2017-01-15T11:32:55.000Z</time>
      </trkpt>
      <trkpt lat="47.50347" lon="6.72326">
        <ele>391.3</ele>
        <time>2017-01-15T11:32:56.000Z</time>
      </trkpt>
      <trkpt lat="47.50344" lon="6.72327">
        <ele>391.3</ele>
        <time>2017-01-15T11:32:57.000Z</time>
      </trkpt>
      <trkpt lat="47.50341" lon="6.72328">
        <ele>391.2</ele>
        <time>2017-01-15T11:32:58.000Z</time>
      </trkpt>
      <trkpt lat="47.50339" lon="6.7233">
        <ele>391.1</ele>
        <time>2017-01-15T11:32:59.000Z</time>
      </trkpt>
      <trkpt lat="47.50336" lon="6.72331">
        <ele>391.1</ele>
        <time>2017-01-15T11:33:00.000Z</time>
      </trkpt>
      <trkpt lat="47.50333" lon="6.72332">
        <ele>391</ele>
        <time>2017-01-15T11:33:01.000Z</time>
      </trkpt>
      <trkpt lat="47.5033" lon="6.72334">
        <ele>391</ele>
        <time>2017-01-15T11:33:02.000Z</time>
      </trkpt>
      <trkpt lat="47.50328" lon="6.72335">
        <ele>390.9</ele>
        <time>2017-01-15T11:33:03.000Z</time>
      </trkpt>
      <trkpt lat="47.50325" lon="6.72336">
        <ele>390.8</ele>
        <time>2017-01-15T11:33:04.000Z</time>
      </trkpt>
      <trkpt lat="47.50322" lon="6.72337">
        <ele>390.7</ele>
        <time>2017-01-15T11:33:05.000Z</time>
      </trkpt>
      <trkpt lat="47.50319" lon="6.72338">
        <ele>390.7</ele>
        <time>2017-01-15T11:33:06.000Z</time>
      </trkpt>
      <trkpt lat="47.50316" lon="6.72339">
        <ele>390.7</ele>
        <time>2017-01-15T11:33:07.000Z</time>
      </trkpt>
      <trkpt lat="47.50314" lon="6.72341">
        <ele>390.8</ele>
        <time>2017-01-15T11:33:08.000Z</time>
      </trkpt>
      <trkpt lat="47.50311" lon="6.72344">
        <ele>390.9</ele>
        <time>2017-01-15T11:33:10.000Z</time>
      </trkpt>
      <trkpt lat="47.50309" lon="6.72345">
        <ele>390.9</ele>
        <time>2017-01-15T11:33:11.000Z</time>
      </trkpt>
      <trkpt lat="47.50305" lon="6.72346">
        <ele>391</ele>
        <time>2017-01-15T11:33:14.000Z</time>
      </trkpt>
      <trkpt lat="47.50303" lon="6.72346">
        <ele>391</ele>
        <time>2017-01-15T11:33:15.000Z</time>
      </trkpt>
      <trkpt lat="47.50301" lon="6.72347">
        <ele>391</ele>
        <time>2017-01-15T11:33:16.000Z</time>
      </trkpt>
      <trkpt lat="47.50298" lon="6.72348">
        <ele>391</ele>
        <time>2017-01-15T11:33:17.000Z</time>
      </trkpt>
      <trkpt lat="47.50295" lon="6.7235">
        <ele>391</ele>
        <time>2017-01-15T11:33:18.000Z</time>
      </trkpt>
      <trkpt lat="47.50293" lon="6.72351">
        <ele>390.9</ele>
        <time>2017-01-15T11:33:19.000Z</time>
      </trkpt>
      <trkpt lat="47.5029" lon="6.72352">
        <ele>390.8</ele>
        <time>2017-01-15T11:33:20.000Z</time>
      </trkpt>
      <trkpt lat="47.50287" lon="6.72354">
        <ele>390.7</ele>
        <time>2017-01-15T11:33:21.000Z</time>
      </trkpt>
      <trkpt lat="47.50284" lon="6.72355">
        <ele>390.7</ele>
        <time>2017-01-15T11:33:22.000Z</time>
      </trkpt>
      <trkpt lat="47.50281" lon="6.72356">
        <ele>390.7</ele>
        <time>2017-01-15T11:33:23.000Z</time>
      </trkpt>
      <trkpt lat="47.50278" lon="6.72357">
        <ele>390.7</ele>
        <time>2017-01-15T11:33:24.000Z</time>
      </trkpt>
      <trkpt lat="47.50275" lon="6.72358">
        <ele>390.8</ele>
        <time>2017-01-15T11:33:25.000Z</time>
      </trkpt>
      <trkpt lat="47.50272" lon="6.72359">
        <ele>390.8</ele>
        <time>2017-01-15T11:33:26.000Z</time>
      </trkpt>
      <trkpt lat="47.50269" lon="6.72361">
        <ele>390.8</ele>
        <time>2017-01-15T11:33:27.000Z</time>
      </trkpt>
      <trkpt lat="47.50266" lon="6.72363">
        <ele>390.7</ele>
        <time>2017-01-15T11:33:28.000Z</time>
      </trkpt>
      <trkpt lat="47.50263" lon="6.72365">
        <ele>390.7</ele>
        <time>2017-01-15T11:33:29.000Z</time>
      </trkpt>
      <trkpt lat="47.5026" lon="6.72366">
        <ele>390.6</ele>
        <time>2017-01-15T11:33:30.000Z</time>
      </trkpt>
      <trkpt lat="47.50257" lon="6.72368">
        <ele>390.6</ele>
        <time>2017-01-15T11:33:31.000Z</time>
      </trkpt>
      <trkpt lat="47.50254" lon="6.72369">
        <ele>390.5</ele>
        <time>2017-01-15T11:33:32.000Z</time>
      </trkpt>
      <trkpt lat="47.50251" lon="6.72371">
        <ele>390.5</ele>
        <time>2017-01-15T11:33:33.000Z</time>
      </trkpt>
      <trkpt lat="47.50248" lon="6.72372">
        <ele>390.4</ele>
        <time>2017-01-15T11:33:34.000Z</time>
      </trkpt>
      <trkpt lat="47.50244" lon="6.72374">
        <ele>390.4</ele>
        <time>2017-01-15T11:33:35.000Z</time>
      </trkpt>
      <trkpt lat="47.50241" lon="6.72376">
        <ele>390.3</ele>
        <time>2017-01-15T11:33:36.000Z</time>
      </trkpt>
      <trkpt lat="47.50238" lon="6.72377">
        <ele>390.3</ele>
        <time>2017-01-15T11:33:37.000Z</time>
      </trkpt>
      <trkpt lat="47.50235" lon="6.72379">
        <ele>390.3</ele>
        <time>2017-01-15T11:33:38.000Z</time>
      </trkpt>
      <trkpt lat="47.50231" lon="6.72381">
        <ele>390.3</ele>
        <time>2017-01-15T11:33:39.000Z</time>
      </trkpt>
      <trkpt lat="47.50228" lon="6.72382">
        <ele>390.3</ele>
        <time>2017-01-15T11:33:40.000Z</time>
      </trkpt>
      <trkpt lat="47.50225" lon="6.72384">
        <ele>390.3</ele>
        <time>2017-01-15T11:33:41.000Z</time>
      </trkpt>
      <trkpt lat="47.50222" lon="6.72385">
        <ele>390.3</ele>
        <time>2017-01-15T11:33:42.000Z</time>
      </trkpt>
      <trkpt lat="47.50219" lon="6.72387">
        <ele>390.3</ele>
        <time>2017-01-15T11:33:43.000Z</time>
      </trkpt>
      <trkpt lat="47.50217" lon="6.72389">
        <ele>390.4</ele>
        <time>2017-01-15T11:33:44.000Z</time>
      </trkpt>
      <trkpt lat="47.50214" lon="6.7239">
        <ele>390.4</ele>
        <time>2017-01-15T11:33:45.000Z</time>
      </trkpt>
      <trkpt lat="47.50211" lon="6.72392">
        <ele>390.4</ele>
        <time>2017-01-15T11:33:46.000Z</time>
      </trkpt>
      <trkpt lat="47.50208" lon="6.72394">
        <ele>390.4</ele>
        <time>2017-01-15T11:33:47.000Z</time>
      </trkpt>
      <trkpt lat="47.50204" lon="6.72395">
        <ele>390.4</ele>
        <time>2017-01-15T11:33:48.000Z</time>
      </trkpt>
      <trkpt lat="47.50202" lon="6.72396">
        <ele>390.4</ele>
        <time>2017-01-15T11:33:49.000Z</time>
      </trkpt>
      <trkpt lat="47.50199" lon="6.72398">
        <ele>390.5</ele>
        <time>2017-01-15T11:33:50.000Z</time>
      </trkpt>
      <trkpt lat="47.50196" lon="6.72399">
        <ele>390.5</ele>
        <time>2017-01-15T11:33:51.000Z</time>
      </trkpt>
      <trkpt lat="47.50193" lon="6.72401">
        <ele>390.6</ele>
        <time>2017-01-15T11:33:52.000Z</time>
      </trkpt>
      <trkpt lat="47.5019" lon="6.72402">
        <ele>390.7</ele>
        <time>2017-01-15T11:33:53.000Z</time>
      </trkpt>
      <trkpt lat="47.50188" lon="6.72404">
        <ele>390.7</ele>
        <time>2017-01-15T11:33:54.000Z</time>
      </trkpt>
      <trkpt lat="47.50185" lon="6.72406">
        <ele>390.7</ele>
        <time>2017-01-15T11:33:55.000Z</time>
      </trkpt>
      <trkpt lat="47.50182" lon="6.72407">
        <ele>390.8</ele>
        <time>2017-01-15T11:33:56.000Z</time>
      </trkpt>
      <trkpt lat="47.5018" lon="6.72408">
        <ele>390.7</ele>
        <time>2017-01-15T11:33:57.000Z</time>
      </trkpt>
      <trkpt lat="47.50178" lon="6.72409">
        <ele>390.7</ele>
        <time>2017-01-15T11:33:58.000Z</time>
      </trkpt>
      <trkpt lat="47.50175" lon="6.72411">
        <ele>390.7</ele>
        <time>2017-01-15T11:33:59.000Z</time>
      </trkpt>
      <trkpt lat="47.50173" lon="6.72412">
        <ele>390.7</ele>
        <time>2017-01-15T11:34:00.000Z</time>
      </trkpt>
      <trkpt lat="47.50171" lon="6.72414">
        <ele>390.8</ele>
        <time>2017-01-15T11:34:01.000Z</time>
      </trkpt>
      <trkpt lat="47.50168" lon="6.72416">
        <ele>390.8</ele>
        <time>2017-01-15T11:34:02.000Z</time>
      </trkpt>
      <trkpt lat="47.50166" lon="6.72417">
        <ele>390.9</ele>
        <time>2017-01-15T11:34:03.000Z</time>
      </trkpt>
      <trkpt lat="47.50163" lon="6.72419">
        <ele>390.9</ele>
        <time>2017-01-15T11:34:04.000Z</time>
      </trkpt>
      <trkpt lat="47.50161" lon="6.72421">
        <ele>390.9</ele>
        <time>2017-01-15T11:34:05.000Z</time>
      </trkpt>
      <trkpt lat="47.50157" lon="6.72423">
        <ele>390.9</ele>
        <time>2017-01-15T11:34:06.000Z</time>
      </trkpt>
      <trkpt lat="47.50155" lon="6.72424">
        <ele>390.9</ele>
        <time>2017-01-15T11:34:07.000Z</time>
      </trkpt>
      <trkpt lat="47.50153" lon="6.72426">
        <ele>390.9</ele>
        <time>2017-01-15T11:34:08.000Z</time>
      </trkpt>
      <trkpt lat="47.50152" lon="6.72428">
        <ele>390.9</ele>
        <time>2017-01-15T11:34:09.000Z</time>
      </trkpt>
      <trkpt lat="47.50151" lon="6.72431">
        <ele>390.9</ele>
        <time>2017-01-15T11:34:10.000Z</time>
      </trkpt>
      <trkpt lat="47.50149" lon="6.72434">
        <ele>390.9</ele>
        <time>2017-01-15T11:34:11.000Z</time>
      </trkpt>
      <trkpt lat="47.50147" lon="6.72437">
        <ele>391</ele>
        <time>2017-01-15T11:34:12.000Z</time>
      </trkpt>
      <trkpt lat="47.50145" lon="6.72439">
        <ele>391.1</ele>
        <time>2017-01-15T11:34:13.000Z</time>
      </trkpt>
      <trkpt lat="47.50144" lon="6.72442">
        <ele>391.2</ele>
        <time>2017-01-15T11:34:14.000Z</time>
      </trkpt>
      <trkpt lat="47.50142" lon="6.72444">
        <ele>391.3</ele>
        <time>2017-01-15T11:34:15.000Z</time>
      </trkpt>
      <trkpt lat="47.5014" lon="6.72448">
        <ele>391.4</ele>
        <time>2017-01-15T11:34:16.000Z</time>
      </trkpt>
      <trkpt lat="47.50139" lon="6.72451">
        <ele>391.4</ele>
        <time>2017-01-15T11:34:17.000Z</time>
      </trkpt>
      <trkpt lat="47.50137" lon="6.72454">
        <ele>391.4</ele>
        <time>2017-01-15T11:34:18.000Z</time>
      </trkpt>
      <trkpt lat="47.50136" lon="6.72457">
        <ele>391.4</ele>
        <time>2017-01-15T11:34:19.000Z</time>
      </trkpt>
      <trkpt lat="47.50133" lon="6.72461">
        <ele>391.4</ele>
        <time>2017-01-15T11:34:21.000Z</time>
      </trkpt>
      <trkpt lat="47.50132" lon="6.72464">
        <ele>391.5</ele>
        <time>2017-01-15T11:34:22.000Z</time>
      </trkpt>
      <trkpt lat="47.50131" lon="6.72467">
        <ele>391.5</ele>
        <time>2017-01-15T11:34:23.000Z</time>
      </trkpt>
      <trkpt lat="47.50129" lon="6.72471">
        <ele>391.5</ele>
        <time>2017-01-15T11:34:24.000Z</time>
      </trkpt>
      <trkpt lat="47.50128" lon="6.72475">
        <ele>391.6</ele>
        <time>2017-01-15T11:34:25.000Z</time>
      </trkpt>
      <trkpt lat="47.50127" lon="6.72478">
        <ele>391.7</ele>
        <time>2017-01-15T11:34:26.000Z</time>
      </trkpt>
      <trkpt lat="47.50125" lon="6.72482">
        <ele>391.9</ele>
        <time>2017-01-15T11:34:26.999Z</time>
      </trkpt>
      <trkpt lat="47.50124" lon="6.72486">
        <ele>392</ele>
        <time>2017-01-15T11:34:27.999Z</time>
      </trkpt>
      <trkpt lat="47.50123" lon="6.7249">
        <ele>392.2</ele>
        <time>2017-01-15T11:34:28.999Z</time>
      </trkpt>
      <trkpt lat="47.50121" lon="6.72494">
        <ele>392.4</ele>
        <time>2017-01-15T11:34:29.999Z</time>
      </trkpt>
      <trkpt lat="47.50119" lon="6.72497">
        <ele>392.5</ele>
        <time>2017-01-15T11:34:30.999Z</time>
      </trkpt>
      <trkpt lat="47.50118" lon="6.72501">
        <ele>392.7</ele>
        <time>2017-01-15T11:34:31.999Z</time>
      </trkpt>
      <trkpt lat="47.50116" lon="6.72504">
        <ele>392.8</ele>
        <time>2017-01-15T11:34:32.999Z</time>
      </trkpt>
      <trkpt lat="47.50114" lon="6.72508">
        <ele>393</ele>
        <time>2017-01-15T11:34:33.999Z</time>
      </trkpt>
      <trkpt lat="47.50113" lon="6.72511">
        <ele>393.1</ele>
        <time>2017-01-15T11:34:34.999Z</time>
      </trkpt>
      <trkpt lat="47.50111" lon="6.72515">
        <ele>393.3</ele>
        <time>2017-01-15T11:34:35.999Z</time>
      </trkpt>
      <trkpt lat="47.5011" lon="6.7252">
        <ele>393.5</ele>
        <time>2017-01-15T11:34:36.999Z</time>
      </trkpt>
      <trkpt lat="47.50108" lon="6.72524">
        <ele>393.6</ele>
        <time>2017-01-15T11:34:37.999Z</time>
      </trkpt>
      <trkpt lat="47.50107" lon="6.72528">
        <ele>393.7</ele>
        <time>2017-01-15T11:34:38.999Z</time>
      </trkpt>
      <trkpt lat="47.50105" lon="6.72533">
        <ele>393.8</ele>
        <time>2017-01-15T11:34:39.999Z</time>
      </trkpt>
      <trkpt lat="47.50103" lon="6.72537">
        <ele>393.8</ele>
        <time>2017-01-15T11:34:40.999Z</time>
      </trkpt>
      <trkpt lat="47.50101" lon="6.7254">
        <ele>393.8</ele>
        <time>2017-01-15T11:34:41.999Z</time>
      </trkpt>
      <trkpt lat="47.50099" lon="6.72542">
        <ele>393.9</ele>
        <time>2017-01-15T11:34:42.999Z</time>
      </trkpt>
      <trkpt lat="47.50097" lon="6.72545">
        <ele>393.9</ele>
        <time>2017-01-15T11:34:43.999Z</time>
      </trkpt>
      <trkpt lat="47.50095" lon="6.72549">
        <ele>393.9</ele>
        <time>2017-01-15T11:34:44.999Z</time>
      </trkpt>
      <trkpt lat="47.50094" lon="6.72553">
        <ele>393.9</ele>
        <time>2017-01-15T11:34:45.999Z</time>
      </trkpt>
      <trkpt lat="47.50092" lon="6.72556">
        <ele>393.9</ele>
        <time>2017-01-15T11:34:46.999Z</time>
      </trkpt>
      <trkpt lat="47.5009" lon="6.7256">
        <ele>393.8</ele>
        <time>2017-01-15T11:34:47.999Z</time>
      </trkpt>
      <trkpt lat="47.50088" lon="6.72564">
        <ele>393.8</ele>
        <time>2017-01-15T11:34:48.999Z</time>
      </trkpt>
      <trkpt lat="47.50086" lon="6.72568">
        <ele>393.8</ele>
        <time>2017-01-15T11:34:49.999Z</time>
      </trkpt>
      <trkpt lat="47.50083" lon="6.72571">
        <ele>393.8</ele>
        <time>2017-01-15T11:34:50.999Z</time>
      </trkpt>
      <trkpt lat="47.50081" lon="6.72575">
        <ele>393.9</ele>
        <time>2017-01-15T11:34:51.999Z</time>
      </trkpt>
      <trkpt lat="47.50079" lon="6.72579">
        <ele>393.9</ele>
        <time>2017-01-15T11:34:52.999Z</time>
      </trkpt>
      <trkpt lat="47.50077" lon="6.72582">
        <ele>394</ele>
        <time>2017-01-15T11:34:53.999Z</time>
      </trkpt>
      <trkpt lat="47.50075" lon="6.72586">
        <ele>394.1</ele>
        <time>2017-01-15T11:34:54.999Z</time>
      </trkpt>
      <trkpt lat="47.50072" lon="6.7259">
        <ele>394.6</ele>
        <time>2017-01-15T11:34:55.999Z</time>
      </trkpt>
      <trkpt lat="47.5007" lon="6.72594">
        <ele>394.9</ele>
        <time>2017-01-15T11:34:56.999Z</time>
      </trkpt>
      <trkpt lat="47.50067" lon="6.72598">
        <ele>394.7</ele>
        <time>2017-01-15T11:34:57.999Z</time>
      </trkpt>
      <trkpt lat="47.50065" lon="6.72602">
        <ele>394.5</ele>
        <time>2017-01-15T11:34:58.999Z</time>
      </trkpt>
      <trkpt lat="47.50062" lon="6.72607">
        <ele>394</ele>
        <time>2017-01-15T11:34:59.999Z</time>
      </trkpt>
      <trkpt lat="47.50059" lon="6.7261">
        <ele>393.4</ele>
        <time>2017-01-15T11:35:00.999Z</time>
      </trkpt>
      <trkpt lat="47.50057" lon="6.72614">
        <ele>393</ele>
        <time>2017-01-15T11:35:01.999Z</time>
      </trkpt>
      <trkpt lat="47.50053" lon="6.72617">
        <ele>392.6</ele>
        <time>2017-01-15T11:35:02.999Z</time>
      </trkpt>
      <trkpt lat="47.5005" lon="6.72621">
        <ele>392</ele>
        <time>2017-01-15T11:35:03.999Z</time>
      </trkpt>
      <trkpt lat="47.50047" lon="6.72624">
        <ele>392.1</ele>
        <time>2017-01-15T11:35:04.999Z</time>
      </trkpt>
      <trkpt lat="47.50043" lon="6.72627">
        <ele>391.1</ele>
        <time>2017-01-15T11:35:05.999Z</time>
      </trkpt>
      <trkpt lat="47.5004" lon="6.7263">
        <ele>390</ele>
        <time>2017-01-15T11:35:06.999Z</time>
      </trkpt>
      <trkpt lat="47.50037" lon="6.72633">
        <ele>389.8</ele>
        <time>2017-01-15T11:35:07.999Z</time>
      </trkpt>
      <trkpt lat="47.50034" lon="6.72637">
        <ele>390.1</ele>
        <time>2017-01-15T11:35:08.999Z</time>
      </trkpt>
      <trkpt lat="47.50031" lon="6.7264">
        <ele>389.8</ele>
        <time>2017-01-15T11:35:09.999Z</time>
      </trkpt>
      <trkpt lat="47.50027" lon="6.72644">
        <ele>389.1</ele>
        <time>2017-01-15T11:35:10.999Z</time>
      </trkpt>
      <trkpt lat="47.50023" lon="6.72648">
        <ele>388.4</ele>
        <time>2017-01-15T11:35:11.999Z</time>
      </trkpt>
      <trkpt lat="47.5002" lon="6.72652">
        <ele>388.5</ele>
        <time>2017-01-15T11:35:12.999Z</time>
      </trkpt>
      <trkpt lat="47.50017" lon="6.72655">
        <ele>388.4</ele>
        <time>2017-01-15T11:35:13.999Z</time>
      </trkpt>
      <trkpt lat="47.50013" lon="6.7266">
        <ele>387.7</ele>
        <time>2017-01-15T11:35:14.999Z</time>
      </trkpt>
      <trkpt lat="47.50009" lon="6.72664">
        <ele>387.1</ele>
        <time>2017-01-15T11:35:15.999Z</time>
      </trkpt>
      <trkpt lat="47.50004" lon="6.72668">
        <ele>386.7</ele>
        <time>2017-01-15T11:35:16.999Z</time>
      </trkpt>
      <trkpt lat="47.50001" lon="6.72673">
        <ele>386.3</ele>
        <time>2017-01-15T11:35:17.999Z</time>
      </trkpt>
      <trkpt lat="47.49997" lon="6.72677">
        <ele>386.4</ele>
        <time>2017-01-15T11:35:18.999Z</time>
      </trkpt>
      <trkpt lat="47.49993" lon="6.72682">
        <ele>386.9</ele>
        <time>2017-01-15T11:35:19.999Z</time>
      </trkpt>
      <trkpt lat="47.49989" lon="6.72686">
        <ele>387</ele>
        <time>2017-01-15T11:35:20.999Z</time>
      </trkpt>
      <trkpt lat="47.49985" lon="6.72691">
        <ele>386.7</ele>
        <time>2017-01-15T11:35:21.999Z</time>
      </trkpt>
      <trkpt lat="47.49982" lon="6.72696">
        <ele>386.4</ele>
        <time>2017-01-15T11:35:22.999Z</time>
      </trkpt>
      <trkpt lat="47.49978" lon="6.72701">
        <ele>386</ele>
        <time>2017-01-15T11:35:23.999Z</time>
      </trkpt>
      <trkpt lat="47.49975" lon="6.72704">
        <ele>386.1</ele>
        <time>2017-01-15T11:35:24.999Z</time>
      </trkpt>
      <trkpt lat="47.49971" lon="6.72708">
        <ele>386.3</ele>
        <time>2017-01-15T11:35:25.999Z</time>
      </trkpt>
      <trkpt lat="47.49967" lon="6.72714">
        <ele>386.4</ele>
        <time>2017-01-15T11:35:26.999Z</time>
      </trkpt>
      <trkpt lat="47.49963" lon="6.72719">
        <ele>386.2</ele>
        <time>2017-01-15T11:35:27.999Z</time>
      </trkpt>
      <trkpt lat="47.49958" lon="6.72724">
        <ele>386.4</ele>
        <time>2017-01-15T11:35:28.999Z</time>
      </trkpt>
      <trkpt lat="47.49954" lon="6.72729">
        <ele>386.5</ele>
        <time>2017-01-15T11:35:29.999Z</time>
      </trkpt>
      <trkpt lat="47.49951" lon="6.72733">
        <ele>386.9</ele>
        <time>2017-01-15T11:35:30.999Z</time>
      </trkpt>
      <trkpt lat="47.49948" lon="6.72737">
        <ele>387.3</ele>
        <time>2017-01-15T11:35:31.999Z</time>
      </trkpt>
      <trkpt lat="47.49945" lon="6.72741">
        <ele>387.6</ele>
        <time>2017-01-15T11:35:32.999Z</time>
      </trkpt>
      <trkpt lat="47.49942" lon="6.72744">
        <ele>387.6</ele>
        <time>2017-01-15T11:35:33.999Z</time>
      </trkpt>
      <trkpt lat="47.4994" lon="6.72747">
        <ele>388.3</ele>
        <time>2017-01-15T11:35:34.999Z</time>
      </trkpt>
      <trkpt lat="47.49937" lon="6.7275">
        <ele>388.4</ele>
        <time>2017-01-15T11:35:35.999Z</time>
      </trkpt>
      <trkpt lat="47.49935" lon="6.72754">
        <ele>388.4</ele>
        <time>2017-01-15T11:35:36.999Z</time>
      </trkpt>
      <trkpt lat="47.49933" lon="6.72758">
        <ele>388.5</ele>
        <time>2017-01-15T11:35:37.999Z</time>
      </trkpt>
      <trkpt lat="47.49932" lon="6.72763">
        <ele>388.5</ele>
        <time>2017-01-15T11:35:38.999Z</time>
      </trkpt>
      <trkpt lat="47.49932" lon="6.72769">
        <ele>388.5</ele>
        <time>2017-01-15T11:35:39.999Z</time>
      </trkpt>
      <trkpt lat="47.49932" lon="6.72776">
        <ele>388.5</ele>
        <time>2017-01-15T11:35:40.999Z</time>
      </trkpt>
      <trkpt lat="47.49931" lon="6.72783">
        <ele>388.5</ele>
        <time>2017-01-15T11:35:41.999Z</time>
      </trkpt>
      <trkpt lat="47.49931" lon="6.72789">
        <ele>388.5</ele>
        <time>2017-01-15T11:35:42.999Z</time>
      </trkpt>
      <trkpt lat="47.49932" lon="6.72795">
        <ele>388.5</ele>
        <time>2017-01-15T11:35:43.999Z</time>
      </trkpt>
      <trkpt lat="47.49933" lon="6.728">
        <ele>388.4</ele>
        <time>2017-01-15T11:35:44.999Z</time>
      </trkpt>
      <trkpt lat="47.49933" lon="6.72806">
        <ele>388.3</ele>
        <time>2017-01-15T11:35:45.999Z</time>
      </trkpt>
      <trkpt lat="47.49934" lon="6.7281">
        <ele>388.1</ele>
        <time>2017-01-15T11:35:46.999Z</time>
      </trkpt>
      <trkpt lat="47.49934" lon="6.72816">
        <ele>388</ele>
        <time>2017-01-15T11:35:47.999Z</time>
      </trkpt>
      <trkpt lat="47.49934" lon="6.72822">
        <ele>387.8</ele>
        <time>2017-01-15T11:35:48.999Z</time>
      </trkpt>
      <trkpt lat="47.49934" lon="6.72828">
        <ele>387.7</ele>
        <time>2017-01-15T11:35:49.999Z</time>
      </trkpt>
      <trkpt lat="47.49935" lon="6.72833">
        <ele>386.3</ele>
        <time>2017-01-15T11:35:50.999Z</time>
      </trkpt>
      <trkpt lat="47.49935" lon="6.72837">
        <ele>386.2</ele>
        <time>2017-01-15T11:35:51.999Z</time>
      </trkpt>
      <trkpt lat="47.49935" lon="6.72843">
        <ele>386.1</ele>
        <time>2017-01-15T11:35:52.999Z</time>
      </trkpt>
      <trkpt lat="47.49936" lon="6.72848">
        <ele>386.1</ele>
        <time>2017-01-15T11:35:53.999Z</time>
      </trkpt>
      <trkpt lat="47.49937" lon="6.72854">
        <ele>385.9</ele>
        <time>2017-01-15T11:35:54.999Z</time>
      </trkpt>
      <trkpt lat="47.49939" lon="6.72859">
        <ele>385.8</ele>
        <time>2017-01-15T11:35:55.999Z</time>
      </trkpt>
      <trkpt lat="47.4994" lon="6.72865">
        <ele>385.7</ele>
        <time>2017-01-15T11:35:56.999Z</time>
      </trkpt>
      <trkpt lat="47.49941" lon="6.7287">
        <ele>385.6</ele>
        <time>2017-01-15T11:35:57.999Z</time>
      </trkpt>
      <trkpt lat="47.49941" lon="6.72874">
        <ele>385.5</ele>
        <time>2017-01-15T11:35:58.999Z</time>
      </trkpt>
      <trkpt lat="47.49942" lon="6.72878">
        <ele>385.4</ele>
        <time>2017-01-15T11:35:59.999Z</time>
      </trkpt>
      <trkpt lat="47.49945" lon="6.72883">
        <ele>385.1</ele>
        <time>2017-01-15T11:36:01.999Z</time>
      </trkpt>
      <trkpt lat="47.49947" lon="6.72888">
        <ele>384.8</ele>
        <time>2017-01-15T11:36:02.999Z</time>
      </trkpt>
      <trkpt lat="47.49949" lon="6.72892">
        <ele>384.6</ele>
        <time>2017-01-15T11:36:03.999Z</time>
      </trkpt>
      <trkpt lat="47.49951" lon="6.72897">
        <ele>384.3</ele>
        <time>2017-01-15T11:36:04.999Z</time>
      </trkpt>
      <trkpt lat="47.49954" lon="6.72901">
        <ele>384</ele>
        <time>2017-01-15T11:36:05.999Z</time>
      </trkpt>
      <trkpt lat="47.49956" lon="6.72906">
        <ele>383.8</ele>
        <time>2017-01-15T11:36:06.999Z</time>
      </trkpt>
      <trkpt lat="47.49959" lon="6.7291">
        <ele>383.5</ele>
        <time>2017-01-15T11:36:07.999Z</time>
      </trkpt>
      <trkpt lat="47.49961" lon="6.72914">
        <ele>383.2</ele>
        <time>2017-01-15T11:36:08.999Z</time>
      </trkpt>
      <trkpt lat="47.49963" lon="6.72918">
        <ele>382.9</ele>
        <time>2017-01-15T11:36:09.999Z</time>
      </trkpt>
      <trkpt lat="47.49966" lon="6.72921">
        <ele>382.6</ele>
        <time>2017-01-15T11:36:10.999Z</time>
      </trkpt>
      <trkpt lat="47.49968" lon="6.72925">
        <ele>382.3</ele>
        <time>2017-01-15T11:36:11.999Z</time>
      </trkpt>
      <trkpt lat="47.4997" lon="6.72928">
        <ele>381.9</ele>
        <time>2017-01-15T11:36:12.999Z</time>
      </trkpt>
      <trkpt lat="47.49974" lon="6.72932">
        <ele>381.6</ele>
        <time>2017-01-15T11:36:13.999Z</time>
      </trkpt>
      <trkpt lat="47.49977" lon="6.72936">
        <ele>381.4</ele>
        <time>2017-01-15T11:36:14.999Z</time>
      </trkpt>
      <trkpt lat="47.4998" lon="6.7294">
        <ele>380</ele>
        <time>2017-01-15T11:36:15.999Z</time>
      </trkpt>
      <trkpt lat="47.49982" lon="6.72944">
        <ele>379.9</ele>
        <time>2017-01-15T11:36:16.999Z</time>
      </trkpt>
      <trkpt lat="47.49983" lon="6.72948">
        <ele>379.8</ele>
        <time>2017-01-15T11:36:17.999Z</time>
      </trkpt>
      <trkpt lat="47.49984" lon="6.72953">
        <ele>379.7</ele>
        <time>2017-01-15T11:36:18.999Z</time>
      </trkpt>
      <trkpt lat="47.49985" lon="6.72958">
        <ele>379.6</ele>
        <time>2017-01-15T11:36:19.999Z</time>
      </trkpt>
      <trkpt lat="47.49985" lon="6.72964">
        <ele>378.3</ele>
        <time>2017-01-15T11:36:20.999Z</time>
      </trkpt>
      <trkpt lat="47.49986" lon="6.72969">
        <ele>377</ele>
        <time>2017-01-15T11:36:21.999Z</time>
      </trkpt>
      <trkpt lat="47.49987" lon="6.72975">
        <ele>376.9</ele>
        <time>2017-01-15T11:36:22.999Z</time>
      </trkpt>
      <trkpt lat="47.49988" lon="6.72981">
        <ele>376.9</ele>
        <time>2017-01-15T11:36:23.999Z</time>
      </trkpt>
      <trkpt lat="47.49989" lon="6.72987">
        <ele>376.9</ele>
        <time>2017-01-15T11:36:24.999Z</time>
      </trkpt>
      <trkpt lat="47.49991" lon="6.72992">
        <ele>377</ele>
        <time>2017-01-15T11:36:25.999Z</time>
      </trkpt>
      <trkpt lat="47.49993" lon="6.72995">
        <ele>377.1</ele>
        <time>2017-01-15T11:36:26.999Z</time>
      </trkpt>
      <trkpt lat="47.49994" lon="6.72999">
        <ele>377.2</ele>
        <time>2017-01-15T11:36:27.999Z</time>
      </trkpt>
      <trkpt lat="47.49997" lon="6.73004">
        <ele>378.8</ele>
        <time>2017-01-15T11:36:28.999Z</time>
      </trkpt>
      <trkpt lat="47.5" lon="6.7301">
        <ele>379.4</ele>
        <time>2017-01-15T11:36:29.999Z</time>
      </trkpt>
      <trkpt lat="47.50003" lon="6.73014">
        <ele>380.2</ele>
        <time>2017-01-15T11:36:30.999Z</time>
      </trkpt>
      <trkpt lat="47.50005" lon="6.73019">
        <ele>380.8</ele>
        <time>2017-01-15T11:36:31.999Z</time>
      </trkpt>
      <trkpt lat="47.50008" lon="6.73022">
        <ele>380</ele>
        <time>2017-01-15T11:36:32.999Z</time>
      </trkpt>
      <trkpt lat="47.5001" lon="6.73026">
        <ele>378.4</ele>
        <time>2017-01-15T11:36:33.999Z</time>
      </trkpt>
      <trkpt lat="47.50013" lon="6.73029">
        <ele>376.8</ele>
        <time>2017-01-15T11:36:34.999Z</time>
      </trkpt>
      <trkpt lat="47.50017" lon="6.73033">
        <ele>375.8</ele>
        <time>2017-01-15T11:36:35.999Z</time>
      </trkpt>
      <trkpt lat="47.5002" lon="6.73037">
        <ele>375.3</ele>
        <time>2017-01-15T11:36:36.999Z</time>
      </trkpt>
      <trkpt lat="47.50023" lon="6.73041">
        <ele>374.3</ele>
        <time>2017-01-15T11:36:37.999Z</time>
      </trkpt>
      <trkpt lat="47.50027" lon="6.73045">
        <ele>374.6</ele>
        <time>2017-01-15T11:36:38.999Z</time>
      </trkpt>
      <trkpt lat="47.5003" lon="6.7305">
        <ele>375.2</ele>
        <time>2017-01-15T11:36:39.999Z</time>
      </trkpt>
      <trkpt lat="47.50034" lon="6.73053">
        <ele>376.4</ele>
        <time>2017-01-15T11:36:40.999Z</time>
      </trkpt>
      <trkpt lat="47.50037" lon="6.73056">
        <ele>376.7</ele>
        <time>2017-01-15T11:36:41.999Z</time>
      </trkpt>
      <trkpt lat="47.50041" lon="6.7306">
        <ele>376.8</ele>
        <time>2017-01-15T11:36:42.999Z</time>
      </trkpt>
      <trkpt lat="47.50045" lon="6.73063">
        <ele>377</ele>
        <time>2017-01-15T11:36:43.999Z</time>
      </trkpt>
      <trkpt lat="47.50048" lon="6.73066">
        <ele>377.1</ele>
        <time>2017-01-15T11:36:44.999Z</time>
      </trkpt>
      <trkpt lat="47.50052" lon="6.7307">
        <ele>378.7</ele>
        <time>2017-01-15T11:36:45.999Z</time>
      </trkpt>
      <trkpt lat="47.50055" lon="6.73073">
        <ele>379.3</ele>
        <time>2017-01-15T11:36:46.999Z</time>
      </trkpt>
      <trkpt lat="47.50058" lon="6.73076">
        <ele>379.8</ele>
        <time>2017-01-15T11:36:47.999Z</time>
      </trkpt>
      <trkpt lat="47.50062" lon="6.73079">
        <ele>379.3</ele>
        <time>2017-01-15T11:36:48.999Z</time>
      </trkpt>
      <trkpt lat="47.50066" lon="6.73084">
        <ele>379.4</ele>
        <time>2017-01-15T11:36:49.999Z</time>
      </trkpt>
      <trkpt lat="47.5007" lon="6.73087">
        <ele>379.4</ele>
        <time>2017-01-15T11:36:50.999Z</time>
      </trkpt>
      <trkpt lat="47.50073" lon="6.7309">
        <ele>379.2</ele>
        <time>2017-01-15T11:36:51.999Z</time>
      </trkpt>
      <trkpt lat="47.50076" lon="6.73093">
        <ele>379.5</ele>
        <time>2017-01-15T11:36:52.999Z</time>
      </trkpt>
      <trkpt lat="47.5008" lon="6.73096">
        <ele>379.2</ele>
        <time>2017-01-15T11:36:53.999Z</time>
      </trkpt>
      <trkpt lat="47.50083" lon="6.73099">
        <ele>379.6</ele>
        <time>2017-01-15T11:36:54.999Z</time>
      </trkpt>
      <trkpt lat="47.50086" lon="6.73101">
        <ele>379.5</ele>
        <time>2017-01-15T11:36:55.999Z</time>
      </trkpt>
      <trkpt lat="47.50089" lon="6.73104">
        <ele>379.4</ele>
        <time>2017-01-15T11:36:56.999Z</time>
      </trkpt>
      <trkpt lat="47.50093" lon="6.73107">
        <ele>380.2</ele>
        <time>2017-01-15T11:36:57.999Z</time>
      </trkpt>
      <trkpt lat="47.50095" lon="6.73109">
        <ele>380.9</ele>
        <time>2017-01-15T11:36:58.999Z</time>
      </trkpt>
      <trkpt lat="47.50098" lon="6.73111">
        <ele>381.8</ele>
        <time>2017-01-15T11:36:59.999Z</time>
      </trkpt>
      <trkpt lat="47.50101" lon="6.73113">
        <ele>381.6</ele>
        <time>2017-01-15T11:37:00.999Z</time>
      </trkpt>
      <trkpt lat="47.50104" lon="6.73114">
        <ele>381.2</ele>
        <time>2017-01-15T11:37:01.999Z</time>
      </trkpt>
      <trkpt lat="47.50109" lon="6.73116">
        <ele>380.8</ele>
        <time>2017-01-15T11:37:02.999Z</time>
      </trkpt>
      <trkpt lat="47.50112" lon="6.73118">
        <ele>380.7</ele>
        <time>2017-01-15T11:37:03.999Z</time>
      </trkpt>
      <trkpt lat="47.50116" lon="6.73119">
        <ele>380.7</ele>
        <time>2017-01-15T11:37:04.999Z</time>
      </trkpt>
      <trkpt lat="47.50119" lon="6.73119">
        <ele>380.6</ele>
        <time>2017-01-15T11:37:05.999Z</time>
      </trkpt>
      <trkpt lat="47.50122" lon="6.73119">
        <ele>380.6</ele>
        <time>2017-01-15T11:37:06.999Z</time>
      </trkpt>
      <trkpt lat="47.50126" lon="6.73119">
        <ele>380.6</ele>
        <time>2017-01-15T11:37:07.999Z</time>
      </trkpt>
      <trkpt lat="47.50129" lon="6.73119">
        <ele>380.6</ele>
        <time>2017-01-15T11:37:08.999Z</time>
      </trkpt>
      <trkpt lat="47.50133" lon="6.73119">
        <ele>380.5</ele>
        <time>2017-01-15T11:37:09.999Z</time>
      </trkpt>
      <trkpt lat="47.50137" lon="6.73119">
        <ele>380.5</ele>
        <time>2017-01-15T11:37:10.999Z</time>
      </trkpt>
      <trkpt lat="47.5014" lon="6.73119">
        <ele>380.4</ele>
        <time>2017-01-15T11:37:11.999Z</time>
      </trkpt>
      <trkpt lat="47.50144" lon="6.73119">
        <ele>380.3</ele>
        <time>2017-01-15T11:37:12.999Z</time>
      </trkpt>
      <trkpt lat="47.50148" lon="6.73118">
        <ele>380.2</ele>
        <time>2017-01-15T11:37:13.999Z</time>
      </trkpt>
      <trkpt lat="47.5015" lon="6.73118">
        <ele>380.1</ele>
        <time>2017-01-15T11:37:14.999Z</time>
      </trkpt>
      <trkpt lat="47.50153" lon="6.73119">
        <ele>380</ele>
        <time>2017-01-15T11:37:15.999Z</time>
      </trkpt>
      <trkpt lat="47.50156" lon="6.73119">
        <ele>379.9</ele>
        <time>2017-01-15T11:37:16.999Z</time>
      </trkpt>
      <trkpt lat="47.50159" lon="6.7312">
        <ele>379.9</ele>
        <time>2017-01-15T11:37:17.999Z</time>
      </trkpt>
      <trkpt lat="47.50161" lon="6.73122">
        <ele>379.9</ele>
        <time>2017-01-15T11:37:18.999Z</time>
      </trkpt>
      <trkpt lat="47.50164" lon="6.73123">
        <ele>380</ele>
        <time>2017-01-15T11:37:19.999Z</time>
      </trkpt>
      <trkpt lat="47.50167" lon="6.73125">
        <ele>380</ele>
        <time>2017-01-15T11:37:20.999Z</time>
      </trkpt>
      <trkpt lat="47.50169" lon="6.73128">
        <ele>380</ele>
        <time>2017-01-15T11:37:21.999Z</time>
      </trkpt>
      <trkpt lat="47.50171" lon="6.73132">
        <ele>380.1</ele>
        <time>2017-01-15T11:37:22.999Z</time>
      </trkpt>
      <trkpt lat="47.50173" lon="6.73137">
        <ele>380.4</ele>
        <time>2017-01-15T11:37:24.999Z</time>
      </trkpt>
      <trkpt lat="47.50173" lon="6.7314">
        <ele>380.4</ele>
        <time>2017-01-15T11:37:25.999Z</time>
      </trkpt>
      <trkpt lat="47.50172" lon="6.73147">
        <ele>380.7</ele>
        <time>2017-01-15T11:37:27.999Z</time>
      </trkpt>
      <trkpt lat="47.50171" lon="6.7315">
        <ele>380.8</ele>
        <time>2017-01-15T11:37:28.999Z</time>
      </trkpt>
      <trkpt lat="47.50169" lon="6.73155">
        <ele>381</ele>
        <time>2017-01-15T11:37:30.999Z</time>
      </trkpt>
      <trkpt lat="47.50167" lon="6.73158">
        <ele>381.2</ele>
        <time>2017-01-15T11:37:31.999Z</time>
      </trkpt>
      <trkpt lat="47.50166" lon="6.73162">
        <ele>381.3</ele>
        <time>2017-01-15T11:37:32.999Z</time>
      </trkpt>
      <trkpt lat="47.50164" lon="6.73166">
        <ele>381.5</ele>
        <time>2017-01-15T11:37:33.999Z</time>
      </trkpt>
      <trkpt lat="47.50163" lon="6.7317">
        <ele>381.6</ele>
        <time>2017-01-15T11:37:34.999Z</time>
      </trkpt>
      <trkpt lat="47.50163" lon="6.73174">
        <ele>381.7</ele>
        <time>2017-01-15T11:37:35.999Z</time>
      </trkpt>
      <trkpt lat="47.50162" lon="6.73178">
        <ele>381.9</ele>
        <time>2017-01-15T11:37:36.999Z</time>
      </trkpt>
      <trkpt lat="47.50162" lon="6.73183">
        <ele>382</ele>
        <time>2017-01-15T11:37:37.999Z</time>
      </trkpt>
      <trkpt lat="47.50161" lon="6.73187">
        <ele>382.2</ele>
        <time>2017-01-15T11:37:38.999Z</time>
      </trkpt>
      <trkpt lat="47.50161" lon="6.73191">
        <ele>382.4</ele>
        <time>2017-01-15T11:37:39.999Z</time>
      </trkpt>
      <trkpt lat="47.50162" lon="6.73198">
        <ele>382.7</ele>
        <time>2017-01-15T11:37:41.999Z</time>
      </trkpt>
      <trkpt lat="47.50161" lon="6.73201">
        <ele>382.8</ele>
        <time>2017-01-15T11:37:42.999Z</time>
      </trkpt>
      <trkpt lat="47.50161" lon="6.73205">
        <ele>382.9</ele>
        <time>2017-01-15T11:37:43.999Z</time>
      </trkpt>
      <trkpt lat="47.5016" lon="6.73208">
        <ele>383</ele>
        <time>2017-01-15T11:37:44.999Z</time>
      </trkpt>
      <trkpt lat="47.50158" lon="6.73214">
        <ele>383.3</ele>
        <time>2017-01-15T11:37:46.999Z</time>
      </trkpt>
      <trkpt lat="47.50157" lon="6.73216">
        <ele>383.5</ele>
        <time>2017-01-15T11:37:47.999Z</time>
      </trkpt>
      <trkpt lat="47.50156" lon="6.7322">
        <ele>383.6</ele>
        <time>2017-01-15T11:37:48.999Z</time>
      </trkpt>
      <trkpt lat="47.50155" lon="6.73223">
        <ele>383.8</ele>
        <time>2017-01-15T11:37:49.999Z</time>
      </trkpt>
      <trkpt lat="47.50154" lon="6.73226">
        <ele>384</ele>
        <time>2017-01-15T11:37:50.999Z</time>
      </trkpt>
      <trkpt lat="47.50153" lon="6.7323">
        <ele>384.1</ele>
        <time>2017-01-15T11:37:51.999Z</time>
      </trkpt>
      <trkpt lat="47.50152" lon="6.73234">
        <ele>384.4</ele>
        <time>2017-01-15T11:37:52.999Z</time>
      </trkpt>
      <trkpt lat="47.50151" lon="6.73238">
        <ele>384.5</ele>
        <time>2017-01-15T11:37:53.999Z</time>
      </trkpt>
      <trkpt lat="47.5015" lon="6.73241">
        <ele>384.7</ele>
        <time>2017-01-15T11:37:54.999Z</time>
      </trkpt>
      <trkpt lat="47.50148" lon="6.73245">
        <ele>384.7</ele>
        <time>2017-01-15T11:37:55.999Z</time>
      </trkpt>
      <trkpt lat="47.50147" lon="6.73249">
        <ele>384.8</ele>
        <time>2017-01-15T11:37:56.999Z</time>
      </trkpt>
      <trkpt lat="47.50145" lon="6.73252">
        <ele>384.8</ele>
        <time>2017-01-15T11:37:57.999Z</time>
      </trkpt>
      <trkpt lat="47.50144" lon="6.73256">
        <ele>384.9</ele>
        <time>2017-01-15T11:37:58.999Z</time>
      </trkpt>
      <trkpt lat="47.50143" lon="6.73261">
        <ele>384.9</ele>
        <time>2017-01-15T11:37:59.999Z</time>
      </trkpt>
      <trkpt lat="47.50141" lon="6.73266">
        <ele>385</ele>
        <time>2017-01-15T11:38:00.999Z</time>
      </trkpt>
      <trkpt lat="47.5014" lon="6.7327">
        <ele>385</ele>
        <time>2017-01-15T11:38:01.999Z</time>
      </trkpt>
      <trkpt lat="47.50139" lon="6.73274">
        <ele>385.2</ele>
        <time>2017-01-15T11:38:02.999Z</time>
      </trkpt>
      <trkpt lat="47.50138" lon="6.73278">
        <ele>385.2</ele>
        <time>2017-01-15T11:38:03.999Z</time>
      </trkpt>
      <trkpt lat="47.50137" lon="6.73282">
        <ele>385.2</ele>
        <time>2017-01-15T11:38:04.999Z</time>
      </trkpt>
      <trkpt lat="47.50136" lon="6.73285">
        <ele>385.3</ele>
        <time>2017-01-15T11:38:05.999Z</time>
      </trkpt>
      <trkpt lat="47.50134" lon="6.7329">
        <ele>385.2</ele>
        <time>2017-01-15T11:38:06.999Z</time>
      </trkpt>
      <trkpt lat="47.50132" lon="6.73294">
        <ele>385.2</ele>
        <time>2017-01-15T11:38:07.999Z</time>
      </trkpt>
      <trkpt lat="47.5013" lon="6.73298">
        <ele>385.1</ele>
        <time>2017-01-15T11:38:08.999Z</time>
      </trkpt>
      <trkpt lat="47.50128" lon="6.73303">
        <ele>385</ele>
        <time>2017-01-15T11:38:09.999Z</time>
      </trkpt>
      <trkpt lat="47.50126" lon="6.73309">
        <ele>385</ele>
        <time>2017-01-15T11:38:10.999Z</time>
      </trkpt>
      <trkpt lat="47.50125" lon="6.73312">
        <ele>385.2</ele>
        <time>2017-01-15T11:38:11.999Z</time>
      </trkpt>
      <trkpt lat="47.50124" lon="6.73315">
        <ele>385.3</ele>
        <time>2017-01-15T11:38:12.999Z</time>
      </trkpt>
      <trkpt lat="47.50122" lon="6.73319">
        <ele>385.5</ele>
        <time>2017-01-15T11:38:13.999Z</time>
      </trkpt>
      <trkpt lat="47.5012" lon="6.73323">
        <ele>385.6</ele>
        <time>2017-01-15T11:38:14.999Z</time>
      </trkpt>
      <trkpt lat="47.50118" lon="6.73329">
        <ele>385.6</ele>
        <time>2017-01-15T11:38:15.999Z</time>
      </trkpt>
      <trkpt lat="47.50117" lon="6.73334">
        <ele>385.7</ele>
        <time>2017-01-15T11:38:16.999Z</time>
      </trkpt>
      <trkpt lat="47.50115" lon="6.7334">
        <ele>385.8</ele>
        <time>2017-01-15T11:38:17.999Z</time>
      </trkpt>
      <trkpt lat="47.50114" lon="6.73344">
        <ele>385.9</ele>
        <time>2017-01-15T11:38:18.999Z</time>
      </trkpt>
      <trkpt lat="47.50112" lon="6.73349">
        <ele>385.9</ele>
        <time>2017-01-15T11:38:19.999Z</time>
      </trkpt>
      <trkpt lat="47.5011" lon="6.73355">
        <ele>385.9</ele>
        <time>2017-01-15T11:38:20.999Z</time>
      </trkpt>
      <trkpt lat="47.50108" lon="6.73361">
        <ele>385</ele>
        <time>2017-01-15T11:38:21.999Z</time>
      </trkpt>
      <trkpt lat="47.50106" lon="6.73366">
        <ele>385</ele>
        <time>2017-01-15T11:38:22.999Z</time>
      </trkpt>
      <trkpt lat="47.50104" lon="6.73371">
        <ele>385</ele>
        <time>2017-01-15T11:38:23.999Z</time>
      </trkpt>
      <trkpt lat="47.50102" lon="6.73375">
        <ele>385.1</ele>
        <time>2017-01-15T11:38:24.999Z</time>
      </trkpt>
      <trkpt lat="47.50101" lon="6.73379">
        <ele>385.1</ele>
        <time>2017-01-15T11:38:25.999Z</time>
      </trkpt>
      <trkpt lat="47.501" lon="6.73385">
        <ele>385.2</ele>
        <time>2017-01-15T11:38:26.999Z</time>
      </trkpt>
      <trkpt lat="47.50098" lon="6.7339">
        <ele>385.3</ele>
        <time>2017-01-15T11:38:27.999Z</time>
      </trkpt>
      <trkpt lat="47.50096" lon="6.73395">
        <ele>385.5</ele>
        <time>2017-01-15T11:38:28.999Z</time>
      </trkpt>
      <trkpt lat="47.50094" lon="6.73401">
        <ele>385.7</ele>
        <time>2017-01-15T11:38:29.999Z</time>
      </trkpt>
      <trkpt lat="47.50093" lon="6.73405">
        <ele>385.9</ele>
        <time>2017-01-15T11:38:30.999Z</time>
      </trkpt>
      <trkpt lat="47.50091" lon="6.7341">
        <ele>386</ele>
        <time>2017-01-15T11:38:31.999Z</time>
      </trkpt>
      <trkpt lat="47.5009" lon="6.73414">
        <ele>386.1</ele>
        <time>2017-01-15T11:38:32.999Z</time>
      </trkpt>
      <trkpt lat="47.50089" lon="6.73419">
        <ele>386.3</ele>
        <time>2017-01-15T11:38:33.999Z</time>
      </trkpt>
      <trkpt lat="47.50088" lon="6.73424">
        <ele>386.4</ele>
        <time>2017-01-15T11:38:34.999Z</time>
      </trkpt>
      <trkpt lat="47.50087" lon="6.7343">
        <ele>386.5</ele>
        <time>2017-01-15T11:38:35.999Z</time>
      </trkpt>
      <trkpt lat="47.50086" lon="6.73434">
        <ele>386.6</ele>
        <time>2017-01-15T11:38:36.999Z</time>
      </trkpt>
      <trkpt lat="47.50085" lon="6.73438">
        <ele>386.6</ele>
        <time>2017-01-15T11:38:37.999Z</time>
      </trkpt>
      <trkpt lat="47.50084" lon="6.73441">
        <ele>386.8</ele>
        <time>2017-01-15T11:38:38.999Z</time>
      </trkpt>
      <trkpt lat="47.50082" lon="6.73446">
        <ele>386.9</ele>
        <time>2017-01-15T11:38:39.999Z</time>
      </trkpt>
      <trkpt lat="47.50081" lon="6.73452">
        <ele>387.7</ele>
        <time>2017-01-15T11:38:40.999Z</time>
      </trkpt>
      <trkpt lat="47.5008" lon="6.73457">
        <ele>387.8</ele>
        <time>2017-01-15T11:38:41.999Z</time>
      </trkpt>
      <trkpt lat="47.50078" lon="6.73462">
        <ele>388.5</ele>
        <time>2017-01-15T11:38:42.999Z</time>
      </trkpt>
      <trkpt lat="47.50077" lon="6.73468">
        <ele>389.4</ele>
        <time>2017-01-15T11:38:43.999Z</time>
      </trkpt>
      <trkpt lat="47.50075" lon="6.73475">
        <ele>390.2</ele>
        <time>2017-01-15T11:38:44.999Z</time>
      </trkpt>
      <trkpt lat="47.50074" lon="6.73483">
        <ele>390.5</ele>
        <time>2017-01-15T11:38:45.999Z</time>
      </trkpt>
      <trkpt lat="47.50073" lon="6.73489">
        <ele>390.8</ele>
        <time>2017-01-15T11:38:46.999Z</time>
      </trkpt>
      <trkpt lat="47.50072" lon="6.73494">
        <ele>390.5</ele>
        <time>2017-01-15T11:38:47.999Z</time>
      </trkpt>
      <trkpt lat="47.50071" lon="6.735">
        <ele>390</ele>
        <time>2017-01-15T11:38:48.999Z</time>
      </trkpt>
      <trkpt lat="47.50069" lon="6.73505">
        <ele>390.1</ele>
        <time>2017-01-15T11:38:49.999Z</time>
      </trkpt>
      <trkpt lat="47.50068" lon="6.73512">
        <ele>389.8</ele>
        <time>2017-01-15T11:38:50.999Z</time>
      </trkpt>
      <trkpt lat="47.50066" lon="6.73518">
        <ele>389.4</ele>
        <time>2017-01-15T11:38:51.999Z</time>
      </trkpt>
      <trkpt lat="47.50065" lon="6.73526">
        <ele>389.7</ele>
        <time>2017-01-15T11:38:52.999Z</time>
      </trkpt>
      <trkpt lat="47.50064" lon="6.73532">
        <ele>388.5</ele>
        <time>2017-01-15T11:38:53.999Z</time>
      </trkpt>
      <trkpt lat="47.50063" lon="6.73539">
        <ele>387.6</ele>
        <time>2017-01-15T11:38:54.999Z</time>
      </trkpt>
      <trkpt lat="47.50061" lon="6.73545">
        <ele>386.9</ele>
        <time>2017-01-15T11:38:55.999Z</time>
      </trkpt>
      <trkpt lat="47.50061" lon="6.73553">
        <ele>386.3</ele>
        <time>2017-01-15T11:38:56.999Z</time>
      </trkpt>
      <trkpt lat="47.5006" lon="6.7356">
        <ele>386.3</ele>
        <time>2017-01-15T11:38:57.999Z</time>
      </trkpt>
      <trkpt lat="47.5006" lon="6.73567">
        <ele>386.9</ele>
        <time>2017-01-15T11:38:58.999Z</time>
      </trkpt>
      <trkpt lat="47.5006" lon="6.73573">
        <ele>387.1</ele>
        <time>2017-01-15T11:38:59.999Z</time>
      </trkpt>
      <trkpt lat="47.5006" lon="6.7358">
        <ele>387.7</ele>
        <time>2017-01-15T11:39:00.999Z</time>
      </trkpt>
      <trkpt lat="47.50059" lon="6.73588">
        <ele>387.6</ele>
        <time>2017-01-15T11:39:01.999Z</time>
      </trkpt>
      <trkpt lat="47.50059" lon="6.73595">
        <ele>387</ele>
        <time>2017-01-15T11:39:02.999Z</time>
      </trkpt>
      <trkpt lat="47.50058" lon="6.73601">
        <ele>386.6</ele>
        <time>2017-01-15T11:39:03.999Z</time>
      </trkpt>
      <trkpt lat="47.50058" lon="6.73607">
        <ele>387</ele>
        <time>2017-01-15T11:39:04.999Z</time>
      </trkpt>
      <trkpt lat="47.50058" lon="6.73613">
        <ele>387.2</ele>
        <time>2017-01-15T11:39:05.999Z</time>
      </trkpt>
      <trkpt lat="47.50058" lon="6.73619">
        <ele>387.6</ele>
        <time>2017-01-15T11:39:06.999Z</time>
      </trkpt>
      <trkpt lat="47.50058" lon="6.73625">
        <ele>387.6</ele>
        <time>2017-01-15T11:39:07.999Z</time>
      </trkpt>
      <trkpt lat="47.50058" lon="6.7363">
        <ele>387.6</ele>
        <time>2017-01-15T11:39:08.999Z</time>
      </trkpt>
      <trkpt lat="47.50058" lon="6.73637">
        <ele>387.6</ele>
        <time>2017-01-15T11:39:09.999Z</time>
      </trkpt>
      <trkpt lat="47.50057" lon="6.73644">
        <ele>388</ele>
        <time>2017-01-15T11:39:10.999Z</time>
      </trkpt>
      <trkpt lat="47.50057" lon="6.73649">
        <ele>387.9</ele>
        <time>2017-01-15T11:39:11.999Z</time>
      </trkpt>
      <trkpt lat="47.50056" lon="6.73656">
        <ele>388</ele>
        <time>2017-01-15T11:39:12.999Z</time>
      </trkpt>
      <trkpt lat="47.50056" lon="6.73662">
        <ele>387.3</ele>
        <time>2017-01-15T11:39:13.999Z</time>
      </trkpt>
      <trkpt lat="47.50056" lon="6.73667">
        <ele>387.2</ele>
        <time>2017-01-15T11:39:14.999Z</time>
      </trkpt>
      <trkpt lat="47.50056" lon="6.73674">
        <ele>387.5</ele>
        <time>2017-01-15T11:39:15.999Z</time>
      </trkpt>
      <trkpt lat="47.50056" lon="6.73677">
        <ele>387.5</ele>
        <time>2017-01-15T11:39:16.999Z</time>
      </trkpt>
      <trkpt lat="47.50056" lon="6.73683">
        <ele>387.2</ele>
        <time>2017-01-15T11:39:17.999Z</time>
      </trkpt>
      <trkpt lat="47.50057" lon="6.73689">
        <ele>387.1</ele>
        <time>2017-01-15T11:39:18.999Z</time>
      </trkpt>
      <trkpt lat="47.50057" lon="6.73694">
        <ele>387</ele>
        <time>2017-01-15T11:39:19.999Z</time>
      </trkpt>
      <trkpt lat="47.50057" lon="6.73699">
        <ele>387</ele>
        <time>2017-01-15T11:39:20.999Z</time>
      </trkpt>
      <trkpt lat="47.50057" lon="6.73706">
        <ele>387.3</ele>
        <time>2017-01-15T11:39:21.999Z</time>
      </trkpt>
      <trkpt lat="47.50057" lon="6.73712">
        <ele>387.4</ele>
        <time>2017-01-15T11:39:22.999Z</time>
      </trkpt>
      <trkpt lat="47.50057" lon="6.73718">
        <ele>388.5</ele>
        <time>2017-01-15T11:39:23.999Z</time>
      </trkpt>
      <trkpt lat="47.50057" lon="6.73724">
        <ele>389.3</ele>
        <time>2017-01-15T11:39:24.999Z</time>
      </trkpt>
      <trkpt lat="47.50057" lon="6.7373">
        <ele>389.3</ele>
        <time>2017-01-15T11:39:25.999Z</time>
      </trkpt>
      <trkpt lat="47.50058" lon="6.73735">
        <ele>389.4</ele>
        <time>2017-01-15T11:39:26.999Z</time>
      </trkpt>
      <trkpt lat="47.50059" lon="6.7374">
        <ele>389.4</ele>
        <time>2017-01-15T11:39:27.999Z</time>
      </trkpt>
      <trkpt lat="47.50059" lon="6.73745">
        <ele>389.4</ele>
        <time>2017-01-15T11:39:28.999Z</time>
      </trkpt>
      <trkpt lat="47.50059" lon="6.73752">
        <ele>388.9</ele>
        <time>2017-01-15T11:39:29.999Z</time>
      </trkpt>
      <trkpt lat="47.5006" lon="6.73758">
        <ele>388.9</ele>
        <time>2017-01-15T11:39:30.999Z</time>
      </trkpt>
      <trkpt lat="47.50061" lon="6.73763">
        <ele>389.5</ele>
        <time>2017-01-15T11:39:31.999Z</time>
      </trkpt>
      <trkpt lat="47.50062" lon="6.73769">
        <ele>388.9</ele>
        <time>2017-01-15T11:39:32.999Z</time>
      </trkpt>
      <trkpt lat="47.50063" lon="6.73774">
        <ele>388.6</ele>
        <time>2017-01-15T11:39:33.999Z</time>
      </trkpt>
      <trkpt lat="47.50064" lon="6.7378">
        <ele>388.5</ele>
        <time>2017-01-15T11:39:34.999Z</time>
      </trkpt>
      <trkpt lat="47.50064" lon="6.73788">
        <ele>388.3</ele>
        <time>2017-01-15T11:39:35.999Z</time>
      </trkpt>
      <trkpt lat="47.50065" lon="6.73795">
        <ele>387.7</ele>
        <time>2017-01-15T11:39:36.999Z</time>
      </trkpt>
      <trkpt lat="47.50066" lon="6.73801">
        <ele>387.7</ele>
        <time>2017-01-15T11:39:37.999Z</time>
      </trkpt>
      <trkpt lat="47.50067" lon="6.73807">
        <ele>387.7</ele>
        <time>2017-01-15T11:39:38.999Z</time>
      </trkpt>
      <trkpt lat="47.50068" lon="6.73813">
        <ele>387.9</ele>
        <time>2017-01-15T11:39:39.999Z</time>
      </trkpt>
      <trkpt lat="47.50069" lon="6.73818">
        <ele>388.8</ele>
        <time>2017-01-15T11:39:40.999Z</time>
      </trkpt>
      <trkpt lat="47.5007" lon="6.73823">
        <ele>388.9</ele>
        <time>2017-01-15T11:39:41.999Z</time>
      </trkpt>
      <trkpt lat="47.5007" lon="6.73829">
        <ele>388.9</ele>
        <time>2017-01-15T11:39:42.999Z</time>
      </trkpt>
      <trkpt lat="47.50071" lon="6.73835">
        <ele>389</ele>
        <time>2017-01-15T11:39:43.999Z</time>
      </trkpt>
      <trkpt lat="47.50072" lon="6.7384">
        <ele>389.2</ele>
        <time>2017-01-15T11:39:44.999Z</time>
      </trkpt>
      <trkpt lat="47.50072" lon="6.73844">
        <ele>389.3</ele>
        <time>2017-01-15T11:39:45.999Z</time>
      </trkpt>
      <trkpt lat="47.50073" lon="6.73851">
        <ele>389.4</ele>
        <time>2017-01-15T11:39:46.999Z</time>
      </trkpt>
      <trkpt lat="47.50074" lon="6.73855">
        <ele>389.5</ele>
        <time>2017-01-15T11:39:47.999Z</time>
      </trkpt>
      <trkpt lat="47.50075" lon="6.73859">
        <ele>389.7</ele>
        <time>2017-01-15T11:39:48.999Z</time>
      </trkpt>
      <trkpt lat="47.50076" lon="6.73862">
        <ele>389.8</ele>
        <time>2017-01-15T11:39:49.999Z</time>
      </trkpt>
      <trkpt lat="47.50077" lon="6.73868">
        <ele>389.9</ele>
        <time>2017-01-15T11:39:50.999Z</time>
      </trkpt>
      <trkpt lat="47.50077" lon="6.73872">
        <ele>389.9</ele>
        <time>2017-01-15T11:39:51.999Z</time>
      </trkpt>
      <trkpt lat="47.50077" lon="6.73878">
        <ele>390</ele>
        <time>2017-01-15T11:39:52.999Z</time>
      </trkpt>
      <trkpt lat="47.50078" lon="6.73884">
        <ele>390.1</ele>
        <time>2017-01-15T11:39:53.999Z</time>
      </trkpt>
      <trkpt lat="47.50078" lon="6.73891">
        <ele>390.2</ele>
        <time>2017-01-15T11:39:54.999Z</time>
      </trkpt>
      <trkpt lat="47.50079" lon="6.73896">
        <ele>390.3</ele>
        <time>2017-01-15T11:39:55.999Z</time>
      </trkpt>
      <trkpt lat="47.5008" lon="6.73901">
        <ele>390.5</ele>
        <time>2017-01-15T11:39:56.999Z</time>
      </trkpt>
      <trkpt lat="47.50081" lon="6.73906">
        <ele>390.7</ele>
        <time>2017-01-15T11:39:57.999Z</time>
      </trkpt>
      <trkpt lat="47.50082" lon="6.7391">
        <ele>390.8</ele>
        <time>2017-01-15T11:39:58.999Z</time>
      </trkpt>
      <trkpt lat="47.50082" lon="6.73915">
        <ele>390.9</ele>
        <time>2017-01-15T11:39:59.999Z</time>
      </trkpt>
      <trkpt lat="47.50083" lon="6.73919">
        <ele>391</ele>
        <time>2017-01-15T11:40:00.999Z</time>
      </trkpt>
      <trkpt lat="47.50084" lon="6.73924">
        <ele>391.2</ele>
        <time>2017-01-15T11:40:01.999Z</time>
      </trkpt>
      <trkpt lat="47.50085" lon="6.73929">
        <ele>391.3</ele>
        <time>2017-01-15T11:40:02.999Z</time>
      </trkpt>
      <trkpt lat="47.50086" lon="6.73932">
        <ele>391.5</ele>
        <time>2017-01-15T11:40:03.999Z</time>
      </trkpt>
      <trkpt lat="47.50087" lon="6.73937">
        <ele>391.6</ele>
        <time>2017-01-15T11:40:04.999Z</time>
      </trkpt>
      <trkpt lat="47.50088" lon="6.73941">
        <ele>391.8</ele>
        <time>2017-01-15T11:40:05.999Z</time>
      </trkpt>
      <trkpt lat="47.50088" lon="6.73945">
        <ele>391.9</ele>
        <time>2017-01-15T11:40:06.999Z</time>
      </trkpt>
      <trkpt lat="47.50089" lon="6.73949">
        <ele>392</ele>
        <time>2017-01-15T11:40:07.999Z</time>
      </trkpt>
      <trkpt lat="47.5009" lon="6.73956">
        <ele>392.2</ele>
        <time>2017-01-15T11:40:08.999Z</time>
      </trkpt>
      <trkpt lat="47.5009" lon="6.73961">
        <ele>392.3</ele>
        <time>2017-01-15T11:40:09.999Z</time>
      </trkpt>
      <trkpt lat="47.5009" lon="6.73967">
        <ele>392.4</ele>
        <time>2017-01-15T11:40:10.999Z</time>
      </trkpt>
      <trkpt lat="47.50091" lon="6.73971">
        <ele>392.6</ele>
        <time>2017-01-15T11:40:11.999Z</time>
      </trkpt>
      <trkpt lat="47.50092" lon="6.73976">
        <ele>392.6</ele>
        <time>2017-01-15T11:40:12.999Z</time>
      </trkpt>
      <trkpt lat="47.50093" lon="6.73981">
        <ele>392.6</ele>
        <time>2017-01-15T11:40:13.999Z</time>
      </trkpt>
      <trkpt lat="47.50094" lon="6.73985">
        <ele>392.6</ele>
        <time>2017-01-15T11:40:14.999Z</time>
      </trkpt>
      <trkpt lat="47.50095" lon="6.73989">
        <ele>392.6</ele>
        <time>2017-01-15T11:40:15.999Z</time>
      </trkpt>
      <trkpt lat="47.50096" lon="6.73993">
        <ele>392.6</ele>
        <time>2017-01-15T11:40:16.999Z</time>
      </trkpt>
      <trkpt lat="47.50097" lon="6.73997">
        <ele>392.6</ele>
        <time>2017-01-15T11:40:17.999Z</time>
      </trkpt>
      <trkpt lat="47.50098" lon="6.74001">
        <ele>392.6</ele>
        <time>2017-01-15T11:40:18.999Z</time>
      </trkpt>
      <trkpt lat="47.50098" lon="6.74004">
        <ele>392.7</ele>
        <time>2017-01-15T11:40:19.999Z</time>
      </trkpt>
      <trkpt lat="47.501" lon="6.7401">
        <ele>392.8</ele>
        <time>2017-01-15T11:40:20.999Z</time>
      </trkpt>
      <trkpt lat="47.50101" lon="6.74015">
        <ele>392.8</ele>
        <time>2017-01-15T11:40:21.999Z</time>
      </trkpt>
      <trkpt lat="47.50102" lon="6.74019">
        <ele>392.9</ele>
        <time>2017-01-15T11:40:22.999Z</time>
      </trkpt>
      <trkpt lat="47.50103" lon="6.74025">
        <ele>392.9</ele>
        <time>2017-01-15T11:40:23.999Z</time>
      </trkpt>
      <trkpt lat="47.50105" lon="6.74029">
        <ele>393</ele>
        <time>2017-01-15T11:40:24.999Z</time>
      </trkpt>
      <trkpt lat="47.50106" lon="6.74034">
        <ele>393</ele>
        <time>2017-01-15T11:40:25.999Z</time>
      </trkpt>
      <trkpt lat="47.50107" lon="6.74038">
        <ele>393.1</ele>
        <time>2017-01-15T11:40:26.999Z</time>
      </trkpt>
      <trkpt lat="47.50107" lon="6.74041">
        <ele>393.1</ele>
        <time>2017-01-15T11:40:27.999Z</time>
      </trkpt>
      <trkpt lat="47.50108" lon="6.74045">
        <ele>393</ele>
        <time>2017-01-15T11:40:28.999Z</time>
      </trkpt>
      <trkpt lat="47.5011" lon="6.74047">
        <ele>392.8</ele>
        <time>2017-01-15T11:40:29.999Z</time>
      </trkpt>
      <trkpt lat="47.50112" lon="6.74051">
        <ele>392.9</ele>
        <time>2017-01-15T11:40:30.999Z</time>
      </trkpt>
      <trkpt lat="47.50113" lon="6.74055">
        <ele>392.9</ele>
        <time>2017-01-15T11:40:31.999Z</time>
      </trkpt>
      <trkpt lat="47.50115" lon="6.74058">
        <ele>393</ele>
        <time>2017-01-15T11:40:32.999Z</time>
      </trkpt>
      <trkpt lat="47.50117" lon="6.74063">
        <ele>393.1</ele>
        <time>2017-01-15T11:40:33.999Z</time>
      </trkpt>
      <trkpt lat="47.50118" lon="6.74067">
        <ele>393.2</ele>
        <time>2017-01-15T11:40:34.999Z</time>
      </trkpt>
      <trkpt lat="47.5012" lon="6.7407">
        <ele>393.3</ele>
        <time>2017-01-15T11:40:35.999Z</time>
      </trkpt>
      <trkpt lat="47.5012" lon="6.74075">
        <ele>393.3</ele>
        <time>2017-01-15T11:40:36.999Z</time>
      </trkpt>
      <trkpt lat="47.50122" lon="6.7408">
        <ele>393.6</ele>
        <time>2017-01-15T11:40:38.999Z</time>
      </trkpt>
      <trkpt lat="47.50123" lon="6.74084">
        <ele>393.7</ele>
        <time>2017-01-15T11:40:39.999Z</time>
      </trkpt>
      <trkpt lat="47.50125" lon="6.74086">
        <ele>393.9</ele>
        <time>2017-01-15T11:40:40.999Z</time>
      </trkpt>
      <trkpt lat="47.50127" lon="6.74089">
        <ele>394</ele>
        <time>2017-01-15T11:40:41.999Z</time>
      </trkpt>
      <trkpt lat="47.50128" lon="6.74092">
        <ele>394</ele>
        <time>2017-01-15T11:40:42.999Z</time>
      </trkpt>
      <trkpt lat="47.50128" lon="6.74096">
        <ele>394</ele>
        <time>2017-01-15T11:40:43.999Z</time>
      </trkpt>
      <trkpt lat="47.50129" lon="6.74102">
        <ele>394.2</ele>
        <time>2017-01-15T11:40:44.999Z</time>
      </trkpt>
      <trkpt lat="47.50132" lon="6.74106">
        <ele>394.4</ele>
        <time>2017-01-15T11:40:45.999Z</time>
      </trkpt>
      <trkpt lat="47.50133" lon="6.74108">
        <ele>394.5</ele>
        <time>2017-01-15T11:40:46.999Z</time>
      </trkpt>
      <trkpt lat="47.50135" lon="6.74113">
        <ele>394.6</ele>
        <time>2017-01-15T11:40:47.999Z</time>
      </trkpt>
      <trkpt lat="47.50136" lon="6.74117">
        <ele>394.8</ele>
        <time>2017-01-15T11:40:48.999Z</time>
      </trkpt>
      <trkpt lat="47.50137" lon="6.74121">
        <ele>394.9</ele>
        <time>2017-01-15T11:40:49.999Z</time>
      </trkpt>
      <trkpt lat="47.50139" lon="6.74125">
        <ele>394.9</ele>
        <time>2017-01-15T11:40:50.999Z</time>
      </trkpt>
      <trkpt lat="47.50141" lon="6.7413">
        <ele>395</ele>
        <time>2017-01-15T11:40:51.999Z</time>
      </trkpt>
      <trkpt lat="47.50141" lon="6.74134">
        <ele>395.1</ele>
        <time>2017-01-15T11:40:52.999Z</time>
      </trkpt>
      <trkpt lat="47.50144" lon="6.74138">
        <ele>395.2</ele>
        <time>2017-01-15T11:40:53.999Z</time>
      </trkpt>
      <trkpt lat="47.50145" lon="6.74142">
        <ele>395.4</ele>
        <time>2017-01-15T11:40:54.999Z</time>
      </trkpt>
      <trkpt lat="47.50147" lon="6.74146">
        <ele>395.5</ele>
        <time>2017-01-15T11:40:55.999Z</time>
      </trkpt>
      <trkpt lat="47.50148" lon="6.7415">
        <ele>395.7</ele>
        <time>2017-01-15T11:40:56.999Z</time>
      </trkpt>
      <trkpt lat="47.5015" lon="6.74155">
        <ele>395.8</ele>
        <time>2017-01-15T11:40:57.999Z</time>
      </trkpt>
      <trkpt lat="47.50151" lon="6.74159">
        <ele>395.9</ele>
        <time>2017-01-15T11:40:58.999Z</time>
      </trkpt>
      <trkpt lat="47.50153" lon="6.74165">
        <ele>396.1</ele>
        <time>2017-01-15T11:40:59.999Z</time>
      </trkpt>
      <trkpt lat="47.50154" lon="6.74169">
        <ele>396.3</ele>
        <time>2017-01-15T11:41:00.999Z</time>
      </trkpt>
      <trkpt lat="47.50156" lon="6.74174">
        <ele>396.5</ele>
        <time>2017-01-15T11:41:01.999Z</time>
      </trkpt>
      <trkpt lat="47.50158" lon="6.74177">
        <ele>396.6</ele>
        <time>2017-01-15T11:41:02.999Z</time>
      </trkpt>
      <trkpt lat="47.50159" lon="6.7418">
        <ele>396.8</ele>
        <time>2017-01-15T11:41:03.999Z</time>
      </trkpt>
      <trkpt lat="47.50161" lon="6.74184">
        <ele>397</ele>
        <time>2017-01-15T11:41:04.999Z</time>
      </trkpt>
      <trkpt lat="47.50163" lon="6.74188">
        <ele>397.1</ele>
        <time>2017-01-15T11:41:05.999Z</time>
      </trkpt>
      <trkpt lat="47.50165" lon="6.74193">
        <ele>397.1</ele>
        <time>2017-01-15T11:41:06.999Z</time>
      </trkpt>
      <trkpt lat="47.50167" lon="6.74197">
        <ele>397.2</ele>
        <time>2017-01-15T11:41:07.999Z</time>
      </trkpt>
      <trkpt lat="47.50169" lon="6.74201">
        <ele>397.3</ele>
        <time>2017-01-15T11:41:08.999Z</time>
      </trkpt>
      <trkpt lat="47.50171" lon="6.74206">
        <ele>398</ele>
        <time>2017-01-15T11:41:09.999Z</time>
      </trkpt>
      <trkpt lat="47.50173" lon="6.74211">
        <ele>398.5</ele>
        <time>2017-01-15T11:41:10.999Z</time>
      </trkpt>
      <trkpt lat="47.50176" lon="6.74216">
        <ele>399</ele>
        <time>2017-01-15T11:41:11.999Z</time>
      </trkpt>
      <trkpt lat="47.50178" lon="6.74222">
        <ele>399.3</ele>
        <time>2017-01-15T11:41:12.999Z</time>
      </trkpt>
      <trkpt lat="47.50181" lon="6.74228">
        <ele>399.6</ele>
        <time>2017-01-15T11:41:13.999Z</time>
      </trkpt>
      <trkpt lat="47.50183" lon="6.74234">
        <ele>400</ele>
        <time>2017-01-15T11:41:14.999Z</time>
      </trkpt>
      <trkpt lat="47.50186" lon="6.7424">
        <ele>400.3</ele>
        <time>2017-01-15T11:41:15.999Z</time>
      </trkpt>
      <trkpt lat="47.50189" lon="6.74246">
        <ele>400.6</ele>
        <time>2017-01-15T11:41:16.999Z</time>
      </trkpt>
      <trkpt lat="47.50192" lon="6.74252">
        <ele>400.8</ele>
        <time>2017-01-15T11:41:17.999Z</time>
      </trkpt>
      <trkpt lat="47.50195" lon="6.74258">
        <ele>401.2</ele>
        <time>2017-01-15T11:41:18.999Z</time>
      </trkpt>
      <trkpt lat="47.50199" lon="6.74265">
        <ele>402</ele>
        <time>2017-01-15T11:41:19.999Z</time>
      </trkpt>
      <trkpt lat="47.50203" lon="6.74272">
        <ele>402.6</ele>
        <time>2017-01-15T11:41:20.999Z</time>
      </trkpt>
      <trkpt lat="47.50207" lon="6.74279">
        <ele>403.3</ele>
        <time>2017-01-15T11:41:21.999Z</time>
      </trkpt>
      <trkpt lat="47.50212" lon="6.74286">
        <ele>403.5</ele>
        <time>2017-01-15T11:41:22.999Z</time>
      </trkpt>
      <trkpt lat="47.50216" lon="6.74292">
        <ele>403.6</ele>
        <time>2017-01-15T11:41:23.999Z</time>
      </trkpt>
      <trkpt lat="47.50219" lon="6.74298">
        <ele>403.5</ele>
        <time>2017-01-15T11:41:24.999Z</time>
      </trkpt>
      <trkpt lat="47.50223" lon="6.74304">
        <ele>403.1</ele>
        <time>2017-01-15T11:41:25.999Z</time>
      </trkpt>
      <trkpt lat="47.50227" lon="6.7431">
        <ele>402.8</ele>
        <time>2017-01-15T11:41:26.999Z</time>
      </trkpt>
      <trkpt lat="47.50231" lon="6.74316">
        <ele>402.4</ele>
        <time>2017-01-15T11:41:27.999Z</time>
      </trkpt>
      <trkpt lat="47.50235" lon="6.74322">
        <ele>402.3</ele>
        <time>2017-01-15T11:41:28.999Z</time>
      </trkpt>
      <trkpt lat="47.50239" lon="6.74328">
        <ele>401.4</ele>
        <time>2017-01-15T11:41:29.999Z</time>
      </trkpt>
      <trkpt lat="47.50243" lon="6.74335">
        <ele>401.2</ele>
        <time>2017-01-15T11:41:30.999Z</time>
      </trkpt>
      <trkpt lat="47.50247" lon="6.74343">
        <ele>400.6</ele>
        <time>2017-01-15T11:41:31.999Z</time>
      </trkpt>
      <trkpt lat="47.50251" lon="6.7435">
        <ele>399.7</ele>
        <time>2017-01-15T11:41:32.999Z</time>
      </trkpt>
      <trkpt lat="47.50254" lon="6.74356">
        <ele>398.6</ele>
        <time>2017-01-15T11:41:33.999Z</time>
      </trkpt>
      <trkpt lat="47.50258" lon="6.74364">
        <ele>397.2</ele>
        <time>2017-01-15T11:41:34.999Z</time>
      </trkpt>
      <trkpt lat="47.50261" lon="6.74373">
        <ele>396.2</ele>
        <time>2017-01-15T11:41:35.999Z</time>
      </trkpt>
      <trkpt lat="47.50264" lon="6.74381">
        <ele>395</ele>
        <time>2017-01-15T11:41:36.999Z</time>
      </trkpt>
      <trkpt lat="47.50267" lon="6.74388">
        <ele>393.7</ele>
        <time>2017-01-15T11:41:37.999Z</time>
      </trkpt>
      <trkpt lat="47.50269" lon="6.74395">
        <ele>392.7</ele>
        <time>2017-01-15T11:41:38.999Z</time>
      </trkpt>
      <trkpt lat="47.50272" lon="6.74403">
        <ele>392</ele>
        <time>2017-01-15T11:41:39.999Z</time>
      </trkpt>
      <trkpt lat="47.50275" lon="6.74411">
        <ele>391.6</ele>
        <time>2017-01-15T11:41:40.999Z</time>
      </trkpt>
      <trkpt lat="47.50278" lon="6.74419">
        <ele>391.8</ele>
        <time>2017-01-15T11:41:41.999Z</time>
      </trkpt>
      <trkpt lat="47.5028" lon="6.74427">
        <ele>391.8</ele>
        <time>2017-01-15T11:41:42.999Z</time>
      </trkpt>
      <trkpt lat="47.50283" lon="6.74435">
        <ele>391.7</ele>
        <time>2017-01-15T11:41:43.999Z</time>
      </trkpt>
      <trkpt lat="47.50285" lon="6.74443">
        <ele>391.6</ele>
        <time>2017-01-15T11:41:44.999Z</time>
      </trkpt>
      <trkpt lat="47.50286" lon="6.74452">
        <ele>391.6</ele>
        <time>2017-01-15T11:41:45.999Z</time>
      </trkpt>
      <trkpt lat="47.50288" lon="6.74461">
        <ele>391.8</ele>
        <time>2017-01-15T11:41:46.999Z</time>
      </trkpt>
      <trkpt lat="47.50289" lon="6.7447">
        <ele>391.6</ele>
        <time>2017-01-15T11:41:47.999Z</time>
      </trkpt>
      <trkpt lat="47.5029" lon="6.74481">
        <ele>391.2</ele>
        <time>2017-01-15T11:41:48.999Z</time>
      </trkpt>
      <trkpt lat="47.50291" lon="6.74491">
        <ele>391.5</ele>
        <time>2017-01-15T11:41:49.999Z</time>
      </trkpt>
      <trkpt lat="47.50291" lon="6.74503">
        <ele>391.5</ele>
        <time>2017-01-15T11:41:50.999Z</time>
      </trkpt>
      <trkpt lat="47.50291" lon="6.74513">
        <ele>391.7</ele>
        <time>2017-01-15T11:41:51.999Z</time>
      </trkpt>
      <trkpt lat="47.50291" lon="6.74522">
        <ele>392</ele>
        <time>2017-01-15T11:41:52.999Z</time>
      </trkpt>
      <trkpt lat="47.50291" lon="6.74532">
        <ele>392</ele>
        <time>2017-01-15T11:41:53.999Z</time>
      </trkpt>
      <trkpt lat="47.50291" lon="6.74542">
        <ele>392</ele>
        <time>2017-01-15T11:41:54.999Z</time>
      </trkpt>
      <trkpt lat="47.50291" lon="6.74551">
        <ele>391.8</ele>
        <time>2017-01-15T11:41:55.999Z</time>
      </trkpt>
      <trkpt lat="47.5029" lon="6.74561">
        <ele>392.2</ele>
        <time>2017-01-15T11:41:56.999Z</time>
      </trkpt>
      <trkpt lat="47.5029" lon="6.74571">
        <ele>392.4</ele>
        <time>2017-01-15T11:41:57.999Z</time>
      </trkpt>
      <trkpt lat="47.50289" lon="6.74581">
        <ele>392.2</ele>
        <time>2017-01-15T11:41:58.999Z</time>
      </trkpt>
      <trkpt lat="47.50289" lon="6.74591">
        <ele>392.2</ele>
        <time>2017-01-15T11:41:59.999Z</time>
      </trkpt>
      <trkpt lat="47.50289" lon="6.74601">
        <ele>392.1</ele>
        <time>2017-01-15T11:42:00.999Z</time>
      </trkpt>
      <trkpt lat="47.50288" lon="6.74613">
        <ele>391.7</ele>
        <time>2017-01-15T11:42:01.999Z</time>
      </trkpt>
      <trkpt lat="47.50288" lon="6.74624">
        <ele>391.4</ele>
        <time>2017-01-15T11:42:02.999Z</time>
      </trkpt>
      <trkpt lat="47.50288" lon="6.74635">
        <ele>391.2</ele>
        <time>2017-01-15T11:42:03.999Z</time>
      </trkpt>
      <trkpt lat="47.50287" lon="6.74644">
        <ele>390.8</ele>
        <time>2017-01-15T11:42:04.999Z</time>
      </trkpt>
      <trkpt lat="47.50287" lon="6.74654">
        <ele>390.3</ele>
        <time>2017-01-15T11:42:05.999Z</time>
      </trkpt>
      <trkpt lat="47.50287" lon="6.74664">
        <ele>389.6</ele>
        <time>2017-01-15T11:42:06.999Z</time>
      </trkpt>
      <trkpt lat="47.50287" lon="6.74674">
        <ele>388.8</ele>
        <time>2017-01-15T11:42:07.999Z</time>
      </trkpt>
      <trkpt lat="47.50287" lon="6.74683">
        <ele>388.6</ele>
        <time>2017-01-15T11:42:08.999Z</time>
      </trkpt>
      <trkpt lat="47.50287" lon="6.74693">
        <ele>388.5</ele>
        <time>2017-01-15T11:42:09.999Z</time>
      </trkpt>
      <trkpt lat="47.50287" lon="6.74703">
        <ele>388.6</ele>
        <time>2017-01-15T11:42:10.999Z</time>
      </trkpt>
      <trkpt lat="47.50286" lon="6.74712">
        <ele>387.9</ele>
        <time>2017-01-15T11:42:11.999Z</time>
      </trkpt>
      <trkpt lat="47.50286" lon="6.74723">
        <ele>387.3</ele>
        <time>2017-01-15T11:42:12.999Z</time>
      </trkpt>
      <trkpt lat="47.50284" lon="6.74733">
        <ele>386.4</ele>
        <time>2017-01-15T11:42:13.999Z</time>
      </trkpt>
      <trkpt lat="47.50283" lon="6.74743">
        <ele>386.1</ele>
        <time>2017-01-15T11:42:14.999Z</time>
      </trkpt>
      <trkpt lat="47.50281" lon="6.74754">
        <ele>385.6</ele>
        <time>2017-01-15T11:42:15.999Z</time>
      </trkpt>
      <trkpt lat="47.50279" lon="6.74764">
        <ele>385.3</ele>
        <time>2017-01-15T11:42:16.999Z</time>
      </trkpt>
      <trkpt lat="47.50276" lon="6.74773">
        <ele>385.3</ele>
        <time>2017-01-15T11:42:17.999Z</time>
      </trkpt>
      <trkpt lat="47.50274" lon="6.74782">
        <ele>385.2</ele>
        <time>2017-01-15T11:42:18.999Z</time>
      </trkpt>
      <trkpt lat="47.50271" lon="6.74792">
        <ele>385.3</ele>
        <time>2017-01-15T11:42:19.999Z</time>
      </trkpt>
      <trkpt lat="47.50269" lon="6.74802">
        <ele>385.8</ele>
        <time>2017-01-15T11:42:20.999Z</time>
      </trkpt>
      <trkpt lat="47.50266" lon="6.74812">
        <ele>386.2</ele>
        <time>2017-01-15T11:42:21.999Z</time>
      </trkpt>
      <trkpt lat="47.50263" lon="6.74821">
        <ele>386.4</ele>
        <time>2017-01-15T11:42:22.999Z</time>
      </trkpt>
      <trkpt lat="47.5026" lon="6.74831">
        <ele>387.1</ele>
        <time>2017-01-15T11:42:23.999Z</time>
      </trkpt>
      <trkpt lat="47.50257" lon="6.7484">
        <ele>387.7</ele>
        <time>2017-01-15T11:42:24.999Z</time>
      </trkpt>
      <trkpt lat="47.50254" lon="6.7485">
        <ele>387.5</ele>
        <time>2017-01-15T11:42:25.999Z</time>
      </trkpt>
      <trkpt lat="47.50251" lon="6.7486">
        <ele>387</ele>
        <time>2017-01-15T11:42:26.999Z</time>
      </trkpt>
      <trkpt lat="47.50248" lon="6.74872">
        <ele>386.2</ele>
        <time>2017-01-15T11:42:27.999Z</time>
      </trkpt>
      <trkpt lat="47.50245" lon="6.74882">
        <ele>385.3</ele>
        <time>2017-01-15T11:42:28.999Z</time>
      </trkpt>
      <trkpt lat="47.50243" lon="6.74892">
        <ele>384.4</ele>
        <time>2017-01-15T11:42:29.999Z</time>
      </trkpt>
      <trkpt lat="47.50241" lon="6.74902">
        <ele>383.6</ele>
        <time>2017-01-15T11:42:30.999Z</time>
      </trkpt>
      <trkpt lat="47.50239" lon="6.74914">
        <ele>382.6</ele>
        <time>2017-01-15T11:42:31.999Z</time>
      </trkpt>
      <trkpt lat="47.50237" lon="6.74925">
        <ele>381.8</ele>
        <time>2017-01-15T11:42:32.999Z</time>
      </trkpt>
      <trkpt lat="47.50233" lon="6.74934">
        <ele>380.5</ele>
        <time>2017-01-15T11:42:33.999Z</time>
      </trkpt>
      <trkpt lat="47.5023" lon="6.74943">
        <ele>380.1</ele>
        <time>2017-01-15T11:42:34.999Z</time>
      </trkpt>
      <trkpt lat="47.50225" lon="6.7495">
        <ele>379.3</ele>
        <time>2017-01-15T11:42:35.999Z</time>
      </trkpt>
      <trkpt lat="47.5022" lon="6.74957">
        <ele>377.9</ele>
        <time>2017-01-15T11:42:36.999Z</time>
      </trkpt>
      <trkpt lat="47.50215" lon="6.74963">
        <ele>377</ele>
        <time>2017-01-15T11:42:37.999Z</time>
      </trkpt>
      <trkpt lat="47.5021" lon="6.7497">
        <ele>376.1</ele>
        <time>2017-01-15T11:42:38.999Z</time>
      </trkpt>
      <trkpt lat="47.50205" lon="6.74979">
        <ele>375.3</ele>
        <time>2017-01-15T11:42:39.999Z</time>
      </trkpt>
      <trkpt lat="47.50201" lon="6.74988">
        <ele>374.9</ele>
        <time>2017-01-15T11:42:40.999Z</time>
      </trkpt>
      <trkpt lat="47.50198" lon="6.74997">
        <ele>374.4</ele>
        <time>2017-01-15T11:42:41.999Z</time>
      </trkpt>
      <trkpt lat="47.50196" lon="6.75007">
        <ele>374</ele>
        <time>2017-01-15T11:42:42.999Z</time>
      </trkpt>
      <trkpt lat="47.50193" lon="6.75016">
        <ele>373.4</ele>
        <time>2017-01-15T11:42:43.999Z</time>
      </trkpt>
      <trkpt lat="47.50191" lon="6.75026">
        <ele>374</ele>
        <time>2017-01-15T11:42:44.999Z</time>
      </trkpt>
      <trkpt lat="47.5019" lon="6.75037">
        <ele>375.1</ele>
        <time>2017-01-15T11:42:45.999Z</time>
      </trkpt>
      <trkpt lat="47.50189" lon="6.75047">
        <ele>375.9</ele>
        <time>2017-01-15T11:42:46.999Z</time>
      </trkpt>
      <trkpt lat="47.50187" lon="6.75058">
        <ele>376.5</ele>
        <time>2017-01-15T11:42:47.999Z</time>
      </trkpt>
      <trkpt lat="47.50186" lon="6.75068">
        <ele>377.1</ele>
        <time>2017-01-15T11:42:48.999Z</time>
      </trkpt>
      <trkpt lat="47.50185" lon="6.75078">
        <ele>377.6</ele>
        <time>2017-01-15T11:42:49.999Z</time>
      </trkpt>
      <trkpt lat="47.50184" lon="6.75088">
        <ele>377.3</ele>
        <time>2017-01-15T11:42:50.999Z</time>
      </trkpt>
      <trkpt lat="47.50183" lon="6.75096">
        <ele>376.5</ele>
        <time>2017-01-15T11:42:51.999Z</time>
      </trkpt>
      <trkpt lat="47.50184" lon="6.75105">
        <ele>375.8</ele>
        <time>2017-01-15T11:42:52.999Z</time>
      </trkpt>
      <trkpt lat="47.50186" lon="6.75113">
        <ele>374.1</ele>
        <time>2017-01-15T11:42:53.999Z</time>
      </trkpt>
      <trkpt lat="47.5019" lon="6.75118">
        <ele>372.6</ele>
        <time>2017-01-15T11:42:54.999Z</time>
      </trkpt>
      <trkpt lat="47.50193" lon="6.75122">
        <ele>371.6</ele>
        <time>2017-01-15T11:42:55.999Z</time>
      </trkpt>
      <trkpt lat="47.50198" lon="6.75124">
        <ele>370.8</ele>
        <time>2017-01-15T11:42:56.999Z</time>
      </trkpt>
      <trkpt lat="47.50201" lon="6.75126">
        <ele>370.2</ele>
        <time>2017-01-15T11:42:57.999Z</time>
      </trkpt>
      <trkpt lat="47.50206" lon="6.7513">
        <ele>370</ele>
        <time>2017-01-15T11:42:58.999Z</time>
      </trkpt>
      <trkpt lat="47.50209" lon="6.75133">
        <ele>370.5</ele>
        <time>2017-01-15T11:42:59.999Z</time>
      </trkpt>
      <trkpt lat="47.50213" lon="6.75138">
        <ele>370.6</ele>
        <time>2017-01-15T11:43:00.999Z</time>
      </trkpt>
      <trkpt lat="47.50218" lon="6.75142">
        <ele>370.2</ele>
        <time>2017-01-15T11:43:01.999Z</time>
      </trkpt>
      <trkpt lat="47.50221" lon="6.75145">
        <ele>370.3</ele>
        <time>2017-01-15T11:43:02.999Z</time>
      </trkpt>
      <trkpt lat="47.50224" lon="6.75149">
        <ele>370.3</ele>
        <time>2017-01-15T11:43:03.999Z</time>
      </trkpt>
      <trkpt lat="47.50228" lon="6.75154">
        <ele>370.2</ele>
        <time>2017-01-15T11:43:04.999Z</time>
      </trkpt>
      <trkpt lat="47.50232" lon="6.75159">
        <ele>370.1</ele>
        <time>2017-01-15T11:43:05.999Z</time>
      </trkpt>
      <trkpt lat="47.50236" lon="6.75162">
        <ele>370.3</ele>
        <time>2017-01-15T11:43:06.999Z</time>
      </trkpt>
      <trkpt lat="47.50239" lon="6.75166">
        <ele>370.9</ele>
        <time>2017-01-15T11:43:07.999Z</time>
      </trkpt>
      <trkpt lat="47.50243" lon="6.7517">
        <ele>371.1</ele>
        <time>2017-01-15T11:43:08.999Z</time>
      </trkpt>
      <trkpt lat="47.50246" lon="6.75174">
        <ele>371.6</ele>
        <time>2017-01-15T11:43:09.999Z</time>
      </trkpt>
      <trkpt lat="47.50249" lon="6.75176">
        <ele>371.5</ele>
        <time>2017-01-15T11:43:10.999Z</time>
      </trkpt>
      <trkpt lat="47.50253" lon="6.75179">
        <ele>371.3</ele>
        <time>2017-01-15T11:43:11.999Z</time>
      </trkpt>
      <trkpt lat="47.50257" lon="6.7518">
        <ele>371.7</ele>
        <time>2017-01-15T11:43:12.999Z</time>
      </trkpt>
      <trkpt lat="47.50261" lon="6.75181">
        <ele>372.3</ele>
        <time>2017-01-15T11:43:13.999Z</time>
      </trkpt>
      <trkpt lat="47.50265" lon="6.75181">
        <ele>372.4</ele>
        <time>2017-01-15T11:43:14.999Z</time>
      </trkpt>
      <trkpt lat="47.50269" lon="6.7518">
        <ele>372</ele>
        <time>2017-01-15T11:43:15.999Z</time>
      </trkpt>
      <trkpt lat="47.50273" lon="6.7518">
        <ele>371.8</ele>
        <time>2017-01-15T11:43:16.999Z</time>
      </trkpt>
      <trkpt lat="47.50278" lon="6.75179">
        <ele>371.8</ele>
        <time>2017-01-15T11:43:17.999Z</time>
      </trkpt>
      <trkpt lat="47.50284" lon="6.75178">
        <ele>372.3</ele>
        <time>2017-01-15T11:43:18.999Z</time>
      </trkpt>
      <trkpt lat="47.50289" lon="6.75178">
        <ele>372.3</ele>
        <time>2017-01-15T11:43:19.999Z</time>
      </trkpt>
      <trkpt lat="47.50295" lon="6.75177">
        <ele>371.8</ele>
        <time>2017-01-15T11:43:20.999Z</time>
      </trkpt>
      <trkpt lat="47.503" lon="6.75176">
        <ele>371.5</ele>
        <time>2017-01-15T11:43:21.999Z</time>
      </trkpt>
      <trkpt lat="47.50305" lon="6.75175">
        <ele>370.7</ele>
        <time>2017-01-15T11:43:22.999Z</time>
      </trkpt>
      <trkpt lat="47.50309" lon="6.75175">
        <ele>369</ele>
        <time>2017-01-15T11:43:23.999Z</time>
      </trkpt>
      <trkpt lat="47.50314" lon="6.75175">
        <ele>368.2</ele>
        <time>2017-01-15T11:43:24.999Z</time>
      </trkpt>
      <trkpt lat="47.50318" lon="6.75174">
        <ele>368.2</ele>
        <time>2017-01-15T11:43:25.999Z</time>
      </trkpt>
      <trkpt lat="47.50323" lon="6.75174">
        <ele>368.3</ele>
        <time>2017-01-15T11:43:26.999Z</time>
      </trkpt>
      <trkpt lat="47.50328" lon="6.75174">
        <ele>367.8</ele>
        <time>2017-01-15T11:43:27.999Z</time>
      </trkpt>
      <trkpt lat="47.50334" lon="6.75174">
        <ele>367.7</ele>
        <time>2017-01-15T11:43:28.999Z</time>
      </trkpt>
      <trkpt lat="47.5034" lon="6.75174">
        <ele>367.9</ele>
        <time>2017-01-15T11:43:29.999Z</time>
      </trkpt>
      <trkpt lat="47.50345" lon="6.75174">
        <ele>368.2</ele>
        <time>2017-01-15T11:43:30.999Z</time>
      </trkpt>
      <trkpt lat="47.5035" lon="6.75173">
        <ele>367.8</ele>
        <time>2017-01-15T11:43:31.999Z</time>
      </trkpt>
      <trkpt lat="47.50356" lon="6.75173">
        <ele>367.9</ele>
        <time>2017-01-15T11:43:32.999Z</time>
      </trkpt>
      <trkpt lat="47.50363" lon="6.75173">
        <ele>368.6</ele>
        <time>2017-01-15T11:43:33.999Z</time>
      </trkpt>
      <trkpt lat="47.5037" lon="6.75173">
        <ele>368.9</ele>
        <time>2017-01-15T11:43:34.999Z</time>
      </trkpt>
      <trkpt lat="47.50376" lon="6.75172">
        <ele>369.2</ele>
        <time>2017-01-15T11:43:35.999Z</time>
      </trkpt>
      <trkpt lat="47.50382" lon="6.75171">
        <ele>369.4</ele>
        <time>2017-01-15T11:43:36.999Z</time>
      </trkpt>
      <trkpt lat="47.50387" lon="6.75171">
        <ele>369.3</ele>
        <time>2017-01-15T11:43:37.999Z</time>
      </trkpt>
      <trkpt lat="47.50392" lon="6.75171">
        <ele>369.7</ele>
        <time>2017-01-15T11:43:38.999Z</time>
      </trkpt>
      <trkpt lat="47.50397" lon="6.75171">
        <ele>370.4</ele>
        <time>2017-01-15T11:43:39.999Z</time>
      </trkpt>
      <trkpt lat="47.50402" lon="6.7517">
        <ele>370.6</ele>
        <time>2017-01-15T11:43:40.999Z</time>
      </trkpt>
      <trkpt lat="47.50406" lon="6.7517">
        <ele>371.1</ele>
        <time>2017-01-15T11:43:41.999Z</time>
      </trkpt>
      <trkpt lat="47.50412" lon="6.75169">
        <ele>370.7</ele>
        <time>2017-01-15T11:43:42.999Z</time>
      </trkpt>
      <trkpt lat="47.50417" lon="6.75168">
        <ele>370.6</ele>
        <time>2017-01-15T11:43:43.999Z</time>
      </trkpt>
      <trkpt lat="47.50422" lon="6.75167">
        <ele>370</ele>
        <time>2017-01-15T11:43:44.999Z</time>
      </trkpt>
      <trkpt lat="47.50427" lon="6.75167">
        <ele>369.7</ele>
        <time>2017-01-15T11:43:45.999Z</time>
      </trkpt>
      <trkpt lat="47.50433" lon="6.75167">
        <ele>369.4</ele>
        <time>2017-01-15T11:43:46.999Z</time>
      </trkpt>
      <trkpt lat="47.50438" lon="6.75168">
        <ele>367.7</ele>
        <time>2017-01-15T11:43:47.999Z</time>
      </trkpt>
      <trkpt lat="47.50443" lon="6.75167">
        <ele>366.7</ele>
        <time>2017-01-15T11:43:48.999Z</time>
      </trkpt>
      <trkpt lat="47.50448" lon="6.75167">
        <ele>365.3</ele>
        <time>2017-01-15T11:43:49.999Z</time>
      </trkpt>
      <trkpt lat="47.50453" lon="6.75167">
        <ele>364.4</ele>
        <time>2017-01-15T11:43:50.999Z</time>
      </trkpt>
      <trkpt lat="47.50457" lon="6.75167">
        <ele>364.1</ele>
        <time>2017-01-15T11:43:51.999Z</time>
      </trkpt>
      <trkpt lat="47.50462" lon="6.75167">
        <ele>363.8</ele>
        <time>2017-01-15T11:43:52.999Z</time>
      </trkpt>
      <trkpt lat="47.50466" lon="6.75167">
        <ele>363.5</ele>
        <time>2017-01-15T11:43:53.999Z</time>
      </trkpt>
      <trkpt lat="47.5047" lon="6.75168">
        <ele>363.1</ele>
        <time>2017-01-15T11:43:54.999Z</time>
      </trkpt>
      <trkpt lat="47.50474" lon="6.75168">
        <ele>363.4</ele>
        <time>2017-01-15T11:43:55.999Z</time>
      </trkpt>
      <trkpt lat="47.50476" lon="6.75172">
        <ele>363.4</ele>
        <time>2017-01-15T11:43:56.999Z</time>
      </trkpt>
      <trkpt lat="47.50478" lon="6.75177">
        <ele>363.8</ele>
        <time>2017-01-15T11:43:57.999Z</time>
      </trkpt>
      <trkpt lat="47.50479" lon="6.75184">
        <ele>363.7</ele>
        <time>2017-01-15T11:43:58.999Z</time>
      </trkpt>
      <trkpt lat="47.5048" lon="6.75192">
        <ele>363.8</ele>
        <time>2017-01-15T11:43:59.999Z</time>
      </trkpt>
      <trkpt lat="47.50481" lon="6.752">
        <ele>363.7</ele>
        <time>2017-01-15T11:44:00.999Z</time>
      </trkpt>
      <trkpt lat="47.50482" lon="6.75208">
        <ele>363.5</ele>
        <time>2017-01-15T11:44:01.999Z</time>
      </trkpt>
      <trkpt lat="47.50483" lon="6.75217">
        <ele>363.7</ele>
        <time>2017-01-15T11:44:02.999Z</time>
      </trkpt>
      <trkpt lat="47.50484" lon="6.75225">
        <ele>363.7</ele>
        <time>2017-01-15T11:44:03.999Z</time>
      </trkpt>
      <trkpt lat="47.50485" lon="6.75232">
        <ele>362.7</ele>
        <time>2017-01-15T11:44:04.999Z</time>
      </trkpt>
      <trkpt lat="47.50486" lon="6.75239">
        <ele>362.3</ele>
        <time>2017-01-15T11:44:05.999Z</time>
      </trkpt>
      <trkpt lat="47.50488" lon="6.75245">
        <ele>361.6</ele>
        <time>2017-01-15T11:44:06.999Z</time>
      </trkpt>
      <trkpt lat="47.50489" lon="6.75251">
        <ele>361.7</ele>
        <time>2017-01-15T11:44:07.999Z</time>
      </trkpt>
      <trkpt lat="47.5049" lon="6.75257">
        <ele>362.7</ele>
        <time>2017-01-15T11:44:08.999Z</time>
      </trkpt>
      <trkpt lat="47.5049" lon="6.75262">
        <ele>362.7</ele>
        <time>2017-01-15T11:44:09.999Z</time>
      </trkpt>
      <trkpt lat="47.50491" lon="6.75267">
        <ele>362.8</ele>
        <time>2017-01-15T11:44:10.999Z</time>
      </trkpt>
      <trkpt lat="47.50492" lon="6.75274">
        <ele>363.1</ele>
        <time>2017-01-15T11:44:11.999Z</time>
      </trkpt>
      <trkpt lat="47.50493" lon="6.7528">
        <ele>363.2</ele>
        <time>2017-01-15T11:44:12.999Z</time>
      </trkpt>
      <trkpt lat="47.50495" lon="6.75287">
        <ele>364.1</ele>
        <time>2017-01-15T11:44:13.999Z</time>
      </trkpt>
      <trkpt lat="47.50496" lon="6.75291">
        <ele>364.2</ele>
        <time>2017-01-15T11:44:14.999Z</time>
      </trkpt>
      <trkpt lat="47.50497" lon="6.75296">
        <ele>364.1</ele>
        <time>2017-01-15T11:44:15.999Z</time>
      </trkpt>
      <trkpt lat="47.50498" lon="6.75301">
        <ele>364.1</ele>
        <time>2017-01-15T11:44:16.999Z</time>
      </trkpt>
      <trkpt lat="47.50499" lon="6.75309">
        <ele>364.2</ele>
        <time>2017-01-15T11:44:17.999Z</time>
      </trkpt>
      <trkpt lat="47.505" lon="6.75315">
        <ele>364.2</ele>
        <time>2017-01-15T11:44:18.999Z</time>
      </trkpt>
      <trkpt lat="47.50501" lon="6.75321">
        <ele>364.1</ele>
        <time>2017-01-15T11:44:19.999Z</time>
      </trkpt>
      <trkpt lat="47.50501" lon="6.75324">
        <ele>364.1</ele>
        <time>2017-01-15T11:44:20.999Z</time>
      </trkpt>
      <trkpt lat="47.50502" lon="6.7533">
        <ele>364.2</ele>
        <time>2017-01-15T11:44:21.999Z</time>
      </trkpt>
      <trkpt lat="47.50503" lon="6.75335">
        <ele>364.3</ele>
        <time>2017-01-15T11:44:22.999Z</time>
      </trkpt>
      <trkpt lat="47.50505" lon="6.75341">
        <ele>365.5</ele>
        <time>2017-01-15T11:44:23.999Z</time>
      </trkpt>
      <trkpt lat="47.50507" lon="6.75347">
        <ele>365.6</ele>
        <time>2017-01-15T11:44:24.999Z</time>
      </trkpt>
      <trkpt lat="47.50509" lon="6.75349">
        <ele>365.2</ele>
        <time>2017-01-15T11:44:25.999Z</time>
      </trkpt>
      <trkpt lat="47.50512" lon="6.75353">
        <ele>365.3</ele>
        <time>2017-01-15T11:44:26.999Z</time>
      </trkpt>
      <trkpt lat="47.50515" lon="6.75357">
        <ele>365.3</ele>
        <time>2017-01-15T11:44:27.999Z</time>
      </trkpt>
      <trkpt lat="47.50517" lon="6.75358">
        <ele>365.4</ele>
        <time>2017-01-15T11:44:28.999Z</time>
      </trkpt>
      <trkpt lat="47.5052" lon="6.75359">
        <ele>365.5</ele>
        <time>2017-01-15T11:44:29.999Z</time>
      </trkpt>
      <trkpt lat="47.50522" lon="6.75363">
        <ele>366.6</ele>
        <time>2017-01-15T11:44:30.999Z</time>
      </trkpt>
      <trkpt lat="47.50526" lon="6.75366">
        <ele>366.6</ele>
        <time>2017-01-15T11:44:31.999Z</time>
      </trkpt>
      <trkpt lat="47.5053" lon="6.75367">
        <ele>366.8</ele>
        <time>2017-01-15T11:44:32.999Z</time>
      </trkpt>
      <trkpt lat="47.50534" lon="6.75371">
        <ele>367.9</ele>
        <time>2017-01-15T11:44:33.999Z</time>
      </trkpt>
      <trkpt lat="47.50537" lon="6.75373">
        <ele>368</ele>
        <time>2017-01-15T11:44:34.999Z</time>
      </trkpt>
      <trkpt lat="47.50541" lon="6.75375">
        <ele>368.1</ele>
        <time>2017-01-15T11:44:35.999Z</time>
      </trkpt>
      <trkpt lat="47.50545" lon="6.75377">
        <ele>368.1</ele>
        <time>2017-01-15T11:44:36.999Z</time>
      </trkpt>
      <trkpt lat="47.50548" lon="6.75379">
        <ele>368</ele>
        <time>2017-01-15T11:44:37.999Z</time>
      </trkpt>
      <trkpt lat="47.50552" lon="6.75381">
        <ele>367.4</ele>
        <time>2017-01-15T11:44:38.999Z</time>
      </trkpt>
      <trkpt lat="47.50555" lon="6.75383">
        <ele>367.4</ele>
        <time>2017-01-15T11:44:39.999Z</time>
      </trkpt>
      <trkpt lat="47.50559" lon="6.75385">
        <ele>367.3</ele>
        <time>2017-01-15T11:44:40.999Z</time>
      </trkpt>
      <trkpt lat="47.50563" lon="6.75385">
        <ele>367.3</ele>
        <time>2017-01-15T11:44:41.999Z</time>
      </trkpt>
      <trkpt lat="47.50567" lon="6.75385">
        <ele>367.3</ele>
        <time>2017-01-15T11:44:42.999Z</time>
      </trkpt>
      <trkpt lat="47.50571" lon="6.75386">
        <ele>367.3</ele>
        <time>2017-01-15T11:44:43.999Z</time>
      </trkpt>
      <trkpt lat="47.50575" lon="6.75387">
        <ele>367.2</ele>
        <time>2017-01-15T11:44:44.999Z</time>
      </trkpt>
      <trkpt lat="47.5058" lon="6.75389">
        <ele>367.2</ele>
        <time>2017-01-15T11:44:45.999Z</time>
      </trkpt>
      <trkpt lat="47.50585" lon="6.7539">
        <ele>367.2</ele>
        <time>2017-01-15T11:44:46.999Z</time>
      </trkpt>
      <trkpt lat="47.50588" lon="6.7539">
        <ele>367.2</ele>
        <time>2017-01-15T11:44:47.999Z</time>
      </trkpt>
      <trkpt lat="47.50591" lon="6.75389">
        <ele>367.2</ele>
        <time>2017-01-15T11:44:48.999Z</time>
      </trkpt>
      <trkpt lat="47.50595" lon="6.75391">
        <ele>367.2</ele>
        <time>2017-01-15T11:44:49.999Z</time>
      </trkpt>
      <trkpt lat="47.50599" lon="6.75392">
        <ele>367.2</ele>
        <time>2017-01-15T11:44:50.999Z</time>
      </trkpt>
      <trkpt lat="47.50603" lon="6.75392">
        <ele>367.1</ele>
        <time>2017-01-15T11:44:51.999Z</time>
      </trkpt>
      <trkpt lat="47.50607" lon="6.75393">
        <ele>367</ele>
        <time>2017-01-15T11:44:52.999Z</time>
      </trkpt>
      <trkpt lat="47.50611" lon="6.75393">
        <ele>367</ele>
        <time>2017-01-15T11:44:53.999Z</time>
      </trkpt>
      <trkpt lat="47.50614" lon="6.75394">
        <ele>367</ele>
        <time>2017-01-15T11:44:54.999Z</time>
      </trkpt>
      <trkpt lat="47.50617" lon="6.75394">
        <ele>367.1</ele>
        <time>2017-01-15T11:44:55.999Z</time>
      </trkpt>
      <trkpt lat="47.50621" lon="6.75395">
        <ele>367.1</ele>
        <time>2017-01-15T11:44:56.999Z</time>
      </trkpt>
      <trkpt lat="47.50623" lon="6.75396">
        <ele>367</ele>
        <time>2017-01-15T11:44:57.999Z</time>
      </trkpt>
      <trkpt lat="47.50626" lon="6.75397">
        <ele>367</ele>
        <time>2017-01-15T11:44:58.999Z</time>
      </trkpt>
      <trkpt lat="47.5063" lon="6.75398">
        <ele>367</ele>
        <time>2017-01-15T11:44:59.999Z</time>
      </trkpt>
      <trkpt lat="47.50632" lon="6.75399">
        <ele>367</ele>
        <time>2017-01-15T11:45:00.999Z</time>
      </trkpt>
      <trkpt lat="47.50635" lon="6.75402">
        <ele>367.1</ele>
        <time>2017-01-15T11:45:01.999Z</time>
      </trkpt>
      <trkpt lat="47.50638" lon="6.75403">
        <ele>367.2</ele>
        <time>2017-01-15T11:45:02.999Z</time>
      </trkpt>
      <trkpt lat="47.50641" lon="6.75404">
        <ele>367.2</ele>
        <time>2017-01-15T11:45:03.999Z</time>
      </trkpt>
      <trkpt lat="47.50645" lon="6.75405">
        <ele>367.3</ele>
        <time>2017-01-15T11:45:04.999Z</time>
      </trkpt>
      <trkpt lat="47.50648" lon="6.75406">
        <ele>367.4</ele>
        <time>2017-01-15T11:45:05.999Z</time>
      </trkpt>
      <trkpt lat="47.50651" lon="6.75407">
        <ele>367.6</ele>
        <time>2017-01-15T11:45:07.999Z</time>
      </trkpt>
      <trkpt lat="47.50654" lon="6.75408">
        <ele>367.7</ele>
        <time>2017-01-15T11:45:08.999Z</time>
      </trkpt>
      <trkpt lat="47.50656" lon="6.7541">
        <ele>367.8</ele>
        <time>2017-01-15T11:45:09.999Z</time>
      </trkpt>
      <trkpt lat="47.50659" lon="6.75411">
        <ele>367.9</ele>
        <time>2017-01-15T11:45:10.999Z</time>
      </trkpt>
      <trkpt lat="47.50661" lon="6.75413">
        <ele>368.1</ele>
        <time>2017-01-15T11:45:11.999Z</time>
      </trkpt>
      <trkpt lat="47.50663" lon="6.75415">
        <ele>368.2</ele>
        <time>2017-01-15T11:45:12.999Z</time>
      </trkpt>
      <trkpt lat="47.50665" lon="6.75416">
        <ele>368.4</ele>
        <time>2017-01-15T11:45:13.999Z</time>
      </trkpt>
      <trkpt lat="47.50667" lon="6.75418">
        <ele>368.7</ele>
        <time>2017-01-15T11:45:14.999Z</time>
      </trkpt>
      <trkpt lat="47.5067" lon="6.7542">
        <ele>368.9</ele>
        <time>2017-01-15T11:45:15.999Z</time>
      </trkpt>
      <trkpt lat="47.50671" lon="6.75423">
        <ele>369</ele>
        <time>2017-01-15T11:45:16.999Z</time>
      </trkpt>
      <trkpt lat="47.50673" lon="6.75424">
        <ele>369.2</ele>
        <time>2017-01-15T11:45:17.999Z</time>
      </trkpt>
      <trkpt lat="47.50675" lon="6.75427">
        <ele>369.4</ele>
        <time>2017-01-15T11:45:18.999Z</time>
      </trkpt>
      <trkpt lat="47.50677" lon="6.7543">
        <ele>369.6</ele>
        <time>2017-01-15T11:45:19.999Z</time>
      </trkpt>
      <trkpt lat="47.50679" lon="6.75432">
        <ele>369.8</ele>
        <time>2017-01-15T11:45:20.999Z</time>
      </trkpt>
      <trkpt lat="47.50681" lon="6.75435">
        <ele>370</ele>
        <time>2017-01-15T11:45:21.999Z</time>
      </trkpt>
      <trkpt lat="47.50682" lon="6.75438">
        <ele>370.2</ele>
        <time>2017-01-15T11:45:22.999Z</time>
      </trkpt>
      <trkpt lat="47.50685" lon="6.75442">
        <ele>370.6</ele>
        <time>2017-01-15T11:45:24.999Z</time>
      </trkpt>
      <trkpt lat="47.50686" lon="6.75446">
        <ele>370.8</ele>
        <time>2017-01-15T11:45:25.999Z</time>
      </trkpt>
      <trkpt lat="47.50687" lon="6.75451">
        <ele>371.2</ele>
        <time>2017-01-15T11:45:27.999Z</time>
      </trkpt>
      <trkpt lat="47.50689" lon="6.75454">
        <ele>371.4</ele>
        <time>2017-01-15T11:45:28.999Z</time>
      </trkpt>
      <trkpt lat="47.50691" lon="6.75459">
        <ele>371.9</ele>
        <time>2017-01-15T11:45:30.999Z</time>
      </trkpt>
      <trkpt lat="47.50693" lon="6.75462">
        <ele>372.1</ele>
        <time>2017-01-15T11:45:31.999Z</time>
      </trkpt>
      <trkpt lat="47.50695" lon="6.75467">
        <ele>372.5</ele>
        <time>2017-01-15T11:45:33.999Z</time>
      </trkpt>
      <trkpt lat="47.50696" lon="6.75469">
        <ele>372.7</ele>
        <time>2017-01-15T11:45:34.999Z</time>
      </trkpt>
      <trkpt lat="47.50697" lon="6.75474">
        <ele>373.3</ele>
        <time>2017-01-15T11:45:36.999Z</time>
      </trkpt>
      <trkpt lat="47.50698" lon="6.75478">
        <ele>373.5</ele>
        <time>2017-01-15T11:45:37.999Z</time>
      </trkpt>
      <trkpt lat="47.50699" lon="6.75485">
        <ele>373.8</ele>
        <time>2017-01-15T11:45:39.999Z</time>
      </trkpt>
      <trkpt lat="47.507" lon="6.75487">
        <ele>374</ele>
        <time>2017-01-15T11:45:40.999Z</time>
      </trkpt>
      <trkpt lat="47.50701" lon="6.7549">
        <ele>374.2</ele>
        <time>2017-01-15T11:45:41.999Z</time>
      </trkpt>
      <trkpt lat="47.50702" lon="6.75494">
        <ele>374.5</ele>
        <time>2017-01-15T11:45:42.999Z</time>
      </trkpt>
      <trkpt lat="47.50703" lon="6.75498">
        <ele>374.7</ele>
        <time>2017-01-15T11:45:43.999Z</time>
      </trkpt>
      <trkpt lat="47.50704" lon="6.755">
        <ele>374.9</ele>
        <time>2017-01-15T11:45:44.999Z</time>
      </trkpt>
      <trkpt lat="47.50705" lon="6.75506">
        <ele>375.2</ele>
        <time>2017-01-15T11:45:46.999Z</time>
      </trkpt>
      <trkpt lat="47.50705" lon="6.75509">
        <ele>375.3</ele>
        <time>2017-01-15T11:45:47.999Z</time>
      </trkpt>
      <trkpt lat="47.50706" lon="6.75513">
        <ele>375.7</ele>
        <time>2017-01-15T11:45:49.999Z</time>
      </trkpt>
      <trkpt lat="47.50707" lon="6.75515">
        <ele>375.8</ele>
        <time>2017-01-15T11:45:50.999Z</time>
      </trkpt>
      <trkpt lat="47.50708" lon="6.75521">
        <ele>376.1</ele>
        <time>2017-01-15T11:45:52.999Z</time>
      </trkpt>
      <trkpt lat="47.50709" lon="6.75524">
        <ele>376.2</ele>
        <time>2017-01-15T11:45:53.999Z</time>
      </trkpt>
      <trkpt lat="47.5071" lon="6.7553">
        <ele>376.7</ele>
        <time>2017-01-15T11:45:55.999Z</time>
      </trkpt>
      <trkpt lat="47.50711" lon="6.75533">
        <ele>377</ele>
        <time>2017-01-15T11:45:56.999Z</time>
      </trkpt>
      <trkpt lat="47.50712" lon="6.75536">
        <ele>377.2</ele>
        <time>2017-01-15T11:45:57.999Z</time>
      </trkpt>
      <trkpt lat="47.50713" lon="6.75539">
        <ele>377.5</ele>
        <time>2017-01-15T11:45:58.999Z</time>
      </trkpt>
      <trkpt lat="47.50715" lon="6.75545">
        <ele>377.8</ele>
        <time>2017-01-15T11:46:00.999Z</time>
      </trkpt>
      <trkpt lat="47.50715" lon="6.75549">
        <ele>378</ele>
        <time>2017-01-15T11:46:01.999Z</time>
      </trkpt>
      <trkpt lat="47.50716" lon="6.75555">
        <ele>378.4</ele>
        <time>2017-01-15T11:46:03.999Z</time>
      </trkpt>
      <trkpt lat="47.50717" lon="6.75558">
        <ele>378.6</ele>
        <time>2017-01-15T11:46:04.999Z</time>
      </trkpt>
      <trkpt lat="47.50718" lon="6.75564">
        <ele>378.9</ele>
        <time>2017-01-15T11:46:06.999Z</time>
      </trkpt>
      <trkpt lat="47.50719" lon="6.75566">
        <ele>379.1</ele>
        <time>2017-01-15T11:46:07.999Z</time>
      </trkpt>
      <trkpt lat="47.50722" lon="6.75571">
        <ele>379.4</ele>
        <time>2017-01-15T11:46:09.999Z</time>
      </trkpt>
      <trkpt lat="47.50722" lon="6.75573">
        <ele>379.6</ele>
        <time>2017-01-15T11:46:10.999Z</time>
      </trkpt>
      <trkpt lat="47.50722" lon="6.75576">
        <ele>379.7</ele>
        <time>2017-01-15T11:46:11.999Z</time>
      </trkpt>
      <trkpt lat="47.50723" lon="6.75579">
        <ele>379.9</ele>
        <time>2017-01-15T11:46:12.999Z</time>
      </trkpt>
      <trkpt lat="47.50724" lon="6.75585">
        <ele>380.2</ele>
        <time>2017-01-15T11:46:14.999Z</time>
      </trkpt>
      <trkpt lat="47.50724" lon="6.75587">
        <ele>380.4</ele>
        <time>2017-01-15T11:46:15.999Z</time>
      </trkpt>
      <trkpt lat="47.50725" lon="6.75591">
        <ele>380.5</ele>
        <time>2017-01-15T11:46:16.999Z</time>
      </trkpt>
      <trkpt lat="47.50724" lon="6.75594">
        <ele>380.7</ele>
        <time>2017-01-15T11:46:17.999Z</time>
      </trkpt>
      <trkpt lat="47.50723" lon="6.75598">
        <ele>380.8</ele>
        <time>2017-01-15T11:46:18.999Z</time>
      </trkpt>
      <trkpt lat="47.50723" lon="6.75602">
        <ele>380.9</ele>
        <time>2017-01-15T11:46:19.999Z</time>
      </trkpt>
      <trkpt lat="47.50723" lon="6.75605">
        <ele>381</ele>
        <time>2017-01-15T11:46:20.999Z</time>
      </trkpt>
      <trkpt lat="47.50723" lon="6.75608">
        <ele>381.2</ele>
        <time>2017-01-15T11:46:21.999Z</time>
      </trkpt>
      <trkpt lat="47.50723" lon="6.75613">
        <ele>381.5</ele>
        <time>2017-01-15T11:46:23.999Z</time>
      </trkpt>
      <trkpt lat="47.50723" lon="6.75618">
        <ele>381.6</ele>
        <time>2017-01-15T11:46:24.999Z</time>
      </trkpt>
      <trkpt lat="47.50723" lon="6.75623">
        <ele>381.8</ele>
        <time>2017-01-15T11:46:25.999Z</time>
      </trkpt>
      <trkpt lat="47.50723" lon="6.75627">
        <ele>381.9</ele>
        <time>2017-01-15T11:46:26.999Z</time>
      </trkpt>
      <trkpt lat="47.50723" lon="6.75631">
        <ele>382.1</ele>
        <time>2017-01-15T11:46:27.999Z</time>
      </trkpt>
      <trkpt lat="47.50723" lon="6.75634">
        <ele>382.3</ele>
        <time>2017-01-15T11:46:28.999Z</time>
      </trkpt>
      <trkpt lat="47.50722" lon="6.75639">
        <ele>382.6</ele>
        <time>2017-01-15T11:46:30.999Z</time>
      </trkpt>
      <trkpt lat="47.50722" lon="6.75643">
        <ele>382.8</ele>
        <time>2017-01-15T11:46:31.999Z</time>
      </trkpt>
      <trkpt lat="47.50722" lon="6.75649">
        <ele>383.1</ele>
        <time>2017-01-15T11:46:33.999Z</time>
      </trkpt>
      <trkpt lat="47.50721" lon="6.75653">
        <ele>383.2</ele>
        <time>2017-01-15T11:46:34.999Z</time>
      </trkpt>
      <trkpt lat="47.5072" lon="6.75658">
        <ele>383.4</ele>
        <time>2017-01-15T11:46:36.999Z</time>
      </trkpt>
      <trkpt lat="47.5072" lon="6.75661">
        <ele>383.6</ele>
        <time>2017-01-15T11:46:37.999Z</time>
      </trkpt>
      <trkpt lat="47.5072" lon="6.75667">
        <ele>383.7</ele>
        <time>2017-01-15T11:46:39.999Z</time>
      </trkpt>
      <trkpt lat="47.5072" lon="6.7567">
        <ele>383.8</ele>
        <time>2017-01-15T11:46:40.999Z</time>
      </trkpt>
      <trkpt lat="47.5072" lon="6.75675">
        <ele>384</ele>
        <time>2017-01-15T11:46:42.999Z</time>
      </trkpt>
      <trkpt lat="47.5072" lon="6.7568">
        <ele>384.1</ele>
        <time>2017-01-15T11:46:43.999Z</time>
      </trkpt>
      <trkpt lat="47.50721" lon="6.75686">
        <ele>384.5</ele>
        <time>2017-01-15T11:46:45.999Z</time>
      </trkpt>
      <trkpt lat="47.50721" lon="6.75689">
        <ele>384.7</ele>
        <time>2017-01-15T11:46:46.999Z</time>
      </trkpt>
      <trkpt lat="47.50722" lon="6.75694">
        <ele>384.9</ele>
        <time>2017-01-15T11:46:48.999Z</time>
      </trkpt>
      <trkpt lat="47.50723" lon="6.75696">
        <ele>384.9</ele>
        <time>2017-01-15T11:46:49.999Z</time>
      </trkpt>
      <trkpt lat="47.50723" lon="6.75702">
        <ele>384.9</ele>
        <time>2017-01-15T11:46:51.999Z</time>
      </trkpt>
      <trkpt lat="47.50723" lon="6.75705">
        <ele>384.8</ele>
        <time>2017-01-15T11:46:52.999Z</time>
      </trkpt>
      <trkpt lat="47.50723" lon="6.75708">
        <ele>384.7</ele>
        <time>2017-01-15T11:46:53.999Z</time>
      </trkpt>
      <trkpt lat="47.50723" lon="6.75712">
        <ele>384.7</ele>
        <time>2017-01-15T11:46:54.999Z</time>
      </trkpt>
      <trkpt lat="47.50723" lon="6.75716">
        <ele>384.7</ele>
        <time>2017-01-15T11:46:55.999Z</time>
      </trkpt>
      <trkpt lat="47.50723" lon="6.75719">
        <ele>384.6</ele>
        <time>2017-01-15T11:46:56.999Z</time>
      </trkpt>
      <trkpt lat="47.50723" lon="6.75723">
        <ele>384.7</ele>
        <time>2017-01-15T11:46:57.999Z</time>
      </trkpt>
      <trkpt lat="47.50723" lon="6.75727">
        <ele>384.8</ele>
        <time>2017-01-15T11:46:58.999Z</time>
      </trkpt>
      <trkpt lat="47.50724" lon="6.75732">
        <ele>385.2</ele>
        <time>2017-01-15T11:47:00.999Z</time>
      </trkpt>
      <trkpt lat="47.50724" lon="6.75734">
        <ele>385.5</ele>
        <time>2017-01-15T11:47:01.999Z</time>
      </trkpt>
      <trkpt lat="47.50724" lon="6.7574">
        <ele>386</ele>
        <time>2017-01-15T11:47:03.999Z</time>
      </trkpt>
      <trkpt lat="47.50724" lon="6.75743">
        <ele>386.3</ele>
        <time>2017-01-15T11:47:04.999Z</time>
      </trkpt>
      <trkpt lat="47.50724" lon="6.75747">
        <ele>386.8</ele>
        <time>2017-01-15T11:47:06.999Z</time>
      </trkpt>
      <trkpt lat="47.50725" lon="6.7575">
        <ele>387</ele>
        <time>2017-01-15T11:47:07.999Z</time>
      </trkpt>
      <trkpt lat="47.50727" lon="6.75754">
        <ele>387.4</ele>
        <time>2017-01-15T11:47:09.999Z</time>
      </trkpt>
      <trkpt lat="47.50727" lon="6.75758">
        <ele>387.5</ele>
        <time>2017-01-15T11:47:10.999Z</time>
      </trkpt>
      <trkpt lat="47.50727" lon="6.75763">
        <ele>387.8</ele>
        <time>2017-01-15T11:47:12.999Z</time>
      </trkpt>
      <trkpt lat="47.50727" lon="6.75766">
        <ele>388</ele>
        <time>2017-01-15T11:47:13.999Z</time>
      </trkpt>
      <trkpt lat="47.50727" lon="6.7577">
        <ele>388.4</ele>
        <time>2017-01-15T11:47:15.999Z</time>
      </trkpt>
      <trkpt lat="47.50728" lon="6.75774">
        <ele>388.7</ele>
        <time>2017-01-15T11:47:16.999Z</time>
      </trkpt>
      <trkpt lat="47.50729" lon="6.7578">
        <ele>389.2</ele>
        <time>2017-01-15T11:47:19.999Z</time>
      </trkpt>
      <trkpt lat="47.50729" lon="6.75782">
        <ele>389.4</ele>
        <time>2017-01-15T11:47:20.999Z</time>
      </trkpt>
      <trkpt lat="47.50729" lon="6.75788">
        <ele>389.9</ele>
        <time>2017-01-15T11:47:22.999Z</time>
      </trkpt>
      <trkpt lat="47.5073" lon="6.75792">
        <ele>390</ele>
        <time>2017-01-15T11:47:23.999Z</time>
      </trkpt>
      <trkpt lat="47.50731" lon="6.75797">
        <ele>390.4</ele>
        <time>2017-01-15T11:47:25.999Z</time>
      </trkpt>
      <trkpt lat="47.50731" lon="6.758">
        <ele>390.7</ele>
        <time>2017-01-15T11:47:26.999Z</time>
      </trkpt>
      <trkpt lat="47.50732" lon="6.75805">
        <ele>391.3</ele>
        <time>2017-01-15T11:47:29.999Z</time>
      </trkpt>
      <trkpt lat="47.50732" lon="6.75809">
        <ele>391.6</ele>
        <time>2017-01-15T11:47:30.999Z</time>
      </trkpt>
      <trkpt lat="47.50731" lon="6.75815">
        <ele>392.2</ele>
        <time>2017-01-15T11:47:33.999Z</time>
      </trkpt>
      <trkpt lat="47.50731" lon="6.75816">
        <ele>392.4</ele>
        <time>2017-01-15T11:47:34.999Z</time>
      </trkpt>
      <trkpt lat="47.50731" lon="6.75816">
        <ele>392.9</ele>
        <time>2017-01-15T11:47:37.999Z</time>
      </trkpt>
      <trkpt lat="47.5073" lon="6.75823">
        <ele>393</ele>
        <time>2017-01-15T11:47:38.999Z</time>
      </trkpt>
      <trkpt lat="47.5073" lon="6.75829">
        <ele>393.3</ele>
        <time>2017-01-15T11:47:41.999Z</time>
      </trkpt>
      <trkpt lat="47.5073" lon="6.75831">
        <ele>393.4</ele>
        <time>2017-01-15T11:47:42.999Z</time>
      </trkpt>
      <trkpt lat="47.50731" lon="6.75836">
        <ele>393.7</ele>
        <time>2017-01-15T11:47:44.999Z</time>
      </trkpt>
      <trkpt lat="47.50731" lon="6.75839">
        <ele>393.8</ele>
        <time>2017-01-15T11:47:45.999Z</time>
      </trkpt>
      <trkpt lat="47.50731" lon="6.75845">
        <ele>394.2</ele>
        <time>2017-01-15T11:47:47.999Z</time>
      </trkpt>
      <trkpt lat="47.50732" lon="6.75847">
        <ele>394.3</ele>
        <time>2017-01-15T11:47:48.999Z</time>
      </trkpt>
      <trkpt lat="47.50731" lon="6.75853">
        <ele>394.8</ele>
        <time>2017-01-15T11:47:51.999Z</time>
      </trkpt>
      <trkpt lat="47.50731" lon="6.75855">
        <ele>394.9</ele>
        <time>2017-01-15T11:47:52.999Z</time>
      </trkpt>
      <trkpt lat="47.50731" lon="6.75862">
        <ele>395.4</ele>
        <time>2017-01-15T11:47:55.999Z</time>
      </trkpt>
      <trkpt lat="47.50731" lon="6.75864">
        <ele>395.5</ele>
        <time>2017-01-15T11:47:56.999Z</time>
      </trkpt>
      <trkpt lat="47.5073" lon="6.75868">
        <ele>395.6</ele>
        <time>2017-01-15T11:47:58.999Z</time>
      </trkpt>
      <trkpt lat="47.5073" lon="6.75871">
        <ele>395.7</ele>
        <time>2017-01-15T11:47:59.999Z</time>
      </trkpt>
      <trkpt lat="47.50729" lon="6.75877">
        <ele>396</ele>
        <time>2017-01-15T11:48:01.999Z</time>
      </trkpt>
      <trkpt lat="47.50729" lon="6.75881">
        <ele>396.2</ele>
        <time>2017-01-15T11:48:02.999Z</time>
      </trkpt>
      <trkpt lat="47.50729" lon="6.75886">
        <ele>396.6</ele>
        <time>2017-01-15T11:48:04.999Z</time>
      </trkpt>
      <trkpt lat="47.50728" lon="6.75888">
        <ele>396.9</ele>
        <time>2017-01-15T11:48:05.999Z</time>
      </trkpt>
      <trkpt lat="47.50728" lon="6.75894">
        <ele>397.6</ele>
        <time>2017-01-15T11:48:08.999Z</time>
      </trkpt>
      <trkpt lat="47.50729" lon="6.75897">
        <ele>397.8</ele>
        <time>2017-01-15T11:48:09.999Z</time>
      </trkpt>
      <trkpt lat="47.5073" lon="6.75902">
        <ele>398.3</ele>
        <time>2017-01-15T11:48:11.999Z</time>
      </trkpt>
      <trkpt lat="47.50731" lon="6.75904">
        <ele>398.4</ele>
        <time>2017-01-15T11:48:12.999Z</time>
      </trkpt>
      <trkpt lat="47.5073" lon="6.7591">
        <ele>398.9</ele>
        <time>2017-01-15T11:48:15.999Z</time>
      </trkpt>
      <trkpt lat="47.5073" lon="6.75912">
        <ele>399.1</ele>
        <time>2017-01-15T11:48:16.999Z</time>
      </trkpt>
      <trkpt lat="47.50729" lon="6.75918">
        <ele>399.4</ele>
        <time>2017-01-15T11:48:19.999Z</time>
      </trkpt>
      <trkpt lat="47.50729" lon="6.7592">
        <ele>399.7</ele>
        <time>2017-01-15T11:48:20.999Z</time>
      </trkpt>
      <trkpt lat="47.50728" lon="6.75925">
        <ele>400.3</ele>
        <time>2017-01-15T11:48:22.999Z</time>
      </trkpt>
      <trkpt lat="47.50727" lon="6.7593">
        <ele>400.6</ele>
        <time>2017-01-15T11:48:23.999Z</time>
      </trkpt>
      <trkpt lat="47.50727" lon="6.75935">
        <ele>401.4</ele>
        <time>2017-01-15T11:48:25.999Z</time>
      </trkpt>
      <trkpt lat="47.50726" lon="6.75937">
        <ele>401.8</ele>
        <time>2017-01-15T11:48:26.999Z</time>
      </trkpt>
      <trkpt lat="47.50726" lon="6.75943">
        <ele>402.7</ele>
        <time>2017-01-15T11:48:28.999Z</time>
      </trkpt>
      <trkpt lat="47.50726" lon="6.75946">
        <ele>403.1</ele>
        <time>2017-01-15T11:48:29.999Z</time>
      </trkpt>
      <trkpt lat="47.50726" lon="6.7595">
        <ele>403.9</ele>
        <time>2017-01-15T11:48:31.999Z</time>
      </trkpt>
      <trkpt lat="47.50725" lon="6.75954">
        <ele>404.5</ele>
        <time>2017-01-15T11:48:33.999Z</time>
      </trkpt>
      <trkpt lat="47.50725" lon="6.75961">
        <ele>405.5</ele>
        <time>2017-01-15T11:48:36.999Z</time>
      </trkpt>
      <trkpt lat="47.50725" lon="6.75963">
        <ele>405.8</ele>
        <time>2017-01-15T11:48:37.999Z</time>
      </trkpt>
      <trkpt lat="47.50725" lon="6.75968">
        <ele>406.5</ele>
        <time>2017-01-15T11:48:39.999Z</time>
      </trkpt>
      <trkpt lat="47.50724" lon="6.7597">
        <ele>406.9</ele>
        <time>2017-01-15T11:48:40.999Z</time>
      </trkpt>
      <trkpt lat="47.50722" lon="6.75974">
        <ele>407.5</ele>
        <time>2017-01-15T11:48:42.999Z</time>
      </trkpt>
      <trkpt lat="47.50722" lon="6.75976">
        <ele>407.8</ele>
        <time>2017-01-15T11:48:43.999Z</time>
      </trkpt>
      <trkpt lat="47.50721" lon="6.75982">
        <ele>408.9</ele>
        <time>2017-01-15T11:48:46.999Z</time>
      </trkpt>
      <trkpt lat="47.5072" lon="6.75986">
        <ele>409.3</ele>
        <time>2017-01-15T11:48:47.999Z</time>
      </trkpt>
      <trkpt lat="47.50721" lon="6.75991">
        <ele>410.5</ele>
        <time>2017-01-15T11:48:50.999Z</time>
      </trkpt>
      <trkpt lat="47.50721" lon="6.75995">
        <ele>410.9</ele>
        <time>2017-01-15T11:48:51.999Z</time>
      </trkpt>
      <trkpt lat="47.50721" lon="6.75998">
        <ele>411.3</ele>
        <time>2017-01-15T11:48:52.999Z</time>
      </trkpt>
      <trkpt lat="47.5072" lon="6.76001">
        <ele>411.6</ele>
        <time>2017-01-15T11:48:53.999Z</time>
      </trkpt>
      <trkpt lat="47.5072" lon="6.76006">
        <ele>411.9</ele>
        <time>2017-01-15T11:48:54.999Z</time>
      </trkpt>
      <trkpt lat="47.50719" lon="6.7601">
        <ele>412.2</ele>
        <time>2017-01-15T11:48:55.999Z</time>
      </trkpt>
      <trkpt lat="47.50719" lon="6.76012">
        <ele>412.5</ele>
        <time>2017-01-15T11:48:56.999Z</time>
      </trkpt>
      <trkpt lat="47.50718" lon="6.76017">
        <ele>412.7</ele>
        <time>2017-01-15T11:48:57.999Z</time>
      </trkpt>
      <trkpt lat="47.50717" lon="6.76022">
        <ele>413.2</ele>
        <time>2017-01-15T11:48:59.999Z</time>
      </trkpt>
      <trkpt lat="47.50717" lon="6.76024">
        <ele>413.3</ele>
        <time>2017-01-15T11:49:00.999Z</time>
      </trkpt>
      <trkpt lat="47.50717" lon="6.7603">
        <ele>413.6</ele>
        <time>2017-01-15T11:49:02.999Z</time>
      </trkpt>
      <trkpt lat="47.50717" lon="6.76033">
        <ele>413.8</ele>
        <time>2017-01-15T11:49:03.999Z</time>
      </trkpt>
      <trkpt lat="47.50717" lon="6.76038">
        <ele>414</ele>
        <time>2017-01-15T11:49:05.999Z</time>
      </trkpt>
      <trkpt lat="47.50717" lon="6.76041">
        <ele>414.1</ele>
        <time>2017-01-15T11:49:06.999Z</time>
      </trkpt>
      <trkpt lat="47.50716" lon="6.76048">
        <ele>414.4</ele>
        <time>2017-01-15T11:49:08.999Z</time>
      </trkpt>
      <trkpt lat="47.50716" lon="6.7605">
        <ele>414.5</ele>
        <time>2017-01-15T11:49:09.999Z</time>
      </trkpt>
      <trkpt lat="47.50715" lon="6.76056">
        <ele>414.7</ele>
        <time>2017-01-15T11:49:11.999Z</time>
      </trkpt>
      <trkpt lat="47.50716" lon="6.76059">
        <ele>414.8</ele>
        <time>2017-01-15T11:49:12.999Z</time>
      </trkpt>
      <trkpt lat="47.50715" lon="6.76063">
        <ele>414.8</ele>
        <time>2017-01-15T11:49:14.999Z</time>
      </trkpt>
      <trkpt lat="47.50715" lon="6.76066">
        <ele>414.8</ele>
        <time>2017-01-15T11:49:15.999Z</time>
      </trkpt>
      <trkpt lat="47.50715" lon="6.76072">
        <ele>414.9</ele>
        <time>2017-01-15T11:49:17.999Z</time>
      </trkpt>
      <trkpt lat="47.50715" lon="6.76075">
        <ele>414.9</ele>
        <time>2017-01-15T11:49:18.999Z</time>
      </trkpt>
      <trkpt lat="47.50716" lon="6.7608">
        <ele>415.1</ele>
        <time>2017-01-15T11:49:20.999Z</time>
      </trkpt>
      <trkpt lat="47.50715" lon="6.76083">
        <ele>415.3</ele>
        <time>2017-01-15T11:49:21.999Z</time>
      </trkpt>
      <trkpt lat="47.50715" lon="6.76087">
        <ele>415.5</ele>
        <time>2017-01-15T11:49:22.999Z</time>
      </trkpt>
      <trkpt lat="47.50715" lon="6.76091">
        <ele>415.6</ele>
        <time>2017-01-15T11:49:23.999Z</time>
      </trkpt>
      <trkpt lat="47.50715" lon="6.76096">
        <ele>415.6</ele>
        <time>2017-01-15T11:49:24.999Z</time>
      </trkpt>
      <trkpt lat="47.50715" lon="6.76099">
        <ele>415.6</ele>
        <time>2017-01-15T11:49:25.999Z</time>
      </trkpt>
      <trkpt lat="47.50715" lon="6.76103">
        <ele>415.7</ele>
        <time>2017-01-15T11:49:26.999Z</time>
      </trkpt>
      <trkpt lat="47.50716" lon="6.76107">
        <ele>415.7</ele>
        <time>2017-01-15T11:49:27.999Z</time>
      </trkpt>
      <trkpt lat="47.50715" lon="6.76113">
        <ele>415.9</ele>
        <time>2017-01-15T11:49:29.999Z</time>
      </trkpt>
      <trkpt lat="47.50715" lon="6.76117">
        <ele>416</ele>
        <time>2017-01-15T11:49:30.999Z</time>
      </trkpt>
      <trkpt lat="47.50716" lon="6.76121">
        <ele>416</ele>
        <time>2017-01-15T11:49:31.999Z</time>
      </trkpt>
      <trkpt lat="47.50716" lon="6.76124">
        <ele>416</ele>
        <time>2017-01-15T11:49:32.999Z</time>
      </trkpt>
      <trkpt lat="47.50716" lon="6.76128">
        <ele>416</ele>
        <time>2017-01-15T11:49:33.999Z</time>
      </trkpt>
      <trkpt lat="47.50716" lon="6.76133">
        <ele>415.9</ele>
        <time>2017-01-15T11:49:34.999Z</time>
      </trkpt>
      <trkpt lat="47.50716" lon="6.76137">
        <ele>415.9</ele>
        <time>2017-01-15T11:49:35.999Z</time>
      </trkpt>
      <trkpt lat="47.50716" lon="6.76141">
        <ele>415.8</ele>
        <time>2017-01-15T11:49:36.999Z</time>
      </trkpt>
      <trkpt lat="47.50717" lon="6.76145">
        <ele>415.7</ele>
        <time>2017-01-15T11:49:37.999Z</time>
      </trkpt>
      <trkpt lat="47.50717" lon="6.7615">
        <ele>415.7</ele>
        <time>2017-01-15T11:49:38.999Z</time>
      </trkpt>
      <trkpt lat="47.50718" lon="6.76153">
        <ele>415.6</ele>
        <time>2017-01-15T11:49:39.999Z</time>
      </trkpt>
      <trkpt lat="47.50718" lon="6.76158">
        <ele>415.5</ele>
        <time>2017-01-15T11:49:40.999Z</time>
      </trkpt>
      <trkpt lat="47.50719" lon="6.76163">
        <ele>415.5</ele>
        <time>2017-01-15T11:49:41.999Z</time>
      </trkpt>
      <trkpt lat="47.50719" lon="6.76168">
        <ele>415.5</ele>
        <time>2017-01-15T11:49:42.999Z</time>
      </trkpt>
      <trkpt lat="47.50719" lon="6.76172">
        <ele>415.5</ele>
        <time>2017-01-15T11:49:43.999Z</time>
      </trkpt>
      <trkpt lat="47.50719" lon="6.76176">
        <ele>415.5</ele>
        <time>2017-01-15T11:49:44.999Z</time>
      </trkpt>
      <trkpt lat="47.50719" lon="6.7618">
        <ele>415.5</ele>
        <time>2017-01-15T11:49:45.999Z</time>
      </trkpt>
      <trkpt lat="47.5072" lon="6.76185">
        <ele>415.6</ele>
        <time>2017-01-15T11:49:46.999Z</time>
      </trkpt>
      <trkpt lat="47.5072" lon="6.7619">
        <ele>415.7</ele>
        <time>2017-01-15T11:49:47.999Z</time>
      </trkpt>
      <trkpt lat="47.5072" lon="6.76194">
        <ele>415.7</ele>
        <time>2017-01-15T11:49:48.999Z</time>
      </trkpt>
      <trkpt lat="47.50721" lon="6.76198">
        <ele>415.7</ele>
        <time>2017-01-15T11:49:49.999Z</time>
      </trkpt>
      <trkpt lat="47.50721" lon="6.76201">
        <ele>415.8</ele>
        <time>2017-01-15T11:49:50.999Z</time>
      </trkpt>
      <trkpt lat="47.50722" lon="6.76206">
        <ele>415.8</ele>
        <time>2017-01-15T11:49:51.999Z</time>
      </trkpt>
      <trkpt lat="47.50723" lon="6.7621">
        <ele>415.8</ele>
        <time>2017-01-15T11:49:52.999Z</time>
      </trkpt>
      <trkpt lat="47.50723" lon="6.76214">
        <ele>415.8</ele>
        <time>2017-01-15T11:49:53.999Z</time>
      </trkpt>
      <trkpt lat="47.50724" lon="6.76217">
        <ele>415.8</ele>
        <time>2017-01-15T11:49:54.999Z</time>
      </trkpt>
      <trkpt lat="47.50724" lon="6.76221">
        <ele>415.9</ele>
        <time>2017-01-15T11:49:55.999Z</time>
      </trkpt>
      <trkpt lat="47.50725" lon="6.76226">
        <ele>416</ele>
        <time>2017-01-15T11:49:56.999Z</time>
      </trkpt>
      <trkpt lat="47.50726" lon="6.7623">
        <ele>416.1</ele>
        <time>2017-01-15T11:49:57.999Z</time>
      </trkpt>
      <trkpt lat="47.50728" lon="6.76234">
        <ele>416.3</ele>
        <time>2017-01-15T11:49:58.999Z</time>
      </trkpt>
      <trkpt lat="47.50729" lon="6.76238">
        <ele>416.4</ele>
        <time>2017-01-15T11:49:59.999Z</time>
      </trkpt>
      <trkpt lat="47.5073" lon="6.76242">
        <ele>416.5</ele>
        <time>2017-01-15T11:50:00.999Z</time>
      </trkpt>
      <trkpt lat="47.50731" lon="6.76246">
        <ele>416.6</ele>
        <time>2017-01-15T11:50:01.999Z</time>
      </trkpt>
      <trkpt lat="47.50732" lon="6.76249">
        <ele>416.8</ele>
        <time>2017-01-15T11:50:02.999Z</time>
      </trkpt>
      <trkpt lat="47.50733" lon="6.76254">
        <ele>416.8</ele>
        <time>2017-01-15T11:50:03.999Z</time>
      </trkpt>
      <trkpt lat="47.50734" lon="6.76257">
        <ele>417</ele>
        <time>2017-01-15T11:50:04.999Z</time>
      </trkpt>
      <trkpt lat="47.50736" lon="6.7626">
        <ele>417.1</ele>
        <time>2017-01-15T11:50:05.999Z</time>
      </trkpt>
      <trkpt lat="47.50737" lon="6.76264">
        <ele>417.2</ele>
        <time>2017-01-15T11:50:06.999Z</time>
      </trkpt>
      <trkpt lat="47.50738" lon="6.76267">
        <ele>417.3</ele>
        <time>2017-01-15T11:50:07.999Z</time>
      </trkpt>
      <trkpt lat="47.5074" lon="6.76271">
        <ele>417.4</ele>
        <time>2017-01-15T11:50:08.999Z</time>
      </trkpt>
      <trkpt lat="47.50741" lon="6.76275">
        <ele>417.5</ele>
        <time>2017-01-15T11:50:09.999Z</time>
      </trkpt>
      <trkpt lat="47.50742" lon="6.76279">
        <ele>417.6</ele>
        <time>2017-01-15T11:50:10.999Z</time>
      </trkpt>
      <trkpt lat="47.50743" lon="6.76283">
        <ele>417.8</ele>
        <time>2017-01-15T11:50:11.999Z</time>
      </trkpt>
      <trkpt lat="47.50744" lon="6.76286">
        <ele>417.9</ele>
        <time>2017-01-15T11:50:12.999Z</time>
      </trkpt>
      <trkpt lat="47.50745" lon="6.7629">
        <ele>418.1</ele>
        <time>2017-01-15T11:50:13.999Z</time>
      </trkpt>
      <trkpt lat="47.50746" lon="6.76293">
        <ele>418.2</ele>
        <time>2017-01-15T11:50:14.999Z</time>
      </trkpt>
      <trkpt lat="47.50747" lon="6.76296">
        <ele>418.4</ele>
        <time>2017-01-15T11:50:15.999Z</time>
      </trkpt>
      <trkpt lat="47.50749" lon="6.763">
        <ele>418.6</ele>
        <time>2017-01-15T11:50:16.999Z</time>
      </trkpt>
      <trkpt lat="47.5075" lon="6.76303">
        <ele>418.8</ele>
        <time>2017-01-15T11:50:17.999Z</time>
      </trkpt>
      <trkpt lat="47.50751" lon="6.76307">
        <ele>418.9</ele>
        <time>2017-01-15T11:50:18.999Z</time>
      </trkpt>
      <trkpt lat="47.50751" lon="6.7631">
        <ele>419</ele>
        <time>2017-01-15T11:50:19.999Z</time>
      </trkpt>
      <trkpt lat="47.50752" lon="6.76315">
        <ele>419</ele>
        <time>2017-01-15T11:50:20.999Z</time>
      </trkpt>
      <trkpt lat="47.50753" lon="6.76317">
        <ele>419.1</ele>
        <time>2017-01-15T11:50:21.999Z</time>
      </trkpt>
      <trkpt lat="47.50754" lon="6.76321">
        <ele>419.1</ele>
        <time>2017-01-15T11:50:22.999Z</time>
      </trkpt>
      <trkpt lat="47.50756" lon="6.76324">
        <ele>419.3</ele>
        <time>2017-01-15T11:50:23.999Z</time>
      </trkpt>
      <trkpt lat="47.50757" lon="6.76327">
        <ele>419.4</ele>
        <time>2017-01-15T11:50:24.999Z</time>
      </trkpt>
      <trkpt lat="47.50758" lon="6.76332">
        <ele>419.5</ele>
        <time>2017-01-15T11:50:26.999Z</time>
      </trkpt>
      <trkpt lat="47.50759" lon="6.76335">
        <ele>419.5</ele>
        <time>2017-01-15T11:50:27.999Z</time>
      </trkpt>
      <trkpt lat="47.50761" lon="6.7634">
        <ele>419.7</ele>
        <time>2017-01-15T11:50:29.999Z</time>
      </trkpt>
      <trkpt lat="47.50762" lon="6.76343">
        <ele>419.8</ele>
        <time>2017-01-15T11:50:30.999Z</time>
      </trkpt>
      <trkpt lat="47.50763" lon="6.76346">
        <ele>420</ele>
        <time>2017-01-15T11:50:31.999Z</time>
      </trkpt>
      <trkpt lat="47.50765" lon="6.7635">
        <ele>420.4</ele>
        <time>2017-01-15T11:50:33.999Z</time>
      </trkpt>
      <trkpt lat="47.50767" lon="6.76355">
        <ele>420.8</ele>
        <time>2017-01-15T11:50:35.999Z</time>
      </trkpt>
      <trkpt lat="47.50768" lon="6.76357">
        <ele>421</ele>
        <time>2017-01-15T11:50:36.999Z</time>
      </trkpt>
      <trkpt lat="47.5077" lon="6.76361">
        <ele>421.4</ele>
        <time>2017-01-15T11:50:38.999Z</time>
      </trkpt>
      <trkpt lat="47.50771" lon="6.76364">
        <ele>421.6</ele>
        <time>2017-01-15T11:50:39.999Z</time>
      </trkpt>
      <trkpt lat="47.50773" lon="6.76369">
        <ele>422.1</ele>
        <time>2017-01-15T11:50:41.999Z</time>
      </trkpt>
      <trkpt lat="47.50773" lon="6.7637">
        <ele>422.2</ele>
        <time>2017-01-15T11:50:42.999Z</time>
      </trkpt>
      <trkpt lat="47.50775" lon="6.76374">
        <ele>422.6</ele>
        <time>2017-01-15T11:50:44.999Z</time>
      </trkpt>
      <trkpt lat="47.50776" lon="6.76376">
        <ele>422.7</ele>
        <time>2017-01-15T11:50:45.999Z</time>
      </trkpt>
      <trkpt lat="47.50778" lon="6.7638">
        <ele>423</ele>
        <time>2017-01-15T11:50:47.999Z</time>
      </trkpt>
      <trkpt lat="47.50779" lon="6.76382">
        <ele>423.2</ele>
        <time>2017-01-15T11:50:48.999Z</time>
      </trkpt>
      <trkpt lat="47.50781" lon="6.76388">
        <ele>423.7</ele>
        <time>2017-01-15T11:50:51.999Z</time>
      </trkpt>
      <trkpt lat="47.50781" lon="6.7639">
        <ele>423.8</ele>
        <time>2017-01-15T11:50:52.999Z</time>
      </trkpt>
      <trkpt lat="47.50783" lon="6.76394">
        <ele>424.1</ele>
        <time>2017-01-15T11:50:54.999Z</time>
      </trkpt>
      <trkpt lat="47.50784" lon="6.76397">
        <ele>424.3</ele>
        <time>2017-01-15T11:50:55.999Z</time>
      </trkpt>
      <trkpt lat="47.50786" lon="6.76402">
        <ele>424.6</ele>
        <time>2017-01-15T11:50:57.999Z</time>
      </trkpt>
      <trkpt lat="47.50786" lon="6.76405">
        <ele>424.7</ele>
        <time>2017-01-15T11:50:58.999Z</time>
      </trkpt>
      <trkpt lat="47.50787" lon="6.7641">
        <ele>424.9</ele>
        <time>2017-01-15T11:51:01.999Z</time>
      </trkpt>
      <trkpt lat="47.50788" lon="6.76413">
        <ele>425</ele>
        <time>2017-01-15T11:51:02.999Z</time>
      </trkpt>
      <trkpt lat="47.50789" lon="6.76418">
        <ele>425.3</ele>
        <time>2017-01-15T11:51:04.999Z</time>
      </trkpt>
      <trkpt lat="47.50789" lon="6.76421">
        <ele>425.4</ele>
        <time>2017-01-15T11:51:05.999Z</time>
      </trkpt>
      <trkpt lat="47.50791" lon="6.76425">
        <ele>425.7</ele>
        <time>2017-01-15T11:51:07.999Z</time>
      </trkpt>
      <trkpt lat="47.50792" lon="6.76428">
        <ele>425.8</ele>
        <time>2017-01-15T11:51:08.999Z</time>
      </trkpt>
      <trkpt lat="47.50792" lon="6.76431">
        <ele>426.1</ele>
        <time>2017-01-15T11:51:10.999Z</time>
      </trkpt>
      <trkpt lat="47.50793" lon="6.76435">
        <ele>426.2</ele>
        <time>2017-01-15T11:51:11.999Z</time>
      </trkpt>
      <trkpt lat="47.50793" lon="6.76441">
        <ele>426.4</ele>
        <time>2017-01-15T11:51:13.999Z</time>
      </trkpt>
      <trkpt lat="47.50793" lon="6.76442">
        <ele>426.5</ele>
        <time>2017-01-15T11:51:14.999Z</time>
      </trkpt>
      <trkpt lat="47.50793" lon="6.76448">
        <ele>426.9</ele>
        <time>2017-01-15T11:51:17.999Z</time>
      </trkpt>
      <trkpt lat="47.50793" lon="6.76451">
        <ele>427.1</ele>
        <time>2017-01-15T11:51:18.999Z</time>
      </trkpt>
      <trkpt lat="47.50793" lon="6.76457">
        <ele>427.4</ele>
        <time>2017-01-15T11:51:21.999Z</time>
      </trkpt>
      <trkpt lat="47.50793" lon="6.76459">
        <ele>427.5</ele>
        <time>2017-01-15T11:51:22.999Z</time>
      </trkpt>
      <trkpt lat="47.50794" lon="6.76465">
        <ele>427.8</ele>
        <time>2017-01-15T11:51:24.999Z</time>
      </trkpt>
      <trkpt lat="47.50795" lon="6.76467">
        <ele>428</ele>
        <time>2017-01-15T11:51:25.999Z</time>
      </trkpt>
      <trkpt lat="47.50795" lon="6.76473">
        <ele>428.4</ele>
        <time>2017-01-15T11:51:28.999Z</time>
      </trkpt>
      <trkpt lat="47.50795" lon="6.76476">
        <ele>428.5</ele>
        <time>2017-01-15T11:51:29.999Z</time>
      </trkpt>
      <trkpt lat="47.50795" lon="6.7648">
        <ele>428.6</ele>
        <time>2017-01-15T11:51:30.999Z</time>
      </trkpt>
      <trkpt lat="47.50794" lon="6.76484">
        <ele>428.7</ele>
        <time>2017-01-15T11:51:31.999Z</time>
      </trkpt>
      <trkpt lat="47.50793" lon="6.76491">
        <ele>428.9</ele>
        <time>2017-01-15T11:51:33.999Z</time>
      </trkpt>
      <trkpt lat="47.50793" lon="6.76495">
        <ele>429</ele>
        <time>2017-01-15T11:51:34.999Z</time>
      </trkpt>
      <trkpt lat="47.50793" lon="6.76498">
        <ele>429.1</ele>
        <time>2017-01-15T11:51:35.999Z</time>
      </trkpt>
      <trkpt lat="47.50793" lon="6.76502">
        <ele>429.3</ele>
        <time>2017-01-15T11:51:36.999Z</time>
      </trkpt>
      <trkpt lat="47.50795" lon="6.76505">
        <ele>429.5</ele>
        <time>2017-01-15T11:51:37.999Z</time>
      </trkpt>
      <trkpt lat="47.50796" lon="6.76509">
        <ele>429.8</ele>
        <time>2017-01-15T11:51:38.999Z</time>
      </trkpt>
      <trkpt lat="47.50797" lon="6.76513">
        <ele>430</ele>
        <time>2017-01-15T11:51:39.999Z</time>
      </trkpt>
      <trkpt lat="47.50799" lon="6.76517">
        <ele>430.2</ele>
        <time>2017-01-15T11:51:40.999Z</time>
      </trkpt>
      <trkpt lat="47.508" lon="6.76522">
        <ele>430.3</ele>
        <time>2017-01-15T11:51:41.999Z</time>
      </trkpt>
      <trkpt lat="47.50801" lon="6.76525">
        <ele>430.5</ele>
        <time>2017-01-15T11:51:42.999Z</time>
      </trkpt>
      <trkpt lat="47.50802" lon="6.76529">
        <ele>430.6</ele>
        <time>2017-01-15T11:51:43.999Z</time>
      </trkpt>
      <trkpt lat="47.50803" lon="6.76534">
        <ele>430.8</ele>
        <time>2017-01-15T11:51:44.999Z</time>
      </trkpt>
      <trkpt lat="47.50804" lon="6.76538">
        <ele>431</ele>
        <time>2017-01-15T11:51:45.999Z</time>
      </trkpt>
      <trkpt lat="47.50805" lon="6.76542">
        <ele>431.2</ele>
        <time>2017-01-15T11:51:46.999Z</time>
      </trkpt>
      <trkpt lat="47.50806" lon="6.76546">
        <ele>431.3</ele>
        <time>2017-01-15T11:51:47.999Z</time>
      </trkpt>
      <trkpt lat="47.50807" lon="6.76551">
        <ele>431.5</ele>
        <time>2017-01-15T11:51:48.999Z</time>
      </trkpt>
      <trkpt lat="47.50808" lon="6.76555">
        <ele>431.7</ele>
        <time>2017-01-15T11:51:49.999Z</time>
      </trkpt>
      <trkpt lat="47.50809" lon="6.76559">
        <ele>431.9</ele>
        <time>2017-01-15T11:51:50.999Z</time>
      </trkpt>
      <trkpt lat="47.5081" lon="6.76562">
        <ele>432.1</ele>
        <time>2017-01-15T11:51:51.999Z</time>
      </trkpt>
      <trkpt lat="47.50811" lon="6.76566">
        <ele>432.3</ele>
        <time>2017-01-15T11:51:52.999Z</time>
      </trkpt>
      <trkpt lat="47.50812" lon="6.76571">
        <ele>432.4</ele>
        <time>2017-01-15T11:51:53.999Z</time>
      </trkpt>
      <trkpt lat="47.50813" lon="6.76576">
        <ele>432.4</ele>
        <time>2017-01-15T11:51:54.999Z</time>
      </trkpt>
      <trkpt lat="47.50814" lon="6.76581">
        <ele>432.5</ele>
        <time>2017-01-15T11:51:55.999Z</time>
      </trkpt>
      <trkpt lat="47.50815" lon="6.76586">
        <ele>432.7</ele>
        <time>2017-01-15T11:51:56.999Z</time>
      </trkpt>
      <trkpt lat="47.50816" lon="6.7659">
        <ele>432.8</ele>
        <time>2017-01-15T11:51:57.999Z</time>
      </trkpt>
      <trkpt lat="47.50817" lon="6.76595">
        <ele>433.9</ele>
        <time>2017-01-15T11:51:58.999Z</time>
      </trkpt>
      <trkpt lat="47.50818" lon="6.766">
        <ele>434.7</ele>
        <time>2017-01-15T11:51:59.999Z</time>
      </trkpt>
      <trkpt lat="47.5082" lon="6.76606">
        <ele>435.1</ele>
        <time>2017-01-15T11:52:00.999Z</time>
      </trkpt>
      <trkpt lat="47.50822" lon="6.76612">
        <ele>435.3</ele>
        <time>2017-01-15T11:52:01.999Z</time>
      </trkpt>
      <trkpt lat="47.50824" lon="6.76618">
        <ele>435.2</ele>
        <time>2017-01-15T11:52:02.999Z</time>
      </trkpt>
      <trkpt lat="47.50826" lon="6.76625">
        <ele>435</ele>
        <time>2017-01-15T11:52:03.999Z</time>
      </trkpt>
      <trkpt lat="47.50829" lon="6.76633">
        <ele>434.9</ele>
        <time>2017-01-15T11:52:04.999Z</time>
      </trkpt>
      <trkpt lat="47.50832" lon="6.76642">
        <ele>434.8</ele>
        <time>2017-01-15T11:52:05.999Z</time>
      </trkpt>
      <trkpt lat="47.50835" lon="6.76649">
        <ele>434.8</ele>
        <time>2017-01-15T11:52:06.999Z</time>
      </trkpt>
      <trkpt lat="47.50838" lon="6.76657">
        <ele>434.5</ele>
        <time>2017-01-15T11:52:07.999Z</time>
      </trkpt>
      <trkpt lat="47.50841" lon="6.76665">
        <ele>434.1</ele>
        <time>2017-01-15T11:52:08.999Z</time>
      </trkpt>
      <trkpt lat="47.50843" lon="6.7667">
        <ele>433.2</ele>
        <time>2017-01-15T11:52:09.999Z</time>
      </trkpt>
      <trkpt lat="47.50846" lon="6.76679">
        <ele>432.7</ele>
        <time>2017-01-15T11:52:10.999Z</time>
      </trkpt>
      <trkpt lat="47.5085" lon="6.76689">
        <ele>431.9</ele>
        <time>2017-01-15T11:52:11.999Z</time>
      </trkpt>
      <trkpt lat="47.50853" lon="6.76698">
        <ele>431.2</ele>
        <time>2017-01-15T11:52:12.999Z</time>
      </trkpt>
      <trkpt lat="47.50856" lon="6.76707">
        <ele>430.9</ele>
        <time>2017-01-15T11:52:13.999Z</time>
      </trkpt>
      <trkpt lat="47.50859" lon="6.76716">
        <ele>430.7</ele>
        <time>2017-01-15T11:52:14.999Z</time>
      </trkpt>
      <trkpt lat="47.50863" lon="6.76725">
        <ele>430</ele>
        <time>2017-01-15T11:52:15.999Z</time>
      </trkpt>
      <trkpt lat="47.50866" lon="6.76734">
        <ele>429.7</ele>
        <time>2017-01-15T11:52:16.999Z</time>
      </trkpt>
      <trkpt lat="47.5087" lon="6.76743">
        <ele>428.5</ele>
        <time>2017-01-15T11:52:17.999Z</time>
      </trkpt>
      <trkpt lat="47.50873" lon="6.76751">
        <ele>427.9</ele>
        <time>2017-01-15T11:52:18.999Z</time>
      </trkpt>
      <trkpt lat="47.50876" lon="6.76761">
        <ele>427.4</ele>
        <time>2017-01-15T11:52:19.999Z</time>
      </trkpt>
      <trkpt lat="47.50879" lon="6.76768">
        <ele>426.4</ele>
        <time>2017-01-15T11:52:20.999Z</time>
      </trkpt>
      <trkpt lat="47.50883" lon="6.76776">
        <ele>425.3</ele>
        <time>2017-01-15T11:52:21.999Z</time>
      </trkpt>
      <trkpt lat="47.50886" lon="6.76784">
        <ele>424.5</ele>
        <time>2017-01-15T11:52:22.999Z</time>
      </trkpt>
      <trkpt lat="47.5089" lon="6.76793">
        <ele>424.1</ele>
        <time>2017-01-15T11:52:23.999Z</time>
      </trkpt>
      <trkpt lat="47.50893" lon="6.76801">
        <ele>424</ele>
        <time>2017-01-15T11:52:24.999Z</time>
      </trkpt>
      <trkpt lat="47.50897" lon="6.76809">
        <ele>424.5</ele>
        <time>2017-01-15T11:52:25.999Z</time>
      </trkpt>
      <trkpt lat="47.50901" lon="6.76817">
        <ele>424.6</ele>
        <time>2017-01-15T11:52:26.999Z</time>
      </trkpt>
      <trkpt lat="47.50905" lon="6.76825">
        <ele>424.2</ele>
        <time>2017-01-15T11:52:27.999Z</time>
      </trkpt>
      <trkpt lat="47.50908" lon="6.76832">
        <ele>424</ele>
        <time>2017-01-15T11:52:28.999Z</time>
      </trkpt>
      <trkpt lat="47.50912" lon="6.76839">
        <ele>424</ele>
        <time>2017-01-15T11:52:29.999Z</time>
      </trkpt>
      <trkpt lat="47.50916" lon="6.76846">
        <ele>423.6</ele>
        <time>2017-01-15T11:52:30.999Z</time>
      </trkpt>
      <trkpt lat="47.5092" lon="6.76853">
        <ele>423.4</ele>
        <time>2017-01-15T11:52:31.999Z</time>
      </trkpt>
      <trkpt lat="47.50927" lon="6.76866">
        <ele>422.5</ele>
        <time>2017-01-15T11:52:33.999Z</time>
      </trkpt>
      <trkpt lat="47.50932" lon="6.76873">
        <ele>422.2</ele>
        <time>2017-01-15T11:52:34.999Z</time>
      </trkpt>
      <trkpt lat="47.50936" lon="6.76879">
        <ele>421.9</ele>
        <time>2017-01-15T11:52:35.999Z</time>
      </trkpt>
      <trkpt lat="47.5094" lon="6.76886">
        <ele>421.6</ele>
        <time>2017-01-15T11:52:36.999Z</time>
      </trkpt>
      <trkpt lat="47.50944" lon="6.76891">
        <ele>421.4</ele>
        <time>2017-01-15T11:52:37.999Z</time>
      </trkpt>
      <trkpt lat="47.50949" lon="6.76897">
        <ele>421.4</ele>
        <time>2017-01-15T11:52:38.999Z</time>
      </trkpt>
      <trkpt lat="47.50953" lon="6.76902">
        <ele>421.6</ele>
        <time>2017-01-15T11:52:39.999Z</time>
      </trkpt>
      <trkpt lat="47.50957" lon="6.76908">
        <ele>421.6</ele>
        <time>2017-01-15T11:52:40.999Z</time>
      </trkpt>
      <trkpt lat="47.50961" lon="6.76914">
        <ele>421.9</ele>
        <time>2017-01-15T11:52:41.999Z</time>
      </trkpt>
      <trkpt lat="47.50964" lon="6.7692">
        <ele>422.1</ele>
        <time>2017-01-15T11:52:42.999Z</time>
      </trkpt>
      <trkpt lat="47.50968" lon="6.76926">
        <ele>422</ele>
        <time>2017-01-15T11:52:43.999Z</time>
      </trkpt>
      <trkpt lat="47.50971" lon="6.76932">
        <ele>421.9</ele>
        <time>2017-01-15T11:52:44.999Z</time>
      </trkpt>
      <trkpt lat="47.50976" lon="6.76936">
        <ele>421.9</ele>
        <time>2017-01-15T11:52:45.999Z</time>
      </trkpt>
      <trkpt lat="47.5098" lon="6.76937">
        <ele>422.5</ele>
        <time>2017-01-15T11:52:46.999Z</time>
      </trkpt>
      <trkpt lat="47.50985" lon="6.76938">
        <ele>422.8</ele>
        <time>2017-01-15T11:52:47.999Z</time>
      </trkpt>
      <trkpt lat="47.5099" lon="6.76939">
        <ele>422.8</ele>
        <time>2017-01-15T11:52:48.999Z</time>
      </trkpt>
      <trkpt lat="47.50996" lon="6.76939">
        <ele>422.8</ele>
        <time>2017-01-15T11:52:49.999Z</time>
      </trkpt>
      <trkpt lat="47.51001" lon="6.76939">
        <ele>422.6</ele>
        <time>2017-01-15T11:52:50.999Z</time>
      </trkpt>
      <trkpt lat="47.51006" lon="6.76939">
        <ele>422.5</ele>
        <time>2017-01-15T11:52:51.999Z</time>
      </trkpt>
      <trkpt lat="47.51011" lon="6.76941">
        <ele>422.5</ele>
        <time>2017-01-15T11:52:52.999Z</time>
      </trkpt>
      <trkpt lat="47.51017" lon="6.76942">
        <ele>421.8</ele>
        <time>2017-01-15T11:52:53.999Z</time>
      </trkpt>
      <trkpt lat="47.51022" lon="6.76946">
        <ele>421.1</ele>
        <time>2017-01-15T11:52:54.999Z</time>
      </trkpt>
      <trkpt lat="47.51029" lon="6.76951">
        <ele>420.6</ele>
        <time>2017-01-15T11:52:55.999Z</time>
      </trkpt>
      <trkpt lat="47.51034" lon="6.76957">
        <ele>420.3</ele>
        <time>2017-01-15T11:52:56.999Z</time>
      </trkpt>
      <trkpt lat="47.51038" lon="6.76961">
        <ele>420</ele>
        <time>2017-01-15T11:52:57.999Z</time>
      </trkpt>
      <trkpt lat="47.51042" lon="6.76965">
        <ele>420.3</ele>
        <time>2017-01-15T11:52:58.999Z</time>
      </trkpt>
      <trkpt lat="47.51047" lon="6.7697">
        <ele>420.6</ele>
        <time>2017-01-15T11:52:59.999Z</time>
      </trkpt>
      <trkpt lat="47.51051" lon="6.76974">
        <ele>420.2</ele>
        <time>2017-01-15T11:53:00.999Z</time>
      </trkpt>
      <trkpt lat="47.51054" lon="6.76978">
        <ele>419.2</ele>
        <time>2017-01-15T11:53:01.999Z</time>
      </trkpt>
      <trkpt lat="47.51059" lon="6.76982">
        <ele>418</ele>
        <time>2017-01-15T11:53:02.999Z</time>
      </trkpt>
      <trkpt lat="47.51064" lon="6.76987">
        <ele>417.3</ele>
        <time>2017-01-15T11:53:03.999Z</time>
      </trkpt>
      <trkpt lat="47.51068" lon="6.76992">
        <ele>417.2</ele>
        <time>2017-01-15T11:53:04.999Z</time>
      </trkpt>
      <trkpt lat="47.51072" lon="6.76996">
        <ele>417.8</ele>
        <time>2017-01-15T11:53:05.999Z</time>
      </trkpt>
      <trkpt lat="47.51074" lon="6.77">
        <ele>417.7</ele>
        <time>2017-01-15T11:53:06.999Z</time>
      </trkpt>
      <trkpt lat="47.51078" lon="6.77003">
        <ele>417.3</ele>
        <time>2017-01-15T11:53:07.999Z</time>
      </trkpt>
      <trkpt lat="47.51082" lon="6.77007">
        <ele>416.4</ele>
        <time>2017-01-15T11:53:08.999Z</time>
      </trkpt>
      <trkpt lat="47.51086" lon="6.7701">
        <ele>416</ele>
        <time>2017-01-15T11:53:09.999Z</time>
      </trkpt>
      <trkpt lat="47.51091" lon="6.77015">
        <ele>415.4</ele>
        <time>2017-01-15T11:53:10.999Z</time>
      </trkpt>
      <trkpt lat="47.51095" lon="6.77018">
        <ele>414.9</ele>
        <time>2017-01-15T11:53:11.999Z</time>
      </trkpt>
      <trkpt lat="47.511" lon="6.77022">
        <ele>415.3</ele>
        <time>2017-01-15T11:53:12.999Z</time>
      </trkpt>
      <trkpt lat="47.51104" lon="6.77025">
        <ele>415.2</ele>
        <time>2017-01-15T11:53:13.999Z</time>
      </trkpt>
      <trkpt lat="47.51109" lon="6.77029">
        <ele>415.4</ele>
        <time>2017-01-15T11:53:14.999Z</time>
      </trkpt>
      <trkpt lat="47.51113" lon="6.77032">
        <ele>415.4</ele>
        <time>2017-01-15T11:53:15.999Z</time>
      </trkpt>
      <trkpt lat="47.51117" lon="6.77035">
        <ele>415.4</ele>
        <time>2017-01-15T11:53:16.999Z</time>
      </trkpt>
      <trkpt lat="47.51122" lon="6.77039">
        <ele>415.2</ele>
        <time>2017-01-15T11:53:17.999Z</time>
      </trkpt>
      <trkpt lat="47.51127" lon="6.77043">
        <ele>415.9</ele>
        <time>2017-01-15T11:53:18.999Z</time>
      </trkpt>
      <trkpt lat="47.51131" lon="6.77046">
        <ele>416.4</ele>
        <time>2017-01-15T11:53:19.999Z</time>
      </trkpt>
      <trkpt lat="47.51134" lon="6.77049">
        <ele>417.5</ele>
        <time>2017-01-15T11:53:20.999Z</time>
      </trkpt>
      <trkpt lat="47.51138" lon="6.77052">
        <ele>418.9</ele>
        <time>2017-01-15T11:53:21.999Z</time>
      </trkpt>
      <trkpt lat="47.51142" lon="6.77056">
        <ele>420.1</ele>
        <time>2017-01-15T11:53:22.999Z</time>
      </trkpt>
      <trkpt lat="47.51145" lon="6.77058">
        <ele>420.1</ele>
        <time>2017-01-15T11:53:23.999Z</time>
      </trkpt>
      <trkpt lat="47.51148" lon="6.77061">
        <ele>420.1</ele>
        <time>2017-01-15T11:53:24.999Z</time>
      </trkpt>
      <trkpt lat="47.51151" lon="6.77064">
        <ele>420.3</ele>
        <time>2017-01-15T11:53:25.999Z</time>
      </trkpt>
      <trkpt lat="47.51155" lon="6.77068">
        <ele>420.5</ele>
        <time>2017-01-15T11:53:26.999Z</time>
      </trkpt>
      <trkpt lat="47.51159" lon="6.77072">
        <ele>420.8</ele>
        <time>2017-01-15T11:53:27.999Z</time>
      </trkpt>
      <trkpt lat="47.51163" lon="6.77077">
        <ele>420.7</ele>
        <time>2017-01-15T11:53:28.999Z</time>
      </trkpt>
      <trkpt lat="47.51166" lon="6.77081">
        <ele>421.1</ele>
        <time>2017-01-15T11:53:29.999Z</time>
      </trkpt>
      <trkpt lat="47.5117" lon="6.77086">
        <ele>421.8</ele>
        <time>2017-01-15T11:53:30.999Z</time>
      </trkpt>
      <trkpt lat="47.51173" lon="6.77091">
        <ele>422.8</ele>
        <time>2017-01-15T11:53:31.999Z</time>
      </trkpt>
      <trkpt lat="47.51179" lon="6.77102">
        <ele>423.5</ele>
        <time>2017-01-15T11:53:33.999Z</time>
      </trkpt>
      <trkpt lat="47.51182" lon="6.77106">
        <ele>423.7</ele>
        <time>2017-01-15T11:53:34.999Z</time>
      </trkpt>
      <trkpt lat="47.51184" lon="6.7711">
        <ele>424.2</ele>
        <time>2017-01-15T11:53:35.999Z</time>
      </trkpt>
      <trkpt lat="47.51187" lon="6.77114">
        <ele>424.3</ele>
        <time>2017-01-15T11:53:36.999Z</time>
      </trkpt>
      <trkpt lat="47.51189" lon="6.77119">
        <ele>424.3</ele>
        <time>2017-01-15T11:53:37.999Z</time>
      </trkpt>
      <trkpt lat="47.51191" lon="6.77123">
        <ele>424.3</ele>
        <time>2017-01-15T11:53:38.999Z</time>
      </trkpt>
      <trkpt lat="47.51193" lon="6.77127">
        <ele>424.3</ele>
        <time>2017-01-15T11:53:39.999Z</time>
      </trkpt>
      <trkpt lat="47.51196" lon="6.77131">
        <ele>424.4</ele>
        <time>2017-01-15T11:53:40.999Z</time>
      </trkpt>
      <trkpt lat="47.51198" lon="6.77136">
        <ele>424.4</ele>
        <time>2017-01-15T11:53:41.999Z</time>
      </trkpt>
      <trkpt lat="47.512" lon="6.7714">
        <ele>424.5</ele>
        <time>2017-01-15T11:53:42.999Z</time>
      </trkpt>
      <trkpt lat="47.51202" lon="6.77144">
        <ele>424.5</ele>
        <time>2017-01-15T11:53:43.999Z</time>
      </trkpt>
      <trkpt lat="47.51204" lon="6.77148">
        <ele>424.6</ele>
        <time>2017-01-15T11:53:44.999Z</time>
      </trkpt>
      <trkpt lat="47.51206" lon="6.77152">
        <ele>424.6</ele>
        <time>2017-01-15T11:53:45.999Z</time>
      </trkpt>
      <trkpt lat="47.51208" lon="6.77156">
        <ele>424.7</ele>
        <time>2017-01-15T11:53:46.999Z</time>
      </trkpt>
      <trkpt lat="47.5121" lon="6.7716">
        <ele>424.8</ele>
        <time>2017-01-15T11:53:47.999Z</time>
      </trkpt>
      <trkpt lat="47.51212" lon="6.77164">
        <ele>424.8</ele>
        <time>2017-01-15T11:53:48.999Z</time>
      </trkpt>
      <trkpt lat="47.51214" lon="6.77167">
        <ele>424.9</ele>
        <time>2017-01-15T11:53:49.999Z</time>
      </trkpt>
      <trkpt lat="47.51216" lon="6.77171">
        <ele>425</ele>
        <time>2017-01-15T11:53:50.999Z</time>
      </trkpt>
      <trkpt lat="47.51218" lon="6.77176">
        <ele>425.1</ele>
        <time>2017-01-15T11:53:51.999Z</time>
      </trkpt>
      <trkpt lat="47.5122" lon="6.77181">
        <ele>425.1</ele>
        <time>2017-01-15T11:53:52.999Z</time>
      </trkpt>
      <trkpt lat="47.51223" lon="6.77186">
        <ele>425.2</ele>
        <time>2017-01-15T11:53:53.999Z</time>
      </trkpt>
      <trkpt lat="47.51224" lon="6.7719">
        <ele>425.2</ele>
        <time>2017-01-15T11:53:54.999Z</time>
      </trkpt>
      <trkpt lat="47.51226" lon="6.77194">
        <ele>425.3</ele>
        <time>2017-01-15T11:53:55.999Z</time>
      </trkpt>
      <trkpt lat="47.51227" lon="6.77197">
        <ele>425.3</ele>
        <time>2017-01-15T11:53:56.999Z</time>
      </trkpt>
      <trkpt lat="47.51229" lon="6.77202">
        <ele>425.3</ele>
        <time>2017-01-15T11:53:57.999Z</time>
      </trkpt>
      <trkpt lat="47.51232" lon="6.77207">
        <ele>425.4</ele>
        <time>2017-01-15T11:53:58.999Z</time>
      </trkpt>
      <trkpt lat="47.51233" lon="6.7721">
        <ele>425.5</ele>
        <time>2017-01-15T11:53:59.999Z</time>
      </trkpt>
      <trkpt lat="47.51235" lon="6.77214">
        <ele>425.5</ele>
        <time>2017-01-15T11:54:00.999Z</time>
      </trkpt>
      <trkpt lat="47.51237" lon="6.77218">
        <ele>425.5</ele>
        <time>2017-01-15T11:54:01.999Z</time>
      </trkpt>
      <trkpt lat="47.51239" lon="6.77223">
        <ele>425.5</ele>
        <time>2017-01-15T11:54:02.999Z</time>
      </trkpt>
      <trkpt lat="47.51241" lon="6.77227">
        <ele>425.6</ele>
        <time>2017-01-15T11:54:03.999Z</time>
      </trkpt>
      <trkpt lat="47.51243" lon="6.77231">
        <ele>425.6</ele>
        <time>2017-01-15T11:54:04.999Z</time>
      </trkpt>
      <trkpt lat="47.51245" lon="6.77235">
        <ele>425.6</ele>
        <time>2017-01-15T11:54:05.999Z</time>
      </trkpt>
      <trkpt lat="47.51247" lon="6.77238">
        <ele>425.6</ele>
        <time>2017-01-15T11:54:06.999Z</time>
      </trkpt>
      <trkpt lat="47.51249" lon="6.77242">
        <ele>425.6</ele>
        <time>2017-01-15T11:54:07.999Z</time>
      </trkpt>
      <trkpt lat="47.51251" lon="6.77247">
        <ele>425.5</ele>
        <time>2017-01-15T11:54:08.999Z</time>
      </trkpt>
      <trkpt lat="47.51254" lon="6.77251">
        <ele>425.5</ele>
        <time>2017-01-15T11:54:09.999Z</time>
      </trkpt>
      <trkpt lat="47.51257" lon="6.77255">
        <ele>425.5</ele>
        <time>2017-01-15T11:54:10.999Z</time>
      </trkpt>
      <trkpt lat="47.51259" lon="6.77259">
        <ele>425.5</ele>
        <time>2017-01-15T11:54:11.999Z</time>
      </trkpt>
      <trkpt lat="47.51262" lon="6.77262">
        <ele>425.6</ele>
        <time>2017-01-15T11:54:12.999Z</time>
      </trkpt>
      <trkpt lat="47.51265" lon="6.77264">
        <ele>425.7</ele>
        <time>2017-01-15T11:54:13.999Z</time>
      </trkpt>
      <trkpt lat="47.51269" lon="6.77267">
        <ele>425.7</ele>
        <time>2017-01-15T11:54:14.999Z</time>
      </trkpt>
      <trkpt lat="47.51272" lon="6.7727">
        <ele>426.2</ele>
        <time>2017-01-15T11:54:15.999Z</time>
      </trkpt>
      <trkpt lat="47.51276" lon="6.77272">
        <ele>426.7</ele>
        <time>2017-01-15T11:54:16.999Z</time>
      </trkpt>
      <trkpt lat="47.51279" lon="6.77274">
        <ele>426.7</ele>
        <time>2017-01-15T11:54:17.999Z</time>
      </trkpt>
      <trkpt lat="47.51283" lon="6.77276">
        <ele>426.3</ele>
        <time>2017-01-15T11:54:18.999Z</time>
      </trkpt>
      <trkpt lat="47.51287" lon="6.77278">
        <ele>426.7</ele>
        <time>2017-01-15T11:54:19.999Z</time>
      </trkpt>
      <trkpt lat="47.51292" lon="6.7728">
        <ele>427.3</ele>
        <time>2017-01-15T11:54:20.999Z</time>
      </trkpt>
      <trkpt lat="47.51297" lon="6.77282">
        <ele>427.6</ele>
        <time>2017-01-15T11:54:21.999Z</time>
      </trkpt>
      <trkpt lat="47.51303" lon="6.77284">
        <ele>427.5</ele>
        <time>2017-01-15T11:54:22.999Z</time>
      </trkpt>
      <trkpt lat="47.51309" lon="6.77286">
        <ele>427.6</ele>
        <time>2017-01-15T11:54:23.999Z</time>
      </trkpt>
      <trkpt lat="47.51314" lon="6.77288">
        <ele>427.5</ele>
        <time>2017-01-15T11:54:24.999Z</time>
      </trkpt>
      <trkpt lat="47.5132" lon="6.7729">
        <ele>427.7</ele>
        <time>2017-01-15T11:54:25.999Z</time>
      </trkpt>
      <trkpt lat="47.51325" lon="6.7729">
        <ele>427.4</ele>
        <time>2017-01-15T11:54:26.999Z</time>
      </trkpt>
      <trkpt lat="47.5133" lon="6.77288">
        <ele>426.7</ele>
        <time>2017-01-15T11:54:27.999Z</time>
      </trkpt>
      <trkpt lat="47.51336" lon="6.77285">
        <ele>425.9</ele>
        <time>2017-01-15T11:54:28.999Z</time>
      </trkpt>
      <trkpt lat="47.51343" lon="6.7728">
        <ele>424.9</ele>
        <time>2017-01-15T11:54:29.999Z</time>
      </trkpt>
      <trkpt lat="47.51349" lon="6.77275">
        <ele>423.6</ele>
        <time>2017-01-15T11:54:30.999Z</time>
      </trkpt>
      <trkpt lat="47.51355" lon="6.7727">
        <ele>422.6</ele>
        <time>2017-01-15T11:54:31.999Z</time>
      </trkpt>
      <trkpt lat="47.51368" lon="6.77258">
        <ele>420.8</ele>
        <time>2017-01-15T11:54:33.999Z</time>
      </trkpt>
      <trkpt lat="47.51376" lon="6.77252">
        <ele>419.6</ele>
        <time>2017-01-15T11:54:34.999Z</time>
      </trkpt>
      <trkpt lat="47.51383" lon="6.77247">
        <ele>419.1</ele>
        <time>2017-01-15T11:54:35.999Z</time>
      </trkpt>
      <trkpt lat="47.51391" lon="6.77242">
        <ele>418.3</ele>
        <time>2017-01-15T11:54:36.999Z</time>
      </trkpt>
      <trkpt lat="47.51398" lon="6.77237">
        <ele>417.4</ele>
        <time>2017-01-15T11:54:37.999Z</time>
      </trkpt>
      <trkpt lat="47.51406" lon="6.77233">
        <ele>417</ele>
        <time>2017-01-15T11:54:38.999Z</time>
      </trkpt>
      <trkpt lat="47.51413" lon="6.77229">
        <ele>416.2</ele>
        <time>2017-01-15T11:54:39.999Z</time>
      </trkpt>
      <trkpt lat="47.5142" lon="6.77225">
        <ele>415.3</ele>
        <time>2017-01-15T11:54:40.999Z</time>
      </trkpt>
      <trkpt lat="47.51428" lon="6.77221">
        <ele>415</ele>
        <time>2017-01-15T11:54:41.999Z</time>
      </trkpt>
      <trkpt lat="47.51435" lon="6.77218">
        <ele>415.1</ele>
        <time>2017-01-15T11:54:42.999Z</time>
      </trkpt>
      <trkpt lat="47.51442" lon="6.77215">
        <ele>415.6</ele>
        <time>2017-01-15T11:54:43.999Z</time>
      </trkpt>
      <trkpt lat="47.51448" lon="6.77212">
        <ele>416.2</ele>
        <time>2017-01-15T11:54:44.999Z</time>
      </trkpt>
      <trkpt lat="47.51454" lon="6.77209">
        <ele>417.2</ele>
        <time>2017-01-15T11:54:45.999Z</time>
      </trkpt>
      <trkpt lat="47.5146" lon="6.77206">
        <ele>418.5</ele>
        <time>2017-01-15T11:54:46.999Z</time>
      </trkpt>
      <trkpt lat="47.51465" lon="6.77204">
        <ele>420.1</ele>
        <time>2017-01-15T11:54:47.999Z</time>
      </trkpt>
      <trkpt lat="47.5147" lon="6.77202">
        <ele>421.4</ele>
        <time>2017-01-15T11:54:48.999Z</time>
      </trkpt>
      <trkpt lat="47.51475" lon="6.772">
        <ele>421.5</ele>
        <time>2017-01-15T11:54:49.999Z</time>
      </trkpt>
      <trkpt lat="47.51478" lon="6.772">
        <ele>421.6</ele>
        <time>2017-01-15T11:54:50.999Z</time>
      </trkpt>
      <trkpt lat="47.51481" lon="6.77201">
        <ele>421.6</ele>
        <time>2017-01-15T11:54:51.999Z</time>
      </trkpt>
      <trkpt lat="47.51484" lon="6.77205">
        <ele>421.6</ele>
        <time>2017-01-15T11:54:52.999Z</time>
      </trkpt>
      <trkpt lat="47.51484" lon="6.77208">
        <ele>421.6</ele>
        <time>2017-01-15T11:54:53.999Z</time>
      </trkpt>
      <trkpt lat="47.51485" lon="6.77214">
        <ele>421.7</ele>
        <time>2017-01-15T11:54:54.999Z</time>
      </trkpt>
      <trkpt lat="47.51485" lon="6.77221">
        <ele>422.4</ele>
        <time>2017-01-15T11:54:55.999Z</time>
      </trkpt>
      <trkpt lat="47.51485" lon="6.77228">
        <ele>423.7</ele>
        <time>2017-01-15T11:54:56.999Z</time>
      </trkpt>
      <trkpt lat="47.51485" lon="6.77236">
        <ele>424.8</ele>
        <time>2017-01-15T11:54:57.999Z</time>
      </trkpt>
      <trkpt lat="47.51485" lon="6.77242">
        <ele>425.3</ele>
        <time>2017-01-15T11:54:58.999Z</time>
      </trkpt>
      <trkpt lat="47.51486" lon="6.77246">
        <ele>425.6</ele>
        <time>2017-01-15T11:54:59.999Z</time>
      </trkpt>
      <trkpt lat="47.51486" lon="6.77252">
        <ele>426</ele>
        <time>2017-01-15T11:55:00.999Z</time>
      </trkpt>
      <trkpt lat="47.51486" lon="6.77258">
        <ele>426</ele>
        <time>2017-01-15T11:55:01.999Z</time>
      </trkpt>
      <trkpt lat="47.51487" lon="6.77263">
        <ele>426.2</ele>
        <time>2017-01-15T11:55:02.999Z</time>
      </trkpt>
      <trkpt lat="47.51487" lon="6.77269">
        <ele>426.2</ele>
        <time>2017-01-15T11:55:03.999Z</time>
      </trkpt>
      <trkpt lat="47.51487" lon="6.77274">
        <ele>426.2</ele>
        <time>2017-01-15T11:55:04.999Z</time>
      </trkpt>
      <trkpt lat="47.51488" lon="6.77279">
        <ele>425.4</ele>
        <time>2017-01-15T11:55:05.999Z</time>
      </trkpt>
      <trkpt lat="47.51488" lon="6.77284">
        <ele>425.3</ele>
        <time>2017-01-15T11:55:06.999Z</time>
      </trkpt>
      <trkpt lat="47.51489" lon="6.77288">
        <ele>425.1</ele>
        <time>2017-01-15T11:55:07.999Z</time>
      </trkpt>
      <trkpt lat="47.5149" lon="6.77294">
        <ele>425</ele>
        <time>2017-01-15T11:55:08.999Z</time>
      </trkpt>
      <trkpt lat="47.5149" lon="6.77299">
        <ele>424.9</ele>
        <time>2017-01-15T11:55:09.999Z</time>
      </trkpt>
      <trkpt lat="47.51492" lon="6.77303">
        <ele>424.8</ele>
        <time>2017-01-15T11:55:10.999Z</time>
      </trkpt>
      <trkpt lat="47.51494" lon="6.77308">
        <ele>424.7</ele>
        <time>2017-01-15T11:55:11.999Z</time>
      </trkpt>
      <trkpt lat="47.51496" lon="6.77313">
        <ele>424.6</ele>
        <time>2017-01-15T11:55:12.999Z</time>
      </trkpt>
      <trkpt lat="47.51498" lon="6.77316">
        <ele>424.5</ele>
        <time>2017-01-15T11:55:13.999Z</time>
      </trkpt>
      <trkpt lat="47.515" lon="6.77319">
        <ele>424.4</ele>
        <time>2017-01-15T11:55:14.999Z</time>
      </trkpt>
      <trkpt lat="47.51502" lon="6.77321">
        <ele>424.3</ele>
        <time>2017-01-15T11:55:15.999Z</time>
      </trkpt>
      <trkpt lat="47.51505" lon="6.77324">
        <ele>424.2</ele>
        <time>2017-01-15T11:55:16.999Z</time>
      </trkpt>
      <trkpt lat="47.51506" lon="6.77326">
        <ele>424.2</ele>
        <time>2017-01-15T11:55:17.999Z</time>
      </trkpt>
      <trkpt lat="47.51509" lon="6.77328">
        <ele>424.2</ele>
        <time>2017-01-15T11:55:18.999Z</time>
      </trkpt>
      <trkpt lat="47.51511" lon="6.77331">
        <ele>424.1</ele>
        <time>2017-01-15T11:55:19.999Z</time>
      </trkpt>
      <trkpt lat="47.51513" lon="6.77333">
        <ele>424.1</ele>
        <time>2017-01-15T11:55:20.999Z</time>
      </trkpt>
      <trkpt lat="47.51516" lon="6.77335">
        <ele>424.1</ele>
        <time>2017-01-15T11:55:21.999Z</time>
      </trkpt>
      <trkpt lat="47.51518" lon="6.77338">
        <ele>424</ele>
        <time>2017-01-15T11:55:22.999Z</time>
      </trkpt>
      <trkpt lat="47.5152" lon="6.7734">
        <ele>424</ele>
        <time>2017-01-15T11:55:23.999Z</time>
      </trkpt>
      <trkpt lat="47.51523" lon="6.77343">
        <ele>424</ele>
        <time>2017-01-15T11:55:24.999Z</time>
      </trkpt>
      <trkpt lat="47.51525" lon="6.77346">
        <ele>423.9</ele>
        <time>2017-01-15T11:55:25.999Z</time>
      </trkpt>
      <trkpt lat="47.51528" lon="6.77349">
        <ele>423.9</ele>
        <time>2017-01-15T11:55:26.999Z</time>
      </trkpt>
      <trkpt lat="47.5153" lon="6.77352">
        <ele>424</ele>
        <time>2017-01-15T11:55:27.999Z</time>
      </trkpt>
      <trkpt lat="47.51532" lon="6.77354">
        <ele>423.9</ele>
        <time>2017-01-15T11:55:28.999Z</time>
      </trkpt>
      <trkpt lat="47.51534" lon="6.77357">
        <ele>423.9</ele>
        <time>2017-01-15T11:55:29.999Z</time>
      </trkpt>
      <trkpt lat="47.51536" lon="6.7736">
        <ele>424</ele>
        <time>2017-01-15T11:55:30.999Z</time>
      </trkpt>
      <trkpt lat="47.51538" lon="6.77363">
        <ele>424</ele>
        <time>2017-01-15T11:55:31.999Z</time>
      </trkpt>
      <trkpt lat="47.51541" lon="6.77368">
        <ele>424.1</ele>
        <time>2017-01-15T11:55:33.999Z</time>
      </trkpt>
      <trkpt lat="47.51543" lon="6.77371">
        <ele>424.2</ele>
        <time>2017-01-15T11:55:34.999Z</time>
      </trkpt>
      <trkpt lat="47.51545" lon="6.77374">
        <ele>424.3</ele>
        <time>2017-01-15T11:55:35.999Z</time>
      </trkpt>
      <trkpt lat="47.51547" lon="6.77376">
        <ele>424.4</ele>
        <time>2017-01-15T11:55:36.999Z</time>
      </trkpt>
      <trkpt lat="47.51549" lon="6.77378">
        <ele>424.4</ele>
        <time>2017-01-15T11:55:37.999Z</time>
      </trkpt>
      <trkpt lat="47.51551" lon="6.77381">
        <ele>424.5</ele>
        <time>2017-01-15T11:55:38.999Z</time>
      </trkpt>
      <trkpt lat="47.51553" lon="6.77383">
        <ele>424.5</ele>
        <time>2017-01-15T11:55:39.999Z</time>
      </trkpt>
      <trkpt lat="47.51556" lon="6.77387">
        <ele>424.5</ele>
        <time>2017-01-15T11:55:41.999Z</time>
      </trkpt>
      <trkpt lat="47.51558" lon="6.77389">
        <ele>424.5</ele>
        <time>2017-01-15T11:55:42.999Z</time>
      </trkpt>
      <trkpt lat="47.5156" lon="6.77392">
        <ele>424.5</ele>
        <time>2017-01-15T11:55:43.999Z</time>
      </trkpt>
      <trkpt lat="47.51561" lon="6.77394">
        <ele>424.5</ele>
        <time>2017-01-15T11:55:44.999Z</time>
      </trkpt>
      <trkpt lat="47.51563" lon="6.77396">
        <ele>424.5</ele>
        <time>2017-01-15T11:55:45.999Z</time>
      </trkpt>
      <trkpt lat="47.51565" lon="6.77398">
        <ele>424.6</ele>
        <time>2017-01-15T11:55:46.999Z</time>
      </trkpt>
      <trkpt lat="47.51567" lon="6.77401">
        <ele>424.6</ele>
        <time>2017-01-15T11:55:47.999Z</time>
      </trkpt>
      <trkpt lat="47.51569" lon="6.77404">
        <ele>424.6</ele>
        <time>2017-01-15T11:55:48.999Z</time>
      </trkpt>
      <trkpt lat="47.51572" lon="6.77407">
        <ele>424.6</ele>
        <time>2017-01-15T11:55:49.999Z</time>
      </trkpt>
      <trkpt lat="47.51574" lon="6.7741">
        <ele>424.7</ele>
        <time>2017-01-15T11:55:50.999Z</time>
      </trkpt>
      <trkpt lat="47.51577" lon="6.77413">
        <ele>424.7</ele>
        <time>2017-01-15T11:55:51.999Z</time>
      </trkpt>
      <trkpt lat="47.51579" lon="6.77415">
        <ele>424.9</ele>
        <time>2017-01-15T11:55:52.999Z</time>
      </trkpt>
      <trkpt lat="47.51582" lon="6.77418">
        <ele>425</ele>
        <time>2017-01-15T11:55:53.999Z</time>
      </trkpt>
      <trkpt lat="47.51584" lon="6.77421">
        <ele>425.2</ele>
        <time>2017-01-15T11:55:54.999Z</time>
      </trkpt>
      <trkpt lat="47.51586" lon="6.77423">
        <ele>425.3</ele>
        <time>2017-01-15T11:55:55.999Z</time>
      </trkpt>
      <trkpt lat="47.51588" lon="6.77425">
        <ele>425.5</ele>
        <time>2017-01-15T11:55:56.999Z</time>
      </trkpt>
      <trkpt lat="47.51591" lon="6.77429">
        <ele>425.9</ele>
        <time>2017-01-15T11:55:58.999Z</time>
      </trkpt>
      <trkpt lat="47.51594" lon="6.77431">
        <ele>426.1</ele>
        <time>2017-01-15T11:55:59.999Z</time>
      </trkpt>
      <trkpt lat="47.51596" lon="6.77435">
        <ele>426.3</ele>
        <time>2017-01-15T11:56:01.999Z</time>
      </trkpt>
      <trkpt lat="47.51598" lon="6.77437">
        <ele>426.4</ele>
        <time>2017-01-15T11:56:02.999Z</time>
      </trkpt>
      <trkpt lat="47.51599" lon="6.7744">
        <ele>426.4</ele>
        <time>2017-01-15T11:56:03.999Z</time>
      </trkpt>
      <trkpt lat="47.51601" lon="6.77442">
        <ele>426.5</ele>
        <time>2017-01-15T11:56:04.999Z</time>
      </trkpt>
      <trkpt lat="47.51603" lon="6.77445">
        <ele>426.6</ele>
        <time>2017-01-15T11:56:05.999Z</time>
      </trkpt>
      <trkpt lat="47.51605" lon="6.77448">
        <ele>426.7</ele>
        <time>2017-01-15T11:56:06.999Z</time>
      </trkpt>
      <trkpt lat="47.51607" lon="6.7745">
        <ele>426.8</ele>
        <time>2017-01-15T11:56:07.999Z</time>
      </trkpt>
      <trkpt lat="47.51609" lon="6.77452">
        <ele>426.9</ele>
        <time>2017-01-15T11:56:08.999Z</time>
      </trkpt>
      <trkpt lat="47.51612" lon="6.77454">
        <ele>426.9</ele>
        <time>2017-01-15T11:56:09.999Z</time>
      </trkpt>
      <trkpt lat="47.51614" lon="6.77456">
        <ele>427</ele>
        <time>2017-01-15T11:56:10.999Z</time>
      </trkpt>
      <trkpt lat="47.51616" lon="6.77459">
        <ele>427.1</ele>
        <time>2017-01-15T11:56:11.999Z</time>
      </trkpt>
      <trkpt lat="47.51618" lon="6.77461">
        <ele>427.2</ele>
        <time>2017-01-15T11:56:12.999Z</time>
      </trkpt>
      <trkpt lat="47.51621" lon="6.77463">
        <ele>427.3</ele>
        <time>2017-01-15T11:56:13.999Z</time>
      </trkpt>
      <trkpt lat="47.51623" lon="6.77466">
        <ele>427.4</ele>
        <time>2017-01-15T11:56:14.999Z</time>
      </trkpt>
      <trkpt lat="47.51626" lon="6.77468">
        <ele>427.5</ele>
        <time>2017-01-15T11:56:15.999Z</time>
      </trkpt>
      <trkpt lat="47.51628" lon="6.77471">
        <ele>427.7</ele>
        <time>2017-01-15T11:56:16.999Z</time>
      </trkpt>
      <trkpt lat="47.5163" lon="6.77473">
        <ele>427.8</ele>
        <time>2017-01-15T11:56:17.999Z</time>
      </trkpt>
      <trkpt lat="47.51632" lon="6.77476">
        <ele>427.9</ele>
        <time>2017-01-15T11:56:18.999Z</time>
      </trkpt>
      <trkpt lat="47.51634" lon="6.77478">
        <ele>428</ele>
        <time>2017-01-15T11:56:19.999Z</time>
      </trkpt>
      <trkpt lat="47.51636" lon="6.77481">
        <ele>428.1</ele>
        <time>2017-01-15T11:56:20.999Z</time>
      </trkpt>
      <trkpt lat="47.51638" lon="6.77483">
        <ele>428.2</ele>
        <time>2017-01-15T11:56:21.999Z</time>
      </trkpt>
      <trkpt lat="47.51641" lon="6.77486">
        <ele>428.3</ele>
        <time>2017-01-15T11:56:22.999Z</time>
      </trkpt>
      <trkpt lat="47.51643" lon="6.77489">
        <ele>428.4</ele>
        <time>2017-01-15T11:56:23.999Z</time>
      </trkpt>
      <trkpt lat="47.51645" lon="6.77491">
        <ele>428.5</ele>
        <time>2017-01-15T11:56:24.999Z</time>
      </trkpt>
      <trkpt lat="47.51648" lon="6.77494">
        <ele>428.5</ele>
        <time>2017-01-15T11:56:25.999Z</time>
      </trkpt>
      <trkpt lat="47.5165" lon="6.77497">
        <ele>428.6</ele>
        <time>2017-01-15T11:56:26.999Z</time>
      </trkpt>
      <trkpt lat="47.51651" lon="6.77499">
        <ele>428.8</ele>
        <time>2017-01-15T11:56:27.999Z</time>
      </trkpt>
      <trkpt lat="47.51653" lon="6.77502">
        <ele>428.9</ele>
        <time>2017-01-15T11:56:28.999Z</time>
      </trkpt>
      <trkpt lat="47.51655" lon="6.77504">
        <ele>429</ele>
        <time>2017-01-15T11:56:29.999Z</time>
      </trkpt>
      <trkpt lat="47.51657" lon="6.77507">
        <ele>429.2</ele>
        <time>2017-01-15T11:56:30.999Z</time>
      </trkpt>
      <trkpt lat="47.51659" lon="6.77509">
        <ele>429.3</ele>
        <time>2017-01-15T11:56:31.999Z</time>
      </trkpt>
      <trkpt lat="47.51663" lon="6.77515">
        <ele>429.5</ele>
        <time>2017-01-15T11:56:33.999Z</time>
      </trkpt>
      <trkpt lat="47.51665" lon="6.77517">
        <ele>429.6</ele>
        <time>2017-01-15T11:56:34.999Z</time>
      </trkpt>
      <trkpt lat="47.51667" lon="6.77519">
        <ele>429.7</ele>
        <time>2017-01-15T11:56:35.999Z</time>
      </trkpt>
      <trkpt lat="47.51669" lon="6.77521">
        <ele>429.8</ele>
        <time>2017-01-15T11:56:36.999Z</time>
      </trkpt>
      <trkpt lat="47.51671" lon="6.77524">
        <ele>430</ele>
        <time>2017-01-15T11:56:37.999Z</time>
      </trkpt>
      <trkpt lat="47.51674" lon="6.77524">
        <ele>430.1</ele>
        <time>2017-01-15T11:56:38.999Z</time>
      </trkpt>
      <trkpt lat="47.51676" lon="6.77525">
        <ele>430.3</ele>
        <time>2017-01-15T11:56:39.999Z</time>
      </trkpt>
      <trkpt lat="47.5168" lon="6.77526">
        <ele>430.3</ele>
        <time>2017-01-15T11:56:40.999Z</time>
      </trkpt>
      <trkpt lat="47.51683" lon="6.77528">
        <ele>430.4</ele>
        <time>2017-01-15T11:56:41.999Z</time>
      </trkpt>
      <trkpt lat="47.51686" lon="6.77531">
        <ele>430.4</ele>
        <time>2017-01-15T11:56:42.999Z</time>
      </trkpt>
      <trkpt lat="47.51689" lon="6.77534">
        <ele>430.4</ele>
        <time>2017-01-15T11:56:43.999Z</time>
      </trkpt>
      <trkpt lat="47.51691" lon="6.77537">
        <ele>430.5</ele>
        <time>2017-01-15T11:56:44.999Z</time>
      </trkpt>
      <trkpt lat="47.51694" lon="6.77539">
        <ele>430.5</ele>
        <time>2017-01-15T11:56:45.999Z</time>
      </trkpt>
      <trkpt lat="47.51696" lon="6.77542">
        <ele>430.6</ele>
        <time>2017-01-15T11:56:46.999Z</time>
      </trkpt>
      <trkpt lat="47.51699" lon="6.77545">
        <ele>430.7</ele>
        <time>2017-01-15T11:56:47.999Z</time>
      </trkpt>
      <trkpt lat="47.51701" lon="6.77548">
        <ele>430.8</ele>
        <time>2017-01-15T11:56:48.999Z</time>
      </trkpt>
      <trkpt lat="47.51703" lon="6.77551">
        <ele>430.9</ele>
        <time>2017-01-15T11:56:49.999Z</time>
      </trkpt>
      <trkpt lat="47.51706" lon="6.77554">
        <ele>431</ele>
        <time>2017-01-15T11:56:50.999Z</time>
      </trkpt>
      <trkpt lat="47.51709" lon="6.77556">
        <ele>431.2</ele>
        <time>2017-01-15T11:56:51.999Z</time>
      </trkpt>
      <trkpt lat="47.51711" lon="6.77556">
        <ele>431.4</ele>
        <time>2017-01-15T11:56:52.999Z</time>
      </trkpt>
      <trkpt lat="47.51714" lon="6.77553">
        <ele>431.6</ele>
        <time>2017-01-15T11:56:53.999Z</time>
      </trkpt>
      <trkpt lat="47.51717" lon="6.77547">
        <ele>431.7</ele>
        <time>2017-01-15T11:56:54.999Z</time>
      </trkpt>
      <trkpt lat="47.51719" lon="6.77541">
        <ele>431.9</ele>
        <time>2017-01-15T11:56:55.999Z</time>
      </trkpt>
      <trkpt lat="47.51721" lon="6.77537">
        <ele>432.1</ele>
        <time>2017-01-15T11:56:56.999Z</time>
      </trkpt>
      <trkpt lat="47.51722" lon="6.77533">
        <ele>432.2</ele>
        <time>2017-01-15T11:56:57.999Z</time>
      </trkpt>
      <trkpt lat="47.51724" lon="6.77527">
        <ele>432.4</ele>
        <time>2017-01-15T11:56:58.999Z</time>
      </trkpt>
      <trkpt lat="47.51725" lon="6.77524">
        <ele>432.6</ele>
        <time>2017-01-15T11:56:59.999Z</time>
      </trkpt>
      <trkpt lat="47.51726" lon="6.7752">
        <ele>432.7</ele>
        <time>2017-01-15T11:57:00.999Z</time>
      </trkpt>
      <trkpt lat="47.51727" lon="6.77515">
        <ele>432.8</ele>
        <time>2017-01-15T11:57:01.999Z</time>
      </trkpt>
      <trkpt lat="47.51728" lon="6.7751">
        <ele>432.9</ele>
        <time>2017-01-15T11:57:02.999Z</time>
      </trkpt>
      <trkpt lat="47.51729" lon="6.77506">
        <ele>433</ele>
        <time>2017-01-15T11:57:03.999Z</time>
      </trkpt>
      <trkpt lat="47.51731" lon="6.775">
        <ele>433</ele>
        <time>2017-01-15T11:57:04.999Z</time>
      </trkpt>
      <trkpt lat="47.51732" lon="6.77494">
        <ele>433.1</ele>
        <time>2017-01-15T11:57:05.999Z</time>
      </trkpt>
      <trkpt lat="47.51733" lon="6.77488">
        <ele>433</ele>
        <time>2017-01-15T11:57:06.999Z</time>
      </trkpt>
      <trkpt lat="47.51734" lon="6.77485">
        <ele>433.1</ele>
        <time>2017-01-15T11:57:07.999Z</time>
      </trkpt>
      <trkpt lat="47.51736" lon="6.77481">
        <ele>433.2</ele>
        <time>2017-01-15T11:57:08.999Z</time>
      </trkpt>
      <trkpt lat="47.51739" lon="6.77478">
        <ele>433.3</ele>
        <time>2017-01-15T11:57:09.999Z</time>
      </trkpt>
      <trkpt lat="47.51743" lon="6.77477">
        <ele>433.3</ele>
        <time>2017-01-15T11:57:10.999Z</time>
      </trkpt>
      <trkpt lat="47.51747" lon="6.77476">
        <ele>433.5</ele>
        <time>2017-01-15T11:57:12.999Z</time>
      </trkpt>
      <trkpt lat="47.5175" lon="6.77477">
        <ele>433.6</ele>
        <time>2017-01-15T11:57:13.999Z</time>
      </trkpt>
      <trkpt lat="47.51754" lon="6.77477">
        <ele>433.7</ele>
        <time>2017-01-15T11:57:14.999Z</time>
      </trkpt>
      <trkpt lat="47.51757" lon="6.77477">
        <ele>433.8</ele>
        <time>2017-01-15T11:57:15.999Z</time>
      </trkpt>
      <trkpt lat="47.51762" lon="6.77478">
        <ele>434</ele>
        <time>2017-01-15T11:57:16.999Z</time>
      </trkpt>
      <trkpt lat="47.51765" lon="6.77479">
        <ele>434.2</ele>
        <time>2017-01-15T11:57:17.999Z</time>
      </trkpt>
      <trkpt lat="47.5177" lon="6.77479">
        <ele>436.4</ele>
        <time>2017-01-15T11:57:18.999Z</time>
      </trkpt>
      <trkpt lat="47.51774" lon="6.77481">
        <ele>438.1</ele>
        <time>2017-01-15T11:57:19.999Z</time>
      </trkpt>
      <trkpt lat="47.51777" lon="6.77482">
        <ele>439.5</ele>
        <time>2017-01-15T11:57:20.999Z</time>
      </trkpt>
      <trkpt lat="47.5178" lon="6.77483">
        <ele>440.8</ele>
        <time>2017-01-15T11:57:21.999Z</time>
      </trkpt>
      <trkpt lat="47.51783" lon="6.77485">
        <ele>440.9</ele>
        <time>2017-01-15T11:57:22.999Z</time>
      </trkpt>
      <trkpt lat="47.51786" lon="6.77486">
        <ele>440.9</ele>
        <time>2017-01-15T11:57:23.999Z</time>
      </trkpt>
      <trkpt lat="47.5179" lon="6.77488">
        <ele>441.4</ele>
        <time>2017-01-15T11:57:24.999Z</time>
      </trkpt>
      <trkpt lat="47.51793" lon="6.7749">
        <ele>441.1</ele>
        <time>2017-01-15T11:57:25.999Z</time>
      </trkpt>
      <trkpt lat="47.51795" lon="6.7749">
        <ele>441.1</ele>
        <time>2017-01-15T11:57:26.999Z</time>
      </trkpt>
      <trkpt lat="47.51799" lon="6.77491">
        <ele>441.1</ele>
        <time>2017-01-15T11:57:27.999Z</time>
      </trkpt>
      <trkpt lat="47.51801" lon="6.77491">
        <ele>441</ele>
        <time>2017-01-15T11:57:28.999Z</time>
      </trkpt>
      <trkpt lat="47.51805" lon="6.77492">
        <ele>441</ele>
        <time>2017-01-15T11:57:29.999Z</time>
      </trkpt>
      <trkpt lat="47.51807" lon="6.77492">
        <ele>441</ele>
        <time>2017-01-15T11:57:30.999Z</time>
      </trkpt>
      <trkpt lat="47.51809" lon="6.7749">
        <ele>441</ele>
        <time>2017-01-15T11:57:31.999Z</time>
      </trkpt>
      <trkpt lat="47.51811" lon="6.77485">
        <ele>440.9</ele>
        <time>2017-01-15T11:57:33.999Z</time>
      </trkpt>
      <trkpt lat="47.51811" lon="6.77478">
        <ele>440.5</ele>
        <time>2017-01-15T11:57:36.999Z</time>
      </trkpt>
      <trkpt lat="47.5181" lon="6.77477">
        <ele>440.3</ele>
        <time>2017-01-15T11:57:37.999Z</time>
      </trkpt>
      <trkpt lat="47.5181" lon="6.77476">
        <ele>439.1</ele>
        <time>2017-01-15T11:59:45.999Z</time>
      </trkpt>
      <trkpt lat="47.51804" lon="6.7747">
        <ele>439.1</ele>
        <time>2017-01-15T11:59:46.999Z</time>
      </trkpt>
      <trkpt lat="47.51803" lon="6.77471">
        <ele>439</ele>
        <time>2017-01-15T11:59:55.999Z</time>
      </trkpt>
    </trkseg>
  </trk>
</gpx>